<?xml version="1.0" encoding="UTF-8"?>
<gpx xmlns="http://www.topografix.com/GPX/1/1" version="1.1" creator="Nokia Sports Tracker" xmlns:xsi="http://www.w3.org/2001/XMLSchema-instance" xsi:schemaLocation="http://www.topografix.com/GPX/1/1 http://www.topografix.com/GPX/1/1/gpx.xsd">
<metadata>
<name>31.07.2010 13:51</name>
<desc>Motor on Neue Route</desc>
<author><name>Alexander</name></author>
<time>2010-07-31T13:51:26.93</time>
</metadata>
<trk>
<name>31.07.2010 13:51</name>
<trkseg>
<trkpt lat="49.222660" lon="10.724445">
<ele>526.5</ele>
<speed>0.0</speed>
<course>236.4</course>
<desc>Speed 0.0 km/h Distance 0.00 km</desc>
<time>2010-07-31T13:51:37.66</time>
<name>1</name>
</trkpt>
<trkpt lat="49.222505" lon="10.724088">
<ele>519.0</ele>
<speed>2.9</speed>
<course>30.7</course>
<desc>Speed 2.9 km/h Distance 0.03 km</desc>
<time>2010-07-31T13:51:42.63</time>
<name>2</name>
</trkpt>
<trkpt lat="49.222523" lon="10.724105">
<ele>514.5</ele>
<speed>2.5</speed>
<course>44.5</course>
<desc>Speed 2.5 km/h Distance 0.03 km</desc>
<time>2010-07-31T13:51:44.66</time>
<name>3</name>
</trkpt>
<trkpt lat="49.222540" lon="10.724130">
<ele>511.0</ele>
<speed>9.0</speed>
<course>53.0</course>
<desc>Speed 9.0 km/h Distance 0.04 km</desc>
<time>2010-07-31T13:51:46.45</time>
<name>4</name>
</trkpt>
<trkpt lat="49.222543" lon="10.724137">
<ele>510.5</ele>
<speed>9.0</speed>
<course>282.3</course>
<desc>Speed 9.0 km/h Distance 0.04 km</desc>
<time>2010-07-31T13:51:47.44</time>
<name>5</name>
</trkpt>
<trkpt lat="49.222550" lon="10.724090">
<ele>508.5</ele>
<speed>9.0</speed>
<course>215.9</course>
<desc>Speed 9.0 km/h Distance 0.04 km</desc>
<time>2010-07-31T13:51:48.44</time>
<name>6</name>
</trkpt>
<trkpt lat="49.222535" lon="10.724073">
<ele>505.5</ele>
<speed>2.3</speed>
<course>298.0</course>
<desc>Speed 2.3 km/h Distance 0.04 km</desc>
<time>2010-07-31T13:51:49.44</time>
<name>7</name>
</trkpt>
<trkpt lat="49.222548" lon="10.724035">
<ele>505.0</ele>
<speed>1.6</speed>
<course>167.4</course>
<desc>Speed 1.6 km/h Distance 0.05 km</desc>
<time>2010-07-31T13:51:51.45</time>
<name>8</name>
</trkpt>
<trkpt lat="49.222547" lon="10.724035">
<ele>505.0</ele>
<speed>1.6</speed>
<course>170.2</course>
<desc>Speed 1.6 km/h Distance 0.05 km</desc>
<time>2010-07-31T13:51:52.45</time>
<name>9</name>
</trkpt>
<trkpt lat="49.222528" lon="10.724040">
<ele>503.0</ele>
<speed>1.0</speed>
<course>246.3</course>
<desc>Speed 1.0 km/h Distance 0.05 km</desc>
<time>2010-07-31T13:51:53.44</time>
<name>10</name>
</trkpt>
<trkpt lat="49.222525" lon="10.724028">
<ele>502.0</ele>
<speed>1.6</speed>
<course>130.4</course>
<desc>Speed 1.6 km/h Distance 0.05 km</desc>
<time>2010-07-31T13:51:54.49</time>
<name>11</name>
</trkpt>
<trkpt lat="49.222517" lon="10.724043">
<ele>502.0</ele>
<speed>1.6</speed>
<course>112.2</course>
<desc>Speed 1.6 km/h Distance 0.05 km</desc>
<time>2010-07-31T13:51:55.43</time>
<name>12</name>
</trkpt>
<trkpt lat="49.222510" lon="10.724068">
<ele>502.5</ele>
<speed>4.4</speed>
<course>131.3</course>
<desc>Speed 4.4 km/h Distance 0.05 km</desc>
<time>2010-07-31T13:51:56.46</time>
<name>13</name>
</trkpt>
<trkpt lat="49.222503" lon="10.724080">
<ele>501.0</ele>
<speed>0.4</speed>
<course>67.8</course>
<desc>Speed 0.4 km/h Distance 0.05 km</desc>
<time>2010-07-31T13:51:57.44</time>
<name>14</name>
</trkpt>
<trkpt lat="49.222510" lon="10.724105">
<ele>499.5</ele>
<speed>3.2</speed>
<course>116.5</course>
<desc>Speed 3.2 km/h Distance 0.06 km</desc>
<time>2010-07-31T13:51:58.43</time>
<name>15</name>
</trkpt>
<trkpt lat="49.222462" lon="10.724253">
<ele>499.5</ele>
<speed>1.7</speed>
<course>90.0</course>
<desc>Speed 1.7 km/h Distance 0.07 km</desc>
<time>2010-07-31T13:52:01.44</time>
<name>16</name>
</trkpt>
<trkpt lat="49.222462" lon="10.724267">
<ele>499.0</ele>
<speed>0.2</speed>
<course>12.6</course>
<desc>Speed 0.2 km/h Distance 0.07 km</desc>
<time>2010-07-31T13:52:02.44</time>
<name>17</name>
</trkpt>
<trkpt lat="49.222472" lon="10.724270">
<ele>500.5</ele>
<speed>0.8</speed>
<course>69.1</course>
<desc>Speed 0.8 km/h Distance 0.07 km</desc>
<time>2010-07-31T13:52:03.44</time>
<name>18</name>
</trkpt>
<trkpt lat="49.222473" lon="10.724277">
<ele>501.0</ele>
<speed>0.4</speed>
<course>336.6</course>
<desc>Speed 0.4 km/h Distance 0.07 km</desc>
<time>2010-07-31T13:52:04.44</time>
<name>19</name>
</trkpt>
<trkpt lat="49.222483" lon="10.724270">
<ele>502.0</ele>
<speed>4.0</speed>
<course>167.4</course>
<desc>Speed 4.0 km/h Distance 0.07 km</desc>
<time>2010-07-31T13:52:05.44</time>
<name>20</name>
</trkpt>
<trkpt lat="49.222482" lon="10.724272">
<ele>502.5</ele>
<speed>0.2</speed>
<course>167.4</course>
<desc>Speed 0.2 km/h Distance 0.07 km</desc>
<time>2010-07-31T13:52:06.44</time>
<name>21</name>
</trkpt>
<trkpt lat="49.222477" lon="10.724273">
<ele>502.5</ele>
<speed>0.2</speed>
<course>217.2</course>
<desc>Speed 0.2 km/h Distance 0.07 km</desc>
<time>2010-07-31T13:52:07.44</time>
<name>22</name>
</trkpt>
<trkpt lat="49.222475" lon="10.724272">
<ele>501.5</ele>
<speed>1.7</speed>
<course>126.1</course>
<desc>Speed 1.7 km/h Distance 0.07 km</desc>
<time>2010-07-31T13:52:08.44</time>
<name>23</name>
</trkpt>
<trkpt lat="49.222473" lon="10.724275">
<ele>502.0</ele>
<speed>0.2</speed>
<course>12.6</course>
<desc>Speed 0.2 km/h Distance 0.07 km</desc>
<time>2010-07-31T13:52:09.44</time>
<name>24</name>
</trkpt>
<trkpt lat="49.222478" lon="10.724277">
<ele>502.0</ele>
<speed>0.9</speed>
<course>146.3</course>
<desc>Speed 0.9 km/h Distance 0.07 km</desc>
<time>2010-07-31T13:52:10.44</time>
<name>25</name>
</trkpt>
<trkpt lat="49.222475" lon="10.724280">
<ele>502.0</ele>
<speed>0.2</speed>
<course>12.6</course>
<desc>Speed 0.2 km/h Distance 0.07 km</desc>
<time>2010-07-31T13:52:11.47</time>
<name>26</name>
</trkpt>
<trkpt lat="49.222477" lon="10.724280">
<ele>502.5</ele>
<speed>0.7</speed>
<course>12.6</course>
<desc>Speed 0.7 km/h Distance 0.07 km</desc>
<time>2010-07-31T13:52:12.44</time>
<name>27</name>
</trkpt>
<trkpt lat="49.222477" lon="10.724280">
<ele>502.5</ele>
<speed>0.1</speed>
<course>322.8</course>
<desc>Speed 0.1 km/h Distance 0.07 km</desc>
<time>2010-07-31T13:52:13.43</time>
<name>28</name>
</trkpt>
<trkpt lat="49.222478" lon="10.724278">
<ele>503.0</ele>
<speed>0.1</speed>
<course>90.0</course>
<desc>Speed 0.1 km/h Distance 0.07 km</desc>
<time>2010-07-31T13:52:14.43</time>
<name>29</name>
</trkpt>
<trkpt lat="49.222478" lon="10.724280">
<ele>503.0</ele>
<speed>0.2</speed>
<course>336.2</course>
<desc>Speed 0.2 km/h Distance 0.07 km</desc>
<time>2010-07-31T13:52:15.43</time>
<name>30</name>
</trkpt>
<trkpt lat="49.222483" lon="10.724277">
<ele>503.0</ele>
<speed>1.6</speed>
<course>130.6</course>
<desc>Speed 1.6 km/h Distance 0.07 km</desc>
<time>2010-07-31T13:52:16.43</time>
<name>31</name>
</trkpt>
<trkpt lat="49.222482" lon="10.724280">
<ele>503.0</ele>
<speed>1.2</speed>
<course>213.7</course>
<desc>Speed 1.2 km/h Distance 0.07 km</desc>
<time>2010-07-31T13:52:17.43</time>
<name>32</name>
</trkpt>
<trkpt lat="49.222478" lon="10.724277">
<ele>502.5</ele>
<speed>3.1</speed>
<course>347.4</course>
<desc>Speed 3.1 km/h Distance 0.08 km</desc>
<time>2010-07-31T13:52:18.43</time>
<name>33</name>
</trkpt>
<trkpt lat="49.222498" lon="10.724270">
<ele>504.0</ele>
<speed>8.0</speed>
<course>90.0</course>
<desc>Speed 8.0 km/h Distance 0.08 km</desc>
<time>2010-07-31T13:52:19.43</time>
<name>34</name>
</trkpt>
<trkpt lat="49.222498" lon="10.724277">
<ele>503.5</ele>
<speed>0.8</speed>
<course>29.2</course>
<desc>Speed 0.8 km/h Distance 0.08 km</desc>
<time>2010-07-31T13:52:21.43</time>
<name>35</name>
</trkpt>
<trkpt lat="49.222500" lon="10.724278">
<ele>503.5</ele>
<speed>0.2</speed>
<course>104.4</course>
<desc>Speed 0.2 km/h Distance 0.08 km</desc>
<time>2010-07-31T13:52:22.42</time>
<name>36</name>
</trkpt>
<trkpt lat="49.222498" lon="10.724288">
<ele>503.0</ele>
<speed>0.4</speed>
<course>157.8</course>
<desc>Speed 0.4 km/h Distance 0.08 km</desc>
<time>2010-07-31T13:52:23.45</time>
<name>37</name>
</trkpt>
<trkpt lat="49.222493" lon="10.724292">
<ele>502.5</ele>
<speed>1.5</speed>
<course>167.4</course>
<desc>Speed 1.5 km/h Distance 0.08 km</desc>
<time>2010-07-31T13:52:24.42</time>
<name>38</name>
</trkpt>
<trkpt lat="49.222492" lon="10.724293">
<ele>502.5</ele>
<speed>0.5</speed>
<course>150.8</course>
<desc>Speed 0.5 km/h Distance 0.08 km</desc>
<time>2010-07-31T13:52:25.42</time>
<name>39</name>
</trkpt>
<trkpt lat="49.222490" lon="10.724295">
<ele>502.0</ele>
<speed>0.5</speed>
<course>0.0</course>
<desc>Speed 0.5 km/h Distance 0.08 km</desc>
<time>2010-07-31T13:52:26.42</time>
<name>40</name>
</trkpt>
<trkpt lat="49.222495" lon="10.724295">
<ele>502.0</ele>
<speed>3.3</speed>
<course>150.8</course>
<desc>Speed 3.3 km/h Distance 0.08 km</desc>
<time>2010-07-31T13:52:27.42</time>
<name>41</name>
</trkpt>
<trkpt lat="49.222493" lon="10.724297">
<ele>502.5</ele>
<speed>0.8</speed>
<course>157.8</course>
<desc>Speed 0.8 km/h Distance 0.08 km</desc>
<time>2010-07-31T13:52:28.42</time>
<name>42</name>
</trkpt>
<trkpt lat="49.222488" lon="10.724300">
<ele>502.0</ele>
<speed>0.8</speed>
<course>29.2</course>
<desc>Speed 0.8 km/h Distance 0.08 km</desc>
<time>2010-07-31T13:52:29.42</time>
<name>43</name>
</trkpt>
<trkpt lat="49.222490" lon="10.724302">
<ele>502.5</ele>
<speed>0.4</speed>
<course>150.8</course>
<desc>Speed 0.4 km/h Distance 0.08 km</desc>
<time>2010-07-31T13:52:30.42</time>
<name>44</name>
</trkpt>
<trkpt lat="49.222488" lon="10.724303">
<ele>502.5</ele>
<speed>0.7</speed>
<course>12.6</course>
<desc>Speed 0.7 km/h Distance 0.08 km</desc>
<time>2010-07-31T13:52:31.42</time>
<name>45</name>
</trkpt>
<trkpt lat="49.222490" lon="10.724303">
<ele>502.5</ele>
<speed>0.4</speed>
<course>333.6</course>
<desc>Speed 0.4 km/h Distance 0.08 km</desc>
<time>2010-07-31T13:52:32.41</time>
<name>46</name>
</trkpt>
<trkpt lat="49.222497" lon="10.724298">
<ele>503.0</ele>
<speed>0.4</speed>
<course>336.2</course>
<desc>Speed 0.4 km/h Distance 0.08 km</desc>
<time>2010-07-31T13:52:33.41</time>
<name>47</name>
</trkpt>
<trkpt lat="49.222502" lon="10.724295">
<ele>503.5</ele>
<speed>0.5</speed>
<course>167.4</course>
<desc>Speed 0.5 km/h Distance 0.08 km</desc>
<time>2010-07-31T13:52:34.41</time>
<name>48</name>
</trkpt>
<trkpt lat="49.222498" lon="10.724297">
<ele>503.0</ele>
<speed>2.2</speed>
<course>139.1</course>
<desc>Speed 2.2 km/h Distance 0.08 km</desc>
<time>2010-07-31T13:52:35.41</time>
<name>49</name>
</trkpt>
<trkpt lat="49.222493" lon="10.724303">
<ele>503.0</ele>
<speed>0.7</speed>
<course>347.4</course>
<desc>Speed 0.7 km/h Distance 0.08 km</desc>
<time>2010-07-31T13:52:36.41</time>
<name>50</name>
</trkpt>
<trkpt lat="49.222497" lon="10.724302">
<ele>503.5</ele>
<speed>0.6</speed>
<course>153.1</course>
<desc>Speed 0.6 km/h Distance 0.08 km</desc>
<time>2010-07-31T13:52:37.41</time>
<name>51</name>
</trkpt>
<trkpt lat="49.222482" lon="10.724313">
<ele>503.0</ele>
<speed>3.3</speed>
<course>135.5</course>
<desc>Speed 3.3 km/h Distance 0.09 km</desc>
<time>2010-07-31T13:52:38.41</time>
<name>52</name>
</trkpt>
<trkpt lat="49.222478" lon="10.724318">
<ele>503.0</ele>
<speed>0.5</speed>
<course>12.6</course>
<desc>Speed 0.5 km/h Distance 0.09 km</desc>
<time>2010-07-31T13:52:39.41</time>
<name>53</name>
</trkpt>
<trkpt lat="49.222480" lon="10.724318">
<ele>502.5</ele>
<speed>0.3</speed>
<course>90.0</course>
<desc>Speed 0.3 km/h Distance 0.09 km</desc>
<time>2010-07-31T13:52:40.41</time>
<name>54</name>
</trkpt>
<trkpt lat="49.222480" lon="10.724320">
<ele>502.5</ele>
<speed>0.3</speed>
<course>142.8</course>
<desc>Speed 0.3 km/h Distance 0.09 km</desc>
<time>2010-07-31T13:52:41.41</time>
<name>55</name>
</trkpt>
<trkpt lat="49.222478" lon="10.724322">
<ele>502.5</ele>
<speed>0.4</speed>
<course>349.7</course>
<desc>Speed 0.4 km/h Distance 0.09 km</desc>
<time>2010-07-31T13:52:42.41</time>
<name>56</name>
</trkpt>
<trkpt lat="49.222485" lon="10.724320">
<ele>502.0</ele>
<speed>1.5</speed>
<course>333.6</course>
<desc>Speed 1.5 km/h Distance 0.09 km</desc>
<time>2010-07-31T13:52:43.41</time>
<name>57</name>
</trkpt>
<trkpt lat="49.222492" lon="10.724315">
<ele>502.5</ele>
<speed>3.0</speed>
<course>342.5</course>
<desc>Speed 3.0 km/h Distance 0.09 km</desc>
<time>2010-07-31T13:52:44.41</time>
<name>58</name>
</trkpt>
<trkpt lat="49.222498" lon="10.724312">
<ele>503.0</ele>
<speed>0.3</speed>
<course>142.8</course>
<desc>Speed 0.3 km/h Distance 0.09 km</desc>
<time>2010-07-31T13:52:45.41</time>
<name>59</name>
</trkpt>
<trkpt lat="49.222497" lon="10.724313">
<ele>503.0</ele>
<speed>0.4</speed>
<course>338.5</course>
<desc>Speed 0.4 km/h Distance 0.09 km</desc>
<time>2010-07-31T13:52:46.41</time>
<name>60</name>
</trkpt>
<trkpt lat="49.222505" lon="10.724308">
<ele>503.5</ele>
<speed>0.3</speed>
<course>322.8</course>
<desc>Speed 0.3 km/h Distance 0.09 km</desc>
<time>2010-07-31T13:52:47.41</time>
<name>61</name>
</trkpt>
<trkpt lat="49.222507" lon="10.724307">
<ele>503.5</ele>
<speed>0.3</speed>
<course>322.8</course>
<desc>Speed 0.3 km/h Distance 0.09 km</desc>
<time>2010-07-31T13:52:48.41</time>
<name>62</name>
</trkpt>
<trkpt lat="49.222507" lon="10.724307">
<ele>503.5</ele>
<speed>0.1</speed>
<course>322.8</course>
<desc>Speed 0.1 km/h Distance 0.09 km</desc>
<time>2010-07-31T13:52:49.41</time>
<name>63</name>
</trkpt>
<trkpt lat="49.222507" lon="10.724307">
<ele>503.5</ele>
<speed>0.2</speed>
<course>37.2</course>
<desc>Speed 0.2 km/h Distance 0.09 km</desc>
<time>2010-07-31T13:52:50.40</time>
<name>64</name>
</trkpt>
<trkpt lat="49.222508" lon="10.724308">
<ele>503.5</ele>
<speed>0.1</speed>
<course>322.8</course>
<desc>Speed 0.1 km/h Distance 0.09 km</desc>
<time>2010-07-31T13:52:51.40</time>
<name>65</name>
</trkpt>
<trkpt lat="49.222510" lon="10.724307">
<ele>503.5</ele>
<speed>0.1</speed>
<course>90.0</course>
<desc>Speed 0.1 km/h Distance 0.09 km</desc>
<time>2010-07-31T13:52:52.40</time>
<name>66</name>
</trkpt>
<trkpt lat="49.222510" lon="10.724308">
<ele>503.5</ele>
<speed>0.3</speed>
<course>341.2</course>
<desc>Speed 0.3 km/h Distance 0.09 km</desc>
<time>2010-07-31T13:52:53.40</time>
<name>67</name>
</trkpt>
<trkpt lat="49.222513" lon="10.724307">
<ele>504.0</ele>
<speed>1.6</speed>
<course>341.2</course>
<desc>Speed 1.6 km/h Distance 0.09 km</desc>
<time>2010-07-31T13:52:54.40</time>
<name>68</name>
</trkpt>
<trkpt lat="49.222513" lon="10.724307">
<ele>503.5</ele>
<speed>0.7</speed>
<course>349.7</course>
<desc>Speed 0.7 km/h Distance 0.09 km</desc>
<time>2010-07-31T13:52:55.40</time>
<name>69</name>
</trkpt>
<trkpt lat="49.222520" lon="10.724305">
<ele>504.0</ele>
<speed>0.3</speed>
<course>90.0</course>
<desc>Speed 0.3 km/h Distance 0.09 km</desc>
<time>2010-07-31T13:52:56.40</time>
<name>70</name>
</trkpt>
<trkpt lat="49.222520" lon="10.724307">
<ele>503.5</ele>
<speed>0.4</speed>
<course>167.4</course>
<desc>Speed 0.4 km/h Distance 0.09 km</desc>
<time>2010-07-31T13:52:57.40</time>
<name>71</name>
</trkpt>
<trkpt lat="49.222518" lon="10.724307">
<ele>503.5</ele>
<speed>0.5</speed>
<course>146.8</course>
<desc>Speed 0.5 km/h Distance 0.09 km</desc>
<time>2010-07-31T13:52:58.40</time>
<name>72</name>
</trkpt>
<trkpt lat="49.222513" lon="10.724312">
<ele>502.5</ele>
<speed>1.0</speed>
<course>279.6</course>
<desc>Speed 1.0 km/h Distance 0.09 km</desc>
<time>2010-07-31T13:52:59.40</time>
<name>73</name>
</trkpt>
<trkpt lat="49.222515" lon="10.724297">
<ele>503.0</ele>
<speed>3.1</speed>
<course>146.3</course>
<desc>Speed 3.1 km/h Distance 0.10 km</desc>
<time>2010-07-31T13:53:00.40</time>
<name>74</name>
</trkpt>
<trkpt lat="49.222512" lon="10.724300">
<ele>502.0</ele>
<speed>2.6</speed>
<course>167.4</course>
<desc>Speed 2.6 km/h Distance 0.10 km</desc>
<time>2010-07-31T13:53:01.40</time>
<name>75</name>
</trkpt>
<trkpt lat="49.222510" lon="10.724300">
<ele>501.5</ele>
<speed>0.9</speed>
<course>167.4</course>
<desc>Speed 0.9 km/h Distance 0.10 km</desc>
<time>2010-07-31T13:53:02.39</time>
<name>76</name>
</trkpt>
<trkpt lat="49.222505" lon="10.724302">
<ele>501.5</ele>
<speed>0.3</speed>
<course>167.4</course>
<desc>Speed 0.3 km/h Distance 0.10 km</desc>
<time>2010-07-31T13:53:03.40</time>
<name>77</name>
</trkpt>
<trkpt lat="49.222503" lon="10.724302">
<ele>501.5</ele>
<speed>0.1</speed>
<course>161.2</course>
<desc>Speed 0.1 km/h Distance 0.10 km</desc>
<time>2010-07-31T13:53:04.40</time>
<name>78</name>
</trkpt>
<trkpt lat="49.222500" lon="10.724303">
<ele>501.5</ele>
<speed>0.3</speed>
<course>209.2</course>
<desc>Speed 0.3 km/h Distance 0.10 km</desc>
<time>2010-07-31T13:53:05.39</time>
<name>79</name>
</trkpt>
<trkpt lat="49.222498" lon="10.724302">
<ele>501.5</ele>
<speed>0.4</speed>
<course>326.3</course>
<desc>Speed 0.4 km/h Distance 0.10 km</desc>
<time>2010-07-31T13:53:06.39</time>
<name>80</name>
</trkpt>
<trkpt lat="49.222502" lon="10.724298">
<ele>501.5</ele>
<speed>1.1</speed>
<course>90.0</course>
<desc>Speed 1.1 km/h Distance 0.10 km</desc>
<time>2010-07-31T13:53:07.38</time>
<name>81</name>
</trkpt>
<trkpt lat="49.222502" lon="10.724302">
<ele>501.5</ele>
<speed>0.7</speed>
<course>141.0</course>
<desc>Speed 0.7 km/h Distance 0.10 km</desc>
<time>2010-07-31T13:53:08.40</time>
<name>82</name>
</trkpt>
<trkpt lat="49.222495" lon="10.724310">
<ele>500.5</ele>
<speed>3.5</speed>
<course>153.0</course>
<desc>Speed 3.5 km/h Distance 0.10 km</desc>
<time>2010-07-31T13:53:09.39</time>
<name>83</name>
</trkpt>
<trkpt lat="49.222487" lon="10.724317">
<ele>499.5</ele>
<speed>2.4</speed>
<course>341.9</course>
<desc>Speed 2.4 km/h Distance 0.10 km</desc>
<time>2010-07-31T13:53:10.39</time>
<name>84</name>
</trkpt>
<trkpt lat="49.222500" lon="10.724310">
<ele>500.0</ele>
<speed>5.7</speed>
<course>347.4</course>
<desc>Speed 5.7 km/h Distance 0.10 km</desc>
<time>2010-07-31T13:53:11.38</time>
<name>85</name>
</trkpt>
<trkpt lat="49.222505" lon="10.724308">
<ele>500.5</ele>
<speed>0.6</speed>
<course>326.8</course>
<desc>Speed 0.6 km/h Distance 0.10 km</desc>
<time>2010-07-31T13:53:12.38</time>
<name>86</name>
</trkpt>
<trkpt lat="49.222510" lon="10.724303">
<ele>501.0</ele>
<speed>0.4</speed>
<course>326.8</course>
<desc>Speed 0.4 km/h Distance 0.10 km</desc>
<time>2010-07-31T13:53:13.39</time>
<name>87</name>
</trkpt>
<trkpt lat="49.222510" lon="10.724303">
<ele>501.0</ele>
<speed>1.2</speed>
<course>270.0</course>
<desc>Speed 1.2 km/h Distance 0.10 km</desc>
<time>2010-07-31T13:53:14.38</time>
<name>88</name>
</trkpt>
<trkpt lat="49.222510" lon="10.724302">
<ele>501.0</ele>
<speed>1.4</speed>
<course>270.0</course>
<desc>Speed 1.4 km/h Distance 0.10 km</desc>
<time>2010-07-31T13:53:15.42</time>
<name>89</name>
</trkpt>
<trkpt lat="49.222510" lon="10.724302">
<ele>501.0</ele>
<speed>0.4</speed>
<course>90.0</course>
<desc>Speed 0.4 km/h Distance 0.10 km</desc>
<time>2010-07-31T13:53:16.38</time>
<name>90</name>
</trkpt>
<trkpt lat="49.222510" lon="10.724303">
<ele>501.0</ele>
<speed>0.2</speed>
<course>126.1</course>
<desc>Speed 0.2 km/h Distance 0.10 km</desc>
<time>2010-07-31T13:53:17.38</time>
<name>91</name>
</trkpt>
<trkpt lat="49.222508" lon="10.724307">
<ele>501.5</ele>
<speed>0.4</speed>
<course>150.8</course>
<desc>Speed 0.4 km/h Distance 0.10 km</desc>
<time>2010-07-31T13:53:18.39</time>
<name>92</name>
</trkpt>
<trkpt lat="49.222507" lon="10.724307">
<ele>501.0</ele>
<speed>0.4</speed>
<course>90.0</course>
<desc>Speed 0.4 km/h Distance 0.10 km</desc>
<time>2010-07-31T13:53:19.39</time>
<name>93</name>
</trkpt>
<trkpt lat="49.222507" lon="10.724312">
<ele>501.5</ele>
<speed>1.0</speed>
<course>322.8</course>
<desc>Speed 1.0 km/h Distance 0.10 km</desc>
<time>2010-07-31T13:53:20.38</time>
<name>94</name>
</trkpt>
<trkpt lat="49.222508" lon="10.724310">
<ele>501.5</ele>
<speed>0.7</speed>
<course>12.6</course>
<desc>Speed 0.7 km/h Distance 0.10 km</desc>
<time>2010-07-31T13:53:21.38</time>
<name>95</name>
</trkpt>
<trkpt lat="49.222510" lon="10.724310">
<ele>501.0</ele>
<speed>0.1</speed>
<course>12.6</course>
<desc>Speed 0.1 km/h Distance 0.10 km</desc>
<time>2010-07-31T13:53:22.38</time>
<name>96</name>
</trkpt>
<trkpt lat="49.222512" lon="10.724310">
<ele>500.5</ele>
<speed>0.6</speed>
<course>270.0</course>
<desc>Speed 0.6 km/h Distance 0.10 km</desc>
<time>2010-07-31T13:53:23.38</time>
<name>97</name>
</trkpt>
<trkpt lat="49.222512" lon="10.724308">
<ele>500.0</ele>
<speed>0.1</speed>
<course>352.6</course>
<desc>Speed 0.1 km/h Distance 0.10 km</desc>
<time>2010-07-31T13:53:24.38</time>
<name>98</name>
</trkpt>
<trkpt lat="49.222518" lon="10.724307">
<ele>500.5</ele>
<speed>0.2</speed>
<course>12.6</course>
<desc>Speed 0.2 km/h Distance 0.11 km</desc>
<time>2010-07-31T13:53:25.38</time>
<name>99</name>
</trkpt>
<trkpt lat="49.222520" lon="10.724307">
<ele>500.0</ele>
<speed>0.4</speed>
<course>157.0</course>
<desc>Speed 0.4 km/h Distance 0.11 km</desc>
<time>2010-07-31T13:53:26.38</time>
<name>100</name>
</trkpt>
<trkpt lat="49.222517" lon="10.724308">
<ele>499.5</ele>
<speed>0.6</speed>
<course>90.0</course>
<desc>Speed 0.6 km/h Distance 0.11 km</desc>
<time>2010-07-31T13:53:27.38</time>
<name>101</name>
</trkpt>
<trkpt lat="49.222517" lon="10.724310">
<ele>499.5</ele>
<speed>0.1</speed>
<course>270.0</course>
<desc>Speed 0.1 km/h Distance 0.11 km</desc>
<time>2010-07-31T13:53:28.38</time>
<name>102</name>
</trkpt>
<trkpt lat="49.222517" lon="10.724308">
<ele>499.5</ele>
<speed>0.4</speed>
<course>270.0</course>
<desc>Speed 0.4 km/h Distance 0.11 km</desc>
<time>2010-07-31T13:53:29.38</time>
<name>103</name>
</trkpt>
<trkpt lat="49.222517" lon="10.724308">
<ele>499.5</ele>
<speed>0.2</speed>
<course>150.8</course>
<desc>Speed 0.2 km/h Distance 0.11 km</desc>
<time>2010-07-31T13:53:30.37</time>
<name>104</name>
</trkpt>
<trkpt lat="49.222515" lon="10.724310">
<ele>499.5</ele>
<speed>0.1</speed>
<course>150.8</course>
<desc>Speed 0.1 km/h Distance 0.11 km</desc>
<time>2010-07-31T13:53:31.37</time>
<name>105</name>
</trkpt>
<trkpt lat="49.222515" lon="10.724310">
<ele>499.5</ele>
<speed>0.3</speed>
<course>150.8</course>
<desc>Speed 0.3 km/h Distance 0.11 km</desc>
<time>2010-07-31T13:53:32.38</time>
<name>106</name>
</trkpt>
<trkpt lat="49.222513" lon="10.724312">
<ele>499.0</ele>
<speed>0.2</speed>
<course>167.4</course>
<desc>Speed 0.2 km/h Distance 0.11 km</desc>
<time>2010-07-31T13:53:33.41</time>
<name>107</name>
</trkpt>
<trkpt lat="49.222512" lon="10.724312">
<ele>499.0</ele>
<speed>0.2</speed>
<course>167.4</course>
<desc>Speed 0.2 km/h Distance 0.11 km</desc>
<time>2010-07-31T13:53:34.37</time>
<name>108</name>
</trkpt>
<trkpt lat="49.222512" lon="10.724312">
<ele>499.0</ele>
<speed>0.0</speed>
<course>167.4</course>
<desc>Speed 0.0 km/h Distance 0.11 km</desc>
<time>2010-07-31T13:53:35.37</time>
<name>109</name>
</trkpt>
<trkpt lat="49.222512" lon="10.724312">
<ele>499.0</ele>
<speed>0.4</speed>
<course>167.4</course>
<desc>Speed 0.4 km/h Distance 0.11 km</desc>
<time>2010-07-31T13:53:36.37</time>
<name>110</name>
</trkpt>
<trkpt lat="49.222512" lon="10.724312">
<ele>499.0</ele>
<speed>0.2</speed>
<course>128.1</course>
<desc>Speed 0.2 km/h Distance 0.11 km</desc>
<time>2010-07-31T13:53:37.37</time>
<name>111</name>
</trkpt>
<trkpt lat="49.222510" lon="10.724315">
<ele>499.0</ele>
<speed>0.8</speed>
<course>142.8</course>
<desc>Speed 0.8 km/h Distance 0.11 km</desc>
<time>2010-07-31T13:53:38.37</time>
<name>112</name>
</trkpt>
<trkpt lat="49.222508" lon="10.724317">
<ele>499.0</ele>
<speed>0.2</speed>
<course>150.8</course>
<desc>Speed 0.2 km/h Distance 0.11 km</desc>
<time>2010-07-31T13:53:39.36</time>
<name>113</name>
</trkpt>
<trkpt lat="49.222507" lon="10.724317">
<ele>498.5</ele>
<speed>0.6</speed>
<course>150.8</course>
<desc>Speed 0.6 km/h Distance 0.11 km</desc>
<time>2010-07-31T13:53:40.37</time>
<name>114</name>
</trkpt>
<trkpt lat="49.222507" lon="10.724317">
<ele>498.5</ele>
<speed>0.2</speed>
<course>322.8</course>
<desc>Speed 0.2 km/h Distance 0.11 km</desc>
<time>2010-07-31T13:53:41.36</time>
<name>115</name>
</trkpt>
<trkpt lat="49.222508" lon="10.724315">
<ele>499.0</ele>
<speed>0.4</speed>
<course>90.0</course>
<desc>Speed 0.4 km/h Distance 0.11 km</desc>
<time>2010-07-31T13:53:42.37</time>
<name>116</name>
</trkpt>
<trkpt lat="49.222508" lon="10.724317">
<ele>499.0</ele>
<speed>0.3</speed>
<course>90.0</course>
<desc>Speed 0.3 km/h Distance 0.11 km</desc>
<time>2010-07-31T13:53:43.36</time>
<name>117</name>
</trkpt>
<trkpt lat="49.222508" lon="10.724317">
<ele>499.0</ele>
<speed>0.3</speed>
<course>337.0</course>
<desc>Speed 0.3 km/h Distance 0.11 km</desc>
<time>2010-07-31T13:53:44.36</time>
<name>118</name>
</trkpt>
<trkpt lat="49.222512" lon="10.724315">
<ele>499.5</ele>
<speed>0.1</speed>
<course>347.4</course>
<desc>Speed 0.1 km/h Distance 0.11 km</desc>
<time>2010-07-31T13:53:45.36</time>
<name>119</name>
</trkpt>
<trkpt lat="49.222515" lon="10.724313">
<ele>499.5</ele>
<speed>0.1</speed>
<course>330.8</course>
<desc>Speed 0.1 km/h Distance 0.11 km</desc>
<time>2010-07-31T13:53:46.36</time>
<name>120</name>
</trkpt>
<trkpt lat="49.222517" lon="10.724312">
<ele>500.0</ele>
<speed>0.1</speed>
<course>322.8</course>
<desc>Speed 0.1 km/h Distance 0.11 km</desc>
<time>2010-07-31T13:53:47.36</time>
<name>121</name>
</trkpt>
<trkpt lat="49.222518" lon="10.724310">
<ele>500.0</ele>
<speed>0.1</speed>
<course>322.8</course>
<desc>Speed 0.1 km/h Distance 0.11 km</desc>
<time>2010-07-31T13:53:48.36</time>
<name>122</name>
</trkpt>
<trkpt lat="49.222520" lon="10.724308">
<ele>500.0</ele>
<speed>0.1</speed>
<course>322.8</course>
<desc>Speed 0.1 km/h Distance 0.11 km</desc>
<time>2010-07-31T13:53:49.36</time>
<name>123</name>
</trkpt>
<trkpt lat="49.222520" lon="10.724308">
<ele>500.0</ele>
<speed>0.2</speed>
<course>128.1</course>
<desc>Speed 0.2 km/h Distance 0.11 km</desc>
<time>2010-07-31T13:53:50.36</time>
<name>124</name>
</trkpt>
<trkpt lat="49.222518" lon="10.724312">
<ele>500.0</ele>
<speed>0.8</speed>
<course>146.8</course>
<desc>Speed 0.8 km/h Distance 0.11 km</desc>
<time>2010-07-31T13:53:51.35</time>
<name>125</name>
</trkpt>
<trkpt lat="49.222512" lon="10.724318">
<ele>500.0</ele>
<speed>2.8</speed>
<course>146.8</course>
<desc>Speed 2.8 km/h Distance 0.11 km</desc>
<time>2010-07-31T13:53:52.35</time>
<name>126</name>
</trkpt>
<trkpt lat="49.222512" lon="10.724318">
<ele>499.5</ele>
<speed>0.5</speed>
<course>12.6</course>
<desc>Speed 0.5 km/h Distance 0.11 km</desc>
<time>2010-07-31T13:53:53.35</time>
<name>127</name>
</trkpt>
<trkpt lat="49.222513" lon="10.724318">
<ele>500.0</ele>
<speed>1.6</speed>
<course>142.8</course>
<desc>Speed 1.6 km/h Distance 0.11 km</desc>
<time>2010-07-31T13:53:54.36</time>
<name>128</name>
</trkpt>
<trkpt lat="49.222512" lon="10.724320">
<ele>500.5</ele>
<speed>0.1</speed>
<course>117.4</course>
<desc>Speed 0.1 km/h Distance 0.11 km</desc>
<time>2010-07-31T13:53:55.36</time>
<name>129</name>
</trkpt>
<trkpt lat="49.222510" lon="10.724325">
<ele>500.5</ele>
<speed>0.3</speed>
<course>146.8</course>
<desc>Speed 0.3 km/h Distance 0.11 km</desc>
<time>2010-07-31T13:53:56.35</time>
<name>130</name>
</trkpt>
<trkpt lat="49.222505" lon="10.724330">
<ele>500.0</ele>
<speed>0.9</speed>
<course>150.8</course>
<desc>Speed 0.9 km/h Distance 0.11 km</desc>
<time>2010-07-31T13:53:57.35</time>
<name>131</name>
</trkpt>
<trkpt lat="49.222503" lon="10.724332">
<ele>500.5</ele>
<speed>0.5</speed>
<course>167.4</course>
<desc>Speed 0.5 km/h Distance 0.11 km</desc>
<time>2010-07-31T13:53:58.34</time>
<name>132</name>
</trkpt>
<trkpt lat="49.222502" lon="10.724332">
<ele>500.5</ele>
<speed>1.3</speed>
<course>172.6</course>
<desc>Speed 1.3 km/h Distance 0.11 km</desc>
<time>2010-07-31T13:53:59.35</time>
<name>133</name>
</trkpt>
<trkpt lat="49.222495" lon="10.724333">
<ele>500.0</ele>
<speed>2.2</speed>
<course>90.0</course>
<desc>Speed 2.2 km/h Distance 0.11 km</desc>
<time>2010-07-31T13:54:00.35</time>
<name>134</name>
</trkpt>
<trkpt lat="49.222495" lon="10.724335">
<ele>499.5</ele>
<speed>0.6</speed>
<course>90.0</course>
<desc>Speed 0.6 km/h Distance 0.11 km</desc>
<time>2010-07-31T13:54:01.35</time>
<name>135</name>
</trkpt>
<trkpt lat="49.222495" lon="10.724335">
<ele>500.0</ele>
<speed>0.5</speed>
<course>12.6</course>
<desc>Speed 0.5 km/h Distance 0.11 km</desc>
<time>2010-07-31T13:54:02.35</time>
<name>136</name>
</trkpt>
<trkpt lat="49.222497" lon="10.724335">
<ele>500.0</ele>
<speed>0.4</speed>
<course>270.0</course>
<desc>Speed 0.4 km/h Distance 0.11 km</desc>
<time>2010-07-31T13:54:03.35</time>
<name>137</name>
</trkpt>
<trkpt lat="49.222497" lon="10.724333">
<ele>500.0</ele>
<speed>0.6</speed>
<course>142.8</course>
<desc>Speed 0.6 km/h Distance 0.11 km</desc>
<time>2010-07-31T13:54:04.34</time>
<name>138</name>
</trkpt>
<trkpt lat="49.222495" lon="10.724335">
<ele>500.0</ele>
<speed>0.3</speed>
<course>148.4</course>
<desc>Speed 0.3 km/h Distance 0.11 km</desc>
<time>2010-07-31T13:54:05.35</time>
<name>139</name>
</trkpt>
<trkpt lat="49.222492" lon="10.724338">
<ele>499.5</ele>
<speed>0.1</speed>
<course>167.4</course>
<desc>Speed 0.1 km/h Distance 0.11 km</desc>
<time>2010-07-31T13:54:06.35</time>
<name>140</name>
</trkpt>
<trkpt lat="49.222490" lon="10.724338">
<ele>499.5</ele>
<speed>0.0</speed>
<course>167.4</course>
<desc>Speed 0.0 km/h Distance 0.11 km</desc>
<time>2010-07-31T13:54:07.35</time>
<name>141</name>
</trkpt>
<trkpt lat="49.222490" lon="10.724338">
<ele>499.5</ele>
<speed>0.3</speed>
<course>167.4</course>
<desc>Speed 0.3 km/h Distance 0.11 km</desc>
<time>2010-07-31T13:54:08.34</time>
<name>142</name>
</trkpt>
<trkpt lat="49.222490" lon="10.724338">
<ele>499.5</ele>
<speed>0.7</speed>
<course>167.4</course>
<desc>Speed 0.7 km/h Distance 0.11 km</desc>
<time>2010-07-31T13:54:09.34</time>
<name>143</name>
</trkpt>
<trkpt lat="49.222490" lon="10.724338">
<ele>499.5</ele>
<speed>0.5</speed>
<course>12.6</course>
<desc>Speed 0.5 km/h Distance 0.11 km</desc>
<time>2010-07-31T13:54:10.35</time>
<name>144</name>
</trkpt>
<trkpt lat="49.222492" lon="10.724338">
<ele>500.0</ele>
<speed>1.0</speed>
<course>12.6</course>
<desc>Speed 1.0 km/h Distance 0.11 km</desc>
<time>2010-07-31T13:54:11.34</time>
<name>145</name>
</trkpt>
<trkpt lat="49.222492" lon="10.724338">
<ele>500.0</ele>
<speed>0.6</speed>
<course>188.1</course>
<desc>Speed 0.6 km/h Distance 0.11 km</desc>
<time>2010-07-31T13:54:12.34</time>
<name>146</name>
</trkpt>
<trkpt lat="49.222487" lon="10.724337">
<ele>500.0</ele>
<speed>1.9</speed>
<course>212.6</course>
<desc>Speed 1.9 km/h Distance 0.12 km</desc>
<time>2010-07-31T13:54:13.34</time>
<name>147</name>
</trkpt>
<trkpt lat="49.222480" lon="10.724330">
<ele>500.0</ele>
<speed>2.7</speed>
<course>161.2</course>
<desc>Speed 2.7 km/h Distance 0.12 km</desc>
<time>2010-07-31T13:54:14.34</time>
<name>148</name>
</trkpt>
<trkpt lat="49.222473" lon="10.724333">
<ele>499.0</ele>
<speed>2.3</speed>
<course>151.9</course>
<desc>Speed 2.3 km/h Distance 0.12 km</desc>
<time>2010-07-31T13:54:15.34</time>
<name>149</name>
</trkpt>
<trkpt lat="49.222455" lon="10.724348">
<ele>497.0</ele>
<speed>5.3</speed>
<course>153.6</course>
<desc>Speed 5.3 km/h Distance 0.12 km</desc>
<time>2010-07-31T13:54:16.34</time>
<name>150</name>
</trkpt>
<trkpt lat="49.222448" lon="10.724353">
<ele>497.0</ele>
<speed>0.3</speed>
<course>151.4</course>
<desc>Speed 0.3 km/h Distance 0.12 km</desc>
<time>2010-07-31T13:54:17.34</time>
<name>151</name>
</trkpt>
<trkpt lat="49.222438" lon="10.724362">
<ele>497.0</ele>
<speed>0.3</speed>
<course>23.0</course>
<desc>Speed 0.3 km/h Distance 0.12 km</desc>
<time>2010-07-31T13:54:18.34</time>
<name>152</name>
</trkpt>
<trkpt lat="49.222442" lon="10.724363">
<ele>497.0</ele>
<speed>1.6</speed>
<course>342.5</course>
<desc>Speed 1.6 km/h Distance 0.12 km</desc>
<time>2010-07-31T13:54:19.33</time>
<name>153</name>
</trkpt>
<trkpt lat="49.222448" lon="10.724360">
<ele>497.0</ele>
<speed>2.6</speed>
<course>342.5</course>
<desc>Speed 2.6 km/h Distance 0.12 km</desc>
<time>2010-07-31T13:54:20.33</time>
<name>154</name>
</trkpt>
<trkpt lat="49.222448" lon="10.724360">
<ele>497.0</ele>
<speed>0.8</speed>
<course>342.5</course>
<desc>Speed 0.8 km/h Distance 0.12 km</desc>
<time>2010-07-31T13:54:21.34</time>
<name>155</name>
</trkpt>
<trkpt lat="49.222448" lon="10.724358">
<ele>497.0</ele>
<speed>0.3</speed>
<course>342.5</course>
<desc>Speed 0.3 km/h Distance 0.12 km</desc>
<time>2010-07-31T13:54:22.33</time>
<name>156</name>
</trkpt>
<trkpt lat="49.222448" lon="10.724358">
<ele>497.0</ele>
<speed>0.6</speed>
<course>167.4</course>
<desc>Speed 0.6 km/h Distance 0.12 km</desc>
<time>2010-07-31T13:54:23.33</time>
<name>157</name>
</trkpt>
<trkpt lat="49.222447" lon="10.724358">
<ele>497.0</ele>
<speed>0.6</speed>
<course>270.0</course>
<desc>Speed 0.6 km/h Distance 0.12 km</desc>
<time>2010-07-31T13:54:24.34</time>
<name>158</name>
</trkpt>
<trkpt lat="49.222447" lon="10.724357">
<ele>497.0</ele>
<speed>0.6</speed>
<course>12.6</course>
<desc>Speed 0.6 km/h Distance 0.12 km</desc>
<time>2010-07-31T13:54:25.32</time>
<name>159</name>
</trkpt>
<trkpt lat="49.222448" lon="10.724357">
<ele>497.0</ele>
<speed>0.7</speed>
<course>62.6</course>
<desc>Speed 0.7 km/h Distance 0.12 km</desc>
<time>2010-07-31T13:54:26.33</time>
<name>160</name>
</trkpt>
<trkpt lat="49.222450" lon="10.724362">
<ele>497.0</ele>
<speed>1.6</speed>
<course>161.2</course>
<desc>Speed 1.6 km/h Distance 0.12 km</desc>
<time>2010-07-31T13:54:27.33</time>
<name>161</name>
</trkpt>
<trkpt lat="49.222447" lon="10.724363">
<ele>496.5</ele>
<speed>1.7</speed>
<course>161.2</course>
<desc>Speed 1.7 km/h Distance 0.12 km</desc>
<time>2010-07-31T13:54:28.33</time>
<name>162</name>
</trkpt>
<trkpt lat="49.222447" lon="10.724363">
<ele>496.5</ele>
<speed>0.5</speed>
<course>336.2</course>
<desc>Speed 0.5 km/h Distance 0.12 km</desc>
<time>2010-07-31T13:54:29.33</time>
<name>163</name>
</trkpt>
<trkpt lat="49.222457" lon="10.724357">
<ele>497.0</ele>
<speed>1.8</speed>
<course>167.4</course>
<desc>Speed 1.8 km/h Distance 0.13 km</desc>
<time>2010-07-31T13:54:30.33</time>
<name>164</name>
</trkpt>
<trkpt lat="49.222455" lon="10.724357">
<ele>496.5</ele>
<speed>1.6</speed>
<course>322.8</course>
<desc>Speed 1.6 km/h Distance 0.13 km</desc>
<time>2010-07-31T13:54:31.33</time>
<name>165</name>
</trkpt>
<trkpt lat="49.222457" lon="10.724355">
<ele>496.5</ele>
<speed>0.9</speed>
<course>322.8</course>
<desc>Speed 0.9 km/h Distance 0.13 km</desc>
<time>2010-07-31T13:54:32.32</time>
<name>166</name>
</trkpt>
<trkpt lat="49.222457" lon="10.724355">
<ele>497.0</ele>
<speed>0.7</speed>
<course>337.0</course>
<desc>Speed 0.7 km/h Distance 0.13 km</desc>
<time>2010-07-31T13:54:33.33</time>
<name>167</name>
</trkpt>
<trkpt lat="49.222460" lon="10.724353">
<ele>497.0</ele>
<speed>0.3</speed>
<course>322.8</course>
<desc>Speed 0.3 km/h Distance 0.13 km</desc>
<time>2010-07-31T13:54:34.33</time>
<name>168</name>
</trkpt>
<trkpt lat="49.222462" lon="10.724352">
<ele>497.0</ele>
<speed>0.3</speed>
<course>347.4</course>
<desc>Speed 0.3 km/h Distance 0.13 km</desc>
<time>2010-07-31T13:54:35.32</time>
<name>169</name>
</trkpt>
<trkpt lat="49.222465" lon="10.724350">
<ele>497.5</ele>
<speed>0.5</speed>
<course>0.0</course>
<desc>Speed 0.5 km/h Distance 0.13 km</desc>
<time>2010-07-31T13:54:36.33</time>
<name>170</name>
</trkpt>
<trkpt lat="49.222467" lon="10.724350">
<ele>497.5</ele>
<speed>0.3</speed>
<course>270.0</course>
<desc>Speed 0.3 km/h Distance 0.13 km</desc>
<time>2010-07-31T13:54:37.32</time>
<name>171</name>
</trkpt>
<trkpt lat="49.222467" lon="10.724348">
<ele>498.0</ele>
<speed>0.3</speed>
<course>322.8</course>
<desc>Speed 0.3 km/h Distance 0.13 km</desc>
<time>2010-07-31T13:54:38.32</time>
<name>172</name>
</trkpt>
<trkpt lat="49.222468" lon="10.724347">
<ele>498.0</ele>
<speed>0.4</speed>
<course>330.8</course>
<desc>Speed 0.4 km/h Distance 0.13 km</desc>
<time>2010-07-31T13:54:39.31</time>
<name>173</name>
</trkpt>
<trkpt lat="49.222470" lon="10.724345">
<ele>498.0</ele>
<speed>0.3</speed>
<course>330.8</course>
<desc>Speed 0.3 km/h Distance 0.13 km</desc>
<time>2010-07-31T13:54:40.32</time>
<name>174</name>
</trkpt>
<trkpt lat="49.222470" lon="10.724343">
<ele>498.5</ele>
<speed>0.2</speed>
<course>308.1</course>
<desc>Speed 0.2 km/h Distance 0.13 km</desc>
<time>2010-07-31T13:54:41.31</time>
<name>175</name>
</trkpt>
<trkpt lat="49.222472" lon="10.724340">
<ele>499.0</ele>
<speed>0.2</speed>
<course>12.6</course>
<desc>Speed 0.2 km/h Distance 0.13 km</desc>
<time>2010-07-31T13:54:42.32</time>
<name>176</name>
</trkpt>
<trkpt lat="49.222473" lon="10.724340">
<ele>499.0</ele>
<speed>0.2</speed>
<course>12.6</course>
<desc>Speed 0.2 km/h Distance 0.13 km</desc>
<time>2010-07-31T13:54:43.32</time>
<name>177</name>
</trkpt>
<trkpt lat="49.222473" lon="10.724340">
<ele>499.0</ele>
<speed>0.4</speed>
<course>270.0</course>
<desc>Speed 0.4 km/h Distance 0.13 km</desc>
<time>2010-07-31T13:54:44.31</time>
<name>178</name>
</trkpt>
<trkpt lat="49.222473" lon="10.724338">
<ele>499.0</ele>
<speed>0.1</speed>
<course>270.0</course>
<desc>Speed 0.1 km/h Distance 0.13 km</desc>
<time>2010-07-31T13:54:45.31</time>
<name>179</name>
</trkpt>
<trkpt lat="49.222473" lon="10.724338">
<ele>499.0</ele>
<speed>0.1</speed>
<course>270.0</course>
<desc>Speed 0.1 km/h Distance 0.13 km</desc>
<time>2010-07-31T13:54:46.31</time>
<name>180</name>
</trkpt>
<trkpt lat="49.222473" lon="10.724338">
<ele>499.0</ele>
<speed>0.2</speed>
<course>12.6</course>
<desc>Speed 0.2 km/h Distance 0.13 km</desc>
<time>2010-07-31T13:54:47.31</time>
<name>181</name>
</trkpt>
<trkpt lat="49.222475" lon="10.724338">
<ele>499.0</ele>
<speed>0.2</speed>
<course>12.6</course>
<desc>Speed 0.2 km/h Distance 0.13 km</desc>
<time>2010-07-31T13:54:48.31</time>
<name>182</name>
</trkpt>
<trkpt lat="49.222475" lon="10.724338">
<ele>499.0</ele>
<speed>0.5</speed>
<course>12.6</course>
<desc>Speed 0.5 km/h Distance 0.13 km</desc>
<time>2010-07-31T13:54:49.31</time>
<name>183</name>
</trkpt>
<trkpt lat="49.222475" lon="10.724338">
<ele>499.5</ele>
<speed>0.4</speed>
<course>12.6</course>
<desc>Speed 0.4 km/h Distance 0.13 km</desc>
<time>2010-07-31T13:54:50.31</time>
<name>184</name>
</trkpt>
<trkpt lat="49.222475" lon="10.724338">
<ele>499.5</ele>
<speed>0.3</speed>
<course>270.0</course>
<desc>Speed 0.3 km/h Distance 0.13 km</desc>
<time>2010-07-31T13:54:51.31</time>
<name>185</name>
</trkpt>
<trkpt lat="49.222475" lon="10.724337">
<ele>499.5</ele>
<speed>0.4</speed>
<course>110.9</course>
<desc>Speed 0.4 km/h Distance 0.13 km</desc>
<time>2010-07-31T13:54:52.31</time>
<name>186</name>
</trkpt>
<trkpt lat="49.222473" lon="10.724343">
<ele>499.0</ele>
<speed>1.8</speed>
<course>270.0</course>
<desc>Speed 1.8 km/h Distance 0.13 km</desc>
<time>2010-07-31T13:54:53.32</time>
<name>187</name>
</trkpt>
<trkpt lat="49.222473" lon="10.724338">
<ele>499.0</ele>
<speed>1.1</speed>
<course>301.4</course>
<desc>Speed 1.1 km/h Distance 0.13 km</desc>
<time>2010-07-31T13:54:54.32</time>
<name>188</name>
</trkpt>
<trkpt lat="49.222477" lon="10.724330">
<ele>500.5</ele>
<speed>1.5</speed>
<course>249.1</course>
<desc>Speed 1.5 km/h Distance 0.13 km</desc>
<time>2010-07-31T13:54:55.32</time>
<name>189</name>
</trkpt>
<trkpt lat="49.222475" lon="10.724323">
<ele>501.0</ele>
<speed>2.2</speed>
<course>178.8</course>
<desc>Speed 2.2 km/h Distance 0.13 km</desc>
<time>2010-07-31T13:54:56.31</time>
<name>190</name>
</trkpt>
<trkpt lat="49.222468" lon="10.724323">
<ele>501.5</ele>
<speed>1.9</speed>
<course>240.1</course>
<desc>Speed 1.9 km/h Distance 0.13 km</desc>
<time>2010-07-31T13:54:57.31</time>
<name>191</name>
</trkpt>
<trkpt lat="49.222463" lon="10.724310">
<ele>502.5</ele>
<speed>2.3</speed>
<course>192.6</course>
<desc>Speed 2.3 km/h Distance 0.13 km</desc>
<time>2010-07-31T13:54:58.31</time>
<name>192</name>
</trkpt>
<trkpt lat="49.222453" lon="10.724307">
<ele>502.5</ele>
<speed>1.5</speed>
<course>192.6</course>
<desc>Speed 1.5 km/h Distance 0.13 km</desc>
<time>2010-07-31T13:54:59.31</time>
<name>193</name>
</trkpt>
<trkpt lat="49.222453" lon="10.724307">
<ele>502.5</ele>
<speed>0.5</speed>
<course>82.1</course>
<desc>Speed 0.5 km/h Distance 0.13 km</desc>
<time>2010-07-31T13:55:00.31</time>
<name>194</name>
</trkpt>
<trkpt lat="49.222455" lon="10.724325">
<ele>502.5</ele>
<speed>2.7</speed>
<course>135.5</course>
<desc>Speed 2.7 km/h Distance 0.13 km</desc>
<time>2010-07-31T13:55:01.31</time>
<name>195</name>
</trkpt>
<trkpt lat="49.222448" lon="10.724335">
<ele>502.0</ele>
<speed>1.0</speed>
<course>135.5</course>
<desc>Speed 1.0 km/h Distance 0.14 km</desc>
<time>2010-07-31T13:55:02.31</time>
<name>196</name>
</trkpt>
<trkpt lat="49.222448" lon="10.724335">
<ele>502.5</ele>
<speed>0.8</speed>
<course>135.5</course>
<desc>Speed 0.8 km/h Distance 0.14 km</desc>
<time>2010-07-31T13:55:03.31</time>
<name>197</name>
</trkpt>
<trkpt lat="49.222448" lon="10.724335">
<ele>502.5</ele>
<speed>0.2</speed>
<course>22.2</course>
<desc>Speed 0.2 km/h Distance 0.14 km</desc>
<time>2010-07-31T13:55:04.31</time>
<name>198</name>
</trkpt>
<trkpt lat="49.222453" lon="10.724338">
<ele>502.5</ele>
<speed>0.1</speed>
<course>146.8</course>
<desc>Speed 0.1 km/h Distance 0.14 km</desc>
<time>2010-07-31T13:55:05.31</time>
<name>199</name>
</trkpt>
<trkpt lat="49.222445" lon="10.724347">
<ele>502.5</ele>
<speed>1.6</speed>
<course>90.0</course>
<desc>Speed 1.6 km/h Distance 0.14 km</desc>
<time>2010-07-31T13:55:06.31</time>
<name>200</name>
</trkpt>
<trkpt lat="49.222445" lon="10.724360">
<ele>502.5</ele>
<speed>1.8</speed>
<course>111.9</course>
<desc>Speed 1.8 km/h Distance 0.14 km</desc>
<time>2010-07-31T13:55:07.31</time>
<name>201</name>
</trkpt>
<trkpt lat="49.222437" lon="10.724392">
<ele>502.0</ele>
<speed>8.1</speed>
<course>84.5</course>
<desc>Speed 8.1 km/h Distance 0.14 km</desc>
<time>2010-07-31T13:55:08.31</time>
<name>202</name>
</trkpt>
<trkpt lat="49.222438" lon="10.724418">
<ele>501.5</ele>
<speed>5.6</speed>
<course>68.6</course>
<desc>Speed 5.6 km/h Distance 0.14 km</desc>
<time>2010-07-31T13:55:09.30</time>
<name>203</name>
</trkpt>
<trkpt lat="49.222527" lon="10.724763">
<ele>500.5</ele>
<speed>27.7</speed>
<course>70.3</course>
<desc>Speed 27.7 km/h Distance 0.17 km</desc>
<time>2010-07-31T13:55:13.30</time>
<name>204</name>
</trkpt>
<trkpt lat="49.222552" lon="10.724870">
<ele>500.5</ele>
<speed>28.7</speed>
<course>72.4</course>
<desc>Speed 28.7 km/h Distance 0.18 km</desc>
<time>2010-07-31T13:55:14.30</time>
<name>205</name>
</trkpt>
<trkpt lat="49.222570" lon="10.724958">
<ele>500.5</ele>
<speed>23.5</speed>
<course>72.1</course>
<desc>Speed 23.5 km/h Distance 0.18 km</desc>
<time>2010-07-31T13:55:15.30</time>
<name>206</name>
</trkpt>
<trkpt lat="49.222583" lon="10.725022">
<ele>500.0</ele>
<speed>18.0</speed>
<course>55.1</course>
<desc>Speed 18.0 km/h Distance 0.19 km</desc>
<time>2010-07-31T13:55:16.30</time>
<name>207</name>
</trkpt>
<trkpt lat="49.222600" lon="10.725058">
<ele>499.0</ele>
<speed>12.1</speed>
<course>138.6</course>
<desc>Speed 12.1 km/h Distance 0.19 km</desc>
<time>2010-07-31T13:55:17.30</time>
<name>208</name>
</trkpt>
<trkpt lat="49.222567" lon="10.725103">
<ele>498.5</ele>
<speed>16.5</speed>
<course>174.0</course>
<desc>Speed 16.5 km/h Distance 0.20 km</desc>
<time>2010-07-31T13:55:18.30</time>
<name>209</name>
</trkpt>
<trkpt lat="49.222515" lon="10.725112">
<ele>499.0</ele>
<speed>21.1</speed>
<course>164.2</course>
<desc>Speed 21.1 km/h Distance 0.20 km</desc>
<time>2010-07-31T13:55:19.30</time>
<name>210</name>
</trkpt>
<trkpt lat="49.221690" lon="10.725468">
<ele>499.0</ele>
<speed>67.2</speed>
<course>163.9</course>
<desc>Speed 67.2 km/h Distance 0.30 km</desc>
<time>2010-07-31T13:55:25.30</time>
<name>211</name>
</trkpt>
<trkpt lat="49.221528" lon="10.725540">
<ele>499.0</ele>
<speed>67.1</speed>
<course>165.2</course>
<desc>Speed 67.1 km/h Distance 0.32 km</desc>
<time>2010-07-31T13:55:26.29</time>
<name>212</name>
</trkpt>
<trkpt lat="49.221372" lon="10.725603">
<ele>498.0</ele>
<speed>66.7</speed>
<course>161.9</course>
<desc>Speed 66.7 km/h Distance 0.34 km</desc>
<time>2010-07-31T13:55:27.30</time>
<name>213</name>
</trkpt>
<trkpt lat="49.221208" lon="10.725685">
<ele>498.0</ele>
<speed>69.6</speed>
<course>161.7</course>
<desc>Speed 69.6 km/h Distance 0.36 km</desc>
<time>2010-07-31T13:55:28.29</time>
<name>214</name>
</trkpt>
<trkpt lat="49.221043" lon="10.725768">
<ele>498.0</ele>
<speed>69.9</speed>
<course>162.8</course>
<desc>Speed 69.9 km/h Distance 0.37 km</desc>
<time>2010-07-31T13:55:29.28</time>
<name>215</name>
</trkpt>
<trkpt lat="49.220878" lon="10.725847">
<ele>498.0</ele>
<speed>70.5</speed>
<course>161.3</course>
<desc>Speed 70.5 km/h Distance 0.39 km</desc>
<time>2010-07-31T13:55:30.29</time>
<name>216</name>
</trkpt>
<trkpt lat="49.220708" lon="10.725935">
<ele>498.0</ele>
<speed>72.0</speed>
<course>160.7</course>
<desc>Speed 72.0 km/h Distance 0.41 km</desc>
<time>2010-07-31T13:55:31.28</time>
<name>217</name>
</trkpt>
<trkpt lat="49.220543" lon="10.726023">
<ele>498.5</ele>
<speed>70.6</speed>
<course>154.8</course>
<desc>Speed 70.6 km/h Distance 0.43 km</desc>
<time>2010-07-31T13:55:32.29</time>
<name>218</name>
</trkpt>
<trkpt lat="49.220388" lon="10.726135">
<ele>500.0</ele>
<speed>69.1</speed>
<course>159.3</course>
<desc>Speed 69.1 km/h Distance 0.45 km</desc>
<time>2010-07-31T13:55:33.28</time>
<name>219</name>
</trkpt>
<trkpt lat="49.220112" lon="10.726295">
<ele>501.0</ele>
<speed>56.1</speed>
<course>161.5</course>
<desc>Speed 56.1 km/h Distance 0.49 km</desc>
<time>2010-07-31T13:55:35.29</time>
<name>220</name>
</trkpt>
<trkpt lat="49.219988" lon="10.726358">
<ele>501.0</ele>
<speed>50.7</speed>
<course>162.6</course>
<desc>Speed 50.7 km/h Distance 0.50 km</desc>
<time>2010-07-31T13:55:36.29</time>
<name>221</name>
</trkpt>
<trkpt lat="49.219873" lon="10.726413">
<ele>501.0</ele>
<speed>49.5</speed>
<course>167.2</course>
<desc>Speed 49.5 km/h Distance 0.51 km</desc>
<time>2010-07-31T13:55:37.28</time>
<name>222</name>
</trkpt>
<trkpt lat="49.219763" lon="10.726452">
<ele>501.0</ele>
<speed>45.7</speed>
<course>171.3</course>
<desc>Speed 45.7 km/h Distance 0.53 km</desc>
<time>2010-07-31T13:55:38.27</time>
<name>223</name>
</trkpt>
<trkpt lat="49.219657" lon="10.726477">
<ele>502.5</ele>
<speed>39.8</speed>
<course>184.5</course>
<desc>Speed 39.8 km/h Distance 0.54 km</desc>
<time>2010-07-31T13:55:39.29</time>
<name>224</name>
</trkpt>
<trkpt lat="49.219560" lon="10.726465">
<ele>503.0</ele>
<speed>39.3</speed>
<course>163.6</course>
<desc>Speed 39.3 km/h Distance 0.55 km</desc>
<time>2010-07-31T13:55:40.28</time>
<name>225</name>
</trkpt>
<trkpt lat="49.219475" lon="10.726503">
<ele>503.5</ele>
<speed>36.9</speed>
<course>145.6</course>
<desc>Speed 36.9 km/h Distance 0.56 km</desc>
<time>2010-07-31T13:55:41.28</time>
<name>226</name>
</trkpt>
<trkpt lat="49.219298" lon="10.726688">
<ele>502.0</ele>
<speed>46.9</speed>
<course>157.8</course>
<desc>Speed 46.9 km/h Distance 0.58 km</desc>
<time>2010-07-31T13:55:43.28</time>
<name>227</name>
</trkpt>
<trkpt lat="49.219058" lon="10.726838">
<ele>502.5</ele>
<speed>49.8</speed>
<course>151.8</course>
<desc>Speed 49.8 km/h Distance 0.61 km</desc>
<time>2010-07-31T13:55:45.27</time>
<name>228</name>
</trkpt>
<trkpt lat="49.218938" lon="10.726937">
<ele>502.5</ele>
<speed>55.5</speed>
<course>149.5</course>
<desc>Speed 55.5 km/h Distance 0.63 km</desc>
<time>2010-07-31T13:55:46.28</time>
<name>229</name>
</trkpt>
<trkpt lat="49.218822" lon="10.727042">
<ele>502.0</ele>
<speed>56.1</speed>
<course>138.9</course>
<desc>Speed 56.1 km/h Distance 0.64 km</desc>
<time>2010-07-31T13:55:47.27</time>
<name>230</name>
</trkpt>
<trkpt lat="49.218572" lon="10.727375">
<ele>502.0</ele>
<speed>66.2</speed>
<course>134.4</course>
<desc>Speed 66.2 km/h Distance 0.68 km</desc>
<time>2010-07-31T13:55:49.27</time>
<name>231</name>
</trkpt>
<trkpt lat="49.218315" lon="10.727777">
<ele>502.0</ele>
<speed>76.0</speed>
<course>131.7</course>
<desc>Speed 76.0 km/h Distance 0.72 km</desc>
<time>2010-07-31T13:55:51.27</time>
<name>232</name>
</trkpt>
<trkpt lat="49.217870" lon="10.728540">
<ele>501.0</ele>
<speed>93.0</speed>
<course>132.6</course>
<desc>Speed 93.0 km/h Distance 0.79 km</desc>
<time>2010-07-31T13:55:54.27</time>
<name>233</name>
</trkpt>
<trkpt lat="49.217707" lon="10.728812">
<ele>500.5</ele>
<speed>97.3</speed>
<course>132.3</course>
<desc>Speed 97.3 km/h Distance 0.82 km</desc>
<time>2010-07-31T13:55:55.27</time>
<name>234</name>
</trkpt>
<trkpt lat="49.217538" lon="10.729095">
<ele>500.5</ele>
<speed>101</speed>
<course>131.3</course>
<desc>Speed 101 km/h Distance 0.85 km</desc>
<time>2010-07-31T13:55:56.28</time>
<name>235</name>
</trkpt>
<trkpt lat="49.217365" lon="10.729397">
<ele>501.0</ele>
<speed>104</speed>
<course>131.4</course>
<desc>Speed 104 km/h Distance 0.88 km</desc>
<time>2010-07-31T13:55:57.27</time>
<name>236</name>
</trkpt>
<trkpt lat="49.217188" lon="10.729703">
<ele>501.5</ele>
<speed>106</speed>
<course>137.0</course>
<desc>Speed 106 km/h Distance 0.91 km</desc>
<time>2010-07-31T13:55:58.27</time>
<name>237</name>
</trkpt>
<trkpt lat="49.216797" lon="10.730262">
<ele>501.5</ele>
<speed>102</speed>
<course>143.7</course>
<desc>Speed 102 km/h Distance 0.97 km</desc>
<time>2010-07-31T13:56:00.26</time>
<name>238</name>
</trkpt>
<trkpt lat="49.216585" lon="10.730500">
<ele>502.0</ele>
<speed>106</speed>
<course>151.3</course>
<desc>Speed 106 km/h Distance 1.00 km</desc>
<time>2010-07-31T13:56:01.26</time>
<name>239</name>
</trkpt>
<trkpt lat="49.216357" lon="10.730692">
<ele>502.5</ele>
<speed>105</speed>
<course>155.1</course>
<desc>Speed 105 km/h Distance 1.02 km</desc>
<time>2010-07-31T13:56:02.27</time>
<name>240</name>
</trkpt>
<trkpt lat="49.216137" lon="10.730848">
<ele>502.0</ele>
<speed>98.1</speed>
<course>156.4</course>
<desc>Speed 98.1 km/h Distance 1.05 km</desc>
<time>2010-07-31T13:56:03.27</time>
<name>241</name>
</trkpt>
<trkpt lat="49.215920" lon="10.730993">
<ele>502.0</ele>
<speed>95.3</speed>
<course>161.8</course>
<desc>Speed 95.3 km/h Distance 1.08 km</desc>
<time>2010-07-31T13:56:04.27</time>
<name>242</name>
</trkpt>
<trkpt lat="49.215692" lon="10.731108">
<ele>502.5</ele>
<speed>95.5</speed>
<course>167.4</course>
<desc>Speed 95.5 km/h Distance 1.10 km</desc>
<time>2010-07-31T13:56:05.27</time>
<name>243</name>
</trkpt>
<trkpt lat="49.215463" lon="10.731187">
<ele>502.0</ele>
<speed>93.8</speed>
<course>171.7</course>
<desc>Speed 93.8 km/h Distance 1.13 km</desc>
<time>2010-07-31T13:56:06.26</time>
<name>244</name>
</trkpt>
<trkpt lat="49.215218" lon="10.731242">
<ele>504.0</ele>
<speed>99.5</speed>
<course>178.1</course>
<desc>Speed 99.5 km/h Distance 1.16 km</desc>
<time>2010-07-31T13:56:07.26</time>
<name>245</name>
</trkpt>
<trkpt lat="49.214983" lon="10.731253">
<ele>503.0</ele>
<speed>93.9</speed>
<course>183.6</course>
<desc>Speed 93.9 km/h Distance 1.18 km</desc>
<time>2010-07-31T13:56:08.26</time>
<name>246</name>
</trkpt>
<trkpt lat="49.214740" lon="10.731230">
<ele>502.5</ele>
<speed>97.8</speed>
<course>189.2</course>
<desc>Speed 97.8 km/h Distance 1.21 km</desc>
<time>2010-07-31T13:56:09.26</time>
<name>247</name>
</trkpt>
<trkpt lat="49.214227" lon="10.731103">
<ele>503.5</ele>
<speed>102</speed>
<course>190.3</course>
<desc>Speed 102 km/h Distance 1.27 km</desc>
<time>2010-07-31T13:56:11.25</time>
<name>248</name>
</trkpt>
<trkpt lat="49.213970" lon="10.731032">
<ele>503.0</ele>
<speed>105</speed>
<course>189.8</course>
<desc>Speed 105 km/h Distance 1.30 km</desc>
<time>2010-07-31T13:56:12.25</time>
<name>249</name>
</trkpt>
<trkpt lat="49.213712" lon="10.730963">
<ele>502.0</ele>
<speed>106</speed>
<course>189.3</course>
<desc>Speed 106 km/h Distance 1.33 km</desc>
<time>2010-07-31T13:56:13.25</time>
<name>250</name>
</trkpt>
<trkpt lat="49.213452" lon="10.730898">
<ele>501.5</ele>
<speed>106</speed>
<course>189.8</course>
<desc>Speed 106 km/h Distance 1.36 km</desc>
<time>2010-07-31T13:56:14.25</time>
<name>251</name>
</trkpt>
<trkpt lat="49.213193" lon="10.730830">
<ele>501.0</ele>
<speed>106</speed>
<course>192.4</course>
<desc>Speed 106 km/h Distance 1.39 km</desc>
<time>2010-07-31T13:56:15.26</time>
<name>252</name>
</trkpt>
<trkpt lat="49.212937" lon="10.730743">
<ele>501.0</ele>
<speed>106</speed>
<course>194.8</course>
<desc>Speed 106 km/h Distance 1.42 km</desc>
<time>2010-07-31T13:56:16.25</time>
<name>253</name>
</trkpt>
<trkpt lat="49.212682" lon="10.730640">
<ele>500.5</ele>
<speed>106</speed>
<course>198.1</course>
<desc>Speed 106 km/h Distance 1.44 km</desc>
<time>2010-07-31T13:56:17.26</time>
<name>254</name>
</trkpt>
<trkpt lat="49.212428" lon="10.730513">
<ele>500.0</ele>
<speed>107</speed>
<course>199.9</course>
<desc>Speed 107 km/h Distance 1.47 km</desc>
<time>2010-07-31T13:56:18.25</time>
<name>255</name>
</trkpt>
<trkpt lat="49.212182" lon="10.730377">
<ele>498.5</ele>
<speed>106</speed>
<course>203.2</course>
<desc>Speed 106 km/h Distance 1.50 km</desc>
<time>2010-07-31T13:56:19.25</time>
<name>256</name>
</trkpt>
<trkpt lat="49.211930" lon="10.730212">
<ele>498.5</ele>
<speed>110</speed>
<course>208.7</course>
<desc>Speed 110 km/h Distance 1.53 km</desc>
<time>2010-07-31T13:56:20.25</time>
<name>257</name>
</trkpt>
<trkpt lat="49.211682" lon="10.730003">
<ele>499.0</ele>
<speed>113</speed>
<course>210.0</course>
<desc>Speed 113 km/h Distance 1.57 km</desc>
<time>2010-07-31T13:56:21.26</time>
<name>258</name>
</trkpt>
<trkpt lat="49.211438" lon="10.729788">
<ele>498.5</ele>
<speed>112</speed>
<course>210.1</course>
<desc>Speed 112 km/h Distance 1.60 km</desc>
<time>2010-07-31T13:56:22.26</time>
<name>259</name>
</trkpt>
<trkpt lat="49.211200" lon="10.729577">
<ele>497.5</ele>
<speed>111</speed>
<course>203.8</course>
<desc>Speed 111 km/h Distance 1.63 km</desc>
<time>2010-07-31T13:56:23.26</time>
<name>260</name>
</trkpt>
<trkpt lat="49.210707" lon="10.729243">
<ele>490.0</ele>
<speed>121</speed>
<course>201.0</course>
<desc>Speed 121 km/h Distance 1.69 km</desc>
<time>2010-07-31T13:56:25.25</time>
<name>261</name>
</trkpt>
<trkpt lat="49.210435" lon="10.729083">
<ele>489.0</ele>
<speed>119</speed>
<course>190.5</course>
<desc>Speed 119 km/h Distance 1.72 km</desc>
<time>2010-07-31T13:56:26.24</time>
<name>262</name>
</trkpt>
<trkpt lat="49.210152" lon="10.729003">
<ele>489.0</ele>
<speed>115</speed>
<course>197.1</course>
<desc>Speed 115 km/h Distance 1.75 km</desc>
<time>2010-07-31T13:56:27.25</time>
<name>263</name>
</trkpt>
<trkpt lat="49.209872" lon="10.728872">
<ele>489.5</ele>
<speed>116</speed>
<course>199.4</course>
<desc>Speed 116 km/h Distance 1.78 km</desc>
<time>2010-07-31T13:56:28.25</time>
<name>264</name>
</trkpt>
<trkpt lat="49.209603" lon="10.728727">
<ele>490.0</ele>
<speed>112</speed>
<course>204.0</course>
<desc>Speed 112 km/h Distance 1.82 km</desc>
<time>2010-07-31T13:56:29.24</time>
<name>265</name>
</trkpt>
<trkpt lat="49.209353" lon="10.728557">
<ele>490.5</ele>
<speed>107</speed>
<course>199.9</course>
<desc>Speed 107 km/h Distance 1.85 km</desc>
<time>2010-07-31T13:56:30.24</time>
<name>266</name>
</trkpt>
<trkpt lat="49.209095" lon="10.728413">
<ele>491.0</ele>
<speed>108</speed>
<course>199.6</course>
<desc>Speed 108 km/h Distance 1.88 km</desc>
<time>2010-07-31T13:56:31.24</time>
<name>267</name>
</trkpt>
<trkpt lat="49.208847" lon="10.728278">
<ele>491.5</ele>
<speed>104</speed>
<course>187.3</course>
<desc>Speed 104 km/h Distance 1.91 km</desc>
<time>2010-07-31T13:56:32.23</time>
<name>268</name>
</trkpt>
<trkpt lat="49.207950" lon="10.728103">
<ele>490.5</ele>
<speed>91.9</speed>
<course>189.5</course>
<desc>Speed 91.9 km/h Distance 2.01 km</desc>
<time>2010-07-31T13:56:37.24</time>
<name>269</name>
</trkpt>
<trkpt lat="49.207520" lon="10.727993">
<ele>491.0</ele>
<speed>91.9</speed>
<course>160.0</course>
<desc>Speed 91.9 km/h Distance 2.06 km</desc>
<time>2010-07-31T13:56:39.24</time>
<name>270</name>
</trkpt>
<trkpt lat="49.207117" lon="10.728218">
<ele>486.0</ele>
<speed>85.4</speed>
<course>174.4</course>
<desc>Speed 85.4 km/h Distance 2.10 km</desc>
<time>2010-07-31T13:56:41.24</time>
<name>271</name>
</trkpt>
<trkpt lat="49.206907" lon="10.728250">
<ele>484.0</ele>
<speed>81.9</speed>
<course>186.4</course>
<desc>Speed 81.9 km/h Distance 2.13 km</desc>
<time>2010-07-31T13:56:42.23</time>
<name>272</name>
</trkpt>
<trkpt lat="49.206238" lon="10.728135">
<ele>483.5</ele>
<speed>88.7</speed>
<course>194.9</course>
<desc>Speed 88.7 km/h Distance 2.20 km</desc>
<time>2010-07-31T13:56:45.24</time>
<name>273</name>
</trkpt>
<trkpt lat="49.205407" lon="10.727797">
<ele>478.0</ele>
<speed>79.5</speed>
<course>176.5</course>
<desc>Speed 79.5 km/h Distance 2.30 km</desc>
<time>2010-07-31T13:56:51.24</time>
<name>274</name>
</trkpt>
<trkpt lat="49.203603" lon="10.727965">
<ele>483.5</ele>
<speed>123</speed>
<course>175.5</course>
<desc>Speed 123 km/h Distance 2.50 km</desc>
<time>2010-07-31T13:56:57.23</time>
<name>275</name>
</trkpt>
<trkpt lat="49.203302" lon="10.728002">
<ele>484.0</ele>
<speed>119</speed>
<course>175.9</course>
<desc>Speed 119 km/h Distance 2.53 km</desc>
<time>2010-07-31T13:56:58.23</time>
<name>276</name>
</trkpt>
<trkpt lat="49.203012" lon="10.728033">
<ele>484.5</ele>
<speed>115</speed>
<course>175.1</course>
<desc>Speed 115 km/h Distance 2.57 km</desc>
<time>2010-07-31T13:56:59.23</time>
<name>277</name>
</trkpt>
<trkpt lat="49.202050" lon="10.728160">
<ele>482.0</ele>
<speed>88.3</speed>
<course>159.9</course>
<desc>Speed 88.3 km/h Distance 2.67 km</desc>
<time>2010-07-31T13:57:03.22</time>
<name>278</name>
</trkpt>
<trkpt lat="49.201853" lon="10.728270">
<ele>481.0</ele>
<speed>83.4</speed>
<course>162.9</course>
<desc>Speed 83.4 km/h Distance 2.70 km</desc>
<time>2010-07-31T13:57:04.22</time>
<name>279</name>
</trkpt>
<trkpt lat="49.201658" lon="10.728362">
<ele>480.5</ele>
<speed>80.6</speed>
<course>167.7</course>
<desc>Speed 80.6 km/h Distance 2.72 km</desc>
<time>2010-07-31T13:57:05.21</time>
<name>280</name>
</trkpt>
<trkpt lat="49.201458" lon="10.728428">
<ele>479.5</ele>
<speed>75.9</speed>
<course>182.0</course>
<desc>Speed 75.9 km/h Distance 2.74 km</desc>
<time>2010-07-31T13:57:06.22</time>
<name>281</name>
</trkpt>
<trkpt lat="49.200800" lon="10.728393">
<ele>477.5</ele>
<speed>37.8</speed>
<course>231.3</course>
<desc>Speed 37.8 km/h Distance 2.81 km</desc>
<time>2010-07-31T13:57:12.21</time>
<name>282</name>
</trkpt>
<trkpt lat="49.200743" lon="10.728285">
<ele>477.0</ele>
<speed>37.8</speed>
<course>241.2</course>
<desc>Speed 37.8 km/h Distance 2.82 km</desc>
<time>2010-07-31T13:57:13.22</time>
<name>283</name>
</trkpt>
<trkpt lat="49.200343" lon="10.727172">
<ele>476.5</ele>
<speed>57.7</speed>
<course>236.0</course>
<desc>Speed 57.7 km/h Distance 2.92 km</desc>
<time>2010-07-31T13:57:18.20</time>
<name>284</name>
</trkpt>
<trkpt lat="49.200178" lon="10.726797">
<ele>476.5</ele>
<speed>57.7</speed>
<course>273.2</course>
<desc>Speed 57.7 km/h Distance 2.95 km</desc>
<time>2010-07-31T13:57:20.21</time>
<name>285</name>
</trkpt>
<trkpt lat="49.200187" lon="10.726568">
<ele>476.0</ele>
<speed>53.9</speed>
<course>270.0</course>
<desc>Speed 53.9 km/h Distance 2.97 km</desc>
<time>2010-07-31T13:57:21.21</time>
<name>286</name>
</trkpt>
<trkpt lat="49.200187" lon="10.726355">
<ele>476.5</ele>
<speed>53.7</speed>
<course>258.5</course>
<desc>Speed 53.7 km/h Distance 2.98 km</desc>
<time>2010-07-31T13:57:22.21</time>
<name>287</name>
</trkpt>
<trkpt lat="49.200162" lon="10.726167">
<ele>476.5</ele>
<speed>50.9</speed>
<course>242.4</course>
<desc>Speed 50.9 km/h Distance 3.00 km</desc>
<time>2010-07-31T13:57:23.21</time>
<name>288</name>
</trkpt>
<trkpt lat="49.199822" lon="10.725173">
<ele>478.0</ele>
<speed>72.4</speed>
<course>244.8</course>
<desc>Speed 72.4 km/h Distance 3.08 km</desc>
<time>2010-07-31T13:57:27.21</time>
<name>289</name>
</trkpt>
<trkpt lat="49.199748" lon="10.724935">
<ele>478.5</ele>
<speed>69.2</speed>
<course>234.8</course>
<desc>Speed 69.2 km/h Distance 3.10 km</desc>
<time>2010-07-31T13:57:28.21</time>
<name>290</name>
</trkpt>
<trkpt lat="49.199650" lon="10.724722">
<ele>479.0</ele>
<speed>68.8</speed>
<course>229.6</course>
<desc>Speed 68.8 km/h Distance 3.12 km</desc>
<time>2010-07-31T13:57:29.20</time>
<name>291</name>
</trkpt>
<trkpt lat="49.199533" lon="10.724512">
<ele>479.5</ele>
<speed>72.7</speed>
<course>225.2</course>
<desc>Speed 72.7 km/h Distance 3.14 km</desc>
<time>2010-07-31T13:57:30.20</time>
<name>292</name>
</trkpt>
<trkpt lat="49.199407" lon="10.724317">
<ele>479.5</ele>
<speed>71.0</speed>
<course>216.8</course>
<desc>Speed 71.0 km/h Distance 3.16 km</desc>
<time>2010-07-31T13:57:31.20</time>
<name>293</name>
</trkpt>
<trkpt lat="49.199258" lon="10.724147">
<ele>479.5</ele>
<speed>73.6</speed>
<course>209.6</course>
<desc>Speed 73.6 km/h Distance 3.18 km</desc>
<time>2010-07-31T13:57:32.19</time>
<name>294</name>
</trkpt>
<trkpt lat="49.199093" lon="10.724003">
<ele>479.0</ele>
<speed>78.5</speed>
<course>199.6</course>
<desc>Speed 78.5 km/h Distance 3.20 km</desc>
<time>2010-07-31T13:57:33.19</time>
<name>295</name>
</trkpt>
<trkpt lat="49.198727" lon="10.723803">
<ele>479.0</ele>
<speed>91.4</speed>
<course>187.9</course>
<desc>Speed 91.4 km/h Distance 3.24 km</desc>
<time>2010-07-31T13:57:35.19</time>
<name>296</name>
</trkpt>
<trkpt lat="49.198492" lon="10.723753">
<ele>479.0</ele>
<speed>93.9</speed>
<course>185.9</course>
<desc>Speed 93.9 km/h Distance 3.27 km</desc>
<time>2010-07-31T13:57:36.20</time>
<name>297</name>
</trkpt>
<trkpt lat="49.197982" lon="10.723673">
<ele>479.0</ele>
<speed>101</speed>
<course>178.6</course>
<desc>Speed 101 km/h Distance 3.32 km</desc>
<time>2010-07-31T13:57:38.20</time>
<name>298</name>
</trkpt>
<trkpt lat="49.197442" lon="10.723693">
<ele>476.5</ele>
<speed>107</speed>
<course>172.1</course>
<desc>Speed 107 km/h Distance 3.38 km</desc>
<time>2010-07-31T13:57:40.19</time>
<name>299</name>
</trkpt>
<trkpt lat="49.197160" lon="10.723753">
<ele>476.0</ele>
<speed>113</speed>
<course>168.7</course>
<desc>Speed 113 km/h Distance 3.42 km</desc>
<time>2010-07-31T13:57:41.19</time>
<name>300</name>
</trkpt>
<trkpt lat="49.196887" lon="10.723837">
<ele>474.0</ele>
<speed>110</speed>
<course>168.5</course>
<desc>Speed 110 km/h Distance 3.45 km</desc>
<time>2010-07-31T13:57:42.19</time>
<name>301</name>
</trkpt>
<trkpt lat="49.196407" lon="10.723987">
<ele>473.0</ele>
<speed>98.9</speed>
<course>163.0</course>
<desc>Speed 98.9 km/h Distance 3.50 km</desc>
<time>2010-07-31T13:57:44.18</time>
<name>302</name>
</trkpt>
<trkpt lat="49.195255" lon="10.724525">
<ele>474.0</ele>
<speed>115</speed>
<course>167.0</course>
<desc>Speed 115 km/h Distance 3.64 km</desc>
<time>2010-07-31T13:57:48.18</time>
<name>303</name>
</trkpt>
<trkpt lat="49.194972" lon="10.724625">
<ele>472.5</ele>
<speed>114</speed>
<course>169.0</course>
<desc>Speed 114 km/h Distance 3.67 km</desc>
<time>2010-07-31T13:57:49.18</time>
<name>304</name>
</trkpt>
<trkpt lat="49.194680" lon="10.724712">
<ele>472.0</ele>
<speed>116</speed>
<course>170.1</course>
<desc>Speed 116 km/h Distance 3.70 km</desc>
<time>2010-07-31T13:57:50.18</time>
<name>305</name>
</trkpt>
<trkpt lat="49.194392" lon="10.724788">
<ele>472.5</ele>
<speed>114</speed>
<course>169.8</course>
<desc>Speed 114 km/h Distance 3.73 km</desc>
<time>2010-07-31T13:57:51.17</time>
<name>306</name>
</trkpt>
<trkpt lat="49.194113" lon="10.724865">
<ele>472.0</ele>
<speed>113</speed>
<course>172.0</course>
<desc>Speed 113 km/h Distance 3.77 km</desc>
<time>2010-07-31T13:57:52.19</time>
<name>307</name>
</trkpt>
<trkpt lat="49.192953" lon="10.725115">
<ele>471.0</ele>
<speed>45.8</speed>
<course>185.4</course>
<desc>Speed 45.8 km/h Distance 3.90 km</desc>
<time>2010-07-31T13:57:58.18</time>
<name>308</name>
</trkpt>
<trkpt lat="49.192782" lon="10.725090">
<ele>470.0</ele>
<speed>32.4</speed>
<course>215.4</course>
<desc>Speed 32.4 km/h Distance 3.92 km</desc>
<time>2010-07-31T13:58:00.17</time>
<name>309</name>
</trkpt>
<trkpt lat="49.192088" lon="10.724337">
<ele>470.0</ele>
<speed>92.8</speed>
<course>220.2</course>
<desc>Speed 92.8 km/h Distance 4.01 km</desc>
<time>2010-07-31T13:58:05.18</time>
<name>310</name>
</trkpt>
<trkpt lat="49.191905" lon="10.724100">
<ele>470.5</ele>
<speed>96.2</speed>
<course>222.9</course>
<desc>Speed 96.2 km/h Distance 4.04 km</desc>
<time>2010-07-31T13:58:06.18</time>
<name>311</name>
</trkpt>
<trkpt lat="49.191720" lon="10.723837">
<ele>471.0</ele>
<speed>101</speed>
<course>221.3</course>
<desc>Speed 101 km/h Distance 4.06 km</desc>
<time>2010-07-31T13:58:07.18</time>
<name>312</name>
</trkpt>
<trkpt lat="49.191537" lon="10.723590">
<ele>471.0</ele>
<speed>98.0</speed>
<course>220.6</course>
<desc>Speed 98.0 km/h Distance 4.09 km</desc>
<time>2010-07-31T13:58:08.18</time>
<name>313</name>
</trkpt>
<trkpt lat="49.191350" lon="10.723345">
<ele>470.5</ele>
<speed>97.8</speed>
<course>216.5</course>
<desc>Speed 97.8 km/h Distance 4.12 km</desc>
<time>2010-07-31T13:58:09.18</time>
<name>314</name>
</trkpt>
<trkpt lat="49.191150" lon="10.723118">
<ele>469.5</ele>
<speed>99.6</speed>
<course>210.7</course>
<desc>Speed 99.6 km/h Distance 4.15 km</desc>
<time>2010-07-31T13:58:10.18</time>
<name>315</name>
</trkpt>
<trkpt lat="49.190768" lon="10.722772">
<ele>468.0</ele>
<speed>97.9</speed>
<course>195.3</course>
<desc>Speed 97.9 km/h Distance 4.20 km</desc>
<time>2010-07-31T13:58:12.18</time>
<name>316</name>
</trkpt>
<trkpt lat="49.190525" lon="10.722670">
<ele>466.5</ele>
<speed>99.3</speed>
<course>193.0</course>
<desc>Speed 99.3 km/h Distance 4.22 km</desc>
<time>2010-07-31T13:58:13.17</time>
<name>317</name>
</trkpt>
<trkpt lat="49.190075" lon="10.722512">
<ele>466.5</ele>
<speed>101</speed>
<course>176.9</course>
<desc>Speed 101 km/h Distance 4.28 km</desc>
<time>2010-07-31T13:58:15.16</time>
<name>318</name>
</trkpt>
<trkpt lat="49.189815" lon="10.722533">
<ele>466.0</ele>
<speed>101</speed>
<course>170.8</course>
<desc>Speed 101 km/h Distance 4.30 km</desc>
<time>2010-07-31T13:58:16.16</time>
<name>319</name>
</trkpt>
<trkpt lat="49.189328" lon="10.722653">
<ele>465.5</ele>
<speed>103</speed>
<course>163.4</course>
<desc>Speed 103 km/h Distance 4.36 km</desc>
<time>2010-07-31T13:58:18.16</time>
<name>320</name>
</trkpt>
<trkpt lat="49.188792" lon="10.722898">
<ele>470.0</ele>
<speed>99.7</speed>
<course>167.5</course>
<desc>Speed 99.7 km/h Distance 4.42 km</desc>
<time>2010-07-31T13:58:20.16</time>
<name>321</name>
</trkpt>
<trkpt lat="49.188552" lon="10.722980">
<ele>469.5</ele>
<speed>96.3</speed>
<course>171.6</course>
<desc>Speed 96.3 km/h Distance 4.45 km</desc>
<time>2010-07-31T13:58:21.15</time>
<name>322</name>
</trkpt>
<trkpt lat="49.188295" lon="10.723038">
<ele>470.5</ele>
<speed>97.9</speed>
<course>188.1</course>
<desc>Speed 97.9 km/h Distance 4.48 km</desc>
<time>2010-07-31T13:58:22.16</time>
<name>323</name>
</trkpt>
<trkpt lat="49.187850" lon="10.722942">
<ele>472.5</ele>
<speed>83.6</speed>
<course>207.6</course>
<desc>Speed 83.6 km/h Distance 4.53 km</desc>
<time>2010-07-31T13:58:24.16</time>
<name>324</name>
</trkpt>
<trkpt lat="49.187448" lon="10.722620">
<ele>473.5</ele>
<speed>88.5</speed>
<course>225.8</course>
<desc>Speed 88.5 km/h Distance 4.58 km</desc>
<time>2010-07-31T13:58:26.15</time>
<name>325</name>
</trkpt>
<trkpt lat="49.187280" lon="10.722355">
<ele>473.5</ele>
<speed>94.4</speed>
<course>230.6</course>
<desc>Speed 94.4 km/h Distance 4.61 km</desc>
<time>2010-07-31T13:58:27.17</time>
<name>326</name>
</trkpt>
<trkpt lat="49.187133" lon="10.722082">
<ele>473.5</ele>
<speed>91.5</speed>
<course>242.0</course>
<desc>Speed 91.5 km/h Distance 4.63 km</desc>
<time>2010-07-31T13:58:28.16</time>
<name>327</name>
</trkpt>
<trkpt lat="49.186623" lon="10.720612">
<ele>472.5</ele>
<speed>112</speed>
<course>245.5</course>
<desc>Speed 112 km/h Distance 4.75 km</desc>
<time>2010-07-31T13:58:32.15</time>
<name>328</name>
</trkpt>
<trkpt lat="49.186502" lon="10.720203">
<ele>472.5</ele>
<speed>118</speed>
<course>244.9</course>
<desc>Speed 118 km/h Distance 4.79 km</desc>
<time>2010-07-31T13:58:33.14</time>
<name>329</name>
</trkpt>
<trkpt lat="49.186377" lon="10.719795">
<ele>473.0</ele>
<speed>118</speed>
<course>243.5</course>
<desc>Speed 118 km/h Distance 4.82 km</desc>
<time>2010-07-31T13:58:34.15</time>
<name>330</name>
</trkpt>
<trkpt lat="49.186247" lon="10.719397">
<ele>473.0</ele>
<speed>117</speed>
<course>243.1</course>
<desc>Speed 117 km/h Distance 4.85 km</desc>
<time>2010-07-31T13:58:35.15</time>
<name>331</name>
</trkpt>
<trkpt lat="49.186120" lon="10.719015">
<ele>473.0</ele>
<speed>113</speed>
<course>236.9</course>
<desc>Speed 113 km/h Distance 4.88 km</desc>
<time>2010-07-31T13:58:36.14</time>
<name>332</name>
</trkpt>
<trkpt lat="49.185967" lon="10.718655">
<ele>473.0</ele>
<speed>113</speed>
<course>237.1</course>
<desc>Speed 113 km/h Distance 4.91 km</desc>
<time>2010-07-31T13:58:37.14</time>
<name>333</name>
</trkpt>
<trkpt lat="49.185817" lon="10.718300">
<ele>475.0</ele>
<speed>110</speed>
<course>237.6</course>
<desc>Speed 110 km/h Distance 4.94 km</desc>
<time>2010-07-31T13:58:38.16</time>
<name>334</name>
</trkpt>
<trkpt lat="49.185335" lon="10.717138">
<ele>477.0</ele>
<speed>85.7</speed>
<course>236.1</course>
<desc>Speed 85.7 km/h Distance 5.04 km</desc>
<time>2010-07-31T13:58:42.15</time>
<name>335</name>
</trkpt>
<trkpt lat="49.185225" lon="10.716888">
<ele>477.0</ele>
<speed>79.1</speed>
<course>240.1</course>
<desc>Speed 79.1 km/h Distance 5.07 km</desc>
<time>2010-07-31T13:58:43.15</time>
<name>336</name>
</trkpt>
<trkpt lat="49.185052" lon="10.716427">
<ele>477.0</ele>
<speed>70.1</speed>
<course>245.0</course>
<desc>Speed 70.1 km/h Distance 5.10 km</desc>
<time>2010-07-31T13:58:45.15</time>
<name>337</name>
</trkpt>
<trkpt lat="49.184985" lon="10.716208">
<ele>479.0</ele>
<speed>63.0</speed>
<course>250.6</course>
<desc>Speed 63.0 km/h Distance 5.12 km</desc>
<time>2010-07-31T13:58:46.13</time>
<name>338</name>
</trkpt>
<trkpt lat="49.184850" lon="10.715622">
<ele>481.0</ele>
<speed>17.7</speed>
<course>255.2</course>
<desc>Speed 17.7 km/h Distance 5.17 km</desc>
<time>2010-07-31T13:58:51.14</time>
<name>339</name>
</trkpt>
<trkpt lat="49.184842" lon="10.715573">
<ele>480.0</ele>
<speed>12.5</speed>
<course>257.7</course>
<desc>Speed 12.5 km/h Distance 5.17 km</desc>
<time>2010-07-31T13:58:52.13</time>
<name>340</name>
</trkpt>
<trkpt lat="49.184837" lon="10.715538">
<ele>480.0</ele>
<speed>9.2</speed>
<course>240.9</course>
<desc>Speed 9.2 km/h Distance 5.17 km</desc>
<time>2010-07-31T13:58:53.13</time>
<name>341</name>
</trkpt>
<trkpt lat="49.184830" lon="10.715520">
<ele>480.0</ele>
<speed>5.4</speed>
<course>180.0</course>
<desc>Speed 5.4 km/h Distance 5.17 km</desc>
<time>2010-07-31T13:58:54.13</time>
<name>342</name>
</trkpt>
<trkpt lat="49.184828" lon="10.715520">
<ele>480.0</ele>
<speed>0.3</speed>
<course>167.4</course>
<desc>Speed 0.3 km/h Distance 5.17 km</desc>
<time>2010-07-31T13:58:55.13</time>
<name>343</name>
</trkpt>
<trkpt lat="49.184827" lon="10.715520">
<ele>480.0</ele>
<speed>0.5</speed>
<course>167.4</course>
<desc>Speed 0.5 km/h Distance 5.18 km</desc>
<time>2010-07-31T13:58:56.14</time>
<name>344</name>
</trkpt>
<trkpt lat="49.184825" lon="10.715520">
<ele>480.0</ele>
<speed>0.0</speed>
<course>167.4</course>
<desc>Speed 0.0 km/h Distance 5.18 km</desc>
<time>2010-07-31T13:58:57.14</time>
<name>345</name>
</trkpt>
<trkpt lat="49.184825" lon="10.715520">
<ele>480.5</ele>
<speed>0.1</speed>
<course>270.0</course>
<desc>Speed 0.1 km/h Distance 5.18 km</desc>
<time>2010-07-31T13:58:58.13</time>
<name>346</name>
</trkpt>
<trkpt lat="49.184825" lon="10.715518">
<ele>480.5</ele>
<speed>0.1</speed>
<course>167.4</course>
<desc>Speed 0.1 km/h Distance 5.18 km</desc>
<time>2010-07-31T13:58:59.13</time>
<name>347</name>
</trkpt>
<trkpt lat="49.184823" lon="10.715518">
<ele>480.5</ele>
<speed>0.2</speed>
<course>270.0</course>
<desc>Speed 0.2 km/h Distance 5.18 km</desc>
<time>2010-07-31T13:59:00.13</time>
<name>348</name>
</trkpt>
<trkpt lat="49.184823" lon="10.715517">
<ele>480.5</ele>
<speed>0.3</speed>
<course>270.0</course>
<desc>Speed 0.3 km/h Distance 5.18 km</desc>
<time>2010-07-31T13:59:01.13</time>
<name>349</name>
</trkpt>
<trkpt lat="49.184823" lon="10.715517">
<ele>480.5</ele>
<speed>0.1</speed>
<course>270.0</course>
<desc>Speed 0.1 km/h Distance 5.18 km</desc>
<time>2010-07-31T13:59:02.13</time>
<name>350</name>
</trkpt>
<trkpt lat="49.184823" lon="10.715517">
<ele>480.5</ele>
<speed>0.1</speed>
<course>270.0</course>
<desc>Speed 0.1 km/h Distance 5.18 km</desc>
<time>2010-07-31T13:59:03.13</time>
<name>351</name>
</trkpt>
<trkpt lat="49.184823" lon="10.715517">
<ele>480.5</ele>
<speed>0.0</speed>
<course>270.0</course>
<desc>Speed 0.0 km/h Distance 5.18 km</desc>
<time>2010-07-31T13:59:04.14</time>
<name>352</name>
</trkpt>
<trkpt lat="49.184823" lon="10.715517">
<ele>480.5</ele>
<speed>0.1</speed>
<course>270.0</course>
<desc>Speed 0.1 km/h Distance 5.18 km</desc>
<time>2010-07-31T13:59:05.12</time>
<name>353</name>
</trkpt>
<trkpt lat="49.184823" lon="10.715517">
<ele>480.5</ele>
<speed>0.2</speed>
<course>90.0</course>
<desc>Speed 0.2 km/h Distance 5.18 km</desc>
<time>2010-07-31T13:59:06.13</time>
<name>354</name>
</trkpt>
<trkpt lat="49.184823" lon="10.715518">
<ele>480.5</ele>
<speed>0.2</speed>
<course>167.4</course>
<desc>Speed 0.2 km/h Distance 5.18 km</desc>
<time>2010-07-31T13:59:07.13</time>
<name>355</name>
</trkpt>
<trkpt lat="49.184822" lon="10.715518">
<ele>480.5</ele>
<speed>0.3</speed>
<course>12.6</course>
<desc>Speed 0.3 km/h Distance 5.18 km</desc>
<time>2010-07-31T13:59:08.13</time>
<name>356</name>
</trkpt>
<trkpt lat="49.184823" lon="10.715518">
<ele>480.5</ele>
<speed>0.3</speed>
<course>12.6</course>
<desc>Speed 0.3 km/h Distance 5.18 km</desc>
<time>2010-07-31T13:59:09.13</time>
<name>357</name>
</trkpt>
<trkpt lat="49.184823" lon="10.715518">
<ele>480.0</ele>
<speed>0.1</speed>
<course>90.0</course>
<desc>Speed 0.1 km/h Distance 5.18 km</desc>
<time>2010-07-31T13:59:10.13</time>
<name>358</name>
</trkpt>
<trkpt lat="49.184823" lon="10.715520">
<ele>480.0</ele>
<speed>0.1</speed>
<course>90.0</course>
<desc>Speed 0.1 km/h Distance 5.18 km</desc>
<time>2010-07-31T13:59:11.12</time>
<name>359</name>
</trkpt>
<trkpt lat="49.184823" lon="10.715520">
<ele>480.0</ele>
<speed>0.1</speed>
<course>167.4</course>
<desc>Speed 0.1 km/h Distance 5.18 km</desc>
<time>2010-07-31T13:59:12.13</time>
<name>360</name>
</trkpt>
<trkpt lat="49.184822" lon="10.715520">
<ele>480.0</ele>
<speed>0.1</speed>
<course>270.0</course>
<desc>Speed 0.1 km/h Distance 5.18 km</desc>
<time>2010-07-31T13:59:13.13</time>
<name>361</name>
</trkpt>
<trkpt lat="49.184822" lon="10.715518">
<ele>480.0</ele>
<speed>0.3</speed>
<course>270.0</course>
<desc>Speed 0.3 km/h Distance 5.18 km</desc>
<time>2010-07-31T13:59:14.13</time>
<name>362</name>
</trkpt>
<trkpt lat="49.184822" lon="10.715518">
<ele>480.0</ele>
<speed>0.3</speed>
<course>270.0</course>
<desc>Speed 0.3 km/h Distance 5.18 km</desc>
<time>2010-07-31T13:59:15.13</time>
<name>363</name>
</trkpt>
<trkpt lat="49.184822" lon="10.715518">
<ele>480.0</ele>
<speed>0.2</speed>
<course>270.0</course>
<desc>Speed 0.2 km/h Distance 5.18 km</desc>
<time>2010-07-31T13:59:16.13</time>
<name>364</name>
</trkpt>
<trkpt lat="49.184822" lon="10.715518">
<ele>480.0</ele>
<speed>0.1</speed>
<course>270.0</course>
<desc>Speed 0.1 km/h Distance 5.18 km</desc>
<time>2010-07-31T13:59:17.13</time>
<name>365</name>
</trkpt>
<trkpt lat="49.184822" lon="10.715518">
<ele>480.0</ele>
<speed>0.2</speed>
<course>270.0</course>
<desc>Speed 0.2 km/h Distance 5.18 km</desc>
<time>2010-07-31T13:59:18.12</time>
<name>366</name>
</trkpt>
<trkpt lat="49.184822" lon="10.715518">
<ele>480.0</ele>
<speed>0.2</speed>
<course>270.0</course>
<desc>Speed 0.2 km/h Distance 5.18 km</desc>
<time>2010-07-31T13:59:19.12</time>
<name>367</name>
</trkpt>
<trkpt lat="49.184822" lon="10.715518">
<ele>480.0</ele>
<speed>0.1</speed>
<course>270.0</course>
<desc>Speed 0.1 km/h Distance 5.18 km</desc>
<time>2010-07-31T13:59:20.12</time>
<name>368</name>
</trkpt>
<trkpt lat="49.184822" lon="10.715518">
<ele>480.0</ele>
<speed>0.1</speed>
<course>270.0</course>
<desc>Speed 0.1 km/h Distance 5.18 km</desc>
<time>2010-07-31T13:59:21.12</time>
<name>369</name>
</trkpt>
<trkpt lat="49.184822" lon="10.715517">
<ele>480.0</ele>
<speed>0.0</speed>
<course>270.0</course>
<desc>Speed 0.0 km/h Distance 5.18 km</desc>
<time>2010-07-31T13:59:22.11</time>
<name>370</name>
</trkpt>
<trkpt lat="49.184822" lon="10.715517">
<ele>480.0</ele>
<speed>0.1</speed>
<course>270.0</course>
<desc>Speed 0.1 km/h Distance 5.18 km</desc>
<time>2010-07-31T13:59:23.12</time>
<name>371</name>
</trkpt>
<trkpt lat="49.184822" lon="10.715517">
<ele>480.0</ele>
<speed>0.0</speed>
<course>270.0</course>
<desc>Speed 0.0 km/h Distance 5.18 km</desc>
<time>2010-07-31T13:59:24.11</time>
<name>372</name>
</trkpt>
<trkpt lat="49.184822" lon="10.715517">
<ele>480.0</ele>
<speed>0.1</speed>
<course>167.4</course>
<desc>Speed 0.1 km/h Distance 5.18 km</desc>
<time>2010-07-31T13:59:25.11</time>
<name>373</name>
</trkpt>
<trkpt lat="49.184820" lon="10.715517">
<ele>480.0</ele>
<speed>0.1</speed>
<course>167.4</course>
<desc>Speed 0.1 km/h Distance 5.18 km</desc>
<time>2010-07-31T13:59:26.12</time>
<name>374</name>
</trkpt>
<trkpt lat="49.184820" lon="10.715517">
<ele>480.0</ele>
<speed>0.3</speed>
<course>167.4</course>
<desc>Speed 0.3 km/h Distance 5.18 km</desc>
<time>2010-07-31T13:59:27.13</time>
<name>375</name>
</trkpt>
<trkpt lat="49.184820" lon="10.715517">
<ele>480.0</ele>
<speed>0.3</speed>
<course>167.4</course>
<desc>Speed 0.3 km/h Distance 5.18 km</desc>
<time>2010-07-31T13:59:28.12</time>
<name>376</name>
</trkpt>
<trkpt lat="49.184820" lon="10.715517">
<ele>480.0</ele>
<speed>0.1</speed>
<course>167.4</course>
<desc>Speed 0.1 km/h Distance 5.18 km</desc>
<time>2010-07-31T13:59:29.12</time>
<name>377</name>
</trkpt>
<trkpt lat="49.184820" lon="10.715517">
<ele>480.0</ele>
<speed>0.1</speed>
<course>167.4</course>
<desc>Speed 0.1 km/h Distance 5.18 km</desc>
<time>2010-07-31T13:59:30.12</time>
<name>378</name>
</trkpt>
<trkpt lat="49.184820" lon="10.715517">
<ele>480.0</ele>
<speed>0.1</speed>
<course>270.0</course>
<desc>Speed 0.1 km/h Distance 5.18 km</desc>
<time>2010-07-31T13:59:31.12</time>
<name>379</name>
</trkpt>
<trkpt lat="49.184820" lon="10.715515">
<ele>480.0</ele>
<speed>0.1</speed>
<course>270.0</course>
<desc>Speed 0.1 km/h Distance 5.18 km</desc>
<time>2010-07-31T13:59:32.11</time>
<name>380</name>
</trkpt>
<trkpt lat="49.184820" lon="10.715515">
<ele>480.0</ele>
<speed>0.1</speed>
<course>270.0</course>
<desc>Speed 0.1 km/h Distance 5.18 km</desc>
<time>2010-07-31T13:59:33.11</time>
<name>381</name>
</trkpt>
<trkpt lat="49.184820" lon="10.715515">
<ele>480.0</ele>
<speed>0.2</speed>
<course>270.0</course>
<desc>Speed 0.2 km/h Distance 5.18 km</desc>
<time>2010-07-31T13:59:34.11</time>
<name>382</name>
</trkpt>
<trkpt lat="49.184820" lon="10.715515">
<ele>480.0</ele>
<speed>0.3</speed>
<course>270.0</course>
<desc>Speed 0.3 km/h Distance 5.18 km</desc>
<time>2010-07-31T13:59:35.11</time>
<name>383</name>
</trkpt>
<trkpt lat="49.184820" lon="10.715515">
<ele>480.0</ele>
<speed>0.2</speed>
<course>270.0</course>
<desc>Speed 0.2 km/h Distance 5.18 km</desc>
<time>2010-07-31T13:59:36.11</time>
<name>384</name>
</trkpt>
<trkpt lat="49.184820" lon="10.715515">
<ele>480.0</ele>
<speed>0.2</speed>
<course>270.0</course>
<desc>Speed 0.2 km/h Distance 5.18 km</desc>
<time>2010-07-31T13:59:37.11</time>
<name>385</name>
</trkpt>
<trkpt lat="49.184820" lon="10.715513">
<ele>480.0</ele>
<speed>0.3</speed>
<course>167.4</course>
<desc>Speed 0.3 km/h Distance 5.18 km</desc>
<time>2010-07-31T13:59:38.11</time>
<name>386</name>
</trkpt>
<trkpt lat="49.184818" lon="10.715513">
<ele>480.0</ele>
<speed>0.3</speed>
<course>167.4</course>
<desc>Speed 0.3 km/h Distance 5.18 km</desc>
<time>2010-07-31T13:59:39.11</time>
<name>387</name>
</trkpt>
<trkpt lat="49.184818" lon="10.715513">
<ele>480.0</ele>
<speed>0.1</speed>
<course>167.4</course>
<desc>Speed 0.1 km/h Distance 5.18 km</desc>
<time>2010-07-31T13:59:40.11</time>
<name>388</name>
</trkpt>
<trkpt lat="49.184818" lon="10.715513">
<ele>480.0</ele>
<speed>0.1</speed>
<course>167.4</course>
<desc>Speed 0.1 km/h Distance 5.18 km</desc>
<time>2010-07-31T13:59:41.11</time>
<name>389</name>
</trkpt>
<trkpt lat="49.184818" lon="10.715513">
<ele>480.0</ele>
<speed>0.1</speed>
<course>270.0</course>
<desc>Speed 0.1 km/h Distance 5.18 km</desc>
<time>2010-07-31T13:59:42.11</time>
<name>390</name>
</trkpt>
<trkpt lat="49.184818" lon="10.715512">
<ele>480.0</ele>
<speed>0.1</speed>
<course>270.0</course>
<desc>Speed 0.1 km/h Distance 5.18 km</desc>
<time>2010-07-31T13:59:43.11</time>
<name>391</name>
</trkpt>
<trkpt lat="49.184818" lon="10.715512">
<ele>480.0</ele>
<speed>0.3</speed>
<course>270.0</course>
<desc>Speed 0.3 km/h Distance 5.18 km</desc>
<time>2010-07-31T13:59:44.11</time>
<name>392</name>
</trkpt>
<trkpt lat="49.184818" lon="10.715512">
<ele>480.0</ele>
<speed>0.0</speed>
<course>270.0</course>
<desc>Speed 0.0 km/h Distance 5.18 km</desc>
<time>2010-07-31T13:59:45.11</time>
<name>393</name>
</trkpt>
<trkpt lat="49.184818" lon="10.715512">
<ele>480.0</ele>
<speed>0.0</speed>
<course>270.0</course>
<desc>Speed 0.0 km/h Distance 5.18 km</desc>
<time>2010-07-31T13:59:46.10</time>
<name>394</name>
</trkpt>
<trkpt lat="49.184818" lon="10.715512">
<ele>480.0</ele>
<speed>0.0</speed>
<course>270.0</course>
<desc>Speed 0.0 km/h Distance 5.18 km</desc>
<time>2010-07-31T13:59:47.11</time>
<name>395</name>
</trkpt>
<trkpt lat="49.184818" lon="10.715512">
<ele>480.0</ele>
<speed>0.1</speed>
<course>270.0</course>
<desc>Speed 0.1 km/h Distance 5.18 km</desc>
<time>2010-07-31T13:59:49.09</time>
<name>396</name>
</trkpt>
<trkpt lat="49.184818" lon="10.715512">
<ele>480.0</ele>
<speed>0.3</speed>
<course>270.0</course>
<desc>Speed 0.3 km/h Distance 5.18 km</desc>
<time>2010-07-31T13:59:50.10</time>
<name>397</name>
</trkpt>
<trkpt lat="49.184818" lon="10.715512">
<ele>480.0</ele>
<speed>0.1</speed>
<course>270.0</course>
<desc>Speed 0.1 km/h Distance 5.18 km</desc>
<time>2010-07-31T13:59:51.10</time>
<name>398</name>
</trkpt>
<trkpt lat="49.184818" lon="10.715512">
<ele>480.0</ele>
<speed>0.2</speed>
<course>270.0</course>
<desc>Speed 0.2 km/h Distance 5.18 km</desc>
<time>2010-07-31T13:59:52.11</time>
<name>399</name>
</trkpt>
<trkpt lat="49.184818" lon="10.715512">
<ele>480.0</ele>
<speed>0.2</speed>
<course>270.0</course>
<desc>Speed 0.2 km/h Distance 5.18 km</desc>
<time>2010-07-31T13:59:53.10</time>
<name>400</name>
</trkpt>
<trkpt lat="49.184818" lon="10.715512">
<ele>480.0</ele>
<speed>0.1</speed>
<course>270.0</course>
<desc>Speed 0.1 km/h Distance 5.18 km</desc>
<time>2010-07-31T13:59:54.10</time>
<name>401</name>
</trkpt>
<trkpt lat="49.184818" lon="10.715512">
<ele>480.0</ele>
<speed>0.3</speed>
<course>270.0</course>
<desc>Speed 0.3 km/h Distance 5.18 km</desc>
<time>2010-07-31T13:59:55.10</time>
<name>402</name>
</trkpt>
<trkpt lat="49.184818" lon="10.715512">
<ele>480.0</ele>
<speed>0.3</speed>
<course>167.4</course>
<desc>Speed 0.3 km/h Distance 5.18 km</desc>
<time>2010-07-31T13:59:56.10</time>
<name>403</name>
</trkpt>
<trkpt lat="49.184817" lon="10.715512">
<ele>480.0</ele>
<speed>0.1</speed>
<course>167.4</course>
<desc>Speed 0.1 km/h Distance 5.18 km</desc>
<time>2010-07-31T13:59:57.10</time>
<name>404</name>
</trkpt>
<trkpt lat="49.184817" lon="10.715512">
<ele>480.0</ele>
<speed>0.0</speed>
<course>167.4</course>
<desc>Speed 0.0 km/h Distance 5.18 km</desc>
<time>2010-07-31T13:59:59.10</time>
<name>405</name>
</trkpt>
<trkpt lat="49.184817" lon="10.715512">
<ele>480.0</ele>
<speed>0.1</speed>
<course>167.4</course>
<desc>Speed 0.1 km/h Distance 5.18 km</desc>
<time>2010-07-31T14:00:01.10</time>
<name>406</name>
</trkpt>
<trkpt lat="49.184817" lon="10.715512">
<ele>480.0</ele>
<speed>0.1</speed>
<course>308.1</course>
<desc>Speed 0.1 km/h Distance 5.18 km</desc>
<time>2010-07-31T14:00:03.10</time>
<name>407</name>
</trkpt>
<trkpt lat="49.184818" lon="10.715508">
<ele>480.0</ele>
<speed>2.0</speed>
<course>260.1</course>
<desc>Speed 2.0 km/h Distance 5.18 km</desc>
<time>2010-07-31T14:00:05.10</time>
<name>408</name>
</trkpt>
<trkpt lat="49.184798" lon="10.715333">
<ele>478.0</ele>
<speed>18.6</speed>
<course>220.9</course>
<desc>Speed 18.6 km/h Distance 5.19 km</desc>
<time>2010-07-31T14:00:08.09</time>
<name>409</name>
</trkpt>
<trkpt lat="49.184707" lon="10.715212">
<ele>478.0</ele>
<speed>22.7</speed>
<course>191.9</course>
<desc>Speed 22.7 km/h Distance 5.20 km</desc>
<time>2010-07-31T14:00:10.08</time>
<name>410</name>
</trkpt>
<trkpt lat="49.184552" lon="10.715162">
<ele>478.5</ele>
<speed>36.0</speed>
<course>175.4</course>
<desc>Speed 36.0 km/h Distance 5.22 km</desc>
<time>2010-07-31T14:00:12.08</time>
<name>411</name>
</trkpt>
<trkpt lat="49.184347" lon="10.715187">
<ele>479.0</ele>
<speed>44.3</speed>
<course>168.4</course>
<desc>Speed 44.3 km/h Distance 5.25 km</desc>
<time>2010-07-31T14:00:14.09</time>
<name>412</name>
</trkpt>
<trkpt lat="49.183130" lon="10.715570">
<ele>482.5</ele>
<speed>100</speed>
<course>167.2</course>
<desc>Speed 100 km/h Distance 5.38 km</desc>
<time>2010-07-31T14:00:20.07</time>
<name>413</name>
</trkpt>
<trkpt lat="49.182618" lon="10.715748">
<ele>482.0</ele>
<speed>106</speed>
<course>168.7</course>
<desc>Speed 106 km/h Distance 5.44 km</desc>
<time>2010-07-31T14:00:22.08</time>
<name>414</name>
</trkpt>
<trkpt lat="49.182053" lon="10.715922">
<ele>481.5</ele>
<speed>115</speed>
<course>165.6</course>
<desc>Speed 115 km/h Distance 5.51 km</desc>
<time>2010-07-31T14:00:24.08</time>
<name>415</name>
</trkpt>
<trkpt lat="49.181495" lon="10.716142">
<ele>480.5</ele>
<speed>116</speed>
<course>163.6</course>
<desc>Speed 116 km/h Distance 5.57 km</desc>
<time>2010-07-31T14:00:26.08</time>
<name>416</name>
</trkpt>
<trkpt lat="49.180505" lon="10.716587">
<ele>477.0</ele>
<speed>123</speed>
<course>160.5</course>
<desc>Speed 123 km/h Distance 5.68 km</desc>
<time>2010-07-31T14:00:31.06</time>
<name>417</name>
</trkpt>
<trkpt lat="49.179917" lon="10.716905">
<ele>476.0</ele>
<speed>123</speed>
<course>164.0</course>
<desc>Speed 123 km/h Distance 5.75 km</desc>
<time>2010-07-31T14:00:33.07</time>
<name>418</name>
</trkpt>
<trkpt lat="49.179010" lon="10.717302">
<ele>469.5</ele>
<speed>123</speed>
<course>156.4</course>
<desc>Speed 123 km/h Distance 5.86 km</desc>
<time>2010-07-31T14:00:37.07</time>
<name>419</name>
</trkpt>
<trkpt lat="49.176715" lon="10.718837">
<ele>459.0</ele>
<speed>134</speed>
<course>162.5</course>
<desc>Speed 134 km/h Distance 6.14 km</desc>
<time>2010-07-31T14:00:43.07</time>
<name>420</name>
</trkpt>
<trkpt lat="49.175612" lon="10.719370">
<ele>458.0</ele>
<speed>134</speed>
<course>163.8</course>
<desc>Speed 134 km/h Distance 6.27 km</desc>
<time>2010-07-31T14:00:46.07</time>
<name>421</name>
</trkpt>
<trkpt lat="49.175285" lon="10.719515">
<ele>458.0</ele>
<speed>131</speed>
<course>152.8</course>
<desc>Speed 131 km/h Distance 6.30 km</desc>
<time>2010-07-31T14:00:47.06</time>
<name>422</name>
</trkpt>
<trkpt lat="49.174673" lon="10.719995">
<ele>459.0</ele>
<speed>127</speed>
<course>166.4</course>
<desc>Speed 127 km/h Distance 6.38 km</desc>
<time>2010-07-31T14:00:49.05</time>
<name>423</name>
</trkpt>
<trkpt lat="49.174105" lon="10.720205">
<ele>460.0</ele>
<speed>125</speed>
<course>176.2</course>
<desc>Speed 125 km/h Distance 6.45 km</desc>
<time>2010-07-31T14:00:51.06</time>
<name>424</name>
</trkpt>
<trkpt lat="49.172757" lon="10.720343">
<ele>463.5</ele>
<speed>125</speed>
<course>194.7</course>
<desc>Speed 125 km/h Distance 6.60 km</desc>
<time>2010-07-31T14:00:57.05</time>
<name>425</name>
</trkpt>
<trkpt lat="49.170038" lon="10.719252">
<ele>459.0</ele>
<speed>125</speed>
<course>213.4</course>
<desc>Speed 125 km/h Distance 6.91 km</desc>
<time>2010-07-31T14:01:07.05</time>
<name>426</name>
</trkpt>
<trkpt lat="49.169193" lon="10.718398">
<ele>458.0</ele>
<speed>97.5</speed>
<course>211.9</course>
<desc>Speed 97.5 km/h Distance 7.02 km</desc>
<time>2010-07-31T14:01:11.04</time>
<name>427</name>
</trkpt>
<trkpt lat="49.168738" lon="10.717965">
<ele>459.0</ele>
<speed>100</speed>
<course>208.3</course>
<desc>Speed 100 km/h Distance 7.08 km</desc>
<time>2010-07-31T14:01:13.04</time>
<name>428</name>
</trkpt>
<trkpt lat="49.168522" lon="10.717787">
<ele>459.0</ele>
<speed>94.9</speed>
<course>209.2</course>
<desc>Speed 94.9 km/h Distance 7.11 km</desc>
<time>2010-07-31T14:01:14.04</time>
<name>429</name>
</trkpt>
<trkpt lat="49.168003" lon="10.717343">
<ele>459.0</ele>
<speed>81.6</speed>
<course>204.3</course>
<desc>Speed 81.6 km/h Distance 7.18 km</desc>
<time>2010-07-31T14:01:17.03</time>
<name>430</name>
</trkpt>
<trkpt lat="49.167568" lon="10.717043">
<ele>461.5</ele>
<speed>85.8</speed>
<course>203.4</course>
<desc>Speed 85.8 km/h Distance 7.23 km</desc>
<time>2010-07-31T14:01:19.03</time>
<name>431</name>
</trkpt>
<trkpt lat="49.167117" lon="10.716745">
<ele>462.0</ele>
<speed>97.7</speed>
<course>204.6</course>
<desc>Speed 97.7 km/h Distance 7.28 km</desc>
<time>2010-07-31T14:01:21.03</time>
<name>432</name>
</trkpt>
<trkpt lat="49.166888" lon="10.716585">
<ele>462.0</ele>
<speed>98.2</speed>
<course>206.6</course>
<desc>Speed 98.2 km/h Distance 7.31 km</desc>
<time>2010-07-31T14:01:22.03</time>
<name>433</name>
</trkpt>
<trkpt lat="49.166667" lon="10.716415">
<ele>461.5</ele>
<speed>98.2</speed>
<course>207.2</course>
<desc>Speed 98.2 km/h Distance 7.34 km</desc>
<time>2010-07-31T14:01:23.03</time>
<name>434</name>
</trkpt>
<trkpt lat="49.166448" lon="10.716243">
<ele>461.5</ele>
<speed>96.9</speed>
<course>205.7</course>
<desc>Speed 96.9 km/h Distance 7.37 km</desc>
<time>2010-07-31T14:01:24.02</time>
<name>435</name>
</trkpt>
<trkpt lat="49.166240" lon="10.716090">
<ele>462.0</ele>
<speed>90.9</speed>
<course>196.6</course>
<desc>Speed 90.9 km/h Distance 7.39 km</desc>
<time>2010-07-31T14:01:25.02</time>
<name>436</name>
</trkpt>
<trkpt lat="49.166032" lon="10.715995">
<ele>462.0</ele>
<speed>84.7</speed>
<course>188.4</course>
<desc>Speed 84.7 km/h Distance 7.42 km</desc>
<time>2010-07-31T14:01:26.02</time>
<name>437</name>
</trkpt>
<trkpt lat="49.165832" lon="10.715950">
<ele>462.0</ele>
<speed>81.1</speed>
<course>191.2</course>
<desc>Speed 81.1 km/h Distance 7.44 km</desc>
<time>2010-07-31T14:01:27.03</time>
<name>438</name>
</trkpt>
<trkpt lat="49.165393" lon="10.715817">
<ele>462.5</ele>
<speed>81.1</speed>
<course>187.7</course>
<desc>Speed 81.1 km/h Distance 7.49 km</desc>
<time>2010-07-31T14:01:30.03</time>
<name>439</name>
</trkpt>
<trkpt lat="49.164302" lon="10.715592">
<ele>470.5</ele>
<speed>102</speed>
<course>179.6</course>
<desc>Speed 102 km/h Distance 7.61 km</desc>
<time>2010-07-31T14:01:34.94</time>
<name>440</name>
</trkpt>
<trkpt lat="49.163248" lon="10.715603">
<ele>472.5</ele>
<speed>73.4</speed>
<course>183.6</course>
<desc>Speed 73.4 km/h Distance 7.73 km</desc>
<time>2010-07-31T14:01:39.02</time>
<name>441</name>
</trkpt>
<trkpt lat="49.162830" lon="10.715563">
<ele>479.0</ele>
<speed>66.9</speed>
<course>188.1</course>
<desc>Speed 66.9 km/h Distance 7.78 km</desc>
<time>2010-07-31T14:01:41.01</time>
<name>442</name>
</trkpt>
<trkpt lat="49.162668" lon="10.715528">
<ele>480.0</ele>
<speed>63.8</speed>
<course>184.0</course>
<desc>Speed 63.8 km/h Distance 7.79 km</desc>
<time>2010-07-31T14:01:42.02</time>
<name>443</name>
</trkpt>
<trkpt lat="49.162498" lon="10.715510">
<ele>481.5</ele>
<speed>64.6</speed>
<course>185.5</course>
<desc>Speed 64.6 km/h Distance 7.81 km</desc>
<time>2010-07-31T14:01:43.02</time>
<name>444</name>
</trkpt>
<trkpt lat="49.162328" lon="10.715485">
<ele>482.0</ele>
<speed>66.2</speed>
<course>181.1</course>
<desc>Speed 66.2 km/h Distance 7.83 km</desc>
<time>2010-07-31T14:01:44.02</time>
<name>445</name>
</trkpt>
<trkpt lat="49.162152" lon="10.715480">
<ele>482.5</ele>
<speed>68.6</speed>
<course>179.0</course>
<desc>Speed 68.6 km/h Distance 7.85 km</desc>
<time>2010-07-31T14:01:45.02</time>
<name>446</name>
</trkpt>
<trkpt lat="49.161975" lon="10.715485">
<ele>483.0</ele>
<speed>70.5</speed>
<course>169.6</course>
<desc>Speed 70.5 km/h Distance 7.87 km</desc>
<time>2010-07-31T14:01:46.02</time>
<name>447</name>
</trkpt>
<trkpt lat="49.160780" lon="10.715820">
<ele>482.5</ele>
<speed>104</speed>
<course>163.1</course>
<desc>Speed 104 km/h Distance 8.01 km</desc>
<time>2010-07-31T14:01:51.01</time>
<name>448</name>
</trkpt>
<trkpt lat="49.159810" lon="10.716272">
<ele>478.5</ele>
<speed>72.7</speed>
<course>158.2</course>
<desc>Speed 72.7 km/h Distance 8.12 km</desc>
<time>2010-07-31T14:01:56.00</time>
<name>449</name>
</trkpt>
<trkpt lat="49.159655" lon="10.716367">
<ele>480.0</ele>
<speed>66.2</speed>
<course>155.0</course>
<desc>Speed 66.2 km/h Distance 8.14 km</desc>
<time>2010-07-31T14:01:57.02</time>
<name>450</name>
</trkpt>
<trkpt lat="49.159503" lon="10.716475">
<ele>480.0</ele>
<speed>67.0</speed>
<course>152.1</course>
<desc>Speed 67.0 km/h Distance 8.16 km</desc>
<time>2010-07-31T14:01:58.01</time>
<name>451</name>
</trkpt>
<trkpt lat="49.159353" lon="10.716597">
<ele>481.0</ele>
<speed>66.9</speed>
<course>149.9</course>
<desc>Speed 66.9 km/h Distance 8.17 km</desc>
<time>2010-07-31T14:01:59.01</time>
<name>452</name>
</trkpt>
<trkpt lat="49.159107" lon="10.716815">
<ele>478.5</ele>
<speed>56.9</speed>
<course>146.8</course>
<desc>Speed 56.9 km/h Distance 8.21 km</desc>
<time>2010-07-31T14:02:01.00</time>
<name>453</name>
</trkpt>
<trkpt lat="49.158973" lon="10.716948">
<ele>481.0</ele>
<speed>55.8</speed>
<course>162.6</course>
<desc>Speed 55.8 km/h Distance 8.22 km</desc>
<time>2010-07-31T14:02:02.01</time>
<name>454</name>
</trkpt>
<trkpt lat="49.158653" lon="10.717102">
<ele>482.5</ele>
<speed>0.5</speed>
<course>231.9</course>
<desc>Speed 0.5 km/h Distance 8.26 km</desc>
<time>2010-07-31T14:02:07.99</time>
<name>455</name>
</trkpt>
<trkpt lat="49.158652" lon="10.717098">
<ele>482.0</ele>
<speed>0.3</speed>
<course>167.4</course>
<desc>Speed 0.3 km/h Distance 8.26 km</desc>
<time>2010-07-31T14:02:10.00</time>
<name>456</name>
</trkpt>
<trkpt lat="49.158650" lon="10.717100">
<ele>481.5</ele>
<speed>0.2</speed>
<course>167.4</course>
<desc>Speed 0.2 km/h Distance 8.26 km</desc>
<time>2010-07-31T14:02:11.00</time>
<name>457</name>
</trkpt>
<trkpt lat="49.158648" lon="10.717100">
<ele>481.0</ele>
<speed>0.1</speed>
<course>167.4</course>
<desc>Speed 0.1 km/h Distance 8.26 km</desc>
<time>2010-07-31T14:02:11.99</time>
<name>458</name>
</trkpt>
<trkpt lat="49.158647" lon="10.717100">
<ele>481.0</ele>
<speed>0.1</speed>
<course>167.4</course>
<desc>Speed 0.1 km/h Distance 8.26 km</desc>
<time>2010-07-31T14:02:12.99</time>
<name>459</name>
</trkpt>
<trkpt lat="49.158647" lon="10.717098">
<ele>480.5</ele>
<speed>0.3</speed>
<course>167.4</course>
<desc>Speed 0.3 km/h Distance 8.26 km</desc>
<time>2010-07-31T14:02:14.00</time>
<name>460</name>
</trkpt>
<trkpt lat="49.158647" lon="10.717098">
<ele>480.0</ele>
<speed>0.2</speed>
<course>209.2</course>
<desc>Speed 0.2 km/h Distance 8.26 km</desc>
<time>2010-07-31T14:02:14.99</time>
<name>461</name>
</trkpt>
<trkpt lat="49.158645" lon="10.717097">
<ele>480.0</ele>
<speed>0.1</speed>
<course>209.2</course>
<desc>Speed 0.1 km/h Distance 8.26 km</desc>
<time>2010-07-31T14:02:15.99</time>
<name>462</name>
</trkpt>
<trkpt lat="49.158643" lon="10.717095">
<ele>479.5</ele>
<speed>0.2</speed>
<course>270.0</course>
<desc>Speed 0.2 km/h Distance 8.26 km</desc>
<time>2010-07-31T14:02:16.99</time>
<name>463</name>
</trkpt>
<trkpt lat="49.158643" lon="10.717093">
<ele>479.5</ele>
<speed>0.2</speed>
<course>167.4</course>
<desc>Speed 0.2 km/h Distance 8.26 km</desc>
<time>2010-07-31T14:02:17.99</time>
<name>464</name>
</trkpt>
<trkpt lat="49.158642" lon="10.717093">
<ele>479.5</ele>
<speed>0.1</speed>
<course>270.0</course>
<desc>Speed 0.1 km/h Distance 8.26 km</desc>
<time>2010-07-31T14:02:18.99</time>
<name>465</name>
</trkpt>
<trkpt lat="49.158642" lon="10.717092">
<ele>479.5</ele>
<speed>0.2</speed>
<course>270.0</course>
<desc>Speed 0.2 km/h Distance 8.26 km</desc>
<time>2010-07-31T14:02:19.99</time>
<name>466</name>
</trkpt>
<trkpt lat="49.158642" lon="10.717092">
<ele>479.5</ele>
<speed>0.2</speed>
<course>270.0</course>
<desc>Speed 0.2 km/h Distance 8.26 km</desc>
<time>2010-07-31T14:02:21.00</time>
<name>467</name>
</trkpt>
<trkpt lat="49.158642" lon="10.717092">
<ele>479.5</ele>
<speed>0.3</speed>
<course>167.4</course>
<desc>Speed 0.3 km/h Distance 8.26 km</desc>
<time>2010-07-31T14:02:21.99</time>
<name>468</name>
</trkpt>
<trkpt lat="49.158640" lon="10.717092">
<ele>479.5</ele>
<speed>0.1</speed>
<course>167.4</course>
<desc>Speed 0.1 km/h Distance 8.26 km</desc>
<time>2010-07-31T14:02:22.99</time>
<name>469</name>
</trkpt>
<trkpt lat="49.158640" lon="10.717092">
<ele>479.5</ele>
<speed>0.1</speed>
<course>167.4</course>
<desc>Speed 0.1 km/h Distance 8.26 km</desc>
<time>2010-07-31T14:02:23.99</time>
<name>470</name>
</trkpt>
<trkpt lat="49.158640" lon="10.717092">
<ele>479.5</ele>
<speed>0.2</speed>
<course>270.0</course>
<desc>Speed 0.2 km/h Distance 8.26 km</desc>
<time>2010-07-31T14:02:24.98</time>
<name>471</name>
</trkpt>
<trkpt lat="49.158640" lon="10.717090">
<ele>479.5</ele>
<speed>0.0</speed>
<course>270.0</course>
<desc>Speed 0.0 km/h Distance 8.26 km</desc>
<time>2010-07-31T14:02:25.99</time>
<name>472</name>
</trkpt>
<trkpt lat="49.158640" lon="10.717090">
<ele>479.5</ele>
<speed>0.1</speed>
<course>270.0</course>
<desc>Speed 0.1 km/h Distance 8.26 km</desc>
<time>2010-07-31T14:02:27.00</time>
<name>473</name>
</trkpt>
<trkpt lat="49.158640" lon="10.717090">
<ele>479.5</ele>
<speed>0.2</speed>
<course>270.0</course>
<desc>Speed 0.2 km/h Distance 8.26 km</desc>
<time>2010-07-31T14:02:27.99</time>
<name>474</name>
</trkpt>
<trkpt lat="49.158640" lon="10.717090">
<ele>479.5</ele>
<speed>0.1</speed>
<course>270.0</course>
<desc>Speed 0.1 km/h Distance 8.26 km</desc>
<time>2010-07-31T14:02:28.99</time>
<name>475</name>
</trkpt>
<trkpt lat="49.158640" lon="10.717088">
<ele>479.5</ele>
<speed>0.1</speed>
<course>270.0</course>
<desc>Speed 0.1 km/h Distance 8.26 km</desc>
<time>2010-07-31T14:02:29.99</time>
<name>476</name>
</trkpt>
<trkpt lat="49.158640" lon="10.717088">
<ele>479.0</ele>
<speed>0.2</speed>
<course>270.0</course>
<desc>Speed 0.2 km/h Distance 8.26 km</desc>
<time>2010-07-31T14:02:30.99</time>
<name>477</name>
</trkpt>
<trkpt lat="49.158640" lon="10.717088">
<ele>479.0</ele>
<speed>0.1</speed>
<course>167.4</course>
<desc>Speed 0.1 km/h Distance 8.26 km</desc>
<time>2010-07-31T14:02:31.99</time>
<name>478</name>
</trkpt>
<trkpt lat="49.158638" lon="10.717088">
<ele>479.0</ele>
<speed>0.4</speed>
<course>167.4</course>
<desc>Speed 0.4 km/h Distance 8.26 km</desc>
<time>2010-07-31T14:02:32.99</time>
<name>479</name>
</trkpt>
<trkpt lat="49.158638" lon="10.717088">
<ele>479.5</ele>
<speed>0.2</speed>
<course>167.4</course>
<desc>Speed 0.2 km/h Distance 8.26 km</desc>
<time>2010-07-31T14:02:34.02</time>
<name>480</name>
</trkpt>
<trkpt lat="49.158638" lon="10.717088">
<ele>479.5</ele>
<speed>0.1</speed>
<course>167.4</course>
<desc>Speed 0.1 km/h Distance 8.26 km</desc>
<time>2010-07-31T14:02:34.99</time>
<name>481</name>
</trkpt>
<trkpt lat="49.158638" lon="10.717088">
<ele>479.5</ele>
<speed>0.2</speed>
<course>167.4</course>
<desc>Speed 0.2 km/h Distance 8.26 km</desc>
<time>2010-07-31T14:02:36.02</time>
<name>482</name>
</trkpt>
<trkpt lat="49.158638" lon="10.717088">
<ele>479.5</ele>
<speed>0.3</speed>
<course>167.4</course>
<desc>Speed 0.3 km/h Distance 8.26 km</desc>
<time>2010-07-31T14:02:36.98</time>
<name>483</name>
</trkpt>
<trkpt lat="49.158638" lon="10.717088">
<ele>479.5</ele>
<speed>0.1</speed>
<course>167.4</course>
<desc>Speed 0.1 km/h Distance 8.26 km</desc>
<time>2010-07-31T14:02:38.02</time>
<name>484</name>
</trkpt>
<trkpt lat="49.158638" lon="10.717088">
<ele>479.5</ele>
<speed>0.2</speed>
<course>167.4</course>
<desc>Speed 0.2 km/h Distance 8.26 km</desc>
<time>2010-07-31T14:02:38.98</time>
<name>485</name>
</trkpt>
<trkpt lat="49.158638" lon="10.717088">
<ele>479.5</ele>
<speed>0.2</speed>
<course>167.4</course>
<desc>Speed 0.2 km/h Distance 8.26 km</desc>
<time>2010-07-31T14:02:40.02</time>
<name>486</name>
</trkpt>
<trkpt lat="49.158638" lon="10.717088">
<ele>479.5</ele>
<speed>0.1</speed>
<course>270.0</course>
<desc>Speed 0.1 km/h Distance 8.26 km</desc>
<time>2010-07-31T14:02:40.98</time>
<name>487</name>
</trkpt>
<trkpt lat="49.158638" lon="10.717087">
<ele>479.5</ele>
<speed>0.1</speed>
<course>270.0</course>
<desc>Speed 0.1 km/h Distance 8.26 km</desc>
<time>2010-07-31T14:02:41.98</time>
<name>488</name>
</trkpt>
<trkpt lat="49.158638" lon="10.717087">
<ele>479.5</ele>
<speed>0.1</speed>
<course>270.0</course>
<desc>Speed 0.1 km/h Distance 8.26 km</desc>
<time>2010-07-31T14:02:43.02</time>
<name>489</name>
</trkpt>
<trkpt lat="49.158638" lon="10.717087">
<ele>479.5</ele>
<speed>0.2</speed>
<course>270.0</course>
<desc>Speed 0.2 km/h Distance 8.26 km</desc>
<time>2010-07-31T14:02:43.98</time>
<name>490</name>
</trkpt>
<trkpt lat="49.158638" lon="10.717087">
<ele>479.5</ele>
<speed>0.1</speed>
<course>270.0</course>
<desc>Speed 0.1 km/h Distance 8.26 km</desc>
<time>2010-07-31T14:02:45.01</time>
<name>491</name>
</trkpt>
<trkpt lat="49.158638" lon="10.717087">
<ele>479.5</ele>
<speed>0.1</speed>
<course>270.0</course>
<desc>Speed 0.1 km/h Distance 8.26 km</desc>
<time>2010-07-31T14:02:45.98</time>
<name>492</name>
</trkpt>
<trkpt lat="49.158638" lon="10.717087">
<ele>479.5</ele>
<speed>0.1</speed>
<course>270.0</course>
<desc>Speed 0.1 km/h Distance 8.26 km</desc>
<time>2010-07-31T14:02:46.98</time>
<name>493</name>
</trkpt>
<trkpt lat="49.158638" lon="10.717087">
<ele>479.5</ele>
<speed>0.1</speed>
<course>270.0</course>
<desc>Speed 0.1 km/h Distance 8.26 km</desc>
<time>2010-07-31T14:02:47.97</time>
<name>494</name>
</trkpt>
<trkpt lat="49.158638" lon="10.717087">
<ele>479.5</ele>
<speed>0.3</speed>
<course>270.0</course>
<desc>Speed 0.3 km/h Distance 8.26 km</desc>
<time>2010-07-31T14:02:48.98</time>
<name>495</name>
</trkpt>
<trkpt lat="49.158638" lon="10.717087">
<ele>479.5</ele>
<speed>0.1</speed>
<course>270.0</course>
<desc>Speed 0.1 km/h Distance 8.26 km</desc>
<time>2010-07-31T14:02:50.00</time>
<name>496</name>
</trkpt>
<trkpt lat="49.158638" lon="10.717087">
<ele>479.0</ele>
<speed>0.1</speed>
<course>270.0</course>
<desc>Speed 0.1 km/h Distance 8.26 km</desc>
<time>2010-07-31T14:02:51.97</time>
<name>497</name>
</trkpt>
<trkpt lat="49.158638" lon="10.717087">
<ele>479.0</ele>
<speed>0.2</speed>
<course>270.0</course>
<desc>Speed 0.2 km/h Distance 8.26 km</desc>
<time>2010-07-31T14:02:52.97</time>
<name>498</name>
</trkpt>
<trkpt lat="49.158638" lon="10.717087">
<ele>479.0</ele>
<speed>0.1</speed>
<course>270.0</course>
<desc>Speed 0.1 km/h Distance 8.26 km</desc>
<time>2010-07-31T14:02:54.00</time>
<name>499</name>
</trkpt>
<trkpt lat="49.158638" lon="10.717087">
<ele>479.0</ele>
<speed>0.4</speed>
<course>270.0</course>
<desc>Speed 0.4 km/h Distance 8.26 km</desc>
<time>2010-07-31T14:02:54.97</time>
<name>500</name>
</trkpt>
<trkpt lat="49.158638" lon="10.717087">
<ele>479.0</ele>
<speed>0.2</speed>
<course>270.0</course>
<desc>Speed 0.2 km/h Distance 8.26 km</desc>
<time>2010-07-31T14:02:55.96</time>
<name>501</name>
</trkpt>
<trkpt lat="49.158638" lon="10.717085">
<ele>479.0</ele>
<speed>0.1</speed>
<course>270.0</course>
<desc>Speed 0.1 km/h Distance 8.26 km</desc>
<time>2010-07-31T14:02:56.96</time>
<name>502</name>
</trkpt>
<trkpt lat="49.158638" lon="10.717085">
<ele>479.0</ele>
<speed>0.2</speed>
<course>270.0</course>
<desc>Speed 0.2 km/h Distance 8.26 km</desc>
<time>2010-07-31T14:02:57.96</time>
<name>503</name>
</trkpt>
<trkpt lat="49.158638" lon="10.717085">
<ele>479.0</ele>
<speed>0.2</speed>
<course>270.0</course>
<desc>Speed 0.2 km/h Distance 8.26 km</desc>
<time>2010-07-31T14:02:58.97</time>
<name>504</name>
</trkpt>
<trkpt lat="49.158638" lon="10.717085">
<ele>479.0</ele>
<speed>0.1</speed>
<course>167.4</course>
<desc>Speed 0.1 km/h Distance 8.26 km</desc>
<time>2010-07-31T14:02:59.97</time>
<name>505</name>
</trkpt>
<trkpt lat="49.158637" lon="10.717085">
<ele>479.0</ele>
<speed>0.3</speed>
<course>167.4</course>
<desc>Speed 0.3 km/h Distance 8.26 km</desc>
<time>2010-07-31T14:03:00.97</time>
<name>506</name>
</trkpt>
<trkpt lat="49.158637" lon="10.717085">
<ele>479.0</ele>
<speed>0.0</speed>
<course>330.8</course>
<desc>Speed 0.0 km/h Distance 8.26 km</desc>
<time>2010-07-31T14:03:01.97</time>
<name>507</name>
</trkpt>
<trkpt lat="49.158638" lon="10.717083">
<ele>479.0</ele>
<speed>0.1</speed>
<course>175.3</course>
<desc>Speed 0.1 km/h Distance 8.26 km</desc>
<time>2010-07-31T14:03:02.97</time>
<name>508</name>
</trkpt>
<trkpt lat="49.158627" lon="10.717083">
<ele>479.0</ele>
<speed>4.0</speed>
<course>175.8</course>
<desc>Speed 4.0 km/h Distance 8.27 km</desc>
<time>2010-07-31T14:03:03.97</time>
<name>509</name>
</trkpt>
<trkpt lat="49.157968" lon="10.717157">
<ele>479.5</ele>
<speed>67.0</speed>
<course>175.2</course>
<desc>Speed 67.0 km/h Distance 8.34 km</desc>
<time>2010-07-31T14:03:09.96</time>
<name>510</name>
</trkpt>
<trkpt lat="49.157588" lon="10.717205">
<ele>480.0</ele>
<speed>76.6</speed>
<course>172.9</course>
<desc>Speed 76.6 km/h Distance 8.38 km</desc>
<time>2010-07-31T14:03:11.96</time>
<name>511</name>
</trkpt>
<trkpt lat="49.157387" lon="10.717243">
<ele>479.5</ele>
<speed>80.1</speed>
<course>168.0</course>
<desc>Speed 80.1 km/h Distance 8.40 km</desc>
<time>2010-07-31T14:03:12.96</time>
<name>512</name>
</trkpt>
<trkpt lat="49.157182" lon="10.717310">
<ele>480.5</ele>
<speed>83.6</speed>
<course>159.5</course>
<desc>Speed 83.6 km/h Distance 8.43 km</desc>
<time>2010-07-31T14:03:13.96</time>
<name>513</name>
</trkpt>
<trkpt lat="49.156987" lon="10.717422">
<ele>480.0</ele>
<speed>83.1</speed>
<course>153.9</course>
<desc>Speed 83.1 km/h Distance 8.45 km</desc>
<time>2010-07-31T14:03:14.96</time>
<name>514</name>
</trkpt>
<trkpt lat="49.156800" lon="10.717562">
<ele>479.0</ele>
<speed>82.3</speed>
<course>145.2</course>
<desc>Speed 82.3 km/h Distance 8.47 km</desc>
<time>2010-07-31T14:03:15.95</time>
<name>515</name>
</trkpt>
<trkpt lat="49.156617" lon="10.717757">
<ele>479.0</ele>
<speed>88.7</speed>
<course>145.2</course>
<desc>Speed 88.7 km/h Distance 8.50 km</desc>
<time>2010-07-31T14:03:16.96</time>
<name>516</name>
</trkpt>
<trkpt lat="49.156425" lon="10.717960">
<ele>480.5</ele>
<speed>93.0</speed>
<course>141.7</course>
<desc>Speed 93.0 km/h Distance 8.53 km</desc>
<time>2010-07-31T14:03:17.96</time>
<name>517</name>
</trkpt>
<trkpt lat="49.156242" lon="10.718182">
<ele>480.5</ele>
<speed>93.7</speed>
<course>142.3</course>
<desc>Speed 93.7 km/h Distance 8.55 km</desc>
<time>2010-07-31T14:03:18.95</time>
<name>518</name>
</trkpt>
<trkpt lat="49.156057" lon="10.718400">
<ele>479.5</ele>
<speed>92.7</speed>
<course>140.6</course>
<desc>Speed 92.7 km/h Distance 8.58 km</desc>
<time>2010-07-31T14:03:19.96</time>
<name>519</name>
</trkpt>
<trkpt lat="49.155867" lon="10.718638">
<ele>479.5</ele>
<speed>98.2</speed>
<course>141.7</course>
<desc>Speed 98.2 km/h Distance 8.60 km</desc>
<time>2010-07-31T14:03:20.96</time>
<name>520</name>
</trkpt>
<trkpt lat="49.155667" lon="10.718880">
<ele>479.5</ele>
<speed>102</speed>
<course>141.0</course>
<desc>Speed 102 km/h Distance 8.63 km</desc>
<time>2010-07-31T14:03:21.95</time>
<name>521</name>
</trkpt>
<trkpt lat="49.155465" lon="10.719130">
<ele>479.5</ele>
<speed>104</speed>
<course>140.1</course>
<desc>Speed 104 km/h Distance 8.66 km</desc>
<time>2010-07-31T14:03:22.95</time>
<name>522</name>
</trkpt>
<trkpt lat="49.155260" lon="10.719392">
<ele>479.0</ele>
<speed>107</speed>
<course>137.9</course>
<desc>Speed 107 km/h Distance 8.69 km</desc>
<time>2010-07-31T14:03:23.95</time>
<name>523</name>
</trkpt>
<trkpt lat="49.155055" lon="10.719675">
<ele>479.0</ele>
<speed>109</speed>
<course>130.9</course>
<desc>Speed 109 km/h Distance 8.72 km</desc>
<time>2010-07-31T14:03:24.94</time>
<name>524</name>
</trkpt>
<trkpt lat="49.154868" lon="10.720005">
<ele>479.0</ele>
<speed>112</speed>
<course>128.8</course>
<desc>Speed 112 km/h Distance 8.75 km</desc>
<time>2010-07-31T14:03:25.95</time>
<name>525</name>
</trkpt>
<trkpt lat="49.154683" lon="10.720357">
<ele>477.5</ele>
<speed>116</speed>
<course>123.5</course>
<desc>Speed 116 km/h Distance 8.79 km</desc>
<time>2010-07-31T14:03:26.95</time>
<name>526</name>
</trkpt>
<trkpt lat="49.154335" lon="10.721160">
<ele>477.0</ele>
<speed>127</speed>
<course>123.4</course>
<desc>Speed 127 km/h Distance 8.86 km</desc>
<time>2010-07-31T14:03:28.94</time>
<name>527</name>
</trkpt>
<trkpt lat="49.154155" lon="10.721577">
<ele>476.5</ele>
<speed>131</speed>
<course>123.1</course>
<desc>Speed 131 km/h Distance 8.89 km</desc>
<time>2010-07-31T14:03:29.95</time>
<name>528</name>
</trkpt>
<trkpt lat="49.153975" lon="10.721998">
<ele>476.0</ele>
<speed>133</speed>
<course>123.4</course>
<desc>Speed 133 km/h Distance 8.93 km</desc>
<time>2010-07-31T14:03:30.94</time>
<name>529</name>
</trkpt>
<trkpt lat="49.153798" lon="10.722408">
<ele>475.5</ele>
<speed>129</speed>
<course>123.2</course>
<desc>Speed 129 km/h Distance 8.97 km</desc>
<time>2010-07-31T14:03:31.94</time>
<name>530</name>
</trkpt>
<trkpt lat="49.153625" lon="10.722813">
<ele>475.0</ele>
<speed>127</speed>
<course>122.9</course>
<desc>Speed 127 km/h Distance 9.00 km</desc>
<time>2010-07-31T14:03:32.93</time>
<name>531</name>
</trkpt>
<trkpt lat="49.153453" lon="10.723218">
<ele>474.5</ele>
<speed>126</speed>
<course>122.8</course>
<desc>Speed 126 km/h Distance 9.04 km</desc>
<time>2010-07-31T14:03:33.94</time>
<name>532</name>
</trkpt>
<trkpt lat="49.153283" lon="10.723622">
<ele>474.0</ele>
<speed>125</speed>
<course>122.6</course>
<desc>Speed 125 km/h Distance 9.07 km</desc>
<time>2010-07-31T14:03:34.95</time>
<name>533</name>
</trkpt>
<trkpt lat="49.153117" lon="10.724020">
<ele>474.0</ele>
<speed>124</speed>
<course>122.9</course>
<desc>Speed 124 km/h Distance 9.11 km</desc>
<time>2010-07-31T14:03:35.95</time>
<name>534</name>
</trkpt>
<trkpt lat="49.152780" lon="10.724815">
<ele>473.0</ele>
<speed>124</speed>
<course>123.0</course>
<desc>Speed 124 km/h Distance 9.17 km</desc>
<time>2010-07-31T14:03:37.94</time>
<name>535</name>
</trkpt>
<trkpt lat="49.152440" lon="10.725617">
<ele>472.5</ele>
<speed>124</speed>
<course>122.9</course>
<desc>Speed 124 km/h Distance 9.24 km</desc>
<time>2010-07-31T14:03:39.93</time>
<name>536</name>
</trkpt>
<trkpt lat="49.152098" lon="10.726423">
<ele>471.5</ele>
<speed>126</speed>
<course>123.0</course>
<desc>Speed 126 km/h Distance 9.31 km</desc>
<time>2010-07-31T14:03:41.93</time>
<name>537</name>
</trkpt>
<trkpt lat="49.151750" lon="10.727243">
<ele>470.5</ele>
<speed>129</speed>
<course>122.9</course>
<desc>Speed 129 km/h Distance 9.39 km</desc>
<time>2010-07-31T14:03:43.93</time>
<name>538</name>
</trkpt>
<trkpt lat="49.151377" lon="10.728127">
<ele>469.0</ele>
<speed>138</speed>
<course>122.9</course>
<desc>Speed 138 km/h Distance 9.46 km</desc>
<time>2010-07-31T14:03:45.95</time>
<name>539</name>
</trkpt>
<trkpt lat="49.150987" lon="10.729047">
<ele>467.0</ele>
<speed>145</speed>
<course>123.7</course>
<desc>Speed 145 km/h Distance 9.54 km</desc>
<time>2010-07-31T14:03:47.93</time>
<name>540</name>
</trkpt>
<trkpt lat="49.150570" lon="10.730003">
<ele>465.5</ele>
<speed>153</speed>
<course>125.8</course>
<desc>Speed 153 km/h Distance 9.63 km</desc>
<time>2010-07-31T14:03:49.93</time>
<name>541</name>
</trkpt>
<trkpt lat="49.150123" lon="10.730952">
<ele>465.5</ele>
<speed>154</speed>
<course>132.5</course>
<desc>Speed 154 km/h Distance 9.71 km</desc>
<time>2010-07-31T14:03:51.94</time>
<name>542</name>
</trkpt>
<trkpt lat="49.149615" lon="10.731798">
<ele>465.0</ele>
<speed>147</speed>
<course>135.6</course>
<desc>Speed 147 km/h Distance 9.79 km</desc>
<time>2010-07-31T14:03:53.93</time>
<name>543</name>
</trkpt>
<trkpt lat="49.149105" lon="10.732562">
<ele>465.0</ele>
<speed>142</speed>
<course>149.6</course>
<desc>Speed 142 km/h Distance 9.87 km</desc>
<time>2010-07-31T14:03:55.93</time>
<name>544</name>
</trkpt>
<trkpt lat="49.147745" lon="10.733782">
<ele>465.5</ele>
<speed>113</speed>
<course>165.2</course>
<desc>Speed 113 km/h Distance 10.05 km</desc>
<time>2010-07-31T14:04:01.95</time>
<name>545</name>
</trkpt>
<trkpt lat="49.147210" lon="10.733998">
<ele>467.5</ele>
<speed>108</speed>
<course>171.0</course>
<desc>Speed 108 km/h Distance 10.11 km</desc>
<time>2010-07-31T14:04:03.91</time>
<name>546</name>
</trkpt>
<trkpt lat="49.146678" lon="10.734127">
<ele>468.5</ele>
<speed>104</speed>
<course>175.7</course>
<desc>Speed 104 km/h Distance 10.17 km</desc>
<time>2010-07-31T14:04:05.92</time>
<name>547</name>
</trkpt>
<trkpt lat="49.146152" lon="10.734187">
<ele>468.0</ele>
<speed>103</speed>
<course>176.2</course>
<desc>Speed 103 km/h Distance 10.23 km</desc>
<time>2010-07-31T14:04:07.92</time>
<name>548</name>
</trkpt>
<trkpt lat="49.145612" lon="10.734242">
<ele>467.0</ele>
<speed>106</speed>
<course>171.2</course>
<desc>Speed 106 km/h Distance 10.29 km</desc>
<time>2010-07-31T14:04:09.92</time>
<name>549</name>
</trkpt>
<trkpt lat="49.145075" lon="10.734368">
<ele>465.5</ele>
<speed>111</speed>
<course>158.9</course>
<desc>Speed 111 km/h Distance 10.35 km</desc>
<time>2010-07-31T14:04:11.92</time>
<name>550</name>
</trkpt>
<trkpt lat="49.144552" lon="10.734677">
<ele>466.5</ele>
<speed>111</speed>
<course>158.3</course>
<desc>Speed 111 km/h Distance 10.41 km</desc>
<time>2010-07-31T14:04:13.92</time>
<name>551</name>
</trkpt>
<trkpt lat="49.143792" lon="10.735138">
<ele>466.5</ele>
<speed>125</speed>
<course>154.2</course>
<desc>Speed 125 km/h Distance 10.50 km</desc>
<time>2010-07-31T14:04:16.91</time>
<name>552</name>
</trkpt>
<trkpt lat="49.142720" lon="10.735932">
<ele>464.5</ele>
<speed>148</speed>
<course>155.0</course>
<desc>Speed 148 km/h Distance 10.64 km</desc>
<time>2010-07-31T14:04:20.92</time>
<name>553</name>
</trkpt>
<trkpt lat="49.141800" lon="10.736588">
<ele>468.0</ele>
<speed>143</speed>
<course>156.0</course>
<desc>Speed 143 km/h Distance 10.75 km</desc>
<time>2010-07-31T14:04:23.91</time>
<name>554</name>
</trkpt>
<trkpt lat="49.141088" lon="10.737073">
<ele>477.5</ele>
<speed>138</speed>
<course>153.0</course>
<desc>Speed 138 km/h Distance 10.84 km</desc>
<time>2010-07-31T14:04:25.91</time>
<name>555</name>
</trkpt>
<trkpt lat="49.140423" lon="10.737592">
<ele>477.5</ele>
<speed>135</speed>
<course>157.6</course>
<desc>Speed 135 km/h Distance 10.92 km</desc>
<time>2010-07-31T14:04:27.91</time>
<name>556</name>
</trkpt>
<trkpt lat="49.139363" lon="10.738260">
<ele>474.0</ele>
<speed>132</speed>
<course>155.4</course>
<desc>Speed 132 km/h Distance 11.05 km</desc>
<time>2010-07-31T14:04:30.90</time>
<name>557</name>
</trkpt>
<trkpt lat="49.138753" lon="10.738687">
<ele>473.0</ele>
<speed>127</speed>
<course>154.0</course>
<desc>Speed 127 km/h Distance 11.12 km</desc>
<time>2010-07-31T14:04:32.89</time>
<name>558</name>
</trkpt>
<trkpt lat="49.138165" lon="10.739125">
<ele>472.5</ele>
<speed>121</speed>
<course>154.7</course>
<desc>Speed 121 km/h Distance 11.19 km</desc>
<time>2010-07-31T14:04:34.89</time>
<name>559</name>
</trkpt>
<trkpt lat="49.137608" lon="10.739527">
<ele>471.5</ele>
<speed>113</speed>
<course>156.1</course>
<desc>Speed 113 km/h Distance 11.26 km</desc>
<time>2010-07-31T14:04:36.89</time>
<name>560</name>
</trkpt>
<trkpt lat="49.137102" lon="10.739870">
<ele>471.5</ele>
<speed>107</speed>
<course>156.1</course>
<desc>Speed 107 km/h Distance 11.32 km</desc>
<time>2010-07-31T14:04:38.88</time>
<name>561</name>
</trkpt>
<trkpt lat="49.136625" lon="10.740193">
<ele>471.0</ele>
<speed>104</speed>
<course>155.1</course>
<desc>Speed 104 km/h Distance 11.38 km</desc>
<time>2010-07-31T14:04:40.88</time>
<name>562</name>
</trkpt>
<trkpt lat="49.136158" lon="10.740525">
<ele>470.0</ele>
<speed>102</speed>
<course>156.9</course>
<desc>Speed 102 km/h Distance 11.44 km</desc>
<time>2010-07-31T14:04:42.89</time>
<name>563</name>
</trkpt>
<trkpt lat="49.135702" lon="10.740823">
<ele>468.5</ele>
<speed>99.8</speed>
<course>156.2</course>
<desc>Speed 99.8 km/h Distance 11.50 km</desc>
<time>2010-07-31T14:04:44.87</time>
<name>564</name>
</trkpt>
<trkpt lat="49.135252" lon="10.741127">
<ele>467.5</ele>
<speed>97.3</speed>
<course>155.3</course>
<desc>Speed 97.3 km/h Distance 11.55 km</desc>
<time>2010-07-31T14:04:46.87</time>
<name>565</name>
</trkpt>
<trkpt lat="49.134808" lon="10.741438">
<ele>467.5</ele>
<speed>97.2</speed>
<course>155.9</course>
<desc>Speed 97.2 km/h Distance 11.60 km</desc>
<time>2010-07-31T14:04:48.87</time>
<name>566</name>
</trkpt>
<trkpt lat="49.134377" lon="10.741733">
<ele>465.5</ele>
<speed>93.1</speed>
<course>155.4</course>
<desc>Speed 93.1 km/h Distance 11.66 km</desc>
<time>2010-07-31T14:04:50.86</time>
<name>567</name>
</trkpt>
<trkpt lat="49.134160" lon="10.741885">
<ele>465.0</ele>
<speed>93.5</speed>
<course>157.0</course>
<desc>Speed 93.5 km/h Distance 11.68 km</desc>
<time>2010-07-31T14:04:51.86</time>
<name>568</name>
</trkpt>
<trkpt lat="49.133942" lon="10.742027">
<ele>464.5</ele>
<speed>94.3</speed>
<course>155.7</course>
<desc>Speed 94.3 km/h Distance 11.71 km</desc>
<time>2010-07-31T14:04:52.86</time>
<name>569</name>
</trkpt>
<trkpt lat="49.133497" lon="10.742333">
<ele>463.5</ele>
<speed>94.1</speed>
<course>156.1</course>
<desc>Speed 94.1 km/h Distance 11.76 km</desc>
<time>2010-07-31T14:04:54.86</time>
<name>570</name>
</trkpt>
<trkpt lat="49.133062" lon="10.742628">
<ele>463.0</ele>
<speed>94.2</speed>
<course>154.3</course>
<desc>Speed 94.2 km/h Distance 11.82 km</desc>
<time>2010-07-31T14:04:56.86</time>
<name>571</name>
</trkpt>
<trkpt lat="49.132842" lon="10.742790">
<ele>462.5</ele>
<speed>95.7</speed>
<course>154.8</course>
<desc>Speed 95.7 km/h Distance 11.84 km</desc>
<time>2010-07-31T14:04:57.86</time>
<name>572</name>
</trkpt>
<trkpt lat="49.132622" lon="10.742948">
<ele>462.0</ele>
<speed>95.9</speed>
<course>155.6</course>
<desc>Speed 95.9 km/h Distance 11.87 km</desc>
<time>2010-07-31T14:04:58.86</time>
<name>573</name>
</trkpt>
<trkpt lat="49.132398" lon="10.743103">
<ele>461.5</ele>
<speed>95.4</speed>
<course>154.1</course>
<desc>Speed 95.4 km/h Distance 11.90 km</desc>
<time>2010-07-31T14:04:59.86</time>
<name>574</name>
</trkpt>
<trkpt lat="49.132172" lon="10.743272">
<ele>462.5</ele>
<speed>99.2</speed>
<course>156.5</course>
<desc>Speed 99.2 km/h Distance 11.93 km</desc>
<time>2010-07-31T14:05:00.86</time>
<name>575</name>
</trkpt>
<trkpt lat="49.131948" lon="10.743420">
<ele>462.5</ele>
<speed>97.0</speed>
<course>157.1</course>
<desc>Speed 97.0 km/h Distance 11.95 km</desc>
<time>2010-07-31T14:05:01.85</time>
<name>576</name>
</trkpt>
<trkpt lat="49.131723" lon="10.743565">
<ele>462.5</ele>
<speed>97.2</speed>
<course>155.6</course>
<desc>Speed 97.2 km/h Distance 11.98 km</desc>
<time>2010-07-31T14:05:02.86</time>
<name>577</name>
</trkpt>
<trkpt lat="49.131500" lon="10.743720">
<ele>462.0</ele>
<speed>96.4</speed>
<course>155.7</course>
<desc>Speed 96.4 km/h Distance 12.01 km</desc>
<time>2010-07-31T14:05:03.87</time>
<name>578</name>
</trkpt>
<trkpt lat="49.131280" lon="10.743872">
<ele>461.5</ele>
<speed>96.0</speed>
<course>157.0</course>
<desc>Speed 96.0 km/h Distance 12.04 km</desc>
<time>2010-07-31T14:05:04.85</time>
<name>579</name>
</trkpt>
<trkpt lat="49.131062" lon="10.744013">
<ele>461.5</ele>
<speed>94.6</speed>
<course>155.7</course>
<desc>Speed 94.6 km/h Distance 12.06 km</desc>
<time>2010-07-31T14:05:05.86</time>
<name>580</name>
</trkpt>
<trkpt lat="49.130847" lon="10.744162">
<ele>462.0</ele>
<speed>93.5</speed>
<course>153.4</course>
<desc>Speed 93.5 km/h Distance 12.09 km</desc>
<time>2010-07-31T14:05:06.86</time>
<name>581</name>
</trkpt>
<trkpt lat="49.130640" lon="10.744320">
<ele>463.0</ele>
<speed>92.2</speed>
<course>157.3</course>
<desc>Speed 92.2 km/h Distance 12.11 km</desc>
<time>2010-07-31T14:05:07.86</time>
<name>582</name>
</trkpt>
<trkpt lat="49.130437" lon="10.744450">
<ele>463.0</ele>
<speed>87.4</speed>
<course>153.0</course>
<desc>Speed 87.4 km/h Distance 12.14 km</desc>
<time>2010-07-31T14:05:08.86</time>
<name>583</name>
</trkpt>
<trkpt lat="49.130248" lon="10.744597">
<ele>463.0</ele>
<speed>84.1</speed>
<course>146.8</course>
<desc>Speed 84.1 km/h Distance 12.16 km</desc>
<time>2010-07-31T14:05:09.85</time>
<name>584</name>
</trkpt>
<trkpt lat="49.129933" lon="10.744912">
<ele>462.5</ele>
<speed>77.9</speed>
<course>143.7</course>
<desc>Speed 77.9 km/h Distance 12.20 km</desc>
<time>2010-07-31T14:05:11.86</time>
<name>585</name>
</trkpt>
<trkpt lat="49.129785" lon="10.745078">
<ele>462.5</ele>
<speed>73.5</speed>
<course>134.2</course>
<desc>Speed 73.5 km/h Distance 12.22 km</desc>
<time>2010-07-31T14:05:12.86</time>
<name>586</name>
</trkpt>
<trkpt lat="49.129648" lon="10.745293">
<ele>462.5</ele>
<speed>78.6</speed>
<course>137.7</course>
<desc>Speed 78.6 km/h Distance 12.25 km</desc>
<time>2010-07-31T14:05:13.86</time>
<name>587</name>
</trkpt>
<trkpt lat="49.129380" lon="10.745667">
<ele>463.0</ele>
<speed>68.7</speed>
<course>135.8</course>
<desc>Speed 68.7 km/h Distance 12.29 km</desc>
<time>2010-07-31T14:05:15.85</time>
<name>588</name>
</trkpt>
<trkpt lat="49.129253" lon="10.745855">
<ele>463.0</ele>
<speed>71.2</speed>
<course>135.3</course>
<desc>Speed 71.2 km/h Distance 12.31 km</desc>
<time>2010-07-31T14:05:16.85</time>
<name>589</name>
</trkpt>
<trkpt lat="49.129130" lon="10.746042">
<ele>463.0</ele>
<speed>70.4</speed>
<course>136.0</course>
<desc>Speed 70.4 km/h Distance 12.33 km</desc>
<time>2010-07-31T14:05:17.85</time>
<name>590</name>
</trkpt>
<trkpt lat="49.128842" lon="10.746467">
<ele>463.0</ele>
<speed>76.5</speed>
<course>138.0</course>
<desc>Speed 76.5 km/h Distance 12.37 km</desc>
<time>2010-07-31T14:05:19.85</time>
<name>591</name>
</trkpt>
<trkpt lat="49.128700" lon="10.746662">
<ele>464.5</ele>
<speed>75.9</speed>
<course>138.0</course>
<desc>Speed 75.9 km/h Distance 12.39 km</desc>
<time>2010-07-31T14:05:20.85</time>
<name>592</name>
</trkpt>
<trkpt lat="49.128368" lon="10.747118">
<ele>458.0</ele>
<speed>58.9</speed>
<course>134.2</course>
<desc>Speed 58.9 km/h Distance 12.44 km</desc>
<time>2010-07-31T14:05:23.85</time>
<name>593</name>
</trkpt>
<trkpt lat="49.128255" lon="10.747297">
<ele>458.0</ele>
<speed>64.9</speed>
<course>138.3</course>
<desc>Speed 64.9 km/h Distance 12.46 km</desc>
<time>2010-07-31T14:05:24.84</time>
<name>594</name>
</trkpt>
<trkpt lat="49.128038" lon="10.747592">
<ele>455.5</ele>
<speed>56.0</speed>
<course>137.4</course>
<desc>Speed 56.0 km/h Distance 12.49 km</desc>
<time>2010-07-31T14:05:26.85</time>
<name>595</name>
</trkpt>
<trkpt lat="49.127932" lon="10.747742">
<ele>456.0</ele>
<speed>55.5</speed>
<course>136.7</course>
<desc>Speed 55.5 km/h Distance 12.51 km</desc>
<time>2010-07-31T14:05:27.85</time>
<name>596</name>
</trkpt>
<trkpt lat="49.127837" lon="10.747878">
<ele>455.5</ele>
<speed>53.0</speed>
<course>134.2</course>
<desc>Speed 53.0 km/h Distance 12.52 km</desc>
<time>2010-07-31T14:05:28.85</time>
<name>597</name>
</trkpt>
<trkpt lat="49.127743" lon="10.748025">
<ele>456.0</ele>
<speed>56.1</speed>
<course>134.5</course>
<desc>Speed 56.1 km/h Distance 12.54 km</desc>
<time>2010-07-31T14:05:29.84</time>
<name>598</name>
</trkpt>
<trkpt lat="49.127650" lon="10.748170">
<ele>457.5</ele>
<speed>53.1</speed>
<course>136.2</course>
<desc>Speed 53.1 km/h Distance 12.55 km</desc>
<time>2010-07-31T14:05:30.84</time>
<name>599</name>
</trkpt>
<trkpt lat="49.127547" lon="10.748322">
<ele>457.5</ele>
<speed>54.1</speed>
<course>138.8</course>
<desc>Speed 54.1 km/h Distance 12.57 km</desc>
<time>2010-07-31T14:05:31.83</time>
<name>600</name>
</trkpt>
<trkpt lat="49.127443" lon="10.748460">
<ele>457.5</ele>
<speed>55.3</speed>
<course>134.9</course>
<desc>Speed 55.3 km/h Distance 12.58 km</desc>
<time>2010-07-31T14:05:32.85</time>
<name>601</name>
</trkpt>
<trkpt lat="49.127347" lon="10.748608">
<ele>458.5</ele>
<speed>54.6</speed>
<course>135.4</course>
<desc>Speed 54.6 km/h Distance 12.60 km</desc>
<time>2010-07-31T14:05:33.84</time>
<name>602</name>
</trkpt>
<trkpt lat="49.127248" lon="10.748757">
<ele>460.0</ele>
<speed>54.1</speed>
<course>134.1</course>
<desc>Speed 54.1 km/h Distance 12.61 km</desc>
<time>2010-07-31T14:05:34.84</time>
<name>603</name>
</trkpt>
<trkpt lat="49.127153" lon="10.748907">
<ele>460.0</ele>
<speed>53.5</speed>
<course>134.9</course>
<desc>Speed 53.5 km/h Distance 12.63 km</desc>
<time>2010-07-31T14:05:35.84</time>
<name>604</name>
</trkpt>
<trkpt lat="49.127060" lon="10.749050">
<ele>460.5</ele>
<speed>50.5</speed>
<course>135.0</course>
<desc>Speed 50.5 km/h Distance 12.64 km</desc>
<time>2010-07-31T14:05:36.85</time>
<name>605</name>
</trkpt>
<trkpt lat="49.126972" lon="10.749185">
<ele>460.5</ele>
<speed>47.2</speed>
<course>135.1</course>
<desc>Speed 47.2 km/h Distance 12.66 km</desc>
<time>2010-07-31T14:05:37.84</time>
<name>606</name>
</trkpt>
<trkpt lat="49.126892" lon="10.749307">
<ele>460.0</ele>
<speed>44.4</speed>
<course>137.0</course>
<desc>Speed 44.4 km/h Distance 12.67 km</desc>
<time>2010-07-31T14:05:38.84</time>
<name>607</name>
</trkpt>
<trkpt lat="49.126813" lon="10.749418">
<ele>458.0</ele>
<speed>43.6</speed>
<course>135.8</course>
<desc>Speed 43.6 km/h Distance 12.68 km</desc>
<time>2010-07-31T14:05:39.85</time>
<name>608</name>
</trkpt>
<trkpt lat="49.126742" lon="10.749525">
<ele>458.0</ele>
<speed>40.1</speed>
<course>135.5</course>
<desc>Speed 40.1 km/h Distance 12.69 km</desc>
<time>2010-07-31T14:05:40.84</time>
<name>609</name>
</trkpt>
<trkpt lat="49.126672" lon="10.749630">
<ele>458.0</ele>
<speed>40.1</speed>
<course>135.5</course>
<desc>Speed 40.1 km/h Distance 12.70 km</desc>
<time>2010-07-31T14:05:41.83</time>
<name>610</name>
</trkpt>
<trkpt lat="49.126602" lon="10.749735">
<ele>458.0</ele>
<speed>40.8</speed>
<course>133.6</course>
<desc>Speed 40.8 km/h Distance 12.71 km</desc>
<time>2010-07-31T14:05:42.84</time>
<name>611</name>
</trkpt>
<trkpt lat="49.126530" lon="10.749850">
<ele>458.5</ele>
<speed>42.3</speed>
<course>134.3</course>
<desc>Speed 42.3 km/h Distance 12.73 km</desc>
<time>2010-07-31T14:05:43.85</time>
<name>612</name>
</trkpt>
<trkpt lat="49.126457" lon="10.749965">
<ele>459.0</ele>
<speed>40.9</speed>
<course>138.0</course>
<desc>Speed 40.9 km/h Distance 12.74 km</desc>
<time>2010-07-31T14:05:44.84</time>
<name>613</name>
</trkpt>
<trkpt lat="49.126382" lon="10.750068">
<ele>459.0</ele>
<speed>41.1</speed>
<course>138.3</course>
<desc>Speed 41.1 km/h Distance 12.75 km</desc>
<time>2010-07-31T14:05:45.84</time>
<name>614</name>
</trkpt>
<trkpt lat="49.126308" lon="10.750168">
<ele>459.5</ele>
<speed>40.0</speed>
<course>146.8</course>
<desc>Speed 40.0 km/h Distance 12.76 km</desc>
<time>2010-07-31T14:05:46.84</time>
<name>615</name>
</trkpt>
<trkpt lat="49.126238" lon="10.750238">
<ele>459.5</ele>
<speed>35.5</speed>
<course>145.2</course>
<desc>Speed 35.5 km/h Distance 12.77 km</desc>
<time>2010-07-31T14:05:47.84</time>
<name>616</name>
</trkpt>
<trkpt lat="49.126047" lon="10.750442">
<ele>458.5</ele>
<speed>45.6</speed>
<course>183.4</course>
<desc>Speed 45.6 km/h Distance 12.80 km</desc>
<time>2010-07-31T14:05:49.84</time>
<name>617</name>
</trkpt>
<trkpt lat="49.125880" lon="10.750427">
<ele>458.5</ele>
<speed>44.1</speed>
<course>153.9</course>
<desc>Speed 44.1 km/h Distance 12.81 km</desc>
<time>2010-07-31T14:05:51.84</time>
<name>618</name>
</trkpt>
<trkpt lat="49.125773" lon="10.750507">
<ele>459.0</ele>
<speed>41.2</speed>
<course>164.8</course>
<desc>Speed 41.2 km/h Distance 12.83 km</desc>
<time>2010-07-31T14:05:52.82</time>
<name>619</name>
</trkpt>
<trkpt lat="49.125677" lon="10.750547">
<ele>459.5</ele>
<speed>40.7</speed>
<course>165.7</course>
<desc>Speed 40.7 km/h Distance 12.84 km</desc>
<time>2010-07-31T14:05:53.84</time>
<name>620</name>
</trkpt>
<trkpt lat="49.125570" lon="10.750588">
<ele>460.0</ele>
<speed>44.0</speed>
<course>171.9</course>
<desc>Speed 44.0 km/h Distance 12.85 km</desc>
<time>2010-07-31T14:05:54.84</time>
<name>621</name>
</trkpt>
<trkpt lat="49.125455" lon="10.750613">
<ele>460.0</ele>
<speed>44.8</speed>
<course>184.2</course>
<desc>Speed 44.8 km/h Distance 12.86 km</desc>
<time>2010-07-31T14:05:55.84</time>
<name>622</name>
</trkpt>
<trkpt lat="49.125335" lon="10.750600">
<ele>461.0</ele>
<speed>49.6</speed>
<course>192.1</course>
<desc>Speed 49.6 km/h Distance 12.88 km</desc>
<time>2010-07-31T14:05:56.83</time>
<name>623</name>
</trkpt>
<trkpt lat="49.125223" lon="10.750563">
<ele>461.0</ele>
<speed>46.2</speed>
<course>199.6</course>
<desc>Speed 46.2 km/h Distance 12.89 km</desc>
<time>2010-07-31T14:05:57.83</time>
<name>624</name>
</trkpt>
<trkpt lat="49.125110" lon="10.750502">
<ele>461.0</ele>
<speed>48.3</speed>
<course>201.6</course>
<desc>Speed 48.3 km/h Distance 12.90 km</desc>
<time>2010-07-31T14:05:58.82</time>
<name>625</name>
</trkpt>
<trkpt lat="49.124992" lon="10.750430">
<ele>461.5</ele>
<speed>50.8</speed>
<course>210.2</course>
<desc>Speed 50.8 km/h Distance 12.92 km</desc>
<time>2010-07-31T14:05:59.83</time>
<name>626</name>
</trkpt>
<trkpt lat="49.124870" lon="10.750322">
<ele>462.5</ele>
<speed>57.5</speed>
<course>220.8</course>
<desc>Speed 57.5 km/h Distance 12.93 km</desc>
<time>2010-07-31T14:06:00.82</time>
<name>627</name>
</trkpt>
<trkpt lat="49.124468" lon="10.749792">
<ele>463.5</ele>
<speed>75.1</speed>
<course>229.1</course>
<desc>Speed 75.1 km/h Distance 12.99 km</desc>
<time>2010-07-31T14:06:03.83</time>
<name>628</name>
</trkpt>
<trkpt lat="49.124347" lon="10.749577">
<ele>462.0</ele>
<speed>76.6</speed>
<course>237.3</course>
<desc>Speed 76.6 km/h Distance 13.01 km</desc>
<time>2010-07-31T14:06:04.82</time>
<name>629</name>
</trkpt>
<trkpt lat="49.124247" lon="10.749338">
<ele>462.5</ele>
<speed>74.6</speed>
<course>237.3</course>
<desc>Speed 74.6 km/h Distance 13.03 km</desc>
<time>2010-07-31T14:06:05.83</time>
<name>630</name>
</trkpt>
<trkpt lat="49.124150" lon="10.749108">
<ele>464.0</ele>
<speed>72.3</speed>
<course>225.3</course>
<desc>Speed 72.3 km/h Distance 13.05 km</desc>
<time>2010-07-31T14:06:06.83</time>
<name>631</name>
</trkpt>
<trkpt lat="49.124030" lon="10.748923">
<ele>464.0</ele>
<speed>68.8</speed>
<course>220.8</course>
<desc>Speed 68.8 km/h Distance 13.07 km</desc>
<time>2010-07-31T14:06:07.84</time>
<name>632</name>
</trkpt>
<trkpt lat="49.123788" lon="10.748605">
<ele>464.0</ele>
<speed>64.6</speed>
<course>197.2</course>
<desc>Speed 64.6 km/h Distance 13.11 km</desc>
<time>2010-07-31T14:06:09.82</time>
<name>633</name>
</trkpt>
<trkpt lat="49.123433" lon="10.748437">
<ele>463.5</ele>
<speed>5.1</speed>
<course>161.9</course>
<desc>Speed 5.1 km/h Distance 13.15 km</desc>
<time>2010-07-31T14:06:14.82</time>
<name>634</name>
</trkpt>
<trkpt lat="49.123380" lon="10.748463">
<ele>465.0</ele>
<speed>12.6</speed>
<course>187.1</course>
<desc>Speed 12.6 km/h Distance 13.16 km</desc>
<time>2010-07-31T14:06:16.82</time>
<name>635</name>
</trkpt>
<trkpt lat="49.123283" lon="10.748445">
<ele>464.0</ele>
<speed>17.6</speed>
<course>225.6</course>
<desc>Speed 17.6 km/h Distance 13.17 km</desc>
<time>2010-07-31T14:06:18.82</time>
<name>636</name>
</trkpt>
<trkpt lat="49.123197" lon="10.748310">
<ele>464.0</ele>
<speed>25.5</speed>
<course>259.1</course>
<desc>Speed 25.5 km/h Distance 13.18 km</desc>
<time>2010-07-31T14:06:20.82</time>
<name>637</name>
</trkpt>
<trkpt lat="49.123163" lon="10.748045">
<ele>460.0</ele>
<speed>36.4</speed>
<course>254.0</course>
<desc>Speed 36.4 km/h Distance 13.20 km</desc>
<time>2010-07-31T14:06:22.81</time>
<name>638</name>
</trkpt>
<trkpt lat="49.122947" lon="10.746892">
<ele>459.5</ele>
<speed>80.4</speed>
<course>260.5</course>
<desc>Speed 80.4 km/h Distance 13.29 km</desc>
<time>2010-07-31T14:06:27.82</time>
<name>639</name>
</trkpt>
<trkpt lat="49.122872" lon="10.746208">
<ele>461.0</ele>
<speed>91.8</speed>
<course>265.1</course>
<desc>Speed 91.8 km/h Distance 13.34 km</desc>
<time>2010-07-31T14:06:29.80</time>
<name>640</name>
</trkpt>
<trkpt lat="49.122852" lon="10.745850">
<ele>461.0</ele>
<speed>96.0</speed>
<course>264.4</course>
<desc>Speed 96.0 km/h Distance 13.36 km</desc>
<time>2010-07-31T14:06:30.81</time>
<name>641</name>
</trkpt>
<trkpt lat="49.122773" lon="10.744618">
<ele>462.0</ele>
<speed>110</speed>
<course>265.6</course>
<desc>Speed 110 km/h Distance 13.45 km</desc>
<time>2010-07-31T14:06:33.81</time>
<name>642</name>
</trkpt>
<trkpt lat="49.122710" lon="10.743373">
<ele>463.0</ele>
<speed>109</speed>
<course>262.8</course>
<desc>Speed 109 km/h Distance 13.54 km</desc>
<time>2010-07-31T14:06:37.80</time>
<name>643</name>
</trkpt>
<trkpt lat="49.122675" lon="10.742948">
<ele>463.0</ele>
<speed>114</speed>
<course>259.5</course>
<desc>Speed 114 km/h Distance 13.58 km</desc>
<time>2010-07-31T14:06:38.81</time>
<name>644</name>
</trkpt>
<trkpt lat="49.122623" lon="10.742522">
<ele>464.0</ele>
<speed>114</speed>
<course>257.4</course>
<desc>Speed 114 km/h Distance 13.61 km</desc>
<time>2010-07-31T14:06:39.80</time>
<name>645</name>
</trkpt>
<trkpt lat="49.122563" lon="10.742110">
<ele>464.5</ele>
<speed>113</speed>
<course>255.3</course>
<desc>Speed 113 km/h Distance 13.64 km</desc>
<time>2010-07-31T14:06:40.80</time>
<name>646</name>
</trkpt>
<trkpt lat="49.122493" lon="10.741702">
<ele>465.0</ele>
<speed>112</speed>
<course>253.3</course>
<desc>Speed 112 km/h Distance 13.67 km</desc>
<time>2010-07-31T14:06:41.80</time>
<name>647</name>
</trkpt>
<trkpt lat="49.122415" lon="10.741302">
<ele>465.0</ele>
<speed>111</speed>
<course>246.8</course>
<desc>Speed 111 km/h Distance 13.70 km</desc>
<time>2010-07-31T14:06:42.80</time>
<name>648</name>
</trkpt>
<trkpt lat="49.122307" lon="10.740915">
<ele>465.0</ele>
<speed>112</speed>
<course>246.8</course>
<desc>Speed 112 km/h Distance 13.73 km</desc>
<time>2010-07-31T14:06:43.80</time>
<name>649</name>
</trkpt>
<trkpt lat="49.122200" lon="10.740535">
<ele>465.0</ele>
<speed>111</speed>
<course>244.5</course>
<desc>Speed 111 km/h Distance 13.76 km</desc>
<time>2010-07-31T14:06:44.79</time>
<name>650</name>
</trkpt>
<trkpt lat="49.122083" lon="10.740162">
<ele>465.5</ele>
<speed>109</speed>
<course>243.1</course>
<desc>Speed 109 km/h Distance 13.79 km</desc>
<time>2010-07-31T14:06:45.79</time>
<name>651</name>
</trkpt>
<trkpt lat="49.121963" lon="10.739800">
<ele>465.5</ele>
<speed>108</speed>
<course>240.7</course>
<desc>Speed 108 km/h Distance 13.82 km</desc>
<time>2010-07-31T14:06:46.79</time>
<name>652</name>
</trkpt>
<trkpt lat="49.121833" lon="10.739447">
<ele>465.5</ele>
<speed>108</speed>
<course>237.8</course>
<desc>Speed 108 km/h Distance 13.85 km</desc>
<time>2010-07-31T14:06:47.79</time>
<name>653</name>
</trkpt>
<trkpt lat="49.121690" lon="10.739098">
<ele>466.0</ele>
<speed>109</speed>
<course>230.6</course>
<desc>Speed 109 km/h Distance 13.88 km</desc>
<time>2010-07-31T14:06:48.79</time>
<name>654</name>
</trkpt>
<trkpt lat="49.121522" lon="10.738785">
<ele>465.0</ele>
<speed>105</speed>
<course>232.3</course>
<desc>Speed 105 km/h Distance 13.91 km</desc>
<time>2010-07-31T14:06:49.79</time>
<name>655</name>
</trkpt>
<trkpt lat="49.121235" lon="10.738218">
<ele>465.0</ele>
<speed>91.9</speed>
<course>229.4</course>
<desc>Speed 91.9 km/h Distance 13.96 km</desc>
<time>2010-07-31T14:06:51.80</time>
<name>656</name>
</trkpt>
<trkpt lat="49.120978" lon="10.737760">
<ele>466.0</ele>
<speed>84.3</speed>
<course>225.4</course>
<desc>Speed 84.3 km/h Distance 14.01 km</desc>
<time>2010-07-31T14:06:53.80</time>
<name>657</name>
</trkpt>
<trkpt lat="49.120555" lon="10.737103">
<ele>464.0</ele>
<speed>22.0</speed>
<course>174.9</course>
<desc>Speed 22.0 km/h Distance 14.07 km</desc>
<time>2010-07-31T14:06:59.78</time>
<name>658</name>
</trkpt>
<trkpt lat="49.120433" lon="10.737120">
<ele>463.5</ele>
<speed>22.0</speed>
<course>136.1</course>
<desc>Speed 22.0 km/h Distance 14.09 km</desc>
<time>2010-07-31T14:07:01.79</time>
<name>659</name>
</trkpt>
<trkpt lat="49.119443" lon="10.738577">
<ele>461.5</ele>
<speed>117</speed>
<course>136.5</course>
<desc>Speed 117 km/h Distance 14.24 km</desc>
<time>2010-07-31T14:07:07.79</time>
<name>660</name>
</trkpt>
<trkpt lat="49.119027" lon="10.739182">
<ele>460.0</ele>
<speed>116</speed>
<course>136.4</course>
<desc>Speed 116 km/h Distance 14.30 km</desc>
<time>2010-07-31T14:07:09.78</time>
<name>661</name>
</trkpt>
<trkpt lat="49.118810" lon="10.739497">
<ele>459.5</ele>
<speed>118</speed>
<course>136.5</course>
<desc>Speed 118 km/h Distance 14.34 km</desc>
<time>2010-07-31T14:07:10.78</time>
<name>662</name>
</trkpt>
<trkpt lat="49.118585" lon="10.739823">
<ele>459.5</ele>
<speed>122</speed>
<course>136.6</course>
<desc>Speed 122 km/h Distance 14.37 km</desc>
<time>2010-07-31T14:07:11.78</time>
<name>663</name>
</trkpt>
<trkpt lat="49.118357" lon="10.740153">
<ele>460.0</ele>
<speed>125</speed>
<course>136.4</course>
<desc>Speed 125 km/h Distance 14.41 km</desc>
<time>2010-07-31T14:07:12.77</time>
<name>664</name>
</trkpt>
<trkpt lat="49.118128" lon="10.740485">
<ele>460.0</ele>
<speed>125</speed>
<course>136.8</course>
<desc>Speed 125 km/h Distance 14.44 km</desc>
<time>2010-07-31T14:07:13.77</time>
<name>665</name>
</trkpt>
<trkpt lat="49.117902" lon="10.740810">
<ele>460.0</ele>
<speed>124</speed>
<course>137.0</course>
<desc>Speed 124 km/h Distance 14.48 km</desc>
<time>2010-07-31T14:07:14.78</time>
<name>666</name>
</trkpt>
<trkpt lat="49.117678" lon="10.741128">
<ele>459.5</ele>
<speed>122</speed>
<course>136.6</course>
<desc>Speed 122 km/h Distance 14.51 km</desc>
<time>2010-07-31T14:07:15.78</time>
<name>667</name>
</trkpt>
<trkpt lat="49.117457" lon="10.741448">
<ele>459.5</ele>
<speed>121</speed>
<course>137.3</course>
<desc>Speed 121 km/h Distance 14.54 km</desc>
<time>2010-07-31T14:07:16.77</time>
<name>668</name>
</trkpt>
<trkpt lat="49.117238" lon="10.741757">
<ele>459.0</ele>
<speed>118</speed>
<course>137.2</course>
<desc>Speed 118 km/h Distance 14.58 km</desc>
<time>2010-07-31T14:07:17.77</time>
<name>669</name>
</trkpt>
<trkpt lat="49.117025" lon="10.742058">
<ele>459.0</ele>
<speed>116</speed>
<course>136.1</course>
<desc>Speed 116 km/h Distance 14.61 km</desc>
<time>2010-07-31T14:07:18.77</time>
<name>670</name>
</trkpt>
<trkpt lat="49.116817" lon="10.742365">
<ele>459.5</ele>
<speed>116</speed>
<course>136.9</course>
<desc>Speed 116 km/h Distance 14.64 km</desc>
<time>2010-07-31T14:07:19.77</time>
<name>671</name>
</trkpt>
<trkpt lat="49.116618" lon="10.742648">
<ele>459.5</ele>
<speed>110</speed>
<course>133.9</course>
<desc>Speed 110 km/h Distance 14.67 km</desc>
<time>2010-07-31T14:07:20.77</time>
<name>672</name>
</trkpt>
<trkpt lat="49.116433" lon="10.742942">
<ele>461.0</ele>
<speed>108</speed>
<course>137.5</course>
<desc>Speed 108 km/h Distance 14.70 km</desc>
<time>2010-07-31T14:07:21.77</time>
<name>673</name>
</trkpt>
<trkpt lat="49.116080" lon="10.743437">
<ele>460.0</ele>
<speed>95.5</speed>
<course>137.2</course>
<desc>Speed 95.5 km/h Distance 14.75 km</desc>
<time>2010-07-31T14:07:23.78</time>
<name>674</name>
</trkpt>
<trkpt lat="49.115912" lon="10.743675">
<ele>460.0</ele>
<speed>91.2</speed>
<course>136.3</course>
<desc>Speed 91.2 km/h Distance 14.78 km</desc>
<time>2010-07-31T14:07:24.77</time>
<name>675</name>
</trkpt>
<trkpt lat="49.115757" lon="10.743902">
<ele>460.0</ele>
<speed>86.0</speed>
<course>135.5</course>
<desc>Speed 86.0 km/h Distance 14.80 km</desc>
<time>2010-07-31T14:07:25.76</time>
<name>676</name>
</trkpt>
<trkpt lat="49.115607" lon="10.744127">
<ele>460.0</ele>
<speed>83.0</speed>
<course>136.3</course>
<desc>Speed 83.0 km/h Distance 14.83 km</desc>
<time>2010-07-31T14:07:26.77</time>
<name>677</name>
</trkpt>
<trkpt lat="49.115465" lon="10.744333">
<ele>460.0</ele>
<speed>78.8</speed>
<course>136.4</course>
<desc>Speed 78.8 km/h Distance 14.85 km</desc>
<time>2010-07-31T14:07:27.77</time>
<name>678</name>
</trkpt>
<trkpt lat="49.115325" lon="10.744537">
<ele>460.0</ele>
<speed>77.1</speed>
<course>136.1</course>
<desc>Speed 77.1 km/h Distance 14.87 km</desc>
<time>2010-07-31T14:07:28.76</time>
<name>679</name>
</trkpt>
<trkpt lat="49.115187" lon="10.744740">
<ele>460.0</ele>
<speed>76.9</speed>
<course>137.5</course>
<desc>Speed 76.9 km/h Distance 14.89 km</desc>
<time>2010-07-31T14:07:29.76</time>
<name>680</name>
</trkpt>
<trkpt lat="49.115048" lon="10.744933">
<ele>460.0</ele>
<speed>75.2</speed>
<course>141.5</course>
<desc>Speed 75.2 km/h Distance 14.91 km</desc>
<time>2010-07-31T14:07:30.77</time>
<name>681</name>
</trkpt>
<trkpt lat="49.114605" lon="10.745472">
<ele>461.0</ele>
<speed>76.8</speed>
<course>155.7</course>
<desc>Speed 76.8 km/h Distance 14.98 km</desc>
<time>2010-07-31T14:07:34.76</time>
<name>682</name>
</trkpt>
<trkpt lat="49.114287" lon="10.745692">
<ele>461.0</ele>
<speed>65.2</speed>
<course>154.9</course>
<desc>Speed 65.2 km/h Distance 15.01 km</desc>
<time>2010-07-31T14:07:36.76</time>
<name>683</name>
</trkpt>
<trkpt lat="49.114135" lon="10.745800">
<ele>461.0</ele>
<speed>62.4</speed>
<course>155.4</course>
<desc>Speed 62.4 km/h Distance 15.03 km</desc>
<time>2010-07-31T14:07:37.76</time>
<name>684</name>
</trkpt>
<trkpt lat="49.113880" lon="10.745978">
<ele>462.0</ele>
<speed>54.9</speed>
<course>155.0</course>
<desc>Speed 54.9 km/h Distance 15.06 km</desc>
<time>2010-07-31T14:07:39.76</time>
<name>685</name>
</trkpt>
<trkpt lat="49.113758" lon="10.746065">
<ele>462.5</ele>
<speed>50.5</speed>
<course>160.9</course>
<desc>Speed 50.5 km/h Distance 15.08 km</desc>
<time>2010-07-31T14:07:40.77</time>
<name>686</name>
</trkpt>
<trkpt lat="49.113645" lon="10.746125">
<ele>462.5</ele>
<speed>47.6</speed>
<course>160.3</course>
<desc>Speed 47.6 km/h Distance 15.09 km</desc>
<time>2010-07-31T14:07:41.76</time>
<name>687</name>
</trkpt>
<trkpt lat="49.113542" lon="10.746182">
<ele>462.5</ele>
<speed>44.1</speed>
<course>162.6</course>
<desc>Speed 44.1 km/h Distance 15.10 km</desc>
<time>2010-07-31T14:07:42.75</time>
<name>688</name>
</trkpt>
<trkpt lat="49.113295" lon="10.746300">
<ele>460.0</ele>
<speed>9.5</speed>
<course>169.9</course>
<desc>Speed 9.5 km/h Distance 15.13 km</desc>
<time>2010-07-31T14:07:47.75</time>
<name>689</name>
</trkpt>
<trkpt lat="49.113215" lon="10.746322">
<ele>460.0</ele>
<speed>15.9</speed>
<course>191.2</course>
<desc>Speed 15.9 km/h Distance 15.14 km</desc>
<time>2010-07-31T14:07:49.76</time>
<name>690</name>
</trkpt>
<trkpt lat="49.113160" lon="10.746305">
<ele>460.0</ele>
<speed>21.9</speed>
<course>216.1</course>
<desc>Speed 21.9 km/h Distance 15.15 km</desc>
<time>2010-07-31T14:07:50.75</time>
<name>691</name>
</trkpt>
<trkpt lat="49.113102" lon="10.746240">
<ele>461.0</ele>
<speed>29.0</speed>
<course>228.4</course>
<desc>Speed 29.0 km/h Distance 15.16 km</desc>
<time>2010-07-31T14:07:51.75</time>
<name>692</name>
</trkpt>
<trkpt lat="49.113048" lon="10.746148">
<ele>461.0</ele>
<speed>32.1</speed>
<course>233.1</course>
<desc>Speed 32.1 km/h Distance 15.17 km</desc>
<time>2010-07-31T14:07:52.74</time>
<name>693</name>
</trkpt>
<trkpt lat="49.112915" lon="10.745877">
<ele>461.0</ele>
<speed>43.5</speed>
<course>241.2</course>
<desc>Speed 43.5 km/h Distance 15.19 km</desc>
<time>2010-07-31T14:07:54.75</time>
<name>694</name>
</trkpt>
<trkpt lat="49.112862" lon="10.745728">
<ele>461.0</ele>
<speed>44.4</speed>
<course>242.8</course>
<desc>Speed 44.4 km/h Distance 15.20 km</desc>
<time>2010-07-31T14:07:55.75</time>
<name>695</name>
</trkpt>
<trkpt lat="49.112807" lon="10.745565">
<ele>461.0</ele>
<speed>47.4</speed>
<course>243.9</course>
<desc>Speed 47.4 km/h Distance 15.22 km</desc>
<time>2010-07-31T14:07:56.75</time>
<name>696</name>
</trkpt>
<trkpt lat="49.112752" lon="10.745393">
<ele>460.5</ele>
<speed>50.3</speed>
<course>244.8</course>
<desc>Speed 50.3 km/h Distance 15.23 km</desc>
<time>2010-07-31T14:07:57.75</time>
<name>697</name>
</trkpt>
<trkpt lat="49.112697" lon="10.745215">
<ele>461.0</ele>
<speed>51.6</speed>
<course>242.4</course>
<desc>Speed 51.6 km/h Distance 15.24 km</desc>
<time>2010-07-31T14:07:58.74</time>
<name>698</name>
</trkpt>
<trkpt lat="49.112633" lon="10.745030">
<ele>461.0</ele>
<speed>54.8</speed>
<course>243.4</course>
<desc>Speed 54.8 km/h Distance 15.26 km</desc>
<time>2010-07-31T14:07:59.74</time>
<name>699</name>
</trkpt>
<trkpt lat="49.112570" lon="10.744837">
<ele>461.0</ele>
<speed>56.8</speed>
<course>242.2</course>
<desc>Speed 56.8 km/h Distance 15.28 km</desc>
<time>2010-07-31T14:08:00.74</time>
<name>700</name>
</trkpt>
<trkpt lat="49.112503" lon="10.744643">
<ele>461.5</ele>
<speed>57.7</speed>
<course>241.5</course>
<desc>Speed 57.7 km/h Distance 15.29 km</desc>
<time>2010-07-31T14:08:01.75</time>
<name>701</name>
</trkpt>
<trkpt lat="49.112432" lon="10.744442">
<ele>461.5</ele>
<speed>60.9</speed>
<course>240.7</course>
<desc>Speed 60.9 km/h Distance 15.31 km</desc>
<time>2010-07-31T14:08:02.75</time>
<name>702</name>
</trkpt>
<trkpt lat="49.112355" lon="10.744233">
<ele>462.0</ele>
<speed>62.7</speed>
<course>239.9</course>
<desc>Speed 62.7 km/h Distance 15.33 km</desc>
<time>2010-07-31T14:08:03.75</time>
<name>703</name>
</trkpt>
<trkpt lat="49.112282" lon="10.744040">
<ele>462.5</ele>
<speed>58.9</speed>
<course>238.8</course>
<desc>Speed 58.9 km/h Distance 15.34 km</desc>
<time>2010-07-31T14:08:04.74</time>
<name>704</name>
</trkpt>
<trkpt lat="49.112212" lon="10.743863">
<ele>462.5</ele>
<speed>54.6</speed>
<course>235.5</course>
<desc>Speed 54.6 km/h Distance 15.36 km</desc>
<time>2010-07-31T14:08:05.75</time>
<name>705</name>
</trkpt>
<trkpt lat="49.112137" lon="10.743697">
<ele>463.5</ele>
<speed>53.5</speed>
<course>238.2</course>
<desc>Speed 53.5 km/h Distance 15.37 km</desc>
<time>2010-07-31T14:08:06.74</time>
<name>706</name>
</trkpt>
<trkpt lat="49.112075" lon="10.743545">
<ele>463.5</ele>
<speed>47.5</speed>
<course>239.0</course>
<desc>Speed 47.5 km/h Distance 15.38 km</desc>
<time>2010-07-31T14:08:07.74</time>
<name>707</name>
</trkpt>
<trkpt lat="49.112020" lon="10.743405">
<ele>464.0</ele>
<speed>43.1</speed>
<course>239.5</course>
<desc>Speed 43.1 km/h Distance 15.40 km</desc>
<time>2010-07-31T14:08:08.74</time>
<name>708</name>
</trkpt>
<trkpt lat="49.111938" lon="10.743193">
<ele>463.5</ele>
<speed>31.1</speed>
<course>239.9</course>
<desc>Speed 31.1 km/h Distance 15.41 km</desc>
<time>2010-07-31T14:08:10.74</time>
<name>709</name>
</trkpt>
<trkpt lat="49.111907" lon="10.743110">
<ele>464.0</ele>
<speed>25.6</speed>
<course>243.0</course>
<desc>Speed 25.6 km/h Distance 15.42 km</desc>
<time>2010-07-31T14:08:11.73</time>
<name>710</name>
</trkpt>
<trkpt lat="49.111880" lon="10.743030">
<ele>464.0</ele>
<speed>24.0</speed>
<course>242.0</course>
<desc>Speed 24.0 km/h Distance 15.43 km</desc>
<time>2010-07-31T14:08:12.74</time>
<name>711</name>
</trkpt>
<trkpt lat="49.111853" lon="10.742953">
<ele>464.0</ele>
<speed>22.6</speed>
<course>243.5</course>
<desc>Speed 22.6 km/h Distance 15.43 km</desc>
<time>2010-07-31T14:08:13.73</time>
<name>712</name>
</trkpt>
<trkpt lat="49.111828" lon="10.742877">
<ele>464.0</ele>
<speed>23.8</speed>
<course>238.1</course>
<desc>Speed 23.8 km/h Distance 15.44 km</desc>
<time>2010-07-31T14:08:14.73</time>
<name>713</name>
</trkpt>
<trkpt lat="49.111795" lon="10.742795">
<ele>464.0</ele>
<speed>26.6</speed>
<course>198.9</course>
<desc>Speed 26.6 km/h Distance 15.45 km</desc>
<time>2010-07-31T14:08:15.73</time>
<name>714</name>
</trkpt>
<trkpt lat="49.111690" lon="10.742740">
<ele>463.0</ele>
<speed>33.1</speed>
<course>183.7</course>
<desc>Speed 33.1 km/h Distance 15.46 km</desc>
<time>2010-07-31T14:08:17.74</time>
<name>715</name>
</trkpt>
<trkpt lat="49.111623" lon="10.742733">
<ele>462.5</ele>
<speed>27.9</speed>
<course>154.9</course>
<desc>Speed 27.9 km/h Distance 15.47 km</desc>
<time>2010-07-31T14:08:18.73</time>
<name>716</name>
</trkpt>
<trkpt lat="49.111553" lon="10.742783">
<ele>461.0</ele>
<speed>31.6</speed>
<course>155.4</course>
<desc>Speed 31.6 km/h Distance 15.48 km</desc>
<time>2010-07-31T14:08:19.73</time>
<name>717</name>
</trkpt>
<trkpt lat="49.111470" lon="10.742842">
<ele>461.0</ele>
<speed>37.4</speed>
<course>157.2</course>
<desc>Speed 37.4 km/h Distance 15.49 km</desc>
<time>2010-07-31T14:08:20.73</time>
<name>718</name>
</trkpt>
<trkpt lat="49.110690" lon="10.743342">
<ele>460.5</ele>
<speed>75.1</speed>
<course>168.5</course>
<desc>Speed 75.1 km/h Distance 15.58 km</desc>
<time>2010-07-31T14:08:25.74</time>
<name>719</name>
</trkpt>
<trkpt lat="49.110278" lon="10.743470">
<ele>462.0</ele>
<speed>89.1</speed>
<course>173.7</course>
<desc>Speed 89.1 km/h Distance 15.63 km</desc>
<time>2010-07-31T14:08:27.74</time>
<name>720</name>
</trkpt>
<trkpt lat="49.110050" lon="10.743508">
<ele>462.5</ele>
<speed>91.5</speed>
<course>177.9</course>
<desc>Speed 91.5 km/h Distance 15.65 km</desc>
<time>2010-07-31T14:08:28.73</time>
<name>721</name>
</trkpt>
<trkpt lat="49.109543" lon="10.743537">
<ele>462.5</ele>
<speed>101</speed>
<course>182.8</course>
<desc>Speed 101 km/h Distance 15.71 km</desc>
<time>2010-07-31T14:08:30.73</time>
<name>722</name>
</trkpt>
<trkpt lat="49.109302" lon="10.743518">
<ele>462.0</ele>
<speed>96.9</speed>
<course>182.9</course>
<desc>Speed 96.9 km/h Distance 15.74 km</desc>
<time>2010-07-31T14:08:31.73</time>
<name>723</name>
</trkpt>
<trkpt lat="49.109067" lon="10.743500">
<ele>462.0</ele>
<speed>93.8</speed>
<course>184.6</course>
<desc>Speed 93.8 km/h Distance 15.76 km</desc>
<time>2010-07-31T14:08:32.74</time>
<name>724</name>
</trkpt>
<trkpt lat="49.108445" lon="10.743423">
<ele>462.5</ele>
<speed>87.2</speed>
<course>181.4</course>
<desc>Speed 87.2 km/h Distance 15.83 km</desc>
<time>2010-07-31T14:08:35.74</time>
<name>725</name>
</trkpt>
<trkpt lat="49.107963" lon="10.743405">
<ele>461.5</ele>
<speed>99.8</speed>
<course>180.5</course>
<desc>Speed 99.8 km/h Distance 15.89 km</desc>
<time>2010-07-31T14:08:37.72</time>
<name>726</name>
</trkpt>
<trkpt lat="49.107717" lon="10.743402">
<ele>461.5</ele>
<speed>99.2</speed>
<course>182.5</course>
<desc>Speed 99.2 km/h Distance 15.91 km</desc>
<time>2010-07-31T14:08:38.72</time>
<name>727</name>
</trkpt>
<trkpt lat="49.107463" lon="10.743385">
<ele>461.0</ele>
<speed>102</speed>
<course>179.6</course>
<desc>Speed 102 km/h Distance 15.94 km</desc>
<time>2010-07-31T14:08:39.72</time>
<name>728</name>
</trkpt>
<trkpt lat="49.107192" lon="10.743388">
<ele>461.5</ele>
<speed>108</speed>
<course>180.5</course>
<desc>Speed 108 km/h Distance 15.97 km</desc>
<time>2010-07-31T14:08:40.73</time>
<name>729</name>
</trkpt>
<trkpt lat="49.106603" lon="10.743380">
<ele>462.0</ele>
<speed>116</speed>
<course>182.9</course>
<desc>Speed 116 km/h Distance 16.04 km</desc>
<time>2010-07-31T14:08:42.73</time>
<name>730</name>
</trkpt>
<trkpt lat="49.106305" lon="10.743357">
<ele>462.0</ele>
<speed>119</speed>
<course>177.8</course>
<desc>Speed 119 km/h Distance 16.07 km</desc>
<time>2010-07-31T14:08:43.72</time>
<name>731</name>
</trkpt>
<trkpt lat="49.105658" lon="10.743395">
<ele>461.5</ele>
<speed>130</speed>
<course>171.8</course>
<desc>Speed 130 km/h Distance 16.14 km</desc>
<time>2010-07-31T14:08:45.73</time>
<name>732</name>
</trkpt>
<trkpt lat="49.105323" lon="10.743468">
<ele>462.0</ele>
<speed>135</speed>
<course>168.2</course>
<desc>Speed 135 km/h Distance 16.18 km</desc>
<time>2010-07-31T14:08:46.72</time>
<name>733</name>
</trkpt>
<trkpt lat="49.104983" lon="10.743577">
<ele>463.5</ele>
<speed>140</speed>
<course>163.7</course>
<desc>Speed 140 km/h Distance 16.22 km</desc>
<time>2010-07-31T14:08:47.72</time>
<name>734</name>
</trkpt>
<trkpt lat="49.104640" lon="10.743730">
<ele>465.0</ele>
<speed>143</speed>
<course>160.9</course>
<desc>Speed 143 km/h Distance 16.26 km</desc>
<time>2010-07-31T14:08:48.73</time>
<name>735</name>
</trkpt>
<trkpt lat="49.103742" lon="10.744205">
<ele>464.5</ele>
<speed>122</speed>
<course>154.1</course>
<desc>Speed 122 km/h Distance 16.36 km</desc>
<time>2010-07-31T14:08:51.73</time>
<name>736</name>
</trkpt>
<trkpt lat="49.103485" lon="10.744395">
<ele>464.5</ele>
<speed>115</speed>
<course>152.3</course>
<desc>Speed 115 km/h Distance 16.40 km</desc>
<time>2010-07-31T14:08:52.72</time>
<name>737</name>
</trkpt>
<trkpt lat="49.103242" lon="10.744590">
<ele>465.5</ele>
<speed>110</speed>
<course>151.0</course>
<desc>Speed 110 km/h Distance 16.43 km</desc>
<time>2010-07-31T14:08:53.71</time>
<name>738</name>
</trkpt>
<trkpt lat="49.102993" lon="10.744800">
<ele>465.5</ele>
<speed>114</speed>
<course>147.9</course>
<desc>Speed 114 km/h Distance 16.46 km</desc>
<time>2010-07-31T14:08:54.72</time>
<name>739</name>
</trkpt>
<trkpt lat="49.102750" lon="10.745033">
<ele>465.5</ele>
<speed>114</speed>
<course>141.5</course>
<desc>Speed 114 km/h Distance 16.49 km</desc>
<time>2010-07-31T14:08:55.72</time>
<name>740</name>
</trkpt>
<trkpt lat="49.102523" lon="10.745308">
<ele>465.5</ele>
<speed>116</speed>
<course>141.8</course>
<desc>Speed 116 km/h Distance 16.52 km</desc>
<time>2010-07-31T14:08:56.72</time>
<name>741</name>
</trkpt>
<trkpt lat="49.102298" lon="10.745578">
<ele>464.5</ele>
<speed>113</speed>
<course>136.6</course>
<desc>Speed 113 km/h Distance 16.55 km</desc>
<time>2010-07-31T14:08:57.72</time>
<name>742</name>
</trkpt>
<trkpt lat="49.102092" lon="10.745877">
<ele>463.0</ele>
<speed>113</speed>
<course>132.1</course>
<desc>Speed 113 km/h Distance 16.59 km</desc>
<time>2010-07-31T14:08:58.71</time>
<name>743</name>
</trkpt>
<trkpt lat="49.101892" lon="10.746215">
<ele>461.5</ele>
<speed>120</speed>
<course>127.8</course>
<desc>Speed 120 km/h Distance 16.62 km</desc>
<time>2010-07-31T14:08:59.71</time>
<name>744</name>
</trkpt>
<trkpt lat="49.101538" lon="10.746912">
<ele>462.0</ele>
<speed>120</speed>
<course>125.0</course>
<desc>Speed 120 km/h Distance 16.68 km</desc>
<time>2010-07-31T14:09:01.72</time>
<name>745</name>
</trkpt>
<trkpt lat="49.101363" lon="10.747293">
<ele>461.0</ele>
<speed>119</speed>
<course>118.8</course>
<desc>Speed 119 km/h Distance 16.72 km</desc>
<time>2010-07-31T14:09:02.72</time>
<name>746</name>
</trkpt>
<trkpt lat="49.101215" lon="10.747705">
<ele>461.0</ele>
<speed>121</speed>
<course>116.3</course>
<desc>Speed 121 km/h Distance 16.75 km</desc>
<time>2010-07-31T14:09:03.71</time>
<name>747</name>
</trkpt>
<trkpt lat="49.101080" lon="10.748122">
<ele>460.0</ele>
<speed>120</speed>
<course>112.9</course>
<desc>Speed 120 km/h Distance 16.79 km</desc>
<time>2010-07-31T14:09:04.72</time>
<name>748</name>
</trkpt>
<trkpt lat="49.100960" lon="10.748555">
<ele>460.0</ele>
<speed>124</speed>
<course>111.5</course>
<desc>Speed 124 km/h Distance 16.82 km</desc>
<time>2010-07-31T14:09:05.71</time>
<name>749</name>
</trkpt>
<trkpt lat="49.100847" lon="10.748993">
<ele>460.0</ele>
<speed>124</speed>
<course>105.4</course>
<desc>Speed 124 km/h Distance 16.85 km</desc>
<time>2010-07-31T14:09:06.70</time>
<name>750</name>
</trkpt>
<trkpt lat="49.100767" lon="10.749437">
<ele>460.0</ele>
<speed>121</speed>
<course>100.5</course>
<desc>Speed 121 km/h Distance 16.89 km</desc>
<time>2010-07-31T14:09:07.70</time>
<name>751</name>
</trkpt>
<trkpt lat="49.100712" lon="10.749888">
<ele>459.5</ele>
<speed>120</speed>
<course>100.3</course>
<desc>Speed 120 km/h Distance 16.92 km</desc>
<time>2010-07-31T14:09:08.70</time>
<name>752</name>
</trkpt>
<trkpt lat="49.100658" lon="10.750335">
<ele>459.5</ele>
<speed>120</speed>
<course>97.6</course>
<desc>Speed 120 km/h Distance 16.95 km</desc>
<time>2010-07-31T14:09:09.70</time>
<name>753</name>
</trkpt>
<trkpt lat="49.100525" lon="10.751857">
<ele>461.0</ele>
<speed>119</speed>
<course>82.2</course>
<desc>Speed 119 km/h Distance 17.07 km</desc>
<time>2010-07-31T14:09:13.71</time>
<name>754</name>
</trkpt>
<trkpt lat="49.100565" lon="10.752303">
<ele>460.5</ele>
<speed>117</speed>
<course>81.1</course>
<desc>Speed 117 km/h Distance 17.10 km</desc>
<time>2010-07-31T14:09:14.70</time>
<name>755</name>
</trkpt>
<trkpt lat="49.100613" lon="10.752773">
<ele>460.5</ele>
<speed>123</speed>
<course>78.4</course>
<desc>Speed 123 km/h Distance 17.13 km</desc>
<time>2010-07-31T14:09:15.71</time>
<name>756</name>
</trkpt>
<trkpt lat="49.100677" lon="10.753243">
<ele>460.5</ele>
<speed>123</speed>
<course>81.0</course>
<desc>Speed 123 km/h Distance 17.17 km</desc>
<time>2010-07-31T14:09:16.71</time>
<name>757</name>
</trkpt>
<trkpt lat="49.100725" lon="10.753712">
<ele>458.5</ele>
<speed>123</speed>
<course>79.2</course>
<desc>Speed 123 km/h Distance 17.20 km</desc>
<time>2010-07-31T14:09:17.70</time>
<name>758</name>
</trkpt>
<trkpt lat="49.100783" lon="10.754177">
<ele>457.0</ele>
<speed>122</speed>
<course>78.5</course>
<desc>Speed 122 km/h Distance 17.24 km</desc>
<time>2010-07-31T14:09:18.70</time>
<name>759</name>
</trkpt>
<trkpt lat="49.100843" lon="10.754627">
<ele>457.0</ele>
<speed>120</speed>
<course>78.5</course>
<desc>Speed 120 km/h Distance 17.27 km</desc>
<time>2010-07-31T14:09:19.70</time>
<name>760</name>
</trkpt>
<trkpt lat="49.100902" lon="10.755065">
<ele>457.5</ele>
<speed>117</speed>
<course>81.8</course>
<desc>Speed 117 km/h Distance 17.30 km</desc>
<time>2010-07-31T14:09:20.70</time>
<name>761</name>
</trkpt>
<trkpt lat="49.100943" lon="10.755507">
<ele>457.5</ele>
<speed>113</speed>
<course>79.2</course>
<desc>Speed 113 km/h Distance 17.34 km</desc>
<time>2010-07-31T14:09:21.70</time>
<name>762</name>
</trkpt>
<trkpt lat="49.100995" lon="10.755920">
<ele>457.5</ele>
<speed>110</speed>
<course>80.0</course>
<desc>Speed 110 km/h Distance 17.37 km</desc>
<time>2010-07-31T14:09:22.70</time>
<name>763</name>
</trkpt>
<trkpt lat="49.101042" lon="10.756323">
<ele>457.0</ele>
<speed>107</speed>
<course>79.9</course>
<desc>Speed 107 km/h Distance 17.40 km</desc>
<time>2010-07-31T14:09:23.69</time>
<name>764</name>
</trkpt>
<trkpt lat="49.101088" lon="10.756725">
<ele>455.5</ele>
<speed>105</speed>
<course>76.8</course>
<desc>Speed 105 km/h Distance 17.43 km</desc>
<time>2010-07-31T14:09:24.70</time>
<name>765</name>
</trkpt>
<trkpt lat="49.101147" lon="10.757105">
<ele>455.0</ele>
<speed>100</speed>
<course>78.5</course>
<desc>Speed 100 km/h Distance 17.45 km</desc>
<time>2010-07-31T14:09:25.70</time>
<name>766</name>
</trkpt>
<trkpt lat="49.101198" lon="10.757492">
<ele>454.5</ele>
<speed>101</speed>
<course>79.0</course>
<desc>Speed 101 km/h Distance 17.48 km</desc>
<time>2010-07-31T14:09:26.70</time>
<name>767</name>
</trkpt>
<trkpt lat="49.101247" lon="10.757870">
<ele>454.0</ele>
<speed>98.0</speed>
<course>79.7</course>
<desc>Speed 98.0 km/h Distance 17.51 km</desc>
<time>2010-07-31T14:09:27.70</time>
<name>768</name>
</trkpt>
<trkpt lat="49.101292" lon="10.758247">
<ele>453.5</ele>
<speed>96.6</speed>
<course>78.9</course>
<desc>Speed 96.6 km/h Distance 17.54 km</desc>
<time>2010-07-31T14:09:28.70</time>
<name>769</name>
</trkpt>
<trkpt lat="49.101338" lon="10.758610">
<ele>453.0</ele>
<speed>96.8</speed>
<course>79.7</course>
<desc>Speed 96.8 km/h Distance 17.57 km</desc>
<time>2010-07-31T14:09:29.70</time>
<name>770</name>
</trkpt>
<trkpt lat="49.101433" lon="10.759405">
<ele>454.0</ele>
<speed>104</speed>
<course>80.2</course>
<desc>Speed 104 km/h Distance 17.63 km</desc>
<time>2010-07-31T14:09:31.68</time>
<name>771</name>
</trkpt>
<trkpt lat="49.101480" lon="10.759817">
<ele>453.0</ele>
<speed>108</speed>
<course>81.6</course>
<desc>Speed 108 km/h Distance 17.66 km</desc>
<time>2010-07-31T14:09:32.69</time>
<name>772</name>
</trkpt>
<trkpt lat="49.101520" lon="10.760232">
<ele>452.0</ele>
<speed>110</speed>
<course>91.7</course>
<desc>Speed 110 km/h Distance 17.69 km</desc>
<time>2010-07-31T14:09:33.69</time>
<name>773</name>
</trkpt>
<trkpt lat="49.101480" lon="10.762265">
<ele>453.5</ele>
<speed>132</speed>
<course>94.9</course>
<desc>Speed 132 km/h Distance 17.83 km</desc>
<time>2010-07-31T14:09:37.68</time>
<name>774</name>
</trkpt>
<trkpt lat="49.101452" lon="10.762768">
<ele>454.0</ele>
<speed>132</speed>
<course>97.4</course>
<desc>Speed 132 km/h Distance 17.87 km</desc>
<time>2010-07-31T14:09:38.68</time>
<name>775</name>
</trkpt>
<trkpt lat="49.101408" lon="10.763277">
<ele>454.5</ele>
<speed>133</speed>
<course>99.2</course>
<desc>Speed 133 km/h Distance 17.91 km</desc>
<time>2010-07-31T14:09:39.68</time>
<name>776</name>
</trkpt>
<trkpt lat="49.101353" lon="10.763795">
<ele>455.0</ele>
<speed>137</speed>
<course>104.1</course>
<desc>Speed 137 km/h Distance 17.95 km</desc>
<time>2010-07-31T14:09:40.68</time>
<name>777</name>
</trkpt>
<trkpt lat="49.101273" lon="10.764280">
<ele>455.5</ele>
<speed>130</speed>
<course>103.8</course>
<desc>Speed 130 km/h Distance 17.98 km</desc>
<time>2010-07-31T14:09:41.69</time>
<name>778</name>
</trkpt>
<trkpt lat="49.101195" lon="10.764768">
<ele>456.0</ele>
<speed>130</speed>
<course>104.0</course>
<desc>Speed 130 km/h Distance 18.02 km</desc>
<time>2010-07-31T14:09:42.68</time>
<name>779</name>
</trkpt>
<trkpt lat="49.101118" lon="10.765238">
<ele>456.5</ele>
<speed>127</speed>
<course>106.1</course>
<desc>Speed 127 km/h Distance 18.06 km</desc>
<time>2010-07-31T14:09:43.68</time>
<name>780</name>
</trkpt>
<trkpt lat="49.101027" lon="10.765723">
<ele>458.0</ele>
<speed>130</speed>
<course>109.6</course>
<desc>Speed 130 km/h Distance 18.09 km</desc>
<time>2010-07-31T14:09:44.68</time>
<name>781</name>
</trkpt>
<trkpt lat="49.100915" lon="10.766202">
<ele>459.0</ele>
<speed>130</speed>
<course>111.4</course>
<desc>Speed 130 km/h Distance 18.13 km</desc>
<time>2010-07-31T14:09:45.67</time>
<name>782</name>
</trkpt>
<trkpt lat="49.100797" lon="10.766663">
<ele>460.0</ele>
<speed>128</speed>
<course>115.4</course>
<desc>Speed 128 km/h Distance 18.17 km</desc>
<time>2010-07-31T14:09:46.67</time>
<name>783</name>
</trkpt>
<trkpt lat="49.100658" lon="10.767108">
<ele>460.5</ele>
<speed>130</speed>
<course>117.7</course>
<desc>Speed 130 km/h Distance 18.20 km</desc>
<time>2010-07-31T14:09:47.67</time>
<name>784</name>
</trkpt>
<trkpt lat="49.100508" lon="10.767545">
<ele>460.5</ele>
<speed>129</speed>
<course>120.6</course>
<desc>Speed 129 km/h Distance 18.24 km</desc>
<time>2010-07-31T14:09:48.68</time>
<name>785</name>
</trkpt>
<trkpt lat="49.100208" lon="10.768318">
<ele>459.5</ele>
<speed>130</speed>
<course>123.0</course>
<desc>Speed 130 km/h Distance 18.30 km</desc>
<time>2010-07-31T14:09:50.68</time>
<name>786</name>
</trkpt>
<trkpt lat="49.100032" lon="10.768733">
<ele>459.5</ele>
<speed>128</speed>
<course>124.2</course>
<desc>Speed 128 km/h Distance 18.34 km</desc>
<time>2010-07-31T14:09:51.69</time>
<name>787</name>
</trkpt>
<trkpt lat="49.099850" lon="10.769142">
<ele>460.0</ele>
<speed>129</speed>
<course>123.0</course>
<desc>Speed 129 km/h Distance 18.38 km</desc>
<time>2010-07-31T14:09:52.68</time>
<name>788</name>
</trkpt>
<trkpt lat="49.099675" lon="10.769553">
<ele>460.0</ele>
<speed>129</speed>
<course>122.6</course>
<desc>Speed 129 km/h Distance 18.41 km</desc>
<time>2010-07-31T14:09:53.68</time>
<name>789</name>
</trkpt>
<trkpt lat="49.099503" lon="10.769963">
<ele>460.0</ele>
<speed>127</speed>
<course>121.6</course>
<desc>Speed 127 km/h Distance 18.45 km</desc>
<time>2010-07-31T14:09:54.67</time>
<name>790</name>
</trkpt>
<trkpt lat="49.099338" lon="10.770373">
<ele>460.5</ele>
<speed>126</speed>
<course>121.4</course>
<desc>Speed 126 km/h Distance 18.48 km</desc>
<time>2010-07-31T14:09:55.67</time>
<name>791</name>
</trkpt>
<trkpt lat="49.099177" lon="10.770778">
<ele>461.0</ele>
<speed>124</speed>
<course>122.1</course>
<desc>Speed 124 km/h Distance 18.52 km</desc>
<time>2010-07-31T14:09:56.67</time>
<name>792</name>
</trkpt>
<trkpt lat="49.099008" lon="10.771188">
<ele>462.0</ele>
<speed>127</speed>
<course>122.2</course>
<desc>Speed 127 km/h Distance 18.55 km</desc>
<time>2010-07-31T14:09:57.68</time>
<name>793</name>
</trkpt>
<trkpt lat="49.098847" lon="10.771580">
<ele>462.0</ele>
<speed>121</speed>
<course>123.4</course>
<desc>Speed 121 km/h Distance 18.59 km</desc>
<time>2010-07-31T14:09:58.67</time>
<name>794</name>
</trkpt>
<trkpt lat="49.098683" lon="10.771958">
<ele>462.0</ele>
<speed>119</speed>
<course>123.2</course>
<desc>Speed 119 km/h Distance 18.62 km</desc>
<time>2010-07-31T14:09:59.67</time>
<name>795</name>
</trkpt>
<trkpt lat="49.098333" lon="10.772777">
<ele>465.5</ele>
<speed>121</speed>
<course>122.8</course>
<desc>Speed 121 km/h Distance 18.69 km</desc>
<time>2010-07-31T14:10:01.67</time>
<name>796</name>
</trkpt>
<trkpt lat="49.098167" lon="10.773172">
<ele>465.5</ele>
<speed>121</speed>
<course>123.0</course>
<desc>Speed 121 km/h Distance 18.72 km</desc>
<time>2010-07-31T14:10:02.67</time>
<name>797</name>
</trkpt>
<trkpt lat="49.097810" lon="10.774012">
<ele>465.5</ele>
<speed>130</speed>
<course>122.9</course>
<desc>Speed 130 km/h Distance 18.80 km</desc>
<time>2010-07-31T14:10:04.67</time>
<name>798</name>
</trkpt>
<trkpt lat="49.097630" lon="10.774437">
<ele>466.0</ele>
<speed>133</speed>
<course>122.8</course>
<desc>Speed 133 km/h Distance 18.83 km</desc>
<time>2010-07-31T14:10:05.67</time>
<name>799</name>
</trkpt>
<trkpt lat="49.097453" lon="10.774855">
<ele>466.0</ele>
<speed>131</speed>
<course>121.7</course>
<desc>Speed 131 km/h Distance 18.87 km</desc>
<time>2010-07-31T14:10:06.67</time>
<name>800</name>
</trkpt>
<trkpt lat="49.097283" lon="10.775275">
<ele>466.0</ele>
<speed>132</speed>
<course>121.5</course>
<desc>Speed 132 km/h Distance 18.91 km</desc>
<time>2010-07-31T14:10:07.66</time>
<name>801</name>
</trkpt>
<trkpt lat="49.097112" lon="10.775703">
<ele>466.5</ele>
<speed>133</speed>
<course>122.5</course>
<desc>Speed 133 km/h Distance 18.94 km</desc>
<time>2010-07-31T14:10:08.66</time>
<name>802</name>
</trkpt>
<trkpt lat="49.096937" lon="10.776123">
<ele>467.0</ele>
<speed>131</speed>
<course>123.0</course>
<desc>Speed 131 km/h Distance 18.98 km</desc>
<time>2010-07-31T14:10:09.67</time>
<name>803</name>
</trkpt>
<trkpt lat="49.096763" lon="10.776532">
<ele>466.5</ele>
<speed>129</speed>
<course>123.1</course>
<desc>Speed 129 km/h Distance 19.01 km</desc>
<time>2010-07-31T14:10:10.67</time>
<name>804</name>
</trkpt>
<trkpt lat="49.096590" lon="10.776938">
<ele>466.5</ele>
<speed>128</speed>
<course>123.0</course>
<desc>Speed 128 km/h Distance 19.05 km</desc>
<time>2010-07-31T14:10:11.66</time>
<name>805</name>
</trkpt>
<trkpt lat="49.096420" lon="10.777338">
<ele>467.0</ele>
<speed>126</speed>
<course>122.7</course>
<desc>Speed 126 km/h Distance 19.08 km</desc>
<time>2010-07-31T14:10:12.66</time>
<name>806</name>
</trkpt>
<trkpt lat="49.096253" lon="10.777735">
<ele>467.0</ele>
<speed>124</speed>
<course>121.0</course>
<desc>Speed 124 km/h Distance 19.12 km</desc>
<time>2010-07-31T14:10:13.66</time>
<name>807</name>
</trkpt>
<trkpt lat="49.096095" lon="10.778137">
<ele>468.5</ele>
<speed>123</speed>
<course>123.2</course>
<desc>Speed 123 km/h Distance 19.15 km</desc>
<time>2010-07-31T14:10:14.66</time>
<name>808</name>
</trkpt>
<trkpt lat="49.095427" lon="10.779698">
<ele>468.5</ele>
<speed>96.0</speed>
<course>122.2</course>
<desc>Speed 96.0 km/h Distance 19.29 km</desc>
<time>2010-07-31T14:10:19.66</time>
<name>809</name>
</trkpt>
<trkpt lat="49.095148" lon="10.780373">
<ele>468.0</ele>
<speed>109</speed>
<course>124.3</course>
<desc>Speed 109 km/h Distance 19.35 km</desc>
<time>2010-07-31T14:10:21.66</time>
<name>810</name>
</trkpt>
<trkpt lat="49.094808" lon="10.781133">
<ele>468.0</ele>
<speed>119</speed>
<course>125.3</course>
<desc>Speed 119 km/h Distance 19.41 km</desc>
<time>2010-07-31T14:10:23.66</time>
<name>811</name>
</trkpt>
<trkpt lat="49.094260" lon="10.782315">
<ele>468.5</ele>
<speed>129</speed>
<course>128.4</course>
<desc>Speed 129 km/h Distance 19.52 km</desc>
<time>2010-07-31T14:10:26.65</time>
<name>812</name>
</trkpt>
<trkpt lat="49.094062" lon="10.782697">
<ele>468.5</ele>
<speed>125</speed>
<course>131.1</course>
<desc>Speed 125 km/h Distance 19.56 km</desc>
<time>2010-07-31T14:10:27.65</time>
<name>813</name>
</trkpt>
<trkpt lat="49.093863" lon="10.783043">
<ele>468.5</ele>
<speed>121</speed>
<course>135.7</course>
<desc>Speed 121 km/h Distance 19.59 km</desc>
<time>2010-07-31T14:10:28.66</time>
<name>814</name>
</trkpt>
<trkpt lat="49.093125" lon="10.784145">
<ele>468.0</ele>
<speed>93.9</speed>
<course>133.5</course>
<desc>Speed 93.9 km/h Distance 19.70 km</desc>
<time>2010-07-31T14:10:32.64</time>
<name>815</name>
</trkpt>
<trkpt lat="49.092972" lon="10.784392">
<ele>468.0</ele>
<speed>86.8</speed>
<course>133.4</course>
<desc>Speed 86.8 km/h Distance 19.73 km</desc>
<time>2010-07-31T14:10:33.64</time>
<name>816</name>
</trkpt>
<trkpt lat="49.092458" lon="10.785222">
<ele>466.5</ele>
<speed>52.5</speed>
<course>129.1</course>
<desc>Speed 52.5 km/h Distance 19.81 km</desc>
<time>2010-07-31T14:10:38.63</time>
<name>817</name>
</trkpt>
<trkpt lat="49.092288" lon="10.785542">
<ele>466.5</ele>
<speed>51.4</speed>
<course>127.1</course>
<desc>Speed 51.4 km/h Distance 19.84 km</desc>
<time>2010-07-31T14:10:40.63</time>
<name>818</name>
</trkpt>
<trkpt lat="49.092215" lon="10.785690">
<ele>466.5</ele>
<speed>48.0</speed>
<course>124.3</course>
<desc>Speed 48.0 km/h Distance 19.86 km</desc>
<time>2010-07-31T14:10:41.64</time>
<name>819</name>
</trkpt>
<trkpt lat="49.092152" lon="10.785832">
<ele>466.0</ele>
<speed>49.2</speed>
<course>109.1</course>
<desc>Speed 49.2 km/h Distance 19.87 km</desc>
<time>2010-07-31T14:10:42.65</time>
<name>820</name>
</trkpt>
<trkpt lat="49.092110" lon="10.786015">
<ele>466.0</ele>
<speed>49.9</speed>
<course>120.2</course>
<desc>Speed 49.9 km/h Distance 19.88 km</desc>
<time>2010-07-31T14:10:43.64</time>
<name>821</name>
</trkpt>
<trkpt lat="49.092048" lon="10.786177">
<ele>465.5</ele>
<speed>48.5</speed>
<course>104.4</course>
<desc>Speed 48.5 km/h Distance 19.90 km</desc>
<time>2010-07-31T14:10:44.63</time>
<name>822</name>
</trkpt>
<trkpt lat="49.092018" lon="10.786355">
<ele>465.5</ele>
<speed>46.1</speed>
<course>118.6</course>
<desc>Speed 46.1 km/h Distance 19.91 km</desc>
<time>2010-07-31T14:10:45.63</time>
<name>823</name>
</trkpt>
<trkpt lat="49.091960" lon="10.786518">
<ele>465.0</ele>
<speed>48.7</speed>
<course>116.3</course>
<desc>Speed 48.7 km/h Distance 19.92 km</desc>
<time>2010-07-31T14:10:46.64</time>
<name>824</name>
</trkpt>
<trkpt lat="49.091905" lon="10.786688">
<ele>465.0</ele>
<speed>47.6</speed>
<course>121.8</course>
<desc>Speed 47.6 km/h Distance 19.94 km</desc>
<time>2010-07-31T14:10:47.64</time>
<name>825</name>
</trkpt>
<trkpt lat="49.091843" lon="10.786840">
<ele>465.0</ele>
<speed>47.4</speed>
<course>119.6</course>
<desc>Speed 47.4 km/h Distance 19.95 km</desc>
<time>2010-07-31T14:10:48.63</time>
<name>826</name>
</trkpt>
<trkpt lat="49.091785" lon="10.786997">
<ele>465.5</ele>
<speed>48.0</speed>
<course>118.6</course>
<desc>Speed 48.0 km/h Distance 19.96 km</desc>
<time>2010-07-31T14:10:49.64</time>
<name>827</name>
</trkpt>
<trkpt lat="49.091727" lon="10.787160">
<ele>465.5</ele>
<speed>48.5</speed>
<course>122.4</course>
<desc>Speed 48.5 km/h Distance 19.98 km</desc>
<time>2010-07-31T14:10:50.64</time>
<name>828</name>
</trkpt>
<trkpt lat="49.091662" lon="10.787317">
<ele>465.5</ele>
<speed>48.3</speed>
<course>125.7</course>
<desc>Speed 48.3 km/h Distance 19.99 km</desc>
<time>2010-07-31T14:10:51.64</time>
<name>829</name>
</trkpt>
<trkpt lat="49.091597" lon="10.787455">
<ele>465.5</ele>
<speed>45.0</speed>
<course>124.9</course>
<desc>Speed 45.0 km/h Distance 20.00 km</desc>
<time>2010-07-31T14:10:52.62</time>
<name>830</name>
</trkpt>
<trkpt lat="49.091527" lon="10.787608">
<ele>465.0</ele>
<speed>47.7</speed>
<course>126.1</course>
<desc>Speed 47.7 km/h Distance 20.02 km</desc>
<time>2010-07-31T14:10:53.63</time>
<name>831</name>
</trkpt>
<trkpt lat="49.091458" lon="10.787752">
<ele>465.0</ele>
<speed>45.2</speed>
<course>125.2</course>
<desc>Speed 45.2 km/h Distance 20.03 km</desc>
<time>2010-07-31T14:10:54.62</time>
<name>832</name>
</trkpt>
<trkpt lat="49.091388" lon="10.787903">
<ele>465.0</ele>
<speed>46.9</speed>
<course>124.7</course>
<desc>Speed 46.9 km/h Distance 20.04 km</desc>
<time>2010-07-31T14:10:55.63</time>
<name>833</name>
</trkpt>
<trkpt lat="49.091317" lon="10.788062">
<ele>465.5</ele>
<speed>47.1</speed>
<course>125.4</course>
<desc>Speed 47.1 km/h Distance 20.06 km</desc>
<time>2010-07-31T14:10:56.63</time>
<name>834</name>
</trkpt>
<trkpt lat="49.091248" lon="10.788208">
<ele>465.5</ele>
<speed>45.9</speed>
<course>124.4</course>
<desc>Speed 45.9 km/h Distance 20.07 km</desc>
<time>2010-07-31T14:10:57.62</time>
<name>835</name>
</trkpt>
<trkpt lat="49.091183" lon="10.788353">
<ele>465.5</ele>
<speed>45.4</speed>
<course>123.9</course>
<desc>Speed 45.4 km/h Distance 20.08 km</desc>
<time>2010-07-31T14:10:58.62</time>
<name>836</name>
</trkpt>
<trkpt lat="49.091117" lon="10.788505">
<ele>465.5</ele>
<speed>47.4</speed>
<course>124.1</course>
<desc>Speed 47.4 km/h Distance 20.10 km</desc>
<time>2010-07-31T14:10:59.62</time>
<name>837</name>
</trkpt>
<trkpt lat="49.091052" lon="10.788652">
<ele>465.5</ele>
<speed>45.6</speed>
<course>128.3</course>
<desc>Speed 45.6 km/h Distance 20.11 km</desc>
<time>2010-07-31T14:11:00.64</time>
<name>838</name>
</trkpt>
<trkpt lat="49.090977" lon="10.788797">
<ele>465.5</ele>
<speed>47.5</speed>
<course>132.1</course>
<desc>Speed 47.5 km/h Distance 20.12 km</desc>
<time>2010-07-31T14:11:01.63</time>
<name>839</name>
</trkpt>
<trkpt lat="49.090897" lon="10.788932">
<ele>465.5</ele>
<speed>47.3</speed>
<course>134.5</course>
<desc>Speed 47.3 km/h Distance 20.13 km</desc>
<time>2010-07-31T14:11:02.62</time>
<name>840</name>
</trkpt>
<trkpt lat="49.090807" lon="10.789072">
<ele>465.0</ele>
<speed>50.4</speed>
<course>137.1</course>
<desc>Speed 50.4 km/h Distance 20.15 km</desc>
<time>2010-07-31T14:11:03.62</time>
<name>841</name>
</trkpt>
<trkpt lat="49.090715" lon="10.789202">
<ele>465.0</ele>
<speed>49.8</speed>
<course>138.1</course>
<desc>Speed 49.8 km/h Distance 20.16 km</desc>
<time>2010-07-31T14:11:04.62</time>
<name>842</name>
</trkpt>
<trkpt lat="49.090625" lon="10.789325">
<ele>464.0</ele>
<speed>48.3</speed>
<course>151.0</course>
<desc>Speed 48.3 km/h Distance 20.18 km</desc>
<time>2010-07-31T14:11:05.63</time>
<name>843</name>
</trkpt>
<trkpt lat="49.090517" lon="10.789417">
<ele>464.0</ele>
<speed>49.8</speed>
<course>144.9</course>
<desc>Speed 49.8 km/h Distance 20.19 km</desc>
<time>2010-07-31T14:11:06.63</time>
<name>844</name>
</trkpt>
<trkpt lat="49.090423" lon="10.789517">
<ele>464.0</ele>
<speed>45.6</speed>
<course>144.6</course>
<desc>Speed 45.6 km/h Distance 20.20 km</desc>
<time>2010-07-31T14:11:07.63</time>
<name>845</name>
</trkpt>
<trkpt lat="49.090327" lon="10.789622">
<ele>464.0</ele>
<speed>47.4</speed>
<course>147.2</course>
<desc>Speed 47.4 km/h Distance 20.22 km</desc>
<time>2010-07-31T14:11:08.62</time>
<name>846</name>
</trkpt>
<trkpt lat="49.090233" lon="10.789713">
<ele>464.0</ele>
<speed>45.3</speed>
<course>149.3</course>
<desc>Speed 45.3 km/h Distance 20.23 km</desc>
<time>2010-07-31T14:11:09.62</time>
<name>847</name>
</trkpt>
<trkpt lat="49.090143" lon="10.789795">
<ele>463.5</ele>
<speed>44.0</speed>
<course>151.8</course>
<desc>Speed 44.0 km/h Distance 20.24 km</desc>
<time>2010-07-31T14:11:10.62</time>
<name>848</name>
</trkpt>
<trkpt lat="49.090052" lon="10.789870">
<ele>463.5</ele>
<speed>42.5</speed>
<course>146.3</course>
<desc>Speed 42.5 km/h Distance 20.25 km</desc>
<time>2010-07-31T14:11:11.63</time>
<name>849</name>
</trkpt>
<trkpt lat="49.089953" lon="10.789970">
<ele>463.0</ele>
<speed>46.5</speed>
<course>145.0</course>
<desc>Speed 46.5 km/h Distance 20.26 km</desc>
<time>2010-07-31T14:11:12.62</time>
<name>850</name>
</trkpt>
<trkpt lat="49.089857" lon="10.790073">
<ele>463.0</ele>
<speed>47.4</speed>
<course>146.3</course>
<desc>Speed 47.4 km/h Distance 20.28 km</desc>
<time>2010-07-31T14:11:13.63</time>
<name>851</name>
</trkpt>
<trkpt lat="49.089772" lon="10.790160">
<ele>462.0</ele>
<speed>46.5</speed>
<course>142.0</course>
<desc>Speed 46.5 km/h Distance 20.29 km</desc>
<time>2010-07-31T14:11:14.62</time>
<name>852</name>
</trkpt>
<trkpt lat="49.089633" lon="10.790325">
<ele>461.5</ele>
<speed>46.5</speed>
<course>118.6</course>
<desc>Speed 46.5 km/h Distance 20.31 km</desc>
<time>2010-07-31T14:11:16.62</time>
<name>853</name>
</trkpt>
<trkpt lat="49.089203" lon="10.791530">
<ele>457.5</ele>
<speed>93.1</speed>
<course>118.1</course>
<desc>Speed 93.1 km/h Distance 20.41 km</desc>
<time>2010-07-31T14:11:21.62</time>
<name>854</name>
</trkpt>
<trkpt lat="49.088247" lon="10.794263">
<ele>457.0</ele>
<speed>119</speed>
<course>113.3</course>
<desc>Speed 119 km/h Distance 20.63 km</desc>
<time>2010-07-31T14:11:27.62</time>
<name>855</name>
</trkpt>
<trkpt lat="49.088125" lon="10.794695">
<ele>457.5</ele>
<speed>119</speed>
<course>111.5</course>
<desc>Speed 119 km/h Distance 20.67 km</desc>
<time>2010-07-31T14:11:28.61</time>
<name>856</name>
</trkpt>
<trkpt lat="49.088015" lon="10.795122">
<ele>457.0</ele>
<speed>116</speed>
<course>105.3</course>
<desc>Speed 116 km/h Distance 20.70 km</desc>
<time>2010-07-31T14:11:29.62</time>
<name>857</name>
</trkpt>
<trkpt lat="49.087935" lon="10.795568">
<ele>456.5</ele>
<speed>117</speed>
<course>101.2</course>
<desc>Speed 117 km/h Distance 20.74 km</desc>
<time>2010-07-31T14:11:30.61</time>
<name>858</name>
</trkpt>
<trkpt lat="49.087812" lon="10.796518">
<ele>455.5</ele>
<speed>126</speed>
<course>97.6</course>
<desc>Speed 126 km/h Distance 20.81 km</desc>
<time>2010-07-31T14:11:32.61</time>
<name>859</name>
</trkpt>
<trkpt lat="49.087673" lon="10.798108">
<ele>454.5</ele>
<speed>132</speed>
<course>96.3</course>
<desc>Speed 132 km/h Distance 20.92 km</desc>
<time>2010-07-31T14:11:35.92</time>
<name>860</name>
</trkpt>
<trkpt lat="49.087563" lon="10.799620">
<ele>453.5</ele>
<speed>144</speed>
<course>96.6</course>
<desc>Speed 144 km/h Distance 21.03 km</desc>
<time>2010-07-31T14:11:38.61</time>
<name>861</name>
</trkpt>
<trkpt lat="49.087422" lon="10.801488">
<ele>457.5</ele>
<speed>150</speed>
<course>96.2</course>
<desc>Speed 150 km/h Distance 21.17 km</desc>
<time>2010-07-31T14:11:41.61</time>
<name>862</name>
</trkpt>
<trkpt lat="49.087380" lon="10.802070">
<ele>457.5</ele>
<speed>149</speed>
<course>96.3</course>
<desc>Speed 149 km/h Distance 21.21 km</desc>
<time>2010-07-31T14:11:42.61</time>
<name>863</name>
</trkpt>
<trkpt lat="49.087338" lon="10.802650">
<ele>458.0</ele>
<speed>149</speed>
<course>97.8</course>
<desc>Speed 149 km/h Distance 21.26 km</desc>
<time>2010-07-31T14:11:43.60</time>
<name>864</name>
</trkpt>
<trkpt lat="49.087287" lon="10.803225">
<ele>458.5</ele>
<speed>148</speed>
<course>97.4</course>
<desc>Speed 148 km/h Distance 21.30 km</desc>
<time>2010-07-31T14:11:44.60</time>
<name>865</name>
</trkpt>
<trkpt lat="49.087237" lon="10.803810">
<ele>459.0</ele>
<speed>148</speed>
<course>99.5</course>
<desc>Speed 148 km/h Distance 21.34 km</desc>
<time>2010-07-31T14:11:45.60</time>
<name>866</name>
</trkpt>
<trkpt lat="49.086998" lon="10.805975">
<ele>462.0</ele>
<speed>146</speed>
<course>93.6</course>
<desc>Speed 146 km/h Distance 21.50 km</desc>
<time>2010-07-31T14:11:50.60</time>
<name>867</name>
</trkpt>
<trkpt lat="49.086917" lon="10.807942">
<ele>445.0</ele>
<speed>124</speed>
<course>88.8</course>
<desc>Speed 124 km/h Distance 21.65 km</desc>
<time>2010-07-31T14:11:55.60</time>
<name>868</name>
</trkpt>
<trkpt lat="49.086965" lon="10.811562">
<ele>475.0</ele>
<speed>114</speed>
<course>87.7</course>
<desc>Speed 114 km/h Distance 21.91 km</desc>
<time>2010-07-31T14:12:01.59</time>
<name>869</name>
</trkpt>
<trkpt lat="49.086988" lon="10.812445">
<ele>475.0</ele>
<speed>112</speed>
<course>85.0</course>
<desc>Speed 112 km/h Distance 21.97 km</desc>
<time>2010-07-31T14:12:03.59</time>
<name>870</name>
</trkpt>
<trkpt lat="49.087013" lon="10.812878">
<ele>473.0</ele>
<speed>112</speed>
<course>85.3</course>
<desc>Speed 112 km/h Distance 22.01 km</desc>
<time>2010-07-31T14:12:04.59</time>
<name>871</name>
</trkpt>
<trkpt lat="49.087037" lon="10.813308">
<ele>473.0</ele>
<speed>110</speed>
<course>85.5</course>
<desc>Speed 110 km/h Distance 22.04 km</desc>
<time>2010-07-31T14:12:05.59</time>
<name>872</name>
</trkpt>
<trkpt lat="49.087058" lon="10.813732">
<ele>472.0</ele>
<speed>108</speed>
<course>85.6</course>
<desc>Speed 108 km/h Distance 22.07 km</desc>
<time>2010-07-31T14:12:06.58</time>
<name>873</name>
</trkpt>
<trkpt lat="49.087078" lon="10.814130">
<ele>470.0</ele>
<speed>101</speed>
<course>87.7</course>
<desc>Speed 101 km/h Distance 22.10 km</desc>
<time>2010-07-31T14:12:07.58</time>
<name>874</name>
</trkpt>
<trkpt lat="49.087088" lon="10.814505">
<ele>467.5</ele>
<speed>97.9</speed>
<course>87.6</course>
<desc>Speed 97.9 km/h Distance 22.13 km</desc>
<time>2010-07-31T14:12:08.59</time>
<name>875</name>
</trkpt>
<trkpt lat="49.087098" lon="10.814865">
<ele>465.5</ele>
<speed>93.1</speed>
<course>88.7</course>
<desc>Speed 93.1 km/h Distance 22.15 km</desc>
<time>2010-07-31T14:12:09.60</time>
<name>876</name>
</trkpt>
<trkpt lat="49.087103" lon="10.815212">
<ele>465.0</ele>
<speed>89.6</speed>
<course>87.0</course>
<desc>Speed 89.6 km/h Distance 22.18 km</desc>
<time>2010-07-31T14:12:10.59</time>
<name>877</name>
</trkpt>
<trkpt lat="49.087115" lon="10.815555">
<ele>465.0</ele>
<speed>86.8</speed>
<course>86.2</course>
<desc>Speed 86.8 km/h Distance 22.20 km</desc>
<time>2010-07-31T14:12:11.59</time>
<name>878</name>
</trkpt>
<trkpt lat="49.087153" lon="10.816428">
<ele>463.0</ele>
<speed>73.3</speed>
<course>87.8</course>
<desc>Speed 73.3 km/h Distance 22.27 km</desc>
<time>2010-07-31T14:12:14.59</time>
<name>879</name>
</trkpt>
<trkpt lat="49.087160" lon="10.816698">
<ele>463.0</ele>
<speed>70.5</speed>
<course>87.3</course>
<desc>Speed 70.5 km/h Distance 22.29 km</desc>
<time>2010-07-31T14:12:15.59</time>
<name>880</name>
</trkpt>
<trkpt lat="49.087168" lon="10.816968">
<ele>462.5</ele>
<speed>70.8</speed>
<course>83.5</course>
<desc>Speed 70.8 km/h Distance 22.31 km</desc>
<time>2010-07-31T14:12:16.59</time>
<name>881</name>
</trkpt>
<trkpt lat="49.087188" lon="10.817235">
<ele>462.5</ele>
<speed>68.7</speed>
<course>83.1</course>
<desc>Speed 68.7 km/h Distance 22.32 km</desc>
<time>2010-07-31T14:12:17.59</time>
<name>882</name>
</trkpt>
<trkpt lat="49.087227" lon="10.817718">
<ele>462.0</ele>
<speed>70.0</speed>
<course>82.8</course>
<desc>Speed 70.0 km/h Distance 22.36 km</desc>
<time>2010-07-31T14:12:19.58</time>
<name>883</name>
</trkpt>
<trkpt lat="49.087268" lon="10.818223">
<ele>462.0</ele>
<speed>69.4</speed>
<course>87.4</course>
<desc>Speed 69.4 km/h Distance 22.40 km</desc>
<time>2010-07-31T14:12:21.57</time>
<name>884</name>
</trkpt>
<trkpt lat="49.087277" lon="10.818503">
<ele>462.0</ele>
<speed>71.7</speed>
<course>86.0</course>
<desc>Speed 71.7 km/h Distance 22.42 km</desc>
<time>2010-07-31T14:12:22.61</time>
<name>885</name>
</trkpt>
<trkpt lat="49.087300" lon="10.819007">
<ele>462.5</ele>
<speed>67.1</speed>
<course>85.3</course>
<desc>Speed 67.1 km/h Distance 22.45 km</desc>
<time>2010-07-31T14:12:24.58</time>
<name>886</name>
</trkpt>
<trkpt lat="49.087332" lon="10.819597">
<ele>461.5</ele>
<speed>68.7</speed>
<course>71.4</course>
<desc>Speed 68.7 km/h Distance 22.50 km</desc>
<time>2010-07-31T14:12:26.58</time>
<name>887</name>
</trkpt>
<trkpt lat="49.087438" lon="10.820080">
<ele>463.0</ele>
<speed>69.7</speed>
<course>79.4</course>
<desc>Speed 69.7 km/h Distance 22.53 km</desc>
<time>2010-07-31T14:12:28.58</time>
<name>888</name>
</trkpt>
<trkpt lat="49.087468" lon="10.820325">
<ele>462.5</ele>
<speed>65.4</speed>
<course>81.5</course>
<desc>Speed 65.4 km/h Distance 22.55 km</desc>
<time>2010-07-31T14:12:29.58</time>
<name>889</name>
</trkpt>
<trkpt lat="49.087493" lon="10.820582">
<ele>462.5</ele>
<speed>67.2</speed>
<course>84.3</course>
<desc>Speed 67.2 km/h Distance 22.57 km</desc>
<time>2010-07-31T14:12:30.57</time>
<name>890</name>
</trkpt>
<trkpt lat="49.087530" lon="10.821140">
<ele>464.5</ele>
<speed>77.7</speed>
<course>103.4</course>
<desc>Speed 77.7 km/h Distance 22.61 km</desc>
<time>2010-07-31T14:12:32.57</time>
<name>891</name>
</trkpt>
<trkpt lat="49.087408" lon="10.821918">
<ele>466.5</ele>
<speed>63.4</speed>
<course>107.7</course>
<desc>Speed 63.4 km/h Distance 22.67 km</desc>
<time>2010-07-31T14:12:35.57</time>
<name>892</name>
</trkpt>
<trkpt lat="49.087357" lon="10.822165">
<ele>467.0</ele>
<speed>68.3</speed>
<course>95.6</course>
<desc>Speed 68.3 km/h Distance 22.69 km</desc>
<time>2010-07-31T14:12:36.57</time>
<name>893</name>
</trkpt>
<trkpt lat="49.087340" lon="10.822425">
<ele>467.0</ele>
<speed>66.6</speed>
<course>117.9</course>
<desc>Speed 66.6 km/h Distance 22.71 km</desc>
<time>2010-07-31T14:12:37.57</time>
<name>894</name>
</trkpt>
<trkpt lat="49.087150" lon="10.822973">
<ele>469.5</ele>
<speed>66.6</speed>
<course>165.6</course>
<desc>Speed 66.6 km/h Distance 22.75 km</desc>
<time>2010-07-31T14:12:41.57</time>
<name>895</name>
</trkpt>
<trkpt lat="49.086895" lon="10.823073">
<ele>479.0</ele>
<speed>66.6</speed>
<course>149.7</course>
<desc>Speed 66.6 km/h Distance 22.78 km</desc>
<time>2010-07-31T14:12:43.56</time>
<name>896</name>
</trkpt>
<trkpt lat="49.086525" lon="10.823403">
<ele>484.0</ele>
<speed>74.3</speed>
<course>139.6</course>
<desc>Speed 74.3 km/h Distance 22.83 km</desc>
<time>2010-07-31T14:12:46.56</time>
<name>897</name>
</trkpt>
<trkpt lat="49.085987" lon="10.824103">
<ele>489.5</ele>
<speed>83.7</speed>
<course>123.4</course>
<desc>Speed 83.7 km/h Distance 22.91 km</desc>
<time>2010-07-31T14:12:49.56</time>
<name>898</name>
</trkpt>
<trkpt lat="49.085142" lon="10.826058">
<ele>490.5</ele>
<speed>115</speed>
<course>117.2</course>
<desc>Speed 115 km/h Distance 23.08 km</desc>
<time>2010-07-31T14:12:54.56</time>
<name>899</name>
</trkpt>
<trkpt lat="49.084863" lon="10.826885">
<ele>492.5</ele>
<speed>122</speed>
<course>117.1</course>
<desc>Speed 122 km/h Distance 23.15 km</desc>
<time>2010-07-31T14:12:56.56</time>
<name>900</name>
</trkpt>
<trkpt lat="49.084720" lon="10.827313">
<ele>494.5</ele>
<speed>122</speed>
<course>117.2</course>
<desc>Speed 122 km/h Distance 23.18 km</desc>
<time>2010-07-31T14:12:57.56</time>
<name>901</name>
</trkpt>
<trkpt lat="49.084583" lon="10.827720">
<ele>495.0</ele>
<speed>117</speed>
<course>114.1</course>
<desc>Speed 117 km/h Distance 23.22 km</desc>
<time>2010-07-31T14:12:58.56</time>
<name>902</name>
</trkpt>
<trkpt lat="49.084458" lon="10.828147">
<ele>496.5</ele>
<speed>121</speed>
<course>111.5</course>
<desc>Speed 121 km/h Distance 23.25 km</desc>
<time>2010-07-31T14:12:59.56</time>
<name>903</name>
</trkpt>
<trkpt lat="49.084255" lon="10.828933">
<ele>496.5</ele>
<speed>124</speed>
<course>106.2</course>
<desc>Speed 124 km/h Distance 23.31 km</desc>
<time>2010-07-31T14:13:01.56</time>
<name>904</name>
</trkpt>
<trkpt lat="49.083922" lon="10.830683">
<ele>493.5</ele>
<speed>124</speed>
<course>95.2</course>
<desc>Speed 124 km/h Distance 23.45 km</desc>
<time>2010-07-31T14:13:07.55</time>
<name>905</name>
</trkpt>
<trkpt lat="49.083812" lon="10.832520">
<ele>489.5</ele>
<speed>110</speed>
<course>99.2</course>
<desc>Speed 110 km/h Distance 23.58 km</desc>
<time>2010-07-31T14:13:12.55</time>
<name>906</name>
</trkpt>
<trkpt lat="49.083715" lon="10.833427">
<ele>489.0</ele>
<speed>113</speed>
<course>94.0</course>
<desc>Speed 113 km/h Distance 23.65 km</desc>
<time>2010-07-31T14:13:14.54</time>
<name>907</name>
</trkpt>
<trkpt lat="49.083620" lon="10.835488">
<ele>488.5</ele>
<speed>124</speed>
<course>92.2</course>
<desc>Speed 124 km/h Distance 23.80 km</desc>
<time>2010-07-31T14:13:18.54</time>
<name>908</name>
</trkpt>
<trkpt lat="49.083543" lon="10.838507">
<ele>491.5</ele>
<speed>145</speed>
<course>87.7</course>
<desc>Speed 145 km/h Distance 24.02 km</desc>
<time>2010-07-31T14:13:23.54</time>
<name>909</name>
</trkpt>
<trkpt lat="49.083628" lon="10.841807">
<ele>506.0</ele>
<speed>128</speed>
<course>85.1</course>
<desc>Speed 128 km/h Distance 24.26 km</desc>
<time>2010-07-31T14:13:28.54</time>
<name>910</name>
</trkpt>
<trkpt lat="49.083657" lon="10.842312">
<ele>508.0</ele>
<speed>123</speed>
<course>86.9</course>
<desc>Speed 123 km/h Distance 24.30 km</desc>
<time>2010-07-31T14:13:29.54</time>
<name>911</name>
</trkpt>
<trkpt lat="49.083673" lon="10.842777">
<ele>508.5</ele>
<speed>120</speed>
<course>82.8</course>
<desc>Speed 120 km/h Distance 24.33 km</desc>
<time>2010-07-31T14:13:30.54</time>
<name>912</name>
</trkpt>
<trkpt lat="49.083710" lon="10.843220">
<ele>509.5</ele>
<speed>115</speed>
<course>83.4</course>
<desc>Speed 115 km/h Distance 24.36 km</desc>
<time>2010-07-31T14:13:31.53</time>
<name>913</name>
</trkpt>
<trkpt lat="49.083742" lon="10.843637">
<ele>510.5</ele>
<speed>111</speed>
<course>91.6</course>
<desc>Speed 111 km/h Distance 24.39 km</desc>
<time>2010-07-31T14:13:32.53</time>
<name>914</name>
</trkpt>
<trkpt lat="49.083722" lon="10.844733">
<ele>513.5</ele>
<speed>95.2</speed>
<course>94.9</course>
<desc>Speed 95.2 km/h Distance 24.47 km</desc>
<time>2010-07-31T14:13:35.52</time>
<name>915</name>
</trkpt>
<trkpt lat="49.083702" lon="10.845092">
<ele>514.0</ele>
<speed>94.8</speed>
<course>99.7</course>
<desc>Speed 94.8 km/h Distance 24.50 km</desc>
<time>2010-07-31T14:13:36.52</time>
<name>916</name>
</trkpt>
<trkpt lat="49.083660" lon="10.845465">
<ele>514.5</ele>
<speed>96.7</speed>
<course>106.3</course>
<desc>Speed 96.7 km/h Distance 24.53 km</desc>
<time>2010-07-31T14:13:37.52</time>
<name>917</name>
</trkpt>
<trkpt lat="49.083538" lon="10.846098">
<ele>516.0</ele>
<speed>96.8</speed>
<course>111.4</course>
<desc>Speed 96.8 km/h Distance 24.57 km</desc>
<time>2010-07-31T14:13:39.52</time>
<name>918</name>
</trkpt>
<trkpt lat="49.083385" lon="10.846695">
<ele>517.0</ele>
<speed>88.1</speed>
<course>112.3</course>
<desc>Speed 88.1 km/h Distance 24.62 km</desc>
<time>2010-07-31T14:13:41.52</time>
<name>919</name>
</trkpt>
<trkpt lat="49.083233" lon="10.847258">
<ele>517.0</ele>
<speed>78.4</speed>
<course>115.1</course>
<desc>Speed 78.4 km/h Distance 24.67 km</desc>
<time>2010-07-31T14:13:43.52</time>
<name>920</name>
</trkpt>
<trkpt lat="49.083148" lon="10.847535">
<ele>517.5</ele>
<speed>77.9</speed>
<course>115.4</course>
<desc>Speed 77.9 km/h Distance 24.69 km</desc>
<time>2010-07-31T14:13:44.52</time>
<name>921</name>
</trkpt>
<trkpt lat="49.083063" lon="10.847808">
<ele>519.0</ele>
<speed>76.1</speed>
<course>112.7</course>
<desc>Speed 76.1 km/h Distance 24.71 km</desc>
<time>2010-07-31T14:13:45.53</time>
<name>922</name>
</trkpt>
<trkpt lat="49.082933" lon="10.848282">
<ele>520.0</ele>
<speed>64.5</speed>
<course>114.4</course>
<desc>Speed 64.5 km/h Distance 24.75 km</desc>
<time>2010-07-31T14:13:47.52</time>
<name>923</name>
</trkpt>
<trkpt lat="49.082870" lon="10.848495">
<ele>520.0</ele>
<speed>60.6</speed>
<course>111.5</course>
<desc>Speed 60.6 km/h Distance 24.76 km</desc>
<time>2010-07-31T14:13:48.53</time>
<name>924</name>
</trkpt>
<trkpt lat="49.082817" lon="10.848702">
<ele>520.5</ele>
<speed>57.0</speed>
<course>106.6</course>
<desc>Speed 57.0 km/h Distance 24.78 km</desc>
<time>2010-07-31T14:13:49.52</time>
<name>925</name>
</trkpt>
<trkpt lat="49.082775" lon="10.848915">
<ele>521.5</ele>
<speed>56.5</speed>
<course>98.9</course>
<desc>Speed 56.5 km/h Distance 24.80 km</desc>
<time>2010-07-31T14:13:50.52</time>
<name>926</name>
</trkpt>
<trkpt lat="49.082755" lon="10.849110">
<ele>521.5</ele>
<speed>51.4</speed>
<course>85.8</course>
<desc>Speed 51.4 km/h Distance 24.81 km</desc>
<time>2010-07-31T14:13:51.52</time>
<name>927</name>
</trkpt>
<trkpt lat="49.082765" lon="10.849320">
<ele>521.5</ele>
<speed>54.9</speed>
<course>84.1</course>
<desc>Speed 54.9 km/h Distance 24.83 km</desc>
<time>2010-07-31T14:13:52.51</time>
<name>928</name>
</trkpt>
<trkpt lat="49.082778" lon="10.849518">
<ele>522.0</ele>
<speed>52.3</speed>
<course>81.2</course>
<desc>Speed 52.3 km/h Distance 24.84 km</desc>
<time>2010-07-31T14:13:53.52</time>
<name>929</name>
</trkpt>
<trkpt lat="49.082798" lon="10.849717">
<ele>522.5</ele>
<speed>52.1</speed>
<course>80.4</course>
<desc>Speed 52.1 km/h Distance 24.86 km</desc>
<time>2010-07-31T14:13:54.52</time>
<name>930</name>
</trkpt>
<trkpt lat="49.082820" lon="10.849912">
<ele>523.0</ele>
<speed>51.6</speed>
<course>82.8</course>
<desc>Speed 51.6 km/h Distance 24.87 km</desc>
<time>2010-07-31T14:13:55.51</time>
<name>931</name>
</trkpt>
<trkpt lat="49.082838" lon="10.850133">
<ele>524.5</ele>
<speed>53.4</speed>
<course>75.2</course>
<desc>Speed 53.4 km/h Distance 24.89 km</desc>
<time>2010-07-31T14:13:56.52</time>
<name>932</name>
</trkpt>
<trkpt lat="49.082902" lon="10.850500">
<ele>525.0</ele>
<speed>53.9</speed>
<course>77.9</course>
<desc>Speed 53.9 km/h Distance 24.91 km</desc>
<time>2010-07-31T14:13:58.52</time>
<name>933</name>
</trkpt>
<trkpt lat="49.083007" lon="10.851245">
<ele>530.5</ele>
<speed>58.1</speed>
<course>72.9</course>
<desc>Speed 58.1 km/h Distance 24.97 km</desc>
<time>2010-07-31T14:14:01.51</time>
<name>934</name>
</trkpt>
<trkpt lat="49.083052" lon="10.851468">
<ele>531.5</ele>
<speed>57.5</speed>
<course>72.0</course>
<desc>Speed 57.5 km/h Distance 24.99 km</desc>
<time>2010-07-31T14:14:02.51</time>
<name>935</name>
</trkpt>
<trkpt lat="49.083097" lon="10.851680">
<ele>532.5</ele>
<speed>57.3</speed>
<course>75.3</course>
<desc>Speed 57.3 km/h Distance 25.00 km</desc>
<time>2010-07-31T14:14:03.52</time>
<name>936</name>
</trkpt>
<trkpt lat="49.083133" lon="10.851893">
<ele>532.5</ele>
<speed>57.0</speed>
<course>81.6</course>
<desc>Speed 57.0 km/h Distance 25.02 km</desc>
<time>2010-07-31T14:14:04.51</time>
<name>937</name>
</trkpt>
<trkpt lat="49.083155" lon="10.852117">
<ele>532.5</ele>
<speed>59.5</speed>
<course>94.5</course>
<desc>Speed 59.5 km/h Distance 25.04 km</desc>
<time>2010-07-31T14:14:05.52</time>
<name>938</name>
</trkpt>
<trkpt lat="49.083143" lon="10.852342">
<ele>532.5</ele>
<speed>57.3</speed>
<course>99.8</course>
<desc>Speed 57.3 km/h Distance 25.05 km</desc>
<time>2010-07-31T14:14:06.51</time>
<name>939</name>
</trkpt>
<trkpt lat="49.083118" lon="10.852563">
<ele>533.0</ele>
<speed>57.5</speed>
<course>97.7</course>
<desc>Speed 57.5 km/h Distance 25.07 km</desc>
<time>2010-07-31T14:14:07.52</time>
<name>940</name>
</trkpt>
<trkpt lat="49.083100" lon="10.852770">
<ele>533.5</ele>
<speed>55.4</speed>
<course>103.0</course>
<desc>Speed 55.4 km/h Distance 25.08 km</desc>
<time>2010-07-31T14:14:08.50</time>
<name>941</name>
</trkpt>
<trkpt lat="49.083070" lon="10.852968">
<ele>534.0</ele>
<speed>52.9</speed>
<course>98.8</course>
<desc>Speed 52.9 km/h Distance 25.10 km</desc>
<time>2010-07-31T14:14:09.50</time>
<name>942</name>
</trkpt>
<trkpt lat="49.083052" lon="10.853150">
<ele>534.5</ele>
<speed>49.2</speed>
<course>96.1</course>
<desc>Speed 49.2 km/h Distance 25.11 km</desc>
<time>2010-07-31T14:14:10.51</time>
<name>943</name>
</trkpt>
<trkpt lat="49.083038" lon="10.853340">
<ele>534.5</ele>
<speed>49.5</speed>
<course>100.3</course>
<desc>Speed 49.5 km/h Distance 25.13 km</desc>
<time>2010-07-31T14:14:11.51</time>
<name>944</name>
</trkpt>
<trkpt lat="49.083007" lon="10.853605">
<ele>534.5</ele>
<speed>49.5</speed>
<course>126.2</course>
<desc>Speed 49.5 km/h Distance 25.15 km</desc>
<time>2010-07-31T14:14:13.51</time>
<name>945</name>
</trkpt>
<trkpt lat="49.082828" lon="10.853977">
<ele>532.5</ele>
<speed>36.8</speed>
<course>133.3</course>
<desc>Speed 36.8 km/h Distance 25.18 km</desc>
<time>2010-07-31T14:14:17.50</time>
<name>946</name>
</trkpt>
<trkpt lat="49.082383" lon="10.854697">
<ele>528.5</ele>
<speed>51.6</speed>
<course>134.8</course>
<desc>Speed 51.6 km/h Distance 25.25 km</desc>
<time>2010-07-31T14:14:21.51</time>
<name>947</name>
</trkpt>
<trkpt lat="49.082173" lon="10.855020">
<ele>528.0</ele>
<speed>52.3</speed>
<course>128.7</course>
<desc>Speed 52.3 km/h Distance 25.28 km</desc>
<time>2010-07-31T14:14:23.49</time>
<name>948</name>
</trkpt>
<trkpt lat="49.081993" lon="10.855363">
<ele>527.5</ele>
<speed>50.8</speed>
<course>130.3</course>
<desc>Speed 50.8 km/h Distance 25.32 km</desc>
<time>2010-07-31T14:14:25.50</time>
<name>949</name>
</trkpt>
<trkpt lat="49.081910" lon="10.855513">
<ele>527.5</ele>
<speed>50.1</speed>
<course>130.9</course>
<desc>Speed 50.1 km/h Distance 25.33 km</desc>
<time>2010-07-31T14:14:26.49</time>
<name>950</name>
</trkpt>
<trkpt lat="49.081827" lon="10.855660">
<ele>528.0</ele>
<speed>50.1</speed>
<course>132.6</course>
<desc>Speed 50.1 km/h Distance 25.35 km</desc>
<time>2010-07-31T14:14:27.50</time>
<name>951</name>
</trkpt>
<trkpt lat="49.081748" lon="10.855790">
<ele>528.0</ele>
<speed>46.3</speed>
<course>132.7</course>
<desc>Speed 46.3 km/h Distance 25.36 km</desc>
<time>2010-07-31T14:14:28.50</time>
<name>952</name>
</trkpt>
<trkpt lat="49.081667" lon="10.855925">
<ele>527.0</ele>
<speed>48.0</speed>
<course>131.5</course>
<desc>Speed 48.0 km/h Distance 25.37 km</desc>
<time>2010-07-31T14:14:29.49</time>
<name>953</name>
</trkpt>
<trkpt lat="49.081593" lon="10.856052">
<ele>527.5</ele>
<speed>44.1</speed>
<course>130.2</course>
<desc>Speed 44.1 km/h Distance 25.38 km</desc>
<time>2010-07-31T14:14:30.49</time>
<name>954</name>
</trkpt>
<trkpt lat="49.081525" lon="10.856175">
<ele>528.0</ele>
<speed>43.0</speed>
<course>127.4</course>
<desc>Speed 43.0 km/h Distance 25.40 km</desc>
<time>2010-07-31T14:14:31.50</time>
<name>955</name>
</trkpt>
<trkpt lat="49.081462" lon="10.856302">
<ele>528.5</ele>
<speed>38.6</speed>
<course>99.1</course>
<desc>Speed 38.6 km/h Distance 25.41 km</desc>
<time>2010-07-31T14:14:32.50</time>
<name>956</name>
</trkpt>
<trkpt lat="49.081433" lon="10.856572">
<ele>529.0</ele>
<speed>17.4</speed>
<course>81.3</course>
<desc>Speed 17.4 km/h Distance 25.43 km</desc>
<time>2010-07-31T14:14:35.49</time>
<name>957</name>
</trkpt>
<trkpt lat="49.081438" lon="10.856622">
<ele>527.5</ele>
<speed>13.8</speed>
<course>93.2</course>
<desc>Speed 13.8 km/h Distance 25.43 km</desc>
<time>2010-07-31T14:14:36.49</time>
<name>958</name>
</trkpt>
<trkpt lat="49.081437" lon="10.856667">
<ele>528.0</ele>
<speed>10.7</speed>
<course>106.2</course>
<desc>Speed 10.7 km/h Distance 25.43 km</desc>
<time>2010-07-31T14:14:37.49</time>
<name>959</name>
</trkpt>
<trkpt lat="49.081430" lon="10.856702">
<ele>528.5</ele>
<speed>8.9</speed>
<course>115.1</course>
<desc>Speed 8.9 km/h Distance 25.44 km</desc>
<time>2010-07-31T14:14:38.48</time>
<name>960</name>
</trkpt>
<trkpt lat="49.081423" lon="10.856723">
<ele>529.0</ele>
<speed>8.9</speed>
<course>112.6</course>
<desc>Speed 8.9 km/h Distance 25.44 km</desc>
<time>2010-07-31T14:14:39.50</time>
<name>961</name>
</trkpt>
<trkpt lat="49.081418" lon="10.856742">
<ele>529.0</ele>
<speed>8.9</speed>
<course>227.4</course>
<desc>Speed 8.9 km/h Distance 25.44 km</desc>
<time>2010-07-31T14:14:40.49</time>
<name>962</name>
</trkpt>
<trkpt lat="49.081408" lon="10.856725">
<ele>529.0</ele>
<speed>7.2</speed>
<course>44.5</course>
<desc>Speed 7.2 km/h Distance 25.44 km</desc>
<time>2010-07-31T14:14:41.49</time>
<name>963</name>
</trkpt>
<trkpt lat="49.081412" lon="10.856730">
<ele>529.0</ele>
<speed>2.0</speed>
<course>174.5</course>
<desc>Speed 2.0 km/h Distance 25.44 km</desc>
<time>2010-07-31T14:14:42.49</time>
<name>964</name>
</trkpt>
<trkpt lat="49.081332" lon="10.856742">
<ele>530.0</ele>
<speed>0.7</speed>
<course>90.0</course>
<desc>Speed 0.7 km/h Distance 25.45 km</desc>
<time>2010-07-31T14:14:45.49</time>
<name>965</name>
</trkpt>
<trkpt lat="49.081332" lon="10.856750">
<ele>530.0</ele>
<speed>3.2</speed>
<course>157.0</course>
<desc>Speed 3.2 km/h Distance 25.45 km</desc>
<time>2010-07-31T14:14:46.49</time>
<name>966</name>
</trkpt>
<trkpt lat="49.081328" lon="10.856752">
<ele>530.0</ele>
<speed>0.5</speed>
<course>198.8</course>
<desc>Speed 0.5 km/h Distance 25.45 km</desc>
<time>2010-07-31T14:14:47.49</time>
<name>967</name>
</trkpt>
<trkpt lat="49.081322" lon="10.856748">
<ele>530.0</ele>
<speed>2.9</speed>
<course>55.9</course>
<desc>Speed 2.9 km/h Distance 25.45 km</desc>
<time>2010-07-31T14:14:48.52</time>
<name>968</name>
</trkpt>
<trkpt lat="49.081328" lon="10.856763">
<ele>530.0</ele>
<speed>7.2</speed>
<course>161.2</course>
<desc>Speed 7.2 km/h Distance 25.45 km</desc>
<time>2010-07-31T14:14:49.48</time>
<name>969</name>
</trkpt>
<trkpt lat="49.081322" lon="10.856767">
<ele>530.5</ele>
<speed>0.4</speed>
<course>192.6</course>
<desc>Speed 0.4 km/h Distance 25.45 km</desc>
<time>2010-07-31T14:14:50.49</time>
<name>970</name>
</trkpt>
<trkpt lat="49.081318" lon="10.856765">
<ele>529.5</ele>
<speed>0.4</speed>
<course>219.4</course>
<desc>Speed 0.4 km/h Distance 25.46 km</desc>
<time>2010-07-31T14:14:51.48</time>
<name>971</name>
</trkpt>
<trkpt lat="49.081312" lon="10.856757">
<ele>528.5</ele>
<speed>0.9</speed>
<course>192.6</course>
<desc>Speed 0.9 km/h Distance 25.46 km</desc>
<time>2010-07-31T14:14:52.48</time>
<name>972</name>
</trkpt>
<trkpt lat="49.081308" lon="10.856755">
<ele>528.5</ele>
<speed>0.9</speed>
<course>227.8</course>
<desc>Speed 0.9 km/h Distance 25.46 km</desc>
<time>2010-07-31T14:14:53.48</time>
<name>973</name>
</trkpt>
<trkpt lat="49.081303" lon="10.856747">
<ele>528.0</ele>
<speed>0.9</speed>
<course>219.4</course>
<desc>Speed 0.9 km/h Distance 25.46 km</desc>
<time>2010-07-31T14:14:54.48</time>
<name>974</name>
</trkpt>
<trkpt lat="49.081297" lon="10.856738">
<ele>528.0</ele>
<speed>0.5</speed>
<course>47.8</course>
<desc>Speed 0.5 km/h Distance 25.46 km</desc>
<time>2010-07-31T14:14:55.48</time>
<name>975</name>
</trkpt>
<trkpt lat="49.081302" lon="10.856747">
<ele>528.0</ele>
<speed>1.5</speed>
<course>90.0</course>
<desc>Speed 1.5 km/h Distance 25.46 km</desc>
<time>2010-07-31T14:14:56.48</time>
<name>976</name>
</trkpt>
<trkpt lat="49.081302" lon="10.856755">
<ele>529.5</ele>
<speed>0.9</speed>
<course>69.1</course>
<desc>Speed 0.9 km/h Distance 25.46 km</desc>
<time>2010-07-31T14:14:57.49</time>
<name>977</name>
</trkpt>
<trkpt lat="49.081305" lon="10.856768">
<ele>530.5</ele>
<speed>0.9</speed>
<course>201.5</course>
<desc>Speed 0.9 km/h Distance 25.46 km</desc>
<time>2010-07-31T14:14:58.48</time>
<name>978</name>
</trkpt>
<trkpt lat="49.081297" lon="10.856763">
<ele>532.0</ele>
<speed>2.0</speed>
<course>192.6</course>
<desc>Speed 2.0 km/h Distance 25.46 km</desc>
<time>2010-07-31T14:14:59.49</time>
<name>979</name>
</trkpt>
<trkpt lat="49.081292" lon="10.856762">
<ele>533.0</ele>
<speed>1.4</speed>
<course>27.5</course>
<desc>Speed 1.4 km/h Distance 25.46 km</desc>
<time>2010-07-31T14:15:00.49</time>
<name>980</name>
</trkpt>
<trkpt lat="49.081300" lon="10.856768">
<ele>531.0</ele>
<speed>2.0</speed>
<course>26.9</course>
<desc>Speed 2.0 km/h Distance 25.46 km</desc>
<time>2010-07-31T14:15:01.51</time>
<name>981</name>
</trkpt>
<trkpt lat="49.081315" lon="10.856780">
<ele>530.0</ele>
<speed>2.0</speed>
<course>152.1</course>
<desc>Speed 2.0 km/h Distance 25.47 km</desc>
<time>2010-07-31T14:15:02.49</time>
<name>982</name>
</trkpt>
<trkpt lat="49.081307" lon="10.856787">
<ele>532.0</ele>
<speed>2.0</speed>
<course>58.6</course>
<desc>Speed 2.0 km/h Distance 25.47 km</desc>
<time>2010-07-31T14:15:03.48</time>
<name>983</name>
</trkpt>
<trkpt lat="49.081310" lon="10.856795">
<ele>533.0</ele>
<speed>2.3</speed>
<course>47.4</course>
<desc>Speed 2.3 km/h Distance 25.47 km</desc>
<time>2010-07-31T14:15:04.48</time>
<name>984</name>
</trkpt>
<trkpt lat="49.081320" lon="10.856812">
<ele>532.0</ele>
<speed>2.5</speed>
<course>33.2</course>
<desc>Speed 2.5 km/h Distance 25.47 km</desc>
<time>2010-07-31T14:15:05.48</time>
<name>985</name>
</trkpt>
<trkpt lat="49.081338" lon="10.856830">
<ele>531.5</ele>
<speed>1.3</speed>
<course>32.3</course>
<desc>Speed 1.3 km/h Distance 25.47 km</desc>
<time>2010-07-31T14:15:06.50</time>
<name>986</name>
</trkpt>
<trkpt lat="49.081343" lon="10.856835">
<ele>531.5</ele>
<speed>1.3</speed>
<course>63.4</course>
<desc>Speed 1.3 km/h Distance 25.47 km</desc>
<time>2010-07-31T14:15:07.48</time>
<name>987</name>
</trkpt>
<trkpt lat="49.081345" lon="10.856840">
<ele>531.5</ele>
<speed>1.3</speed>
<course>230.3</course>
<desc>Speed 1.3 km/h Distance 25.47 km</desc>
<time>2010-07-31T14:15:08.47</time>
<name>988</name>
</trkpt>
<trkpt lat="49.081335" lon="10.856822">
<ele>529.5</ele>
<speed>0.9</speed>
<course>28.0</course>
<desc>Speed 0.9 km/h Distance 25.47 km</desc>
<time>2010-07-31T14:15:09.49</time>
<name>989</name>
</trkpt>
<trkpt lat="49.081362" lon="10.856843">
<ele>528.0</ele>
<speed>0.8</speed>
<course>167.4</course>
<desc>Speed 0.8 km/h Distance 25.48 km</desc>
<time>2010-07-31T14:15:11.47</time>
<name>990</name>
</trkpt>
<trkpt lat="49.081360" lon="10.856843">
<ele>528.0</ele>
<speed>0.4</speed>
<course>158.5</course>
<desc>Speed 0.4 km/h Distance 25.48 km</desc>
<time>2010-07-31T14:15:12.47</time>
<name>991</name>
</trkpt>
<trkpt lat="49.081352" lon="10.856848">
<ele>529.5</ele>
<speed>0.9</speed>
<course>158.5</course>
<desc>Speed 0.9 km/h Distance 25.48 km</desc>
<time>2010-07-31T14:15:13.47</time>
<name>992</name>
</trkpt>
<trkpt lat="49.081343" lon="10.856853">
<ele>534.0</ele>
<speed>0.0</speed>
<course>322.8</course>
<desc>Speed 0.0 km/h Distance 25.48 km</desc>
<time>2010-07-31T14:15:14.47</time>
<name>993</name>
</trkpt>
<trkpt lat="49.081345" lon="10.856852">
<ele>533.5</ele>
<speed>1.3</speed>
<course>208.6</course>
<desc>Speed 1.3 km/h Distance 25.48 km</desc>
<time>2010-07-31T14:15:15.47</time>
<name>994</name>
</trkpt>
<trkpt lat="49.081335" lon="10.856843">
<ele>535.5</ele>
<speed>1.8</speed>
<course>135.5</course>
<desc>Speed 1.8 km/h Distance 25.48 km</desc>
<time>2010-07-31T14:15:16.47</time>
<name>995</name>
</trkpt>
<trkpt lat="49.081332" lon="10.856848">
<ele>535.5</ele>
<speed>1.4</speed>
<course>37.2</course>
<desc>Speed 1.4 km/h Distance 25.48 km</desc>
<time>2010-07-31T14:15:17.47</time>
<name>996</name>
</trkpt>
<trkpt lat="49.081333" lon="10.856850">
<ele>536.0</ele>
<speed>0.9</speed>
<course>327.7</course>
<desc>Speed 0.9 km/h Distance 25.48 km</desc>
<time>2010-07-31T14:15:18.47</time>
<name>997</name>
</trkpt>
<trkpt lat="49.081338" lon="10.856845">
<ele>535.0</ele>
<speed>1.9</speed>
<course>32.3</course>
<desc>Speed 1.9 km/h Distance 25.48 km</desc>
<time>2010-07-31T14:15:19.47</time>
<name>998</name>
</trkpt>
<trkpt lat="49.081343" lon="10.856850">
<ele>533.5</ele>
<speed>1.1</speed>
<course>32.3</course>
<desc>Speed 1.1 km/h Distance 25.48 km</desc>
<time>2010-07-31T14:15:20.47</time>
<name>999</name>
</trkpt>
<trkpt lat="49.081343" lon="10.856850">
<ele>533.5</ele>
<speed>2.7</speed>
<course>147.7</course>
<desc>Speed 2.7 km/h Distance 25.48 km</desc>
<time>2010-07-31T14:15:21.50</time>
<name>1000</name>
</trkpt>
<trkpt lat="49.081338" lon="10.856855">
<ele>534.5</ele>
<speed>2.6</speed>
<course>111.6</course>
<desc>Speed 2.6 km/h Distance 25.48 km</desc>
<time>2010-07-31T14:15:22.47</time>
<name>1001</name>
</trkpt>
<trkpt lat="49.081337" lon="10.856862">
<ele>534.5</ele>
<speed>2.6</speed>
<course>66.3</course>
<desc>Speed 2.6 km/h Distance 25.48 km</desc>
<time>2010-07-31T14:15:23.46</time>
<name>1002</name>
</trkpt>
<trkpt lat="49.081340" lon="10.856873">
<ele>535.0</ele>
<speed>2.6</speed>
<course>7.4</course>
<desc>Speed 2.6 km/h Distance 25.49 km</desc>
<time>2010-07-31T14:15:24.47</time>
<name>1003</name>
</trkpt>
<trkpt lat="49.081347" lon="10.856875">
<ele>535.5</ele>
<speed>2.6</speed>
<course>33.2</course>
<desc>Speed 2.6 km/h Distance 25.49 km</desc>
<time>2010-07-31T14:15:25.47</time>
<name>1004</name>
</trkpt>
<trkpt lat="49.081352" lon="10.856880">
<ele>536.0</ele>
<speed>1.1</speed>
<course>33.7</course>
<desc>Speed 1.1 km/h Distance 25.49 km</desc>
<time>2010-07-31T14:15:26.47</time>
<name>1005</name>
</trkpt>
<trkpt lat="49.081355" lon="10.856883">
<ele>536.0</ele>
<speed>1.1</speed>
<course>37.2</course>
<desc>Speed 1.1 km/h Distance 25.49 km</desc>
<time>2010-07-31T14:15:27.47</time>
<name>1006</name>
</trkpt>
<trkpt lat="49.081357" lon="10.856885">
<ele>536.5</ele>
<speed>1.1</speed>
<course>81.3</course>
<desc>Speed 1.1 km/h Distance 25.49 km</desc>
<time>2010-07-31T14:15:28.46</time>
<name>1007</name>
</trkpt>
<trkpt lat="49.081358" lon="10.856902">
<ele>538.5</ele>
<speed>0.8</speed>
<course>337.0</course>
<desc>Speed 0.8 km/h Distance 25.49 km</desc>
<time>2010-07-31T14:15:29.46</time>
<name>1008</name>
</trkpt>
<trkpt lat="49.081392" lon="10.856880">
<ele>543.0</ele>
<speed>1.3</speed>
<course>52.4</course>
<desc>Speed 1.3 km/h Distance 25.49 km</desc>
<time>2010-07-31T14:15:31.46</time>
<name>1009</name>
</trkpt>
<trkpt lat="49.081395" lon="10.856887">
<ele>544.5</ele>
<speed>1.3</speed>
<course>290.9</course>
<desc>Speed 1.3 km/h Distance 25.49 km</desc>
<time>2010-07-31T14:15:32.47</time>
<name>1010</name>
</trkpt>
<trkpt lat="49.081398" lon="10.856873">
<ele>546.5</ele>
<speed>4.4</speed>
<course>284.2</course>
<desc>Speed 4.4 km/h Distance 25.49 km</desc>
<time>2010-07-31T14:15:33.46</time>
<name>1011</name>
</trkpt>
<trkpt lat="49.081400" lon="10.856863">
<ele>546.5</ele>
<speed>3.0</speed>
<course>90.0</course>
<desc>Speed 3.0 km/h Distance 25.50 km</desc>
<time>2010-07-31T14:15:34.49</time>
<name>1012</name>
</trkpt>
<trkpt lat="49.081400" lon="10.856873">
<ele>546.0</ele>
<speed>1.5</speed>
<course>128.1</course>
<desc>Speed 1.5 km/h Distance 25.50 km</desc>
<time>2010-07-31T14:15:35.46</time>
<name>1013</name>
</trkpt>
<trkpt lat="49.081397" lon="10.856880">
<ele>544.0</ele>
<speed>1.3</speed>
<course>12.6</course>
<desc>Speed 1.3 km/h Distance 25.50 km</desc>
<time>2010-07-31T14:15:36.46</time>
<name>1014</name>
</trkpt>
<trkpt lat="49.081398" lon="10.856880">
<ele>542.5</ele>
<speed>1.4</speed>
<course>150.8</course>
<desc>Speed 1.4 km/h Distance 25.50 km</desc>
<time>2010-07-31T14:15:37.46</time>
<name>1015</name>
</trkpt>
<trkpt lat="49.081397" lon="10.856882">
<ele>541.0</ele>
<speed>0.1</speed>
<course>128.1</course>
<desc>Speed 0.1 km/h Distance 25.50 km</desc>
<time>2010-07-31T14:15:38.46</time>
<name>1016</name>
</trkpt>
<trkpt lat="49.081395" lon="10.856885">
<ele>540.5</ele>
<speed>0.3</speed>
<course>217.2</course>
<desc>Speed 0.3 km/h Distance 25.50 km</desc>
<time>2010-07-31T14:15:39.46</time>
<name>1017</name>
</trkpt>
<trkpt lat="49.081393" lon="10.856883">
<ele>539.5</ele>
<speed>0.1</speed>
<course>217.2</course>
<desc>Speed 0.1 km/h Distance 25.50 km</desc>
<time>2010-07-31T14:15:40.46</time>
<name>1018</name>
</trkpt>
<trkpt lat="49.081393" lon="10.856883">
<ele>539.0</ele>
<speed>0.1</speed>
<course>233.9</course>
<desc>Speed 0.1 km/h Distance 25.50 km</desc>
<time>2010-07-31T14:15:41.46</time>
<name>1019</name>
</trkpt>
<trkpt lat="49.081392" lon="10.856880">
<ele>539.0</ele>
<speed>0.0</speed>
<course>90.0</course>
<desc>Speed 0.0 km/h Distance 25.50 km</desc>
<time>2010-07-31T14:15:42.46</time>
<name>1020</name>
</trkpt>
<trkpt lat="49.081392" lon="10.856882">
<ele>538.5</ele>
<speed>0.5</speed>
<course>90.0</course>
<desc>Speed 0.5 km/h Distance 25.50 km</desc>
<time>2010-07-31T14:15:43.46</time>
<name>1021</name>
</trkpt>
<trkpt lat="49.081392" lon="10.856887">
<ele>538.5</ele>
<speed>0.4</speed>
<course>128.1</course>
<desc>Speed 0.4 km/h Distance 25.50 km</desc>
<time>2010-07-31T14:15:44.46</time>
<name>1022</name>
</trkpt>
<trkpt lat="49.081390" lon="10.856890">
<ele>538.0</ele>
<speed>0.3</speed>
<course>90.0</course>
<desc>Speed 0.3 km/h Distance 25.50 km</desc>
<time>2010-07-31T14:15:45.46</time>
<name>1023</name>
</trkpt>
<trkpt lat="49.081390" lon="10.856895">
<ele>538.0</ele>
<speed>0.3</speed>
<course>90.0</course>
<desc>Speed 0.3 km/h Distance 25.50 km</desc>
<time>2010-07-31T14:15:46.45</time>
<name>1024</name>
</trkpt>
<trkpt lat="49.081390" lon="10.856897">
<ele>537.5</ele>
<speed>0.4</speed>
<course>128.1</course>
<desc>Speed 0.4 km/h Distance 25.50 km</desc>
<time>2010-07-31T14:15:47.46</time>
<name>1025</name>
</trkpt>
<trkpt lat="49.081388" lon="10.856900">
<ele>537.0</ele>
<speed>0.4</speed>
<course>150.8</course>
<desc>Speed 0.4 km/h Distance 25.50 km</desc>
<time>2010-07-31T14:15:48.45</time>
<name>1026</name>
</trkpt>
<trkpt lat="49.081387" lon="10.856902">
<ele>537.0</ele>
<speed>0.5</speed>
<course>139.1</course>
<desc>Speed 0.5 km/h Distance 25.50 km</desc>
<time>2010-07-31T14:15:49.46</time>
<name>1027</name>
</trkpt>
<trkpt lat="49.081382" lon="10.856908">
<ele>536.5</ele>
<speed>2.0</speed>
<course>69.1</course>
<desc>Speed 2.0 km/h Distance 25.50 km</desc>
<time>2010-07-31T14:15:50.46</time>
<name>1028</name>
</trkpt>
<trkpt lat="49.081383" lon="10.856915">
<ele>536.0</ele>
<speed>2.3</speed>
<course>58.6</course>
<desc>Speed 2.3 km/h Distance 25.50 km</desc>
<time>2010-07-31T14:15:51.46</time>
<name>1029</name>
</trkpt>
<trkpt lat="49.081387" lon="10.856923">
<ele>536.0</ele>
<speed>2.0</speed>
<course>52.6</course>
<desc>Speed 2.0 km/h Distance 25.50 km</desc>
<time>2010-07-31T14:15:52.45</time>
<name>1030</name>
</trkpt>
<trkpt lat="49.081397" lon="10.856943">
<ele>535.5</ele>
<speed>6.8</speed>
<course>180.0</course>
<desc>Speed 6.8 km/h Distance 25.50 km</desc>
<time>2010-07-31T14:15:53.45</time>
<name>1031</name>
</trkpt>
<trkpt lat="49.081388" lon="10.856943">
<ele>536.5</ele>
<speed>1.0</speed>
<course>26.4</course>
<desc>Speed 1.0 km/h Distance 25.50 km</desc>
<time>2010-07-31T14:15:54.46</time>
<name>1032</name>
</trkpt>
<trkpt lat="49.081395" lon="10.856948">
<ele>532.0</ele>
<speed>1.1</speed>
<course>192.6</course>
<desc>Speed 1.1 km/h Distance 25.50 km</desc>
<time>2010-07-31T14:15:55.46</time>
<name>1033</name>
</trkpt>
<trkpt lat="49.081390" lon="10.856947">
<ele>532.5</ele>
<speed>1.1</speed>
<course>192.6</course>
<desc>Speed 1.1 km/h Distance 25.51 km</desc>
<time>2010-07-31T14:15:56.45</time>
<name>1034</name>
</trkpt>
<trkpt lat="49.081387" lon="10.856945">
<ele>533.5</ele>
<speed>0.4</speed>
<course>209.2</course>
<desc>Speed 0.4 km/h Distance 25.51 km</desc>
<time>2010-07-31T14:15:57.46</time>
<name>1035</name>
</trkpt>
<trkpt lat="49.081385" lon="10.856943">
<ele>533.5</ele>
<speed>0.3</speed>
<course>167.4</course>
<desc>Speed 0.3 km/h Distance 25.51 km</desc>
<time>2010-07-31T14:15:58.45</time>
<name>1036</name>
</trkpt>
<trkpt lat="49.081383" lon="10.856943">
<ele>533.5</ele>
<speed>0.2</speed>
<course>12.6</course>
<desc>Speed 0.2 km/h Distance 25.51 km</desc>
<time>2010-07-31T14:15:59.45</time>
<name>1037</name>
</trkpt>
<trkpt lat="49.081385" lon="10.856943">
<ele>533.0</ele>
<speed>1.1</speed>
<course>315.5</course>
<desc>Speed 1.1 km/h Distance 25.51 km</desc>
<time>2010-07-31T14:16:00.45</time>
<name>1038</name>
</trkpt>
<trkpt lat="49.081392" lon="10.856933">
<ele>532.5</ele>
<speed>3.6</speed>
<course>319.1</course>
<desc>Speed 3.6 km/h Distance 25.51 km</desc>
<time>2010-07-31T14:16:01.45</time>
<name>1039</name>
</trkpt>
<trkpt lat="49.081397" lon="10.856927">
<ele>532.5</ele>
<speed>3.6</speed>
<course>3.9</course>
<desc>Speed 3.6 km/h Distance 25.51 km</desc>
<time>2010-07-31T14:16:02.44</time>
<name>1040</name>
</trkpt>
<trkpt lat="49.081410" lon="10.856928">
<ele>532.0</ele>
<speed>5.6</speed>
<course>146.8</course>
<desc>Speed 5.6 km/h Distance 25.51 km</desc>
<time>2010-07-31T14:16:03.45</time>
<name>1041</name>
</trkpt>
<trkpt lat="49.081403" lon="10.856935">
<ele>531.5</ele>
<speed>1.2</speed>
<course>90.0</course>
<desc>Speed 1.2 km/h Distance 25.51 km</desc>
<time>2010-07-31T14:16:04.45</time>
<name>1042</name>
</trkpt>
<trkpt lat="49.081403" lon="10.856938">
<ele>531.5</ele>
<speed>0.3</speed>
<course>90.0</course>
<desc>Speed 0.3 km/h Distance 25.51 km</desc>
<time>2010-07-31T14:16:05.45</time>
<name>1043</name>
</trkpt>
<trkpt lat="49.081403" lon="10.856942">
<ele>531.5</ele>
<speed>0.3</speed>
<course>90.0</course>
<desc>Speed 0.3 km/h Distance 25.51 km</desc>
<time>2010-07-31T14:16:06.45</time>
<name>1044</name>
</trkpt>
<trkpt lat="49.081403" lon="10.856945">
<ele>531.5</ele>
<speed>0.4</speed>
<course>132.2</course>
<desc>Speed 0.4 km/h Distance 25.51 km</desc>
<time>2010-07-31T14:16:07.45</time>
<name>1045</name>
</trkpt>
<trkpt lat="49.081398" lon="10.856953">
<ele>531.5</ele>
<speed>0.8</speed>
<course>158.5</course>
<desc>Speed 0.8 km/h Distance 25.51 km</desc>
<time>2010-07-31T14:16:08.45</time>
<name>1046</name>
</trkpt>
<trkpt lat="49.081390" lon="10.856958">
<ele>531.0</ele>
<speed>1.8</speed>
<course>158.5</course>
<desc>Speed 1.8 km/h Distance 25.51 km</desc>
<time>2010-07-31T14:16:09.44</time>
<name>1047</name>
</trkpt>
<trkpt lat="49.081390" lon="10.856960">
<ele>531.0</ele>
<speed>0.1</speed>
<course>224.5</course>
<desc>Speed 0.1 km/h Distance 25.51 km</desc>
<time>2010-07-31T14:16:10.44</time>
<name>1048</name>
</trkpt>
<trkpt lat="49.081383" lon="10.856950">
<ele>532.0</ele>
<speed>1.2</speed>
<course>203.0</course>
<desc>Speed 1.2 km/h Distance 25.51 km</desc>
<time>2010-07-31T14:16:11.45</time>
<name>1049</name>
</trkpt>
<trkpt lat="49.081380" lon="10.856948">
<ele>531.5</ele>
<speed>1.7</speed>
<course>52.6</course>
<desc>Speed 1.7 km/h Distance 25.51 km</desc>
<time>2010-07-31T14:16:12.45</time>
<name>1050</name>
</trkpt>
<trkpt lat="49.081385" lon="10.856958">
<ele>532.0</ele>
<speed>2.6</speed>
<course>117.4</course>
<desc>Speed 2.6 km/h Distance 25.52 km</desc>
<time>2010-07-31T14:16:13.45</time>
<name>1051</name>
</trkpt>
<trkpt lat="49.081383" lon="10.856963">
<ele>530.0</ele>
<speed>2.6</speed>
<course>206.4</course>
<desc>Speed 2.6 km/h Distance 25.52 km</desc>
<time>2010-07-31T14:16:14.44</time>
<name>1052</name>
</trkpt>
<trkpt lat="49.081377" lon="10.856958">
<ele>530.0</ele>
<speed>2.1</speed>
<course>37.0</course>
<desc>Speed 2.1 km/h Distance 25.52 km</desc>
<time>2010-07-31T14:16:15.45</time>
<name>1053</name>
</trkpt>
<trkpt lat="49.081422" lon="10.857010">
<ele>529.0</ele>
<speed>0.9</speed>
<course>44.5</course>
<desc>Speed 0.9 km/h Distance 25.52 km</desc>
<time>2010-07-31T14:16:17.44</time>
<name>1054</name>
</trkpt>
<trkpt lat="49.081428" lon="10.857020">
<ele>528.5</ele>
<speed>0.9</speed>
<course>90.0</course>
<desc>Speed 0.9 km/h Distance 25.52 km</desc>
<time>2010-07-31T14:16:18.45</time>
<name>1055</name>
</trkpt>
<trkpt lat="49.081428" lon="10.857022">
<ele>529.0</ele>
<speed>0.9</speed>
<course>252.9</course>
<desc>Speed 0.9 km/h Distance 25.52 km</desc>
<time>2010-07-31T14:16:19.44</time>
<name>1056</name>
</trkpt>
<trkpt lat="49.081427" lon="10.857013">
<ele>531.0</ele>
<speed>2.7</speed>
<course>228.2</course>
<desc>Speed 2.7 km/h Distance 25.53 km</desc>
<time>2010-07-31T14:16:20.44</time>
<name>1057</name>
</trkpt>
<trkpt lat="49.081398" lon="10.856965">
<ele>531.5</ele>
<speed>2.7</speed>
<course>205.4</course>
<desc>Speed 2.7 km/h Distance 25.53 km</desc>
<time>2010-07-31T14:16:22.45</time>
<name>1058</name>
</trkpt>
<trkpt lat="49.081393" lon="10.856962">
<ele>532.0</ele>
<speed>2.7</speed>
<course>227.5</course>
<desc>Speed 2.7 km/h Distance 25.53 km</desc>
<time>2010-07-31T14:16:23.44</time>
<name>1059</name>
</trkpt>
<trkpt lat="49.081378" lon="10.856937">
<ele>531.5</ele>
<speed>2.7</speed>
<course>243.0</course>
<desc>Speed 2.7 km/h Distance 25.53 km</desc>
<time>2010-07-31T14:16:24.44</time>
<name>1060</name>
</trkpt>
<trkpt lat="49.081375" lon="10.856927">
<ele>531.5</ele>
<speed>2.7</speed>
<course>243.0</course>
<desc>Speed 2.7 km/h Distance 25.53 km</desc>
<time>2010-07-31T14:16:25.43</time>
<name>1061</name>
</trkpt>
<trkpt lat="49.081375" lon="10.856927">
<ele>530.5</ele>
<speed>2.7</speed>
<course>263.8</course>
<desc>Speed 2.7 km/h Distance 25.53 km</desc>
<time>2010-07-31T14:16:26.44</time>
<name>1062</name>
</trkpt>
<trkpt lat="49.081373" lon="10.856903">
<ele>520.5</ele>
<speed>2.7</speed>
<course>161.8</course>
<desc>Speed 2.7 km/h Distance 25.54 km</desc>
<time>2010-07-31T14:16:27.44</time>
<name>1063</name>
</trkpt>
<trkpt lat="49.081363" lon="10.856908">
<ele>520.0</ele>
<speed>4.0</speed>
<course>351.5</course>
<desc>Speed 4.0 km/h Distance 25.54 km</desc>
<time>2010-07-31T14:16:28.44</time>
<name>1064</name>
</trkpt>
<trkpt lat="49.081400" lon="10.856900">
<ele>525.5</ele>
<speed>4.0</speed>
<course>90.0</course>
<desc>Speed 4.0 km/h Distance 25.54 km</desc>
<time>2010-07-31T14:16:30.44</time>
<name>1065</name>
</trkpt>
<trkpt lat="49.081400" lon="10.856903">
<ele>525.5</ele>
<speed>4.0</speed>
<course>167.4</course>
<desc>Speed 4.0 km/h Distance 25.54 km</desc>
<time>2010-07-31T14:16:31.44</time>
<name>1066</name>
</trkpt>
<trkpt lat="49.081395" lon="10.856905">
<ele>525.5</ele>
<speed>4.0</speed>
<course>142.8</course>
<desc>Speed 4.0 km/h Distance 25.54 km</desc>
<time>2010-07-31T14:16:32.44</time>
<name>1067</name>
</trkpt>
<trkpt lat="49.081393" lon="10.856907">
<ele>526.0</ele>
<speed>4.0</speed>
<course>167.4</course>
<desc>Speed 4.0 km/h Distance 25.54 km</desc>
<time>2010-07-31T14:16:33.43</time>
<name>1068</name>
</trkpt>
<trkpt lat="49.081390" lon="10.856908">
<ele>526.0</ele>
<speed>4.0</speed>
<course>244.0</course>
<desc>Speed 4.0 km/h Distance 25.54 km</desc>
<time>2010-07-31T14:16:34.43</time>
<name>1069</name>
</trkpt>
<trkpt lat="49.081377" lon="10.856867">
<ele>531.5</ele>
<speed>4.0</speed>
<course>123.3</course>
<desc>Speed 4.0 km/h Distance 25.55 km</desc>
<time>2010-07-31T14:16:35.95</time>
<name>1070</name>
</trkpt>
<trkpt lat="49.081372" lon="10.856878">
<ele>538.5</ele>
<speed>4.0</speed>
<course>121.4</course>
<desc>Speed 4.0 km/h Distance 25.55 km</desc>
<time>2010-07-31T14:16:37.43</time>
<name>1071</name>
</trkpt>
<trkpt lat="49.081368" lon="10.856887">
<ele>541.0</ele>
<speed>4.0</speed>
<course>243.0</course>
<desc>Speed 4.0 km/h Distance 25.55 km</desc>
<time>2010-07-31T14:16:38.43</time>
<name>1072</name>
</trkpt>
<trkpt lat="49.081365" lon="10.856877">
<ele>542.5</ele>
<speed>4.0</speed>
<course>242.6</course>
<desc>Speed 4.0 km/h Distance 25.55 km</desc>
<time>2010-07-31T14:16:39.43</time>
<name>1073</name>
</trkpt>
<trkpt lat="49.081363" lon="10.856872">
<ele>543.0</ele>
<speed>4.0</speed>
<course>301.3</course>
<desc>Speed 4.0 km/h Distance 25.55 km</desc>
<time>2010-07-31T14:16:40.43</time>
<name>1074</name>
</trkpt>
<trkpt lat="49.081370" lon="10.856855">
<ele>544.5</ele>
<speed>4.0</speed>
<course>270.0</course>
<desc>Speed 4.0 km/h Distance 25.55 km</desc>
<time>2010-07-31T14:16:41.43</time>
<name>1075</name>
</trkpt>
<trkpt lat="49.081370" lon="10.856848">
<ele>545.0</ele>
<speed>4.0</speed>
<course>270.0</course>
<desc>Speed 4.0 km/h Distance 25.55 km</desc>
<time>2010-07-31T14:16:42.43</time>
<name>1076</name>
</trkpt>
<trkpt lat="49.081370" lon="10.856827">
<ele>547.5</ele>
<speed>4.0</speed>
<course>290.9</course>
<desc>Speed 4.0 km/h Distance 25.55 km</desc>
<time>2010-07-31T14:16:43.43</time>
<name>1077</name>
</trkpt>
<trkpt lat="49.081372" lon="10.856820">
<ele>548.0</ele>
<speed>4.0</speed>
<course>90.0</course>
<desc>Speed 4.0 km/h Distance 25.55 km</desc>
<time>2010-07-31T14:16:44.43</time>
<name>1078</name>
</trkpt>
<trkpt lat="49.081372" lon="10.856827">
<ele>549.0</ele>
<speed>4.0</speed>
<course>90.0</course>
<desc>Speed 4.0 km/h Distance 25.55 km</desc>
<time>2010-07-31T14:16:45.43</time>
<name>1079</name>
</trkpt>
<trkpt lat="49.081372" lon="10.856832">
<ele>549.5</ele>
<speed>4.0</speed>
<course>172.0</course>
<desc>Speed 4.0 km/h Distance 25.55 km</desc>
<time>2010-07-31T14:16:46.43</time>
<name>1080</name>
</trkpt>
<trkpt lat="49.081255" lon="10.856857">
<ele>545.5</ele>
<speed>4.0</speed>
<course>147.4</course>
<desc>Speed 4.0 km/h Distance 25.57 km</desc>
<time>2010-07-31T14:16:49.42</time>
<name>1081</name>
</trkpt>
<trkpt lat="49.081248" lon="10.856863">
<ele>545.0</ele>
<speed>4.0</speed>
<course>90.0</course>
<desc>Speed 4.0 km/h Distance 25.57 km</desc>
<time>2010-07-31T14:16:50.42</time>
<name>1082</name>
</trkpt>
<trkpt lat="49.081248" lon="10.856867">
<ele>545.0</ele>
<speed>4.0</speed>
<course>106.9</course>
<desc>Speed 4.0 km/h Distance 25.57 km</desc>
<time>2010-07-31T14:16:51.42</time>
<name>1083</name>
</trkpt>
<trkpt lat="49.081247" lon="10.856875">
<ele>544.5</ele>
<speed>4.0</speed>
<course>104.4</course>
<desc>Speed 4.0 km/h Distance 25.57 km</desc>
<time>2010-07-31T14:16:52.42</time>
<name>1084</name>
</trkpt>
<trkpt lat="49.081245" lon="10.856885">
<ele>544.5</ele>
<speed>4.0</speed>
<course>124.1</course>
<desc>Speed 4.0 km/h Distance 25.57 km</desc>
<time>2010-07-31T14:16:53.42</time>
<name>1085</name>
</trkpt>
<trkpt lat="49.081238" lon="10.856900">
<ele>544.5</ele>
<speed>4.0</speed>
<course>127.3</course>
<desc>Speed 4.0 km/h Distance 25.57 km</desc>
<time>2010-07-31T14:16:54.42</time>
<name>1086</name>
</trkpt>
<trkpt lat="49.081232" lon="10.856913">
<ele>544.5</ele>
<speed>4.0</speed>
<course>130.3</course>
<desc>Speed 4.0 km/h Distance 25.57 km</desc>
<time>2010-07-31T14:16:55.42</time>
<name>1087</name>
</trkpt>
<trkpt lat="49.081223" lon="10.856928">
<ele>544.5</ele>
<speed>0.5</speed>
<course>113.5</course>
<desc>Speed 0.5 km/h Distance 25.57 km</desc>
<time>2010-07-31T14:16:56.42</time>
<name>1088</name>
</trkpt>
<trkpt lat="49.081220" lon="10.856940">
<ele>544.0</ele>
<speed>2.0</speed>
<course>308.1</course>
<desc>Speed 2.0 km/h Distance 25.57 km</desc>
<time>2010-07-31T14:16:57.42</time>
<name>1089</name>
</trkpt>
<trkpt lat="49.081222" lon="10.856937">
<ele>543.5</ele>
<speed>2.0</speed>
<course>0.0</course>
<desc>Speed 2.0 km/h Distance 25.57 km</desc>
<time>2010-07-31T14:16:58.42</time>
<name>1090</name>
</trkpt>
<trkpt lat="49.081223" lon="10.856937">
<ele>543.5</ele>
<speed>2.0</speed>
<course>50.2</course>
<desc>Speed 2.0 km/h Distance 25.57 km</desc>
<time>2010-07-31T14:16:59.42</time>
<name>1091</name>
</trkpt>
<trkpt lat="49.081233" lon="10.856955">
<ele>543.5</ele>
<speed>2.0</speed>
<course>16.0</course>
<desc>Speed 2.0 km/h Distance 25.58 km</desc>
<time>2010-07-31T14:17:00.42</time>
<name>1092</name>
</trkpt>
<trkpt lat="49.081248" lon="10.856962">
<ele>543.5</ele>
<speed>2.3</speed>
<course>18.9</course>
<desc>Speed 2.3 km/h Distance 25.58 km</desc>
<time>2010-07-31T14:17:01.43</time>
<name>1093</name>
</trkpt>
<trkpt lat="49.081318" lon="10.856998">
<ele>542.0</ele>
<speed>1.0</speed>
<course>309.8</course>
<desc>Speed 1.0 km/h Distance 25.59 km</desc>
<time>2010-07-31T14:17:03.42</time>
<name>1094</name>
</trkpt>
<trkpt lat="49.081328" lon="10.856980">
<ele>540.5</ele>
<speed>2.9</speed>
<course>75.9</course>
<desc>Speed 2.9 km/h Distance 25.59 km</desc>
<time>2010-07-31T14:17:04.42</time>
<name>1095</name>
</trkpt>
<trkpt lat="49.081330" lon="10.856990">
<ele>540.5</ele>
<speed>2.4</speed>
<course>53.0</course>
<desc>Speed 2.4 km/h Distance 25.59 km</desc>
<time>2010-07-31T14:17:05.43</time>
<name>1096</name>
</trkpt>
<trkpt lat="49.081333" lon="10.856997">
<ele>540.0</ele>
<speed>2.4</speed>
<course>90.0</course>
<desc>Speed 2.4 km/h Distance 25.59 km</desc>
<time>2010-07-31T14:17:06.42</time>
<name>1097</name>
</trkpt>
<trkpt lat="49.081333" lon="10.857002">
<ele>540.0</ele>
<speed>2.4</speed>
<course>270.0</course>
<desc>Speed 2.4 km/h Distance 25.59 km</desc>
<time>2010-07-31T14:17:07.42</time>
<name>1098</name>
</trkpt>
<trkpt lat="49.081333" lon="10.856988">
<ele>539.5</ele>
<speed>0.3</speed>
<course>18.8</course>
<desc>Speed 0.3 km/h Distance 25.59 km</desc>
<time>2010-07-31T14:17:08.42</time>
<name>1099</name>
</trkpt>
<trkpt lat="49.081337" lon="10.856990">
<ele>540.0</ele>
<speed>0.3</speed>
<course>312.6</course>
<desc>Speed 0.3 km/h Distance 25.59 km</desc>
<time>2010-07-31T14:17:09.41</time>
<name>1100</name>
</trkpt>
<trkpt lat="49.081347" lon="10.856973">
<ele>539.5</ele>
<speed>4.9</speed>
<course>167.4</course>
<desc>Speed 4.9 km/h Distance 25.59 km</desc>
<time>2010-07-31T14:17:10.42</time>
<name>1101</name>
</trkpt>
<trkpt lat="49.081345" lon="10.856975">
<ele>540.0</ele>
<speed>1.6</speed>
<course>213.2</course>
<desc>Speed 1.6 km/h Distance 25.59 km</desc>
<time>2010-07-31T14:17:11.42</time>
<name>1102</name>
</trkpt>
<trkpt lat="49.081340" lon="10.856970">
<ele>537.5</ele>
<speed>3.1</speed>
<course>90.0</course>
<desc>Speed 3.1 km/h Distance 25.59 km</desc>
<time>2010-07-31T14:17:12.42</time>
<name>1103</name>
</trkpt>
<trkpt lat="49.081340" lon="10.856978">
<ele>537.5</ele>
<speed>3.1</speed>
<course>90.0</course>
<desc>Speed 3.1 km/h Distance 25.59 km</desc>
<time>2010-07-31T14:17:13.42</time>
<name>1104</name>
</trkpt>
<trkpt lat="49.081340" lon="10.856980">
<ele>538.5</ele>
<speed>3.1</speed>
<course>4.4</course>
<desc>Speed 3.1 km/h Distance 25.59 km</desc>
<time>2010-07-31T14:17:14.42</time>
<name>1105</name>
</trkpt>
<trkpt lat="49.081350" lon="10.856982">
<ele>539.0</ele>
<speed>3.5</speed>
<course>270.0</course>
<desc>Speed 3.5 km/h Distance 25.60 km</desc>
<time>2010-07-31T14:17:15.42</time>
<name>1106</name>
</trkpt>
<trkpt lat="49.081350" lon="10.856977">
<ele>538.5</ele>
<speed>0.3</speed>
<course>25.6</course>
<desc>Speed 0.3 km/h Distance 25.60 km</desc>
<time>2010-07-31T14:17:16.41</time>
<name>1107</name>
</trkpt>
<trkpt lat="49.081357" lon="10.856982">
<ele>538.5</ele>
<speed>3.2</speed>
<course>217.2</course>
<desc>Speed 3.2 km/h Distance 25.60 km</desc>
<time>2010-07-31T14:17:17.41</time>
<name>1108</name>
</trkpt>
<trkpt lat="49.081355" lon="10.856980">
<ele>539.5</ele>
<speed>3.2</speed>
<course>37.2</course>
<desc>Speed 3.2 km/h Distance 25.60 km</desc>
<time>2010-07-31T14:17:18.42</time>
<name>1109</name>
</trkpt>
<trkpt lat="49.081357" lon="10.856982">
<ele>539.5</ele>
<speed>3.2</speed>
<course>12.6</course>
<desc>Speed 3.2 km/h Distance 25.60 km</desc>
<time>2010-07-31T14:17:19.42</time>
<name>1110</name>
</trkpt>
<trkpt lat="49.081360" lon="10.856983">
<ele>540.0</ele>
<speed>3.2</speed>
<course>30.6</course>
<desc>Speed 3.2 km/h Distance 25.60 km</desc>
<time>2010-07-31T14:17:20.42</time>
<name>1111</name>
</trkpt>
<trkpt lat="49.081377" lon="10.856998">
<ele>539.5</ele>
<speed>9.7</speed>
<course>110.9</course>
<desc>Speed 9.7 km/h Distance 25.60 km</desc>
<time>2010-07-31T14:17:21.41</time>
<name>1112</name>
</trkpt>
<trkpt lat="49.081375" lon="10.857005">
<ele>540.0</ele>
<speed>1.3</speed>
<course>296.6</course>
<desc>Speed 1.3 km/h Distance 25.60 km</desc>
<time>2010-07-31T14:17:23.41</time>
<name>1113</name>
</trkpt>
<trkpt lat="49.081377" lon="10.857000">
<ele>539.5</ele>
<speed>3.0</speed>
<course>33.2</course>
<desc>Speed 3.0 km/h Distance 25.60 km</desc>
<time>2010-07-31T14:17:24.41</time>
<name>1114</name>
</trkpt>
<trkpt lat="49.081382" lon="10.857005">
<ele>539.5</ele>
<speed>3.3</speed>
<course>23.0</course>
<desc>Speed 3.3 km/h Distance 25.60 km</desc>
<time>2010-07-31T14:17:25.41</time>
<name>1115</name>
</trkpt>
<trkpt lat="49.081385" lon="10.857007">
<ele>540.0</ele>
<speed>2.2</speed>
<course>224.5</course>
<desc>Speed 2.2 km/h Distance 25.60 km</desc>
<time>2010-07-31T14:17:26.41</time>
<name>1116</name>
</trkpt>
<trkpt lat="49.081378" lon="10.856997">
<ele>540.5</ele>
<speed>2.2</speed>
<course>175.0</course>
<desc>Speed 2.2 km/h Distance 25.60 km</desc>
<time>2010-07-31T14:17:27.42</time>
<name>1117</name>
</trkpt>
<trkpt lat="49.081370" lon="10.856997">
<ele>541.5</ele>
<speed>3.4</speed>
<course>167.4</course>
<desc>Speed 3.4 km/h Distance 25.60 km</desc>
<time>2010-07-31T14:17:28.58</time>
<name>1118</name>
</trkpt>
<trkpt lat="49.081368" lon="10.856997">
<ele>542.0</ele>
<speed>3.4</speed>
<course>30.2</course>
<desc>Speed 3.4 km/h Distance 25.60 km</desc>
<time>2010-07-31T14:17:29.41</time>
<name>1119</name>
</trkpt>
<trkpt lat="49.081383" lon="10.857010">
<ele>541.0</ele>
<speed>3.4</speed>
<course>167.4</course>
<desc>Speed 3.4 km/h Distance 25.61 km</desc>
<time>2010-07-31T14:17:30.41</time>
<name>1120</name>
</trkpt>
<trkpt lat="49.081382" lon="10.857010">
<ele>540.0</ele>
<speed>2.9</speed>
<course>48.7</course>
<desc>Speed 2.9 km/h Distance 25.61 km</desc>
<time>2010-07-31T14:17:31.41</time>
<name>1121</name>
</trkpt>
<trkpt lat="49.081388" lon="10.857022">
<ele>540.5</ele>
<speed>2.9</speed>
<course>82.5</course>
<desc>Speed 2.9 km/h Distance 25.61 km</desc>
<time>2010-07-31T14:17:32.41</time>
<name>1122</name>
</trkpt>
<trkpt lat="49.081393" lon="10.857080">
<ele>541.0</ele>
<speed>7.0</speed>
<course>93.5</course>
<desc>Speed 7.0 km/h Distance 25.61 km</desc>
<time>2010-07-31T14:17:34.41</time>
<name>1123</name>
</trkpt>
<trkpt lat="49.081392" lon="10.857122">
<ele>541.0</ele>
<speed>11.4</speed>
<course>149.8</course>
<desc>Speed 11.4 km/h Distance 25.61 km</desc>
<time>2010-07-31T14:17:35.41</time>
<name>1124</name>
</trkpt>
<trkpt lat="49.081377" lon="10.857135">
<ele>539.5</ele>
<speed>7.4</speed>
<course>193.6</course>
<desc>Speed 7.4 km/h Distance 25.62 km</desc>
<time>2010-07-31T14:17:36.41</time>
<name>1125</name>
</trkpt>
<trkpt lat="49.081345" lon="10.857123">
<ele>533.5</ele>
<speed>10.3</speed>
<course>164.0</course>
<desc>Speed 10.3 km/h Distance 25.62 km</desc>
<time>2010-07-31T14:17:37.40</time>
<name>1126</name>
</trkpt>
<trkpt lat="49.081318" lon="10.857135">
<ele>534.5</ele>
<speed>12.1</speed>
<course>188.4</course>
<desc>Speed 12.1 km/h Distance 25.62 km</desc>
<time>2010-07-31T14:17:38.40</time>
<name>1127</name>
</trkpt>
<trkpt lat="49.081090" lon="10.857083">
<ele>543.0</ele>
<speed>25.2</speed>
<course>144.9</course>
<desc>Speed 25.2 km/h Distance 25.65 km</desc>
<time>2010-07-31T14:17:41.39</time>
<name>1128</name>
</trkpt>
<trkpt lat="49.081023" lon="10.857155">
<ele>542.0</ele>
<speed>17.4</speed>
<course>133.9</course>
<desc>Speed 17.4 km/h Distance 25.66 km</desc>
<time>2010-07-31T14:17:43.40</time>
<name>1129</name>
</trkpt>
<trkpt lat="49.080612" lon="10.857808">
<ele>539.5</ele>
<speed>50.9</speed>
<course>139.3</course>
<desc>Speed 50.9 km/h Distance 25.72 km</desc>
<time>2010-07-31T14:17:48.38</time>
<name>1130</name>
</trkpt>
<trkpt lat="49.080527" lon="10.857920">
<ele>539.0</ele>
<speed>47.1</speed>
<course>132.4</course>
<desc>Speed 47.1 km/h Distance 25.74 km</desc>
<time>2010-07-31T14:17:49.40</time>
<name>1131</name>
</trkpt>
<trkpt lat="49.080202" lon="10.858463">
<ele>537.0</ele>
<speed>65.8</speed>
<course>134.3</course>
<desc>Speed 65.8 km/h Distance 25.79 km</desc>
<time>2010-07-31T14:17:52.39</time>
<name>1132</name>
</trkpt>
<trkpt lat="49.079940" lon="10.858873">
<ele>535.0</ele>
<speed>74.8</speed>
<course>132.8</course>
<desc>Speed 74.8 km/h Distance 25.83 km</desc>
<time>2010-07-31T14:17:54.39</time>
<name>1133</name>
</trkpt>
<trkpt lat="49.079650" lon="10.859352">
<ele>534.5</ele>
<speed>85.8</speed>
<course>133.1</course>
<desc>Speed 85.8 km/h Distance 25.88 km</desc>
<time>2010-07-31T14:17:56.39</time>
<name>1134</name>
</trkpt>
<trkpt lat="49.079313" lon="10.859900">
<ele>533.5</ele>
<speed>95.0</speed>
<course>132.3</course>
<desc>Speed 95.0 km/h Distance 25.93 km</desc>
<time>2010-07-31T14:17:58.39</time>
<name>1135</name>
</trkpt>
<trkpt lat="49.079147" lon="10.860180">
<ele>533.5</ele>
<speed>99.1</speed>
<course>134.8</course>
<desc>Speed 99.1 km/h Distance 25.96 km</desc>
<time>2010-07-31T14:17:59.38</time>
<name>1136</name>
</trkpt>
<trkpt lat="49.078967" lon="10.860457">
<ele>531.5</ele>
<speed>100</speed>
<course>129.7</course>
<desc>Speed 100 km/h Distance 25.99 km</desc>
<time>2010-07-31T14:18:00.38</time>
<name>1137</name>
</trkpt>
<trkpt lat="49.078618" lon="10.861097">
<ele>531.0</ele>
<speed>106</speed>
<course>132.8</course>
<desc>Speed 106 km/h Distance 26.05 km</desc>
<time>2010-07-31T14:18:02.38</time>
<name>1138</name>
</trkpt>
<trkpt lat="49.078437" lon="10.861397">
<ele>531.0</ele>
<speed>107</speed>
<course>132.9</course>
<desc>Speed 107 km/h Distance 26.08 km</desc>
<time>2010-07-31T14:18:03.38</time>
<name>1139</name>
</trkpt>
<trkpt lat="49.078048" lon="10.862035">
<ele>530.0</ele>
<speed>112</speed>
<course>133.4</course>
<desc>Speed 112 km/h Distance 26.14 km</desc>
<time>2010-07-31T14:18:05.38</time>
<name>1140</name>
</trkpt>
<trkpt lat="49.077848" lon="10.862358">
<ele>530.0</ele>
<speed>118</speed>
<course>132.3</course>
<desc>Speed 118 km/h Distance 26.18 km</desc>
<time>2010-07-31T14:18:06.38</time>
<name>1141</name>
</trkpt>
<trkpt lat="49.077417" lon="10.863083">
<ele>530.5</ele>
<speed>123</speed>
<course>133.0</course>
<desc>Speed 123 km/h Distance 26.25 km</desc>
<time>2010-07-31T14:18:08.38</time>
<name>1142</name>
</trkpt>
<trkpt lat="49.077215" lon="10.863413">
<ele>530.5</ele>
<speed>119</speed>
<course>132.9</course>
<desc>Speed 119 km/h Distance 26.28 km</desc>
<time>2010-07-31T14:18:09.38</time>
<name>1143</name>
</trkpt>
<trkpt lat="49.077020" lon="10.863733">
<ele>530.5</ele>
<speed>116</speed>
<course>132.1</course>
<desc>Speed 116 km/h Distance 26.31 km</desc>
<time>2010-07-31T14:18:10.37</time>
<name>1144</name>
</trkpt>
<trkpt lat="49.076837" lon="10.864043">
<ele>529.5</ele>
<speed>115</speed>
<course>128.6</course>
<desc>Speed 115 km/h Distance 26.34 km</desc>
<time>2010-07-31T14:18:11.38</time>
<name>1145</name>
</trkpt>
<trkpt lat="49.076660" lon="10.864382">
<ele>528.5</ele>
<speed>115</speed>
<course>122.7</course>
<desc>Speed 115 km/h Distance 26.37 km</desc>
<time>2010-07-31T14:18:12.37</time>
<name>1146</name>
</trkpt>
<trkpt lat="49.076510" lon="10.864738">
<ele>527.5</ele>
<speed>112</speed>
<course>117.4</course>
<desc>Speed 112 km/h Distance 26.41 km</desc>
<time>2010-07-31T14:18:13.37</time>
<name>1147</name>
</trkpt>
<trkpt lat="49.076377" lon="10.865132">
<ele>528.0</ele>
<speed>116</speed>
<course>115.1</course>
<desc>Speed 116 km/h Distance 26.44 km</desc>
<time>2010-07-31T14:18:14.37</time>
<name>1148</name>
</trkpt>
<trkpt lat="49.076250" lon="10.865545">
<ele>527.5</ele>
<speed>120</speed>
<course>115.6</course>
<desc>Speed 120 km/h Distance 26.47 km</desc>
<time>2010-07-31T14:18:15.37</time>
<name>1149</name>
</trkpt>
<trkpt lat="49.076115" lon="10.865975">
<ele>527.5</ele>
<speed>126</speed>
<course>112.9</course>
<desc>Speed 126 km/h Distance 26.51 km</desc>
<time>2010-07-31T14:18:16.38</time>
<name>1150</name>
</trkpt>
<trkpt lat="49.075992" lon="10.866422">
<ele>526.5</ele>
<speed>127</speed>
<course>109.8</course>
<desc>Speed 127 km/h Distance 26.54 km</desc>
<time>2010-07-31T14:18:17.38</time>
<name>1151</name>
</trkpt>
<trkpt lat="49.075883" lon="10.866880">
<ele>526.5</ele>
<speed>128</speed>
<course>112.1</course>
<desc>Speed 128 km/h Distance 26.58 km</desc>
<time>2010-07-31T14:18:18.37</time>
<name>1152</name>
</trkpt>
<trkpt lat="49.075627" lon="10.867845">
<ele>524.5</ele>
<speed>139</speed>
<course>111.3</course>
<desc>Speed 139 km/h Distance 26.65 km</desc>
<time>2010-07-31T14:18:20.38</time>
<name>1153</name>
</trkpt>
<trkpt lat="49.075500" lon="10.868340">
<ele>523.5</ele>
<speed>141</speed>
<course>111.3</course>
<desc>Speed 141 km/h Distance 26.69 km</desc>
<time>2010-07-31T14:18:21.37</time>
<name>1154</name>
</trkpt>
<trkpt lat="49.075372" lon="10.868842">
<ele>522.5</ele>
<speed>142</speed>
<course>112.3</course>
<desc>Speed 142 km/h Distance 26.73 km</desc>
<time>2010-07-31T14:18:22.36</time>
<name>1155</name>
</trkpt>
<trkpt lat="49.075235" lon="10.869350">
<ele>521.0</ele>
<speed>144</speed>
<course>112.3</course>
<desc>Speed 144 km/h Distance 26.77 km</desc>
<time>2010-07-31T14:18:23.37</time>
<name>1156</name>
</trkpt>
<trkpt lat="49.075097" lon="10.869865">
<ele>520.5</ele>
<speed>147</speed>
<course>111.5</course>
<desc>Speed 147 km/h Distance 26.81 km</desc>
<time>2010-07-31T14:18:24.37</time>
<name>1157</name>
</trkpt>
<trkpt lat="49.074967" lon="10.870370">
<ele>519.5</ele>
<speed>143</speed>
<course>112.0</course>
<desc>Speed 143 km/h Distance 26.85 km</desc>
<time>2010-07-31T14:18:25.36</time>
<name>1158</name>
</trkpt>
<trkpt lat="49.074690" lon="10.871413">
<ele>519.0</ele>
<speed>146</speed>
<course>111.4</course>
<desc>Speed 146 km/h Distance 26.93 km</desc>
<time>2010-07-31T14:18:27.39</time>
<name>1159</name>
</trkpt>
<trkpt lat="49.074562" lon="10.871913">
<ele>517.5</ele>
<speed>141</speed>
<course>111.7</course>
<desc>Speed 141 km/h Distance 26.97 km</desc>
<time>2010-07-31T14:18:28.38</time>
<name>1160</name>
</trkpt>
<trkpt lat="49.074433" lon="10.872407">
<ele>516.0</ele>
<speed>140</speed>
<course>111.5</course>
<desc>Speed 140 km/h Distance 27.01 km</desc>
<time>2010-07-31T14:18:29.36</time>
<name>1161</name>
</trkpt>
<trkpt lat="49.074305" lon="10.872905">
<ele>515.5</ele>
<speed>141</speed>
<course>111.6</course>
<desc>Speed 141 km/h Distance 27.05 km</desc>
<time>2010-07-31T14:18:30.38</time>
<name>1162</name>
</trkpt>
<trkpt lat="49.074177" lon="10.873400">
<ele>515.5</ele>
<speed>140</speed>
<course>111.7</course>
<desc>Speed 140 km/h Distance 27.09 km</desc>
<time>2010-07-31T14:18:31.37</time>
<name>1163</name>
</trkpt>
<trkpt lat="49.074052" lon="10.873878">
<ele>515.0</ele>
<speed>135</speed>
<course>111.0</course>
<desc>Speed 135 km/h Distance 27.13 km</desc>
<time>2010-07-31T14:18:32.37</time>
<name>1164</name>
</trkpt>
<trkpt lat="49.073933" lon="10.874348">
<ele>514.0</ele>
<speed>132</speed>
<course>111.8</course>
<desc>Speed 132 km/h Distance 27.16 km</desc>
<time>2010-07-31T14:18:33.36</time>
<name>1165</name>
</trkpt>
<trkpt lat="49.073808" lon="10.874825">
<ele>514.0</ele>
<speed>136</speed>
<course>107.8</course>
<desc>Speed 136 km/h Distance 27.20 km</desc>
<time>2010-07-31T14:18:34.36</time>
<name>1166</name>
</trkpt>
<trkpt lat="49.073707" lon="10.875308">
<ele>514.0</ele>
<speed>134</speed>
<course>108.1</course>
<desc>Speed 134 km/h Distance 27.24 km</desc>
<time>2010-07-31T14:18:35.35</time>
<name>1167</name>
</trkpt>
<trkpt lat="49.073603" lon="10.875792">
<ele>514.0</ele>
<speed>133</speed>
<course>104.6</course>
<desc>Speed 133 km/h Distance 27.27 km</desc>
<time>2010-07-31T14:18:36.36</time>
<name>1168</name>
</trkpt>
<trkpt lat="49.073520" lon="10.876280">
<ele>514.0</ele>
<speed>132</speed>
<course>104.6</course>
<desc>Speed 132 km/h Distance 27.31 km</desc>
<time>2010-07-31T14:18:37.36</time>
<name>1169</name>
</trkpt>
<trkpt lat="49.073437" lon="10.876767">
<ele>513.5</ele>
<speed>132</speed>
<course>103.3</course>
<desc>Speed 132 km/h Distance 27.35 km</desc>
<time>2010-07-31T14:18:38.36</time>
<name>1170</name>
</trkpt>
<trkpt lat="49.073360" lon="10.877263">
<ele>513.5</ele>
<speed>134</speed>
<course>103.4</course>
<desc>Speed 134 km/h Distance 27.39 km</desc>
<time>2010-07-31T14:18:39.36</time>
<name>1171</name>
</trkpt>
<trkpt lat="49.073285" lon="10.877745">
<ele>512.5</ele>
<speed>132</speed>
<course>104.6</course>
<desc>Speed 132 km/h Distance 27.42 km</desc>
<time>2010-07-31T14:18:40.35</time>
<name>1172</name>
</trkpt>
<trkpt lat="49.073205" lon="10.878215">
<ele>510.5</ele>
<speed>128</speed>
<course>103.7</course>
<desc>Speed 128 km/h Distance 27.46 km</desc>
<time>2010-07-31T14:18:41.36</time>
<name>1173</name>
</trkpt>
<trkpt lat="49.073127" lon="10.878705">
<ele>510.5</ele>
<speed>132</speed>
<course>103.9</course>
<desc>Speed 132 km/h Distance 27.49 km</desc>
<time>2010-07-31T14:18:42.36</time>
<name>1174</name>
</trkpt>
<trkpt lat="49.073048" lon="10.879188">
<ele>510.5</ele>
<speed>130</speed>
<course>103.7</course>
<desc>Speed 130 km/h Distance 27.53 km</desc>
<time>2010-07-31T14:18:43.35</time>
<name>1175</name>
</trkpt>
<trkpt lat="49.072973" lon="10.879657">
<ele>510.0</ele>
<speed>128</speed>
<course>105.5</course>
<desc>Speed 128 km/h Distance 27.56 km</desc>
<time>2010-07-31T14:18:44.36</time>
<name>1176</name>
</trkpt>
<trkpt lat="49.072888" lon="10.880125">
<ele>510.0</ele>
<speed>127</speed>
<course>102.9</course>
<desc>Speed 127 km/h Distance 27.60 km</desc>
<time>2010-07-31T14:18:45.36</time>
<name>1177</name>
</trkpt>
<trkpt lat="49.072820" lon="10.880580">
<ele>509.0</ele>
<speed>127</speed>
<course>102.0</course>
<desc>Speed 127 km/h Distance 27.63 km</desc>
<time>2010-07-31T14:18:46.37</time>
<name>1178</name>
</trkpt>
<trkpt lat="49.072755" lon="10.881048">
<ele>508.5</ele>
<speed>127</speed>
<course>93.3</course>
<desc>Speed 127 km/h Distance 27.67 km</desc>
<time>2010-07-31T14:18:47.35</time>
<name>1179</name>
</trkpt>
<trkpt lat="49.072737" lon="10.881533">
<ele>509.5</ele>
<speed>127</speed>
<course>99.1</course>
<desc>Speed 127 km/h Distance 27.70 km</desc>
<time>2010-07-31T14:18:48.36</time>
<name>1180</name>
</trkpt>
<trkpt lat="49.072688" lon="10.881993">
<ele>509.0</ele>
<speed>124</speed>
<course>97.1</course>
<desc>Speed 124 km/h Distance 27.74 km</desc>
<time>2010-07-31T14:18:49.36</time>
<name>1181</name>
</trkpt>
<trkpt lat="49.072652" lon="10.882440">
<ele>509.0</ele>
<speed>120</speed>
<course>96.1</course>
<desc>Speed 120 km/h Distance 27.77 km</desc>
<time>2010-07-31T14:18:50.35</time>
<name>1182</name>
</trkpt>
<trkpt lat="49.072622" lon="10.882870">
<ele>508.5</ele>
<speed>116</speed>
<course>92.4</course>
<desc>Speed 116 km/h Distance 27.80 km</desc>
<time>2010-07-31T14:18:51.35</time>
<name>1183</name>
</trkpt>
<trkpt lat="49.072610" lon="10.883297">
<ele>508.0</ele>
<speed>114</speed>
<course>90.0</course>
<desc>Speed 114 km/h Distance 27.83 km</desc>
<time>2010-07-31T14:18:52.35</time>
<name>1184</name>
</trkpt>
<trkpt lat="49.072610" lon="10.883708">
<ele>507.0</ele>
<speed>109</speed>
<course>83.3</course>
<desc>Speed 109 km/h Distance 27.86 km</desc>
<time>2010-07-31T14:18:53.35</time>
<name>1185</name>
</trkpt>
<trkpt lat="49.072640" lon="10.884097">
<ele>507.0</ele>
<speed>103</speed>
<course>86.6</course>
<desc>Speed 103 km/h Distance 27.89 km</desc>
<time>2010-07-31T14:18:54.35</time>
<name>1186</name>
</trkpt>
<trkpt lat="49.072667" lon="10.884777">
<ele>506.5</ele>
<speed>95.9</speed>
<course>84.4</course>
<desc>Speed 95.9 km/h Distance 27.94 km</desc>
<time>2010-07-31T14:18:56.35</time>
<name>1187</name>
</trkpt>
<trkpt lat="49.072707" lon="10.885403">
<ele>506.0</ele>
<speed>87.5</speed>
<course>80.0</course>
<desc>Speed 87.5 km/h Distance 27.99 km</desc>
<time>2010-07-31T14:18:58.34</time>
<name>1188</name>
</trkpt>
<trkpt lat="49.072742" lon="10.885707">
<ele>506.5</ele>
<speed>82.2</speed>
<course>81.6</course>
<desc>Speed 82.2 km/h Distance 28.01 km</desc>
<time>2010-07-31T14:18:59.34</time>
<name>1189</name>
</trkpt>
<trkpt lat="49.072772" lon="10.886017">
<ele>506.0</ele>
<speed>80.9</speed>
<course>79.0</course>
<desc>Speed 80.9 km/h Distance 28.03 km</desc>
<time>2010-07-31T14:19:00.34</time>
<name>1190</name>
</trkpt>
<trkpt lat="49.072812" lon="10.886332">
<ele>507.5</ele>
<speed>82.8</speed>
<course>86.0</course>
<desc>Speed 82.8 km/h Distance 28.06 km</desc>
<time>2010-07-31T14:19:01.35</time>
<name>1191</name>
</trkpt>
<trkpt lat="49.072837" lon="10.886882">
<ele>507.0</ele>
<speed>70.6</speed>
<course>86.0</course>
<desc>Speed 70.6 km/h Distance 28.10 km</desc>
<time>2010-07-31T14:19:03.34</time>
<name>1192</name>
</trkpt>
<trkpt lat="49.072848" lon="10.887138">
<ele>507.0</ele>
<speed>66.7</speed>
<course>87.7</course>
<desc>Speed 66.7 km/h Distance 28.12 km</desc>
<time>2010-07-31T14:19:04.34</time>
<name>1193</name>
</trkpt>
<trkpt lat="49.072855" lon="10.887392">
<ele>507.0</ele>
<speed>65.5</speed>
<course>88.3</course>
<desc>Speed 65.5 km/h Distance 28.13 km</desc>
<time>2010-07-31T14:19:05.34</time>
<name>1194</name>
</trkpt>
<trkpt lat="49.072860" lon="10.887645">
<ele>507.0</ele>
<speed>64.1</speed>
<course>86.4</course>
<desc>Speed 64.1 km/h Distance 28.15 km</desc>
<time>2010-07-31T14:19:06.34</time>
<name>1195</name>
</trkpt>
<trkpt lat="49.072870" lon="10.887887">
<ele>507.5</ele>
<speed>62.5</speed>
<course>96.0</course>
<desc>Speed 62.5 km/h Distance 28.17 km</desc>
<time>2010-07-31T14:19:07.34</time>
<name>1196</name>
</trkpt>
<trkpt lat="49.072853" lon="10.888128">
<ele>507.5</ele>
<speed>60.7</speed>
<course>105.2</course>
<desc>Speed 60.7 km/h Distance 28.19 km</desc>
<time>2010-07-31T14:19:08.34</time>
<name>1197</name>
</trkpt>
<trkpt lat="49.072810" lon="10.888372">
<ele>507.5</ele>
<speed>63.1</speed>
<course>115.1</course>
<desc>Speed 63.1 km/h Distance 28.21 km</desc>
<time>2010-07-31T14:19:09.34</time>
<name>1198</name>
</trkpt>
<trkpt lat="49.072658" lon="10.888865">
<ele>508.0</ele>
<speed>46.2</speed>
<course>147.8</course>
<desc>Speed 46.2 km/h Distance 28.25 km</desc>
<time>2010-07-31T14:19:12.33</time>
<name>1199</name>
</trkpt>
<trkpt lat="49.072402" lon="10.889112">
<ele>507.0</ele>
<speed>56.4</speed>
<course>169.1</course>
<desc>Speed 56.4 km/h Distance 28.28 km</desc>
<time>2010-07-31T14:19:14.34</time>
<name>1200</name>
</trkpt>
<trkpt lat="49.072062" lon="10.889212">
<ele>510.0</ele>
<speed>56.7</speed>
<course>162.9</course>
<desc>Speed 56.7 km/h Distance 28.32 km</desc>
<time>2010-07-31T14:19:16.34</time>
<name>1201</name>
</trkpt>
<trkpt lat="49.071920" lon="10.889278">
<ele>509.5</ele>
<speed>54.2</speed>
<course>158.0</course>
<desc>Speed 54.2 km/h Distance 28.34 km</desc>
<time>2010-07-31T14:19:17.33</time>
<name>1202</name>
</trkpt>
<trkpt lat="49.071790" lon="10.889358">
<ele>511.5</ele>
<speed>47.9</speed>
<course>152.6</course>
<desc>Speed 47.9 km/h Distance 28.35 km</desc>
<time>2010-07-31T14:19:18.33</time>
<name>1203</name>
</trkpt>
<trkpt lat="49.071687" lon="10.889440">
<ele>511.0</ele>
<speed>46.0</speed>
<course>133.8</course>
<desc>Speed 46.0 km/h Distance 28.36 km</desc>
<time>2010-07-31T14:19:19.34</time>
<name>1204</name>
</trkpt>
<trkpt lat="49.071605" lon="10.889570">
<ele>511.0</ele>
<speed>45.9</speed>
<course>94.0</course>
<desc>Speed 45.9 km/h Distance 28.38 km</desc>
<time>2010-07-31T14:19:20.33</time>
<name>1205</name>
</trkpt>
<trkpt lat="49.071597" lon="10.889753">
<ele>511.0</ele>
<speed>47.8</speed>
<course>76.8</course>
<desc>Speed 47.8 km/h Distance 28.39 km</desc>
<time>2010-07-31T14:19:21.33</time>
<name>1206</name>
</trkpt>
<trkpt lat="49.071627" lon="10.889948">
<ele>510.0</ele>
<speed>51.0</speed>
<course>78.0</course>
<desc>Speed 51.0 km/h Distance 28.41 km</desc>
<time>2010-07-31T14:19:22.33</time>
<name>1207</name>
</trkpt>
<trkpt lat="49.071657" lon="10.890163">
<ele>509.5</ele>
<speed>57.0</speed>
<course>74.1</course>
<desc>Speed 57.0 km/h Distance 28.42 km</desc>
<time>2010-07-31T14:19:23.33</time>
<name>1208</name>
</trkpt>
<trkpt lat="49.071693" lon="10.890360">
<ele>509.0</ele>
<speed>53.4</speed>
<course>75.3</course>
<desc>Speed 53.4 km/h Distance 28.44 km</desc>
<time>2010-07-31T14:19:24.33</time>
<name>1209</name>
</trkpt>
<trkpt lat="49.071772" lon="10.890817">
<ele>510.0</ele>
<speed>59.0</speed>
<course>66.0</course>
<desc>Speed 59.0 km/h Distance 28.47 km</desc>
<time>2010-07-31T14:19:26.33</time>
<name>1210</name>
</trkpt>
<trkpt lat="49.071835" lon="10.891033">
<ele>510.0</ele>
<speed>62.4</speed>
<course>67.2</course>
<desc>Speed 62.4 km/h Distance 28.49 km</desc>
<time>2010-07-31T14:19:27.33</time>
<name>1211</name>
</trkpt>
<trkpt lat="49.071893" lon="10.891245">
<ele>510.0</ele>
<speed>60.8</speed>
<course>66.9</course>
<desc>Speed 60.8 km/h Distance 28.50 km</desc>
<time>2010-07-31T14:19:28.33</time>
<name>1212</name>
</trkpt>
<trkpt lat="49.071957" lon="10.891472">
<ele>509.5</ele>
<speed>65.7</speed>
<course>69.9</course>
<desc>Speed 65.7 km/h Distance 28.52 km</desc>
<time>2010-07-31T14:19:29.33</time>
<name>1213</name>
</trkpt>
<trkpt lat="49.072018" lon="10.891728">
<ele>511.0</ele>
<speed>72.7</speed>
<course>72.8</course>
<desc>Speed 72.7 km/h Distance 28.54 km</desc>
<time>2010-07-31T14:19:30.33</time>
<name>1214</name>
</trkpt>
<trkpt lat="49.072070" lon="10.891983">
<ele>510.0</ele>
<speed>70.0</speed>
<course>77.2</course>
<desc>Speed 70.0 km/h Distance 28.56 km</desc>
<time>2010-07-31T14:19:31.33</time>
<name>1215</name>
</trkpt>
<trkpt lat="49.072105" lon="10.892218">
<ele>509.5</ele>
<speed>66.6</speed>
<course>92.5</course>
<desc>Speed 66.6 km/h Distance 28.58 km</desc>
<time>2010-07-31T14:19:32.32</time>
<name>1216</name>
</trkpt>
<trkpt lat="49.072078" lon="10.893137">
<ele>506.0</ele>
<speed>72.7</speed>
<course>77.6</course>
<desc>Speed 72.7 km/h Distance 28.65 km</desc>
<time>2010-07-31T14:19:35.32</time>
<name>1217</name>
</trkpt>
<trkpt lat="49.072175" lon="10.893807">
<ele>503.0</ele>
<speed>63.3</speed>
<course>96.3</course>
<desc>Speed 63.3 km/h Distance 28.70 km</desc>
<time>2010-07-31T14:19:38.32</time>
<name>1218</name>
</trkpt>
<trkpt lat="49.072157" lon="10.894062">
<ele>503.5</ele>
<speed>66.1</speed>
<course>100.3</course>
<desc>Speed 66.1 km/h Distance 28.72 km</desc>
<time>2010-07-31T14:19:39.32</time>
<name>1219</name>
</trkpt>
<trkpt lat="49.072125" lon="10.894327">
<ele>503.5</ele>
<speed>68.9</speed>
<course>110.4</course>
<desc>Speed 68.9 km/h Distance 28.73 km</desc>
<time>2010-07-31T14:19:40.32</time>
<name>1220</name>
</trkpt>
<trkpt lat="49.071990" lon="10.894882">
<ele>503.5</ele>
<speed>76.8</speed>
<course>110.2</course>
<desc>Speed 76.8 km/h Distance 28.78 km</desc>
<time>2010-07-31T14:19:42.31</time>
<name>1221</name>
</trkpt>
<trkpt lat="49.071742" lon="10.895912">
<ele>503.0</ele>
<speed>97.1</speed>
<course>109.3</course>
<desc>Speed 97.1 km/h Distance 28.86 km</desc>
<time>2010-07-31T14:19:45.32</time>
<name>1222</name>
</trkpt>
<trkpt lat="49.071453" lon="10.897172">
<ele>503.5</ele>
<speed>114</speed>
<course>112.5</course>
<desc>Speed 114 km/h Distance 28.96 km</desc>
<time>2010-07-31T14:19:48.32</time>
<name>1223</name>
</trkpt>
<trkpt lat="49.071340" lon="10.897590">
<ele>503.5</ele>
<speed>118</speed>
<course>112.5</course>
<desc>Speed 118 km/h Distance 28.99 km</desc>
<time>2010-07-31T14:19:49.31</time>
<name>1224</name>
</trkpt>
<trkpt lat="49.071228" lon="10.898002">
<ele>503.5</ele>
<speed>117</speed>
<course>112.1</course>
<desc>Speed 117 km/h Distance 29.02 km</desc>
<time>2010-07-31T14:19:50.31</time>
<name>1225</name>
</trkpt>
<trkpt lat="49.070998" lon="10.898868">
<ele>505.0</ele>
<speed>121</speed>
<course>113.9</course>
<desc>Speed 121 km/h Distance 29.09 km</desc>
<time>2010-07-31T14:19:52.31</time>
<name>1226</name>
</trkpt>
<trkpt lat="49.070872" lon="10.899305">
<ele>506.5</ele>
<speed>125</speed>
<course>115.6</course>
<desc>Speed 125 km/h Distance 29.12 km</desc>
<time>2010-07-31T14:19:53.31</time>
<name>1227</name>
</trkpt>
<trkpt lat="49.070738" lon="10.899730">
<ele>507.0</ele>
<speed>123</speed>
<course>117.6</course>
<desc>Speed 123 km/h Distance 29.16 km</desc>
<time>2010-07-31T14:19:54.31</time>
<name>1228</name>
</trkpt>
<trkpt lat="49.070592" lon="10.900158">
<ele>506.0</ele>
<speed>127</speed>
<course>123.4</course>
<desc>Speed 127 km/h Distance 29.19 km</desc>
<time>2010-07-31T14:19:55.31</time>
<name>1229</name>
</trkpt>
<trkpt lat="49.070220" lon="10.901020">
<ele>507.0</ele>
<speed>135</speed>
<course>124.1</course>
<desc>Speed 135 km/h Distance 29.27 km</desc>
<time>2010-07-31T14:19:57.32</time>
<name>1230</name>
</trkpt>
<trkpt lat="49.070032" lon="10.901445">
<ele>507.5</ele>
<speed>134</speed>
<course>124.9</course>
<desc>Speed 134 km/h Distance 29.31 km</desc>
<time>2010-07-31T14:19:58.31</time>
<name>1231</name>
</trkpt>
<trkpt lat="49.069522" lon="10.902562">
<ele>509.0</ele>
<speed>123</speed>
<course>124.2</course>
<desc>Speed 123 km/h Distance 29.41 km</desc>
<time>2010-07-31T14:20:01.31</time>
<name>1232</name>
</trkpt>
<trkpt lat="49.069345" lon="10.902958">
<ele>510.0</ele>
<speed>124</speed>
<course>120.2</course>
<desc>Speed 124 km/h Distance 29.44 km</desc>
<time>2010-07-31T14:20:02.31</time>
<name>1233</name>
</trkpt>
<trkpt lat="49.069188" lon="10.903370">
<ele>510.0</ele>
<speed>122</speed>
<course>113.8</course>
<desc>Speed 122 km/h Distance 29.48 km</desc>
<time>2010-07-31T14:20:03.31</time>
<name>1234</name>
</trkpt>
<trkpt lat="49.068950" lon="10.904193">
<ele>508.5</ele>
<speed>129</speed>
<course>107.1</course>
<desc>Speed 129 km/h Distance 29.54 km</desc>
<time>2010-07-31T14:20:05.30</time>
<name>1235</name>
</trkpt>
<trkpt lat="49.068680" lon="10.905535">
<ele>506.0</ele>
<speed>135</speed>
<course>103.3</course>
<desc>Speed 135 km/h Distance 29.64 km</desc>
<time>2010-07-31T14:20:08.31</time>
<name>1236</name>
</trkpt>
<trkpt lat="49.068513" lon="10.906612">
<ele>508.0</ele>
<speed>139</speed>
<course>102.5</course>
<desc>Speed 139 km/h Distance 29.72 km</desc>
<time>2010-07-31T14:20:10.30</time>
<name>1237</name>
</trkpt>
<trkpt lat="49.068352" lon="10.907722">
<ele>510.5</ele>
<speed>143</speed>
<course>105.0</course>
<desc>Speed 143 km/h Distance 29.81 km</desc>
<time>2010-07-31T14:20:12.30</time>
<name>1238</name>
</trkpt>
<trkpt lat="49.068258" lon="10.908252">
<ele>510.5</ele>
<speed>142</speed>
<course>104.8</course>
<desc>Speed 142 km/h Distance 29.85 km</desc>
<time>2010-07-31T14:20:13.30</time>
<name>1239</name>
</trkpt>
<trkpt lat="49.068168" lon="10.908773">
<ele>511.0</ele>
<speed>140</speed>
<course>104.6</course>
<desc>Speed 140 km/h Distance 29.89 km</desc>
<time>2010-07-31T14:20:14.30</time>
<name>1240</name>
</trkpt>
<trkpt lat="49.068080" lon="10.909292">
<ele>511.0</ele>
<speed>139</speed>
<course>105.4</course>
<desc>Speed 139 km/h Distance 29.93 km</desc>
<time>2010-07-31T14:20:15.29</time>
<name>1241</name>
</trkpt>
<trkpt lat="49.067988" lon="10.909800">
<ele>511.0</ele>
<speed>138</speed>
<course>106.8</course>
<desc>Speed 138 km/h Distance 29.96 km</desc>
<time>2010-07-31T14:20:16.29</time>
<name>1242</name>
</trkpt>
<trkpt lat="49.067887" lon="10.910315">
<ele>511.5</ele>
<speed>137</speed>
<course>107.9</course>
<desc>Speed 137 km/h Distance 30.00 km</desc>
<time>2010-07-31T14:20:17.30</time>
<name>1243</name>
</trkpt>
<trkpt lat="49.067778" lon="10.910828">
<ele>512.0</ele>
<speed>137</speed>
<course>110.9</course>
<desc>Speed 137 km/h Distance 30.04 km</desc>
<time>2010-07-31T14:20:18.29</time>
<name>1244</name>
</trkpt>
<trkpt lat="49.067655" lon="10.911322">
<ele>511.5</ele>
<speed>134</speed>
<course>110.9</course>
<desc>Speed 134 km/h Distance 30.08 km</desc>
<time>2010-07-31T14:20:19.30</time>
<name>1245</name>
</trkpt>
<trkpt lat="49.067408" lon="10.912310">
<ele>512.5</ele>
<speed>135</speed>
<course>111.3</course>
<desc>Speed 135 km/h Distance 30.16 km</desc>
<time>2010-07-31T14:20:21.30</time>
<name>1246</name>
</trkpt>
<trkpt lat="49.067285" lon="10.912793">
<ele>513.0</ele>
<speed>132</speed>
<course>111.4</course>
<desc>Speed 132 km/h Distance 30.20 km</desc>
<time>2010-07-31T14:20:22.29</time>
<name>1247</name>
</trkpt>
<trkpt lat="49.067165" lon="10.913260">
<ele>513.5</ele>
<speed>130</speed>
<course>111.3</course>
<desc>Speed 130 km/h Distance 30.23 km</desc>
<time>2010-07-31T14:20:23.29</time>
<name>1248</name>
</trkpt>
<trkpt lat="49.066852" lon="10.914488">
<ele>515.0</ele>
<speed>116</speed>
<course>116.2</course>
<desc>Speed 116 km/h Distance 30.33 km</desc>
<time>2010-07-31T14:20:26.30</time>
<name>1249</name>
</trkpt>
<trkpt lat="49.066725" lon="10.914882">
<ele>515.5</ele>
<speed>113</speed>
<course>121.1</course>
<desc>Speed 113 km/h Distance 30.36 km</desc>
<time>2010-07-31T14:20:27.30</time>
<name>1250</name>
</trkpt>
<trkpt lat="49.066413" lon="10.915670">
<ele>515.5</ele>
<speed>119</speed>
<course>122.8</course>
<desc>Speed 119 km/h Distance 30.43 km</desc>
<time>2010-07-31T14:20:29.30</time>
<name>1251</name>
</trkpt>
<trkpt lat="49.065868" lon="10.916962">
<ele>517.0</ele>
<speed>137</speed>
<course>122.8</course>
<desc>Speed 137 km/h Distance 30.54 km</desc>
<time>2010-07-31T14:20:32.29</time>
<name>1252</name>
</trkpt>
<trkpt lat="49.065690" lon="10.917383">
<ele>516.5</ele>
<speed>131</speed>
<course>123.0</course>
<desc>Speed 131 km/h Distance 30.58 km</desc>
<time>2010-07-31T14:20:33.29</time>
<name>1253</name>
</trkpt>
<trkpt lat="49.065508" lon="10.917810">
<ele>516.5</ele>
<speed>134</speed>
<course>124.1</course>
<desc>Speed 134 km/h Distance 30.61 km</desc>
<time>2010-07-31T14:20:34.29</time>
<name>1254</name>
</trkpt>
<trkpt lat="49.065013" lon="10.918925">
<ele>516.0</ele>
<speed>116</speed>
<course>120.1</course>
<desc>Speed 116 km/h Distance 30.71 km</desc>
<time>2010-07-31T14:20:37.28</time>
<name>1255</name>
</trkpt>
<trkpt lat="49.064698" lon="10.919753">
<ele>515.5</ele>
<speed>119</speed>
<course>108.3</course>
<desc>Speed 119 km/h Distance 30.78 km</desc>
<time>2010-07-31T14:20:39.29</time>
<name>1256</name>
</trkpt>
<trkpt lat="49.064493" lon="10.920702">
<ele>516.0</ele>
<speed>129</speed>
<course>103.2</course>
<desc>Speed 129 km/h Distance 30.85 km</desc>
<time>2010-07-31T14:20:41.29</time>
<name>1257</name>
</trkpt>
<trkpt lat="49.064298" lon="10.921973">
<ele>515.0</ele>
<speed>150</speed>
<course>103.3</course>
<desc>Speed 150 km/h Distance 30.95 km</desc>
<time>2010-07-31T14:20:44.29</time>
<name>1258</name>
</trkpt>
<trkpt lat="49.064213" lon="10.922520">
<ele>514.5</ele>
<speed>145</speed>
<course>103.5</course>
<desc>Speed 145 km/h Distance 30.99 km</desc>
<time>2010-07-31T14:20:45.29</time>
<name>1259</name>
</trkpt>
<trkpt lat="49.064128" lon="10.923060">
<ele>514.5</ele>
<speed>142</speed>
<course>103.6</course>
<desc>Speed 142 km/h Distance 31.03 km</desc>
<time>2010-07-31T14:20:46.28</time>
<name>1260</name>
</trkpt>
<trkpt lat="49.064045" lon="10.923587">
<ele>514.5</ele>
<speed>139</speed>
<course>104.2</course>
<desc>Speed 139 km/h Distance 31.07 km</desc>
<time>2010-07-31T14:20:47.28</time>
<name>1261</name>
</trkpt>
<trkpt lat="49.063962" lon="10.924090">
<ele>513.5</ele>
<speed>134</speed>
<course>103.0</course>
<desc>Speed 134 km/h Distance 31.11 km</desc>
<time>2010-07-31T14:20:48.28</time>
<name>1262</name>
</trkpt>
<trkpt lat="49.063885" lon="10.924597">
<ele>513.5</ele>
<speed>132</speed>
<course>102.7</course>
<desc>Speed 132 km/h Distance 31.15 km</desc>
<time>2010-07-31T14:20:49.27</time>
<name>1263</name>
</trkpt>
<trkpt lat="49.063812" lon="10.925093">
<ele>513.5</ele>
<speed>128</speed>
<course>103.3</course>
<desc>Speed 128 km/h Distance 31.18 km</desc>
<time>2010-07-31T14:20:50.28</time>
<name>1264</name>
</trkpt>
<trkpt lat="49.063738" lon="10.925565">
<ele>513.5</ele>
<speed>126</speed>
<course>102.9</course>
<desc>Speed 126 km/h Distance 31.22 km</desc>
<time>2010-07-31T14:20:51.27</time>
<name>1265</name>
</trkpt>
<trkpt lat="49.063670" lon="10.926022">
<ele>512.5</ele>
<speed>123</speed>
<course>103.3</course>
<desc>Speed 123 km/h Distance 31.25 km</desc>
<time>2010-07-31T14:20:52.27</time>
<name>1266</name>
</trkpt>
<trkpt lat="49.063533" lon="10.926905">
<ele>512.0</ele>
<speed>116</speed>
<course>101.4</course>
<desc>Speed 116 km/h Distance 31.32 km</desc>
<time>2010-07-31T14:20:54.28</time>
<name>1267</name>
</trkpt>
<trkpt lat="49.063425" lon="10.927725">
<ele>511.5</ele>
<speed>106</speed>
<course>101.4</course>
<desc>Speed 106 km/h Distance 31.38 km</desc>
<time>2010-07-31T14:20:56.28</time>
<name>1268</name>
</trkpt>
<trkpt lat="49.063320" lon="10.928522">
<ele>511.5</ele>
<speed>106</speed>
<course>101.7</course>
<desc>Speed 106 km/h Distance 31.44 km</desc>
<time>2010-07-31T14:20:58.27</time>
<name>1269</name>
</trkpt>
<trkpt lat="49.063220" lon="10.929258">
<ele>511.5</ele>
<speed>106</speed>
<course>103.4</course>
<desc>Speed 106 km/h Distance 31.49 km</desc>
<time>2010-07-31T14:21:00.26</time>
<name>1270</name>
</trkpt>
<trkpt lat="49.063048" lon="10.930362">
<ele>514.0</ele>
<speed>106</speed>
<course>96.0</course>
<desc>Speed 106 km/h Distance 31.58 km</desc>
<time>2010-07-31T14:21:05.27</time>
<name>1271</name>
</trkpt>
<trkpt lat="49.062963" lon="10.931593">
<ele>514.0</ele>
<speed>123</speed>
<course>102.9</course>
<desc>Speed 123 km/h Distance 31.67 km</desc>
<time>2010-07-31T14:21:08.27</time>
<name>1272</name>
</trkpt>
<trkpt lat="49.062428" lon="10.935167">
<ele>516.5</ele>
<speed>132</speed>
<course>112.2</course>
<desc>Speed 132 km/h Distance 31.93 km</desc>
<time>2010-07-31T14:21:14.27</time>
<name>1273</name>
</trkpt>
<trkpt lat="49.062030" lon="10.936655">
<ele>515.0</ele>
<speed>119</speed>
<course>112.5</course>
<desc>Speed 119 km/h Distance 32.05 km</desc>
<time>2010-07-31T14:21:18.25</time>
<name>1274</name>
</trkpt>
<trkpt lat="49.061787" lon="10.937552">
<ele>514.0</ele>
<speed>113</speed>
<course>111.9</course>
<desc>Speed 113 km/h Distance 32.12 km</desc>
<time>2010-07-31T14:21:20.26</time>
<name>1275</name>
</trkpt>
<trkpt lat="49.061550" lon="10.938450">
<ele>513.5</ele>
<speed>116</speed>
<course>110.3</course>
<desc>Speed 116 km/h Distance 32.19 km</desc>
<time>2010-07-31T14:21:22.26</time>
<name>1276</name>
</trkpt>
<trkpt lat="49.061373" lon="10.939178">
<ele>512.5</ele>
<speed>116</speed>
<course>92.4</course>
<desc>Speed 116 km/h Distance 32.25 km</desc>
<time>2010-07-31T14:21:24.26</time>
<name>1277</name>
</trkpt>
<trkpt lat="49.061302" lon="10.941773">
<ele>507.0</ele>
<speed>116</speed>
<course>93.0</course>
<desc>Speed 116 km/h Distance 32.44 km</desc>
<time>2010-07-31T14:21:30.26</time>
<name>1278</name>
</trkpt>
<trkpt lat="49.061225" lon="10.943978">
<ele>504.5</ele>
<speed>94.2</speed>
<course>96.0</course>
<desc>Speed 94.2 km/h Distance 32.60 km</desc>
<time>2010-07-31T14:21:34.26</time>
<name>1279</name>
</trkpt>
<trkpt lat="49.061170" lon="10.944773">
<ele>504.0</ele>
<speed>101</speed>
<course>89.0</course>
<desc>Speed 101 km/h Distance 32.66 km</desc>
<time>2010-07-31T14:21:36.27</time>
<name>1280</name>
</trkpt>
<trkpt lat="49.061178" lon="10.945520">
<ele>501.0</ele>
<speed>107</speed>
<course>89.6</course>
<desc>Speed 107 km/h Distance 32.71 km</desc>
<time>2010-07-31T14:21:38.26</time>
<name>1281</name>
</trkpt>
<trkpt lat="49.061182" lon="10.946280">
<ele>495.0</ele>
<speed>101</speed>
<course>91.9</course>
<desc>Speed 101 km/h Distance 32.77 km</desc>
<time>2010-07-31T14:21:40.25</time>
<name>1282</name>
</trkpt>
<trkpt lat="49.061167" lon="10.946987">
<ele>488.5</ele>
<speed>96.9</speed>
<course>91.3</course>
<desc>Speed 96.9 km/h Distance 32.82 km</desc>
<time>2010-07-31T14:21:42.26</time>
<name>1283</name>
</trkpt>
<trkpt lat="49.061157" lon="10.947637">
<ele>480.5</ele>
<speed>96.6</speed>
<course>94.4</course>
<desc>Speed 96.6 km/h Distance 32.87 km</desc>
<time>2010-07-31T14:21:44.25</time>
<name>1284</name>
</trkpt>
<trkpt lat="49.061120" lon="10.948360">
<ele>477.0</ele>
<speed>96.6</speed>
<course>91.3</course>
<desc>Speed 96.6 km/h Distance 32.92 km</desc>
<time>2010-07-31T14:21:46.24</time>
<name>1285</name>
</trkpt>
<trkpt lat="49.061110" lon="10.949023">
<ele>472.0</ele>
<speed>90.1</speed>
<course>92.3</course>
<desc>Speed 90.1 km/h Distance 32.97 km</desc>
<time>2010-07-31T14:21:48.24</time>
<name>1286</name>
</trkpt>
<trkpt lat="49.061093" lon="10.949643">
<ele>469.0</ele>
<speed>79.1</speed>
<course>92.0</course>
<desc>Speed 79.1 km/h Distance 33.01 km</desc>
<time>2010-07-31T14:21:50.24</time>
<name>1287</name>
</trkpt>
<trkpt lat="49.061080" lon="10.950225">
<ele>468.0</ele>
<speed>78.2</speed>
<course>95.1</course>
<desc>Speed 78.2 km/h Distance 33.06 km</desc>
<time>2010-07-31T14:21:52.24</time>
<name>1288</name>
</trkpt>
<trkpt lat="49.061052" lon="10.950710">
<ele>462.5</ele>
<speed>69.4</speed>
<course>91.6</course>
<desc>Speed 69.4 km/h Distance 33.09 km</desc>
<time>2010-07-31T14:21:54.24</time>
<name>1289</name>
</trkpt>
<trkpt lat="49.061042" lon="10.951245">
<ele>461.0</ele>
<speed>71.2</speed>
<course>91.7</course>
<desc>Speed 71.2 km/h Distance 33.13 km</desc>
<time>2010-07-31T14:21:56.24</time>
<name>1290</name>
</trkpt>
<trkpt lat="49.061032" lon="10.951768">
<ele>458.0</ele>
<speed>72.7</speed>
<course>92.6</course>
<desc>Speed 72.7 km/h Distance 33.17 km</desc>
<time>2010-07-31T14:21:58.24</time>
<name>1291</name>
</trkpt>
<trkpt lat="49.061015" lon="10.952330">
<ele>454.5</ele>
<speed>78.2</speed>
<course>90.7</course>
<desc>Speed 78.2 km/h Distance 33.21 km</desc>
<time>2010-07-31T14:22:00.24</time>
<name>1292</name>
</trkpt>
<trkpt lat="49.061010" lon="10.952955">
<ele>453.0</ele>
<speed>85.4</speed>
<course>91.6</course>
<desc>Speed 85.4 km/h Distance 33.26 km</desc>
<time>2010-07-31T14:22:02.24</time>
<name>1293</name>
</trkpt>
<trkpt lat="49.060972" lon="10.955070">
<ele>453.0</ele>
<speed>123</speed>
<course>93.1</course>
<desc>Speed 123 km/h Distance 33.41 km</desc>
<time>2010-07-31T14:22:07.24</time>
<name>1294</name>
</trkpt>
<trkpt lat="49.060938" lon="10.956005">
<ele>453.0</ele>
<speed>123</speed>
<course>97.0</course>
<desc>Speed 123 km/h Distance 33.48 km</desc>
<time>2010-07-31T14:22:09.24</time>
<name>1295</name>
</trkpt>
<trkpt lat="49.060792" lon="10.957837">
<ele>452.5</ele>
<speed>55.2</speed>
<course>128.5</course>
<desc>Speed 55.2 km/h Distance 33.61 km</desc>
<time>2010-07-31T14:22:15.24</time>
<name>1296</name>
</trkpt>
<trkpt lat="49.060585" lon="10.958233">
<ele>452.0</ele>
<speed>50.3</speed>
<course>159.2</course>
<desc>Speed 50.3 km/h Distance 33.65 km</desc>
<time>2010-07-31T14:22:18.23</time>
<name>1297</name>
</trkpt>
<trkpt lat="49.060383" lon="10.958350">
<ele>450.0</ele>
<speed>50.3</speed>
<course>175.1</course>
<desc>Speed 50.3 km/h Distance 33.67 km</desc>
<time>2010-07-31T14:22:20.24</time>
<name>1298</name>
</trkpt>
<trkpt lat="49.060152" lon="10.958380">
<ele>445.5</ele>
<speed>50.3</speed>
<course>158.9</course>
<desc>Speed 50.3 km/h Distance 33.70 km</desc>
<time>2010-07-31T14:22:22.23</time>
<name>1299</name>
</trkpt>
<trkpt lat="49.059423" lon="10.958810">
<ele>445.0</ele>
<speed>66.5</speed>
<course>164.4</course>
<desc>Speed 66.5 km/h Distance 33.79 km</desc>
<time>2010-07-31T14:22:26.23</time>
<name>1300</name>
</trkpt>
<trkpt lat="49.058818" lon="10.959068">
<ele>445.0</ele>
<speed>78.4</speed>
<course>163.7</course>
<desc>Speed 78.4 km/h Distance 33.86 km</desc>
<time>2010-07-31T14:22:29.23</time>
<name>1301</name>
</trkpt>
<trkpt lat="49.057530" lon="10.959645">
<ele>444.0</ele>
<speed>114</speed>
<course>161.8</course>
<desc>Speed 114 km/h Distance 34.01 km</desc>
<time>2010-07-31T14:22:34.23</time>
<name>1302</name>
</trkpt>
<trkpt lat="49.056955" lon="10.959933">
<ele>444.0</ele>
<speed>123</speed>
<course>156.4</course>
<desc>Speed 123 km/h Distance 34.07 km</desc>
<time>2010-07-31T14:22:36.23</time>
<name>1303</name>
</trkpt>
<trkpt lat="49.056378" lon="10.960318">
<ele>443.0</ele>
<speed>123</speed>
<course>153.8</course>
<desc>Speed 123 km/h Distance 34.14 km</desc>
<time>2010-07-31T14:22:38.22</time>
<name>1304</name>
</trkpt>
<trkpt lat="49.055820" lon="10.960737">
<ele>444.0</ele>
<speed>122</speed>
<course>154.1</course>
<desc>Speed 122 km/h Distance 34.21 km</desc>
<time>2010-07-31T14:22:40.22</time>
<name>1305</name>
</trkpt>
<trkpt lat="49.055293" lon="10.961127">
<ele>444.5</ele>
<speed>115</speed>
<course>152.4</course>
<desc>Speed 115 km/h Distance 34.28 km</desc>
<time>2010-07-31T14:22:42.21</time>
<name>1306</name>
</trkpt>
<trkpt lat="49.054790" lon="10.961528">
<ele>445.0</ele>
<speed>112</speed>
<course>150.8</course>
<desc>Speed 112 km/h Distance 34.34 km</desc>
<time>2010-07-31T14:22:44.21</time>
<name>1307</name>
</trkpt>
<trkpt lat="49.054312" lon="10.961937">
<ele>445.0</ele>
<speed>108</speed>
<course>148.4</course>
<desc>Speed 108 km/h Distance 34.40 km</desc>
<time>2010-07-31T14:22:46.22</time>
<name>1308</name>
</trkpt>
<trkpt lat="49.053860" lon="10.962360">
<ele>445.0</ele>
<speed>106</speed>
<course>146.2</course>
<desc>Speed 106 km/h Distance 34.46 km</desc>
<time>2010-07-31T14:22:48.21</time>
<name>1309</name>
</trkpt>
<trkpt lat="49.053423" lon="10.962807">
<ele>444.5</ele>
<speed>104</speed>
<course>143.2</course>
<desc>Speed 104 km/h Distance 34.52 km</desc>
<time>2010-07-31T14:22:50.22</time>
<name>1310</name>
</trkpt>
<trkpt lat="49.053007" lon="10.963282">
<ele>444.5</ele>
<speed>104</speed>
<course>142.3</course>
<desc>Speed 104 km/h Distance 34.58 km</desc>
<time>2010-07-31T14:22:52.22</time>
<name>1311</name>
</trkpt>
<trkpt lat="49.052597" lon="10.963765">
<ele>444.0</ele>
<speed>104</speed>
<course>140.4</course>
<desc>Speed 104 km/h Distance 34.64 km</desc>
<time>2010-07-31T14:22:54.22</time>
<name>1312</name>
</trkpt>
<trkpt lat="49.052192" lon="10.964277">
<ele>444.0</ele>
<speed>106</speed>
<course>138.0</course>
<desc>Speed 106 km/h Distance 34.69 km</desc>
<time>2010-07-31T14:22:56.21</time>
<name>1313</name>
</trkpt>
<trkpt lat="49.051798" lon="10.964817">
<ele>443.5</ele>
<speed>107</speed>
<course>134.5</course>
<desc>Speed 107 km/h Distance 34.75 km</desc>
<time>2010-07-31T14:22:58.20</time>
<name>1314</name>
</trkpt>
<trkpt lat="49.051417" lon="10.965408">
<ele>444.0</ele>
<speed>108</speed>
<course>132.6</course>
<desc>Speed 108 km/h Distance 34.81 km</desc>
<time>2010-07-31T14:23:00.21</time>
<name>1315</name>
</trkpt>
<trkpt lat="49.051048" lon="10.966020">
<ele>443.5</ele>
<speed>110</speed>
<course>130.7</course>
<desc>Speed 110 km/h Distance 34.87 km</desc>
<time>2010-07-31T14:23:02.21</time>
<name>1316</name>
</trkpt>
<trkpt lat="49.050693" lon="10.966650">
<ele>443.0</ele>
<speed>110</speed>
<course>129.1</course>
<desc>Speed 110 km/h Distance 34.93 km</desc>
<time>2010-07-31T14:23:04.20</time>
<name>1317</name>
</trkpt>
<trkpt lat="49.050347" lon="10.967302">
<ele>443.0</ele>
<speed>111</speed>
<course>128.9</course>
<desc>Speed 111 km/h Distance 35.00 km</desc>
<time>2010-07-31T14:23:06.20</time>
<name>1318</name>
</trkpt>
<trkpt lat="49.050002" lon="10.967953">
<ele>443.0</ele>
<speed>111</speed>
<course>127.8</course>
<desc>Speed 111 km/h Distance 35.06 km</desc>
<time>2010-07-31T14:23:08.21</time>
<name>1319</name>
</trkpt>
<trkpt lat="49.049665" lon="10.968615">
<ele>443.0</ele>
<speed>111</speed>
<course>127.5</course>
<desc>Speed 111 km/h Distance 35.12 km</desc>
<time>2010-07-31T14:23:10.21</time>
<name>1320</name>
</trkpt>
<trkpt lat="49.049335" lon="10.969270">
<ele>442.5</ele>
<speed>111</speed>
<course>126.7</course>
<desc>Speed 111 km/h Distance 35.18 km</desc>
<time>2010-07-31T14:23:12.21</time>
<name>1321</name>
</trkpt>
<trkpt lat="49.049008" lon="10.969938">
<ele>443.0</ele>
<speed>111</speed>
<course>126.7</course>
<desc>Speed 111 km/h Distance 35.24 km</desc>
<time>2010-07-31T14:23:14.20</time>
<name>1322</name>
</trkpt>
<trkpt lat="49.048680" lon="10.970610">
<ele>444.0</ele>
<speed>110</speed>
<course>127.0</course>
<desc>Speed 110 km/h Distance 35.30 km</desc>
<time>2010-07-31T14:23:16.19</time>
<name>1323</name>
</trkpt>
<trkpt lat="49.048352" lon="10.971275">
<ele>444.5</ele>
<speed>109</speed>
<course>126.6</course>
<desc>Speed 109 km/h Distance 35.36 km</desc>
<time>2010-07-31T14:23:18.19</time>
<name>1324</name>
</trkpt>
<trkpt lat="49.048032" lon="10.971933">
<ele>445.5</ele>
<speed>108</speed>
<course>127.1</course>
<desc>Speed 108 km/h Distance 35.42 km</desc>
<time>2010-07-31T14:23:20.20</time>
<name>1325</name>
</trkpt>
<trkpt lat="49.047713" lon="10.972577">
<ele>446.5</ele>
<speed>106</speed>
<course>127.8</course>
<desc>Speed 106 km/h Distance 35.48 km</desc>
<time>2010-07-31T14:23:22.19</time>
<name>1326</name>
</trkpt>
<trkpt lat="49.047390" lon="10.973212">
<ele>447.0</ele>
<speed>106</speed>
<course>128.3</course>
<desc>Speed 106 km/h Distance 35.54 km</desc>
<time>2010-07-31T14:23:24.19</time>
<name>1327</name>
</trkpt>
<trkpt lat="49.047065" lon="10.973840">
<ele>448.0</ele>
<speed>105</speed>
<course>129.3</course>
<desc>Speed 105 km/h Distance 35.60 km</desc>
<time>2010-07-31T14:23:26.19</time>
<name>1328</name>
</trkpt>
<trkpt lat="49.046732" lon="10.974462">
<ele>448.5</ele>
<speed>105</speed>
<course>132.8</course>
<desc>Speed 105 km/h Distance 35.66 km</desc>
<time>2010-07-31T14:23:28.19</time>
<name>1329</name>
</trkpt>
<trkpt lat="49.046377" lon="10.975047">
<ele>448.5</ele>
<speed>105</speed>
<course>134.7</course>
<desc>Speed 105 km/h Distance 35.71 km</desc>
<time>2010-07-31T14:23:30.19</time>
<name>1330</name>
</trkpt>
<trkpt lat="49.046012" lon="10.975610">
<ele>448.5</ele>
<speed>105</speed>
<course>135.7</course>
<desc>Speed 105 km/h Distance 35.77 km</desc>
<time>2010-07-31T14:23:32.20</time>
<name>1331</name>
</trkpt>
<trkpt lat="49.045680" lon="10.976103">
<ele>449.0</ele>
<speed>105</speed>
<course>132.8</course>
<desc>Speed 105 km/h Distance 35.82 km</desc>
<time>2010-07-31T14:23:34.18</time>
<name>1332</name>
</trkpt>
<trkpt lat="49.045238" lon="10.976832">
<ele>449.0</ele>
<speed>105</speed>
<course>150.2</course>
<desc>Speed 105 km/h Distance 35.90 km</desc>
<time>2010-07-31T14:23:39.19</time>
<name>1333</name>
</trkpt>
<trkpt lat="49.044580" lon="10.977407">
<ele>445.5</ele>
<speed>95.0</speed>
<course>154.2</course>
<desc>Speed 95.0 km/h Distance 35.98 km</desc>
<time>2010-07-31T14:23:43.19</time>
<name>1334</name>
</trkpt>
<trkpt lat="49.043498" lon="10.978203">
<ele>444.5</ele>
<speed>95.9</speed>
<course>149.3</course>
<desc>Speed 95.9 km/h Distance 36.11 km</desc>
<time>2010-07-31T14:23:47.18</time>
<name>1335</name>
</trkpt>
<trkpt lat="49.043028" lon="10.978628">
<ele>445.5</ele>
<speed>99.0</speed>
<course>159.7</course>
<desc>Speed 99.0 km/h Distance 36.17 km</desc>
<time>2010-07-31T14:23:49.18</time>
<name>1336</name>
</trkpt>
<trkpt lat="49.042183" lon="10.979105">
<ele>439.5</ele>
<speed>113</speed>
<course>149.2</course>
<desc>Speed 113 km/h Distance 36.27 km</desc>
<time>2010-07-31T14:23:52.18</time>
<name>1337</name>
</trkpt>
<trkpt lat="49.041007" lon="10.980175">
<ele>444.0</ele>
<speed>110</speed>
<course>149.9</course>
<desc>Speed 110 km/h Distance 36.43 km</desc>
<time>2010-07-31T14:23:56.18</time>
<name>1338</name>
</trkpt>
<trkpt lat="49.040547" lon="10.980582">
<ele>447.5</ele>
<speed>98.8</speed>
<course>144.9</course>
<desc>Speed 98.8 km/h Distance 36.49 km</desc>
<time>2010-07-31T14:23:58.19</time>
<name>1339</name>
</trkpt>
<trkpt lat="49.040153" lon="10.981003">
<ele>450.0</ele>
<speed>94.0</speed>
<course>136.7</course>
<desc>Speed 94.0 km/h Distance 36.54 km</desc>
<time>2010-07-31T14:24:00.18</time>
<name>1340</name>
</trkpt>
<trkpt lat="49.039773" lon="10.981550">
<ele>454.0</ele>
<speed>94.1</speed>
<course>133.8</course>
<desc>Speed 94.1 km/h Distance 36.60 km</desc>
<time>2010-07-31T14:24:02.17</time>
<name>1341</name>
</trkpt>
<trkpt lat="49.039423" lon="10.982107">
<ele>458.5</ele>
<speed>97.6</speed>
<course>131.2</course>
<desc>Speed 97.6 km/h Distance 36.65 km</desc>
<time>2010-07-31T14:24:04.18</time>
<name>1342</name>
</trkpt>
<trkpt lat="49.039078" lon="10.982708">
<ele>461.0</ele>
<speed>101</speed>
<course>127.8</course>
<desc>Speed 101 km/h Distance 36.71 km</desc>
<time>2010-07-31T14:24:06.17</time>
<name>1343</name>
</trkpt>
<trkpt lat="49.038747" lon="10.983362">
<ele>462.5</ele>
<speed>104</speed>
<course>124.8</course>
<desc>Speed 104 km/h Distance 36.77 km</desc>
<time>2010-07-31T14:24:08.17</time>
<name>1344</name>
</trkpt>
<trkpt lat="49.038423" lon="10.984070">
<ele>466.0</ele>
<speed>106</speed>
<course>126.1</course>
<desc>Speed 106 km/h Distance 36.84 km</desc>
<time>2010-07-31T14:24:10.16</time>
<name>1345</name>
</trkpt>
<trkpt lat="49.038090" lon="10.984768">
<ele>468.5</ele>
<speed>109</speed>
<course>133.0</course>
<desc>Speed 109 km/h Distance 36.90 km</desc>
<time>2010-07-31T14:24:12.16</time>
<name>1346</name>
</trkpt>
<trkpt lat="49.037735" lon="10.985350">
<ele>468.0</ele>
<speed>99.0</speed>
<course>138.6</course>
<desc>Speed 99.0 km/h Distance 36.96 km</desc>
<time>2010-07-31T14:24:14.17</time>
<name>1347</name>
</trkpt>
<trkpt lat="49.037332" lon="10.985892">
<ele>469.0</ele>
<speed>107</speed>
<course>141.6</course>
<desc>Speed 107 km/h Distance 37.02 km</desc>
<time>2010-07-31T14:24:16.16</time>
<name>1348</name>
</trkpt>
<trkpt lat="49.036788" lon="10.986548">
<ele>473.0</ele>
<speed>117</speed>
<course>148.6</course>
<desc>Speed 117 km/h Distance 37.09 km</desc>
<time>2010-07-31T14:24:19.16</time>
<name>1349</name>
</trkpt>
<trkpt lat="49.036292" lon="10.987012">
<ele>478.0</ele>
<speed>115</speed>
<course>152.9</course>
<desc>Speed 115 km/h Distance 37.16 km</desc>
<time>2010-07-31T14:24:21.16</time>
<name>1350</name>
</trkpt>
<trkpt lat="49.035795" lon="10.987400">
<ele>476.0</ele>
<speed>115</speed>
<course>160.0</course>
<desc>Speed 115 km/h Distance 37.22 km</desc>
<time>2010-07-31T14:24:23.16</time>
<name>1351</name>
</trkpt>
<trkpt lat="49.034953" lon="10.987868">
<ele>464.0</ele>
<speed>110</speed>
<course>168.7</course>
<desc>Speed 110 km/h Distance 37.32 km</desc>
<time>2010-07-31T14:24:27.16</time>
<name>1352</name>
</trkpt>
<trkpt lat="49.034422" lon="10.988030">
<ele>449.5</ele>
<speed>105</speed>
<course>169.1</course>
<desc>Speed 105 km/h Distance 37.38 km</desc>
<time>2010-07-31T14:24:29.16</time>
<name>1353</name>
</trkpt>
<trkpt lat="49.033905" lon="10.988182">
<ele>439.0</ele>
<speed>105</speed>
<course>174.9</course>
<desc>Speed 105 km/h Distance 37.44 km</desc>
<time>2010-07-31T14:24:31.15</time>
<name>1354</name>
</trkpt>
<trkpt lat="49.032867" lon="10.988323">
<ele>426.5</ele>
<speed>105</speed>
<course>175.5</course>
<desc>Speed 105 km/h Distance 37.56 km</desc>
<time>2010-07-31T14:24:37.16</time>
<name>1355</name>
</trkpt>
<trkpt lat="49.032362" lon="10.988383">
<ele>423.0</ele>
<speed>103</speed>
<course>184.6</course>
<desc>Speed 103 km/h Distance 37.61 km</desc>
<time>2010-07-31T14:24:39.15</time>
<name>1356</name>
</trkpt>
<trkpt lat="49.031460" lon="10.988272">
<ele>419.5</ele>
<speed>103</speed>
<course>188.7</course>
<desc>Speed 103 km/h Distance 37.71 km</desc>
<time>2010-07-31T14:24:42.15</time>
<name>1357</name>
</trkpt>
<trkpt lat="49.030555" lon="10.988060">
<ele>416.5</ele>
<speed>103</speed>
<course>194.5</course>
<desc>Speed 103 km/h Distance 37.81 km</desc>
<time>2010-07-31T14:24:45.15</time>
<name>1358</name>
</trkpt>
<trkpt lat="49.029788" lon="10.987758">
<ele>413.0</ele>
<speed>89.2</speed>
<course>199.1</course>
<desc>Speed 89.2 km/h Distance 37.90 km</desc>
<time>2010-07-31T14:24:48.14</time>
<name>1359</name>
</trkpt>
<trkpt lat="49.029343" lon="10.987523">
<ele>415.5</ele>
<speed>80.1</speed>
<course>202.6</course>
<desc>Speed 80.1 km/h Distance 37.96 km</desc>
<time>2010-07-31T14:24:50.14</time>
<name>1360</name>
</trkpt>
<trkpt lat="49.028968" lon="10.987285">
<ele>418.0</ele>
<speed>76.0</speed>
<course>205.0</course>
<desc>Speed 76.0 km/h Distance 38.00 km</desc>
<time>2010-07-31T14:24:52.14</time>
<name>1361</name>
</trkpt>
<trkpt lat="49.028638" lon="10.987050">
<ele>419.5</ele>
<speed>69.2</speed>
<course>207.8</course>
<desc>Speed 69.2 km/h Distance 38.04 km</desc>
<time>2010-07-31T14:24:54.14</time>
<name>1362</name>
</trkpt>
<trkpt lat="49.028317" lon="10.986792">
<ele>421.0</ele>
<speed>69.6</speed>
<course>208.2</course>
<desc>Speed 69.6 km/h Distance 38.08 km</desc>
<time>2010-07-31T14:24:56.14</time>
<name>1363</name>
</trkpt>
<trkpt lat="49.027735" lon="10.986317">
<ele>426.0</ele>
<speed>86.7</speed>
<course>204.4</course>
<desc>Speed 86.7 km/h Distance 38.16 km</desc>
<time>2010-07-31T14:24:59.13</time>
<name>1364</name>
</trkpt>
<trkpt lat="49.027037" lon="10.985833">
<ele>444.5</ele>
<speed>70.5</speed>
<course>208.5</course>
<desc>Speed 70.5 km/h Distance 38.24 km</desc>
<time>2010-07-31T14:25:02.14</time>
<name>1365</name>
</trkpt>
<trkpt lat="49.026442" lon="10.985340">
<ele>452.0</ele>
<speed>27.2</speed>
<course>180.3</course>
<desc>Speed 27.2 km/h Distance 38.32 km</desc>
<time>2010-07-31T14:25:08.14</time>
<name>1366</name>
</trkpt>
<trkpt lat="49.026243" lon="10.985338">
<ele>455.5</ele>
<speed>35.3</speed>
<course>169.3</course>
<desc>Speed 35.3 km/h Distance 38.34 km</desc>
<time>2010-07-31T14:25:10.14</time>
<name>1367</name>
</trkpt>
<trkpt lat="49.026098" lon="10.985380">
<ele>457.5</ele>
<speed>35.3</speed>
<course>129.5</course>
<desc>Speed 35.3 km/h Distance 38.35 km</desc>
<time>2010-07-31T14:25:12.14</time>
<name>1368</name>
</trkpt>
<trkpt lat="49.025888" lon="10.985768">
<ele>459.5</ele>
<speed>54.5</speed>
<course>133.4</course>
<desc>Speed 54.5 km/h Distance 38.39 km</desc>
<time>2010-07-31T14:25:15.14</time>
<name>1369</name>
</trkpt>
<trkpt lat="49.025533" lon="10.986342">
<ele>461.0</ele>
<speed>67.6</speed>
<course>126.8</course>
<desc>Speed 67.6 km/h Distance 38.45 km</desc>
<time>2010-07-31T14:25:18.14</time>
<name>1370</name>
</trkpt>
<trkpt lat="49.025330" lon="10.986757">
<ele>461.0</ele>
<speed>65.5</speed>
<course>125.5</course>
<desc>Speed 65.5 km/h Distance 38.49 km</desc>
<time>2010-07-31T14:25:20.14</time>
<name>1371</name>
</trkpt>
<trkpt lat="49.025137" lon="10.987170">
<ele>462.0</ele>
<speed>60.3</speed>
<course>127.6</course>
<desc>Speed 60.3 km/h Distance 38.52 km</desc>
<time>2010-07-31T14:25:22.14</time>
<name>1372</name>
</trkpt>
<trkpt lat="49.024920" lon="10.987598">
<ele>467.0</ele>
<speed>60.3</speed>
<course>123.9</course>
<desc>Speed 60.3 km/h Distance 38.56 km</desc>
<time>2010-07-31T14:25:24.12</time>
<name>1373</name>
</trkpt>
<trkpt lat="49.024788" lon="10.987897">
<ele>467.5</ele>
<speed>53.7</speed>
<course>124.1</course>
<desc>Speed 53.7 km/h Distance 38.59 km</desc>
<time>2010-07-31T14:25:26.13</time>
<name>1374</name>
</trkpt>
<trkpt lat="49.024608" lon="10.988302">
<ele>472.5</ele>
<speed>53.7</speed>
<course>125.9</course>
<desc>Speed 53.7 km/h Distance 38.62 km</desc>
<time>2010-07-31T14:25:28.12</time>
<name>1375</name>
</trkpt>
<trkpt lat="49.023992" lon="10.989602">
<ele>477.5</ele>
<speed>92.1</speed>
<course>121.1</course>
<desc>Speed 92.1 km/h Distance 38.74 km</desc>
<time>2010-07-31T14:25:33.12</time>
<name>1376</name>
</trkpt>
<trkpt lat="49.023718" lon="10.990292">
<ele>483.5</ele>
<speed>96.9</speed>
<course>120.8</course>
<desc>Speed 96.9 km/h Distance 38.80 km</desc>
<time>2010-07-31T14:25:35.13</time>
<name>1377</name>
</trkpt>
<trkpt lat="49.023505" lon="10.990837">
<ele>486.5</ele>
<speed>96.9</speed>
<course>126.0</course>
<desc>Speed 96.9 km/h Distance 38.85 km</desc>
<time>2010-07-31T14:25:37.12</time>
<name>1378</name>
</trkpt>
<trkpt lat="49.023205" lon="10.991467">
<ele>492.5</ele>
<speed>103</speed>
<course>123.3</course>
<desc>Speed 103 km/h Distance 38.90 km</desc>
<time>2010-07-31T14:25:39.13</time>
<name>1379</name>
</trkpt>
<trkpt lat="49.022803" lon="10.992400">
<ele>493.0</ele>
<speed>112</speed>
<course>118.6</course>
<desc>Speed 112 km/h Distance 38.99 km</desc>
<time>2010-07-31T14:25:42.12</time>
<name>1380</name>
</trkpt>
<trkpt lat="49.022377" lon="10.993595">
<ele>489.0</ele>
<speed>104</speed>
<course>125.4</course>
<desc>Speed 104 km/h Distance 39.08 km</desc>
<time>2010-07-31T14:25:46.11</time>
<name>1381</name>
</trkpt>
<trkpt lat="49.021883" lon="10.994653">
<ele>487.5</ele>
<speed>97.8</speed>
<course>133.7</course>
<desc>Speed 97.8 km/h Distance 39.18 km</desc>
<time>2010-07-31T14:25:49.12</time>
<name>1382</name>
</trkpt>
<trkpt lat="49.021543" lon="10.995197">
<ele>487.0</ele>
<speed>94.9</speed>
<course>131.0</course>
<desc>Speed 94.9 km/h Distance 39.23 km</desc>
<time>2010-07-31T14:25:51.12</time>
<name>1383</name>
</trkpt>
<trkpt lat="49.021255" lon="10.995703">
<ele>491.5</ele>
<speed>94.9</speed>
<course>132.5</course>
<desc>Speed 94.9 km/h Distance 39.28 km</desc>
<time>2010-07-31T14:25:53.12</time>
<name>1384</name>
</trkpt>
<trkpt lat="49.020920" lon="10.996260">
<ele>495.0</ele>
<speed>94.9</speed>
<course>124.2</course>
<desc>Speed 94.9 km/h Distance 39.34 km</desc>
<time>2010-07-31T14:25:55.12</time>
<name>1385</name>
</trkpt>
<trkpt lat="49.020507" lon="10.997188">
<ele>502.0</ele>
<speed>94.4</speed>
<course>121.6</course>
<desc>Speed 94.4 km/h Distance 39.42 km</desc>
<time>2010-07-31T14:25:58.11</time>
<name>1386</name>
</trkpt>
<trkpt lat="49.019920" lon="10.998640">
<ele>509.5</ele>
<speed>94.6</speed>
<course>115.4</course>
<desc>Speed 94.6 km/h Distance 39.55 km</desc>
<time>2010-07-31T14:26:02.11</time>
<name>1387</name>
</trkpt>
<trkpt lat="49.019725" lon="10.999267">
<ele>509.5</ele>
<speed>89.7</speed>
<course>114.4</course>
<desc>Speed 89.7 km/h Distance 39.60 km</desc>
<time>2010-07-31T14:26:04.11</time>
<name>1388</name>
</trkpt>
<trkpt lat="49.019528" lon="10.999928">
<ele>509.0</ele>
<speed>92.3</speed>
<course>111.3</course>
<desc>Speed 92.3 km/h Distance 39.65 km</desc>
<time>2010-07-31T14:26:06.11</time>
<name>1389</name>
</trkpt>
<trkpt lat="49.019362" lon="11.000580">
<ele>508.5</ele>
<speed>90.2</speed>
<course>110.0</course>
<desc>Speed 90.2 km/h Distance 39.70 km</desc>
<time>2010-07-31T14:26:08.10</time>
<name>1390</name>
</trkpt>
<trkpt lat="49.019177" lon="11.001355">
<ele>513.0</ele>
<speed>90.2</speed>
<course>108.0</course>
<desc>Speed 90.2 km/h Distance 39.76 km</desc>
<time>2010-07-31T14:26:11.11</time>
<name>1391</name>
</trkpt>
<trkpt lat="49.018957" lon="11.002388">
<ele>515.5</ele>
<speed>75.6</speed>
<course>102.3</course>
<desc>Speed 75.6 km/h Distance 39.84 km</desc>
<time>2010-07-31T14:26:14.10</time>
<name>1392</name>
</trkpt>
<trkpt lat="49.018873" lon="11.002972">
<ele>516.5</ele>
<speed>79.2</speed>
<course>97.7</course>
<desc>Speed 79.2 km/h Distance 39.88 km</desc>
<time>2010-07-31T14:26:16.10</time>
<name>1393</name>
</trkpt>
<trkpt lat="49.018822" lon="11.003552">
<ele>516.5</ele>
<speed>76.0</speed>
<course>97.8</course>
<desc>Speed 76.0 km/h Distance 39.93 km</desc>
<time>2010-07-31T14:26:18.10</time>
<name>1394</name>
</trkpt>
<trkpt lat="49.018770" lon="11.004128">
<ele>518.5</ele>
<speed>75.5</speed>
<course>108.9</course>
<desc>Speed 75.5 km/h Distance 39.97 km</desc>
<time>2010-07-31T14:26:20.09</time>
<name>1395</name>
</trkpt>
<trkpt lat="49.018598" lon="11.004895">
<ele>521.0</ele>
<speed>75.5</speed>
<course>167.8</course>
<desc>Speed 75.5 km/h Distance 40.03 km</desc>
<time>2010-07-31T14:26:24.09</time>
<name>1396</name>
</trkpt>
<trkpt lat="49.017732" lon="11.005182">
<ele>525.0</ele>
<speed>92.7</speed>
<course>225.2</course>
<desc>Speed 92.7 km/h Distance 40.13 km</desc>
<time>2010-07-31T14:26:28.09</time>
<name>1397</name>
</trkpt>
<trkpt lat="49.016850" lon="11.003827">
<ele>524.5</ele>
<speed>92.7</speed>
<course>228.2</course>
<desc>Speed 92.7 km/h Distance 40.27 km</desc>
<time>2010-07-31T14:26:39.08</time>
<name>1398</name>
</trkpt>
<trkpt lat="49.016508" lon="11.003243">
<ele>525.5</ele>
<speed>80.9</speed>
<course>271.1</course>
<desc>Speed 80.9 km/h Distance 40.32 km</desc>
<time>2010-07-31T14:26:41.07</time>
<name>1399</name>
</trkpt>
<trkpt lat="49.016517" lon="11.002583">
<ele>526.5</ele>
<speed>80.9</speed>
<course>268.1</course>
<desc>Speed 80.9 km/h Distance 40.37 km</desc>
<time>2010-07-31T14:26:43.07</time>
<name>1400</name>
</trkpt>
<trkpt lat="49.016502" lon="11.001902">
<ele>527.0</ele>
<speed>65.8</speed>
<course>326.3</course>
<desc>Speed 65.8 km/h Distance 40.42 km</desc>
<time>2010-07-31T14:26:46.07</time>
<name>1401</name>
</trkpt>
<trkpt lat="49.016792" lon="11.001607">
<ele>526.5</ele>
<speed>65.8</speed>
<course>280.2</course>
<desc>Speed 65.8 km/h Distance 40.46 km</desc>
<time>2010-07-31T14:26:48.07</time>
<name>1402</name>
</trkpt>
<trkpt lat="49.016922" lon="11.000505">
<ele>526.0</ele>
<speed>65.8</speed>
<course>209.7</course>
<desc>Speed 65.8 km/h Distance 40.54 km</desc>
<time>2010-07-31T14:26:53.07</time>
<name>1403</name>
</trkpt>
<trkpt lat="49.016678" lon="11.000293">
<ele>526.0</ele>
<speed>77.5</speed>
<course>197.6</course>
<desc>Speed 77.5 km/h Distance 40.57 km</desc>
<time>2010-07-31T14:26:55.07</time>
<name>1404</name>
</trkpt>
<trkpt lat="49.016343" lon="11.000132">
<ele>526.0</ele>
<speed>77.5</speed>
<course>175.8</course>
<desc>Speed 77.5 km/h Distance 40.61 km</desc>
<time>2010-07-31T14:26:57.06</time>
<name>1405</name>
</trkpt>
<trkpt lat="49.015402" lon="11.000238">
<ele>525.0</ele>
<speed>77.5</speed>
<course>126.3</course>
<desc>Speed 77.5 km/h Distance 40.72 km</desc>
<time>2010-07-31T14:27:01.07</time>
<name>1406</name>
</trkpt>
<trkpt lat="49.014977" lon="11.001120">
<ele>525.0</ele>
<speed>77.5</speed>
<course>126.7</course>
<desc>Speed 77.5 km/h Distance 40.80 km</desc>
<time>2010-07-31T14:27:08.08</time>
<name>1407</name>
</trkpt>
<trkpt lat="49.013102" lon="11.004960">
<ele>525.5</ele>
<speed>77.5</speed>
<course>91.1</course>
<desc>Speed 77.5 km/h Distance 41.15 km</desc>
<time>2010-07-31T14:27:15.06</time>
<name>1408</name>
</trkpt>
<trkpt lat="49.013095" lon="11.005497">
<ele>525.5</ele>
<speed>77.5</speed>
<course>159.9</course>
<desc>Speed 77.5 km/h Distance 41.18 km</desc>
<time>2010-07-31T14:27:17.06</time>
<name>1409</name>
</trkpt>
<trkpt lat="49.010233" lon="11.007095">
<ele>528.5</ele>
<speed>77.5</speed>
<course>124.8</course>
<desc>Speed 77.5 km/h Distance 41.52 km</desc>
<time>2010-07-31T14:27:23.06</time>
<name>1410</name>
</trkpt>
<trkpt lat="49.009467" lon="11.008778">
<ele>529.0</ele>
<speed>77.5</speed>
<course>132.8</course>
<desc>Speed 77.5 km/h Distance 41.67 km</desc>
<time>2010-07-31T14:27:31.05</time>
<name>1411</name>
</trkpt>
<trkpt lat="49.008397" lon="11.010538">
<ele>529.0</ele>
<speed>77.5</speed>
<course>98.9</course>
<desc>Speed 77.5 km/h Distance 41.85 km</desc>
<time>2010-07-31T14:27:37.10</time>
<name>1412</name>
</trkpt>
<trkpt lat="49.008288" lon="11.011597">
<ele>529.0</ele>
<speed>77.5</speed>
<course>137.4</course>
<desc>Speed 77.5 km/h Distance 41.93 km</desc>
<time>2010-07-31T14:27:40.04</time>
<name>1413</name>
</trkpt>
<trkpt lat="49.007463" lon="11.012753">
<ele>530.5</ele>
<speed>77.5</speed>
<course>113.4</course>
<desc>Speed 77.5 km/h Distance 42.05 km</desc>
<time>2010-07-31T14:27:46.05</time>
<name>1414</name>
</trkpt>
<trkpt lat="49.006650" lon="11.015622">
<ele>530.5</ele>
<speed>77.5</speed>
<course>154.5</course>
<desc>Speed 77.5 km/h Distance 42.28 km</desc>
<time>2010-07-31T14:28:01.05</time>
<name>1415</name>
</trkpt>
<trkpt lat="49.003538" lon="11.017888">
<ele>531.5</ele>
<speed>77.5</speed>
<course>173.7</course>
<desc>Speed 77.5 km/h Distance 42.66 km</desc>
<time>2010-07-31T14:28:11.02</time>
<name>1416</name>
</trkpt>
<trkpt lat="49.001677" lon="11.018200">
<ele>534.5</ele>
<speed>77.5</speed>
<course>138.6</course>
<desc>Speed 77.5 km/h Distance 42.87 km</desc>
<time>2010-07-31T14:28:19.03</time>
<name>1417</name>
</trkpt>
<trkpt lat="49.000617" lon="11.019625">
<ele>536.5</ele>
<speed>82.1</speed>
<course>130.9</course>
<desc>Speed 82.1 km/h Distance 43.03 km</desc>
<time>2010-07-31T14:28:23.03</time>
<name>1418</name>
</trkpt>
<trkpt lat="49.000313" lon="11.020158">
<ele>537.5</ele>
<speed>82.1</speed>
<course>76.0</course>
<desc>Speed 82.1 km/h Distance 43.08 km</desc>
<time>2010-07-31T14:28:25.03</time>
<name>1419</name>
</trkpt>
<trkpt lat="49.000402" lon="11.020697">
<ele>540.5</ele>
<speed>82.1</speed>
<course>95.9</course>
<desc>Speed 82.1 km/h Distance 43.12 km</desc>
<time>2010-07-31T14:28:27.04</time>
<name>1420</name>
</trkpt>
<trkpt lat="49.000297" lon="11.022245">
<ele>542.0</ele>
<speed>82.1</speed>
<course>122.0</course>
<desc>Speed 82.1 km/h Distance 43.24 km</desc>
<time>2010-07-31T14:28:37.02</time>
<name>1421</name>
</trkpt>
<trkpt lat="48.999762" lon="11.023552">
<ele>546.0</ele>
<speed>82.1</speed>
<course>151.4</course>
<desc>Speed 82.1 km/h Distance 43.35 km</desc>
<time>2010-07-31T14:28:41.02</time>
<name>1422</name>
</trkpt>
<trkpt lat="48.999002" lon="11.024183">
<ele>548.0</ele>
<speed>82.1</speed>
<course>160.4</course>
<desc>Speed 82.1 km/h Distance 43.44 km</desc>
<time>2010-07-31T14:28:45.02</time>
<name>1423</name>
</trkpt>
<trkpt lat="48.998623" lon="11.024388">
<ele>549.0</ele>
<speed>82.1</speed>
<course>116.7</course>
<desc>Speed 82.1 km/h Distance 43.49 km</desc>
<time>2010-07-31T14:28:47.02</time>
<name>1424</name>
</trkpt>
<trkpt lat="48.998347" lon="11.025227">
<ele>549.5</ele>
<speed>82.1</speed>
<course>143.5</course>
<desc>Speed 82.1 km/h Distance 43.56 km</desc>
<time>2010-07-31T14:28:52.01</time>
<name>1425</name>
</trkpt>
<trkpt lat="48.997057" lon="11.026683">
<ele>549.0</ele>
<speed>82.1</speed>
<course>180.0</course>
<desc>Speed 82.1 km/h Distance 43.74 km</desc>
<time>2010-07-31T14:28:57.02</time>
<name>1426</name>
</trkpt>
<trkpt lat="48.994972" lon="11.026682">
<ele>552.5</ele>
<speed>84.0</speed>
<course>154.1</course>
<desc>Speed 84.0 km/h Distance 43.97 km</desc>
<time>2010-07-31T14:29:03.01</time>
<name>1427</name>
</trkpt>
<trkpt lat="48.993337" lon="11.027892">
<ele>556.0</ele>
<speed>86.1</speed>
<course>146.1</course>
<desc>Speed 86.1 km/h Distance 44.17 km</desc>
<time>2010-07-31T14:29:09.00</time>
<name>1428</name>
</trkpt>
<trkpt lat="48.992817" lon="11.028423">
<ele>556.5</ele>
<speed>86.1</speed>
<course>146.1</course>
<desc>Speed 86.1 km/h Distance 44.24 km</desc>
<time>2010-07-31T14:29:14.00</time>
<name>1429</name>
</trkpt>
<trkpt lat="48.992238" lon="11.029017">
<ele>556.5</ele>
<speed>88.8</speed>
<course>155.0</course>
<desc>Speed 88.8 km/h Distance 44.32 km</desc>
<time>2010-07-31T14:29:19.00</time>
<name>1430</name>
</trkpt>
<trkpt lat="48.991765" lon="11.029353">
<ele>556.5</ele>
<speed>88.8</speed>
<course>137.9</course>
<desc>Speed 88.8 km/h Distance 44.38 km</desc>
<time>2010-07-31T14:29:22.00</time>
<name>1431</name>
</trkpt>
<trkpt lat="48.991442" lon="11.029798">
<ele>557.0</ele>
<speed>84.9</speed>
<course>149.0</course>
<desc>Speed 84.9 km/h Distance 44.42 km</desc>
<time>2010-07-31T14:29:24.00</time>
<name>1432</name>
</trkpt>
<trkpt lat="48.991047" lon="11.030160">
<ele>557.0</ele>
<speed>84.9</speed>
<course>141.7</course>
<desc>Speed 84.9 km/h Distance 44.48 km</desc>
<time>2010-07-31T14:29:25.99</time>
<name>1433</name>
</trkpt>
<trkpt lat="48.990175" lon="11.031208">
<ele>557.5</ele>
<speed>94.9</speed>
<course>146.7</course>
<desc>Speed 94.9 km/h Distance 44.60 km</desc>
<time>2010-07-31T14:29:29.99</time>
<name>1434</name>
</trkpt>
<trkpt lat="48.989453" lon="11.031932">
<ele>557.5</ele>
<speed>100</speed>
<course>150.8</course>
<desc>Speed 100 km/h Distance 44.70 km</desc>
<time>2010-07-31T14:29:32.99</time>
<name>1435</name>
</trkpt>
<trkpt lat="48.988775" lon="11.032510">
<ele>558.0</ele>
<speed>100</speed>
<course>161.0</course>
<desc>Speed 100 km/h Distance 44.78 km</desc>
<time>2010-07-31T14:29:35.99</time>
<name>1436</name>
</trkpt>
<trkpt lat="48.988092" lon="11.032868">
<ele>557.5</ele>
<speed>100</speed>
<course>151.0</course>
<desc>Speed 100 km/h Distance 44.86 km</desc>
<time>2010-07-31T14:29:39.98</time>
<name>1437</name>
</trkpt>
<trkpt lat="48.987670" lon="11.033225">
<ele>557.0</ele>
<speed>100</speed>
<course>166.5</course>
<desc>Speed 100 km/h Distance 44.92 km</desc>
<time>2010-07-31T14:29:44.99</time>
<name>1438</name>
</trkpt>
<trkpt lat="48.987080" lon="11.033442">
<ele>557.0</ele>
<speed>100</speed>
<course>126.5</course>
<desc>Speed 100 km/h Distance 44.98 km</desc>
<time>2010-07-31T14:29:50.99</time>
<name>1439</name>
</trkpt>
<trkpt lat="48.986595" lon="11.034440">
<ele>557.5</ele>
<speed>100</speed>
<course>111.0</course>
<desc>Speed 100 km/h Distance 45.07 km</desc>
<time>2010-07-31T14:29:55.97</time>
<name>1440</name>
</trkpt>
<trkpt lat="48.986343" lon="11.035437">
<ele>557.5</ele>
<speed>100</speed>
<course>129.0</course>
<desc>Speed 100 km/h Distance 45.15 km</desc>
<time>2010-07-31T14:29:57.97</time>
<name>1441</name>
</trkpt>
<trkpt lat="48.984188" lon="11.039490">
<ele>558.0</ele>
<speed>100</speed>
<course>132.1</course>
<desc>Speed 100 km/h Distance 45.53 km</desc>
<time>2010-07-31T14:30:00.98</time>
<name>1442</name>
</trkpt>
<trkpt lat="48.981733" lon="11.043630">
<ele>559.0</ele>
<speed>100</speed>
<course>153.3</course>
<desc>Speed 100 km/h Distance 45.94 km</desc>
<time>2010-07-31T14:30:08.96</time>
<name>1443</name>
</trkpt>
<trkpt lat="48.980975" lon="11.044210">
<ele>553.5</ele>
<speed>100</speed>
<course>114.9</course>
<desc>Speed 100 km/h Distance 46.04 km</desc>
<time>2010-07-31T14:30:13.96</time>
<name>1444</name>
</trkpt>
<trkpt lat="48.980632" lon="11.045337">
<ele>553.5</ele>
<speed>89.6</speed>
<course>159.2</course>
<desc>Speed 89.6 km/h Distance 46.13 km</desc>
<time>2010-07-31T14:30:16.96</time>
<name>1445</name>
</trkpt>
<trkpt lat="48.980060" lon="11.045668">
<ele>553.5</ele>
<speed>89.6</speed>
<course>167.7</course>
<desc>Speed 89.6 km/h Distance 46.20 km</desc>
<time>2010-07-31T14:30:20.98</time>
<name>1446</name>
</trkpt>
<trkpt lat="48.979618" lon="11.045815">
<ele>554.0</ele>
<speed>89.6</speed>
<course>198.8</course>
<desc>Speed 89.6 km/h Distance 46.25 km</desc>
<time>2010-07-31T14:30:22.96</time>
<name>1447</name>
</trkpt>
<trkpt lat="48.979028" lon="11.045508">
<ele>553.5</ele>
<speed>89.6</speed>
<course>170.2</course>
<desc>Speed 89.6 km/h Distance 46.31 km</desc>
<time>2010-07-31T14:30:32.95</time>
<name>1448</name>
</trkpt>
<trkpt lat="48.978335" lon="11.045690">
<ele>554.0</ele>
<speed>63.2</speed>
<course>102.9</course>
<desc>Speed 63.2 km/h Distance 46.39 km</desc>
<time>2010-07-31T14:30:36.96</time>
<name>1449</name>
</trkpt>
<trkpt lat="48.978035" lon="11.047688">
<ele>547.0</ele>
<speed>63.2</speed>
<course>58.4</course>
<desc>Speed 63.2 km/h Distance 46.54 km</desc>
<time>2010-07-31T14:30:47.94</time>
<name>1450</name>
</trkpt>
<trkpt lat="48.978362" lon="11.048498">
<ele>542.5</ele>
<speed>63.2</speed>
<course>101.1</course>
<desc>Speed 63.2 km/h Distance 46.61 km</desc>
<time>2010-07-31T14:30:50.95</time>
<name>1451</name>
</trkpt>
<trkpt lat="48.978187" lon="11.049853">
<ele>538.5</ele>
<speed>67.5</speed>
<course>120.8</course>
<desc>Speed 67.5 km/h Distance 46.71 km</desc>
<time>2010-07-31T14:30:54.94</time>
<name>1452</name>
</trkpt>
<trkpt lat="48.978105" lon="11.050062">
<ele>538.0</ele>
<speed>63.2</speed>
<course>127.2</course>
<desc>Speed 63.2 km/h Distance 46.73 km</desc>
<time>2010-07-31T14:30:55.94</time>
<name>1453</name>
</trkpt>
<trkpt lat="48.977917" lon="11.050440">
<ele>538.5</ele>
<speed>72.6</speed>
<course>136.1</course>
<desc>Speed 72.6 km/h Distance 46.77 km</desc>
<time>2010-07-31T14:30:57.95</time>
<name>1454</name>
</trkpt>
<trkpt lat="48.977692" lon="11.050770">
<ele>539.5</ele>
<speed>72.6</speed>
<course>143.7</course>
<desc>Speed 72.6 km/h Distance 46.80 km</desc>
<time>2010-07-31T14:30:59.95</time>
<name>1455</name>
</trkpt>
<trkpt lat="48.976272" lon="11.052358">
<ele>537.0</ele>
<speed>115</speed>
<course>136.0</course>
<desc>Speed 115 km/h Distance 47.00 km</desc>
<time>2010-07-31T14:31:05.93</time>
<name>1456</name>
</trkpt>
<trkpt lat="48.975628" lon="11.053303">
<ele>538.5</ele>
<speed>115</speed>
<course>155.2</course>
<desc>Speed 115 km/h Distance 47.10 km</desc>
<time>2010-07-31T14:31:10.94</time>
<name>1457</name>
</trkpt>
<trkpt lat="48.974332" lon="11.054217">
<ele>548.5</ele>
<speed>105</speed>
<course>149.0</course>
<desc>Speed 105 km/h Distance 47.25 km</desc>
<time>2010-07-31T14:31:14.94</time>
<name>1458</name>
</trkpt>
<trkpt lat="48.974095" lon="11.054433">
<ele>551.0</ele>
<speed>107</speed>
<course>141.5</course>
<desc>Speed 107 km/h Distance 47.29 km</desc>
<time>2010-07-31T14:31:15.93</time>
<name>1459</name>
</trkpt>
<trkpt lat="48.973897" lon="11.054673">
<ele>551.0</ele>
<speed>101</speed>
<course>139.5</course>
<desc>Speed 101 km/h Distance 47.31 km</desc>
<time>2010-07-31T14:31:16.93</time>
<name>1460</name>
</trkpt>
<trkpt lat="48.973720" lon="11.054903">
<ele>553.0</ele>
<speed>101</speed>
<course>144.3</course>
<desc>Speed 101 km/h Distance 47.34 km</desc>
<time>2010-07-31T14:31:17.92</time>
<name>1461</name>
</trkpt>
<trkpt lat="48.973095" lon="11.055587">
<ele>555.0</ele>
<speed>79.4</speed>
<course>171.8</course>
<desc>Speed 79.4 km/h Distance 47.43 km</desc>
<time>2010-07-31T14:31:22.93</time>
<name>1462</name>
</trkpt>
<trkpt lat="48.972595" lon="11.055697">
<ele>558.0</ele>
<speed>63.8</speed>
<course>191.8</course>
<desc>Speed 63.8 km/h Distance 47.48 km</desc>
<time>2010-07-31T14:31:25.92</time>
<name>1463</name>
</trkpt>
<trkpt lat="48.971118" lon="11.055228">
<ele>556.5</ele>
<speed>63.8</speed>
<course>184.1</course>
<desc>Speed 63.8 km/h Distance 47.65 km</desc>
<time>2010-07-31T14:31:32.92</time>
<name>1464</name>
</trkpt>
<trkpt lat="48.970473" lon="11.055158">
<ele>553.5</ele>
<speed>63.8</speed>
<course>201.5</course>
<desc>Speed 63.8 km/h Distance 47.72 km</desc>
<time>2010-07-31T14:31:34.91</time>
<name>1465</name>
</trkpt>
<trkpt lat="48.969282" lon="11.054443">
<ele>554.5</ele>
<speed>83.6</speed>
<course>165.5</course>
<desc>Speed 83.6 km/h Distance 47.86 km</desc>
<time>2010-07-31T14:31:39.92</time>
<name>1466</name>
</trkpt>
<trkpt lat="48.968943" lon="11.054577">
<ele>554.5</ele>
<speed>77.3</speed>
<course>148.3</course>
<desc>Speed 77.3 km/h Distance 47.90 km</desc>
<time>2010-07-31T14:31:41.92</time>
<name>1467</name>
</trkpt>
<trkpt lat="48.968772" lon="11.054738">
<ele>554.0</ele>
<speed>79.2</speed>
<course>144.3</course>
<desc>Speed 79.2 km/h Distance 47.93 km</desc>
<time>2010-07-31T14:31:42.91</time>
<name>1468</name>
</trkpt>
<trkpt lat="48.968595" lon="11.054932">
<ele>553.5</ele>
<speed>85.4</speed>
<course>143.1</course>
<desc>Speed 85.4 km/h Distance 47.95 km</desc>
<time>2010-07-31T14:31:43.92</time>
<name>1469</name>
</trkpt>
<trkpt lat="48.967988" lon="11.055625">
<ele>555.0</ele>
<speed>94.5</speed>
<course>147.4</course>
<desc>Speed 94.5 km/h Distance 48.03 km</desc>
<time>2010-07-31T14:31:46.92</time>
<name>1470</name>
</trkpt>
<trkpt lat="48.967788" lon="11.055820">
<ele>554.5</ele>
<speed>93.1</speed>
<course>148.3</course>
<desc>Speed 93.1 km/h Distance 48.06 km</desc>
<time>2010-07-31T14:31:47.91</time>
<name>1471</name>
</trkpt>
<trkpt lat="48.967595" lon="11.056002">
<ele>553.5</ele>
<speed>90.0</speed>
<course>147.0</course>
<desc>Speed 90.0 km/h Distance 48.09 km</desc>
<time>2010-07-31T14:31:48.91</time>
<name>1472</name>
</trkpt>
<trkpt lat="48.967412" lon="11.056183">
<ele>553.0</ele>
<speed>87.3</speed>
<course>145.7</course>
<desc>Speed 87.3 km/h Distance 48.11 km</desc>
<time>2010-07-31T14:31:49.91</time>
<name>1473</name>
</trkpt>
<trkpt lat="48.967238" lon="11.056363">
<ele>552.5</ele>
<speed>84.2</speed>
<course>144.7</course>
<desc>Speed 84.2 km/h Distance 48.13 km</desc>
<time>2010-07-31T14:31:50.90</time>
<name>1474</name>
</trkpt>
<trkpt lat="48.967072" lon="11.056543">
<ele>552.5</ele>
<speed>81.3</speed>
<course>143.3</course>
<desc>Speed 81.3 km/h Distance 48.16 km</desc>
<time>2010-07-31T14:31:51.90</time>
<name>1475</name>
</trkpt>
<trkpt lat="48.966913" lon="11.056723">
<ele>552.0</ele>
<speed>79.0</speed>
<course>140.4</course>
<desc>Speed 79.0 km/h Distance 48.18 km</desc>
<time>2010-07-31T14:31:52.90</time>
<name>1476</name>
</trkpt>
<trkpt lat="48.966758" lon="11.056918">
<ele>552.0</ele>
<speed>77.8</speed>
<course>141.4</course>
<desc>Speed 77.8 km/h Distance 48.20 km</desc>
<time>2010-07-31T14:31:53.91</time>
<name>1477</name>
</trkpt>
<trkpt lat="48.966603" lon="11.057107">
<ele>551.5</ele>
<speed>77.9</speed>
<course>141.0</course>
<desc>Speed 77.9 km/h Distance 48.22 km</desc>
<time>2010-07-31T14:31:54.90</time>
<name>1478</name>
</trkpt>
<trkpt lat="48.966453" lon="11.057292">
<ele>551.0</ele>
<speed>77.6</speed>
<course>151.7</course>
<desc>Speed 77.6 km/h Distance 48.24 km</desc>
<time>2010-07-31T14:31:55.90</time>
<name>1479</name>
</trkpt>
<trkpt lat="48.966278" lon="11.057435">
<ele>551.0</ele>
<speed>79.4</speed>
<course>141.4</course>
<desc>Speed 79.4 km/h Distance 48.27 km</desc>
<time>2010-07-31T14:31:56.90</time>
<name>1480</name>
</trkpt>
<trkpt lat="48.965992" lon="11.057783">
<ele>553.0</ele>
<speed>72.7</speed>
<course>145.4</course>
<desc>Speed 72.7 km/h Distance 48.31 km</desc>
<time>2010-07-31T14:31:58.91</time>
<name>1481</name>
</trkpt>
<trkpt lat="48.965725" lon="11.058063">
<ele>553.0</ele>
<speed>70.8</speed>
<course>151.0</course>
<desc>Speed 70.8 km/h Distance 48.34 km</desc>
<time>2010-07-31T14:32:00.91</time>
<name>1482</name>
</trkpt>
<trkpt lat="48.965563" lon="11.058200">
<ele>553.0</ele>
<speed>73.8</speed>
<course>153.3</course>
<desc>Speed 73.8 km/h Distance 48.36 km</desc>
<time>2010-07-31T14:32:01.91</time>
<name>1483</name>
</trkpt>
<trkpt lat="48.965398" lon="11.058327">
<ele>553.5</ele>
<speed>73.9</speed>
<course>150.6</course>
<desc>Speed 73.9 km/h Distance 48.38 km</desc>
<time>2010-07-31T14:32:02.91</time>
<name>1484</name>
</trkpt>
<trkpt lat="48.965105" lon="11.058578">
<ele>554.0</ele>
<speed>73.6</speed>
<course>148.4</course>
<desc>Speed 73.6 km/h Distance 48.42 km</desc>
<time>2010-07-31T14:32:04.91</time>
<name>1485</name>
</trkpt>
<trkpt lat="48.964842" lon="11.058825">
<ele>553.5</ele>
<speed>63.1</speed>
<course>141.5</course>
<desc>Speed 63.1 km/h Distance 48.46 km</desc>
<time>2010-07-31T14:32:06.91</time>
<name>1486</name>
</trkpt>
<trkpt lat="48.964715" lon="11.058978">
<ele>553.5</ele>
<speed>61.6</speed>
<course>135.9</course>
<desc>Speed 61.6 km/h Distance 48.47 km</desc>
<time>2010-07-31T14:32:07.89</time>
<name>1487</name>
</trkpt>
<trkpt lat="48.964600" lon="11.059148">
<ele>553.5</ele>
<speed>61.7</speed>
<course>135.8</course>
<desc>Speed 61.7 km/h Distance 48.49 km</desc>
<time>2010-07-31T14:32:08.90</time>
<name>1488</name>
</trkpt>
<trkpt lat="48.964482" lon="11.059323">
<ele>553.5</ele>
<speed>65.7</speed>
<course>119.9</course>
<desc>Speed 65.7 km/h Distance 48.51 km</desc>
<time>2010-07-31T14:32:09.89</time>
<name>1489</name>
</trkpt>
<trkpt lat="48.964332" lon="11.059720">
<ele>556.0</ele>
<speed>65.7</speed>
<course>102.6</course>
<desc>Speed 65.7 km/h Distance 48.54 km</desc>
<time>2010-07-31T14:32:11.91</time>
<name>1490</name>
</trkpt>
<trkpt lat="48.964073" lon="11.061483">
<ele>555.5</ele>
<speed>99.7</speed>
<course>107.7</course>
<desc>Speed 99.7 km/h Distance 48.68 km</desc>
<time>2010-07-31T14:32:16.89</time>
<name>1491</name>
</trkpt>
<trkpt lat="48.963993" lon="11.061865">
<ele>555.5</ele>
<speed>104</speed>
<course>102.2</course>
<desc>Speed 104 km/h Distance 48.71 km</desc>
<time>2010-07-31T14:32:17.90</time>
<name>1492</name>
</trkpt>
<trkpt lat="48.963940" lon="11.062240">
<ele>556.0</ele>
<speed>99.9</speed>
<course>95.3</course>
<desc>Speed 99.9 km/h Distance 48.73 km</desc>
<time>2010-07-31T14:32:18.90</time>
<name>1493</name>
</trkpt>
<trkpt lat="48.963827" lon="11.064088">
<ele>564.5</ele>
<speed>111</speed>
<course>93.5</course>
<desc>Speed 111 km/h Distance 48.87 km</desc>
<time>2010-07-31T14:32:22.90</time>
<name>1494</name>
</trkpt>
<trkpt lat="48.963747" lon="11.066068">
<ele>564.0</ele>
<speed>133</speed>
<course>93.4</course>
<desc>Speed 133 km/h Distance 49.01 km</desc>
<time>2010-07-31T14:32:26.89</time>
<name>1495</name>
</trkpt>
<trkpt lat="48.963727" lon="11.066583">
<ele>563.5</ele>
<speed>135</speed>
<course>95.1</course>
<desc>Speed 135 km/h Distance 49.05 km</desc>
<time>2010-07-31T14:32:27.91</time>
<name>1496</name>
</trkpt>
<trkpt lat="48.963697" lon="11.067092">
<ele>562.5</ele>
<speed>134</speed>
<course>94.8</course>
<desc>Speed 134 km/h Distance 49.09 km</desc>
<time>2010-07-31T14:32:28.89</time>
<name>1497</name>
</trkpt>
<trkpt lat="48.963668" lon="11.067605">
<ele>562.5</ele>
<speed>135</speed>
<course>95.1</course>
<desc>Speed 135 km/h Distance 49.13 km</desc>
<time>2010-07-31T14:32:29.89</time>
<name>1498</name>
</trkpt>
<trkpt lat="48.963638" lon="11.068115">
<ele>563.0</ele>
<speed>134</speed>
<course>95.2</course>
<desc>Speed 134 km/h Distance 49.16 km</desc>
<time>2010-07-31T14:32:30.89</time>
<name>1499</name>
</trkpt>
<trkpt lat="48.963608" lon="11.068622">
<ele>564.0</ele>
<speed>133</speed>
<course>95.9</course>
<desc>Speed 133 km/h Distance 49.20 km</desc>
<time>2010-07-31T14:32:31.89</time>
<name>1500</name>
</trkpt>
<trkpt lat="48.963575" lon="11.069113">
<ele>566.0</ele>
<speed>130</speed>
<course>97.6</course>
<desc>Speed 130 km/h Distance 49.24 km</desc>
<time>2010-07-31T14:32:32.89</time>
<name>1501</name>
</trkpt>
<trkpt lat="48.963533" lon="11.069590">
<ele>566.5</ele>
<speed>126</speed>
<course>97.5</course>
<desc>Speed 126 km/h Distance 49.27 km</desc>
<time>2010-07-31T14:32:33.89</time>
<name>1502</name>
</trkpt>
<trkpt lat="48.963492" lon="11.070075">
<ele>568.0</ele>
<speed>128</speed>
<course>99.0</course>
<desc>Speed 128 km/h Distance 49.31 km</desc>
<time>2010-07-31T14:32:34.89</time>
<name>1503</name>
</trkpt>
<trkpt lat="48.963442" lon="11.070555">
<ele>569.0</ele>
<speed>128</speed>
<course>100.7</course>
<desc>Speed 128 km/h Distance 49.34 km</desc>
<time>2010-07-31T14:32:35.89</time>
<name>1504</name>
</trkpt>
<trkpt lat="48.963383" lon="11.071027">
<ele>570.0</ele>
<speed>127</speed>
<course>101.2</course>
<desc>Speed 127 km/h Distance 49.38 km</desc>
<time>2010-07-31T14:32:36.89</time>
<name>1505</name>
</trkpt>
<trkpt lat="48.963322" lon="11.071500">
<ele>571.0</ele>
<speed>127</speed>
<course>102.1</course>
<desc>Speed 127 km/h Distance 49.41 km</desc>
<time>2010-07-31T14:32:37.88</time>
<name>1506</name>
</trkpt>
<trkpt lat="48.963255" lon="11.071975">
<ele>572.0</ele>
<speed>128</speed>
<course>104.1</course>
<desc>Speed 128 km/h Distance 49.45 km</desc>
<time>2010-07-31T14:32:38.89</time>
<name>1507</name>
</trkpt>
<trkpt lat="48.963180" lon="11.072428">
<ele>572.5</ele>
<speed>123</speed>
<course>104.2</course>
<desc>Speed 123 km/h Distance 49.48 km</desc>
<time>2010-07-31T14:32:39.89</time>
<name>1508</name>
</trkpt>
<trkpt lat="48.963103" lon="11.072890">
<ele>573.5</ele>
<speed>124</speed>
<course>105.0</course>
<desc>Speed 124 km/h Distance 49.52 km</desc>
<time>2010-07-31T14:32:40.89</time>
<name>1509</name>
</trkpt>
<trkpt lat="48.963022" lon="11.073353">
<ele>575.5</ele>
<speed>123</speed>
<course>104.8</course>
<desc>Speed 123 km/h Distance 49.55 km</desc>
<time>2010-07-31T14:32:41.89</time>
<name>1510</name>
</trkpt>
<trkpt lat="48.962947" lon="11.073787">
<ele>576.0</ele>
<speed>117</speed>
<course>105.8</course>
<desc>Speed 117 km/h Distance 49.59 km</desc>
<time>2010-07-31T14:32:42.88</time>
<name>1511</name>
</trkpt>
<trkpt lat="48.962798" lon="11.074585">
<ele>576.5</ele>
<speed>107</speed>
<course>104.8</course>
<desc>Speed 107 km/h Distance 49.65 km</desc>
<time>2010-07-31T14:32:44.89</time>
<name>1512</name>
</trkpt>
<trkpt lat="48.962732" lon="11.074970">
<ele>576.5</ele>
<speed>105</speed>
<course>104.1</course>
<desc>Speed 105 km/h Distance 49.68 km</desc>
<time>2010-07-31T14:32:45.89</time>
<name>1513</name>
</trkpt>
<trkpt lat="48.962663" lon="11.075383">
<ele>576.5</ele>
<speed>111</speed>
<course>102.5</course>
<desc>Speed 111 km/h Distance 49.71 km</desc>
<time>2010-07-31T14:32:46.89</time>
<name>1514</name>
</trkpt>
<trkpt lat="48.962605" lon="11.075783">
<ele>576.5</ele>
<speed>108</speed>
<course>102.0</course>
<desc>Speed 108 km/h Distance 49.74 km</desc>
<time>2010-07-31T14:32:47.89</time>
<name>1515</name>
</trkpt>
<trkpt lat="48.962548" lon="11.076190">
<ele>577.0</ele>
<speed>110</speed>
<course>102.4</course>
<desc>Speed 110 km/h Distance 49.77 km</desc>
<time>2010-07-31T14:32:48.89</time>
<name>1516</name>
</trkpt>
<trkpt lat="48.962492" lon="11.076582">
<ele>576.5</ele>
<speed>105</speed>
<course>102.7</course>
<desc>Speed 105 km/h Distance 49.80 km</desc>
<time>2010-07-31T14:32:49.89</time>
<name>1517</name>
</trkpt>
<trkpt lat="48.962433" lon="11.076977">
<ele>576.5</ele>
<speed>106</speed>
<course>104.7</course>
<desc>Speed 106 km/h Distance 49.83 km</desc>
<time>2010-07-31T14:32:50.89</time>
<name>1518</name>
</trkpt>
<trkpt lat="48.962367" lon="11.077363">
<ele>577.0</ele>
<speed>105</speed>
<course>108.1</course>
<desc>Speed 105 km/h Distance 49.86 km</desc>
<time>2010-07-31T14:32:51.88</time>
<name>1519</name>
</trkpt>
<trkpt lat="48.962287" lon="11.077737">
<ele>577.0</ele>
<speed>104</speed>
<course>110.8</course>
<desc>Speed 104 km/h Distance 49.88 km</desc>
<time>2010-07-31T14:32:52.89</time>
<name>1520</name>
</trkpt>
<trkpt lat="48.962193" lon="11.078112">
<ele>577.0</ele>
<speed>105</speed>
<course>113.1</course>
<desc>Speed 105 km/h Distance 49.91 km</desc>
<time>2010-07-31T14:32:53.88</time>
<name>1521</name>
</trkpt>
<trkpt lat="48.962087" lon="11.078493">
<ele>578.0</ele>
<speed>107</speed>
<course>115.0</course>
<desc>Speed 107 km/h Distance 49.94 km</desc>
<time>2010-07-31T14:32:54.89</time>
<name>1522</name>
</trkpt>
<trkpt lat="48.961970" lon="11.078875">
<ele>578.5</ele>
<speed>109</speed>
<course>115.2</course>
<desc>Speed 109 km/h Distance 49.97 km</desc>
<time>2010-07-31T14:32:55.89</time>
<name>1523</name>
</trkpt>
<trkpt lat="48.961852" lon="11.079258">
<ele>579.0</ele>
<speed>111</speed>
<course>115.6</course>
<desc>Speed 111 km/h Distance 50.01 km</desc>
<time>2010-07-31T14:32:56.88</time>
<name>1524</name>
</trkpt>
<trkpt lat="48.961728" lon="11.079650">
<ele>579.5</ele>
<speed>112</speed>
<course>117.2</course>
<desc>Speed 112 km/h Distance 50.04 km</desc>
<time>2010-07-31T14:32:57.88</time>
<name>1525</name>
</trkpt>
<trkpt lat="48.961598" lon="11.080035">
<ele>580.0</ele>
<speed>113</speed>
<course>117.8</course>
<desc>Speed 113 km/h Distance 50.07 km</desc>
<time>2010-07-31T14:32:58.87</time>
<name>1526</name>
</trkpt>
<trkpt lat="48.961465" lon="11.080420">
<ele>580.0</ele>
<speed>113</speed>
<course>120.7</course>
<desc>Speed 113 km/h Distance 50.10 km</desc>
<time>2010-07-31T14:32:59.88</time>
<name>1527</name>
</trkpt>
<trkpt lat="48.961157" lon="11.081210">
<ele>581.0</ele>
<speed>117</speed>
<course>121.9</course>
<desc>Speed 117 km/h Distance 50.17 km</desc>
<time>2010-07-31T14:33:01.88</time>
<name>1528</name>
</trkpt>
<trkpt lat="48.960997" lon="11.081602">
<ele>581.0</ele>
<speed>121</speed>
<course>125.7</course>
<desc>Speed 121 km/h Distance 50.20 km</desc>
<time>2010-07-31T14:33:02.87</time>
<name>1529</name>
</trkpt>
<trkpt lat="48.960617" lon="11.082407">
<ele>581.5</ele>
<speed>126</speed>
<course>126.4</course>
<desc>Speed 126 km/h Distance 50.27 km</desc>
<time>2010-07-31T14:33:04.87</time>
<name>1530</name>
</trkpt>
<trkpt lat="48.960430" lon="11.082792">
<ele>581.5</ele>
<speed>126</speed>
<course>127.3</course>
<desc>Speed 126 km/h Distance 50.31 km</desc>
<time>2010-07-31T14:33:05.88</time>
<name>1531</name>
</trkpt>
<trkpt lat="48.960078" lon="11.083495">
<ele>581.0</ele>
<speed>135</speed>
<course>128.8</course>
<desc>Speed 135 km/h Distance 50.37 km</desc>
<time>2010-07-31T14:33:07.88</time>
<name>1532</name>
</trkpt>
<trkpt lat="48.959620" lon="11.084362">
<ele>580.5</ele>
<speed>148</speed>
<course>128.8</course>
<desc>Speed 148 km/h Distance 50.46 km</desc>
<time>2010-07-31T14:33:09.87</time>
<name>1533</name>
</trkpt>
<trkpt lat="48.959127" lon="11.085295">
<ele>581.0</ele>
<speed>153</speed>
<course>128.2</course>
<desc>Speed 153 km/h Distance 50.54 km</desc>
<time>2010-07-31T14:33:11.88</time>
<name>1534</name>
</trkpt>
<trkpt lat="48.958888" lon="11.085757">
<ele>580.5</ele>
<speed>159</speed>
<course>128.3</course>
<desc>Speed 159 km/h Distance 50.59 km</desc>
<time>2010-07-31T14:33:12.87</time>
<name>1535</name>
</trkpt>
<trkpt lat="48.958648" lon="11.086220">
<ele>580.5</ele>
<speed>155</speed>
<course>128.8</course>
<desc>Speed 155 km/h Distance 50.63 km</desc>
<time>2010-07-31T14:33:13.87</time>
<name>1536</name>
</trkpt>
<trkpt lat="48.958415" lon="11.086662">
<ele>580.0</ele>
<speed>151</speed>
<course>128.1</course>
<desc>Speed 151 km/h Distance 50.67 km</desc>
<time>2010-07-31T14:33:14.87</time>
<name>1537</name>
</trkpt>
<trkpt lat="48.958178" lon="11.087122">
<ele>581.0</ele>
<speed>154</speed>
<course>127.9</course>
<desc>Speed 154 km/h Distance 50.71 km</desc>
<time>2010-07-31T14:33:15.87</time>
<name>1538</name>
</trkpt>
<trkpt lat="48.957953" lon="11.087562">
<ele>582.5</ele>
<speed>152</speed>
<course>127.9</course>
<desc>Speed 152 km/h Distance 50.75 km</desc>
<time>2010-07-31T14:33:16.87</time>
<name>1539</name>
</trkpt>
<trkpt lat="48.957343" lon="11.088753">
<ele>582.5</ele>
<speed>131</speed>
<course>128.3</course>
<desc>Speed 131 km/h Distance 50.86 km</desc>
<time>2010-07-31T14:33:19.86</time>
<name>1540</name>
</trkpt>
<trkpt lat="48.957150" lon="11.089127">
<ele>582.5</ele>
<speed>125</speed>
<course>128.9</course>
<desc>Speed 125 km/h Distance 50.90 km</desc>
<time>2010-07-31T14:33:20.87</time>
<name>1541</name>
</trkpt>
<trkpt lat="48.956953" lon="11.089498">
<ele>582.5</ele>
<speed>123</speed>
<course>128.5</course>
<desc>Speed 123 km/h Distance 50.93 km</desc>
<time>2010-07-31T14:33:21.86</time>
<name>1542</name>
</trkpt>
<trkpt lat="48.956760" lon="11.089868">
<ele>582.5</ele>
<speed>123</speed>
<course>128.7</course>
<desc>Speed 123 km/h Distance 50.97 km</desc>
<time>2010-07-31T14:33:22.86</time>
<name>1543</name>
</trkpt>
<trkpt lat="48.956563" lon="11.090242">
<ele>582.5</ele>
<speed>126</speed>
<course>128.3</course>
<desc>Speed 126 km/h Distance 51.00 km</desc>
<time>2010-07-31T14:33:23.86</time>
<name>1544</name>
</trkpt>
<trkpt lat="48.956142" lon="11.091055">
<ele>584.0</ele>
<speed>137</speed>
<course>128.6</course>
<desc>Speed 137 km/h Distance 51.08 km</desc>
<time>2010-07-31T14:33:25.86</time>
<name>1545</name>
</trkpt>
<trkpt lat="48.955925" lon="11.091468">
<ele>584.5</ele>
<speed>138</speed>
<course>128.6</course>
<desc>Speed 138 km/h Distance 51.12 km</desc>
<time>2010-07-31T14:33:26.85</time>
<name>1546</name>
</trkpt>
<trkpt lat="48.955710" lon="11.091878">
<ele>584.5</ele>
<speed>137</speed>
<course>128.4</course>
<desc>Speed 137 km/h Distance 51.16 km</desc>
<time>2010-07-31T14:33:27.87</time>
<name>1547</name>
</trkpt>
<trkpt lat="48.955492" lon="11.092298">
<ele>584.5</ele>
<speed>139</speed>
<course>128.2</course>
<desc>Speed 139 km/h Distance 51.20 km</desc>
<time>2010-07-31T14:33:28.86</time>
<name>1548</name>
</trkpt>
<trkpt lat="48.955275" lon="11.092718">
<ele>584.5</ele>
<speed>140</speed>
<course>128.0</course>
<desc>Speed 140 km/h Distance 51.23 km</desc>
<time>2010-07-31T14:33:29.86</time>
<name>1549</name>
</trkpt>
<trkpt lat="48.955057" lon="11.093143">
<ele>584.5</ele>
<speed>141</speed>
<course>128.1</course>
<desc>Speed 141 km/h Distance 51.27 km</desc>
<time>2010-07-31T14:33:30.86</time>
<name>1550</name>
</trkpt>
<trkpt lat="48.954833" lon="11.093577">
<ele>585.0</ele>
<speed>145</speed>
<course>127.7</course>
<desc>Speed 145 km/h Distance 51.31 km</desc>
<time>2010-07-31T14:33:31.86</time>
<name>1551</name>
</trkpt>
<trkpt lat="48.954375" lon="11.094478">
<ele>587.5</ele>
<speed>144</speed>
<course>128.5</course>
<desc>Speed 144 km/h Distance 51.40 km</desc>
<time>2010-07-31T14:33:33.86</time>
<name>1552</name>
</trkpt>
<trkpt lat="48.954150" lon="11.094908">
<ele>587.5</ele>
<speed>141</speed>
<course>128.6</course>
<desc>Speed 141 km/h Distance 51.44 km</desc>
<time>2010-07-31T14:33:34.86</time>
<name>1553</name>
</trkpt>
<trkpt lat="48.953928" lon="11.095332">
<ele>587.5</ele>
<speed>143</speed>
<course>128.5</course>
<desc>Speed 143 km/h Distance 51.48 km</desc>
<time>2010-07-31T14:33:35.86</time>
<name>1554</name>
</trkpt>
<trkpt lat="48.953698" lon="11.095772">
<ele>588.5</ele>
<speed>145</speed>
<course>129.0</course>
<desc>Speed 145 km/h Distance 51.52 km</desc>
<time>2010-07-31T14:33:36.86</time>
<name>1555</name>
</trkpt>
<trkpt lat="48.953472" lon="11.096198">
<ele>588.5</ele>
<speed>143</speed>
<course>129.3</course>
<desc>Speed 143 km/h Distance 51.56 km</desc>
<time>2010-07-31T14:33:37.86</time>
<name>1556</name>
</trkpt>
<trkpt lat="48.953247" lon="11.096617">
<ele>588.5</ele>
<speed>142</speed>
<course>128.5</course>
<desc>Speed 142 km/h Distance 51.60 km</desc>
<time>2010-07-31T14:33:38.85</time>
<name>1557</name>
</trkpt>
<trkpt lat="48.953027" lon="11.097038">
<ele>588.0</ele>
<speed>142</speed>
<course>128.8</course>
<desc>Speed 142 km/h Distance 51.64 km</desc>
<time>2010-07-31T14:33:39.86</time>
<name>1558</name>
</trkpt>
<trkpt lat="48.952803" lon="11.097462">
<ele>588.5</ele>
<speed>142</speed>
<course>134.7</course>
<desc>Speed 142 km/h Distance 51.68 km</desc>
<time>2010-07-31T14:33:40.86</time>
<name>1559</name>
</trkpt>
<trkpt lat="48.952557" lon="11.097842">
<ele>588.5</ele>
<speed>141</speed>
<course>131.2</course>
<desc>Speed 141 km/h Distance 51.72 km</desc>
<time>2010-07-31T14:33:41.86</time>
<name>1560</name>
</trkpt>
<trkpt lat="48.951950" lon="11.098897">
<ele>591.5</ele>
<speed>133</speed>
<course>127.7</course>
<desc>Speed 133 km/h Distance 51.82 km</desc>
<time>2010-07-31T14:33:44.85</time>
<name>1561</name>
</trkpt>
<trkpt lat="48.951738" lon="11.099313">
<ele>591.5</ele>
<speed>133</speed>
<course>128.5</course>
<desc>Speed 133 km/h Distance 51.86 km</desc>
<time>2010-07-31T14:33:45.85</time>
<name>1562</name>
</trkpt>
<trkpt lat="48.951530" lon="11.099712">
<ele>591.0</ele>
<speed>134</speed>
<course>128.6</course>
<desc>Speed 134 km/h Distance 51.89 km</desc>
<time>2010-07-31T14:33:46.85</time>
<name>1563</name>
</trkpt>
<trkpt lat="48.950788" lon="11.101125">
<ele>592.5</ele>
<speed>145</speed>
<course>127.2</course>
<desc>Speed 145 km/h Distance 52.03 km</desc>
<time>2010-07-31T14:33:50.85</time>
<name>1564</name>
</trkpt>
<trkpt lat="48.950567" lon="11.101570">
<ele>592.5</ele>
<speed>141</speed>
<course>128.4</course>
<desc>Speed 141 km/h Distance 52.07 km</desc>
<time>2010-07-31T14:33:51.85</time>
<name>1565</name>
</trkpt>
<trkpt lat="48.950092" lon="11.102482">
<ele>593.5</ele>
<speed>147</speed>
<course>129.7</course>
<desc>Speed 147 km/h Distance 52.15 km</desc>
<time>2010-07-31T14:33:53.84</time>
<name>1566</name>
</trkpt>
<trkpt lat="48.949850" lon="11.102925">
<ele>593.5</ele>
<speed>151</speed>
<course>128.8</course>
<desc>Speed 151 km/h Distance 52.19 km</desc>
<time>2010-07-31T14:33:54.84</time>
<name>1567</name>
</trkpt>
<trkpt lat="48.949603" lon="11.103392">
<ele>594.5</ele>
<speed>146</speed>
<course>127.9</course>
<desc>Speed 146 km/h Distance 52.24 km</desc>
<time>2010-07-31T14:33:55.84</time>
<name>1568</name>
</trkpt>
<trkpt lat="48.949377" lon="11.103835">
<ele>594.5</ele>
<speed>147</speed>
<course>128.9</course>
<desc>Speed 147 km/h Distance 52.28 km</desc>
<time>2010-07-31T14:33:56.84</time>
<name>1569</name>
</trkpt>
<trkpt lat="48.949137" lon="11.104288">
<ele>595.0</ele>
<speed>144</speed>
<course>131.6</course>
<desc>Speed 144 km/h Distance 52.32 km</desc>
<time>2010-07-31T14:33:57.85</time>
<name>1570</name>
</trkpt>
<trkpt lat="48.948893" lon="11.104705">
<ele>594.5</ele>
<speed>144</speed>
<course>130.3</course>
<desc>Speed 144 km/h Distance 52.36 km</desc>
<time>2010-07-31T14:33:58.85</time>
<name>1571</name>
</trkpt>
<trkpt lat="48.948425" lon="11.105547">
<ele>595.0</ele>
<speed>144</speed>
<course>128.4</course>
<desc>Speed 144 km/h Distance 52.44 km</desc>
<time>2010-07-31T14:34:00.85</time>
<name>1572</name>
</trkpt>
<trkpt lat="48.947968" lon="11.106425">
<ele>595.5</ele>
<speed>142</speed>
<course>124.4</course>
<desc>Speed 142 km/h Distance 52.53 km</desc>
<time>2010-07-31T14:34:02.85</time>
<name>1573</name>
</trkpt>
<trkpt lat="48.947767" lon="11.106873">
<ele>595.0</ele>
<speed>141</speed>
<course>127.3</course>
<desc>Speed 141 km/h Distance 52.57 km</desc>
<time>2010-07-31T14:34:03.84</time>
<name>1574</name>
</trkpt>
<trkpt lat="48.947553" lon="11.107300">
<ele>594.5</ele>
<speed>139</speed>
<course>125.5</course>
<desc>Speed 139 km/h Distance 52.60 km</desc>
<time>2010-07-31T14:34:04.84</time>
<name>1575</name>
</trkpt>
<trkpt lat="48.947352" lon="11.107730">
<ele>594.5</ele>
<speed>138</speed>
<course>126.4</course>
<desc>Speed 138 km/h Distance 52.64 km</desc>
<time>2010-07-31T14:34:05.84</time>
<name>1576</name>
</trkpt>
<trkpt lat="48.947143" lon="11.108160">
<ele>594.0</ele>
<speed>139</speed>
<course>126.9</course>
<desc>Speed 139 km/h Distance 52.68 km</desc>
<time>2010-07-31T14:34:06.84</time>
<name>1577</name>
</trkpt>
<trkpt lat="48.946737" lon="11.108983">
<ele>595.0</ele>
<speed>136</speed>
<course>126.0</course>
<desc>Speed 136 km/h Distance 52.76 km</desc>
<time>2010-07-31T14:34:08.84</time>
<name>1578</name>
</trkpt>
<trkpt lat="48.946225" lon="11.110057">
<ele>598.0</ele>
<speed>132</speed>
<course>125.0</course>
<desc>Speed 132 km/h Distance 52.85 km</desc>
<time>2010-07-31T14:34:11.84</time>
<name>1579</name>
</trkpt>
<trkpt lat="48.945533" lon="11.111562">
<ele>600.0</ele>
<speed>125</speed>
<course>130.6</course>
<desc>Speed 125 km/h Distance 52.99 km</desc>
<time>2010-07-31T14:34:15.83</time>
<name>1580</name>
</trkpt>
<trkpt lat="48.945088" lon="11.112352">
<ele>599.5</ele>
<speed>118</speed>
<course>128.7</course>
<desc>Speed 118 km/h Distance 53.06 km</desc>
<time>2010-07-31T14:34:17.83</time>
<name>1581</name>
</trkpt>
<trkpt lat="48.944452" lon="11.113562">
<ele>604.0</ele>
<speed>115</speed>
<course>130.8</course>
<desc>Speed 115 km/h Distance 53.18 km</desc>
<time>2010-07-31T14:34:20.83</time>
<name>1582</name>
</trkpt>
<trkpt lat="48.943955" lon="11.114438">
<ele>601.5</ele>
<speed>117</speed>
<course>134.0</course>
<desc>Speed 117 km/h Distance 53.26 km</desc>
<time>2010-07-31T14:34:23.83</time>
<name>1583</name>
</trkpt>
<trkpt lat="48.943555" lon="11.115068">
<ele>599.5</ele>
<speed>121</speed>
<course>134.7</course>
<desc>Speed 121 km/h Distance 53.33 km</desc>
<time>2010-07-31T14:34:25.83</time>
<name>1584</name>
</trkpt>
<trkpt lat="48.943175" lon="11.115653">
<ele>598.0</ele>
<speed>126</speed>
<course>138.8</course>
<desc>Speed 126 km/h Distance 53.39 km</desc>
<time>2010-07-31T14:34:27.84</time>
<name>1585</name>
</trkpt>
<trkpt lat="48.942677" lon="11.116318">
<ele>599.0</ele>
<speed>135</speed>
<course>129.1</course>
<desc>Speed 135 km/h Distance 53.46 km</desc>
<time>2010-07-31T14:34:29.84</time>
<name>1586</name>
</trkpt>
<trkpt lat="48.941917" lon="11.117740">
<ele>596.5</ele>
<speed>129</speed>
<course>127.8</course>
<desc>Speed 129 km/h Distance 53.59 km</desc>
<time>2010-07-31T14:34:33.82</time>
<name>1587</name>
</trkpt>
<trkpt lat="48.941528" lon="11.118503">
<ele>594.5</ele>
<speed>125</speed>
<course>129.9</course>
<desc>Speed 125 km/h Distance 53.67 km</desc>
<time>2010-07-31T14:34:35.83</time>
<name>1588</name>
</trkpt>
<trkpt lat="48.941170" lon="11.119157">
<ele>593.5</ele>
<speed>125</speed>
<course>129.4</course>
<desc>Speed 125 km/h Distance 53.73 km</desc>
<time>2010-07-31T14:34:37.82</time>
<name>1589</name>
</trkpt>
<trkpt lat="48.940797" lon="11.119848">
<ele>595.0</ele>
<speed>115</speed>
<course>126.5</course>
<desc>Speed 115 km/h Distance 53.79 km</desc>
<time>2010-07-31T14:34:39.82</time>
<name>1590</name>
</trkpt>
<trkpt lat="48.940242" lon="11.120988">
<ele>596.5</ele>
<speed>113</speed>
<course>124.5</course>
<desc>Speed 113 km/h Distance 53.90 km</desc>
<time>2010-07-31T14:34:42.82</time>
<name>1591</name>
</trkpt>
<trkpt lat="48.939945" lon="11.121645">
<ele>595.5</ele>
<speed>104</speed>
<course>131.0</course>
<desc>Speed 104 km/h Distance 53.96 km</desc>
<time>2010-07-31T14:34:44.82</time>
<name>1592</name>
</trkpt>
<trkpt lat="48.939617" lon="11.122220">
<ele>593.5</ele>
<speed>99.3</speed>
<course>125.5</course>
<desc>Speed 99.3 km/h Distance 54.01 km</desc>
<time>2010-07-31T14:34:46.82</time>
<name>1593</name>
</trkpt>
<trkpt lat="48.939310" lon="11.122875">
<ele>592.0</ele>
<speed>102</speed>
<course>128.7</course>
<desc>Speed 102 km/h Distance 54.07 km</desc>
<time>2010-07-31T14:34:48.81</time>
<name>1594</name>
</trkpt>
<trkpt lat="48.938733" lon="11.123970">
<ele>593.0</ele>
<speed>110</speed>
<course>131.7</course>
<desc>Speed 110 km/h Distance 54.17 km</desc>
<time>2010-07-31T14:34:51.81</time>
<name>1595</name>
</trkpt>
<trkpt lat="48.938540" lon="11.124300">
<ele>591.5</ele>
<speed>111</speed>
<course>131.7</course>
<desc>Speed 111 km/h Distance 54.20 km</desc>
<time>2010-07-31T14:34:52.81</time>
<name>1596</name>
</trkpt>
<trkpt lat="48.938137" lon="11.124990">
<ele>590.0</ele>
<speed>116</speed>
<course>130.1</course>
<desc>Speed 116 km/h Distance 54.27 km</desc>
<time>2010-07-31T14:34:54.81</time>
<name>1597</name>
</trkpt>
<trkpt lat="48.937943" lon="11.125340">
<ele>590.0</ele>
<speed>119</speed>
<course>131.6</course>
<desc>Speed 119 km/h Distance 54.31 km</desc>
<time>2010-07-31T14:34:55.81</time>
<name>1598</name>
</trkpt>
<trkpt lat="48.937265" lon="11.126503">
<ele>590.0</ele>
<speed>137</speed>
<course>131.8</course>
<desc>Speed 137 km/h Distance 54.42 km</desc>
<time>2010-07-31T14:34:58.81</time>
<name>1599</name>
</trkpt>
<trkpt lat="48.936512" lon="11.127785">
<ele>590.5</ele>
<speed>146</speed>
<course>132.7</course>
<desc>Speed 146 km/h Distance 54.55 km</desc>
<time>2010-07-31T14:35:01.80</time>
<name>1600</name>
</trkpt>
<trkpt lat="48.936253" lon="11.128212">
<ele>590.0</ele>
<speed>151</speed>
<course>129.5</course>
<desc>Speed 151 km/h Distance 54.59 km</desc>
<time>2010-07-31T14:35:02.81</time>
<name>1601</name>
</trkpt>
<trkpt lat="48.936012" lon="11.128658">
<ele>590.0</ele>
<speed>152</speed>
<course>130.4</course>
<desc>Speed 152 km/h Distance 54.63 km</desc>
<time>2010-07-31T14:35:03.81</time>
<name>1602</name>
</trkpt>
<trkpt lat="48.935553" lon="11.129478">
<ele>590.0</ele>
<speed>141</speed>
<course>129.2</course>
<desc>Speed 141 km/h Distance 54.71 km</desc>
<time>2010-07-31T14:35:05.80</time>
<name>1603</name>
</trkpt>
<trkpt lat="48.935328" lon="11.129898">
<ele>590.5</ele>
<speed>136</speed>
<course>129.6</course>
<desc>Speed 136 km/h Distance 54.75 km</desc>
<time>2010-07-31T14:35:06.81</time>
<name>1604</name>
</trkpt>
<trkpt lat="48.935103" lon="11.130312">
<ele>592.0</ele>
<speed>133</speed>
<course>131.4</course>
<desc>Speed 133 km/h Distance 54.79 km</desc>
<time>2010-07-31T14:35:07.80</time>
<name>1605</name>
</trkpt>
<trkpt lat="48.934880" lon="11.130697">
<ele>592.0</ele>
<speed>131</speed>
<course>134.6</course>
<desc>Speed 131 km/h Distance 54.82 km</desc>
<time>2010-07-31T14:35:08.81</time>
<name>1606</name>
</trkpt>
<trkpt lat="48.934298" lon="11.131593">
<ele>593.0</ele>
<speed>119</speed>
<course>136.7</course>
<desc>Speed 119 km/h Distance 54.92 km</desc>
<time>2010-07-31T14:35:11.80</time>
<name>1607</name>
</trkpt>
<trkpt lat="48.933543" lon="11.132675">
<ele>595.5</ele>
<speed>123</speed>
<course>139.1</course>
<desc>Speed 123 km/h Distance 55.03 km</desc>
<time>2010-07-31T14:35:15.80</time>
<name>1608</name>
</trkpt>
<trkpt lat="48.932500" lon="11.134050">
<ele>596.5</ele>
<speed>135</speed>
<course>145.0</course>
<desc>Speed 135 km/h Distance 55.19 km</desc>
<time>2010-07-31T14:35:19.80</time>
<name>1609</name>
</trkpt>
<trkpt lat="48.931465" lon="11.135155">
<ele>562.5</ele>
<speed>166</speed>
<course>146.1</course>
<desc>Speed 166 km/h Distance 55.33 km</desc>
<time>2010-07-31T14:35:25.80</time>
<name>1610</name>
</trkpt>
<trkpt lat="48.929518" lon="11.137143">
<ele>537.5</ele>
<speed>120</speed>
<course>142.4</course>
<desc>Speed 120 km/h Distance 55.59 km</desc>
<time>2010-07-31T14:35:31.79</time>
<name>1611</name>
</trkpt>
<trkpt lat="48.929077" lon="11.137662">
<ele>539.5</ele>
<speed>120</speed>
<course>137.5</course>
<desc>Speed 120 km/h Distance 55.65 km</desc>
<time>2010-07-31T14:35:33.80</time>
<name>1612</name>
</trkpt>
<trkpt lat="48.927820" lon="11.139412">
<ele>584.5</ele>
<speed>69.6</speed>
<course>159.7</course>
<desc>Speed 69.6 km/h Distance 55.84 km</desc>
<time>2010-07-31T14:35:39.78</time>
<name>1613</name>
</trkpt>
<trkpt lat="48.927660" lon="11.139502">
<ele>587.0</ele>
<speed>65.8</speed>
<course>162.9</course>
<desc>Speed 65.8 km/h Distance 55.86 km</desc>
<time>2010-07-31T14:35:40.78</time>
<name>1614</name>
</trkpt>
<trkpt lat="48.926878" lon="11.139868">
<ele>591.5</ele>
<speed>61.2</speed>
<course>136.4</course>
<desc>Speed 61.2 km/h Distance 55.95 km</desc>
<time>2010-07-31T14:35:44.79</time>
<name>1615</name>
</trkpt>
<trkpt lat="48.926607" lon="11.140262">
<ele>592.0</ele>
<speed>58.1</speed>
<course>136.0</course>
<desc>Speed 58.1 km/h Distance 55.99 km</desc>
<time>2010-07-31T14:35:46.78</time>
<name>1616</name>
</trkpt>
<trkpt lat="48.926493" lon="11.140428">
<ele>592.5</ele>
<speed>59.5</speed>
<course>137.0</course>
<desc>Speed 59.5 km/h Distance 56.01 km</desc>
<time>2010-07-31T14:35:47.78</time>
<name>1617</name>
</trkpt>
<trkpt lat="48.926275" lon="11.140738">
<ele>592.5</ele>
<speed>61.8</speed>
<course>129.9</course>
<desc>Speed 61.8 km/h Distance 56.04 km</desc>
<time>2010-07-31T14:35:49.77</time>
<name>1618</name>
</trkpt>
<trkpt lat="48.926172" lon="11.140927">
<ele>592.5</ele>
<speed>62.7</speed>
<course>139.4</course>
<desc>Speed 62.7 km/h Distance 56.06 km</desc>
<time>2010-07-31T14:35:50.78</time>
<name>1619</name>
</trkpt>
<trkpt lat="48.926047" lon="11.141090">
<ele>592.5</ele>
<speed>63.7</speed>
<course>132.3</course>
<desc>Speed 63.7 km/h Distance 56.08 km</desc>
<time>2010-07-31T14:35:51.78</time>
<name>1620</name>
</trkpt>
<trkpt lat="48.925935" lon="11.141277">
<ele>592.0</ele>
<speed>63.0</speed>
<course>124.3</course>
<desc>Speed 63.0 km/h Distance 56.10 km</desc>
<time>2010-07-31T14:35:52.78</time>
<name>1621</name>
</trkpt>
<trkpt lat="48.925842" lon="11.141485">
<ele>592.0</ele>
<speed>61.0</speed>
<course>135.6</course>
<desc>Speed 61.0 km/h Distance 56.12 km</desc>
<time>2010-07-31T14:35:53.78</time>
<name>1622</name>
</trkpt>
<trkpt lat="48.925727" lon="11.141657">
<ele>591.5</ele>
<speed>59.4</speed>
<course>150.9</course>
<desc>Speed 59.4 km/h Distance 56.13 km</desc>
<time>2010-07-31T14:35:54.78</time>
<name>1623</name>
</trkpt>
<trkpt lat="48.925443" lon="11.141897">
<ele>591.5</ele>
<speed>63.4</speed>
<course>170.5</course>
<desc>Speed 63.4 km/h Distance 56.17 km</desc>
<time>2010-07-31T14:35:56.77</time>
<name>1624</name>
</trkpt>
<trkpt lat="48.924563" lon="11.142120">
<ele>594.0</ele>
<speed>86.5</speed>
<course>172.8</course>
<desc>Speed 86.5 km/h Distance 56.27 km</desc>
<time>2010-07-31T14:36:00.77</time>
<name>1625</name>
</trkpt>
<trkpt lat="48.924083" lon="11.142212">
<ele>595.0</ele>
<speed>89.7</speed>
<course>171.6</course>
<desc>Speed 89.7 km/h Distance 56.32 km</desc>
<time>2010-07-31T14:36:02.77</time>
<name>1626</name>
</trkpt>
<trkpt lat="48.923853" lon="11.142263">
<ele>595.0</ele>
<speed>91.9</speed>
<course>170.2</course>
<desc>Speed 91.9 km/h Distance 56.35 km</desc>
<time>2010-07-31T14:36:03.78</time>
<name>1627</name>
</trkpt>
<trkpt lat="48.923613" lon="11.142327">
<ele>595.0</ele>
<speed>95.3</speed>
<course>171.5</course>
<desc>Speed 95.3 km/h Distance 56.38 km</desc>
<time>2010-07-31T14:36:04.77</time>
<name>1628</name>
</trkpt>
<trkpt lat="48.923372" lon="11.142382">
<ele>593.0</ele>
<speed>96.8</speed>
<course>170.3</course>
<desc>Speed 96.8 km/h Distance 56.40 km</desc>
<time>2010-07-31T14:36:05.77</time>
<name>1629</name>
</trkpt>
<trkpt lat="48.923117" lon="11.142448">
<ele>594.5</ele>
<speed>102</speed>
<course>170.4</course>
<desc>Speed 102 km/h Distance 56.43 km</desc>
<time>2010-07-31T14:36:06.77</time>
<name>1630</name>
</trkpt>
<trkpt lat="48.922858" lon="11.142515">
<ele>595.0</ele>
<speed>103</speed>
<course>170.6</course>
<desc>Speed 103 km/h Distance 56.46 km</desc>
<time>2010-07-31T14:36:07.77</time>
<name>1631</name>
</trkpt>
<trkpt lat="48.922593" lon="11.142582">
<ele>595.5</ele>
<speed>106</speed>
<course>171.4</course>
<desc>Speed 106 km/h Distance 56.49 km</desc>
<time>2010-07-31T14:36:08.77</time>
<name>1632</name>
</trkpt>
<trkpt lat="48.922327" lon="11.142643">
<ele>595.5</ele>
<speed>108</speed>
<course>171.1</course>
<desc>Speed 108 km/h Distance 56.52 km</desc>
<time>2010-07-31T14:36:09.78</time>
<name>1633</name>
</trkpt>
<trkpt lat="48.922055" lon="11.142708">
<ele>595.5</ele>
<speed>110</speed>
<course>171.0</course>
<desc>Speed 110 km/h Distance 56.55 km</desc>
<time>2010-07-31T14:36:10.77</time>
<name>1634</name>
</trkpt>
<trkpt lat="48.921780" lon="11.142775">
<ele>595.5</ele>
<speed>111</speed>
<course>171.0</course>
<desc>Speed 111 km/h Distance 56.58 km</desc>
<time>2010-07-31T14:36:11.77</time>
<name>1635</name>
</trkpt>
<trkpt lat="48.921512" lon="11.142840">
<ele>596.0</ele>
<speed>109</speed>
<course>171.0</course>
<desc>Speed 109 km/h Distance 56.61 km</desc>
<time>2010-07-31T14:36:12.77</time>
<name>1636</name>
</trkpt>
<trkpt lat="48.921243" lon="11.142905">
<ele>596.5</ele>
<speed>108</speed>
<course>172.2</course>
<desc>Speed 108 km/h Distance 56.64 km</desc>
<time>2010-07-31T14:36:13.77</time>
<name>1637</name>
</trkpt>
<trkpt lat="48.920965" lon="11.142963">
<ele>596.5</ele>
<speed>112</speed>
<course>171.4</course>
<desc>Speed 112 km/h Distance 56.67 km</desc>
<time>2010-07-31T14:36:14.76</time>
<name>1638</name>
</trkpt>
<trkpt lat="48.920690" lon="11.143027">
<ele>596.0</ele>
<speed>111</speed>
<course>171.5</course>
<desc>Speed 111 km/h Distance 56.70 km</desc>
<time>2010-07-31T14:36:15.76</time>
<name>1639</name>
</trkpt>
<trkpt lat="48.920412" lon="11.143090">
<ele>596.0</ele>
<speed>112</speed>
<course>171.5</course>
<desc>Speed 112 km/h Distance 56.74 km</desc>
<time>2010-07-31T14:36:16.76</time>
<name>1640</name>
</trkpt>
<trkpt lat="48.920132" lon="11.143153">
<ele>595.5</ele>
<speed>113</speed>
<course>171.1</course>
<desc>Speed 113 km/h Distance 56.77 km</desc>
<time>2010-07-31T14:36:17.77</time>
<name>1641</name>
</trkpt>
<trkpt lat="48.919853" lon="11.143220">
<ele>595.5</ele>
<speed>113</speed>
<course>170.6</course>
<desc>Speed 113 km/h Distance 56.80 km</desc>
<time>2010-07-31T14:36:18.76</time>
<name>1642</name>
</trkpt>
<trkpt lat="48.919575" lon="11.143290">
<ele>596.0</ele>
<speed>112</speed>
<course>170.2</course>
<desc>Speed 112 km/h Distance 56.83 km</desc>
<time>2010-07-31T14:36:19.77</time>
<name>1643</name>
</trkpt>
<trkpt lat="48.919295" lon="11.143363">
<ele>596.5</ele>
<speed>112</speed>
<course>170.3</course>
<desc>Speed 112 km/h Distance 56.86 km</desc>
<time>2010-07-31T14:36:20.76</time>
<name>1644</name>
</trkpt>
<trkpt lat="48.919025" lon="11.143433">
<ele>596.0</ele>
<speed>110</speed>
<course>169.7</course>
<desc>Speed 110 km/h Distance 56.89 km</desc>
<time>2010-07-31T14:36:21.77</time>
<name>1645</name>
</trkpt>
<trkpt lat="48.918760" lon="11.143507">
<ele>596.5</ele>
<speed>108</speed>
<course>169.8</course>
<desc>Speed 108 km/h Distance 56.92 km</desc>
<time>2010-07-31T14:36:22.76</time>
<name>1646</name>
</trkpt>
<trkpt lat="48.918498" lon="11.143578">
<ele>597.0</ele>
<speed>106</speed>
<course>170.1</course>
<desc>Speed 106 km/h Distance 56.95 km</desc>
<time>2010-07-31T14:36:23.76</time>
<name>1647</name>
</trkpt>
<trkpt lat="48.918242" lon="11.143647">
<ele>596.0</ele>
<speed>104</speed>
<course>170.1</course>
<desc>Speed 104 km/h Distance 56.98 km</desc>
<time>2010-07-31T14:36:24.76</time>
<name>1648</name>
</trkpt>
<trkpt lat="48.917990" lon="11.143713">
<ele>596.0</ele>
<speed>102</speed>
<course>170.2</course>
<desc>Speed 102 km/h Distance 57.01 km</desc>
<time>2010-07-31T14:36:25.77</time>
<name>1649</name>
</trkpt>
<trkpt lat="48.917743" lon="11.143778">
<ele>596.5</ele>
<speed>99.8</speed>
<course>170.3</course>
<desc>Speed 99.8 km/h Distance 57.04 km</desc>
<time>2010-07-31T14:36:26.77</time>
<name>1650</name>
</trkpt>
<trkpt lat="48.917500" lon="11.143842">
<ele>597.0</ele>
<speed>98.7</speed>
<course>170.8</course>
<desc>Speed 98.7 km/h Distance 57.07 km</desc>
<time>2010-07-31T14:36:27.76</time>
<name>1651</name>
</trkpt>
<trkpt lat="48.917257" lon="11.143902">
<ele>597.0</ele>
<speed>98.1</speed>
<course>170.9</course>
<desc>Speed 98.1 km/h Distance 57.09 km</desc>
<time>2010-07-31T14:36:28.76</time>
<name>1652</name>
</trkpt>
<trkpt lat="48.917017" lon="11.143960">
<ele>596.5</ele>
<speed>97.7</speed>
<course>168.7</course>
<desc>Speed 97.7 km/h Distance 57.12 km</desc>
<time>2010-07-31T14:36:29.75</time>
<name>1653</name>
</trkpt>
<trkpt lat="48.916782" lon="11.144032">
<ele>596.5</ele>
<speed>95.3</speed>
<course>170.7</course>
<desc>Speed 95.3 km/h Distance 57.15 km</desc>
<time>2010-07-31T14:36:30.77</time>
<name>1654</name>
</trkpt>
<trkpt lat="48.916540" lon="11.144092">
<ele>596.5</ele>
<speed>98.3</speed>
<course>171.2</course>
<desc>Speed 98.3 km/h Distance 57.17 km</desc>
<time>2010-07-31T14:36:31.76</time>
<name>1655</name>
</trkpt>
<trkpt lat="48.916293" lon="11.144150">
<ele>596.5</ele>
<speed>99.3</speed>
<course>170.9</course>
<desc>Speed 99.3 km/h Distance 57.20 km</desc>
<time>2010-07-31T14:36:32.76</time>
<name>1656</name>
</trkpt>
<trkpt lat="48.916048" lon="11.144210">
<ele>597.0</ele>
<speed>98.8</speed>
<course>171.2</course>
<desc>Speed 98.8 km/h Distance 57.23 km</desc>
<time>2010-07-31T14:36:33.75</time>
<name>1657</name>
</trkpt>
<trkpt lat="48.915802" lon="11.144268">
<ele>597.0</ele>
<speed>99.5</speed>
<course>170.9</course>
<desc>Speed 99.5 km/h Distance 57.26 km</desc>
<time>2010-07-31T14:36:34.75</time>
<name>1658</name>
</trkpt>
<trkpt lat="48.915557" lon="11.144328">
<ele>597.0</ele>
<speed>99.1</speed>
<course>169.8</course>
<desc>Speed 99.1 km/h Distance 57.28 km</desc>
<time>2010-07-31T14:36:35.75</time>
<name>1659</name>
</trkpt>
<trkpt lat="48.915105" lon="11.144452">
<ele>597.0</ele>
<speed>86.3</speed>
<course>170.2</course>
<desc>Speed 86.3 km/h Distance 57.34 km</desc>
<time>2010-07-31T14:36:37.76</time>
<name>1660</name>
</trkpt>
<trkpt lat="48.914888" lon="11.144508">
<ele>595.5</ele>
<speed>87.6</speed>
<course>171.8</course>
<desc>Speed 87.6 km/h Distance 57.36 km</desc>
<time>2010-07-31T14:36:38.75</time>
<name>1661</name>
</trkpt>
<trkpt lat="48.914073" lon="11.144687">
<ele>592.0</ele>
<speed>27.2</speed>
<course>190.4</course>
<desc>Speed 27.2 km/h Distance 57.45 km</desc>
<time>2010-07-31T14:36:44.74</time>
<name>1662</name>
</trkpt>
<trkpt lat="48.913948" lon="11.144652">
<ele>591.5</ele>
<speed>26.4</speed>
<course>214.0</course>
<desc>Speed 26.4 km/h Distance 57.47 km</desc>
<time>2010-07-31T14:36:46.75</time>
<name>1663</name>
</trkpt>
<trkpt lat="48.913882" lon="11.144583">
<ele>591.0</ele>
<speed>31.9</speed>
<course>191.0</course>
<desc>Speed 31.9 km/h Distance 57.47 km</desc>
<time>2010-07-31T14:36:47.75</time>
<name>1664</name>
</trkpt>
<trkpt lat="48.913792" lon="11.144557">
<ele>592.5</ele>
<speed>36.4</speed>
<course>179.6</course>
<desc>Speed 36.4 km/h Distance 57.48 km</desc>
<time>2010-07-31T14:36:48.76</time>
<name>1665</name>
</trkpt>
<trkpt lat="48.913703" lon="11.144558">
<ele>593.0</ele>
<speed>34.8</speed>
<course>159.9</course>
<desc>Speed 34.8 km/h Distance 57.49 km</desc>
<time>2010-07-31T14:36:49.75</time>
<name>1666</name>
</trkpt>
<trkpt lat="48.913500" lon="11.144672">
<ele>592.5</ele>
<speed>42.7</speed>
<course>151.4</course>
<desc>Speed 42.7 km/h Distance 57.52 km</desc>
<time>2010-07-31T14:36:51.75</time>
<name>1667</name>
</trkpt>
<trkpt lat="48.913393" lon="11.144760">
<ele>592.5</ele>
<speed>48.2</speed>
<course>168.9</course>
<desc>Speed 48.2 km/h Distance 57.53 km</desc>
<time>2010-07-31T14:36:52.75</time>
<name>1668</name>
</trkpt>
<trkpt lat="48.912260" lon="11.145098">
<ele>591.5</ele>
<speed>86.0</speed>
<course>171.3</course>
<desc>Speed 86.0 km/h Distance 57.66 km</desc>
<time>2010-07-31T14:36:58.74</time>
<name>1669</name>
</trkpt>
<trkpt lat="48.912032" lon="11.145152">
<ele>591.0</ele>
<speed>92.6</speed>
<course>171.2</course>
<desc>Speed 92.6 km/h Distance 57.69 km</desc>
<time>2010-07-31T14:36:59.74</time>
<name>1670</name>
</trkpt>
<trkpt lat="48.911805" lon="11.145205">
<ele>590.5</ele>
<speed>91.8</speed>
<course>171.4</course>
<desc>Speed 91.8 km/h Distance 57.71 km</desc>
<time>2010-07-31T14:37:00.75</time>
<name>1671</name>
</trkpt>
<trkpt lat="48.911580" lon="11.145257">
<ele>590.5</ele>
<speed>91.2</speed>
<course>170.9</course>
<desc>Speed 91.2 km/h Distance 57.74 km</desc>
<time>2010-07-31T14:37:01.74</time>
<name>1672</name>
</trkpt>
<trkpt lat="48.911362" lon="11.145310">
<ele>590.5</ele>
<speed>89.4</speed>
<course>170.9</course>
<desc>Speed 89.4 km/h Distance 57.76 km</desc>
<time>2010-07-31T14:37:02.75</time>
<name>1673</name>
</trkpt>
<trkpt lat="48.911142" lon="11.145363">
<ele>590.5</ele>
<speed>89.7</speed>
<course>171.2</course>
<desc>Speed 89.7 km/h Distance 57.79 km</desc>
<time>2010-07-31T14:37:03.74</time>
<name>1674</name>
</trkpt>
<trkpt lat="48.910923" lon="11.145415">
<ele>590.5</ele>
<speed>88.1</speed>
<course>171.6</course>
<desc>Speed 88.1 km/h Distance 57.81 km</desc>
<time>2010-07-31T14:37:04.75</time>
<name>1675</name>
</trkpt>
<trkpt lat="48.910715" lon="11.145462">
<ele>590.0</ele>
<speed>86.2</speed>
<course>171.4</course>
<desc>Speed 86.2 km/h Distance 57.83 km</desc>
<time>2010-07-31T14:37:05.74</time>
<name>1676</name>
</trkpt>
<trkpt lat="48.910505" lon="11.145510">
<ele>590.0</ele>
<speed>84.8</speed>
<course>170.8</course>
<desc>Speed 84.8 km/h Distance 57.86 km</desc>
<time>2010-07-31T14:37:06.74</time>
<name>1677</name>
</trkpt>
<trkpt lat="48.910302" lon="11.145560">
<ele>589.5</ele>
<speed>82.2</speed>
<course>170.0</course>
<desc>Speed 82.2 km/h Distance 57.88 km</desc>
<time>2010-07-31T14:37:07.74</time>
<name>1678</name>
</trkpt>
<trkpt lat="48.909933" lon="11.145658">
<ele>587.5</ele>
<speed>75.5</speed>
<course>170.3</course>
<desc>Speed 75.5 km/h Distance 57.92 km</desc>
<time>2010-07-31T14:37:09.74</time>
<name>1679</name>
</trkpt>
<trkpt lat="48.909753" lon="11.145705">
<ele>586.5</ele>
<speed>73.7</speed>
<course>175.2</course>
<desc>Speed 73.7 km/h Distance 57.94 km</desc>
<time>2010-07-31T14:37:10.74</time>
<name>1680</name>
</trkpt>
<trkpt lat="48.909570" lon="11.145728">
<ele>586.5</ele>
<speed>74.3</speed>
<course>174.7</course>
<desc>Speed 74.3 km/h Distance 57.96 km</desc>
<time>2010-07-31T14:37:11.73</time>
<name>1681</name>
</trkpt>
<trkpt lat="48.909393" lon="11.145753">
<ele>586.0</ele>
<speed>71.0</speed>
<course>171.9</course>
<desc>Speed 71.0 km/h Distance 57.98 km</desc>
<time>2010-07-31T14:37:12.75</time>
<name>1682</name>
</trkpt>
<trkpt lat="48.909232" lon="11.145788">
<ele>585.5</ele>
<speed>65.2</speed>
<course>162.8</course>
<desc>Speed 65.2 km/h Distance 58.00 km</desc>
<time>2010-07-31T14:37:13.74</time>
<name>1683</name>
</trkpt>
<trkpt lat="48.909083" lon="11.145858">
<ele>586.0</ele>
<speed>62.1</speed>
<course>159.9</course>
<desc>Speed 62.1 km/h Distance 58.02 km</desc>
<time>2010-07-31T14:37:14.74</time>
<name>1684</name>
</trkpt>
<trkpt lat="48.908763" lon="11.146037">
<ele>585.5</ele>
<speed>74.8</speed>
<course>126.5</course>
<desc>Speed 74.8 km/h Distance 58.06 km</desc>
<time>2010-07-31T14:37:16.74</time>
<name>1685</name>
</trkpt>
<trkpt lat="48.908455" lon="11.146672">
<ele>584.5</ele>
<speed>93.2</speed>
<course>96.9</course>
<desc>Speed 93.2 km/h Distance 58.11 km</desc>
<time>2010-07-31T14:37:21.73</time>
<name>1686</name>
</trkpt>
<trkpt lat="48.908370" lon="11.147745">
<ele>583.5</ele>
<speed>80.7</speed>
<course>92.8</course>
<desc>Speed 80.7 km/h Distance 58.19 km</desc>
<time>2010-07-31T14:37:24.74</time>
<name>1687</name>
</trkpt>
<trkpt lat="48.908360" lon="11.148058">
<ele>582.0</ele>
<speed>79.0</speed>
<course>96.4</course>
<desc>Speed 79.0 km/h Distance 58.22 km</desc>
<time>2010-07-31T14:37:25.73</time>
<name>1688</name>
</trkpt>
<trkpt lat="48.908338" lon="11.148353">
<ele>581.0</ele>
<speed>76.8</speed>
<course>94.9</course>
<desc>Speed 76.8 km/h Distance 58.24 km</desc>
<time>2010-07-31T14:37:26.73</time>
<name>1689</name>
</trkpt>
<trkpt lat="48.908322" lon="11.148652">
<ele>580.5</ele>
<speed>73.0</speed>
<course>93.0</course>
<desc>Speed 73.0 km/h Distance 58.26 km</desc>
<time>2010-07-31T14:37:27.73</time>
<name>1690</name>
</trkpt>
<trkpt lat="48.908312" lon="11.148945">
<ele>579.5</ele>
<speed>70.9</speed>
<course>90.0</course>
<desc>Speed 70.9 km/h Distance 58.28 km</desc>
<time>2010-07-31T14:37:28.72</time>
<name>1691</name>
</trkpt>
<trkpt lat="48.908312" lon="11.149232">
<ele>578.0</ele>
<speed>66.9</speed>
<course>97.5</course>
<desc>Speed 66.9 km/h Distance 58.30 km</desc>
<time>2010-07-31T14:37:29.73</time>
<name>1692</name>
</trkpt>
<trkpt lat="48.908270" lon="11.149715">
<ele>576.5</ele>
<speed>59.7</speed>
<course>99.8</course>
<desc>Speed 59.7 km/h Distance 58.34 km</desc>
<time>2010-07-31T14:37:31.73</time>
<name>1693</name>
</trkpt>
<trkpt lat="48.908245" lon="11.149935">
<ele>576.0</ele>
<speed>56.3</speed>
<course>98.4</course>
<desc>Speed 56.3 km/h Distance 58.35 km</desc>
<time>2010-07-31T14:37:32.72</time>
<name>1694</name>
</trkpt>
<trkpt lat="48.908225" lon="11.150142">
<ele>576.0</ele>
<speed>50.0</speed>
<course>93.0</course>
<desc>Speed 50.0 km/h Distance 58.37 km</desc>
<time>2010-07-31T14:37:33.73</time>
<name>1695</name>
</trkpt>
<trkpt lat="48.908207" lon="11.150677">
<ele>574.0</ele>
<speed>15.3</speed>
<course>161.8</course>
<desc>Speed 15.3 km/h Distance 58.41 km</desc>
<time>2010-07-31T14:37:38.72</time>
<name>1696</name>
</trkpt>
<trkpt lat="48.908183" lon="11.150688">
<ele>574.0</ele>
<speed>12.9</speed>
<course>196.3</course>
<desc>Speed 12.9 km/h Distance 58.41 km</desc>
<time>2010-07-31T14:37:39.72</time>
<name>1697</name>
</trkpt>
<trkpt lat="48.908153" lon="11.150675">
<ele>574.5</ele>
<speed>17.1</speed>
<course>234.0</course>
<desc>Speed 17.1 km/h Distance 58.42 km</desc>
<time>2010-07-31T14:37:40.72</time>
<name>1698</name>
</trkpt>
<trkpt lat="48.908135" lon="11.150637">
<ele>575.5</ele>
<speed>11.6</speed>
<course>279.4</course>
<desc>Speed 11.6 km/h Distance 58.42 km</desc>
<time>2010-07-31T14:37:42.71</time>
<name>1699</name>
</trkpt>
<trkpt lat="48.908147" lon="11.150530">
<ele>574.5</ele>
<speed>11.7</speed>
<course>232.8</course>
<desc>Speed 11.7 km/h Distance 58.43 km</desc>
<time>2010-07-31T14:37:44.71</time>
<name>1700</name>
</trkpt>
<trkpt lat="48.908133" lon="11.150503">
<ele>574.5</ele>
<speed>11.7</speed>
<course>283.5</course>
<desc>Speed 11.7 km/h Distance 58.43 km</desc>
<time>2010-07-31T14:37:45.72</time>
<name>1701</name>
</trkpt>
<trkpt lat="48.908138" lon="11.150472">
<ele>574.5</ele>
<speed>9.8</speed>
<course>322.0</course>
<desc>Speed 9.8 km/h Distance 58.43 km</desc>
<time>2010-07-31T14:37:46.71</time>
<name>1702</name>
</trkpt>
<trkpt lat="48.908165" lon="11.150440">
<ele>574.0</ele>
<speed>8.2</speed>
<course>294.6</course>
<desc>Speed 8.2 km/h Distance 58.44 km</desc>
<time>2010-07-31T14:37:47.71</time>
<name>1703</name>
</trkpt>
<trkpt lat="48.908170" lon="11.150423">
<ele>574.5</ele>
<speed>4.9</speed>
<course>180.0</course>
<desc>Speed 4.9 km/h Distance 58.44 km</desc>
<time>2010-07-31T14:37:48.72</time>
<name>1704</name>
</trkpt>
<trkpt lat="48.908165" lon="11.150423">
<ele>574.5</ele>
<speed>4.5</speed>
<course>123.2</course>
<desc>Speed 4.5 km/h Distance 58.44 km</desc>
<time>2010-07-31T14:37:49.71</time>
<name>1705</name>
</trkpt>
<trkpt lat="48.908155" lon="11.150447">
<ele>574.5</ele>
<speed>4.5</speed>
<course>127.4</course>
<desc>Speed 4.5 km/h Distance 58.44 km</desc>
<time>2010-07-31T14:37:50.72</time>
<name>1706</name>
</trkpt>
<trkpt lat="48.908150" lon="11.150457">
<ele>574.5</ele>
<speed>4.5</speed>
<course>319.1</course>
<desc>Speed 4.5 km/h Distance 58.44 km</desc>
<time>2010-07-31T14:37:51.71</time>
<name>1707</name>
</trkpt>
<trkpt lat="48.908155" lon="11.150450">
<ele>574.5</ele>
<speed>2.6</speed>
<course>341.9</course>
<desc>Speed 2.6 km/h Distance 58.44 km</desc>
<time>2010-07-31T14:37:52.71</time>
<name>1708</name>
</trkpt>
<trkpt lat="48.908172" lon="11.150442">
<ele>574.0</ele>
<speed>4.5</speed>
<course>106.9</course>
<desc>Speed 4.5 km/h Distance 58.44 km</desc>
<time>2010-07-31T14:37:53.71</time>
<name>1709</name>
</trkpt>
<trkpt lat="48.908170" lon="11.150450">
<ele>574.0</ele>
<speed>0.5</speed>
<course>12.6</course>
<desc>Speed 0.5 km/h Distance 58.44 km</desc>
<time>2010-07-31T14:37:54.71</time>
<name>1710</name>
</trkpt>
<trkpt lat="48.908175" lon="11.150452">
<ele>574.0</ele>
<speed>0.5</speed>
<course>353.4</course>
<desc>Speed 0.5 km/h Distance 58.44 km</desc>
<time>2010-07-31T14:37:55.71</time>
<name>1711</name>
</trkpt>
<trkpt lat="48.908185" lon="11.150450">
<ele>574.0</ele>
<speed>0.5</speed>
<course>138.6</course>
<desc>Speed 0.5 km/h Distance 58.45 km</desc>
<time>2010-07-31T14:37:56.71</time>
<name>1712</name>
</trkpt>
<trkpt lat="48.908180" lon="11.150457">
<ele>573.5</ele>
<speed>2.3</speed>
<course>130.9</course>
<desc>Speed 2.3 km/h Distance 58.45 km</desc>
<time>2010-07-31T14:37:57.71</time>
<name>1713</name>
</trkpt>
<trkpt lat="48.908173" lon="11.150468">
<ele>573.5</ele>
<speed>2.3</speed>
<course>69.2</course>
<desc>Speed 2.3 km/h Distance 58.45 km</desc>
<time>2010-07-31T14:37:58.71</time>
<name>1714</name>
</trkpt>
<trkpt lat="48.908178" lon="11.150488">
<ele>573.0</ele>
<speed>2.9</speed>
<course>101.5</course>
<desc>Speed 2.9 km/h Distance 58.45 km</desc>
<time>2010-07-31T14:37:59.71</time>
<name>1715</name>
</trkpt>
<trkpt lat="48.908175" lon="11.150513">
<ele>572.5</ele>
<speed>1.8</speed>
<course>99.6</course>
<desc>Speed 1.8 km/h Distance 58.45 km</desc>
<time>2010-07-31T14:38:00.71</time>
<name>1716</name>
</trkpt>
<trkpt lat="48.908173" lon="11.150528">
<ele>572.5</ele>
<speed>0.9</speed>
<course>104.2</course>
<desc>Speed 0.9 km/h Distance 58.45 km</desc>
<time>2010-07-31T14:38:01.71</time>
<name>1717</name>
</trkpt>
<trkpt lat="48.908172" lon="11.150538">
<ele>572.0</ele>
<speed>0.9</speed>
<course>53.0</course>
<desc>Speed 0.9 km/h Distance 58.45 km</desc>
<time>2010-07-31T14:38:02.71</time>
<name>1718</name>
</trkpt>
<trkpt lat="48.908175" lon="11.150545">
<ele>572.0</ele>
<speed>2.0</speed>
<course>140.2</course>
<desc>Speed 2.0 km/h Distance 58.45 km</desc>
<time>2010-07-31T14:38:03.70</time>
<name>1719</name>
</trkpt>
<trkpt lat="48.908132" lon="11.150600">
<ele>571.5</ele>
<speed>3.7</speed>
<course>75.9</course>
<desc>Speed 3.7 km/h Distance 58.46 km</desc>
<time>2010-07-31T14:38:05.71</time>
<name>1720</name>
</trkpt>
<trkpt lat="48.908133" lon="11.150610">
<ele>571.5</ele>
<speed>2.6</speed>
<course>90.0</course>
<desc>Speed 2.6 km/h Distance 58.46 km</desc>
<time>2010-07-31T14:38:06.71</time>
<name>1721</name>
</trkpt>
<trkpt lat="48.908133" lon="11.150617">
<ele>571.5</ele>
<speed>2.6</speed>
<course>90.0</course>
<desc>Speed 2.6 km/h Distance 58.46 km</desc>
<time>2010-07-31T14:38:07.71</time>
<name>1722</name>
</trkpt>
<trkpt lat="48.908133" lon="11.150617">
<ele>571.5</ele>
<speed>0.8</speed>
<course>341.2</course>
<desc>Speed 0.8 km/h Distance 58.46 km</desc>
<time>2010-07-31T14:38:08.71</time>
<name>1723</name>
</trkpt>
<trkpt lat="48.908140" lon="11.150613">
<ele>571.5</ele>
<speed>2.7</speed>
<course>312.2</course>
<desc>Speed 2.7 km/h Distance 58.46 km</desc>
<time>2010-07-31T14:38:09.70</time>
<name>1724</name>
</trkpt>
<trkpt lat="48.908145" lon="11.150605">
<ele>571.5</ele>
<speed>1.6</speed>
<course>290.9</course>
<desc>Speed 1.6 km/h Distance 58.46 km</desc>
<time>2010-07-31T14:38:10.70</time>
<name>1725</name>
</trkpt>
<trkpt lat="48.908147" lon="11.150598">
<ele>571.5</ele>
<speed>0.8</speed>
<course>347.4</course>
<desc>Speed 0.8 km/h Distance 58.46 km</desc>
<time>2010-07-31T14:38:11.70</time>
<name>1726</name>
</trkpt>
<trkpt lat="48.908152" lon="11.150597">
<ele>571.0</ele>
<speed>1.4</speed>
<course>0.0</course>
<desc>Speed 1.4 km/h Distance 58.46 km</desc>
<time>2010-07-31T14:38:12.70</time>
<name>1727</name>
</trkpt>
<trkpt lat="48.908167" lon="11.150597">
<ele>571.0</ele>
<speed>1.9</speed>
<course>30.0</course>
<desc>Speed 1.9 km/h Distance 58.47 km</desc>
<time>2010-07-31T14:38:13.70</time>
<name>1728</name>
</trkpt>
<trkpt lat="48.908180" lon="11.150608">
<ele>570.5</ele>
<speed>1.9</speed>
<course>301.4</course>
<desc>Speed 1.9 km/h Distance 58.47 km</desc>
<time>2010-07-31T14:38:14.70</time>
<name>1729</name>
</trkpt>
<trkpt lat="48.908183" lon="11.150600">
<ele>570.5</ele>
<speed>0.7</speed>
<course>249.2</course>
<desc>Speed 0.7 km/h Distance 58.47 km</desc>
<time>2010-07-31T14:38:15.70</time>
<name>1730</name>
</trkpt>
<trkpt lat="48.908180" lon="11.150587">
<ele>569.5</ele>
<speed>1.6</speed>
<course>351.9</course>
<desc>Speed 1.6 km/h Distance 58.47 km</desc>
<time>2010-07-31T14:38:16.70</time>
<name>1731</name>
</trkpt>
<trkpt lat="48.908190" lon="11.150585">
<ele>571.0</ele>
<speed>2.8</speed>
<course>0.0</course>
<desc>Speed 2.8 km/h Distance 58.47 km</desc>
<time>2010-07-31T14:38:17.70</time>
<name>1732</name>
</trkpt>
<trkpt lat="48.908193" lon="11.150585">
<ele>571.5</ele>
<speed>1.2</speed>
<course>270.0</course>
<desc>Speed 1.2 km/h Distance 58.47 km</desc>
<time>2010-07-31T14:38:18.71</time>
<name>1733</name>
</trkpt>
<trkpt lat="48.908193" lon="11.150577">
<ele>572.5</ele>
<speed>1.3</speed>
<course>61.5</course>
<desc>Speed 1.3 km/h Distance 58.47 km</desc>
<time>2010-07-31T14:38:19.70</time>
<name>1734</name>
</trkpt>
<trkpt lat="48.908202" lon="11.150600">
<ele>574.0</ele>
<speed>0.3</speed>
<course>334.4</course>
<desc>Speed 0.3 km/h Distance 58.47 km</desc>
<time>2010-07-31T14:38:20.70</time>
<name>1735</name>
</trkpt>
<trkpt lat="48.908208" lon="11.150595">
<ele>575.0</ele>
<speed>1.9</speed>
<course>51.8</course>
<desc>Speed 1.9 km/h Distance 58.47 km</desc>
<time>2010-07-31T14:38:21.70</time>
<name>1736</name>
</trkpt>
<trkpt lat="48.908233" lon="11.150643">
<ele>581.0</ele>
<speed>0.4</speed>
<course>62.6</course>
<desc>Speed 0.4 km/h Distance 58.48 km</desc>
<time>2010-07-31T14:38:23.70</time>
<name>1737</name>
</trkpt>
<trkpt lat="48.908235" lon="11.150648">
<ele>582.5</ele>
<speed>0.7</speed>
<course>90.0</course>
<desc>Speed 0.7 km/h Distance 58.48 km</desc>
<time>2010-07-31T14:38:24.70</time>
<name>1738</name>
</trkpt>
<trkpt lat="48.908235" lon="11.150650">
<ele>582.5</ele>
<speed>0.6</speed>
<course>322.8</course>
<desc>Speed 0.6 km/h Distance 58.48 km</desc>
<time>2010-07-31T14:38:25.70</time>
<name>1739</name>
</trkpt>
<trkpt lat="48.908237" lon="11.150648">
<ele>583.0</ele>
<speed>0.6</speed>
<course>180.0</course>
<desc>Speed 0.6 km/h Distance 58.48 km</desc>
<time>2010-07-31T14:38:26.70</time>
<name>1740</name>
</trkpt>
<trkpt lat="48.908232" lon="11.150648">
<ele>581.5</ele>
<speed>0.8</speed>
<course>307.0</course>
<desc>Speed 0.8 km/h Distance 58.48 km</desc>
<time>2010-07-31T14:38:27.71</time>
<name>1741</name>
</trkpt>
<trkpt lat="48.908235" lon="11.150642">
<ele>581.5</ele>
<speed>0.8</speed>
<course>319.1</course>
<desc>Speed 0.8 km/h Distance 58.48 km</desc>
<time>2010-07-31T14:38:28.70</time>
<name>1742</name>
</trkpt>
<trkpt lat="48.908240" lon="11.150635">
<ele>582.0</ele>
<speed>0.8</speed>
<course>246.4</course>
<desc>Speed 0.8 km/h Distance 58.48 km</desc>
<time>2010-07-31T14:38:29.70</time>
<name>1743</name>
</trkpt>
<trkpt lat="48.908237" lon="11.150623">
<ele>581.5</ele>
<speed>2.6</speed>
<course>29.2</course>
<desc>Speed 2.6 km/h Distance 58.48 km</desc>
<time>2010-07-31T14:38:30.70</time>
<name>1744</name>
</trkpt>
<trkpt lat="48.908240" lon="11.150627">
<ele>581.5</ele>
<speed>0.5</speed>
<course>0.0</course>
<desc>Speed 0.5 km/h Distance 58.48 km</desc>
<time>2010-07-31T14:38:31.70</time>
<name>1745</name>
</trkpt>
<trkpt lat="48.908242" lon="11.150627">
<ele>581.0</ele>
<speed>0.3</speed>
<course>322.8</course>
<desc>Speed 0.3 km/h Distance 58.48 km</desc>
<time>2010-07-31T14:38:32.70</time>
<name>1746</name>
</trkpt>
<trkpt lat="48.908243" lon="11.150625">
<ele>581.0</ele>
<speed>0.7</speed>
<course>270.0</course>
<desc>Speed 0.7 km/h Distance 58.48 km</desc>
<time>2010-07-31T14:38:33.70</time>
<name>1747</name>
</trkpt>
<trkpt lat="48.908243" lon="11.150610">
<ele>579.5</ele>
<speed>1.5</speed>
<course>90.0</course>
<desc>Speed 1.5 km/h Distance 58.48 km</desc>
<time>2010-07-31T14:38:34.70</time>
<name>1748</name>
</trkpt>
<trkpt lat="48.908243" lon="11.150612">
<ele>579.0</ele>
<speed>0.5</speed>
<course>116.6</course>
<desc>Speed 0.5 km/h Distance 58.48 km</desc>
<time>2010-07-31T14:38:35.70</time>
<name>1749</name>
</trkpt>
<trkpt lat="48.908242" lon="11.150617">
<ele>578.5</ele>
<speed>1.7</speed>
<course>306.1</course>
<desc>Speed 1.7 km/h Distance 58.48 km</desc>
<time>2010-07-31T14:38:36.70</time>
<name>1750</name>
</trkpt>
<trkpt lat="48.908243" lon="11.150613">
<ele>578.5</ele>
<speed>0.2</speed>
<course>180.0</course>
<desc>Speed 0.2 km/h Distance 58.48 km</desc>
<time>2010-07-31T14:38:37.70</time>
<name>1751</name>
</trkpt>
<trkpt lat="48.908240" lon="11.150613">
<ele>577.5</ele>
<speed>0.8</speed>
<course>0.0</course>
<desc>Speed 0.8 km/h Distance 58.48 km</desc>
<time>2010-07-31T14:38:38.69</time>
<name>1752</name>
</trkpt>
<trkpt lat="48.908242" lon="11.150613">
<ele>577.0</ele>
<speed>0.6</speed>
<course>327.7</course>
<desc>Speed 0.6 km/h Distance 58.48 km</desc>
<time>2010-07-31T14:38:39.69</time>
<name>1753</name>
</trkpt>
<trkpt lat="48.908247" lon="11.150608">
<ele>578.0</ele>
<speed>0.9</speed>
<course>270.0</course>
<desc>Speed 0.9 km/h Distance 58.49 km</desc>
<time>2010-07-31T14:38:40.69</time>
<name>1754</name>
</trkpt>
<trkpt lat="48.908247" lon="11.150603">
<ele>578.0</ele>
<speed>1.1</speed>
<course>48.4</course>
<desc>Speed 1.1 km/h Distance 58.49 km</desc>
<time>2010-07-31T14:38:41.69</time>
<name>1755</name>
</trkpt>
<trkpt lat="48.908258" lon="11.150623">
<ele>578.5</ele>
<speed>5.6</speed>
<course>90.0</course>
<desc>Speed 5.6 km/h Distance 58.49 km</desc>
<time>2010-07-31T14:38:42.69</time>
<name>1756</name>
</trkpt>
<trkpt lat="48.908258" lon="11.150625">
<ele>578.5</ele>
<speed>0.6</speed>
<course>142.8</course>
<desc>Speed 0.6 km/h Distance 58.49 km</desc>
<time>2010-07-31T14:38:43.69</time>
<name>1757</name>
</trkpt>
<trkpt lat="48.908257" lon="11.150627">
<ele>578.5</ele>
<speed>0.6</speed>
<course>142.8</course>
<desc>Speed 0.6 km/h Distance 58.49 km</desc>
<time>2010-07-31T14:38:44.69</time>
<name>1758</name>
</trkpt>
<trkpt lat="48.908257" lon="11.150627">
<ele>578.5</ele>
<speed>0.6</speed>
<course>90.0</course>
<desc>Speed 0.6 km/h Distance 58.49 km</desc>
<time>2010-07-31T14:38:45.69</time>
<name>1759</name>
</trkpt>
<trkpt lat="48.908257" lon="11.150630">
<ele>578.5</ele>
<speed>0.6</speed>
<course>30.6</course>
<desc>Speed 0.6 km/h Distance 58.49 km</desc>
<time>2010-07-31T14:38:46.70</time>
<name>1760</name>
</trkpt>
<trkpt lat="48.908273" lon="11.150645">
<ele>579.5</ele>
<speed>4.1</speed>
<course>90.0</course>
<desc>Speed 4.1 km/h Distance 58.49 km</desc>
<time>2010-07-31T14:38:47.69</time>
<name>1761</name>
</trkpt>
<trkpt lat="48.908273" lon="11.150647">
<ele>579.0</ele>
<speed>0.7</speed>
<course>12.6</course>
<desc>Speed 0.7 km/h Distance 58.49 km</desc>
<time>2010-07-31T14:38:48.69</time>
<name>1762</name>
</trkpt>
<trkpt lat="48.908275" lon="11.150647">
<ele>578.5</ele>
<speed>0.7</speed>
<course>12.6</course>
<desc>Speed 0.7 km/h Distance 58.49 km</desc>
<time>2010-07-31T14:38:49.69</time>
<name>1763</name>
</trkpt>
<trkpt lat="48.908275" lon="11.150647">
<ele>578.0</ele>
<speed>1.0</speed>
<course>203.0</course>
<desc>Speed 1.0 km/h Distance 58.49 km</desc>
<time>2010-07-31T14:38:50.69</time>
<name>1764</name>
</trkpt>
<trkpt lat="48.908272" lon="11.150645">
<ele>578.0</ele>
<speed>0.3</speed>
<course>233.9</course>
<desc>Speed 0.3 km/h Distance 58.49 km</desc>
<time>2010-07-31T14:38:51.69</time>
<name>1765</name>
</trkpt>
<trkpt lat="48.908270" lon="11.150642">
<ele>577.5</ele>
<speed>0.6</speed>
<course>306.1</course>
<desc>Speed 0.6 km/h Distance 58.49 km</desc>
<time>2010-07-31T14:38:52.68</time>
<name>1766</name>
</trkpt>
<trkpt lat="48.908272" lon="11.150638">
<ele>577.5</ele>
<speed>0.6</speed>
<course>90.0</course>
<desc>Speed 0.6 km/h Distance 58.49 km</desc>
<time>2010-07-31T14:38:53.68</time>
<name>1767</name>
</trkpt>
<trkpt lat="48.908272" lon="11.150647">
<ele>577.0</ele>
<speed>3.5</speed>
<course>33.7</course>
<desc>Speed 3.5 km/h Distance 58.49 km</desc>
<time>2010-07-31T14:38:54.69</time>
<name>1768</name>
</trkpt>
<trkpt lat="48.908275" lon="11.150650">
<ele>577.0</ele>
<speed>1.8</speed>
<course>0.0</course>
<desc>Speed 1.8 km/h Distance 58.49 km</desc>
<time>2010-07-31T14:38:55.69</time>
<name>1769</name>
</trkpt>
<trkpt lat="48.908280" lon="11.150650">
<ele>576.5</ele>
<speed>1.8</speed>
<course>209.4</course>
<desc>Speed 1.8 km/h Distance 58.49 km</desc>
<time>2010-07-31T14:38:56.69</time>
<name>1770</name>
</trkpt>
<trkpt lat="48.908268" lon="11.150640">
<ele>576.0</ele>
<speed>3.1</speed>
<course>210.4</course>
<desc>Speed 3.1 km/h Distance 58.50 km</desc>
<time>2010-07-31T14:38:57.69</time>
<name>1771</name>
</trkpt>
<trkpt lat="48.908253" lon="11.150627">
<ele>575.5</ele>
<speed>1.2</speed>
<course>217.2</course>
<desc>Speed 1.2 km/h Distance 58.50 km</desc>
<time>2010-07-31T14:38:58.68</time>
<name>1772</name>
</trkpt>
<trkpt lat="48.908252" lon="11.150625">
<ele>575.5</ele>
<speed>1.2</speed>
<course>209.2</course>
<desc>Speed 1.2 km/h Distance 58.50 km</desc>
<time>2010-07-31T14:38:59.76</time>
<name>1773</name>
</trkpt>
<trkpt lat="48.908250" lon="11.150623">
<ele>575.5</ele>
<speed>1.2</speed>
<course>187.4</course>
<desc>Speed 1.2 km/h Distance 58.50 km</desc>
<time>2010-07-31T14:39:00.68</time>
<name>1774</name>
</trkpt>
<trkpt lat="48.908225" lon="11.150618">
<ele>575.0</ele>
<speed>0.2</speed>
<course>15.9</course>
<desc>Speed 0.2 km/h Distance 58.50 km</desc>
<time>2010-07-31T14:39:02.67</time>
<name>1775</name>
</trkpt>
<trkpt lat="48.908233" lon="11.150622">
<ele>575.0</ele>
<speed>0.3</speed>
<course>12.6</course>
<desc>Speed 0.3 km/h Distance 58.50 km</desc>
<time>2010-07-31T14:39:03.67</time>
<name>1776</name>
</trkpt>
<trkpt lat="48.908235" lon="11.150622">
<ele>575.0</ele>
<speed>0.3</speed>
<course>12.6</course>
<desc>Speed 0.3 km/h Distance 58.50 km</desc>
<time>2010-07-31T14:39:04.72</time>
<name>1777</name>
</trkpt>
<trkpt lat="48.908235" lon="11.150622">
<ele>575.0</ele>
<speed>0.3</speed>
<course>12.6</course>
<desc>Speed 0.3 km/h Distance 58.50 km</desc>
<time>2010-07-31T14:39:05.68</time>
<name>1778</name>
</trkpt>
<trkpt lat="48.908235" lon="11.150622">
<ele>575.0</ele>
<speed>0.3</speed>
<course>322.8</course>
<desc>Speed 0.3 km/h Distance 58.50 km</desc>
<time>2010-07-31T14:39:06.68</time>
<name>1779</name>
</trkpt>
<trkpt lat="48.908237" lon="11.150620">
<ele>574.5</ele>
<speed>1.2</speed>
<course>270.0</course>
<desc>Speed 1.2 km/h Distance 58.50 km</desc>
<time>2010-07-31T14:39:07.68</time>
<name>1780</name>
</trkpt>
<trkpt lat="48.908237" lon="11.150618">
<ele>574.5</ele>
<speed>1.2</speed>
<course>270.0</course>
<desc>Speed 1.2 km/h Distance 58.50 km</desc>
<time>2010-07-31T14:39:08.68</time>
<name>1781</name>
</trkpt>
<trkpt lat="48.908237" lon="11.150600">
<ele>574.0</ele>
<speed>1.6</speed>
<course>205.6</course>
<desc>Speed 1.6 km/h Distance 58.50 km</desc>
<time>2010-07-31T14:39:11.29</time>
<name>1782</name>
</trkpt>
<trkpt lat="48.908230" lon="11.150595">
<ele>573.5</ele>
<speed>0.3</speed>
<course>43.5</course>
<desc>Speed 0.3 km/h Distance 58.50 km</desc>
<time>2010-07-31T14:39:12.68</time>
<name>1783</name>
</trkpt>
<trkpt lat="48.908233" lon="11.150600">
<ele>573.5</ele>
<speed>2.5</speed>
<course>90.0</course>
<desc>Speed 2.5 km/h Distance 58.50 km</desc>
<time>2010-07-31T14:39:14.50</time>
<name>1784</name>
</trkpt>
<trkpt lat="48.908233" lon="11.150602">
<ele>573.0</ele>
<speed>2.5</speed>
<course>44.5</course>
<desc>Speed 2.5 km/h Distance 58.50 km</desc>
<time>2010-07-31T14:39:15.67</time>
<name>1785</name>
</trkpt>
<trkpt lat="48.908237" lon="11.150607">
<ele>572.5</ele>
<speed>2.5</speed>
<course>33.2</course>
<desc>Speed 2.5 km/h Distance 58.51 km</desc>
<time>2010-07-31T14:39:19.12</time>
<name>1786</name>
</trkpt>
<trkpt lat="48.908243" lon="11.150613">
<ele>572.5</ele>
<speed>2.5</speed>
<course>55.9</course>
<desc>Speed 2.5 km/h Distance 58.51 km</desc>
<time>2010-07-31T14:39:20.85</time>
<name>1787</name>
</trkpt>
<trkpt lat="48.908250" lon="11.150628">
<ele>572.0</ele>
<speed>2.5</speed>
<course>0.0</course>
<desc>Speed 2.5 km/h Distance 58.51 km</desc>
<time>2010-07-31T14:39:24.95</time>
<name>1788</name>
</trkpt>
<trkpt lat="48.908255" lon="11.150628">
<ele>571.5</ele>
<speed>2.5</speed>
<course>35.5</course>
<desc>Speed 2.5 km/h Distance 58.51 km</desc>
<time>2010-07-31T14:39:26.83</time>
<name>1789</name>
</trkpt>
<trkpt lat="48.908275" lon="11.150650">
<ele>571.5</ele>
<speed>2.5</speed>
<course>63.0</course>
<desc>Speed 2.5 km/h Distance 58.51 km</desc>
<time>2010-07-31T14:39:28.68</time>
<name>1790</name>
</trkpt>
<trkpt lat="48.908278" lon="11.150660">
<ele>572.0</ele>
<speed>2.5</speed>
<course>15.7</course>
<desc>Speed 2.5 km/h Distance 58.51 km</desc>
<time>2010-07-31T14:39:29.85</time>
<name>1791</name>
</trkpt>
<trkpt lat="48.908302" lon="11.150670">
<ele>571.5</ele>
<speed>2.5</speed>
<course>2.5</course>
<desc>Speed 2.5 km/h Distance 58.51 km</desc>
<time>2010-07-31T14:39:34.39</time>
<name>1792</name>
</trkpt>
<trkpt lat="48.908320" lon="11.150672">
<ele>571.5</ele>
<speed>2.5</speed>
<course>270.0</course>
<desc>Speed 2.5 km/h Distance 58.52 km</desc>
<time>2010-07-31T14:39:35.68</time>
<name>1793</name>
</trkpt>
<trkpt lat="48.908320" lon="11.150660">
<ele>571.5</ele>
<speed>2.5</speed>
<course>273.0</course>
<desc>Speed 2.5 km/h Distance 58.52 km</desc>
<time>2010-07-31T14:39:37.27</time>
<name>1794</name>
</trkpt>
<trkpt lat="48.908322" lon="11.150612">
<ele>572.5</ele>
<speed>2.5</speed>
<course>90.0</course>
<desc>Speed 2.5 km/h Distance 58.52 km</desc>
<time>2010-07-31T14:39:43.67</time>
<name>1795</name>
</trkpt>
<trkpt lat="48.908322" lon="11.150625">
<ele>572.5</ele>
<speed>2.5</speed>
<course>341.2</course>
<desc>Speed 2.5 km/h Distance 58.52 km</desc>
<time>2010-07-31T14:39:44.66</time>
<name>1796</name>
</trkpt>
<trkpt lat="48.908325" lon="11.150623">
<ele>573.0</ele>
<speed>2.5</speed>
<course>270.0</course>
<desc>Speed 2.5 km/h Distance 58.52 km</desc>
<time>2010-07-31T14:39:45.65</time>
<name>1797</name>
</trkpt>
<trkpt lat="48.908325" lon="11.150622">
<ele>573.0</ele>
<speed>2.5</speed>
<course>231.9</course>
<desc>Speed 2.5 km/h Distance 58.52 km</desc>
<time>2010-07-31T14:39:46.65</time>
<name>1798</name>
</trkpt>
<trkpt lat="48.908323" lon="11.150618">
<ele>573.0</ele>
<speed>2.5</speed>
<course>335.9</course>
<desc>Speed 2.5 km/h Distance 58.52 km</desc>
<time>2010-07-31T14:39:47.65</time>
<name>1799</name>
</trkpt>
<trkpt lat="48.908365" lon="11.150590">
<ele>573.0</ele>
<speed>2.5</speed>
<course>343.2</course>
<desc>Speed 2.5 km/h Distance 58.53 km</desc>
<time>2010-07-31T14:39:49.64</time>
<name>1800</name>
</trkpt>
<trkpt lat="48.908387" lon="11.150580">
<ele>573.0</ele>
<speed>2.5</speed>
<course>299.7</course>
<desc>Speed 2.5 km/h Distance 58.53 km</desc>
<time>2010-07-31T14:39:52.36</time>
<name>1801</name>
</trkpt>
<trkpt lat="48.908402" lon="11.150540">
<ele>573.0</ele>
<speed>2.5</speed>
<course>90.0</course>
<desc>Speed 2.5 km/h Distance 58.53 km</desc>
<time>2010-07-31T14:39:54.93</time>
<name>1802</name>
</trkpt>
<trkpt lat="48.908402" lon="11.150542">
<ele>573.0</ele>
<speed>2.5</speed>
<course>240.1</course>
<desc>Speed 2.5 km/h Distance 58.53 km</desc>
<time>2010-07-31T14:39:56.64</time>
<name>1803</name>
</trkpt>
<trkpt lat="48.908378" lon="11.150480">
<ele>573.5</ele>
<speed>4.5</speed>
<course>4.1</course>
<desc>Speed 4.5 km/h Distance 58.54 km</desc>
<time>2010-07-31T14:39:58.65</time>
<name>1804</name>
</trkpt>
<trkpt lat="48.908408" lon="11.150483">
<ele>573.5</ele>
<speed>10.6</speed>
<course>152.8</course>
<desc>Speed 10.6 km/h Distance 58.54 km</desc>
<time>2010-07-31T14:40:00.63</time>
<name>1805</name>
</trkpt>
<trkpt lat="48.908393" lon="11.150495">
<ele>573.5</ele>
<speed>10.6</speed>
<course>155.1</course>
<desc>Speed 10.6 km/h Distance 58.54 km</desc>
<time>2010-07-31T14:40:02.63</time>
<name>1806</name>
</trkpt>
<trkpt lat="48.908382" lon="11.150503">
<ele>573.5</ele>
<speed>0.8</speed>
<course>90.0</course>
<desc>Speed 0.8 km/h Distance 58.55 km</desc>
<time>2010-07-31T14:40:04.89</time>
<name>1807</name>
</trkpt>
<trkpt lat="48.908382" lon="11.150507">
<ele>573.5</ele>
<speed>0.8</speed>
<course>321.9</course>
<desc>Speed 0.8 km/h Distance 58.55 km</desc>
<time>2010-07-31T14:40:06.92</time>
<name>1808</name>
</trkpt>
<trkpt lat="48.908390" lon="11.150497">
<ele>573.5</ele>
<speed>0.8</speed>
<course>135.7</course>
<desc>Speed 0.8 km/h Distance 58.55 km</desc>
<time>2010-07-31T14:40:08.70</time>
<name>1809</name>
</trkpt>
<trkpt lat="48.908383" lon="11.150507">
<ele>574.0</ele>
<speed>0.8</speed>
<course>152.5</course>
<desc>Speed 0.8 km/h Distance 58.55 km</desc>
<time>2010-07-31T14:40:12.15</time>
<name>1810</name>
</trkpt>
<trkpt lat="48.908375" lon="11.150513">
<ele>574.0</ele>
<speed>0.8</speed>
<course>162.4</course>
<desc>Speed 0.8 km/h Distance 58.55 km</desc>
<time>2010-07-31T14:40:13.70</time>
<name>1811</name>
</trkpt>
<trkpt lat="48.908365" lon="11.150518">
<ele>574.0</ele>
<speed>0.8</speed>
<course>167.4</course>
<desc>Speed 0.8 km/h Distance 58.55 km</desc>
<time>2010-07-31T14:40:16.97</time>
<name>1812</name>
</trkpt>
<trkpt lat="48.908363" lon="11.150518">
<ele>574.0</ele>
<speed>0.8</speed>
<course>167.4</course>
<desc>Speed 0.8 km/h Distance 58.55 km</desc>
<time>2010-07-31T14:40:17.63</time>
<name>1813</name>
</trkpt>
<trkpt lat="48.908363" lon="11.150518">
<ele>574.0</ele>
<speed>0.8</speed>
<course>167.4</course>
<desc>Speed 0.8 km/h Distance 58.55 km</desc>
<time>2010-07-31T14:40:18.63</time>
<name>1814</name>
</trkpt>
<trkpt lat="48.908362" lon="11.150518">
<ele>574.0</ele>
<speed>0.8</speed>
<course>330.8</course>
<desc>Speed 0.8 km/h Distance 58.55 km</desc>
<time>2010-07-31T14:40:19.62</time>
<name>1815</name>
</trkpt>
<trkpt lat="48.908365" lon="11.150515">
<ele>574.0</ele>
<speed>0.8</speed>
<course>22.2</course>
<desc>Speed 0.8 km/h Distance 58.55 km</desc>
<time>2010-07-31T14:40:20.63</time>
<name>1816</name>
</trkpt>
<trkpt lat="48.908370" lon="11.150518">
<ele>574.0</ele>
<speed>0.8</speed>
<course>12.6</course>
<desc>Speed 0.8 km/h Distance 58.55 km</desc>
<time>2010-07-31T14:40:21.85</time>
<name>1817</name>
</trkpt>
<trkpt lat="48.908373" lon="11.150520">
<ele>574.0</ele>
<speed>0.8</speed>
<course>275.8</course>
<desc>Speed 0.8 km/h Distance 58.55 km</desc>
<time>2010-07-31T14:40:22.70</time>
<name>1818</name>
</trkpt>
<trkpt lat="48.908375" lon="11.150495">
<ele>574.0</ele>
<speed>0.8</speed>
<course>263.3</course>
<desc>Speed 0.8 km/h Distance 58.55 km</desc>
<time>2010-07-31T14:40:24.98</time>
<name>1819</name>
</trkpt>
<trkpt lat="48.908373" lon="11.150473">
<ele>574.0</ele>
<speed>0.8</speed>
<course>63.0</course>
<desc>Speed 0.8 km/h Distance 58.56 km</desc>
<time>2010-07-31T14:40:28.61</time>
<name>1820</name>
</trkpt>
<trkpt lat="48.908378" lon="11.150488">
<ele>574.0</ele>
<speed>0.8</speed>
<course>55.5</course>
<desc>Speed 0.8 km/h Distance 58.56 km</desc>
<time>2010-07-31T14:40:32.90</time>
<name>1821</name>
</trkpt>
<trkpt lat="48.908402" lon="11.150540">
<ele>574.0</ele>
<speed>12.6</speed>
<course>6.1</course>
<desc>Speed 12.6 km/h Distance 58.56 km</desc>
<time>2010-07-31T14:40:34.62</time>
<name>1822</name>
</trkpt>
<trkpt lat="48.908463" lon="11.150550">
<ele>574.0</ele>
<speed>12.6</speed>
<course>55.4</course>
<desc>Speed 12.6 km/h Distance 58.57 km</desc>
<time>2010-07-31T14:40:36.61</time>
<name>1823</name>
</trkpt>
<trkpt lat="48.908472" lon="11.150568">
<ele>574.0</ele>
<speed>12.6</speed>
<course>57.4</course>
<desc>Speed 12.6 km/h Distance 58.57 km</desc>
<time>2010-07-31T14:40:41.12</time>
<name>1824</name>
</trkpt>
<trkpt lat="48.908485" lon="11.150600">
<ele>574.0</ele>
<speed>12.6</speed>
<course>171.3</course>
<desc>Speed 12.6 km/h Distance 58.57 km</desc>
<time>2010-07-31T14:40:42.61</time>
<name>1825</name>
</trkpt>
<trkpt lat="48.908450" lon="11.150608">
<ele>574.0</ele>
<speed>5.8</speed>
<course>171.6</course>
<desc>Speed 5.8 km/h Distance 58.58 km</desc>
<time>2010-07-31T14:40:43.61</time>
<name>1826</name>
</trkpt>
<trkpt lat="48.908428" lon="11.150613">
<ele>574.0</ele>
<speed>1.3</speed>
<course>180.0</course>
<desc>Speed 1.3 km/h Distance 58.58 km</desc>
<time>2010-07-31T14:40:44.62</time>
<name>1827</name>
</trkpt>
<trkpt lat="48.908420" lon="11.150613">
<ele>574.0</ele>
<speed>1.7</speed>
<course>176.2</course>
<desc>Speed 1.7 km/h Distance 58.58 km</desc>
<time>2010-07-31T14:40:45.60</time>
<name>1828</name>
</trkpt>
<trkpt lat="48.908390" lon="11.150617">
<ele>574.0</ele>
<speed>4.4</speed>
<course>216.9</course>
<desc>Speed 4.4 km/h Distance 58.58 km</desc>
<time>2010-07-31T14:40:47.60</time>
<name>1829</name>
</trkpt>
<trkpt lat="48.908378" lon="11.150603">
<ele>574.0</ele>
<speed>2.5</speed>
<course>206.0</course>
<desc>Speed 2.5 km/h Distance 58.58 km</desc>
<time>2010-07-31T14:40:49.51</time>
<name>1830</name>
</trkpt>
<trkpt lat="48.908365" lon="11.150593">
<ele>574.0</ele>
<speed>2.5</speed>
<course>198.8</course>
<desc>Speed 2.5 km/h Distance 58.59 km</desc>
<time>2010-07-31T14:40:51.24</time>
<name>1831</name>
</trkpt>
<trkpt lat="48.908358" lon="11.150590">
<ele>574.0</ele>
<speed>2.5</speed>
<course>196.0</course>
<desc>Speed 2.5 km/h Distance 58.59 km</desc>
<time>2010-07-31T14:40:56.01</time>
<name>1832</name>
</trkpt>
<trkpt lat="48.908347" lon="11.150585">
<ele>574.0</ele>
<speed>2.5</speed>
<course>232.8</course>
<desc>Speed 2.5 km/h Distance 58.59 km</desc>
<time>2010-07-31T14:40:58.59</time>
<name>1833</name>
</trkpt>
<trkpt lat="48.908337" lon="11.150565">
<ele>573.5</ele>
<speed>2.5</speed>
<course>206.2</course>
<desc>Speed 2.5 km/h Distance 58.59 km</desc>
<time>2010-07-31T14:41:00.89</time>
<name>1834</name>
</trkpt>
<trkpt lat="48.908310" lon="11.150545">
<ele>573.5</ele>
<speed>2.5</speed>
<course>245.4</course>
<desc>Speed 2.5 km/h Distance 58.59 km</desc>
<time>2010-07-31T14:41:03.27</time>
<name>1835</name>
</trkpt>
<trkpt lat="48.908305" lon="11.150528">
<ele>573.5</ele>
<speed>2.5</speed>
<course>233.0</course>
<desc>Speed 2.5 km/h Distance 58.59 km</desc>
<time>2010-07-31T14:41:04.58</time>
<name>1836</name>
</trkpt>
<trkpt lat="48.908302" lon="11.150522">
<ele>573.5</ele>
<speed>2.5</speed>
<course>189.3</course>
<desc>Speed 2.5 km/h Distance 58.60 km</desc>
<time>2010-07-31T14:41:10.80</time>
<name>1837</name>
</trkpt>
<trkpt lat="48.908262" lon="11.150512">
<ele>573.5</ele>
<speed>2.5</speed>
<course>198.8</course>
<desc>Speed 2.5 km/h Distance 58.60 km</desc>
<time>2010-07-31T14:41:12.57</time>
<name>1838</name>
</trkpt>
<trkpt lat="48.908255" lon="11.150508">
<ele>573.5</ele>
<speed>2.5</speed>
<course>144.0</course>
<desc>Speed 2.5 km/h Distance 58.60 km</desc>
<time>2010-07-31T14:41:14.61</time>
<name>1839</name>
</trkpt>
<trkpt lat="48.908223" lon="11.150543">
<ele>573.5</ele>
<speed>2.5</speed>
<course>140.3</course>
<desc>Speed 2.5 km/h Distance 58.61 km</desc>
<time>2010-07-31T14:41:17.58</time>
<name>1840</name>
</trkpt>
<trkpt lat="48.908192" lon="11.150583">
<ele>573.5</ele>
<speed>2.5</speed>
<course>296.4</course>
<desc>Speed 2.5 km/h Distance 58.61 km</desc>
<time>2010-07-31T14:41:19.58</time>
<name>1841</name>
</trkpt>
<trkpt lat="48.908220" lon="11.150497">
<ele>573.5</ele>
<speed>2.5</speed>
<course>177.8</course>
<desc>Speed 2.5 km/h Distance 58.62 km</desc>
<time>2010-07-31T14:41:21.64</time>
<name>1842</name>
</trkpt>
<trkpt lat="48.908198" lon="11.150498">
<ele>573.5</ele>
<speed>0.7</speed>
<course>275.4</course>
<desc>Speed 0.7 km/h Distance 58.62 km</desc>
<time>2010-07-31T14:41:23.58</time>
<name>1843</name>
</trkpt>
<trkpt lat="48.908200" lon="11.150472">
<ele>573.5</ele>
<speed>1.2</speed>
<course>203.7</course>
<desc>Speed 1.2 km/h Distance 58.62 km</desc>
<time>2010-07-31T14:41:25.58</time>
<name>1844</name>
</trkpt>
<trkpt lat="48.908180" lon="11.150458">
<ele>573.5</ele>
<speed>0.8</speed>
<course>145.9</course>
<desc>Speed 0.8 km/h Distance 58.62 km</desc>
<time>2010-07-31T14:41:27.58</time>
<name>1845</name>
</trkpt>
<trkpt lat="48.908175" lon="11.150463">
<ele>573.5</ele>
<speed>0.8</speed>
<course>352.3</course>
<desc>Speed 0.8 km/h Distance 58.62 km</desc>
<time>2010-07-31T14:41:29.56</time>
<name>1846</name>
</trkpt>
<trkpt lat="48.908183" lon="11.150462">
<ele>573.5</ele>
<speed>0.8</speed>
<course>149.9</course>
<desc>Speed 0.8 km/h Distance 58.63 km</desc>
<time>2010-07-31T14:41:31.55</time>
<name>1847</name>
</trkpt>
<trkpt lat="48.908155" lon="11.150487">
<ele>573.5</ele>
<speed>1.5</speed>
<course>90.0</course>
<desc>Speed 1.5 km/h Distance 58.63 km</desc>
<time>2010-07-31T14:41:33.54</time>
<name>1848</name>
</trkpt>
<trkpt lat="48.908155" lon="11.150503">
<ele>573.5</ele>
<speed>2.9</speed>
<course>17.0</course>
<desc>Speed 2.9 km/h Distance 58.63 km</desc>
<time>2010-07-31T14:41:35.53</time>
<name>1849</name>
</trkpt>
<trkpt lat="48.908165" lon="11.150508">
<ele>573.5</ele>
<speed>2.9</speed>
<course>116.9</course>
<desc>Speed 2.9 km/h Distance 58.63 km</desc>
<time>2010-07-31T14:41:38.04</time>
<name>1850</name>
</trkpt>
<trkpt lat="48.908160" lon="11.150523">
<ele>573.5</ele>
<speed>2.9</speed>
<course>106.9</course>
<desc>Speed 2.9 km/h Distance 58.63 km</desc>
<time>2010-07-31T14:41:39.52</time>
<name>1851</name>
</trkpt>
<trkpt lat="48.908155" lon="11.150548">
<ele>574.0</ele>
<speed>2.5</speed>
<course>59.1</course>
<desc>Speed 2.5 km/h Distance 58.63 km</desc>
<time>2010-07-31T14:41:41.51</time>
<name>1852</name>
</trkpt>
<trkpt lat="48.908173" lon="11.150595">
<ele>574.0</ele>
<speed>0.1</speed>
<course>35.2</course>
<desc>Speed 0.1 km/h Distance 58.64 km</desc>
<time>2010-07-31T14:41:43.51</time>
<name>1853</name>
</trkpt>
<trkpt lat="48.908197" lon="11.150620">
<ele>574.0</ele>
<speed>0.8</speed>
<course>42.8</course>
<desc>Speed 0.8 km/h Distance 58.64 km</desc>
<time>2010-07-31T14:41:45.50</time>
<name>1854</name>
</trkpt>
<trkpt lat="48.908205" lon="11.150632">
<ele>574.0</ele>
<speed>0.6</speed>
<course>93.6</course>
<desc>Speed 0.6 km/h Distance 58.64 km</desc>
<time>2010-07-31T14:41:47.51</time>
<name>1855</name>
</trkpt>
<trkpt lat="48.908203" lon="11.150672">
<ele>574.0</ele>
<speed>0.6</speed>
<course>355.3</course>
<desc>Speed 0.6 km/h Distance 58.65 km</desc>
<time>2010-07-31T14:41:49.50</time>
<name>1856</name>
</trkpt>
<trkpt lat="48.908215" lon="11.150670">
<ele>574.0</ele>
<speed>0.6</speed>
<course>67.5</course>
<desc>Speed 0.6 km/h Distance 58.65 km</desc>
<time>2010-07-31T14:41:51.59</time>
<name>1857</name>
</trkpt>
<trkpt lat="48.908220" lon="11.150688">
<ele>574.0</ele>
<speed>4.9</speed>
<course>43.2</course>
<desc>Speed 4.9 km/h Distance 58.65 km</desc>
<time>2010-07-31T14:41:53.50</time>
<name>1858</name>
</trkpt>
<trkpt lat="48.908232" lon="11.150705">
<ele>574.0</ele>
<speed>4.9</speed>
<course>106.9</course>
<desc>Speed 4.9 km/h Distance 58.65 km</desc>
<time>2010-07-31T14:41:55.50</time>
<name>1859</name>
</trkpt>
<trkpt lat="48.908230" lon="11.150713">
<ele>574.0</ele>
<speed>4.9</speed>
<course>330.1</course>
<desc>Speed 4.9 km/h Distance 58.65 km</desc>
<time>2010-07-31T14:41:57.54</time>
<name>1860</name>
</trkpt>
<trkpt lat="48.908257" lon="11.150690">
<ele>574.0</ele>
<speed>4.9</speed>
<course>55.9</course>
<desc>Speed 4.9 km/h Distance 58.65 km</desc>
<time>2010-07-31T14:41:59.49</time>
<name>1861</name>
</trkpt>
<trkpt lat="48.908263" lon="11.150705">
<ele>574.0</ele>
<speed>4.9</speed>
<course>329.2</course>
<desc>Speed 4.9 km/h Distance 58.66 km</desc>
<time>2010-07-31T14:42:01.49</time>
<name>1862</name>
</trkpt>
<trkpt lat="48.908282" lon="11.150688">
<ele>574.0</ele>
<speed>4.9</speed>
<course>44.5</course>
<desc>Speed 4.9 km/h Distance 58.66 km</desc>
<time>2010-07-31T14:42:03.54</time>
<name>1863</name>
</trkpt>
<trkpt lat="48.908288" lon="11.150698">
<ele>574.0</ele>
<speed>4.9</speed>
<course>0.0</course>
<desc>Speed 4.9 km/h Distance 58.66 km</desc>
<time>2010-07-31T14:42:05.49</time>
<name>1864</name>
</trkpt>
<trkpt lat="48.908292" lon="11.150698">
<ele>574.0</ele>
<speed>4.9</speed>
<course>40.9</course>
<desc>Speed 4.9 km/h Distance 58.66 km</desc>
<time>2010-07-31T14:42:07.49</time>
<name>1865</name>
</trkpt>
<trkpt lat="48.908297" lon="11.150705">
<ele>574.0</ele>
<speed>4.9</speed>
<course>258.5</course>
<desc>Speed 4.9 km/h Distance 58.66 km</desc>
<time>2010-07-31T14:42:09.54</time>
<name>1866</name>
</trkpt>
<trkpt lat="48.908293" lon="11.150680">
<ele>574.0</ele>
<speed>4.9</speed>
<course>75.0</course>
<desc>Speed 4.9 km/h Distance 58.66 km</desc>
<time>2010-07-31T14:42:11.48</time>
<name>1867</name>
</trkpt>
<trkpt lat="48.908298" lon="11.150708">
<ele>574.0</ele>
<speed>4.9</speed>
<course>73.0</course>
<desc>Speed 4.9 km/h Distance 58.66 km</desc>
<time>2010-07-31T14:42:13.48</time>
<name>1868</name>
</trkpt>
<trkpt lat="48.908302" lon="11.150725">
<ele>574.0</ele>
<speed>4.9</speed>
<course>33.3</course>
<desc>Speed 4.9 km/h Distance 58.67 km</desc>
<time>2010-07-31T14:42:15.53</time>
<name>1869</name>
</trkpt>
<trkpt lat="48.908352" lon="11.150775">
<ele>574.0</ele>
<speed>2.3</speed>
<course>206.0</course>
<desc>Speed 2.3 km/h Distance 58.67 km</desc>
<time>2010-07-31T14:42:18.49</time>
<name>1870</name>
</trkpt>
<trkpt lat="48.908338" lon="11.150765">
<ele>574.0</ele>
<speed>0.7</speed>
<course>234.6</course>
<desc>Speed 0.7 km/h Distance 58.67 km</desc>
<time>2010-07-31T14:42:20.48</time>
<name>1871</name>
</trkpt>
<trkpt lat="48.908327" lon="11.150740">
<ele>574.0</ele>
<speed>0.7</speed>
<course>209.2</course>
<desc>Speed 0.7 km/h Distance 58.68 km</desc>
<time>2010-07-31T14:42:22.53</time>
<name>1872</name>
</trkpt>
<trkpt lat="48.908315" lon="11.150730">
<ele>574.0</ele>
<speed>0.7</speed>
<course>180.0</course>
<desc>Speed 0.7 km/h Distance 58.68 km</desc>
<time>2010-07-31T14:42:24.48</time>
<name>1873</name>
</trkpt>
<trkpt lat="48.908293" lon="11.150730">
<ele>574.0</ele>
<speed>0.7</speed>
<course>190.8</course>
<desc>Speed 0.7 km/h Distance 58.68 km</desc>
<time>2010-07-31T14:42:26.48</time>
<name>1874</name>
</trkpt>
<trkpt lat="48.908277" lon="11.150725">
<ele>574.0</ele>
<speed>0.7</speed>
<course>227.8</course>
<desc>Speed 0.7 km/h Distance 58.68 km</desc>
<time>2010-07-31T14:42:28.54</time>
<name>1875</name>
</trkpt>
<trkpt lat="48.908272" lon="11.150717">
<ele>574.0</ele>
<speed>0.7</speed>
<course>218.1</course>
<desc>Speed 0.7 km/h Distance 58.68 km</desc>
<time>2010-07-31T14:42:30.47</time>
<name>1876</name>
</trkpt>
<trkpt lat="48.908263" lon="11.150707">
<ele>574.0</ele>
<speed>0.7</speed>
<course>218.1</course>
<desc>Speed 0.7 km/h Distance 58.68 km</desc>
<time>2010-07-31T14:42:32.47</time>
<name>1877</name>
</trkpt>
<trkpt lat="48.908263" lon="11.150708">
<ele>574.0</ele>
<speed>0.7</speed>
<course>83.3</course>
<desc>Speed 0.7 km/h Distance 58.68 km</desc>
<time>2010-07-31T14:42:34.53</time>
<name>1878</name>
</trkpt>
<trkpt lat="48.908265" lon="11.150730">
<ele>574.0</ele>
<speed>0.7</speed>
<course>84.6</course>
<desc>Speed 0.7 km/h Distance 58.69 km</desc>
<time>2010-07-31T14:42:36.48</time>
<name>1879</name>
</trkpt>
<trkpt lat="48.908272" lon="11.150837">
<ele>574.0</ele>
<speed>8.6</speed>
<course>105.9</course>
<desc>Speed 8.6 km/h Distance 58.69 km</desc>
<time>2010-07-31T14:42:38.48</time>
<name>1880</name>
</trkpt>
<trkpt lat="48.908262" lon="11.150890">
<ele>574.0</ele>
<speed>8.6</speed>
<course>134.7</course>
<desc>Speed 8.6 km/h Distance 58.70 km</desc>
<time>2010-07-31T14:42:40.49</time>
<name>1881</name>
</trkpt>
<trkpt lat="48.908218" lon="11.150957">
<ele>574.0</ele>
<speed>4.1</speed>
<course>55.6</course>
<desc>Speed 4.1 km/h Distance 58.70 km</desc>
<time>2010-07-31T14:42:42.47</time>
<name>1882</name>
</trkpt>
<trkpt lat="48.908263" lon="11.151057">
<ele>573.5</ele>
<speed>4.1</speed>
<course>103.5</course>
<desc>Speed 4.1 km/h Distance 58.71 km</desc>
<time>2010-07-31T14:42:44.48</time>
<name>1883</name>
</trkpt>
<trkpt lat="48.908202" lon="11.151448">
<ele>575.0</ele>
<speed>30.3</speed>
<course>104.6</course>
<desc>Speed 30.3 km/h Distance 58.74 km</desc>
<time>2010-07-31T14:42:48.47</time>
<name>1884</name>
</trkpt>
<trkpt lat="48.908173" lon="11.151613">
<ele>574.5</ele>
<speed>30.3</speed>
<course>132.7</course>
<desc>Speed 30.3 km/h Distance 58.76 km</desc>
<time>2010-07-31T14:42:51.47</time>
<name>1885</name>
</trkpt>
<trkpt lat="48.908117" lon="11.151707">
<ele>575.0</ele>
<speed>30.3</speed>
<course>117.4</course>
<desc>Speed 30.3 km/h Distance 58.76 km</desc>
<time>2010-07-31T14:42:53.47</time>
<name>1886</name>
</trkpt>
<trkpt lat="48.907355" lon="11.153938">
<ele>574.0</ele>
<speed>56.8</speed>
<course>167.0</course>
<desc>Speed 56.8 km/h Distance 58.95 km</desc>
<time>2010-07-31T14:43:05.46</time>
<name>1887</name>
</trkpt>
<trkpt lat="48.906937" lon="11.154085">
<ele>571.0</ele>
<speed>56.8</speed>
<course>152.0</course>
<desc>Speed 56.8 km/h Distance 59.00 km</desc>
<time>2010-07-31T14:43:08.46</time>
<name>1888</name>
</trkpt>
<trkpt lat="48.906612" lon="11.154348">
<ele>571.0</ele>
<speed>56.8</speed>
<course>125.3</course>
<desc>Speed 56.8 km/h Distance 59.04 km</desc>
<time>2010-07-31T14:43:13.45</time>
<name>1889</name>
</trkpt>
<trkpt lat="48.906032" lon="11.155595">
<ele>571.5</ele>
<speed>56.8</speed>
<course>170.5</course>
<desc>Speed 56.8 km/h Distance 59.15 km</desc>
<time>2010-07-31T14:43:21.43</time>
<name>1890</name>
</trkpt>
<trkpt lat="48.905783" lon="11.155658">
<ele>571.0</ele>
<speed>56.8</speed>
<course>193.9</course>
<desc>Speed 56.8 km/h Distance 59.18 km</desc>
<time>2010-07-31T14:43:26.44</time>
<name>1891</name>
</trkpt>
<trkpt lat="48.905117" lon="11.155407">
<ele>571.0</ele>
<speed>56.8</speed>
<course>161.3</course>
<desc>Speed 56.8 km/h Distance 59.25 km</desc>
<time>2010-07-31T14:43:30.45</time>
<name>1892</name>
</trkpt>
<trkpt lat="48.904228" lon="11.155865">
<ele>571.0</ele>
<speed>42.6</speed>
<course>166.4</course>
<desc>Speed 42.6 km/h Distance 59.36 km</desc>
<time>2010-07-31T14:43:38.47</time>
<name>1893</name>
</trkpt>
<trkpt lat="48.903767" lon="11.156035">
<ele>571.0</ele>
<speed>41.7</speed>
<course>172.4</course>
<desc>Speed 41.7 km/h Distance 59.41 km</desc>
<time>2010-07-31T14:43:41.44</time>
<name>1894</name>
</trkpt>
<trkpt lat="48.903677" lon="11.156053">
<ele>571.0</ele>
<speed>41.7</speed>
<course>183.1</course>
<desc>Speed 41.7 km/h Distance 59.42 km</desc>
<time>2010-07-31T14:43:42.44</time>
<name>1895</name>
</trkpt>
<trkpt lat="48.903258" lon="11.156018">
<ele>571.0</ele>
<speed>41.6</speed>
<course>177.6</course>
<desc>Speed 41.6 km/h Distance 59.47 km</desc>
<time>2010-07-31T14:43:45.42</time>
<name>1896</name>
</trkpt>
<trkpt lat="48.902993" lon="11.156035">
<ele>571.0</ele>
<speed>51.7</speed>
<course>156.6</course>
<desc>Speed 51.7 km/h Distance 59.50 km</desc>
<time>2010-07-31T14:43:47.42</time>
<name>1897</name>
</trkpt>
<trkpt lat="48.902808" lon="11.156157">
<ele>568.5</ele>
<speed>51.0</speed>
<course>167.0</course>
<desc>Speed 51.0 km/h Distance 59.52 km</desc>
<time>2010-07-31T14:43:49.43</time>
<name>1898</name>
</trkpt>
<trkpt lat="48.902680" lon="11.156202">
<ele>568.5</ele>
<speed>50.2</speed>
<course>164.8</course>
<desc>Speed 50.2 km/h Distance 59.53 km</desc>
<time>2010-07-31T14:43:50.43</time>
<name>1899</name>
</trkpt>
<trkpt lat="48.902543" lon="11.156258">
<ele>568.0</ele>
<speed>50.2</speed>
<course>156.8</course>
<desc>Speed 50.2 km/h Distance 59.55 km</desc>
<time>2010-07-31T14:43:51.44</time>
<name>1900</name>
</trkpt>
<trkpt lat="48.902303" lon="11.156415">
<ele>566.5</ele>
<speed>50.2</speed>
<course>98.3</course>
<desc>Speed 50.2 km/h Distance 59.58 km</desc>
<time>2010-07-31T14:43:54.43</time>
<name>1901</name>
</trkpt>
<trkpt lat="48.902243" lon="11.157040">
<ele>564.5</ele>
<speed>50.2</speed>
<course>144.3</course>
<desc>Speed 50.2 km/h Distance 59.63 km</desc>
<time>2010-07-31T14:43:56.44</time>
<name>1902</name>
</trkpt>
<trkpt lat="48.902027" lon="11.157277">
<ele>563.5</ele>
<speed>42.9</speed>
<course>147.1</course>
<desc>Speed 42.9 km/h Distance 59.65 km</desc>
<time>2010-07-31T14:44:00.44</time>
<name>1903</name>
</trkpt>
<trkpt lat="48.901927" lon="11.157375">
<ele>561.5</ele>
<speed>42.9</speed>
<course>122.6</course>
<desc>Speed 42.9 km/h Distance 59.67 km</desc>
<time>2010-07-31T14:44:01.44</time>
<name>1904</name>
</trkpt>
<trkpt lat="48.901878" lon="11.157490">
<ele>560.5</ele>
<speed>42.9</speed>
<course>110.8</course>
<desc>Speed 42.9 km/h Distance 59.68 km</desc>
<time>2010-07-31T14:44:02.43</time>
<name>1905</name>
</trkpt>
<trkpt lat="48.901843" lon="11.157630">
<ele>558.5</ele>
<speed>42.9</speed>
<course>110.0</course>
<desc>Speed 42.9 km/h Distance 59.69 km</desc>
<time>2010-07-31T14:44:03.44</time>
<name>1906</name>
</trkpt>
<trkpt lat="48.901705" lon="11.158208">
<ele>554.5</ele>
<speed>54.7</speed>
<course>135.1</course>
<desc>Speed 54.7 km/h Distance 59.73 km</desc>
<time>2010-07-31T14:44:06.43</time>
<name>1907</name>
</trkpt>
<trkpt lat="48.901492" lon="11.158532">
<ele>554.0</ele>
<speed>46.8</speed>
<course>140.9</course>
<desc>Speed 46.8 km/h Distance 59.77 km</desc>
<time>2010-07-31T14:44:09.43</time>
<name>1908</name>
</trkpt>
<trkpt lat="48.901407" lon="11.158637">
<ele>554.0</ele>
<speed>46.8</speed>
<course>123.2</course>
<desc>Speed 46.8 km/h Distance 59.78 km</desc>
<time>2010-07-31T14:44:10.43</time>
<name>1909</name>
</trkpt>
<trkpt lat="48.901313" lon="11.158853">
<ele>552.5</ele>
<speed>46.8</speed>
<course>114.7</course>
<desc>Speed 46.8 km/h Distance 59.80 km</desc>
<time>2010-07-31T14:44:12.42</time>
<name>1910</name>
</trkpt>
<trkpt lat="48.901225" lon="11.159145">
<ele>551.0</ele>
<speed>46.8</speed>
<course>120.2</course>
<desc>Speed 46.8 km/h Distance 59.82 km</desc>
<time>2010-07-31T14:44:15.43</time>
<name>1911</name>
</trkpt>
<trkpt lat="48.901135" lon="11.159380">
<ele>549.0</ele>
<speed>46.8</speed>
<course>109.6</course>
<desc>Speed 46.8 km/h Distance 59.84 km</desc>
<time>2010-07-31T14:44:17.42</time>
<name>1912</name>
</trkpt>
<trkpt lat="48.901058" lon="11.159707">
<ele>546.0</ele>
<speed>46.8</speed>
<course>108.3</course>
<desc>Speed 46.8 km/h Distance 59.87 km</desc>
<time>2010-07-31T14:44:20.41</time>
<name>1913</name>
</trkpt>
<trkpt lat="48.901022" lon="11.159875">
<ele>545.0</ele>
<speed>46.8</speed>
<course>117.8</course>
<desc>Speed 46.8 km/h Distance 59.88 km</desc>
<time>2010-07-31T14:44:21.41</time>
<name>1914</name>
</trkpt>
<trkpt lat="48.900847" lon="11.160380">
<ele>544.0</ele>
<speed>46.8</speed>
<course>127.4</course>
<desc>Speed 46.8 km/h Distance 59.92 km</desc>
<time>2010-07-31T14:44:25.41</time>
<name>1915</name>
</trkpt>
<trkpt lat="48.900525" lon="11.161020">
<ele>544.0</ele>
<speed>46.8</speed>
<course>69.5</course>
<desc>Speed 46.8 km/h Distance 59.98 km</desc>
<time>2010-07-31T14:44:30.40</time>
<name>1916</name>
</trkpt>
<trkpt lat="48.900668" lon="11.161602">
<ele>544.0</ele>
<speed>46.8</speed>
<course>46.6</course>
<desc>Speed 46.8 km/h Distance 60.03 km</desc>
<time>2010-07-31T14:44:33.40</time>
<name>1917</name>
</trkpt>
<trkpt lat="48.900860" lon="11.161910">
<ele>543.5</ele>
<speed>46.8</speed>
<course>36.6</course>
<desc>Speed 46.8 km/h Distance 60.06 km</desc>
<time>2010-07-31T14:44:35.40</time>
<name>1918</name>
</trkpt>
<trkpt lat="48.901025" lon="11.162097">
<ele>542.0</ele>
<speed>46.8</speed>
<course>21.8</course>
<desc>Speed 46.8 km/h Distance 60.08 km</desc>
<time>2010-07-31T14:44:39.39</time>
<name>1919</name>
</trkpt>
<trkpt lat="48.901187" lon="11.162195">
<ele>541.5</ele>
<speed>46.5</speed>
<course>33.3</course>
<desc>Speed 46.5 km/h Distance 60.10 km</desc>
<time>2010-07-31T14:44:41.39</time>
<name>1920</name>
</trkpt>
<trkpt lat="48.901290" lon="11.162298">
<ele>541.0</ele>
<speed>46.5</speed>
<course>47.2</course>
<desc>Speed 46.5 km/h Distance 60.11 km</desc>
<time>2010-07-31T14:44:42.38</time>
<name>1921</name>
</trkpt>
<trkpt lat="48.901425" lon="11.162520">
<ele>539.5</ele>
<speed>46.5</speed>
<course>58.2</course>
<desc>Speed 46.5 km/h Distance 60.14 km</desc>
<time>2010-07-31T14:44:44.38</time>
<name>1922</name>
</trkpt>
<trkpt lat="48.901483" lon="11.162663">
<ele>538.5</ele>
<speed>46.5</speed>
<course>76.2</course>
<desc>Speed 46.5 km/h Distance 60.15 km</desc>
<time>2010-07-31T14:44:45.39</time>
<name>1923</name>
</trkpt>
<trkpt lat="48.901532" lon="11.162963">
<ele>538.0</ele>
<speed>46.5</speed>
<course>48.2</course>
<desc>Speed 46.5 km/h Distance 60.17 km</desc>
<time>2010-07-31T14:44:48.38</time>
<name>1924</name>
</trkpt>
<trkpt lat="48.902005" lon="11.163768">
<ele>537.5</ele>
<speed>46.5</speed>
<course>81.9</course>
<desc>Speed 46.5 km/h Distance 60.25 km</desc>
<time>2010-07-31T14:44:52.37</time>
<name>1925</name>
</trkpt>
<trkpt lat="48.902027" lon="11.164000">
<ele>537.5</ele>
<speed>46.5</speed>
<course>55.9</course>
<desc>Speed 46.5 km/h Distance 60.27 km</desc>
<time>2010-07-31T14:44:57.36</time>
<name>1926</name>
</trkpt>
<trkpt lat="48.902173" lon="11.164330">
<ele>537.5</ele>
<speed>51.7</speed>
<course>60.0</course>
<desc>Speed 51.7 km/h Distance 60.30 km</desc>
<time>2010-07-31T14:45:00.35</time>
<name>1927</name>
</trkpt>
<trkpt lat="48.902242" lon="11.164510">
<ele>537.5</ele>
<speed>51.7</speed>
<course>66.9</course>
<desc>Speed 51.7 km/h Distance 60.31 km</desc>
<time>2010-07-31T14:45:01.35</time>
<name>1928</name>
</trkpt>
<trkpt lat="48.902402" lon="11.165082">
<ele>534.0</ele>
<speed>48.0</speed>
<course>59.1</course>
<desc>Speed 48.0 km/h Distance 60.36 km</desc>
<time>2010-07-31T14:45:04.34</time>
<name>1929</name>
</trkpt>
<trkpt lat="48.902902" lon="11.166353">
<ele>529.5</ele>
<speed>58.3</speed>
<course>40.0</course>
<desc>Speed 58.3 km/h Distance 60.47 km</desc>
<time>2010-07-31T14:45:09.34</time>
<name>1930</name>
</trkpt>
<trkpt lat="48.903265" lon="11.166817">
<ele>526.5</ele>
<speed>58.3</speed>
<course>66.6</course>
<desc>Speed 58.3 km/h Distance 60.52 km</desc>
<time>2010-07-31T14:45:12.33</time>
<name>1931</name>
</trkpt>
<trkpt lat="48.903377" lon="11.167208">
<ele>524.5</ele>
<speed>58.3</speed>
<course>45.7</course>
<desc>Speed 58.3 km/h Distance 60.55 km</desc>
<time>2010-07-31T14:45:14.33</time>
<name>1932</name>
</trkpt>
<trkpt lat="48.903535" lon="11.167455">
<ele>523.0</ele>
<speed>58.3</speed>
<course>95.7</course>
<desc>Speed 58.3 km/h Distance 60.57 km</desc>
<time>2010-07-31T14:45:16.34</time>
<name>1933</name>
</trkpt>
<trkpt lat="48.903455" lon="11.168675">
<ele>522.0</ele>
<speed>48.1</speed>
<course>109.4</course>
<desc>Speed 48.1 km/h Distance 60.66 km</desc>
<time>2010-07-31T14:45:20.33</time>
<name>1934</name>
</trkpt>
<trkpt lat="48.903302" lon="11.169337">
<ele>521.0</ele>
<speed>48.1</speed>
<course>128.8</course>
<desc>Speed 48.1 km/h Distance 60.72 km</desc>
<time>2010-07-31T14:45:23.33</time>
<name>1935</name>
</trkpt>
<trkpt lat="48.903147" lon="11.169630">
<ele>520.5</ele>
<speed>48.1</speed>
<course>121.7</course>
<desc>Speed 48.1 km/h Distance 60.74 km</desc>
<time>2010-07-31T14:45:25.33</time>
<name>1936</name>
</trkpt>
<trkpt lat="48.902910" lon="11.170213">
<ele>520.5</ele>
<speed>53.0</speed>
<course>116.9</course>
<desc>Speed 53.0 km/h Distance 60.79 km</desc>
<time>2010-07-31T14:45:28.33</time>
<name>1937</name>
</trkpt>
<trkpt lat="48.902783" lon="11.170593">
<ele>520.0</ele>
<speed>53.0</speed>
<course>124.0</course>
<desc>Speed 53.0 km/h Distance 60.82 km</desc>
<time>2010-07-31T14:45:31.33</time>
<name>1938</name>
</trkpt>
<trkpt lat="48.902718" lon="11.170740">
<ele>520.0</ele>
<speed>53.0</speed>
<course>119.4</course>
<desc>Speed 53.0 km/h Distance 60.84 km</desc>
<time>2010-07-31T14:45:32.33</time>
<name>1939</name>
</trkpt>
<trkpt lat="48.902658" lon="11.170902">
<ele>520.0</ele>
<speed>53.0</speed>
<course>138.5</course>
<desc>Speed 53.0 km/h Distance 60.85 km</desc>
<time>2010-07-31T14:45:33.33</time>
<name>1940</name>
</trkpt>
<trkpt lat="48.902567" lon="11.171025">
<ele>520.0</ele>
<speed>53.0</speed>
<course>110.0</course>
<desc>Speed 53.0 km/h Distance 60.86 km</desc>
<time>2010-07-31T14:45:34.33</time>
<name>1941</name>
</trkpt>
<trkpt lat="48.902448" lon="11.171518">
<ele>518.0</ele>
<speed>48.0</speed>
<course>110.5</course>
<desc>Speed 48.0 km/h Distance 60.90 km</desc>
<time>2010-07-31T14:45:38.32</time>
<name>1942</name>
</trkpt>
<trkpt lat="48.902277" lon="11.172218">
<ele>512.5</ele>
<speed>48.0</speed>
<course>125.3</course>
<desc>Speed 48.0 km/h Distance 60.96 km</desc>
<time>2010-07-31T14:45:41.33</time>
<name>1943</name>
</trkpt>
<trkpt lat="48.902100" lon="11.172598">
<ele>509.0</ele>
<speed>53.2</speed>
<course>124.4</course>
<desc>Speed 53.2 km/h Distance 60.99 km</desc>
<time>2010-07-31T14:45:44.32</time>
<name>1944</name>
</trkpt>
<trkpt lat="48.902017" lon="11.172783">
<ele>508.0</ele>
<speed>57.7</speed>
<course>112.4</course>
<desc>Speed 57.7 km/h Distance 61.01 km</desc>
<time>2010-07-31T14:45:45.32</time>
<name>1945</name>
</trkpt>
<trkpt lat="48.901958" lon="11.172998">
<ele>506.0</ele>
<speed>58.1</speed>
<course>106.1</course>
<desc>Speed 58.1 km/h Distance 61.03 km</desc>
<time>2010-07-31T14:45:46.32</time>
<name>1946</name>
</trkpt>
<trkpt lat="48.901913" lon="11.173235">
<ele>503.5</ele>
<speed>58.8</speed>
<course>105.2</course>
<desc>Speed 58.8 km/h Distance 61.04 km</desc>
<time>2010-07-31T14:45:47.32</time>
<name>1947</name>
</trkpt>
<trkpt lat="48.901828" lon="11.173710">
<ele>497.5</ele>
<speed>53.8</speed>
<course>122.6</course>
<desc>Speed 53.8 km/h Distance 61.08 km</desc>
<time>2010-07-31T14:45:49.32</time>
<name>1948</name>
</trkpt>
<trkpt lat="48.901672" lon="11.174083">
<ele>493.5</ele>
<speed>35.0</speed>
<course>135.2</course>
<desc>Speed 35.0 km/h Distance 61.11 km</desc>
<time>2010-07-31T14:45:52.32</time>
<name>1949</name>
</trkpt>
<trkpt lat="48.901505" lon="11.174335">
<ele>490.0</ele>
<speed>19.7</speed>
<course>129.7</course>
<desc>Speed 19.7 km/h Distance 61.14 km</desc>
<time>2010-07-31T14:45:55.32</time>
<name>1950</name>
</trkpt>
<trkpt lat="48.901485" lon="11.174372">
<ele>489.5</ele>
<speed>19.7</speed>
<course>271.3</course>
<desc>Speed 19.7 km/h Distance 61.14 km</desc>
<time>2010-07-31T14:45:56.32</time>
<name>1951</name>
</trkpt>
<trkpt lat="48.901487" lon="11.174257">
<ele>484.5</ele>
<speed>19.7</speed>
<course>312.7</course>
<desc>Speed 19.7 km/h Distance 61.15 km</desc>
<time>2010-07-31T14:45:59.31</time>
<name>1952</name>
</trkpt>
<trkpt lat="48.901515" lon="11.174210">
<ele>483.5</ele>
<speed>19.7</speed>
<course>274.8</course>
<desc>Speed 19.7 km/h Distance 61.15 km</desc>
<time>2010-07-31T14:46:00.31</time>
<name>1953</name>
</trkpt>
<trkpt lat="48.901542" lon="11.173728">
<ele>474.0</ele>
<speed>19.7</speed>
<course>272.9</course>
<desc>Speed 19.7 km/h Distance 61.19 km</desc>
<time>2010-07-31T14:46:04.32</time>
<name>1954</name>
</trkpt>
<trkpt lat="48.901620" lon="11.171340">
<ele>473.0</ele>
<speed>19.7</speed>
<course>267.6</course>
<desc>Speed 19.7 km/h Distance 61.36 km</desc>
<time>2010-07-31T14:46:13.29</time>
<name>1955</name>
</trkpt>
<trkpt lat="48.901575" lon="11.169727">
<ele>468.5</ele>
<speed>59.9</speed>
<course>250.6</course>
<desc>Speed 59.9 km/h Distance 61.48 km</desc>
<time>2010-07-31T14:46:18.29</time>
<name>1956</name>
</trkpt>
<trkpt lat="48.901528" lon="11.169525">
<ele>468.5</ele>
<speed>56.9</speed>
<course>259.9</course>
<desc>Speed 56.9 km/h Distance 61.50 km</desc>
<time>2010-07-31T14:46:19.29</time>
<name>1957</name>
</trkpt>
<trkpt lat="48.901483" lon="11.169140">
<ele>468.5</ele>
<speed>58.5</speed>
<course>235.0</course>
<desc>Speed 58.5 km/h Distance 61.53 km</desc>
<time>2010-07-31T14:46:21.29</time>
<name>1958</name>
</trkpt>
<trkpt lat="48.901395" lon="11.168948">
<ele>468.0</ele>
<speed>62.5</speed>
<course>237.3</course>
<desc>Speed 62.5 km/h Distance 61.54 km</desc>
<time>2010-07-31T14:46:22.29</time>
<name>1959</name>
</trkpt>
<trkpt lat="48.901310" lon="11.168747">
<ele>468.0</ele>
<speed>60.9</speed>
<course>238.8</course>
<desc>Speed 60.9 km/h Distance 61.56 km</desc>
<time>2010-07-31T14:46:23.30</time>
<name>1960</name>
</trkpt>
<trkpt lat="48.901228" lon="11.168542">
<ele>467.0</ele>
<speed>63.0</speed>
<course>232.5</course>
<desc>Speed 63.0 km/h Distance 61.58 km</desc>
<time>2010-07-31T14:46:24.30</time>
<name>1961</name>
</trkpt>
<trkpt lat="48.901045" lon="11.168178">
<ele>464.5</ele>
<speed>61.8</speed>
<course>237.1</course>
<desc>Speed 61.8 km/h Distance 61.61 km</desc>
<time>2010-07-31T14:46:26.30</time>
<name>1962</name>
</trkpt>
<trkpt lat="48.900960" lon="11.167978">
<ele>464.0</ele>
<speed>60.5</speed>
<course>235.8</course>
<desc>Speed 60.5 km/h Distance 61.63 km</desc>
<time>2010-07-31T14:46:27.30</time>
<name>1963</name>
</trkpt>
<trkpt lat="48.900868" lon="11.167773">
<ele>463.0</ele>
<speed>62.8</speed>
<course>238.8</course>
<desc>Speed 62.8 km/h Distance 61.65 km</desc>
<time>2010-07-31T14:46:28.29</time>
<name>1964</name>
</trkpt>
<trkpt lat="48.900783" lon="11.167560">
<ele>462.0</ele>
<speed>63.9</speed>
<course>238.8</course>
<desc>Speed 63.9 km/h Distance 61.67 km</desc>
<time>2010-07-31T14:46:29.29</time>
<name>1965</name>
</trkpt>
<trkpt lat="48.900698" lon="11.167347">
<ele>460.5</ele>
<speed>64.4</speed>
<course>237.0</course>
<desc>Speed 64.4 km/h Distance 61.68 km</desc>
<time>2010-07-31T14:46:30.30</time>
<name>1966</name>
</trkpt>
<trkpt lat="48.900612" lon="11.167143">
<ele>460.0</ele>
<speed>63.3</speed>
<course>227.0</course>
<desc>Speed 63.3 km/h Distance 61.70 km</desc>
<time>2010-07-31T14:46:31.29</time>
<name>1967</name>
</trkpt>
<trkpt lat="48.900493" lon="11.166950">
<ele>459.5</ele>
<speed>66.7</speed>
<course>233.0</course>
<desc>Speed 66.7 km/h Distance 61.72 km</desc>
<time>2010-07-31T14:46:32.29</time>
<name>1968</name>
</trkpt>
<trkpt lat="48.900310" lon="11.166580">
<ele>459.0</ele>
<speed>58.3</speed>
<course>226.5</course>
<desc>Speed 58.3 km/h Distance 61.76 km</desc>
<time>2010-07-31T14:46:34.30</time>
<name>1969</name>
</trkpt>
<trkpt lat="48.900205" lon="11.166412">
<ele>459.5</ele>
<speed>61.5</speed>
<course>220.5</course>
<desc>Speed 61.5 km/h Distance 61.77 km</desc>
<time>2010-07-31T14:46:35.29</time>
<name>1970</name>
</trkpt>
<trkpt lat="48.899875" lon="11.165983">
<ele>458.0</ele>
<speed>56.4</speed>
<course>215.1</course>
<desc>Speed 56.4 km/h Distance 61.82 km</desc>
<time>2010-07-31T14:46:38.28</time>
<name>1971</name>
</trkpt>
<trkpt lat="48.899752" lon="11.165852">
<ele>457.5</ele>
<speed>58.0</speed>
<course>215.3</course>
<desc>Speed 58.0 km/h Distance 61.84 km</desc>
<time>2010-07-31T14:46:39.28</time>
<name>1972</name>
</trkpt>
<trkpt lat="48.899645" lon="11.165737">
<ele>457.5</ele>
<speed>56.8</speed>
<course>213.0</course>
<desc>Speed 56.8 km/h Distance 61.85 km</desc>
<time>2010-07-31T14:46:40.29</time>
<name>1973</name>
</trkpt>
<trkpt lat="48.899525" lon="11.165618">
<ele>456.0</ele>
<speed>55.9</speed>
<course>208.7</course>
<desc>Speed 55.9 km/h Distance 61.87 km</desc>
<time>2010-07-31T14:46:41.29</time>
<name>1974</name>
</trkpt>
<trkpt lat="48.899405" lon="11.165518">
<ele>455.0</ele>
<speed>58.9</speed>
<course>206.1</course>
<desc>Speed 58.9 km/h Distance 61.88 km</desc>
<time>2010-07-31T14:46:42.29</time>
<name>1975</name>
</trkpt>
<trkpt lat="48.899287" lon="11.165430">
<ele>454.5</ele>
<speed>58.7</speed>
<course>204.0</course>
<desc>Speed 58.7 km/h Distance 61.90 km</desc>
<time>2010-07-31T14:46:43.28</time>
<name>1976</name>
</trkpt>
<trkpt lat="48.899038" lon="11.165262">
<ele>454.5</ele>
<speed>60.9</speed>
<course>200.6</course>
<desc>Speed 60.9 km/h Distance 61.93 km</desc>
<time>2010-07-31T14:46:45.28</time>
<name>1977</name>
</trkpt>
<trkpt lat="48.898898" lon="11.165182">
<ele>454.0</ele>
<speed>61.9</speed>
<course>201.7</course>
<desc>Speed 61.9 km/h Distance 61.95 km</desc>
<time>2010-07-31T14:46:46.29</time>
<name>1978</name>
</trkpt>
<trkpt lat="48.898750" lon="11.165092">
<ele>453.0</ele>
<speed>65.3</speed>
<course>206.6</course>
<desc>Speed 65.3 km/h Distance 61.96 km</desc>
<time>2010-07-31T14:46:47.29</time>
<name>1979</name>
</trkpt>
<trkpt lat="48.898443" lon="11.164858">
<ele>451.0</ele>
<speed>62.2</speed>
<course>210.4</course>
<desc>Speed 62.2 km/h Distance 62.00 km</desc>
<time>2010-07-31T14:46:49.28</time>
<name>1980</name>
</trkpt>
<trkpt lat="48.898138" lon="11.164587">
<ele>449.5</ele>
<speed>68.5</speed>
<course>215.1</course>
<desc>Speed 68.5 km/h Distance 62.04 km</desc>
<time>2010-07-31T14:46:51.28</time>
<name>1981</name>
</trkpt>
<trkpt lat="48.897992" lon="11.164430">
<ele>449.0</ele>
<speed>69.8</speed>
<course>221.0</course>
<desc>Speed 69.8 km/h Distance 62.06 km</desc>
<time>2010-07-31T14:46:52.28</time>
<name>1982</name>
</trkpt>
<trkpt lat="48.897868" lon="11.164267">
<ele>449.5</ele>
<speed>65.2</speed>
<course>223.1</course>
<desc>Speed 65.2 km/h Distance 62.08 km</desc>
<time>2010-07-31T14:46:53.28</time>
<name>1983</name>
</trkpt>
<trkpt lat="48.897762" lon="11.164115">
<ele>449.0</ele>
<speed>58.5</speed>
<course>223.9</course>
<desc>Speed 58.5 km/h Distance 62.09 km</desc>
<time>2010-07-31T14:46:54.28</time>
<name>1984</name>
</trkpt>
<trkpt lat="48.897665" lon="11.163973">
<ele>449.0</ele>
<speed>53.9</speed>
<course>223.9</course>
<desc>Speed 53.9 km/h Distance 62.11 km</desc>
<time>2010-07-31T14:46:55.28</time>
<name>1985</name>
</trkpt>
<trkpt lat="48.897575" lon="11.163842">
<ele>448.5</ele>
<speed>48.9</speed>
<course>218.2</course>
<desc>Speed 48.9 km/h Distance 62.12 km</desc>
<time>2010-07-31T14:46:56.27</time>
<name>1986</name>
</trkpt>
<trkpt lat="48.897473" lon="11.163720">
<ele>448.5</ele>
<speed>49.8</speed>
<course>230.9</course>
<desc>Speed 49.8 km/h Distance 62.14 km</desc>
<time>2010-07-31T14:46:57.27</time>
<name>1987</name>
</trkpt>
<trkpt lat="48.897347" lon="11.163483">
<ele>448.0</ele>
<speed>39.4</speed>
<course>226.9</course>
<desc>Speed 39.4 km/h Distance 62.16 km</desc>
<time>2010-07-31T14:46:59.28</time>
<name>1988</name>
</trkpt>
<trkpt lat="48.897280" lon="11.163375">
<ele>447.5</ele>
<speed>38.8</speed>
<course>223.7</course>
<desc>Speed 38.8 km/h Distance 62.17 km</desc>
<time>2010-07-31T14:47:00.28</time>
<name>1989</name>
</trkpt>
<trkpt lat="48.897210" lon="11.163273">
<ele>447.5</ele>
<speed>38.3</speed>
<course>218.2</course>
<desc>Speed 38.3 km/h Distance 62.18 km</desc>
<time>2010-07-31T14:47:01.28</time>
<name>1990</name>
</trkpt>
<trkpt lat="48.897133" lon="11.163182">
<ele>447.5</ele>
<speed>39.4</speed>
<course>222.7</course>
<desc>Speed 39.4 km/h Distance 62.19 km</desc>
<time>2010-07-31T14:47:02.28</time>
<name>1991</name>
</trkpt>
<trkpt lat="48.897072" lon="11.163095">
<ele>447.5</ele>
<speed>33.8</speed>
<course>210.9</course>
<desc>Speed 33.8 km/h Distance 62.20 km</desc>
<time>2010-07-31T14:47:03.27</time>
<name>1992</name>
</trkpt>
<trkpt lat="48.896998" lon="11.163028">
<ele>447.0</ele>
<speed>34.5</speed>
<course>206.1</course>
<desc>Speed 34.5 km/h Distance 62.21 km</desc>
<time>2010-07-31T14:47:04.27</time>
<name>1993</name>
</trkpt>
<trkpt lat="48.896913" lon="11.162965">
<ele>447.0</ele>
<speed>36.1</speed>
<course>199.7</course>
<desc>Speed 36.1 km/h Distance 62.22 km</desc>
<time>2010-07-31T14:47:05.27</time>
<name>1994</name>
</trkpt>
<trkpt lat="48.896678" lon="11.162837">
<ele>446.5</ele>
<speed>45.7</speed>
<course>202.6</course>
<desc>Speed 45.7 km/h Distance 62.25 km</desc>
<time>2010-07-31T14:47:07.32</time>
<name>1995</name>
</trkpt>
<trkpt lat="48.896592" lon="11.162782">
<ele>446.5</ele>
<speed>45.7</speed>
<course>198.3</course>
<desc>Speed 45.7 km/h Distance 62.26 km</desc>
<time>2010-07-31T14:47:08.27</time>
<name>1996</name>
</trkpt>
<trkpt lat="48.896403" lon="11.162687">
<ele>446.5</ele>
<speed>45.7</speed>
<course>193.2</course>
<desc>Speed 45.7 km/h Distance 62.28 km</desc>
<time>2010-07-31T14:47:11.27</time>
<name>1997</name>
</trkpt>
<trkpt lat="48.896165" lon="11.162602">
<ele>447.0</ele>
<speed>45.7</speed>
<course>183.3</course>
<desc>Speed 45.7 km/h Distance 62.31 km</desc>
<time>2010-07-31T14:47:15.27</time>
<name>1998</name>
</trkpt>
<trkpt lat="48.896048" lon="11.162592">
<ele>447.5</ele>
<speed>45.7</speed>
<course>180.4</course>
<desc>Speed 45.7 km/h Distance 62.32 km</desc>
<time>2010-07-31T14:47:16.27</time>
<name>1999</name>
</trkpt>
<trkpt lat="48.895068" lon="11.162582">
<ele>448.5</ele>
<speed>59.9</speed>
<course>177.0</course>
<desc>Speed 59.9 km/h Distance 62.43 km</desc>
<time>2010-07-31T14:47:21.26</time>
<name>2000</name>
</trkpt>
<trkpt lat="48.894503" lon="11.162627">
<ele>447.5</ele>
<speed>60.6</speed>
<course>173.3</course>
<desc>Speed 60.6 km/h Distance 62.50 km</desc>
<time>2010-07-31T14:47:24.25</time>
<name>2001</name>
</trkpt>
<trkpt lat="48.894157" lon="11.162688">
<ele>447.5</ele>
<speed>60.4</speed>
<course>184.9</course>
<desc>Speed 60.4 km/h Distance 62.53 km</desc>
<time>2010-07-31T14:47:26.26</time>
<name>2002</name>
</trkpt>
<trkpt lat="48.893802" lon="11.162642">
<ele>447.5</ele>
<speed>65.5</speed>
<course>183.8</course>
<desc>Speed 65.5 km/h Distance 62.57 km</desc>
<time>2010-07-31T14:47:28.26</time>
<name>2003</name>
</trkpt>
<trkpt lat="48.893507" lon="11.162612">
<ele>447.0</ele>
<speed>52.9</speed>
<course>178.4</course>
<desc>Speed 52.9 km/h Distance 62.61 km</desc>
<time>2010-07-31T14:47:30.27</time>
<name>2004</name>
</trkpt>
<trkpt lat="48.893237" lon="11.162623">
<ele>447.0</ele>
<speed>52.9</speed>
<course>167.3</course>
<desc>Speed 52.9 km/h Distance 62.64 km</desc>
<time>2010-07-31T14:47:32.26</time>
<name>2005</name>
</trkpt>
<trkpt lat="48.892965" lon="11.162717">
<ele>446.5</ele>
<speed>66.4</speed>
<course>169.3</course>
<desc>Speed 66.4 km/h Distance 62.67 km</desc>
<time>2010-07-31T14:47:34.26</time>
<name>2006</name>
</trkpt>
<trkpt lat="48.892600" lon="11.162822">
<ele>445.5</ele>
<speed>65.7</speed>
<course>161.8</course>
<desc>Speed 65.7 km/h Distance 62.71 km</desc>
<time>2010-07-31T14:47:36.26</time>
<name>2007</name>
</trkpt>
<trkpt lat="48.892240" lon="11.163002">
<ele>446.5</ele>
<speed>68.5</speed>
<course>159.4</course>
<desc>Speed 68.5 km/h Distance 62.75 km</desc>
<time>2010-07-31T14:47:38.26</time>
<name>2008</name>
</trkpt>
<trkpt lat="48.892065" lon="11.163102">
<ele>447.0</ele>
<speed>70.3</speed>
<course>161.5</course>
<desc>Speed 70.3 km/h Distance 62.77 km</desc>
<time>2010-07-31T14:47:39.26</time>
<name>2009</name>
</trkpt>
<trkpt lat="48.891888" lon="11.163192">
<ele>447.0</ele>
<speed>70.5</speed>
<course>151.5</course>
<desc>Speed 70.5 km/h Distance 62.79 km</desc>
<time>2010-07-31T14:47:40.25</time>
<name>2010</name>
</trkpt>
<trkpt lat="48.891537" lon="11.163482">
<ele>447.0</ele>
<speed>55.8</speed>
<course>162.0</course>
<desc>Speed 55.8 km/h Distance 62.84 km</desc>
<time>2010-07-31T14:47:43.26</time>
<name>2011</name>
</trkpt>
<trkpt lat="48.890742" lon="11.163875">
<ele>446.5</ele>
<speed>71.8</speed>
<course>156.1</course>
<desc>Speed 71.8 km/h Distance 62.93 km</desc>
<time>2010-07-31T14:47:47.25</time>
<name>2012</name>
</trkpt>
<trkpt lat="48.890568" lon="11.163992">
<ele>446.5</ele>
<speed>72.7</speed>
<course>154.4</course>
<desc>Speed 72.7 km/h Distance 62.95 km</desc>
<time>2010-07-31T14:47:48.26</time>
<name>2013</name>
</trkpt>
<trkpt lat="48.890242" lon="11.164230">
<ele>447.0</ele>
<speed>76.9</speed>
<course>151.1</course>
<desc>Speed 76.9 km/h Distance 62.99 km</desc>
<time>2010-07-31T14:47:50.25</time>
<name>2014</name>
</trkpt>
<trkpt lat="48.890067" lon="11.164377">
<ele>447.0</ele>
<speed>76.2</speed>
<course>151.6</course>
<desc>Speed 76.2 km/h Distance 63.01 km</desc>
<time>2010-07-31T14:47:51.24</time>
<name>2015</name>
</trkpt>
<trkpt lat="48.889888" lon="11.164523">
<ele>446.5</ele>
<speed>77.1</speed>
<course>149.8</course>
<desc>Speed 77.1 km/h Distance 63.04 km</desc>
<time>2010-07-31T14:47:52.24</time>
<name>2016</name>
</trkpt>
<trkpt lat="48.889717" lon="11.164675">
<ele>446.5</ele>
<speed>76.7</speed>
<course>147.2</course>
<desc>Speed 76.7 km/h Distance 63.06 km</desc>
<time>2010-07-31T14:47:53.24</time>
<name>2017</name>
</trkpt>
<trkpt lat="48.889370" lon="11.165015">
<ele>447.0</ele>
<speed>76.5</speed>
<course>145.6</course>
<desc>Speed 76.5 km/h Distance 63.10 km</desc>
<time>2010-07-31T14:47:55.24</time>
<name>2018</name>
</trkpt>
<trkpt lat="48.889213" lon="11.165178">
<ele>447.0</ele>
<speed>73.9</speed>
<course>142.7</course>
<desc>Speed 73.9 km/h Distance 63.13 km</desc>
<time>2010-07-31T14:47:56.24</time>
<name>2019</name>
</trkpt>
<trkpt lat="48.889067" lon="11.165348">
<ele>447.0</ele>
<speed>71.7</speed>
<course>139.8</course>
<desc>Speed 71.7 km/h Distance 63.15 km</desc>
<time>2010-07-31T14:47:57.24</time>
<name>2020</name>
</trkpt>
<trkpt lat="48.888927" lon="11.165528">
<ele>447.5</ele>
<speed>69.5</speed>
<course>139.0</course>
<desc>Speed 69.5 km/h Distance 63.17 km</desc>
<time>2010-07-31T14:47:58.25</time>
<name>2021</name>
</trkpt>
<trkpt lat="48.888792" lon="11.165707">
<ele>447.5</ele>
<speed>70.0</speed>
<course>138.4</course>
<desc>Speed 70.0 km/h Distance 63.19 km</desc>
<time>2010-07-31T14:47:59.24</time>
<name>2022</name>
</trkpt>
<trkpt lat="48.888658" lon="11.165887">
<ele>447.5</ele>
<speed>70.3</speed>
<course>138.6</course>
<desc>Speed 70.3 km/h Distance 63.21 km</desc>
<time>2010-07-31T14:48:00.24</time>
<name>2023</name>
</trkpt>
<trkpt lat="48.888527" lon="11.166063">
<ele>447.5</ele>
<speed>69.4</speed>
<course>141.4</course>
<desc>Speed 69.4 km/h Distance 63.23 km</desc>
<time>2010-07-31T14:48:01.24</time>
<name>2024</name>
</trkpt>
<trkpt lat="48.888378" lon="11.166243">
<ele>448.0</ele>
<speed>71.5</speed>
<course>143.2</course>
<desc>Speed 71.5 km/h Distance 63.25 km</desc>
<time>2010-07-31T14:48:02.24</time>
<name>2025</name>
</trkpt>
<trkpt lat="48.888078" lon="11.166585">
<ele>448.0</ele>
<speed>71.5</speed>
<course>148.9</course>
<desc>Speed 71.5 km/h Distance 63.29 km</desc>
<time>2010-07-31T14:48:05.24</time>
<name>2026</name>
</trkpt>
<trkpt lat="48.887915" lon="11.166735">
<ele>448.0</ele>
<speed>75.2</speed>
<course>150.1</course>
<desc>Speed 75.2 km/h Distance 63.31 km</desc>
<time>2010-07-31T14:48:06.25</time>
<name>2027</name>
</trkpt>
<trkpt lat="48.887753" lon="11.166877">
<ele>448.5</ele>
<speed>75.2</speed>
<course>147.0</course>
<desc>Speed 75.2 km/h Distance 63.33 km</desc>
<time>2010-07-31T14:48:07.24</time>
<name>2028</name>
</trkpt>
<trkpt lat="48.887343" lon="11.167282">
<ele>449.0</ele>
<speed>75.2</speed>
<course>133.5</course>
<desc>Speed 75.2 km/h Distance 63.39 km</desc>
<time>2010-07-31T14:48:12.23</time>
<name>2029</name>
</trkpt>
<trkpt lat="48.887010" lon="11.167815">
<ele>449.5</ele>
<speed>55.9</speed>
<course>125.1</course>
<desc>Speed 55.9 km/h Distance 63.44 km</desc>
<time>2010-07-31T14:48:16.23</time>
<name>2030</name>
</trkpt>
<trkpt lat="48.886890" lon="11.168075">
<ele>449.5</ele>
<speed>55.9</speed>
<course>133.7</course>
<desc>Speed 55.9 km/h Distance 63.46 km</desc>
<time>2010-07-31T14:48:18.24</time>
<name>2031</name>
</trkpt>
<trkpt lat="48.886687" lon="11.168398">
<ele>449.5</ele>
<speed>48.6</speed>
<course>156.1</course>
<desc>Speed 48.6 km/h Distance 63.50 km</desc>
<time>2010-07-31T14:48:20.23</time>
<name>2032</name>
</trkpt>
<trkpt lat="48.885998" lon="11.168862">
<ele>448.0</ele>
<speed>65.2</speed>
<course>161.8</course>
<desc>Speed 65.2 km/h Distance 63.58 km</desc>
<time>2010-07-31T14:48:24.23</time>
<name>2033</name>
</trkpt>
<trkpt lat="48.885642" lon="11.169040">
<ele>447.5</ele>
<speed>63.8</speed>
<course>162.6</course>
<desc>Speed 63.8 km/h Distance 63.62 km</desc>
<time>2010-07-31T14:48:26.23</time>
<name>2034</name>
</trkpt>
<trkpt lat="48.885303" lon="11.169202">
<ele>447.5</ele>
<speed>67.8</speed>
<course>163.0</course>
<desc>Speed 67.8 km/h Distance 63.66 km</desc>
<time>2010-07-31T14:48:28.23</time>
<name>2035</name>
</trkpt>
<trkpt lat="48.885135" lon="11.169280">
<ele>447.5</ele>
<speed>67.8</speed>
<course>162.5</course>
<desc>Speed 67.8 km/h Distance 63.68 km</desc>
<time>2010-07-31T14:48:29.22</time>
<name>2036</name>
</trkpt>
<trkpt lat="48.884968" lon="11.169360">
<ele>447.0</ele>
<speed>67.4</speed>
<course>162.1</course>
<desc>Speed 67.4 km/h Distance 63.70 km</desc>
<time>2010-07-31T14:48:30.23</time>
<name>2037</name>
</trkpt>
<trkpt lat="48.884615" lon="11.169533">
<ele>447.0</ele>
<speed>68.3</speed>
<course>165.7</course>
<desc>Speed 68.3 km/h Distance 63.74 km</desc>
<time>2010-07-31T14:48:32.23</time>
<name>2038</name>
</trkpt>
<trkpt lat="48.884435" lon="11.169603">
<ele>447.0</ele>
<speed>69.7</speed>
<course>168.5</course>
<desc>Speed 69.7 km/h Distance 63.76 km</desc>
<time>2010-07-31T14:48:33.22</time>
<name>2039</name>
</trkpt>
<trkpt lat="48.884058" lon="11.169720">
<ele>447.0</ele>
<speed>74.3</speed>
<course>177.0</course>
<desc>Speed 74.3 km/h Distance 63.80 km</desc>
<time>2010-07-31T14:48:35.23</time>
<name>2040</name>
</trkpt>
<trkpt lat="48.883515" lon="11.169763">
<ele>446.5</ele>
<speed>74.3</speed>
<course>214.6</course>
<desc>Speed 74.3 km/h Distance 63.86 km</desc>
<time>2010-07-31T14:48:40.22</time>
<name>2041</name>
</trkpt>
<trkpt lat="48.883197" lon="11.169430">
<ele>446.0</ele>
<speed>67.7</speed>
<course>224.7</course>
<desc>Speed 67.7 km/h Distance 63.91 km</desc>
<time>2010-07-31T14:48:42.22</time>
<name>2042</name>
</trkpt>
<trkpt lat="48.883002" lon="11.169137">
<ele>445.5</ele>
<speed>67.7</speed>
<course>235.2</course>
<desc>Speed 67.7 km/h Distance 63.94 km</desc>
<time>2010-07-31T14:48:44.23</time>
<name>2043</name>
</trkpt>
<trkpt lat="48.882758" lon="11.168605">
<ele>445.0</ele>
<speed>75.0</speed>
<course>227.9</course>
<desc>Speed 75.0 km/h Distance 63.99 km</desc>
<time>2010-07-31T14:48:47.22</time>
<name>2044</name>
</trkpt>
<trkpt lat="48.882090" lon="11.167482">
<ele>447.0</ele>
<speed>80.0</speed>
<course>228.9</course>
<desc>Speed 80.0 km/h Distance 64.10 km</desc>
<time>2010-07-31T14:48:51.21</time>
<name>2045</name>
</trkpt>
<trkpt lat="48.881775" lon="11.166933">
<ele>447.5</ele>
<speed>80.0</speed>
<course>241.7</course>
<desc>Speed 80.0 km/h Distance 64.15 km</desc>
<time>2010-07-31T14:48:54.22</time>
<name>2046</name>
</trkpt>
<trkpt lat="48.881493" lon="11.166137">
<ele>447.0</ele>
<speed>78.8</speed>
<course>237.0</course>
<desc>Speed 78.8 km/h Distance 64.22 km</desc>
<time>2010-07-31T14:48:57.22</time>
<name>2047</name>
</trkpt>
<trkpt lat="48.881160" lon="11.165355">
<ele>448.5</ele>
<speed>75.7</speed>
<course>251.1</course>
<desc>Speed 75.7 km/h Distance 64.28 km</desc>
<time>2010-07-31T14:49:00.22</time>
<name>2048</name>
</trkpt>
<trkpt lat="48.881052" lon="11.164873">
<ele>448.0</ele>
<speed>80.5</speed>
<course>254.3</course>
<desc>Speed 80.5 km/h Distance 64.32 km</desc>
<time>2010-07-31T14:49:02.22</time>
<name>2049</name>
</trkpt>
<trkpt lat="48.880993" lon="11.164558">
<ele>448.0</ele>
<speed>73.6</speed>
<course>259.7</course>
<desc>Speed 73.6 km/h Distance 64.35 km</desc>
<time>2010-07-31T14:49:03.21</time>
<name>2050</name>
</trkpt>
<trkpt lat="48.880918" lon="11.163933">
<ele>447.0</ele>
<speed>74.6</speed>
<course>259.1</course>
<desc>Speed 74.6 km/h Distance 64.39 km</desc>
<time>2010-07-31T14:49:05.21</time>
<name>2051</name>
</trkpt>
<trkpt lat="48.880832" lon="11.163247">
<ele>446.5</ele>
<speed>74.6</speed>
<course>259.4</course>
<desc>Speed 74.6 km/h Distance 64.44 km</desc>
<time>2010-07-31T14:49:09.20</time>
<name>2052</name>
</trkpt>
<trkpt lat="48.880742" lon="11.162517">
<ele>443.5</ele>
<speed>74.6</speed>
<course>273.3</course>
<desc>Speed 74.6 km/h Distance 64.50 km</desc>
<time>2010-07-31T14:49:13.21</time>
<name>2053</name>
</trkpt>
<trkpt lat="48.880760" lon="11.162040">
<ele>443.0</ele>
<speed>74.8</speed>
<course>273.6</course>
<desc>Speed 74.8 km/h Distance 64.53 km</desc>
<time>2010-07-31T14:49:15.21</time>
<name>2054</name>
</trkpt>
<trkpt lat="48.880803" lon="11.160987">
<ele>443.0</ele>
<speed>83.6</speed>
<course>280.3</course>
<desc>Speed 83.6 km/h Distance 64.61 km</desc>
<time>2010-07-31T14:49:18.21</time>
<name>2055</name>
</trkpt>
<trkpt lat="48.880943" lon="11.159812">
<ele>442.5</ele>
<speed>76.0</speed>
<course>270.7</course>
<desc>Speed 76.0 km/h Distance 64.70 km</desc>
<time>2010-07-31T14:49:21.21</time>
<name>2056</name>
</trkpt>
<trkpt lat="48.880948" lon="11.159158">
<ele>442.5</ele>
<speed>76.4</speed>
<course>277.7</course>
<desc>Speed 76.4 km/h Distance 64.74 km</desc>
<time>2010-07-31T14:49:23.20</time>
<name>2057</name>
</trkpt>
<trkpt lat="48.881007" lon="11.158505">
<ele>442.5</ele>
<speed>88.4</speed>
<course>282.6</course>
<desc>Speed 88.4 km/h Distance 64.79 km</desc>
<time>2010-07-31T14:49:25.20</time>
<name>2058</name>
</trkpt>
<trkpt lat="48.881053" lon="11.158187">
<ele>442.5</ele>
<speed>88.4</speed>
<course>298.4</course>
<desc>Speed 88.4 km/h Distance 64.82 km</desc>
<time>2010-07-31T14:49:26.19</time>
<name>2059</name>
</trkpt>
<trkpt lat="48.881353" lon="11.157342">
<ele>442.5</ele>
<speed>88.4</speed>
<course>289.1</course>
<desc>Speed 88.4 km/h Distance 64.89 km</desc>
<time>2010-07-31T14:49:30.20</time>
<name>2060</name>
</trkpt>
<trkpt lat="48.881705" lon="11.155797">
<ele>442.5</ele>
<speed>90.6</speed>
<course>297.1</course>
<desc>Speed 90.6 km/h Distance 65.01 km</desc>
<time>2010-07-31T14:49:34.19</time>
<name>2061</name>
</trkpt>
<trkpt lat="48.881810" lon="11.155485">
<ele>442.5</ele>
<speed>90.6</speed>
<course>296.1</course>
<desc>Speed 90.6 km/h Distance 65.03 km</desc>
<time>2010-07-31T14:49:35.18</time>
<name>2062</name>
</trkpt>
<trkpt lat="48.882270" lon="11.154057">
<ele>442.5</ele>
<speed>102</speed>
<course>290.0</course>
<desc>Speed 102 km/h Distance 65.15 km</desc>
<time>2010-07-31T14:49:39.19</time>
<name>2063</name>
</trkpt>
<trkpt lat="48.882585" lon="11.152738">
<ele>442.0</ele>
<speed>102</speed>
<course>284.6</course>
<desc>Speed 102 km/h Distance 65.25 km</desc>
<time>2010-07-31T14:49:44.19</time>
<name>2064</name>
</trkpt>
<trkpt lat="48.883020" lon="11.150192">
<ele>442.0</ele>
<speed>123</speed>
<course>293.7</course>
<desc>Speed 123 km/h Distance 65.44 km</desc>
<time>2010-07-31T14:49:49.19</time>
<name>2065</name>
</trkpt>
<trkpt lat="48.883967" lon="11.146915">
<ele>442.0</ele>
<speed>115</speed>
<course>300.8</course>
<desc>Speed 115 km/h Distance 65.71 km</desc>
<time>2010-07-31T14:49:55.18</time>
<name>2066</name>
</trkpt>
<trkpt lat="48.884275" lon="11.146128">
<ele>442.0</ele>
<speed>113</speed>
<course>301.9</course>
<desc>Speed 113 km/h Distance 65.77 km</desc>
<time>2010-07-31T14:49:57.18</time>
<name>2067</name>
</trkpt>
<trkpt lat="48.884565" lon="11.145420">
<ele>442.0</ele>
<speed>111</speed>
<course>310.0</course>
<desc>Speed 111 km/h Distance 65.83 km</desc>
<time>2010-07-31T14:49:59.18</time>
<name>2068</name>
</trkpt>
<trkpt lat="48.884753" lon="11.145078">
<ele>441.5</ele>
<speed>113</speed>
<course>310.4</course>
<desc>Speed 113 km/h Distance 65.87 km</desc>
<time>2010-07-31T14:50:00.18</time>
<name>2069</name>
</trkpt>
<trkpt lat="48.884943" lon="11.144738">
<ele>441.5</ele>
<speed>114</speed>
<course>313.9</course>
<desc>Speed 114 km/h Distance 65.90 km</desc>
<time>2010-07-31T14:50:01.16</time>
<name>2070</name>
</trkpt>
<trkpt lat="48.885153" lon="11.144407">
<ele>441.5</ele>
<speed>115</speed>
<course>314.3</course>
<desc>Speed 115 km/h Distance 65.93 km</desc>
<time>2010-07-31T14:50:02.18</time>
<name>2071</name>
</trkpt>
<trkpt lat="48.885360" lon="11.144085">
<ele>441.5</ele>
<speed>116</speed>
<course>314.9</course>
<desc>Speed 116 km/h Distance 65.97 km</desc>
<time>2010-07-31T14:50:03.18</time>
<name>2072</name>
</trkpt>
<trkpt lat="48.885568" lon="11.143767">
<ele>441.5</ele>
<speed>117</speed>
<course>315.9</course>
<desc>Speed 117 km/h Distance 66.00 km</desc>
<time>2010-07-31T14:50:04.18</time>
<name>2073</name>
</trkpt>
<trkpt lat="48.885775" lon="11.143462">
<ele>441.5</ele>
<speed>115</speed>
<course>312.9</course>
<desc>Speed 115 km/h Distance 66.03 km</desc>
<time>2010-07-31T14:50:05.18</time>
<name>2074</name>
</trkpt>
<trkpt lat="48.885973" lon="11.143137">
<ele>441.5</ele>
<speed>115</speed>
<course>318.8</course>
<desc>Speed 115 km/h Distance 66.06 km</desc>
<time>2010-07-31T14:50:06.18</time>
<name>2075</name>
</trkpt>
<trkpt lat="48.886183" lon="11.142857">
<ele>441.5</ele>
<speed>113</speed>
<course>317.5</course>
<desc>Speed 113 km/h Distance 66.09 km</desc>
<time>2010-07-31T14:50:07.18</time>
<name>2076</name>
</trkpt>
<trkpt lat="48.886555" lon="11.142338">
<ele>441.5</ele>
<speed>111</speed>
<course>312.8</course>
<desc>Speed 111 km/h Distance 66.15 km</desc>
<time>2010-07-31T14:50:09.18</time>
<name>2077</name>
</trkpt>
<trkpt lat="48.886747" lon="11.142023">
<ele>441.5</ele>
<speed>107</speed>
<course>303.3</course>
<desc>Speed 107 km/h Distance 66.18 km</desc>
<time>2010-07-31T14:50:10.17</time>
<name>2078</name>
</trkpt>
<trkpt lat="48.887448" lon="11.140400">
<ele>441.5</ele>
<speed>107</speed>
<course>286.2</course>
<desc>Speed 107 km/h Distance 66.32 km</desc>
<time>2010-07-31T14:50:17.17</time>
<name>2079</name>
</trkpt>
<trkpt lat="48.887643" lon="11.139382">
<ele>441.0</ele>
<speed>107</speed>
<course>281.6</course>
<desc>Speed 107 km/h Distance 66.40 km</desc>
<time>2010-07-31T14:50:22.17</time>
<name>2080</name>
</trkpt>
<trkpt lat="48.887973" lon="11.136930">
<ele>441.0</ele>
<speed>66.3</speed>
<course>298.5</course>
<desc>Speed 66.3 km/h Distance 66.59 km</desc>
<time>2010-07-31T14:50:27.18</time>
<name>2081</name>
</trkpt>
<trkpt lat="48.888567" lon="11.135268">
<ele>441.0</ele>
<speed>77.3</speed>
<course>304.2</course>
<desc>Speed 77.3 km/h Distance 66.72 km</desc>
<time>2010-07-31T14:50:32.16</time>
<name>2082</name>
</trkpt>
<trkpt lat="48.888865" lon="11.134602">
<ele>441.0</ele>
<speed>77.3</speed>
<course>299.4</course>
<desc>Speed 77.3 km/h Distance 66.78 km</desc>
<time>2010-07-31T14:50:36.16</time>
<name>2083</name>
</trkpt>
<trkpt lat="48.889172" lon="11.133775">
<ele>441.0</ele>
<speed>77.3</speed>
<course>315.7</course>
<desc>Speed 77.3 km/h Distance 66.85 km</desc>
<time>2010-07-31T14:50:41.16</time>
<name>2084</name>
</trkpt>
<trkpt lat="48.889313" lon="11.133565">
<ele>440.5</ele>
<speed>77.3</speed>
<course>308.8</course>
<desc>Speed 77.3 km/h Distance 66.87 km</desc>
<time>2010-07-31T14:50:42.15</time>
<name>2085</name>
</trkpt>
<trkpt lat="48.890083" lon="11.132110">
<ele>440.5</ele>
<speed>77.3</speed>
<course>308.7</course>
<desc>Speed 77.3 km/h Distance 67.01 km</desc>
<time>2010-07-31T14:50:47.15</time>
<name>2086</name>
</trkpt>
<trkpt lat="48.891263" lon="11.129873">
<ele>440.0</ele>
<speed>77.3</speed>
<course>303.5</course>
<desc>Speed 77.3 km/h Distance 67.22 km</desc>
<time>2010-07-31T14:50:51.16</time>
<name>2087</name>
</trkpt>
<trkpt lat="48.891685" lon="11.128905">
<ele>440.5</ele>
<speed>77.3</speed>
<course>285.8</course>
<desc>Speed 77.3 km/h Distance 67.31 km</desc>
<time>2010-07-31T14:50:55.15</time>
<name>2088</name>
</trkpt>
<trkpt lat="48.892238" lon="11.125938">
<ele>441.0</ele>
<speed>77.3</speed>
<course>306.9</course>
<desc>Speed 77.3 km/h Distance 67.53 km</desc>
<time>2010-07-31T14:50:59.15</time>
<name>2089</name>
</trkpt>
<trkpt lat="48.892475" lon="11.125458">
<ele>440.5</ele>
<speed>77.3</speed>
<course>289.4</course>
<desc>Speed 77.3 km/h Distance 67.58 km</desc>
<time>2010-07-31T14:51:05.14</time>
<name>2090</name>
</trkpt>
<trkpt lat="48.893073" lon="11.122875">
<ele>440.5</ele>
<speed>77.3</speed>
<course>279.0</course>
<desc>Speed 77.3 km/h Distance 67.78 km</desc>
<time>2010-07-31T14:51:12.20</time>
<name>2091</name>
</trkpt>
<trkpt lat="48.893182" lon="11.121833">
<ele>440.5</ele>
<speed>77.3</speed>
<course>286.6</course>
<desc>Speed 77.3 km/h Distance 67.85 km</desc>
<time>2010-07-31T14:51:14.13</time>
<name>2092</name>
</trkpt>
<trkpt lat="48.893543" lon="11.119990">
<ele>440.5</ele>
<speed>77.3</speed>
<course>260.1</course>
<desc>Speed 77.3 km/h Distance 67.99 km</desc>
<time>2010-07-31T14:51:16.13</time>
<name>2093</name>
</trkpt>
<trkpt lat="48.893423" lon="11.118940">
<ele>440.5</ele>
<speed>77.3</speed>
<course>234.9</course>
<desc>Speed 77.3 km/h Distance 68.07 km</desc>
<time>2010-07-31T14:51:18.13</time>
<name>2094</name>
</trkpt>
<trkpt lat="48.892832" lon="11.117660">
<ele>440.0</ele>
<speed>77.3</speed>
<course>277.0</course>
<desc>Speed 77.3 km/h Distance 68.19 km</desc>
<time>2010-07-31T14:51:22.13</time>
<name>2095</name>
</trkpt>
<trkpt lat="48.893118" lon="11.114105">
<ele>440.5</ele>
<speed>77.3</speed>
<course>248.7</course>
<desc>Speed 77.3 km/h Distance 68.45 km</desc>
<time>2010-07-31T14:51:27.15</time>
<name>2096</name>
</trkpt>
<trkpt lat="48.892970" lon="11.113525">
<ele>440.5</ele>
<speed>77.3</speed>
<course>235.3</course>
<desc>Speed 77.3 km/h Distance 68.49 km</desc>
<time>2010-07-31T14:51:29.13</time>
<name>2097</name>
</trkpt>
<trkpt lat="48.892697" lon="11.112925">
<ele>441.0</ele>
<speed>77.3</speed>
<course>258.3</course>
<desc>Speed 77.3 km/h Distance 68.55 km</desc>
<time>2010-07-31T14:51:35.12</time>
<name>2098</name>
</trkpt>
<trkpt lat="48.892140" lon="11.108833">
<ele>442.5</ele>
<speed>117</speed>
<course>225.5</course>
<desc>Speed 117 km/h Distance 68.85 km</desc>
<time>2010-07-31T14:51:39.12</time>
<name>2099</name>
</trkpt>
<trkpt lat="48.890012" lon="11.105538">
<ele>442.0</ele>
<speed>144</speed>
<course>210.7</course>
<desc>Speed 144 km/h Distance 69.19 km</desc>
<time>2010-07-31T14:51:45.12</time>
<name>2100</name>
</trkpt>
<trkpt lat="48.889717" lon="11.105272">
<ele>442.5</ele>
<speed>144</speed>
<course>204.3</course>
<desc>Speed 144 km/h Distance 69.23 km</desc>
<time>2010-07-31T14:51:46.11</time>
<name>2101</name>
</trkpt>
<trkpt lat="48.888625" lon="11.104522">
<ele>443.5</ele>
<speed>117</speed>
<course>189.7</course>
<desc>Speed 117 km/h Distance 69.36 km</desc>
<time>2010-07-31T14:51:50.12</time>
<name>2102</name>
</trkpt>
<trkpt lat="48.887775" lon="11.104302">
<ele>443.5</ele>
<speed>127</speed>
<course>185.9</course>
<desc>Speed 127 km/h Distance 69.46 km</desc>
<time>2010-07-31T14:51:53.11</time>
<name>2103</name>
</trkpt>
<trkpt lat="48.887168" lon="11.104207">
<ele>443.0</ele>
<speed>130</speed>
<course>190.2</course>
<desc>Speed 130 km/h Distance 69.53 km</desc>
<time>2010-07-31T14:51:55.11</time>
<name>2104</name>
</trkpt>
<trkpt lat="48.884032" lon="11.103345">
<ele>442.0</ele>
<speed>121</speed>
<course>188.9</course>
<desc>Speed 121 km/h Distance 69.88 km</desc>
<time>2010-07-31T14:52:05.11</time>
<name>2105</name>
</trkpt>
<trkpt lat="48.883105" lon="11.103125">
<ele>438.5</ele>
<speed>121</speed>
<course>202.5</course>
<desc>Speed 121 km/h Distance 69.99 km</desc>
<time>2010-07-31T14:52:08.11</time>
<name>2106</name>
</trkpt>
<trkpt lat="48.882838" lon="11.102957">
<ele>440.0</ele>
<speed>121</speed>
<course>186.7</course>
<desc>Speed 121 km/h Distance 70.02 km</desc>
<time>2010-07-31T14:52:09.10</time>
<name>2107</name>
</trkpt>
<trkpt lat="48.880313" lon="11.102505">
<ele>448.5</ele>
<speed>154</speed>
<course>185.0</course>
<desc>Speed 154 km/h Distance 70.30 km</desc>
<time>2010-07-31T14:52:15.10</time>
<name>2108</name>
</trkpt>
<trkpt lat="48.879488" lon="11.102395">
<ele>449.5</ele>
<speed>148</speed>
<course>184.0</course>
<desc>Speed 148 km/h Distance 70.39 km</desc>
<time>2010-07-31T14:52:17.10</time>
<name>2109</name>
</trkpt>
<trkpt lat="48.878247" lon="11.102263">
<ele>449.0</ele>
<speed>152</speed>
<course>186.2</course>
<desc>Speed 152 km/h Distance 70.53 km</desc>
<time>2010-07-31T14:52:20.09</time>
<name>2110</name>
</trkpt>
<trkpt lat="48.877435" lon="11.102130">
<ele>449.5</ele>
<speed>145</speed>
<course>184.8</course>
<desc>Speed 145 km/h Distance 70.62 km</desc>
<time>2010-07-31T14:52:22.09</time>
<name>2111</name>
</trkpt>
<trkpt lat="48.875888" lon="11.101933">
<ele>449.0</ele>
<speed>94.2</speed>
<course>174.8</course>
<desc>Speed 94.2 km/h Distance 70.80 km</desc>
<time>2010-07-31T14:52:27.11</time>
<name>2112</name>
</trkpt>
<trkpt lat="48.875648" lon="11.101967">
<ele>449.0</ele>
<speed>94.8</speed>
<course>176.2</course>
<desc>Speed 94.8 km/h Distance 70.82 km</desc>
<time>2010-07-31T14:52:28.10</time>
<name>2113</name>
</trkpt>
<trkpt lat="48.875415" lon="11.101990">
<ele>449.5</ele>
<speed>91.1</speed>
<course>164.6</course>
<desc>Speed 91.1 km/h Distance 70.85 km</desc>
<time>2010-07-31T14:52:29.10</time>
<name>2114</name>
</trkpt>
<trkpt lat="48.874708" lon="11.102287">
<ele>449.0</ele>
<speed>68.1</speed>
<course>158.8</course>
<desc>Speed 68.1 km/h Distance 70.93 km</desc>
<time>2010-07-31T14:52:33.09</time>
<name>2115</name>
</trkpt>
<trkpt lat="48.874550" lon="11.102380">
<ele>449.0</ele>
<speed>65.6</speed>
<course>159.0</course>
<desc>Speed 65.6 km/h Distance 70.95 km</desc>
<time>2010-07-31T14:52:34.09</time>
<name>2116</name>
</trkpt>
<trkpt lat="48.874398" lon="11.102468">
<ele>449.0</ele>
<speed>64.4</speed>
<course>157.7</course>
<desc>Speed 64.4 km/h Distance 70.97 km</desc>
<time>2010-07-31T14:52:35.09</time>
<name>2117</name>
</trkpt>
<trkpt lat="48.874252" lon="11.102560">
<ele>448.5</ele>
<speed>62.4</speed>
<course>155.4</course>
<desc>Speed 62.4 km/h Distance 70.98 km</desc>
<time>2010-07-31T14:52:36.09</time>
<name>2118</name>
</trkpt>
<trkpt lat="48.874108" lon="11.102660">
<ele>448.5</ele>
<speed>61.6</speed>
<course>151.0</course>
<desc>Speed 61.6 km/h Distance 71.00 km</desc>
<time>2010-07-31T14:52:37.08</time>
<name>2119</name>
</trkpt>
<trkpt lat="48.873970" lon="11.102777">
<ele>448.5</ele>
<speed>61.4</speed>
<course>149.7</course>
<desc>Speed 61.4 km/h Distance 71.02 km</desc>
<time>2010-07-31T14:52:38.09</time>
<name>2120</name>
</trkpt>
<trkpt lat="48.873835" lon="11.102897">
<ele>448.5</ele>
<speed>62.1</speed>
<course>148.0</course>
<desc>Speed 62.1 km/h Distance 71.04 km</desc>
<time>2010-07-31T14:52:39.09</time>
<name>2121</name>
</trkpt>
<trkpt lat="48.873698" lon="11.103027">
<ele>448.0</ele>
<speed>60.7</speed>
<course>145.5</course>
<desc>Speed 60.7 km/h Distance 71.06 km</desc>
<time>2010-07-31T14:52:40.09</time>
<name>2122</name>
</trkpt>
<trkpt lat="48.873378" lon="11.103362">
<ele>447.0</ele>
<speed>60.7</speed>
<course>140.7</course>
<desc>Speed 60.7 km/h Distance 71.10 km</desc>
<time>2010-07-31T14:52:43.09</time>
<name>2123</name>
</trkpt>
<trkpt lat="48.873257" lon="11.103513">
<ele>447.0</ele>
<speed>62.0</speed>
<course>135.8</course>
<desc>Speed 62.0 km/h Distance 71.12 km</desc>
<time>2010-07-31T14:52:44.09</time>
<name>2124</name>
</trkpt>
<trkpt lat="48.873145" lon="11.103678">
<ele>447.0</ele>
<speed>61.1</speed>
<course>135.7</course>
<desc>Speed 61.1 km/h Distance 71.13 km</desc>
<time>2010-07-31T14:52:45.09</time>
<name>2125</name>
</trkpt>
<trkpt lat="48.873028" lon="11.103852">
<ele>446.5</ele>
<speed>62.2</speed>
<course>133.6</course>
<desc>Speed 62.2 km/h Distance 71.15 km</desc>
<time>2010-07-31T14:52:46.09</time>
<name>2126</name>
</trkpt>
<trkpt lat="48.872917" lon="11.104030">
<ele>446.5</ele>
<speed>61.1</speed>
<course>117.1</course>
<desc>Speed 61.1 km/h Distance 71.17 km</desc>
<time>2010-07-31T14:52:47.09</time>
<name>2127</name>
</trkpt>
<trkpt lat="48.872847" lon="11.104238">
<ele>446.5</ele>
<speed>59.3</speed>
<course>133.5</course>
<desc>Speed 59.3 km/h Distance 71.19 km</desc>
<time>2010-07-31T14:52:48.08</time>
<name>2128</name>
</trkpt>
<trkpt lat="48.872742" lon="11.104407">
<ele>446.0</ele>
<speed>61.9</speed>
<course>133.2</course>
<desc>Speed 61.9 km/h Distance 71.20 km</desc>
<time>2010-07-31T14:52:49.08</time>
<name>2129</name>
</trkpt>
<trkpt lat="48.872637" lon="11.104577">
<ele>446.0</ele>
<speed>61.3</speed>
<course>128.9</course>
<desc>Speed 61.3 km/h Distance 71.22 km</desc>
<time>2010-07-31T14:52:50.08</time>
<name>2130</name>
</trkpt>
<trkpt lat="48.872548" lon="11.104743">
<ele>446.0</ele>
<speed>56.7</speed>
<course>130.0</course>
<desc>Speed 56.7 km/h Distance 71.24 km</desc>
<time>2010-07-31T14:52:51.09</time>
<name>2131</name>
</trkpt>
<trkpt lat="48.872365" lon="11.105075">
<ele>445.5</ele>
<speed>56.7</speed>
<course>161.7</course>
<desc>Speed 56.7 km/h Distance 71.27 km</desc>
<time>2010-07-31T14:52:54.08</time>
<name>2132</name>
</trkpt>
<trkpt lat="48.871972" lon="11.105273">
<ele>446.0</ele>
<speed>71.9</speed>
<course>173.9</course>
<desc>Speed 71.9 km/h Distance 71.31 km</desc>
<time>2010-07-31T14:52:57.08</time>
<name>2133</name>
</trkpt>
<trkpt lat="48.871787" lon="11.105303">
<ele>446.0</ele>
<speed>67.6</speed>
<course>185.5</course>
<desc>Speed 67.6 km/h Distance 71.34 km</desc>
<time>2010-07-31T14:52:58.08</time>
<name>2134</name>
</trkpt>
<trkpt lat="48.870838" lon="11.105163">
<ele>445.5</ele>
<speed>83.5</speed>
<course>190.5</course>
<desc>Speed 83.5 km/h Distance 71.44 km</desc>
<time>2010-07-31T14:53:02.08</time>
<name>2135</name>
</trkpt>
<trkpt lat="48.870232" lon="11.104992">
<ele>446.0</ele>
<speed>83.5</speed>
<course>199.3</course>
<desc>Speed 83.5 km/h Distance 71.51 km</desc>
<time>2010-07-31T14:53:06.08</time>
<name>2136</name>
</trkpt>
<trkpt lat="48.870043" lon="11.104892">
<ele>446.5</ele>
<speed>83.5</speed>
<course>197.9</course>
<desc>Speed 83.5 km/h Distance 71.53 km</desc>
<time>2010-07-31T14:53:07.08</time>
<name>2137</name>
</trkpt>
<trkpt lat="48.868077" lon="11.103928">
<ele>439.0</ele>
<speed>111</speed>
<course>201.5</course>
<desc>Speed 111 km/h Distance 71.76 km</desc>
<time>2010-07-31T14:53:13.07</time>
<name>2138</name>
</trkpt>
<trkpt lat="48.867492" lon="11.103578">
<ele>436.5</ele>
<speed>120</speed>
<course>201.6</course>
<desc>Speed 120 km/h Distance 71.83 km</desc>
<time>2010-07-31T14:53:15.07</time>
<name>2139</name>
</trkpt>
<trkpt lat="48.866895" lon="11.103220">
<ele>436.5</ele>
<speed>109</speed>
<course>202.3</course>
<desc>Speed 109 km/h Distance 71.90 km</desc>
<time>2010-07-31T14:53:17.07</time>
<name>2140</name>
</trkpt>
<trkpt lat="48.866367" lon="11.102890">
<ele>437.5</ele>
<speed>98.6</speed>
<course>208.3</course>
<desc>Speed 98.6 km/h Distance 71.97 km</desc>
<time>2010-07-31T14:53:19.06</time>
<name>2141</name>
</trkpt>
<trkpt lat="48.866155" lon="11.102717">
<ele>437.5</ele>
<speed>92.0</speed>
<course>212.9</course>
<desc>Speed 92.0 km/h Distance 71.99 km</desc>
<time>2010-07-31T14:53:20.06</time>
<name>2142</name>
</trkpt>
<trkpt lat="48.865968" lon="11.102533">
<ele>436.0</ele>
<speed>87.7</speed>
<course>218.8</course>
<desc>Speed 87.7 km/h Distance 72.02 km</desc>
<time>2010-07-31T14:53:21.07</time>
<name>2143</name>
</trkpt>
<trkpt lat="48.865795" lon="11.102322">
<ele>436.5</ele>
<speed>87.7</speed>
<course>225.0</course>
<desc>Speed 87.7 km/h Distance 72.04 km</desc>
<time>2010-07-31T14:53:22.06</time>
<name>2144</name>
</trkpt>
<trkpt lat="48.865645" lon="11.102093">
<ele>436.5</ele>
<speed>84.1</speed>
<course>228.9</course>
<desc>Speed 84.1 km/h Distance 72.07 km</desc>
<time>2010-07-31T14:53:23.07</time>
<name>2145</name>
</trkpt>
<trkpt lat="48.865245" lon="11.101397">
<ele>436.0</ele>
<speed>84.1</speed>
<course>249.3</course>
<desc>Speed 84.1 km/h Distance 72.13 km</desc>
<time>2010-07-31T14:53:28.07</time>
<name>2146</name>
</trkpt>
<trkpt lat="48.864632" lon="11.098927">
<ele>435.5</ele>
<speed>111</speed>
<course>262.0</course>
<desc>Speed 111 km/h Distance 72.33 km</desc>
<time>2010-07-31T14:53:36.06</time>
<name>2147</name>
</trkpt>
<trkpt lat="48.864325" lon="11.095590">
<ele>432.5</ele>
<speed>113</speed>
<course>265.6</course>
<desc>Speed 113 km/h Distance 72.57 km</desc>
<time>2010-07-31T14:53:42.06</time>
<name>2148</name>
</trkpt>
<trkpt lat="48.864278" lon="11.094667">
<ele>432.5</ele>
<speed>105</speed>
<course>277.0</course>
<desc>Speed 105 km/h Distance 72.64 km</desc>
<time>2010-07-31T14:53:44.06</time>
<name>2149</name>
</trkpt>
<trkpt lat="48.864388" lon="11.093298">
<ele>432.5</ele>
<speed>84.9</speed>
<course>291.3</course>
<desc>Speed 84.9 km/h Distance 72.74 km</desc>
<time>2010-07-31T14:53:48.05</time>
<name>2150</name>
</trkpt>
<trkpt lat="48.864535" lon="11.092727">
<ele>435.0</ele>
<speed>76.1</speed>
<course>291.4</course>
<desc>Speed 76.1 km/h Distance 72.79 km</desc>
<time>2010-07-31T14:53:50.06</time>
<name>2151</name>
</trkpt>
<trkpt lat="48.864782" lon="11.091772">
<ele>436.5</ele>
<speed>82.3</speed>
<course>291.7</course>
<desc>Speed 82.3 km/h Distance 72.86 km</desc>
<time>2010-07-31T14:53:53.05</time>
<name>2152</name>
</trkpt>
<trkpt lat="48.864858" lon="11.091478">
<ele>436.5</ele>
<speed>82.5</speed>
<course>288.9</course>
<desc>Speed 82.5 km/h Distance 72.89 km</desc>
<time>2010-07-31T14:53:54.05</time>
<name>2153</name>
</trkpt>
<trkpt lat="48.864928" lon="11.091167">
<ele>436.5</ele>
<speed>85.0</speed>
<course>294.6</course>
<desc>Speed 85.0 km/h Distance 72.91 km</desc>
<time>2010-07-31T14:53:55.05</time>
<name>2154</name>
</trkpt>
<trkpt lat="48.865012" lon="11.090890">
<ele>437.0</ele>
<speed>79.5</speed>
<course>303.0</course>
<desc>Speed 79.5 km/h Distance 72.93 km</desc>
<time>2010-07-31T14:53:56.05</time>
<name>2155</name>
</trkpt>
<trkpt lat="48.865118" lon="11.090640">
<ele>437.0</ele>
<speed>77.6</speed>
<course>306.3</course>
<desc>Speed 77.6 km/h Distance 72.95 km</desc>
<time>2010-07-31T14:53:57.04</time>
<name>2156</name>
</trkpt>
<trkpt lat="48.865242" lon="11.090385">
<ele>437.0</ele>
<speed>83.6</speed>
<course>310.5</course>
<desc>Speed 83.6 km/h Distance 72.98 km</desc>
<time>2010-07-31T14:53:58.04</time>
<name>2157</name>
</trkpt>
<trkpt lat="48.865387" lon="11.090127">
<ele>437.0</ele>
<speed>89.1</speed>
<course>311.7</course>
<desc>Speed 89.1 km/h Distance 73.00 km</desc>
<time>2010-07-31T14:53:59.05</time>
<name>2158</name>
</trkpt>
<trkpt lat="48.865545" lon="11.089857">
<ele>437.0</ele>
<speed>95.5</speed>
<course>312.1</course>
<desc>Speed 95.5 km/h Distance 73.03 km</desc>
<time>2010-07-31T14:54:00.05</time>
<name>2159</name>
</trkpt>
<trkpt lat="48.865713" lon="11.089573">
<ele>437.0</ele>
<speed>101</speed>
<course>316.3</course>
<desc>Speed 101 km/h Distance 73.06 km</desc>
<time>2010-07-31T14:54:01.05</time>
<name>2160</name>
</trkpt>
<trkpt lat="48.865908" lon="11.089290">
<ele>437.0</ele>
<speed>108</speed>
<course>316.5</course>
<desc>Speed 108 km/h Distance 73.09 km</desc>
<time>2010-07-31T14:54:02.05</time>
<name>2161</name>
</trkpt>
<trkpt lat="48.866112" lon="11.088997">
<ele>437.0</ele>
<speed>112</speed>
<course>303.3</course>
<desc>Speed 112 km/h Distance 73.12 km</desc>
<time>2010-07-31T14:54:03.05</time>
<name>2162</name>
</trkpt>
<trkpt lat="48.866627" lon="11.087807">
<ele>442.5</ele>
<speed>112</speed>
<course>320.8</course>
<desc>Speed 112 km/h Distance 73.22 km</desc>
<time>2010-07-31T14:54:09.04</time>
<name>2163</name>
</trkpt>
<trkpt lat="48.867382" lon="11.086872">
<ele>449.0</ele>
<speed>115</speed>
<course>326.0</course>
<desc>Speed 115 km/h Distance 73.33 km</desc>
<time>2010-07-31T14:54:12.04</time>
<name>2164</name>
</trkpt>
<trkpt lat="48.867823" lon="11.086418">
<ele>449.0</ele>
<speed>115</speed>
<course>325.9</course>
<desc>Speed 115 km/h Distance 73.39 km</desc>
<time>2010-07-31T14:54:14.04</time>
<name>2165</name>
</trkpt>
<trkpt lat="48.869330" lon="11.084865">
<ele>441.5</ele>
<speed>117</speed>
<course>311.9</course>
<desc>Speed 117 km/h Distance 73.59 km</desc>
<time>2010-07-31T14:54:19.04</time>
<name>2166</name>
</trkpt>
<trkpt lat="48.870013" lon="11.083708">
<ele>441.5</ele>
<speed>110</speed>
<course>310.8</course>
<desc>Speed 110 km/h Distance 73.71 km</desc>
<time>2010-07-31T14:54:22.03</time>
<name>2167</name>
</trkpt>
<trkpt lat="48.870748" lon="11.082412">
<ele>441.0</ele>
<speed>70.0</speed>
<course>298.0</course>
<desc>Speed 70.0 km/h Distance 73.83 km</desc>
<time>2010-07-31T14:54:27.05</time>
<name>2168</name>
</trkpt>
<trkpt lat="48.870943" lon="11.081853">
<ele>439.5</ele>
<speed>81.9</speed>
<course>304.7</course>
<desc>Speed 81.9 km/h Distance 73.88 km</desc>
<time>2010-07-31T14:54:29.04</time>
<name>2169</name>
</trkpt>
<trkpt lat="48.871172" lon="11.081352">
<ele>439.0</ele>
<speed>73.2</speed>
<course>297.6</course>
<desc>Speed 73.2 km/h Distance 73.92 km</desc>
<time>2010-07-31T14:54:31.03</time>
<name>2170</name>
</trkpt>
<trkpt lat="48.871337" lon="11.080872">
<ele>439.0</ele>
<speed>66.5</speed>
<course>295.9</course>
<desc>Speed 66.5 km/h Distance 73.96 km</desc>
<time>2010-07-31T14:54:33.04</time>
<name>2171</name>
</trkpt>
<trkpt lat="48.871485" lon="11.080407">
<ele>439.5</ele>
<speed>65.7</speed>
<course>294.4</course>
<desc>Speed 65.7 km/h Distance 74.00 km</desc>
<time>2010-07-31T14:54:35.03</time>
<name>2172</name>
</trkpt>
<trkpt lat="48.871625" lon="11.079937">
<ele>439.5</ele>
<speed>65.5</speed>
<course>284.2</course>
<desc>Speed 65.5 km/h Distance 74.04 km</desc>
<time>2010-07-31T14:54:37.03</time>
<name>2173</name>
</trkpt>
<trkpt lat="48.871707" lon="11.079445">
<ele>439.5</ele>
<speed>65.8</speed>
<course>282.3</course>
<desc>Speed 65.8 km/h Distance 74.08 km</desc>
<time>2010-07-31T14:54:39.03</time>
<name>2174</name>
</trkpt>
<trkpt lat="48.871778" lon="11.078947">
<ele>439.5</ele>
<speed>65.8</speed>
<course>286.7</course>
<desc>Speed 65.8 km/h Distance 74.11 km</desc>
<time>2010-07-31T14:54:42.03</time>
<name>2175</name>
</trkpt>
<trkpt lat="48.871900" lon="11.078332">
<ele>440.5</ele>
<speed>59.8</speed>
<course>290.9</course>
<desc>Speed 59.8 km/h Distance 74.16 km</desc>
<time>2010-07-31T14:54:45.03</time>
<name>2176</name>
</trkpt>
<trkpt lat="48.871987" lon="11.077987">
<ele>441.0</ele>
<speed>59.8</speed>
<course>293.6</course>
<desc>Speed 59.8 km/h Distance 74.19 km</desc>
<time>2010-07-31T14:54:47.03</time>
<name>2177</name>
</trkpt>
<trkpt lat="48.872105" lon="11.077575">
<ele>441.5</ele>
<speed>59.8</speed>
<course>284.6</course>
<desc>Speed 59.8 km/h Distance 74.22 km</desc>
<time>2010-07-31T14:54:49.03</time>
<name>2178</name>
</trkpt>
<trkpt lat="48.872183" lon="11.077118">
<ele>441.5</ele>
<speed>59.8</speed>
<course>280.6</course>
<desc>Speed 59.8 km/h Distance 74.25 km</desc>
<time>2010-07-31T14:54:51.03</time>
<name>2179</name>
</trkpt>
<trkpt lat="48.872228" lon="11.076753">
<ele>442.0</ele>
<speed>59.8</speed>
<course>275.1</course>
<desc>Speed 59.8 km/h Distance 74.28 km</desc>
<time>2010-07-31T14:54:53.03</time>
<name>2180</name>
</trkpt>
<trkpt lat="48.872305" lon="11.075438">
<ele>445.0</ele>
<speed>56.3</speed>
<course>277.9</course>
<desc>Speed 56.3 km/h Distance 74.38 km</desc>
<time>2010-07-31T14:54:57.03</time>
<name>2181</name>
</trkpt>
<trkpt lat="48.872345" lon="11.075000">
<ele>443.0</ele>
<speed>52.9</speed>
<course>299.7</course>
<desc>Speed 52.9 km/h Distance 74.41 km</desc>
<time>2010-07-31T14:54:59.02</time>
<name>2182</name>
</trkpt>
<trkpt lat="48.872470" lon="11.074667">
<ele>442.5</ele>
<speed>46.3</speed>
<course>326.5</course>
<desc>Speed 46.3 km/h Distance 74.44 km</desc>
<time>2010-07-31T14:55:01.02</time>
<name>2183</name>
</trkpt>
<trkpt lat="48.872692" lon="11.074443">
<ele>442.5</ele>
<speed>51.0</speed>
<course>318.7</course>
<desc>Speed 51.0 km/h Distance 74.47 km</desc>
<time>2010-07-31T14:55:03.03</time>
<name>2184</name>
</trkpt>
<trkpt lat="48.872877" lon="11.074197">
<ele>442.0</ele>
<speed>50.4</speed>
<course>315.7</course>
<desc>Speed 50.4 km/h Distance 74.50 km</desc>
<time>2010-07-31T14:55:05.01</time>
<name>2185</name>
</trkpt>
<trkpt lat="48.873042" lon="11.073952">
<ele>441.5</ele>
<speed>45.3</speed>
<course>310.1</course>
<desc>Speed 45.3 km/h Distance 74.52 km</desc>
<time>2010-07-31T14:55:07.02</time>
<name>2186</name>
</trkpt>
<trkpt lat="48.873198" lon="11.073668">
<ele>442.5</ele>
<speed>36.9</speed>
<course>333.1</course>
<desc>Speed 36.9 km/h Distance 74.55 km</desc>
<time>2010-07-31T14:55:09.02</time>
<name>2187</name>
</trkpt>
<trkpt lat="48.873403" lon="11.073510">
<ele>443.0</ele>
<speed>39.5</speed>
<course>323.3</course>
<desc>Speed 39.5 km/h Distance 74.57 km</desc>
<time>2010-07-31T14:55:11.02</time>
<name>2188</name>
</trkpt>
<trkpt lat="48.873555" lon="11.073338">
<ele>443.0</ele>
<speed>35.4</speed>
<course>281.7</course>
<desc>Speed 35.4 km/h Distance 74.60 km</desc>
<time>2010-07-31T14:55:13.02</time>
<name>2189</name>
</trkpt>
<trkpt lat="48.873595" lon="11.073045">
<ele>443.0</ele>
<speed>42.0</speed>
<course>280.0</course>
<desc>Speed 42.0 km/h Distance 74.62 km</desc>
<time>2010-07-31T14:55:15.02</time>
<name>2190</name>
</trkpt>
<trkpt lat="48.873633" lon="11.072715">
<ele>443.5</ele>
<speed>37.4</speed>
<course>287.3</course>
<desc>Speed 37.4 km/h Distance 74.64 km</desc>
<time>2010-07-31T14:55:17.01</time>
<name>2191</name>
</trkpt>
<trkpt lat="48.873690" lon="11.072438">
<ele>444.0</ele>
<speed>37.4</speed>
<course>272.9</course>
<desc>Speed 37.4 km/h Distance 74.66 km</desc>
<time>2010-07-31T14:55:19.02</time>
<name>2192</name>
</trkpt>
<trkpt lat="48.873697" lon="11.072238">
<ele>445.0</ele>
<speed>24.6</speed>
<course>250.5</course>
<desc>Speed 24.6 km/h Distance 74.68 km</desc>
<time>2010-07-31T14:55:21.01</time>
<name>2193</name>
</trkpt>
<trkpt lat="48.873663" lon="11.072095">
<ele>445.0</ele>
<speed>24.6</speed>
<course>215.4</course>
<desc>Speed 24.6 km/h Distance 74.69 km</desc>
<time>2010-07-31T14:55:23.01</time>
<name>2194</name>
</trkpt>
<trkpt lat="48.873622" lon="11.072050">
<ele>444.5</ele>
<speed>24.6</speed>
<course>207.2</course>
<desc>Speed 24.6 km/h Distance 74.69 km</desc>
<time>2010-07-31T14:55:25.01</time>
<name>2195</name>
</trkpt>
<trkpt lat="48.873392" lon="11.071870">
<ele>442.0</ele>
<speed>43.1</speed>
<course>223.3</course>
<desc>Speed 43.1 km/h Distance 74.72 km</desc>
<time>2010-07-31T14:55:28.02</time>
<name>2196</name>
</trkpt>
<trkpt lat="48.873272" lon="11.071698">
<ele>442.0</ele>
<speed>30.6</speed>
<course>259.5</course>
<desc>Speed 30.6 km/h Distance 74.74 km</desc>
<time>2010-07-31T14:55:30.00</time>
<name>2197</name>
</trkpt>
<trkpt lat="48.873243" lon="11.071465">
<ele>442.0</ele>
<speed>32.9</speed>
<course>294.3</course>
<desc>Speed 32.9 km/h Distance 74.76 km</desc>
<time>2010-07-31T14:55:32.01</time>
<name>2198</name>
</trkpt>
<trkpt lat="48.873288" lon="11.071313">
<ele>442.5</ele>
<speed>26.9</speed>
<course>283.5</course>
<desc>Speed 26.9 km/h Distance 74.77 km</desc>
<time>2010-07-31T14:55:34.01</time>
<name>2199</name>
</trkpt>
<trkpt lat="48.873308" lon="11.071187">
<ele>443.5</ele>
<speed>20.4</speed>
<course>245.3</course>
<desc>Speed 20.4 km/h Distance 74.78 km</desc>
<time>2010-07-31T14:55:36.00</time>
<name>2200</name>
</trkpt>
<trkpt lat="48.873255" lon="11.071010">
<ele>443.0</ele>
<speed>31.1</speed>
<course>220.9</course>
<desc>Speed 31.1 km/h Distance 74.80 km</desc>
<time>2010-07-31T14:55:38.00</time>
<name>2201</name>
</trkpt>
<trkpt lat="48.873118" lon="11.070830">
<ele>443.0</ele>
<speed>44.6</speed>
<course>205.7</course>
<desc>Speed 44.6 km/h Distance 74.82 km</desc>
<time>2010-07-31T14:55:40.00</time>
<name>2202</name>
</trkpt>
<trkpt lat="48.872865" lon="11.070645">
<ele>443.5</ele>
<speed>54.5</speed>
<course>200.6</course>
<desc>Speed 54.5 km/h Distance 74.85 km</desc>
<time>2010-07-31T14:55:42.01</time>
<name>2203</name>
</trkpt>
<trkpt lat="48.872597" lon="11.070492">
<ele>443.5</ele>
<speed>54.9</speed>
<course>205.6</course>
<desc>Speed 54.9 km/h Distance 74.88 km</desc>
<time>2010-07-31T14:55:44.00</time>
<name>2204</name>
</trkpt>
<trkpt lat="48.872297" lon="11.070273">
<ele>446.5</ele>
<speed>66.2</speed>
<course>206.5</course>
<desc>Speed 66.2 km/h Distance 74.92 km</desc>
<time>2010-07-31T14:55:46.01</time>
<name>2205</name>
</trkpt>
<trkpt lat="48.871958" lon="11.070017">
<ele>451.5</ele>
<speed>65.8</speed>
<course>206.6</course>
<desc>Speed 65.8 km/h Distance 74.96 km</desc>
<time>2010-07-31T14:55:47.99</time>
<name>2206</name>
</trkpt>
<trkpt lat="48.871658" lon="11.069788">
<ele>455.0</ele>
<speed>67.0</speed>
<course>206.7</course>
<desc>Speed 67.0 km/h Distance 74.99 km</desc>
<time>2010-07-31T14:55:50.00</time>
<name>2207</name>
</trkpt>
<trkpt lat="48.871098" lon="11.069360">
<ele>457.5</ele>
<speed>71.8</speed>
<course>201.5</course>
<desc>Speed 71.8 km/h Distance 75.06 km</desc>
<time>2010-07-31T14:55:53.00</time>
<name>2208</name>
</trkpt>
<trkpt lat="48.870798" lon="11.069180">
<ele>458.0</ele>
<speed>64.0</speed>
<course>201.8</course>
<desc>Speed 64.0 km/h Distance 75.10 km</desc>
<time>2010-07-31T14:55:55.00</time>
<name>2209</name>
</trkpt>
<trkpt lat="48.870243" lon="11.068842">
<ele>458.0</ele>
<speed>67.0</speed>
<course>233.6</course>
<desc>Speed 67.0 km/h Distance 75.17 km</desc>
<time>2010-07-31T14:55:58.00</time>
<name>2210</name>
</trkpt>
<trkpt lat="48.870007" lon="11.068353">
<ele>461.0</ele>
<speed>44.4</speed>
<course>257.2</course>
<desc>Speed 44.4 km/h Distance 75.21 km</desc>
<time>2010-07-31T14:56:01.99</time>
<name>2211</name>
</trkpt>
<trkpt lat="48.869973" lon="11.068130">
<ele>462.0</ele>
<speed>44.4</speed>
<course>253.4</course>
<desc>Speed 44.4 km/h Distance 75.23 km</desc>
<time>2010-07-31T14:56:03.99</time>
<name>2212</name>
</trkpt>
<trkpt lat="48.869923" lon="11.067875">
<ele>460.5</ele>
<speed>44.4</speed>
<course>283.0</course>
<desc>Speed 44.4 km/h Distance 75.25 km</desc>
<time>2010-07-31T14:56:06.98</time>
<name>2213</name>
</trkpt>
<trkpt lat="48.870185" lon="11.066158">
<ele>460.5</ele>
<speed>81.4</speed>
<course>268.0</course>
<desc>Speed 81.4 km/h Distance 75.38 km</desc>
<time>2010-07-31T14:56:10.99</time>
<name>2214</name>
</trkpt>
<trkpt lat="48.870167" lon="11.065357">
<ele>461.0</ele>
<speed>82.4</speed>
<course>272.3</course>
<desc>Speed 82.4 km/h Distance 75.44 km</desc>
<time>2010-07-31T14:56:13.99</time>
<name>2215</name>
</trkpt>
<trkpt lat="48.870185" lon="11.064665">
<ele>461.5</ele>
<speed>82.4</speed>
<course>245.2</course>
<desc>Speed 82.4 km/h Distance 75.49 km</desc>
<time>2010-07-31T14:56:16.99</time>
<name>2216</name>
</trkpt>
<trkpt lat="48.869893" lon="11.063705">
<ele>461.5</ele>
<speed>66.7</speed>
<course>248.5</course>
<desc>Speed 66.7 km/h Distance 75.56 km</desc>
<time>2010-07-31T14:56:19.98</time>
<name>2217</name>
</trkpt>
<trkpt lat="48.869753" lon="11.063163">
<ele>462.0</ele>
<speed>70.6</speed>
<course>263.1</course>
<desc>Speed 70.6 km/h Distance 75.61 km</desc>
<time>2010-07-31T14:56:21.99</time>
<name>2218</name>
</trkpt>
<trkpt lat="48.869603" lon="11.061285">
<ele>468.5</ele>
<speed>100</speed>
<course>261.2</course>
<desc>Speed 100 km/h Distance 75.74 km</desc>
<time>2010-07-31T14:56:27.00</time>
<name>2219</name>
</trkpt>
<trkpt lat="48.869518" lon="11.060448">
<ele>468.5</ele>
<speed>108</speed>
<course>262.3</course>
<desc>Speed 108 km/h Distance 75.81 km</desc>
<time>2010-07-31T14:56:28.98</time>
<name>2220</name>
</trkpt>
<trkpt lat="48.869443" lon="11.059605">
<ele>468.5</ele>
<speed>109</speed>
<course>262.4</course>
<desc>Speed 109 km/h Distance 75.87 km</desc>
<time>2010-07-31T14:56:30.98</time>
<name>2221</name>
</trkpt>
<trkpt lat="48.869368" lon="11.058753">
<ele>469.0</ele>
<speed>107</speed>
<course>264.7</course>
<desc>Speed 107 km/h Distance 75.93 km</desc>
<time>2010-07-31T14:56:32.98</time>
<name>2222</name>
</trkpt>
<trkpt lat="48.869317" lon="11.057903">
<ele>469.5</ele>
<speed>106</speed>
<course>267.1</course>
<desc>Speed 106 km/h Distance 75.99 km</desc>
<time>2010-07-31T14:56:34.98</time>
<name>2223</name>
</trkpt>
<trkpt lat="48.869268" lon="11.056438">
<ele>472.0</ele>
<speed>106</speed>
<course>263.1</course>
<desc>Speed 106 km/h Distance 76.10 km</desc>
<time>2010-07-31T14:56:39.98</time>
<name>2224</name>
</trkpt>
<trkpt lat="48.869175" lon="11.055270">
<ele>471.5</ele>
<speed>102</speed>
<course>264.1</course>
<desc>Speed 102 km/h Distance 76.19 km</desc>
<time>2010-07-31T14:56:43.97</time>
<name>2225</name>
</trkpt>
<trkpt lat="48.869110" lon="11.054310">
<ele>472.5</ele>
<speed>102</speed>
<course>248.5</course>
<desc>Speed 102 km/h Distance 76.26 km</desc>
<time>2010-07-31T14:56:46.97</time>
<name>2226</name>
</trkpt>
<trkpt lat="48.868768" lon="11.052993">
<ele>474.5</ele>
<speed>82.6</speed>
<course>197.3</course>
<desc>Speed 82.6 km/h Distance 76.36 km</desc>
<time>2010-07-31T14:56:51.97</time>
<name>2227</name>
</trkpt>
<trkpt lat="48.867953" lon="11.052607">
<ele>473.5</ele>
<speed>82.6</speed>
<course>200.8</course>
<desc>Speed 82.6 km/h Distance 76.46 km</desc>
<time>2010-07-31T14:56:55.98</time>
<name>2228</name>
</trkpt>
<trkpt lat="48.867405" lon="11.052290">
<ele>473.0</ele>
<speed>82.6</speed>
<course>209.3</course>
<desc>Speed 82.6 km/h Distance 76.52 km</desc>
<time>2010-07-31T14:57:00.97</time>
<name>2229</name>
</trkpt>
<trkpt lat="48.865752" lon="11.050878">
<ele>475.0</ele>
<speed>94.7</speed>
<course>216.4</course>
<desc>Speed 94.7 km/h Distance 76.73 km</desc>
<time>2010-07-31T14:57:06.97</time>
<name>2230</name>
</trkpt>
<trkpt lat="48.864457" lon="11.049425">
<ele>480.0</ele>
<speed>105</speed>
<course>217.1</course>
<desc>Speed 105 km/h Distance 76.91 km</desc>
<time>2010-07-31T14:57:11.97</time>
<name>2231</name>
</trkpt>
<trkpt lat="48.864015" lon="11.048917">
<ele>481.5</ele>
<speed>107</speed>
<course>222.4</course>
<desc>Speed 107 km/h Distance 76.97 km</desc>
<time>2010-07-31T14:57:13.97</time>
<name>2232</name>
</trkpt>
<trkpt lat="48.863588" lon="11.048325">
<ele>482.0</ele>
<speed>109</speed>
<course>225.0</course>
<desc>Speed 109 km/h Distance 77.04 km</desc>
<time>2010-07-31T14:57:15.96</time>
<name>2233</name>
</trkpt>
<trkpt lat="48.863173" lon="11.047695">
<ele>483.0</ele>
<speed>112</speed>
<course>235.2</course>
<desc>Speed 112 km/h Distance 77.10 km</desc>
<time>2010-07-31T14:57:17.95</time>
<name>2234</name>
</trkpt>
<trkpt lat="48.862857" lon="11.047002">
<ele>483.0</ele>
<speed>109</speed>
<course>241.4</course>
<desc>Speed 109 km/h Distance 77.17 km</desc>
<time>2010-07-31T14:57:19.96</time>
<name>2235</name>
</trkpt>
<trkpt lat="48.862610" lon="11.046315">
<ele>485.0</ele>
<speed>97.5</speed>
<course>244.8</course>
<desc>Speed 97.5 km/h Distance 77.22 km</desc>
<time>2010-07-31T14:57:21.96</time>
<name>2236</name>
</trkpt>
<trkpt lat="48.862272" lon="11.045223">
<ele>488.5</ele>
<speed>72.8</speed>
<course>240.6</course>
<desc>Speed 72.8 km/h Distance 77.31 km</desc>
<time>2010-07-31T14:57:25.95</time>
<name>2237</name>
</trkpt>
<trkpt lat="48.862100" lon="11.044760">
<ele>489.0</ele>
<speed>72.4</speed>
<course>229.6</course>
<desc>Speed 72.4 km/h Distance 77.35 km</desc>
<time>2010-07-31T14:57:27.95</time>
<name>2238</name>
</trkpt>
<trkpt lat="48.861840" lon="11.044295">
<ele>489.5</ele>
<speed>82.9</speed>
<course>216.4</course>
<desc>Speed 82.9 km/h Distance 77.40 km</desc>
<time>2010-07-31T14:57:29.95</time>
<name>2239</name>
</trkpt>
<trkpt lat="48.860753" lon="11.043077">
<ele>494.5</ele>
<speed>115</speed>
<course>217.2</course>
<desc>Speed 115 km/h Distance 77.55 km</desc>
<time>2010-07-31T14:57:34.95</time>
<name>2240</name>
</trkpt>
<trkpt lat="48.860283" lon="11.042535">
<ele>498.0</ele>
<speed>116</speed>
<course>215.6</course>
<desc>Speed 116 km/h Distance 77.61 km</desc>
<time>2010-07-31T14:57:36.95</time>
<name>2241</name>
</trkpt>
<trkpt lat="48.859210" lon="11.041365">
<ele>505.5</ele>
<speed>58.6</speed>
<course>223.4</course>
<desc>Speed 58.6 km/h Distance 77.76 km</desc>
<time>2010-07-31T14:57:42.94</time>
<name>2242</name>
</trkpt>
<trkpt lat="48.858967" lon="11.041015">
<ele>507.0</ele>
<speed>58.4</speed>
<course>230.0</course>
<desc>Speed 58.4 km/h Distance 77.80 km</desc>
<time>2010-07-31T14:57:44.94</time>
<name>2243</name>
</trkpt>
<trkpt lat="48.858763" lon="11.040647">
<ele>508.5</ele>
<speed>67.8</speed>
<course>234.4</course>
<desc>Speed 67.8 km/h Distance 77.83 km</desc>
<time>2010-07-31T14:57:46.94</time>
<name>2244</name>
</trkpt>
<trkpt lat="48.858562" lon="11.040218">
<ele>510.0</ele>
<speed>57.8</speed>
<course>236.6</course>
<desc>Speed 57.8 km/h Distance 77.87 km</desc>
<time>2010-07-31T14:57:48.94</time>
<name>2245</name>
</trkpt>
<trkpt lat="48.858392" lon="11.039827">
<ele>510.5</ele>
<speed>58.0</speed>
<course>241.0</course>
<desc>Speed 58.0 km/h Distance 77.90 km</desc>
<time>2010-07-31T14:57:50.94</time>
<name>2246</name>
</trkpt>
<trkpt lat="48.858240" lon="11.039410">
<ele>510.5</ele>
<speed>61.0</speed>
<course>249.8</course>
<desc>Speed 61.0 km/h Distance 77.94 km</desc>
<time>2010-07-31T14:57:52.94</time>
<name>2247</name>
</trkpt>
<trkpt lat="48.858120" lon="11.038915">
<ele>511.5</ele>
<speed>70.9</speed>
<course>249.2</course>
<desc>Speed 70.9 km/h Distance 77.98 km</desc>
<time>2010-07-31T14:57:54.94</time>
<name>2248</name>
</trkpt>
<trkpt lat="48.857983" lon="11.038368">
<ele>512.5</ele>
<speed>76.1</speed>
<course>245.8</course>
<desc>Speed 76.1 km/h Distance 78.02 km</desc>
<time>2010-07-31T14:57:56.93</time>
<name>2249</name>
</trkpt>
<trkpt lat="48.857802" lon="11.037753">
<ele>512.5</ele>
<speed>86.0</speed>
<course>248.6</course>
<desc>Speed 86.0 km/h Distance 78.07 km</desc>
<time>2010-07-31T14:57:58.94</time>
<name>2250</name>
</trkpt>
<trkpt lat="48.857660" lon="11.037205">
<ele>513.5</ele>
<speed>86.0</speed>
<course>248.9</course>
<desc>Speed 86.0 km/h Distance 78.11 km</desc>
<time>2010-07-31T14:58:00.93</time>
<name>2251</name>
</trkpt>
<trkpt lat="48.857513" lon="11.036627">
<ele>514.5</ele>
<speed>77.0</speed>
<course>280.0</course>
<desc>Speed 77.0 km/h Distance 78.16 km</desc>
<time>2010-07-31T14:58:02.94</time>
<name>2252</name>
</trkpt>
<trkpt lat="48.857612" lon="11.035775">
<ele>517.5</ele>
<speed>76.6</speed>
<course>282.8</course>
<desc>Speed 76.6 km/h Distance 78.22 km</desc>
<time>2010-07-31T14:58:06.94</time>
<name>2253</name>
</trkpt>
<trkpt lat="48.857693" lon="11.035230">
<ele>520.0</ele>
<speed>79.8</speed>
<course>279.4</course>
<desc>Speed 79.8 km/h Distance 78.26 km</desc>
<time>2010-07-31T14:58:08.93</time>
<name>2254</name>
</trkpt>
<trkpt lat="48.857755" lon="11.034663">
<ele>520.5</ele>
<speed>79.8</speed>
<course>264.0</course>
<desc>Speed 79.8 km/h Distance 78.30 km</desc>
<time>2010-07-31T14:58:10.93</time>
<name>2255</name>
</trkpt>
<trkpt lat="48.857597" lon="11.032362">
<ele>527.5</ele>
<speed>121</speed>
<course>264.7</course>
<desc>Speed 121 km/h Distance 78.47 km</desc>
<time>2010-07-31T14:58:15.93</time>
<name>2256</name>
</trkpt>
<trkpt lat="48.857518" lon="11.031088">
<ele>531.0</ele>
<speed>102</speed>
<course>271.7</course>
<desc>Speed 102 km/h Distance 78.57 km</desc>
<time>2010-07-31T14:58:18.93</time>
<name>2257</name>
</trkpt>
<trkpt lat="48.857537" lon="11.030128">
<ele>532.0</ele>
<speed>86.2</speed>
<course>277.4</course>
<desc>Speed 86.2 km/h Distance 78.64 km</desc>
<time>2010-07-31T14:58:21.93</time>
<name>2258</name>
</trkpt>
<trkpt lat="48.857590" lon="11.029502">
<ele>532.0</ele>
<speed>77.4</speed>
<course>289.7</course>
<desc>Speed 77.4 km/h Distance 78.68 km</desc>
<time>2010-07-31T14:58:23.93</time>
<name>2259</name>
</trkpt>
<trkpt lat="48.857742" lon="11.028858">
<ele>534.0</ele>
<speed>91.3</speed>
<course>287.9</course>
<desc>Speed 91.3 km/h Distance 78.73 km</desc>
<time>2010-07-31T14:58:25.93</time>
<name>2260</name>
</trkpt>
<trkpt lat="48.857890" lon="11.028158">
<ele>534.0</ele>
<speed>96.0</speed>
<course>284.4</course>
<desc>Speed 96.0 km/h Distance 78.79 km</desc>
<time>2010-07-31T14:58:27.93</time>
<name>2261</name>
</trkpt>
<trkpt lat="48.858010" lon="11.027450">
<ele>534.5</ele>
<speed>93.9</speed>
<course>273.7</course>
<desc>Speed 93.9 km/h Distance 78.84 km</desc>
<time>2010-07-31T14:58:29.92</time>
<name>2262</name>
</trkpt>
<trkpt lat="48.858040" lon="11.026752">
<ele>536.5</ele>
<speed>98.9</speed>
<course>261.9</course>
<desc>Speed 98.9 km/h Distance 78.89 km</desc>
<time>2010-07-31T14:58:31.92</time>
<name>2263</name>
</trkpt>
<trkpt lat="48.857975" lon="11.026062">
<ele>537.5</ele>
<speed>88.2</speed>
<course>262.0</course>
<desc>Speed 88.2 km/h Distance 78.94 km</desc>
<time>2010-07-31T14:58:33.92</time>
<name>2264</name>
</trkpt>
<trkpt lat="48.857883" lon="11.025073">
<ele>539.0</ele>
<speed>70.0</speed>
<course>273.2</course>
<desc>Speed 70.0 km/h Distance 79.02 km</desc>
<time>2010-07-31T14:58:37.92</time>
<name>2265</name>
</trkpt>
<trkpt lat="48.857908" lon="11.024402">
<ele>539.5</ele>
<speed>70.0</speed>
<course>272.3</course>
<desc>Speed 70.0 km/h Distance 79.07 km</desc>
<time>2010-07-31T14:58:41.93</time>
<name>2266</name>
</trkpt>
<trkpt lat="48.857927" lon="11.023718">
<ele>542.0</ele>
<speed>70.0</speed>
<course>277.9</course>
<desc>Speed 70.0 km/h Distance 79.12 km</desc>
<time>2010-07-31T14:58:46.91</time>
<name>2267</name>
</trkpt>
<trkpt lat="48.857975" lon="11.023190">
<ele>543.0</ele>
<speed>70.0</speed>
<course>292.2</course>
<desc>Speed 70.0 km/h Distance 79.16 km</desc>
<time>2010-07-31T14:58:52.91</time>
<name>2268</name>
</trkpt>
<trkpt lat="48.858043" lon="11.022935">
<ele>543.5</ele>
<speed>70.0</speed>
<course>303.8</course>
<desc>Speed 70.0 km/h Distance 79.18 km</desc>
<time>2010-07-31T14:58:57.91</time>
<name>2269</name>
</trkpt>
<trkpt lat="48.859375" lon="11.019917">
<ele>543.5</ele>
<speed>70.0</speed>
<course>308.4</course>
<desc>Speed 70.0 km/h Distance 79.44 km</desc>
<time>2010-07-31T14:59:06.90</time>
<name>2270</name>
</trkpt>
<trkpt lat="48.859847" lon="11.019012">
<ele>542.5</ele>
<speed>66.9</speed>
<course>260.0</course>
<desc>Speed 66.9 km/h Distance 79.53 km</desc>
<time>2010-07-31T14:59:10.90</time>
<name>2271</name>
</trkpt>
<trkpt lat="48.859792" lon="11.018537">
<ele>543.0</ele>
<speed>66.9</speed>
<course>260.9</course>
<desc>Speed 66.9 km/h Distance 79.56 km</desc>
<time>2010-07-31T14:59:12.91</time>
<name>2272</name>
</trkpt>
<trkpt lat="48.859650" lon="11.017197">
<ele>545.0</ele>
<speed>72.1</speed>
<course>246.3</course>
<desc>Speed 72.1 km/h Distance 79.66 km</desc>
<time>2010-07-31T14:59:16.89</time>
<name>2273</name>
</trkpt>
<trkpt lat="48.859527" lon="11.016770">
<ele>544.5</ele>
<speed>72.1</speed>
<course>279.0</course>
<desc>Speed 72.1 km/h Distance 79.70 km</desc>
<time>2010-07-31T14:59:18.90</time>
<name>2274</name>
</trkpt>
<trkpt lat="48.859607" lon="11.016000">
<ele>543.0</ele>
<speed>72.1</speed>
<course>282.6</course>
<desc>Speed 72.1 km/h Distance 79.75 km</desc>
<time>2010-07-31T14:59:24.89</time>
<name>2275</name>
</trkpt>
<trkpt lat="48.859670" lon="11.015568">
<ele>543.0</ele>
<speed>33.9</speed>
<course>272.1</course>
<desc>Speed 33.9 km/h Distance 79.78 km</desc>
<time>2010-07-31T14:59:29.89</time>
<name>2276</name>
</trkpt>
<trkpt lat="48.859678" lon="11.015228">
<ele>542.5</ele>
<speed>46.7</speed>
<course>252.3</course>
<desc>Speed 46.7 km/h Distance 79.81 km</desc>
<time>2010-07-31T14:59:31.89</time>
<name>2277</name>
</trkpt>
<trkpt lat="48.859607" lon="11.014887">
<ele>542.0</ele>
<speed>40.5</speed>
<course>244.2</course>
<desc>Speed 40.5 km/h Distance 79.84 km</desc>
<time>2010-07-31T14:59:33.89</time>
<name>2278</name>
</trkpt>
<trkpt lat="48.859525" lon="11.014630">
<ele>542.0</ele>
<speed>40.5</speed>
<course>260.1</course>
<desc>Speed 40.5 km/h Distance 79.86 km</desc>
<time>2010-07-31T14:59:35.88</time>
<name>2279</name>
</trkpt>
<trkpt lat="48.859502" lon="11.014427">
<ele>542.0</ele>
<speed>40.5</speed>
<course>200.7</course>
<desc>Speed 40.5 km/h Distance 79.87 km</desc>
<time>2010-07-31T14:59:37.89</time>
<name>2280</name>
</trkpt>
<trkpt lat="48.859172" lon="11.014237">
<ele>540.5</ele>
<speed>56.4</speed>
<course>168.2</course>
<desc>Speed 56.4 km/h Distance 79.91 km</desc>
<time>2010-07-31T14:59:40.89</time>
<name>2281</name>
</trkpt>
<trkpt lat="48.858813" lon="11.014350">
<ele>541.0</ele>
<speed>41.9</speed>
<course>182.3</course>
<desc>Speed 41.9 km/h Distance 79.95 km</desc>
<time>2010-07-31T14:59:43.88</time>
<name>2282</name>
</trkpt>
<trkpt lat="48.857567" lon="11.014273">
<ele>542.5</ele>
<speed>91.4</speed>
<course>178.9</course>
<desc>Speed 91.4 km/h Distance 80.09 km</desc>
<time>2010-07-31T14:59:49.88</time>
<name>2283</name>
</trkpt>
<trkpt lat="48.857103" lon="11.014287">
<ele>544.0</ele>
<speed>102</speed>
<course>179.2</course>
<desc>Speed 102 km/h Distance 80.14 km</desc>
<time>2010-07-31T14:59:51.87</time>
<name>2284</name>
</trkpt>
<trkpt lat="48.856638" lon="11.014297">
<ele>543.5</ele>
<speed>91.9</speed>
<course>179.4</course>
<desc>Speed 91.9 km/h Distance 80.19 km</desc>
<time>2010-07-31T14:59:53.88</time>
<name>2285</name>
</trkpt>
<trkpt lat="48.856230" lon="11.014303">
<ele>543.5</ele>
<speed>81.6</speed>
<course>177.6</course>
<desc>Speed 81.6 km/h Distance 80.24 km</desc>
<time>2010-07-31T14:59:55.88</time>
<name>2286</name>
</trkpt>
<trkpt lat="48.855818" lon="11.014330">
<ele>544.5</ele>
<speed>81.8</speed>
<course>178.9</course>
<desc>Speed 81.8 km/h Distance 80.29 km</desc>
<time>2010-07-31T14:59:57.88</time>
<name>2287</name>
</trkpt>
<trkpt lat="48.855418" lon="11.014342">
<ele>546.5</ele>
<speed>78.0</speed>
<course>174.8</course>
<desc>Speed 78.0 km/h Distance 80.33 km</desc>
<time>2010-07-31T14:59:59.88</time>
<name>2288</name>
</trkpt>
<trkpt lat="48.854982" lon="11.014402">
<ele>548.0</ele>
<speed>88.4</speed>
<course>164.3</course>
<desc>Speed 88.4 km/h Distance 80.38 km</desc>
<time>2010-07-31T15:00:01.87</time>
<name>2289</name>
</trkpt>
<trkpt lat="48.854317" lon="11.014685">
<ele>548.5</ele>
<speed>67.6</speed>
<course>138.2</course>
<desc>Speed 67.6 km/h Distance 80.46 km</desc>
<time>2010-07-31T15:00:06.87</time>
<name>2290</name>
</trkpt>
<trkpt lat="48.854035" lon="11.015068">
<ele>549.0</ele>
<speed>74.3</speed>
<course>163.8</course>
<desc>Speed 74.3 km/h Distance 80.50 km</desc>
<time>2010-07-31T15:00:08.87</time>
<name>2291</name>
</trkpt>
<trkpt lat="48.853683" lon="11.015223">
<ele>549.0</ele>
<speed>74.3</speed>
<course>145.3</course>
<desc>Speed 74.3 km/h Distance 80.54 km</desc>
<time>2010-07-31T15:00:10.88</time>
<name>2292</name>
</trkpt>
<trkpt lat="48.853390" lon="11.015532">
<ele>548.5</ele>
<speed>74.3</speed>
<course>164.3</course>
<desc>Speed 74.3 km/h Distance 80.58 km</desc>
<time>2010-07-31T15:00:12.87</time>
<name>2293</name>
</trkpt>
<trkpt lat="48.852973" lon="11.015710">
<ele>550.0</ele>
<speed>69.6</speed>
<course>167.3</course>
<desc>Speed 69.6 km/h Distance 80.63 km</desc>
<time>2010-07-31T15:00:14.87</time>
<name>2294</name>
</trkpt>
<trkpt lat="48.852603" lon="11.015837">
<ele>551.0</ele>
<speed>66.3</speed>
<course>170.9</course>
<desc>Speed 66.3 km/h Distance 80.67 km</desc>
<time>2010-07-31T15:00:16.87</time>
<name>2295</name>
</trkpt>
<trkpt lat="48.852317" lon="11.015907">
<ele>552.0</ele>
<speed>54.5</speed>
<course>156.9</course>
<desc>Speed 54.5 km/h Distance 80.70 km</desc>
<time>2010-07-31T15:00:18.86</time>
<name>2296</name>
</trkpt>
<trkpt lat="48.851927" lon="11.016160">
<ele>558.5</ele>
<speed>19.0</speed>
<course>156.7</course>
<desc>Speed 19.0 km/h Distance 80.75 km</desc>
<time>2010-07-31T15:00:23.86</time>
<name>2297</name>
</trkpt>
<trkpt lat="48.851845" lon="11.016213">
<ele>560.5</ele>
<speed>15.3</speed>
<course>140.9</course>
<desc>Speed 15.3 km/h Distance 80.76 km</desc>
<time>2010-07-31T15:00:25.87</time>
<name>2298</name>
</trkpt>
<trkpt lat="48.851788" lon="11.016283">
<ele>563.5</ele>
<speed>9.0</speed>
<course>36.0</course>
<desc>Speed 9.0 km/h Distance 80.77 km</desc>
<time>2010-07-31T15:00:27.86</time>
<name>2299</name>
</trkpt>
<trkpt lat="48.851820" lon="11.016318">
<ele>568.0</ele>
<speed>9.0</speed>
<course>161.8</course>
<desc>Speed 9.0 km/h Distance 80.77 km</desc>
<time>2010-07-31T15:00:29.86</time>
<name>2300</name>
</trkpt>
<trkpt lat="48.851810" lon="11.016323">
<ele>569.0</ele>
<speed>4.7</speed>
<course>270.0</course>
<desc>Speed 4.7 km/h Distance 80.77 km</desc>
<time>2010-07-31T15:00:31.85</time>
<name>2301</name>
</trkpt>
<trkpt lat="48.851810" lon="11.016322">
<ele>569.0</ele>
<speed>0.4</speed>
<course>75.8</course>
<desc>Speed 0.4 km/h Distance 80.77 km</desc>
<time>2010-07-31T15:00:33.86</time>
<name>2302</name>
</trkpt>
<trkpt lat="48.851812" lon="11.016332">
<ele>570.5</ele>
<speed>0.9</speed>
<course>52.4</course>
<desc>Speed 0.9 km/h Distance 80.77 km</desc>
<time>2010-07-31T15:00:35.85</time>
<name>2303</name>
</trkpt>
<trkpt lat="48.851815" lon="11.016338">
<ele>571.0</ele>
<speed>0.5</speed>
<course>99.1</course>
<desc>Speed 0.5 km/h Distance 80.77 km</desc>
<time>2010-07-31T15:00:37.86</time>
<name>2304</name>
</trkpt>
<trkpt lat="48.851812" lon="11.016370">
<ele>573.0</ele>
<speed>0.8</speed>
<course>136.5</course>
<desc>Speed 0.8 km/h Distance 80.78 km</desc>
<time>2010-07-31T15:00:39.86</time>
<name>2305</name>
</trkpt>
<trkpt lat="48.851808" lon="11.016375">
<ele>573.5</ele>
<speed>0.4</speed>
<course>107.1</course>
<desc>Speed 0.4 km/h Distance 80.78 km</desc>
<time>2010-07-31T15:00:41.86</time>
<name>2306</name>
</trkpt>
<trkpt lat="48.851807" lon="11.016383">
<ele>574.0</ele>
<speed>0.1</speed>
<course>146.8</course>
<desc>Speed 0.1 km/h Distance 80.78 km</desc>
<time>2010-07-31T15:00:43.86</time>
<name>2307</name>
</trkpt>
<trkpt lat="48.851797" lon="11.016393">
<ele>575.5</ele>
<speed>0.8</speed>
<course>109.3</course>
<desc>Speed 0.8 km/h Distance 80.78 km</desc>
<time>2010-07-31T15:00:45.86</time>
<name>2308</name>
</trkpt>
<trkpt lat="48.851792" lon="11.016415">
<ele>577.0</ele>
<speed>0.3</speed>
<course>161.2</course>
<desc>Speed 0.3 km/h Distance 80.78 km</desc>
<time>2010-07-31T15:00:47.85</time>
<name>2309</name>
</trkpt>
<trkpt lat="48.851785" lon="11.016418">
<ele>577.5</ele>
<speed>0.4</speed>
<course>127.2</course>
<desc>Speed 0.4 km/h Distance 80.78 km</desc>
<time>2010-07-31T15:00:49.85</time>
<name>2310</name>
</trkpt>
<trkpt lat="48.851777" lon="11.016435">
<ele>579.0</ele>
<speed>0.3</speed>
<course>127.6</course>
<desc>Speed 0.3 km/h Distance 80.78 km</desc>
<time>2010-07-31T15:00:51.85</time>
<name>2311</name>
</trkpt>
<trkpt lat="48.851773" lon="11.016442">
<ele>579.5</ele>
<speed>0.5</speed>
<course>175.3</course>
<desc>Speed 0.5 km/h Distance 80.78 km</desc>
<time>2010-07-31T15:00:53.84</time>
<name>2312</name>
</trkpt>
<trkpt lat="48.851762" lon="11.016443">
<ele>579.0</ele>
<speed>1.6</speed>
<course>138.6</course>
<desc>Speed 1.6 km/h Distance 80.78 km</desc>
<time>2010-07-31T15:00:55.85</time>
<name>2313</name>
</trkpt>
<trkpt lat="48.851757" lon="11.016450">
<ele>579.5</ele>
<speed>0.5</speed>
<course>187.4</course>
<desc>Speed 0.5 km/h Distance 80.78 km</desc>
<time>2010-07-31T15:00:57.85</time>
<name>2314</name>
</trkpt>
<trkpt lat="48.851750" lon="11.016448">
<ele>580.0</ele>
<speed>0.5</speed>
<course>62.6</course>
<desc>Speed 0.5 km/h Distance 80.79 km</desc>
<time>2010-07-31T15:00:59.85</time>
<name>2315</name>
</trkpt>
<trkpt lat="48.851752" lon="11.016453">
<ele>581.5</ele>
<speed>0.2</speed>
<course>0.0</course>
<desc>Speed 0.2 km/h Distance 80.79 km</desc>
<time>2010-07-31T15:01:01.85</time>
<name>2316</name>
</trkpt>
<trkpt lat="48.851758" lon="11.016453">
<ele>582.0</ele>
<speed>0.8</speed>
<course>18.2</course>
<desc>Speed 0.8 km/h Distance 80.79 km</desc>
<time>2010-07-31T15:01:03.85</time>
<name>2317</name>
</trkpt>
<trkpt lat="48.851768" lon="11.016458">
<ele>583.0</ele>
<speed>1.3</speed>
<course>14.9</course>
<desc>Speed 1.3 km/h Distance 80.79 km</desc>
<time>2010-07-31T15:01:05.85</time>
<name>2318</name>
</trkpt>
<trkpt lat="48.851777" lon="11.016462">
<ele>582.5</ele>
<speed>1.9</speed>
<course>9.6</course>
<desc>Speed 1.9 km/h Distance 80.79 km</desc>
<time>2010-07-31T15:01:07.84</time>
<name>2319</name>
</trkpt>
<trkpt lat="48.851785" lon="11.016463">
<ele>584.0</ele>
<speed>0.9</speed>
<course>270.0</course>
<desc>Speed 0.9 km/h Distance 80.79 km</desc>
<time>2010-07-31T15:01:09.84</time>
<name>2320</name>
</trkpt>
<trkpt lat="48.851785" lon="11.016457">
<ele>584.5</ele>
<speed>1.4</speed>
<course>138.7</course>
<desc>Speed 1.4 km/h Distance 80.79 km</desc>
<time>2010-07-31T15:01:13.24</time>
<name>2321</name>
</trkpt>
<trkpt lat="48.851775" lon="11.016470">
<ele>585.0</ele>
<speed>0.5</speed>
<course>276.7</course>
<desc>Speed 0.5 km/h Distance 80.79 km</desc>
<time>2010-07-31T15:01:16.05</time>
<name>2322</name>
</trkpt>
<trkpt lat="48.851777" lon="11.016448">
<ele>585.0</ele>
<speed>1.3</speed>
<course>150.8</course>
<desc>Speed 1.3 km/h Distance 80.79 km</desc>
<time>2010-07-31T15:01:18.46</time>
<name>2323</name>
</trkpt>
<trkpt lat="48.851775" lon="11.016450">
<ele>585.0</ele>
<speed>1.3</speed>
<course>0.0</course>
<desc>Speed 1.3 km/h Distance 80.79 km</desc>
<time>2010-07-31T15:01:19.83</time>
<name>2324</name>
</trkpt>
<trkpt lat="48.851783" lon="11.016450">
<ele>585.0</ele>
<speed>3.0</speed>
<course>119.7</course>
<desc>Speed 3.0 km/h Distance 80.79 km</desc>
<time>2010-07-31T15:01:24.17</time>
<name>2325</name>
</trkpt>
<trkpt lat="48.851768" lon="11.016490">
<ele>585.5</ele>
<speed>1.2</speed>
<course>49.8</course>
<desc>Speed 1.2 km/h Distance 80.80 km</desc>
<time>2010-07-31T15:01:26.72</time>
<name>2326</name>
</trkpt>
<trkpt lat="48.851777" lon="11.016505">
<ele>585.0</ele>
<speed>0.5</speed>
<course>183.8</course>
<desc>Speed 0.5 km/h Distance 80.80 km</desc>
<time>2010-07-31T15:01:29.07</time>
<name>2327</name>
</trkpt>
<trkpt lat="48.851762" lon="11.016503">
<ele>587.0</ele>
<speed>2.5</speed>
<course>200.1</course>
<desc>Speed 2.5 km/h Distance 80.80 km</desc>
<time>2010-07-31T15:01:41.82</time>
<name>2328</name>
</trkpt>
<trkpt lat="48.851747" lon="11.016495">
<ele>586.5</ele>
<speed>2.8</speed>
<course>231.9</course>
<desc>Speed 2.8 km/h Distance 80.80 km</desc>
<time>2010-07-31T15:01:42.83</time>
<name>2329</name>
</trkpt>
<trkpt lat="48.851745" lon="11.016492">
<ele>587.0</ele>
<speed>1.0</speed>
<course>336.2</course>
<desc>Speed 1.0 km/h Distance 80.80 km</desc>
<time>2010-07-31T15:01:44.76</time>
<name>2330</name>
</trkpt>
<trkpt lat="48.851750" lon="11.016488">
<ele>587.5</ele>
<speed>0.4</speed>
<course>217.2</course>
<desc>Speed 0.4 km/h Distance 80.80 km</desc>
<time>2010-07-31T15:01:45.82</time>
<name>2331</name>
</trkpt>
<trkpt lat="48.851748" lon="11.016487">
<ele>588.5</ele>
<speed>0.5</speed>
<course>12.6</course>
<desc>Speed 0.5 km/h Distance 80.80 km</desc>
<time>2010-07-31T15:01:46.97</time>
<name>2332</name>
</trkpt>
<trkpt lat="48.851752" lon="11.016487">
<ele>588.5</ele>
<speed>0.4</speed>
<course>12.6</course>
<desc>Speed 0.4 km/h Distance 80.80 km</desc>
<time>2010-07-31T15:01:47.81</time>
<name>2333</name>
</trkpt>
<trkpt lat="48.851755" lon="11.016487">
<ele>589.0</ele>
<speed>0.2</speed>
<course>12.6</course>
<desc>Speed 0.2 km/h Distance 80.80 km</desc>
<time>2010-07-31T15:01:48.81</time>
<name>2334</name>
</trkpt>
<trkpt lat="48.851758" lon="11.016488">
<ele>589.5</ele>
<speed>0.2</speed>
<course>12.6</course>
<desc>Speed 0.2 km/h Distance 80.81 km</desc>
<time>2010-07-31T15:01:49.81</time>
<name>2335</name>
</trkpt>
<trkpt lat="48.851762" lon="11.016490">
<ele>589.5</ele>
<speed>0.1</speed>
<course>28.6</course>
<desc>Speed 0.1 km/h Distance 80.81 km</desc>
<time>2010-07-31T15:01:51.33</time>
<name>2336</name>
</trkpt>
<trkpt lat="48.851772" lon="11.016498">
<ele>589.0</ele>
<speed>0.4</speed>
<course>14.9</course>
<desc>Speed 0.4 km/h Distance 80.81 km</desc>
<time>2010-07-31T15:01:52.84</time>
<name>2337</name>
</trkpt>
<trkpt lat="48.851780" lon="11.016502">
<ele>588.5</ele>
<speed>0.2</speed>
<course>20.6</course>
<desc>Speed 0.2 km/h Distance 80.81 km</desc>
<time>2010-07-31T15:01:53.83</time>
<name>2338</name>
</trkpt>
<trkpt lat="48.851792" lon="11.016508">
<ele>588.0</ele>
<speed>1.3</speed>
<course>27.9</course>
<desc>Speed 1.3 km/h Distance 80.81 km</desc>
<time>2010-07-31T15:01:54.81</time>
<name>2339</name>
</trkpt>
<trkpt lat="48.851800" lon="11.016515">
<ele>588.5</ele>
<speed>0.9</speed>
<course>27.9</course>
<desc>Speed 0.9 km/h Distance 80.81 km</desc>
<time>2010-07-31T15:01:56.14</time>
<name>2340</name>
</trkpt>
<trkpt lat="48.851800" lon="11.016515">
<ele>588.5</ele>
<speed>0.5</speed>
<course>12.6</course>
<desc>Speed 0.5 km/h Distance 80.81 km</desc>
<time>2010-07-31T15:01:56.86</time>
<name>2341</name>
</trkpt>
<trkpt lat="48.851802" lon="11.016515">
<ele>588.5</ele>
<speed>0.1</speed>
<course>51.9</course>
<desc>Speed 0.1 km/h Distance 80.81 km</desc>
<time>2010-07-31T15:01:57.81</time>
<name>2342</name>
</trkpt>
<trkpt lat="48.851803" lon="11.016518">
<ele>588.5</ele>
<speed>0.4</speed>
<course>37.2</course>
<desc>Speed 0.4 km/h Distance 80.81 km</desc>
<time>2010-07-31T15:01:58.82</time>
<name>2343</name>
</trkpt>
<trkpt lat="48.851805" lon="11.016520">
<ele>588.5</ele>
<speed>0.1</speed>
<course>53.9</course>
<desc>Speed 0.1 km/h Distance 80.81 km</desc>
<time>2010-07-31T15:01:59.81</time>
<name>2344</name>
</trkpt>
<trkpt lat="48.851807" lon="11.016523">
<ele>589.0</ele>
<speed>1.0</speed>
<course>81.3</course>
<desc>Speed 1.0 km/h Distance 80.81 km</desc>
<time>2010-07-31T15:02:00.80</time>
<name>2345</name>
</trkpt>
<trkpt lat="48.851808" lon="11.016540">
<ele>590.0</ele>
<speed>3.9</speed>
<course>152.1</course>
<desc>Speed 3.9 km/h Distance 80.81 km</desc>
<time>2010-07-31T15:02:01.80</time>
<name>2346</name>
</trkpt>
<trkpt lat="48.851800" lon="11.016547">
<ele>590.0</ele>
<speed>2.9</speed>
<course>177.3</course>
<desc>Speed 2.9 km/h Distance 80.81 km</desc>
<time>2010-07-31T15:02:02.81</time>
<name>2347</name>
</trkpt>
<trkpt lat="48.851780" lon="11.016547">
<ele>593.0</ele>
<speed>7.7</speed>
<course>157.8</course>
<desc>Speed 7.7 km/h Distance 80.82 km</desc>
<time>2010-07-31T15:02:03.80</time>
<name>2348</name>
</trkpt>
<trkpt lat="48.851775" lon="11.016550">
<ele>593.5</ele>
<speed>2.8</speed>
<course>167.4</course>
<desc>Speed 2.8 km/h Distance 80.82 km</desc>
<time>2010-07-31T15:02:04.80</time>
<name>2349</name>
</trkpt>
<trkpt lat="48.851770" lon="11.016552">
<ele>594.5</ele>
<speed>1.5</speed>
<course>142.8</course>
<desc>Speed 1.5 km/h Distance 80.82 km</desc>
<time>2010-07-31T15:02:05.80</time>
<name>2350</name>
</trkpt>
<trkpt lat="48.851768" lon="11.016553">
<ele>594.5</ele>
<speed>1.1</speed>
<course>142.8</course>
<desc>Speed 1.1 km/h Distance 80.82 km</desc>
<time>2010-07-31T15:02:06.79</time>
<name>2351</name>
</trkpt>
<trkpt lat="48.851768" lon="11.016553">
<ele>594.5</ele>
<speed>0.4</speed>
<course>142.8</course>
<desc>Speed 0.4 km/h Distance 80.82 km</desc>
<time>2010-07-31T15:02:07.79</time>
<name>2352</name>
</trkpt>
<trkpt lat="48.851768" lon="11.016553">
<ele>594.0</ele>
<speed>0.4</speed>
<course>12.6</course>
<desc>Speed 0.4 km/h Distance 80.82 km</desc>
<time>2010-07-31T15:02:08.79</time>
<name>2353</name>
</trkpt>
<trkpt lat="48.851770" lon="11.016553">
<ele>594.0</ele>
<speed>0.1</speed>
<course>12.6</course>
<desc>Speed 0.1 km/h Distance 80.82 km</desc>
<time>2010-07-31T15:02:09.79</time>
<name>2354</name>
</trkpt>
<trkpt lat="48.851773" lon="11.016555">
<ele>594.0</ele>
<speed>0.3</speed>
<course>0.0</course>
<desc>Speed 0.3 km/h Distance 80.82 km</desc>
<time>2010-07-31T15:02:10.77</time>
<name>2355</name>
</trkpt>
<trkpt lat="48.851777" lon="11.016555">
<ele>594.0</ele>
<speed>0.3</speed>
<course>227.8</course>
<desc>Speed 0.3 km/h Distance 80.82 km</desc>
<time>2010-07-31T15:02:12.77</time>
<name>2356</name>
</trkpt>
<trkpt lat="48.851772" lon="11.016547">
<ele>593.5</ele>
<speed>0.3</speed>
<course>167.4</course>
<desc>Speed 0.3 km/h Distance 80.82 km</desc>
<time>2010-07-31T15:02:14.77</time>
<name>2357</name>
</trkpt>
<trkpt lat="48.851768" lon="11.016548">
<ele>594.0</ele>
<speed>1.1</speed>
<course>105.9</course>
<desc>Speed 1.1 km/h Distance 80.82 km</desc>
<time>2010-07-31T15:02:16.77</time>
<name>2358</name>
</trkpt>
<trkpt lat="48.851763" lon="11.016575">
<ele>596.0</ele>
<speed>1.6</speed>
<course>293.5</course>
<desc>Speed 1.6 km/h Distance 80.82 km</desc>
<time>2010-07-31T15:02:18.77</time>
<name>2359</name>
</trkpt>
<trkpt lat="48.851767" lon="11.016563">
<ele>596.5</ele>
<speed>1.4</speed>
<course>282.2</course>
<desc>Speed 1.4 km/h Distance 80.82 km</desc>
<time>2010-07-31T15:02:20.75</time>
<name>2360</name>
</trkpt>
<trkpt lat="48.851768" lon="11.016552">
<ele>596.0</ele>
<speed>0.2</speed>
<course>288.7</course>
<desc>Speed 0.2 km/h Distance 80.82 km</desc>
<time>2010-07-31T15:02:22.74</time>
<name>2361</name>
</trkpt>
<trkpt lat="48.851772" lon="11.016537">
<ele>595.5</ele>
<speed>1.7</speed>
<course>282.2</course>
<desc>Speed 1.7 km/h Distance 80.82 km</desc>
<time>2010-07-31T15:02:24.73</time>
<name>2362</name>
</trkpt>
<trkpt lat="48.851775" lon="11.016513">
<ele>594.5</ele>
<speed>0.6</speed>
<course>62.6</course>
<desc>Speed 0.6 km/h Distance 80.83 km</desc>
<time>2010-07-31T15:02:26.74</time>
<name>2363</name>
</trkpt>
<trkpt lat="48.851777" lon="11.016518">
<ele>595.0</ele>
<speed>1.8</speed>
<course>284.2</course>
<desc>Speed 1.8 km/h Distance 80.83 km</desc>
<time>2010-07-31T15:02:28.74</time>
<name>2364</name>
</trkpt>
<trkpt lat="48.851780" lon="11.016498">
<ele>593.5</ele>
<speed>0.2</speed>
<course>285.5</course>
<desc>Speed 0.2 km/h Distance 80.83 km</desc>
<time>2010-07-31T15:02:30.73</time>
<name>2365</name>
</trkpt>
<trkpt lat="48.851783" lon="11.016480">
<ele>592.5</ele>
<speed>0.3</speed>
<course>297.4</course>
<desc>Speed 0.3 km/h Distance 80.83 km</desc>
<time>2010-07-31T15:02:32.73</time>
<name>2366</name>
</trkpt>
<trkpt lat="48.851785" lon="11.016475">
<ele>592.0</ele>
<speed>0.8</speed>
<course>286.7</course>
<desc>Speed 0.8 km/h Distance 80.83 km</desc>
<time>2010-07-31T15:02:34.72</time>
<name>2367</name>
</trkpt>
<trkpt lat="48.851787" lon="11.016467">
<ele>592.0</ele>
<speed>1.3</speed>
<course>116.6</course>
<desc>Speed 1.3 km/h Distance 80.83 km</desc>
<time>2010-07-31T15:02:36.71</time>
<name>2368</name>
</trkpt>
<trkpt lat="48.851785" lon="11.016472">
<ele>591.5</ele>
<speed>0.1</speed>
<course>130.9</course>
<desc>Speed 0.1 km/h Distance 80.83 km</desc>
<time>2010-07-31T15:02:38.71</time>
<name>2369</name>
</trkpt>
<trkpt lat="48.851778" lon="11.016483">
<ele>592.5</ele>
<speed>0.9</speed>
<course>122.3</course>
<desc>Speed 0.9 km/h Distance 80.83 km</desc>
<time>2010-07-31T15:02:40.76</time>
<name>2370</name>
</trkpt>
<trkpt lat="48.851770" lon="11.016503">
<ele>593.0</ele>
<speed>0.8</speed>
<course>137.4</course>
<desc>Speed 0.8 km/h Distance 80.83 km</desc>
<time>2010-07-31T15:02:42.70</time>
<name>2371</name>
</trkpt>
<trkpt lat="48.851762" lon="11.016515">
<ele>594.0</ele>
<speed>0.4</speed>
<course>121.4</course>
<desc>Speed 0.4 km/h Distance 80.83 km</desc>
<time>2010-07-31T15:02:44.70</time>
<name>2372</name>
</trkpt>
<trkpt lat="48.851758" lon="11.016523">
<ele>595.0</ele>
<speed>0.4</speed>
<course>121.4</course>
<desc>Speed 0.4 km/h Distance 80.84 km</desc>
<time>2010-07-31T15:02:46.69</time>
<name>2373</name>
</trkpt>
<trkpt lat="48.851758" lon="11.016525">
<ele>595.0</ele>
<speed>0.3</speed>
<course>121.4</course>
<desc>Speed 0.3 km/h Distance 80.84 km</desc>
<time>2010-07-31T15:02:48.69</time>
<name>2374</name>
</trkpt>
<trkpt lat="48.851758" lon="11.016527">
<ele>595.0</ele>
<speed>0.2</speed>
<course>167.4</course>
<desc>Speed 0.2 km/h Distance 80.84 km</desc>
<time>2010-07-31T15:02:50.68</time>
<name>2375</name>
</trkpt>
<trkpt lat="48.851757" lon="11.016527">
<ele>595.5</ele>
<speed>0.1</speed>
<course>139.1</course>
<desc>Speed 0.1 km/h Distance 80.84 km</desc>
<time>2010-07-31T15:02:52.67</time>
<name>2376</name>
</trkpt>
<trkpt lat="48.851752" lon="11.016533">
<ele>596.0</ele>
<speed>1.1</speed>
<course>121.4</course>
<desc>Speed 1.1 km/h Distance 80.84 km</desc>
<time>2010-07-31T15:02:54.67</time>
<name>2377</name>
</trkpt>
<trkpt lat="48.851748" lon="11.016542">
<ele>597.0</ele>
<speed>2.3</speed>
<course>180.0</course>
<desc>Speed 2.3 km/h Distance 80.84 km</desc>
<time>2010-07-31T15:02:56.67</time>
<name>2378</name>
</trkpt>
<trkpt lat="48.851745" lon="11.016542">
<ele>597.5</ele>
<speed>0.2</speed>
<course>0.0</course>
<desc>Speed 0.2 km/h Distance 80.84 km</desc>
<time>2010-07-31T15:02:58.66</time>
<name>2379</name>
</trkpt>
<trkpt lat="48.851748" lon="11.016542">
<ele>597.5</ele>
<speed>1.8</speed>
<course>164.0</course>
<desc>Speed 1.8 km/h Distance 80.84 km</desc>
<time>2010-07-31T15:03:00.90</time>
<name>2380</name>
</trkpt>
<trkpt lat="48.851737" lon="11.016547">
<ele>597.5</ele>
<speed>0.3</speed>
<course>165.1</course>
<desc>Speed 0.3 km/h Distance 80.84 km</desc>
<time>2010-07-31T15:03:02.64</time>
<name>2381</name>
</trkpt>
<trkpt lat="48.851728" lon="11.016550">
<ele>598.0</ele>
<speed>0.9</speed>
<course>336.2</course>
<desc>Speed 0.9 km/h Distance 80.84 km</desc>
<time>2010-07-31T15:03:04.63</time>
<name>2382</name>
</trkpt>
<trkpt lat="48.851733" lon="11.016547">
<ele>599.0</ele>
<speed>0.3</speed>
<course>270.0</course>
<desc>Speed 0.3 km/h Distance 80.84 km</desc>
<time>2010-07-31T15:03:06.63</time>
<name>2383</name>
</trkpt>
<trkpt lat="48.851733" lon="11.016543">
<ele>599.5</ele>
<speed>0.7</speed>
<course>142.8</course>
<desc>Speed 0.7 km/h Distance 80.84 km</desc>
<time>2010-07-31T15:03:09.02</time>
<name>2384</name>
</trkpt>
<trkpt lat="48.851732" lon="11.016545">
<ele>599.5</ele>
<speed>0.3</speed>
<course>213.2</course>
<desc>Speed 0.3 km/h Distance 80.84 km</desc>
<time>2010-07-31T15:03:10.64</time>
<name>2385</name>
</trkpt>
<trkpt lat="48.851723" lon="11.016537">
<ele>600.5</ele>
<speed>0.2</speed>
<course>207.9</course>
<desc>Speed 0.2 km/h Distance 80.84 km</desc>
<time>2010-07-31T15:03:13.24</time>
<name>2386</name>
</trkpt>
<trkpt lat="48.851715" lon="11.016530">
<ele>600.5</ele>
<speed>3.5</speed>
<course>194.0</course>
<desc>Speed 3.5 km/h Distance 80.84 km</desc>
<time>2010-07-31T15:03:14.64</time>
<name>2387</name>
</trkpt>
<trkpt lat="48.851702" lon="11.016525">
<ele>600.0</ele>
<speed>0.9</speed>
<course>23.0</course>
<desc>Speed 0.9 km/h Distance 80.85 km</desc>
<time>2010-07-31T15:03:16.62</time>
<name>2388</name>
</trkpt>
<trkpt lat="48.851705" lon="11.016527">
<ele>600.0</ele>
<speed>0.9</speed>
<course>327.7</course>
<desc>Speed 0.9 km/h Distance 80.85 km</desc>
<time>2010-07-31T15:03:18.61</time>
<name>2389</name>
</trkpt>
<trkpt lat="48.851710" lon="11.016522">
<ele>600.5</ele>
<speed>0.6</speed>
<course>231.9</course>
<desc>Speed 0.6 km/h Distance 80.85 km</desc>
<time>2010-07-31T15:03:20.64</time>
<name>2390</name>
</trkpt>
<trkpt lat="48.851707" lon="11.016515">
<ele>600.5</ele>
<speed>0.3</speed>
<course>209.2</course>
<desc>Speed 0.3 km/h Distance 80.85 km</desc>
<time>2010-07-31T15:03:22.60</time>
<name>2391</name>
</trkpt>
<trkpt lat="48.851703" lon="11.016512">
<ele>600.5</ele>
<speed>0.5</speed>
<course>63.4</course>
<desc>Speed 0.5 km/h Distance 80.85 km</desc>
<time>2010-07-31T15:03:24.88</time>
<name>2392</name>
</trkpt>
<trkpt lat="48.851705" lon="11.016517">
<ele>601.0</ele>
<speed>0.9</speed>
<course>73.1</course>
<desc>Speed 0.9 km/h Distance 80.85 km</desc>
<time>2010-07-31T15:03:26.61</time>
<name>2393</name>
</trkpt>
<trkpt lat="48.851707" lon="11.016525">
<ele>600.5</ele>
<speed>0.3</speed>
<course>57.6</course>
<desc>Speed 0.3 km/h Distance 80.85 km</desc>
<time>2010-07-31T15:03:28.61</time>
<name>2394</name>
</trkpt>
<trkpt lat="48.851715" lon="11.016545">
<ele>600.0</ele>
<speed>1.6</speed>
<course>110.5</course>
<desc>Speed 1.6 km/h Distance 80.85 km</desc>
<time>2010-07-31T15:03:30.60</time>
<name>2395</name>
</trkpt>
<trkpt lat="48.851713" lon="11.016552">
<ele>600.5</ele>
<speed>1.3</speed>
<course>211.6</course>
<desc>Speed 1.3 km/h Distance 80.85 km</desc>
<time>2010-07-31T15:03:32.60</time>
<name>2396</name>
</trkpt>
<trkpt lat="48.851710" lon="11.016548">
<ele>601.0</ele>
<speed>1.0</speed>
<course>280.8</course>
<desc>Speed 1.0 km/h Distance 80.85 km</desc>
<time>2010-07-31T15:03:34.59</time>
<name>2397</name>
</trkpt>
<trkpt lat="48.851712" lon="11.016535">
<ele>600.0</ele>
<speed>4.1</speed>
<course>62.6</course>
<desc>Speed 4.1 km/h Distance 80.85 km</desc>
<time>2010-07-31T15:03:35.60</time>
<name>2398</name>
</trkpt>
<trkpt lat="48.851713" lon="11.016540">
<ele>600.0</ele>
<speed>0.1</speed>
<course>12.6</course>
<desc>Speed 0.1 km/h Distance 80.85 km</desc>
<time>2010-07-31T15:03:36.60</time>
<name>2399</name>
</trkpt>
<trkpt lat="48.851715" lon="11.016540">
<ele>600.0</ele>
<speed>0.1</speed>
<course>0.0</course>
<desc>Speed 0.1 km/h Distance 80.85 km</desc>
<time>2010-07-31T15:03:37.60</time>
<name>2400</name>
</trkpt>
<trkpt lat="48.851720" lon="11.016540">
<ele>600.0</ele>
<speed>0.1</speed>
<course>12.6</course>
<desc>Speed 0.1 km/h Distance 80.85 km</desc>
<time>2010-07-31T15:03:39.58</time>
<name>2401</name>
</trkpt>
<trkpt lat="48.851722" lon="11.016540">
<ele>600.0</ele>
<speed>0.1</speed>
<course>37.2</course>
<desc>Speed 0.1 km/h Distance 80.85 km</desc>
<time>2010-07-31T15:03:40.58</time>
<name>2402</name>
</trkpt>
<trkpt lat="48.851723" lon="11.016542">
<ele>600.0</ele>
<speed>0.4</speed>
<course>0.0</course>
<desc>Speed 0.4 km/h Distance 80.85 km</desc>
<time>2010-07-31T15:03:41.58</time>
<name>2403</name>
</trkpt>
<trkpt lat="48.851725" lon="11.016542">
<ele>600.0</ele>
<speed>0.5</speed>
<course>0.0</course>
<desc>Speed 0.5 km/h Distance 80.85 km</desc>
<time>2010-07-31T15:03:42.59</time>
<name>2404</name>
</trkpt>
<trkpt lat="48.851727" lon="11.016542">
<ele>599.5</ele>
<speed>0.5</speed>
<course>33.2</course>
<desc>Speed 0.5 km/h Distance 80.85 km</desc>
<time>2010-07-31T15:03:43.59</time>
<name>2405</name>
</trkpt>
<trkpt lat="48.851732" lon="11.016547">
<ele>599.5</ele>
<speed>0.3</speed>
<course>33.2</course>
<desc>Speed 0.3 km/h Distance 80.85 km</desc>
<time>2010-07-31T15:03:45.59</time>
<name>2406</name>
</trkpt>
<trkpt lat="48.851732" lon="11.016547">
<ele>599.0</ele>
<speed>0.2</speed>
<course>18.8</course>
<desc>Speed 0.2 km/h Distance 80.85 km</desc>
<time>2010-07-31T15:03:46.59</time>
<name>2407</name>
</trkpt>
<trkpt lat="48.851735" lon="11.016548">
<ele>599.0</ele>
<speed>0.8</speed>
<course>90.0</course>
<desc>Speed 0.8 km/h Distance 80.86 km</desc>
<time>2010-07-31T15:03:47.59</time>
<name>2408</name>
</trkpt>
<trkpt lat="48.851735" lon="11.016550">
<ele>598.5</ele>
<speed>0.6</speed>
<course>127.0</course>
<desc>Speed 0.6 km/h Distance 80.86 km</desc>
<time>2010-07-31T15:03:48.59</time>
<name>2409</name>
</trkpt>
<trkpt lat="48.851732" lon="11.016557">
<ele>598.5</ele>
<speed>1.9</speed>
<course>150.8</course>
<desc>Speed 1.9 km/h Distance 80.86 km</desc>
<time>2010-07-31T15:03:49.58</time>
<name>2410</name>
</trkpt>
<trkpt lat="48.851730" lon="11.016558">
<ele>598.0</ele>
<speed>0.7</speed>
<course>175.0</course>
<desc>Speed 0.7 km/h Distance 80.86 km</desc>
<time>2010-07-31T15:03:50.58</time>
<name>2411</name>
</trkpt>
<trkpt lat="48.851722" lon="11.016558">
<ele>597.5</ele>
<speed>2.5</speed>
<course>167.4</course>
<desc>Speed 2.5 km/h Distance 80.86 km</desc>
<time>2010-07-31T15:03:51.58</time>
<name>2412</name>
</trkpt>
<trkpt lat="48.851720" lon="11.016558">
<ele>598.0</ele>
<speed>0.9</speed>
<course>167.4</course>
<desc>Speed 0.9 km/h Distance 80.86 km</desc>
<time>2010-07-31T15:03:52.58</time>
<name>2413</name>
</trkpt>
<trkpt lat="48.851720" lon="11.016558">
<ele>598.0</ele>
<speed>0.5</speed>
<course>180.0</course>
<desc>Speed 0.5 km/h Distance 80.86 km</desc>
<time>2010-07-31T15:03:53.58</time>
<name>2414</name>
</trkpt>
<trkpt lat="48.851718" lon="11.016558">
<ele>598.0</ele>
<speed>2.2</speed>
<course>12.9</course>
<desc>Speed 2.2 km/h Distance 80.86 km</desc>
<time>2010-07-31T15:03:54.57</time>
<name>2415</name>
</trkpt>
<trkpt lat="48.851757" lon="11.016572">
<ele>598.0</ele>
<speed>3.7</speed>
<course>167.4</course>
<desc>Speed 3.7 km/h Distance 80.86 km</desc>
<time>2010-07-31T15:03:56.58</time>
<name>2416</name>
</trkpt>
<trkpt lat="48.851755" lon="11.016572">
<ele>597.5</ele>
<speed>0.1</speed>
<course>41.4</course>
<desc>Speed 0.1 km/h Distance 80.86 km</desc>
<time>2010-07-31T15:03:57.58</time>
<name>2417</name>
</trkpt>
<trkpt lat="48.851760" lon="11.016578">
<ele>598.0</ele>
<speed>1.7</speed>
<course>90.0</course>
<desc>Speed 1.7 km/h Distance 80.86 km</desc>
<time>2010-07-31T15:03:58.58</time>
<name>2418</name>
</trkpt>
<trkpt lat="48.851760" lon="11.016583">
<ele>598.5</ele>
<speed>1.0</speed>
<course>290.5</course>
<desc>Speed 1.0 km/h Distance 80.86 km</desc>
<time>2010-07-31T15:03:59.58</time>
<name>2419</name>
</trkpt>
<trkpt lat="48.851762" lon="11.016577">
<ele>598.0</ele>
<speed>0.8</speed>
<course>297.4</course>
<desc>Speed 0.8 km/h Distance 80.86 km</desc>
<time>2010-07-31T15:04:00.58</time>
<name>2420</name>
</trkpt>
<trkpt lat="48.851763" lon="11.016572">
<ele>597.5</ele>
<speed>0.6</speed>
<course>307.0</course>
<desc>Speed 0.6 km/h Distance 80.86 km</desc>
<time>2010-07-31T15:04:01.57</time>
<name>2421</name>
</trkpt>
<trkpt lat="48.851767" lon="11.016565">
<ele>597.5</ele>
<speed>1.1</speed>
<course>307.0</course>
<desc>Speed 1.1 km/h Distance 80.86 km</desc>
<time>2010-07-31T15:04:02.58</time>
<name>2422</name>
</trkpt>
<trkpt lat="48.851767" lon="11.016565">
<ele>597.5</ele>
<speed>0.7</speed>
<course>44.5</course>
<desc>Speed 0.7 km/h Distance 80.86 km</desc>
<time>2010-07-31T15:04:03.58</time>
<name>2423</name>
</trkpt>
<trkpt lat="48.851770" lon="11.016570">
<ele>598.0</ele>
<speed>0.5</speed>
<course>128.1</course>
<desc>Speed 0.5 km/h Distance 80.87 km</desc>
<time>2010-07-31T15:04:04.58</time>
<name>2424</name>
</trkpt>
<trkpt lat="48.851768" lon="11.016573">
<ele>598.0</ele>
<speed>1.5</speed>
<course>198.8</course>
<desc>Speed 1.5 km/h Distance 80.87 km</desc>
<time>2010-07-31T15:04:05.58</time>
<name>2425</name>
</trkpt>
<trkpt lat="48.851765" lon="11.016572">
<ele>598.0</ele>
<speed>2.2</speed>
<course>187.4</course>
<desc>Speed 2.2 km/h Distance 80.87 km</desc>
<time>2010-07-31T15:04:06.58</time>
<name>2426</name>
</trkpt>
<trkpt lat="48.851758" lon="11.016570">
<ele>597.5</ele>
<speed>2.3</speed>
<course>212.1</course>
<desc>Speed 2.3 km/h Distance 80.87 km</desc>
<time>2010-07-31T15:04:07.57</time>
<name>2427</name>
</trkpt>
<trkpt lat="48.851722" lon="11.016535">
<ele>596.5</ele>
<speed>6.2</speed>
<course>198.8</course>
<desc>Speed 6.2 km/h Distance 80.87 km</desc>
<time>2010-07-31T15:04:09.57</time>
<name>2428</name>
</trkpt>
<trkpt lat="48.851718" lon="11.016533">
<ele>596.0</ele>
<speed>1.2</speed>
<course>198.8</course>
<desc>Speed 1.2 km/h Distance 80.87 km</desc>
<time>2010-07-31T15:04:10.57</time>
<name>2429</name>
</trkpt>
<trkpt lat="48.851718" lon="11.016533">
<ele>596.0</ele>
<speed>0.7</speed>
<course>51.9</course>
<desc>Speed 0.7 km/h Distance 80.87 km</desc>
<time>2010-07-31T15:04:11.57</time>
<name>2430</name>
</trkpt>
<trkpt lat="48.851720" lon="11.016537">
<ele>595.5</ele>
<speed>1.2</speed>
<course>52.8</course>
<desc>Speed 1.2 km/h Distance 80.87 km</desc>
<time>2010-07-31T15:04:12.57</time>
<name>2431</name>
</trkpt>
<trkpt lat="48.851725" lon="11.016547">
<ele>596.5</ele>
<speed>0.3</speed>
<course>180.0</course>
<desc>Speed 0.3 km/h Distance 80.87 km</desc>
<time>2010-07-31T15:04:13.57</time>
<name>2432</name>
</trkpt>
<trkpt lat="48.851723" lon="11.016547">
<ele>596.5</ele>
<speed>0.4</speed>
<course>347.4</course>
<desc>Speed 0.4 km/h Distance 80.87 km</desc>
<time>2010-07-31T15:04:14.57</time>
<name>2433</name>
</trkpt>
<trkpt lat="48.851725" lon="11.016545">
<ele>596.5</ele>
<speed>0.3</speed>
<course>0.0</course>
<desc>Speed 0.3 km/h Distance 80.87 km</desc>
<time>2010-07-31T15:04:15.56</time>
<name>2434</name>
</trkpt>
<trkpt lat="48.851727" lon="11.016545">
<ele>596.5</ele>
<speed>0.4</speed>
<course>90.0</course>
<desc>Speed 0.4 km/h Distance 80.87 km</desc>
<time>2010-07-31T15:04:16.56</time>
<name>2435</name>
</trkpt>
<trkpt lat="48.851727" lon="11.016547">
<ele>596.5</ele>
<speed>0.4</speed>
<course>90.0</course>
<desc>Speed 0.4 km/h Distance 80.87 km</desc>
<time>2010-07-31T15:04:17.57</time>
<name>2436</name>
</trkpt>
<trkpt lat="48.851727" lon="11.016547">
<ele>596.5</ele>
<speed>0.2</speed>
<course>90.0</course>
<desc>Speed 0.2 km/h Distance 80.87 km</desc>
<time>2010-07-31T15:04:18.57</time>
<name>2437</name>
</trkpt>
<trkpt lat="48.851727" lon="11.016547">
<ele>596.5</ele>
<speed>0.2</speed>
<course>12.6</course>
<desc>Speed 0.2 km/h Distance 80.87 km</desc>
<time>2010-07-31T15:04:19.56</time>
<name>2438</name>
</trkpt>
<trkpt lat="48.851728" lon="11.016547">
<ele>596.5</ele>
<speed>0.5</speed>
<course>12.6</course>
<desc>Speed 0.5 km/h Distance 80.87 km</desc>
<time>2010-07-31T15:04:20.56</time>
<name>2439</name>
</trkpt>
<trkpt lat="48.851728" lon="11.016547">
<ele>597.0</ele>
<speed>0.2</speed>
<course>12.6</course>
<desc>Speed 0.2 km/h Distance 80.87 km</desc>
<time>2010-07-31T15:04:21.56</time>
<name>2440</name>
</trkpt>
<trkpt lat="48.851728" lon="11.016547">
<ele>597.0</ele>
<speed>0.5</speed>
<course>33.7</course>
<desc>Speed 0.5 km/h Distance 80.87 km</desc>
<time>2010-07-31T15:04:22.57</time>
<name>2441</name>
</trkpt>
<trkpt lat="48.851732" lon="11.016550">
<ele>598.0</ele>
<speed>0.9</speed>
<course>150.8</course>
<desc>Speed 0.9 km/h Distance 80.87 km</desc>
<time>2010-07-31T15:04:23.56</time>
<name>2442</name>
</trkpt>
<trkpt lat="48.851730" lon="11.016552">
<ele>598.0</ele>
<speed>0.8</speed>
<course>44.5</course>
<desc>Speed 0.8 km/h Distance 80.87 km</desc>
<time>2010-07-31T15:04:24.59</time>
<name>2443</name>
</trkpt>
<trkpt lat="48.851733" lon="11.016557">
<ele>599.5</ele>
<speed>2.0</speed>
<course>326.3</course>
<desc>Speed 2.0 km/h Distance 80.88 km</desc>
<time>2010-07-31T15:04:25.56</time>
<name>2444</name>
</trkpt>
<trkpt lat="48.851737" lon="11.016553">
<ele>599.0</ele>
<speed>0.3</speed>
<course>12.6</course>
<desc>Speed 0.3 km/h Distance 80.88 km</desc>
<time>2010-07-31T15:04:26.56</time>
<name>2445</name>
</trkpt>
<trkpt lat="48.851738" lon="11.016553">
<ele>599.5</ele>
<speed>0.5</speed>
<course>249.1</course>
<desc>Speed 0.5 km/h Distance 80.88 km</desc>
<time>2010-07-31T15:04:27.58</time>
<name>2446</name>
</trkpt>
<trkpt lat="48.851737" lon="11.016547">
<ele>598.0</ele>
<speed>1.4</speed>
<course>290.9</course>
<desc>Speed 1.4 km/h Distance 80.88 km</desc>
<time>2010-07-31T15:04:28.56</time>
<name>2447</name>
</trkpt>
<trkpt lat="48.851738" lon="11.016540">
<ele>597.0</ele>
<speed>0.2</speed>
<course>270.0</course>
<desc>Speed 0.2 km/h Distance 80.88 km</desc>
<time>2010-07-31T15:04:29.56</time>
<name>2448</name>
</trkpt>
<trkpt lat="48.851738" lon="11.016532">
<ele>595.5</ele>
<speed>0.4</speed>
<course>253.1</course>
<desc>Speed 0.4 km/h Distance 80.88 km</desc>
<time>2010-07-31T15:04:30.56</time>
<name>2449</name>
</trkpt>
<trkpt lat="48.851737" lon="11.016523">
<ele>594.0</ele>
<speed>0.4</speed>
<course>90.0</course>
<desc>Speed 0.4 km/h Distance 80.88 km</desc>
<time>2010-07-31T15:04:31.56</time>
<name>2450</name>
</trkpt>
<trkpt lat="48.851737" lon="11.016530">
<ele>595.5</ele>
<speed>1.2</speed>
<course>12.6</course>
<desc>Speed 1.2 km/h Distance 80.88 km</desc>
<time>2010-07-31T15:04:32.56</time>
<name>2451</name>
</trkpt>
<trkpt lat="48.851738" lon="11.016530">
<ele>595.5</ele>
<speed>0.4</speed>
<course>190.4</course>
<desc>Speed 0.4 km/h Distance 80.88 km</desc>
<time>2010-07-31T15:04:33.56</time>
<name>2452</name>
</trkpt>
<trkpt lat="48.851727" lon="11.016527">
<ele>593.5</ele>
<speed>0.8</speed>
<course>286.9</course>
<desc>Speed 0.8 km/h Distance 80.88 km</desc>
<time>2010-07-31T15:04:34.56</time>
<name>2453</name>
</trkpt>
<trkpt lat="48.851730" lon="11.016510">
<ele>591.0</ele>
<speed>1.7</speed>
<course>307.0</course>
<desc>Speed 1.7 km/h Distance 80.88 km</desc>
<time>2010-07-31T15:04:35.55</time>
<name>2454</name>
</trkpt>
<trkpt lat="48.851733" lon="11.016503">
<ele>590.5</ele>
<speed>1.0</speed>
<course>219.4</course>
<desc>Speed 1.0 km/h Distance 80.88 km</desc>
<time>2010-07-31T15:04:36.56</time>
<name>2455</name>
</trkpt>
<trkpt lat="48.851727" lon="11.016495">
<ele>588.5</ele>
<speed>1.0</speed>
<course>185.0</course>
<desc>Speed 1.0 km/h Distance 80.88 km</desc>
<time>2010-07-31T15:04:37.55</time>
<name>2456</name>
</trkpt>
<trkpt lat="48.851718" lon="11.016493">
<ele>588.5</ele>
<speed>2.3</speed>
<course>161.2</course>
<desc>Speed 2.3 km/h Distance 80.88 km</desc>
<time>2010-07-31T15:04:38.56</time>
<name>2457</name>
</trkpt>
<trkpt lat="48.851715" lon="11.016495">
<ele>588.0</ele>
<speed>1.4</speed>
<course>220.9</course>
<desc>Speed 1.4 km/h Distance 80.88 km</desc>
<time>2010-07-31T15:04:39.55</time>
<name>2458</name>
</trkpt>
<trkpt lat="48.851710" lon="11.016488">
<ele>586.0</ele>
<speed>2.4</speed>
<course>180.0</course>
<desc>Speed 2.4 km/h Distance 80.88 km</desc>
<time>2010-07-31T15:04:40.56</time>
<name>2459</name>
</trkpt>
<trkpt lat="48.851708" lon="11.016488">
<ele>586.0</ele>
<speed>0.6</speed>
<course>56.9</course>
<desc>Speed 0.6 km/h Distance 80.89 km</desc>
<time>2010-07-31T15:04:41.55</time>
<name>2460</name>
</trkpt>
<trkpt lat="48.851713" lon="11.016500">
<ele>584.0</ele>
<speed>1.8</speed>
<course>20.2</course>
<desc>Speed 1.8 km/h Distance 80.89 km</desc>
<time>2010-07-31T15:04:42.55</time>
<name>2461</name>
</trkpt>
<trkpt lat="48.851725" lon="11.016507">
<ele>583.5</ele>
<speed>0.9</speed>
<course>18.2</course>
<desc>Speed 0.9 km/h Distance 80.89 km</desc>
<time>2010-07-31T15:04:43.55</time>
<name>2462</name>
</trkpt>
<trkpt lat="48.851735" lon="11.016512">
<ele>585.5</ele>
<speed>0.8</speed>
<course>233.0</course>
<desc>Speed 0.8 km/h Distance 80.89 km</desc>
<time>2010-07-31T15:04:44.55</time>
<name>2463</name>
</trkpt>
<trkpt lat="48.851732" lon="11.016505">
<ele>585.0</ele>
<speed>1.4</speed>
<course>322.8</course>
<desc>Speed 1.4 km/h Distance 80.89 km</desc>
<time>2010-07-31T15:04:45.55</time>
<name>2464</name>
</trkpt>
<trkpt lat="48.851733" lon="11.016503">
<ele>585.0</ele>
<speed>0.6</speed>
<course>37.2</course>
<desc>Speed 0.6 km/h Distance 80.89 km</desc>
<time>2010-07-31T15:04:46.54</time>
<name>2465</name>
</trkpt>
<trkpt lat="48.851735" lon="11.016505">
<ele>585.5</ele>
<speed>0.2</speed>
<course>63.4</course>
<desc>Speed 0.2 km/h Distance 80.89 km</desc>
<time>2010-07-31T15:04:47.55</time>
<name>2466</name>
</trkpt>
<trkpt lat="48.851737" lon="11.016510">
<ele>585.5</ele>
<speed>0.7</speed>
<course>69.1</course>
<desc>Speed 0.7 km/h Distance 80.89 km</desc>
<time>2010-07-31T15:04:48.55</time>
<name>2467</name>
</trkpt>
<trkpt lat="48.851738" lon="11.016517">
<ele>586.0</ele>
<speed>0.8</speed>
<course>29.4</course>
<desc>Speed 0.8 km/h Distance 80.89 km</desc>
<time>2010-07-31T15:04:49.55</time>
<name>2468</name>
</trkpt>
<trkpt lat="48.851750" lon="11.016527">
<ele>586.5</ele>
<speed>1.9</speed>
<course>90.0</course>
<desc>Speed 1.9 km/h Distance 80.89 km</desc>
<time>2010-07-31T15:04:50.55</time>
<name>2469</name>
</trkpt>
<trkpt lat="48.851750" lon="11.016535">
<ele>586.5</ele>
<speed>1.3</speed>
<course>150.8</course>
<desc>Speed 1.3 km/h Distance 80.89 km</desc>
<time>2010-07-31T15:04:51.55</time>
<name>2470</name>
</trkpt>
<trkpt lat="48.851748" lon="11.016535">
<ele>586.5</ele>
<speed>0.0</speed>
<course>233.0</course>
<desc>Speed 0.0 km/h Distance 80.89 km</desc>
<time>2010-07-31T15:04:52.55</time>
<name>2471</name>
</trkpt>
<trkpt lat="48.851745" lon="11.016528">
<ele>586.0</ele>
<speed>1.0</speed>
<course>180.0</course>
<desc>Speed 1.0 km/h Distance 80.89 km</desc>
<time>2010-07-31T15:04:53.54</time>
<name>2472</name>
</trkpt>
<trkpt lat="48.851740" lon="11.016528">
<ele>586.0</ele>
<speed>0.3</speed>
<course>167.4</course>
<desc>Speed 0.3 km/h Distance 80.89 km</desc>
<time>2010-07-31T15:04:54.54</time>
<name>2473</name>
</trkpt>
<trkpt lat="48.851737" lon="11.016528">
<ele>585.5</ele>
<speed>0.0</speed>
<course>37.2</course>
<desc>Speed 0.0 km/h Distance 80.89 km</desc>
<time>2010-07-31T15:04:55.54</time>
<name>2474</name>
</trkpt>
<trkpt lat="48.851738" lon="11.016530">
<ele>585.0</ele>
<speed>0.6</speed>
<course>90.0</course>
<desc>Speed 0.6 km/h Distance 80.89 km</desc>
<time>2010-07-31T15:04:56.54</time>
<name>2475</name>
</trkpt>
<trkpt lat="48.851738" lon="11.016535">
<ele>584.5</ele>
<speed>1.1</speed>
<course>12.6</course>
<desc>Speed 1.1 km/h Distance 80.90 km</desc>
<time>2010-07-31T15:04:57.54</time>
<name>2476</name>
</trkpt>
<trkpt lat="48.851740" lon="11.016535">
<ele>584.0</ele>
<speed>0.4</speed>
<course>167.4</course>
<desc>Speed 0.4 km/h Distance 80.90 km</desc>
<time>2010-07-31T15:04:58.54</time>
<name>2477</name>
</trkpt>
<trkpt lat="48.851738" lon="11.016535">
<ele>583.0</ele>
<speed>0.8</speed>
<course>90.0</course>
<desc>Speed 0.8 km/h Distance 80.90 km</desc>
<time>2010-07-31T15:04:59.54</time>
<name>2478</name>
</trkpt>
<trkpt lat="48.851738" lon="11.016537">
<ele>583.0</ele>
<speed>0.2</speed>
<course>62.6</course>
<desc>Speed 0.2 km/h Distance 80.90 km</desc>
<time>2010-07-31T15:05:00.54</time>
<name>2479</name>
</trkpt>
<trkpt lat="48.851740" lon="11.016542">
<ele>583.5</ele>
<speed>0.0</speed>
<course>90.0</course>
<desc>Speed 0.0 km/h Distance 80.90 km</desc>
<time>2010-07-31T15:05:01.54</time>
<name>2480</name>
</trkpt>
<trkpt lat="48.851740" lon="11.016543">
<ele>583.5</ele>
<speed>0.1</speed>
<course>90.0</course>
<desc>Speed 0.1 km/h Distance 80.90 km</desc>
<time>2010-07-31T15:05:02.54</time>
<name>2481</name>
</trkpt>
<trkpt lat="48.851740" lon="11.016548">
<ele>584.0</ele>
<speed>0.5</speed>
<course>29.2</course>
<desc>Speed 0.5 km/h Distance 80.90 km</desc>
<time>2010-07-31T15:05:03.53</time>
<name>2482</name>
</trkpt>
<trkpt lat="48.851742" lon="11.016550">
<ele>584.0</ele>
<speed>0.1</speed>
<course>90.0</course>
<desc>Speed 0.1 km/h Distance 80.90 km</desc>
<time>2010-07-31T15:05:04.53</time>
<name>2483</name>
</trkpt>
<trkpt lat="48.851742" lon="11.016552">
<ele>584.0</ele>
<speed>0.2</speed>
<course>90.0</course>
<desc>Speed 0.2 km/h Distance 80.90 km</desc>
<time>2010-07-31T15:05:05.53</time>
<name>2484</name>
</trkpt>
<trkpt lat="48.851742" lon="11.016553">
<ele>584.5</ele>
<speed>0.2</speed>
<course>90.0</course>
<desc>Speed 0.2 km/h Distance 80.90 km</desc>
<time>2010-07-31T15:05:06.53</time>
<name>2485</name>
</trkpt>
<trkpt lat="48.851742" lon="11.016555">
<ele>584.5</ele>
<speed>0.5</speed>
<course>90.0</course>
<desc>Speed 0.5 km/h Distance 80.90 km</desc>
<time>2010-07-31T15:05:07.53</time>
<name>2486</name>
</trkpt>
<trkpt lat="48.851742" lon="11.016555">
<ele>584.5</ele>
<speed>0.5</speed>
<course>90.0</course>
<desc>Speed 0.5 km/h Distance 80.90 km</desc>
<time>2010-07-31T15:05:08.53</time>
<name>2487</name>
</trkpt>
<trkpt lat="48.851742" lon="11.016555">
<ele>585.0</ele>
<speed>0.3</speed>
<course>259.2</course>
<desc>Speed 0.3 km/h Distance 80.90 km</desc>
<time>2010-07-31T15:05:09.52</time>
<name>2488</name>
</trkpt>
<trkpt lat="48.851740" lon="11.016542">
<ele>583.5</ele>
<speed>3.5</speed>
<course>29.2</course>
<desc>Speed 3.5 km/h Distance 80.90 km</desc>
<time>2010-07-31T15:05:10.53</time>
<name>2489</name>
</trkpt>
<trkpt lat="48.851742" lon="11.016543">
<ele>584.5</ele>
<speed>0.0</speed>
<course>33.7</course>
<desc>Speed 0.0 km/h Distance 80.90 km</desc>
<time>2010-07-31T15:05:11.52</time>
<name>2490</name>
</trkpt>
<trkpt lat="48.851745" lon="11.016547">
<ele>586.0</ele>
<speed>0.6</speed>
<course>90.0</course>
<desc>Speed 0.6 km/h Distance 80.90 km</desc>
<time>2010-07-31T15:05:12.53</time>
<name>2491</name>
</trkpt>
<trkpt lat="48.851745" lon="11.016548">
<ele>586.5</ele>
<speed>0.4</speed>
<course>33.7</course>
<desc>Speed 0.4 km/h Distance 80.90 km</desc>
<time>2010-07-31T15:05:13.52</time>
<name>2492</name>
</trkpt>
<trkpt lat="48.851748" lon="11.016552">
<ele>586.5</ele>
<speed>1.3</speed>
<course>33.2</course>
<desc>Speed 1.3 km/h Distance 80.90 km</desc>
<time>2010-07-31T15:05:14.53</time>
<name>2493</name>
</trkpt>
<trkpt lat="48.851757" lon="11.016560">
<ele>587.0</ele>
<speed>3.2</speed>
<course>2.2</course>
<desc>Speed 3.2 km/h Distance 80.90 km</desc>
<time>2010-07-31T15:05:15.53</time>
<name>2494</name>
</trkpt>
<trkpt lat="48.851768" lon="11.016560">
<ele>587.5</ele>
<speed>3.8</speed>
<course>17.5</course>
<desc>Speed 3.8 km/h Distance 80.90 km</desc>
<time>2010-07-31T15:05:16.53</time>
<name>2495</name>
</trkpt>
<trkpt lat="48.851775" lon="11.016563">
<ele>587.5</ele>
<speed>2.4</speed>
<course>243.1</course>
<desc>Speed 2.4 km/h Distance 80.90 km</desc>
<time>2010-07-31T15:05:17.52</time>
<name>2496</name>
</trkpt>
<trkpt lat="48.851770" lon="11.016548">
<ele>588.0</ele>
<speed>5.3</speed>
<course>27.9</course>
<desc>Speed 5.3 km/h Distance 80.90 km</desc>
<time>2010-07-31T15:05:18.53</time>
<name>2497</name>
</trkpt>
<trkpt lat="48.851778" lon="11.016555">
<ele>589.0</ele>
<speed>2.8</speed>
<course>0.0</course>
<desc>Speed 2.8 km/h Distance 80.90 km</desc>
<time>2010-07-31T15:05:19.53</time>
<name>2498</name>
</trkpt>
<trkpt lat="48.851783" lon="11.016555">
<ele>589.0</ele>
<speed>2.8</speed>
<course>357.8</course>
<desc>Speed 2.8 km/h Distance 80.91 km</desc>
<time>2010-07-31T15:05:20.52</time>
<name>2499</name>
</trkpt>
<trkpt lat="48.851807" lon="11.016553">
<ele>589.0</ele>
<speed>8.4</speed>
<course>11.2</course>
<desc>Speed 8.4 km/h Distance 80.91 km</desc>
<time>2010-07-31T15:05:21.52</time>
<name>2500</name>
</trkpt>
<trkpt lat="48.851818" lon="11.016557">
<ele>589.5</ele>
<speed>4.3</speed>
<course>12.6</course>
<desc>Speed 4.3 km/h Distance 80.91 km</desc>
<time>2010-07-31T15:05:22.53</time>
<name>2501</name>
</trkpt>
<trkpt lat="48.851822" lon="11.016558">
<ele>589.5</ele>
<speed>2.1</speed>
<course>337.7</course>
<desc>Speed 2.1 km/h Distance 80.91 km</desc>
<time>2010-07-31T15:05:23.52</time>
<name>2502</name>
</trkpt>
<trkpt lat="48.851835" lon="11.016550">
<ele>590.0</ele>
<speed>3.3</speed>
<course>348.4</course>
<desc>Speed 3.3 km/h Distance 80.91 km</desc>
<time>2010-07-31T15:05:24.52</time>
<name>2503</name>
</trkpt>
<trkpt lat="48.851845" lon="11.016547">
<ele>590.0</ele>
<speed>3.6</speed>
<course>344.5</course>
<desc>Speed 3.6 km/h Distance 80.91 km</desc>
<time>2010-07-31T15:05:25.52</time>
<name>2504</name>
</trkpt>
<trkpt lat="48.851857" lon="11.016542">
<ele>590.0</ele>
<speed>4.7</speed>
<course>341.9</course>
<desc>Speed 4.7 km/h Distance 80.91 km</desc>
<time>2010-07-31T15:05:26.52</time>
<name>2505</name>
</trkpt>
<trkpt lat="48.851873" lon="11.016533">
<ele>590.0</ele>
<speed>5.6</speed>
<course>343.4</course>
<desc>Speed 5.6 km/h Distance 80.92 km</desc>
<time>2010-07-31T15:05:27.53</time>
<name>2506</name>
</trkpt>
<trkpt lat="48.851892" lon="11.016525">
<ele>590.5</ele>
<speed>5.6</speed>
<course>356.2</course>
<desc>Speed 5.6 km/h Distance 80.92 km</desc>
<time>2010-07-31T15:05:28.52</time>
<name>2507</name>
</trkpt>
<trkpt lat="48.851907" lon="11.016523">
<ele>591.0</ele>
<speed>5.6</speed>
<course>2.2</course>
<desc>Speed 5.6 km/h Distance 80.92 km</desc>
<time>2010-07-31T15:05:29.52</time>
<name>2508</name>
</trkpt>
<trkpt lat="48.851918" lon="11.016523">
<ele>591.5</ele>
<speed>4.4</speed>
<course>344.0</course>
<desc>Speed 4.4 km/h Distance 80.92 km</desc>
<time>2010-07-31T15:05:30.52</time>
<name>2509</name>
</trkpt>
<trkpt lat="48.851930" lon="11.016518">
<ele>591.5</ele>
<speed>3.7</speed>
<course>340.3</course>
<desc>Speed 3.7 km/h Distance 80.92 km</desc>
<time>2010-07-31T15:05:31.52</time>
<name>2510</name>
</trkpt>
<trkpt lat="48.851948" lon="11.016508">
<ele>591.5</ele>
<speed>4.5</speed>
<course>320.6</course>
<desc>Speed 4.5 km/h Distance 80.92 km</desc>
<time>2010-07-31T15:05:32.52</time>
<name>2511</name>
</trkpt>
<trkpt lat="48.851955" lon="11.016500">
<ele>591.5</ele>
<speed>3.7</speed>
<course>64.6</course>
<desc>Speed 3.7 km/h Distance 80.93 km</desc>
<time>2010-07-31T15:05:33.52</time>
<name>2512</name>
</trkpt>
<trkpt lat="48.851963" lon="11.016527">
<ele>591.5</ele>
<speed>8.2</speed>
<course>348.8</course>
<desc>Speed 8.2 km/h Distance 80.93 km</desc>
<time>2010-07-31T15:05:34.52</time>
<name>2513</name>
</trkpt>
<trkpt lat="48.851975" lon="11.016523">
<ele>592.0</ele>
<speed>4.3</speed>
<course>315.5</course>
<desc>Speed 4.3 km/h Distance 80.93 km</desc>
<time>2010-07-31T15:05:35.51</time>
<name>2514</name>
</trkpt>
<trkpt lat="48.851978" lon="11.016518">
<ele>592.0</ele>
<speed>2.1</speed>
<course>327.7</course>
<desc>Speed 2.1 km/h Distance 80.93 km</desc>
<time>2010-07-31T15:05:36.51</time>
<name>2515</name>
</trkpt>
<trkpt lat="48.851983" lon="11.016513">
<ele>592.0</ele>
<speed>0.5</speed>
<course>192.6</course>
<desc>Speed 0.5 km/h Distance 80.93 km</desc>
<time>2010-07-31T15:05:37.50</time>
<name>2516</name>
</trkpt>
<trkpt lat="48.851982" lon="11.016512">
<ele>592.0</ele>
<speed>1.3</speed>
<course>12.6</course>
<desc>Speed 1.3 km/h Distance 80.93 km</desc>
<time>2010-07-31T15:05:38.51</time>
<name>2517</name>
</trkpt>
<trkpt lat="48.851985" lon="11.016513">
<ele>592.5</ele>
<speed>0.2</speed>
<course>12.6</course>
<desc>Speed 0.2 km/h Distance 80.93 km</desc>
<time>2010-07-31T15:05:39.51</time>
<name>2518</name>
</trkpt>
<trkpt lat="48.851987" lon="11.016513">
<ele>592.5</ele>
<speed>0.3</speed>
<course>90.0</course>
<desc>Speed 0.3 km/h Distance 80.93 km</desc>
<time>2010-07-31T15:05:40.51</time>
<name>2519</name>
</trkpt>
<trkpt lat="48.851987" lon="11.016515">
<ele>592.5</ele>
<speed>0.0</speed>
<course>90.0</course>
<desc>Speed 0.0 km/h Distance 80.93 km</desc>
<time>2010-07-31T15:05:41.50</time>
<name>2520</name>
</trkpt>
<trkpt lat="48.851987" lon="11.016518">
<ele>592.5</ele>
<speed>0.2</speed>
<course>26.4</course>
<desc>Speed 0.2 km/h Distance 80.93 km</desc>
<time>2010-07-31T15:05:42.50</time>
<name>2521</name>
</trkpt>
<trkpt lat="48.851993" lon="11.016523">
<ele>593.0</ele>
<speed>1.4</speed>
<course>18.8</course>
<desc>Speed 1.4 km/h Distance 80.93 km</desc>
<time>2010-07-31T15:05:43.51</time>
<name>2522</name>
</trkpt>
<trkpt lat="48.852000" lon="11.016527">
<ele>593.5</ele>
<speed>0.3</speed>
<course>12.6</course>
<desc>Speed 0.3 km/h Distance 80.93 km</desc>
<time>2010-07-31T15:05:44.50</time>
<name>2523</name>
</trkpt>
<trkpt lat="48.852002" lon="11.016527">
<ele>593.5</ele>
<speed>0.4</speed>
<course>0.0</course>
<desc>Speed 0.4 km/h Distance 80.93 km</desc>
<time>2010-07-31T15:05:45.50</time>
<name>2524</name>
</trkpt>
<trkpt lat="48.852003" lon="11.016527">
<ele>593.5</ele>
<speed>0.2</speed>
<course>0.0</course>
<desc>Speed 0.2 km/h Distance 80.93 km</desc>
<time>2010-07-31T15:05:46.50</time>
<name>2525</name>
</trkpt>
<trkpt lat="48.852003" lon="11.016527">
<ele>593.5</ele>
<speed>0.5</speed>
<course>0.0</course>
<desc>Speed 0.5 km/h Distance 80.93 km</desc>
<time>2010-07-31T15:05:47.50</time>
<name>2526</name>
</trkpt>
<trkpt lat="48.852007" lon="11.016527">
<ele>593.5</ele>
<speed>1.3</speed>
<course>322.8</course>
<desc>Speed 1.3 km/h Distance 80.93 km</desc>
<time>2010-07-31T15:05:48.50</time>
<name>2527</name>
</trkpt>
<trkpt lat="48.852008" lon="11.016525">
<ele>594.0</ele>
<speed>0.5</speed>
<course>12.6</course>
<desc>Speed 0.5 km/h Distance 80.93 km</desc>
<time>2010-07-31T15:05:49.50</time>
<name>2528</name>
</trkpt>
<trkpt lat="48.852010" lon="11.016525">
<ele>594.0</ele>
<speed>0.4</speed>
<course>12.6</course>
<desc>Speed 0.4 km/h Distance 80.93 km</desc>
<time>2010-07-31T15:05:50.50</time>
<name>2529</name>
</trkpt>
<trkpt lat="48.852010" lon="11.016523">
<ele>594.0</ele>
<speed>0.6</speed>
<course>347.4</course>
<desc>Speed 0.6 km/h Distance 80.93 km</desc>
<time>2010-07-31T15:05:51.50</time>
<name>2530</name>
</trkpt>
<trkpt lat="48.852015" lon="11.016522">
<ele>593.5</ele>
<speed>0.9</speed>
<course>347.4</course>
<desc>Speed 0.9 km/h Distance 80.93 km</desc>
<time>2010-07-31T15:05:52.50</time>
<name>2531</name>
</trkpt>
<trkpt lat="48.852015" lon="11.016522">
<ele>593.5</ele>
<speed>0.1</speed>
<course>322.8</course>
<desc>Speed 0.1 km/h Distance 80.93 km</desc>
<time>2010-07-31T15:05:53.50</time>
<name>2532</name>
</trkpt>
<trkpt lat="48.852017" lon="11.016520">
<ele>593.5</ele>
<speed>0.3</speed>
<course>12.6</course>
<desc>Speed 0.3 km/h Distance 80.93 km</desc>
<time>2010-07-31T15:05:54.50</time>
<name>2533</name>
</trkpt>
<trkpt lat="48.852018" lon="11.016520">
<ele>593.0</ele>
<speed>0.3</speed>
<course>330.8</course>
<desc>Speed 0.3 km/h Distance 80.93 km</desc>
<time>2010-07-31T15:05:55.50</time>
<name>2534</name>
</trkpt>
<trkpt lat="48.852020" lon="11.016518">
<ele>593.0</ele>
<speed>0.4</speed>
<course>0.0</course>
<desc>Speed 0.4 km/h Distance 80.94 km</desc>
<time>2010-07-31T15:05:56.50</time>
<name>2535</name>
</trkpt>
<trkpt lat="48.852023" lon="11.016518">
<ele>593.0</ele>
<speed>0.4</speed>
<course>12.6</course>
<desc>Speed 0.4 km/h Distance 80.94 km</desc>
<time>2010-07-31T15:05:57.50</time>
<name>2536</name>
</trkpt>
<trkpt lat="48.852027" lon="11.016520">
<ele>593.0</ele>
<speed>0.1</speed>
<course>347.4</course>
<desc>Speed 0.1 km/h Distance 80.94 km</desc>
<time>2010-07-31T15:05:58.50</time>
<name>2537</name>
</trkpt>
<trkpt lat="48.852028" lon="11.016518">
<ele>593.5</ele>
<speed>0.3</speed>
<course>0.0</course>
<desc>Speed 0.3 km/h Distance 80.94 km</desc>
<time>2010-07-31T15:05:59.50</time>
<name>2538</name>
</trkpt>
<trkpt lat="48.852032" lon="11.016518">
<ele>593.5</ele>
<speed>0.1</speed>
<course>0.0</course>
<desc>Speed 0.1 km/h Distance 80.94 km</desc>
<time>2010-07-31T15:06:00.49</time>
<name>2539</name>
</trkpt>
<trkpt lat="48.852032" lon="11.016518">
<ele>593.5</ele>
<speed>0.3</speed>
<course>231.9</course>
<desc>Speed 0.3 km/h Distance 80.94 km</desc>
<time>2010-07-31T15:06:01.49</time>
<name>2540</name>
</trkpt>
<trkpt lat="48.852030" lon="11.016515">
<ele>593.5</ele>
<speed>1.0</speed>
<course>90.0</course>
<desc>Speed 1.0 km/h Distance 80.94 km</desc>
<time>2010-07-31T15:06:02.49</time>
<name>2541</name>
</trkpt>
<trkpt lat="48.852030" lon="11.016518">
<ele>593.0</ele>
<speed>1.3</speed>
<course>33.7</course>
<desc>Speed 1.3 km/h Distance 80.94 km</desc>
<time>2010-07-31T15:06:03.50</time>
<name>2542</name>
</trkpt>
<trkpt lat="48.852033" lon="11.016522">
<ele>593.5</ele>
<speed>1.1</speed>
<course>322.8</course>
<desc>Speed 1.1 km/h Distance 80.94 km</desc>
<time>2010-07-31T15:06:04.50</time>
<name>2543</name>
</trkpt>
<trkpt lat="48.852035" lon="11.016520">
<ele>593.5</ele>
<speed>0.1</speed>
<course>322.8</course>
<desc>Speed 0.1 km/h Distance 80.94 km</desc>
<time>2010-07-31T15:06:05.50</time>
<name>2544</name>
</trkpt>
<trkpt lat="48.852035" lon="11.016520">
<ele>593.5</ele>
<speed>0.5</speed>
<course>306.1</course>
<desc>Speed 0.5 km/h Distance 80.94 km</desc>
<time>2010-07-31T15:06:06.50</time>
<name>2545</name>
</trkpt>
<trkpt lat="48.852037" lon="11.016517">
<ele>593.5</ele>
<speed>0.2</speed>
<course>12.6</course>
<desc>Speed 0.2 km/h Distance 80.94 km</desc>
<time>2010-07-31T15:06:07.49</time>
<name>2546</name>
</trkpt>
<trkpt lat="48.852038" lon="11.016517">
<ele>593.5</ele>
<speed>0.3</speed>
<course>270.0</course>
<desc>Speed 0.3 km/h Distance 80.94 km</desc>
<time>2010-07-31T15:06:08.50</time>
<name>2547</name>
</trkpt>
<trkpt lat="48.852038" lon="11.016515">
<ele>593.5</ele>
<speed>0.5</speed>
<course>330.8</course>
<desc>Speed 0.5 km/h Distance 80.94 km</desc>
<time>2010-07-31T15:06:09.49</time>
<name>2548</name>
</trkpt>
<trkpt lat="48.852040" lon="11.016513">
<ele>593.5</ele>
<speed>0.1</speed>
<course>209.2</course>
<desc>Speed 0.1 km/h Distance 80.94 km</desc>
<time>2010-07-31T15:06:10.49</time>
<name>2549</name>
</trkpt>
<trkpt lat="48.852038" lon="11.016512">
<ele>593.0</ele>
<speed>0.2</speed>
<course>209.2</course>
<desc>Speed 0.2 km/h Distance 80.94 km</desc>
<time>2010-07-31T15:06:11.49</time>
<name>2550</name>
</trkpt>
<trkpt lat="48.852038" lon="11.016512">
<ele>593.0</ele>
<speed>0.3</speed>
<course>209.2</course>
<desc>Speed 0.3 km/h Distance 80.94 km</desc>
<time>2010-07-31T15:06:12.49</time>
<name>2551</name>
</trkpt>
<trkpt lat="48.852038" lon="11.016512">
<ele>593.0</ele>
<speed>0.2</speed>
<course>209.2</course>
<desc>Speed 0.2 km/h Distance 80.94 km</desc>
<time>2010-07-31T15:06:13.49</time>
<name>2552</name>
</trkpt>
<trkpt lat="48.852038" lon="11.016512">
<ele>593.0</ele>
<speed>0.4</speed>
<course>167.4</course>
<desc>Speed 0.4 km/h Distance 80.94 km</desc>
<time>2010-07-31T15:06:14.48</time>
<name>2553</name>
</trkpt>
<trkpt lat="48.852037" lon="11.016512">
<ele>593.0</ele>
<speed>0.5</speed>
<course>167.4</course>
<desc>Speed 0.5 km/h Distance 80.94 km</desc>
<time>2010-07-31T15:06:15.48</time>
<name>2554</name>
</trkpt>
<trkpt lat="48.852037" lon="11.016512">
<ele>593.0</ele>
<speed>0.2</speed>
<course>167.4</course>
<desc>Speed 0.2 km/h Distance 80.94 km</desc>
<time>2010-07-31T15:06:16.49</time>
<name>2555</name>
</trkpt>
<trkpt lat="48.852035" lon="11.016512">
<ele>593.0</ele>
<speed>0.1</speed>
<course>167.4</course>
<desc>Speed 0.1 km/h Distance 80.94 km</desc>
<time>2010-07-31T15:06:17.49</time>
<name>2556</name>
</trkpt>
<trkpt lat="48.852035" lon="11.016512">
<ele>593.0</ele>
<speed>0.1</speed>
<course>180.0</course>
<desc>Speed 0.1 km/h Distance 80.94 km</desc>
<time>2010-07-31T15:06:18.49</time>
<name>2557</name>
</trkpt>
<trkpt lat="48.852030" lon="11.016512">
<ele>593.0</ele>
<speed>1.3</speed>
<course>192.6</course>
<desc>Speed 1.3 km/h Distance 80.94 km</desc>
<time>2010-07-31T15:06:19.49</time>
<name>2558</name>
</trkpt>
<trkpt lat="48.852025" lon="11.016510">
<ele>593.0</ele>
<speed>1.8</speed>
<course>180.0</course>
<desc>Speed 1.8 km/h Distance 80.94 km</desc>
<time>2010-07-31T15:06:20.48</time>
<name>2559</name>
</trkpt>
<trkpt lat="48.852017" lon="11.016510">
<ele>593.0</ele>
<speed>3.5</speed>
<course>167.4</course>
<desc>Speed 3.5 km/h Distance 80.94 km</desc>
<time>2010-07-31T15:06:21.49</time>
<name>2560</name>
</trkpt>
<trkpt lat="48.852012" lon="11.016512">
<ele>593.0</ele>
<speed>1.9</speed>
<course>167.4</course>
<desc>Speed 1.9 km/h Distance 80.94 km</desc>
<time>2010-07-31T15:06:22.48</time>
<name>2561</name>
</trkpt>
<trkpt lat="48.852010" lon="11.016512">
<ele>593.0</ele>
<speed>0.3</speed>
<course>180.0</course>
<desc>Speed 0.3 km/h Distance 80.94 km</desc>
<time>2010-07-31T15:06:23.48</time>
<name>2562</name>
</trkpt>
<trkpt lat="48.852007" lon="11.016512">
<ele>593.0</ele>
<speed>0.1</speed>
<course>192.6</course>
<desc>Speed 0.1 km/h Distance 80.94 km</desc>
<time>2010-07-31T15:06:24.48</time>
<name>2563</name>
</trkpt>
<trkpt lat="48.852003" lon="11.016510">
<ele>593.5</ele>
<speed>0.1</speed>
<course>192.6</course>
<desc>Speed 0.1 km/h Distance 80.94 km</desc>
<time>2010-07-31T15:06:25.48</time>
<name>2564</name>
</trkpt>
<trkpt lat="48.852003" lon="11.016510">
<ele>593.5</ele>
<speed>0.2</speed>
<course>192.6</course>
<desc>Speed 0.2 km/h Distance 80.94 km</desc>
<time>2010-07-31T15:06:26.48</time>
<name>2565</name>
</trkpt>
<trkpt lat="48.852002" lon="11.016508">
<ele>593.5</ele>
<speed>0.1</speed>
<course>209.2</course>
<desc>Speed 0.1 km/h Distance 80.94 km</desc>
<time>2010-07-31T15:06:27.50</time>
<name>2566</name>
</trkpt>
<trkpt lat="48.852000" lon="11.016507">
<ele>593.0</ele>
<speed>0.1</speed>
<course>209.2</course>
<desc>Speed 0.1 km/h Distance 80.94 km</desc>
<time>2010-07-31T15:06:28.47</time>
<name>2567</name>
</trkpt>
<trkpt lat="48.852000" lon="11.016507">
<ele>593.0</ele>
<speed>0.2</speed>
<course>209.2</course>
<desc>Speed 0.2 km/h Distance 80.94 km</desc>
<time>2010-07-31T15:06:29.48</time>
<name>2568</name>
</trkpt>
<trkpt lat="48.852000" lon="11.016507">
<ele>593.5</ele>
<speed>0.2</speed>
<course>209.2</course>
<desc>Speed 0.2 km/h Distance 80.94 km</desc>
<time>2010-07-31T15:06:30.48</time>
<name>2569</name>
</trkpt>
<trkpt lat="48.852000" lon="11.016507">
<ele>593.5</ele>
<speed>0.5</speed>
<course>209.2</course>
<desc>Speed 0.5 km/h Distance 80.94 km</desc>
<time>2010-07-31T15:06:31.47</time>
<name>2570</name>
</trkpt>
<trkpt lat="48.852000" lon="11.016507">
<ele>593.5</ele>
<speed>0.4</speed>
<course>209.2</course>
<desc>Speed 0.4 km/h Distance 80.94 km</desc>
<time>2010-07-31T15:06:32.47</time>
<name>2571</name>
</trkpt>
<trkpt lat="48.852000" lon="11.016507">
<ele>593.5</ele>
<speed>0.3</speed>
<course>209.2</course>
<desc>Speed 0.3 km/h Distance 80.94 km</desc>
<time>2010-07-31T15:06:33.48</time>
<name>2572</name>
</trkpt>
<trkpt lat="48.852000" lon="11.016507">
<ele>593.5</ele>
<speed>0.4</speed>
<course>205.4</course>
<desc>Speed 0.4 km/h Distance 80.94 km</desc>
<time>2010-07-31T15:06:34.48</time>
<name>2573</name>
</trkpt>
<trkpt lat="48.851995" lon="11.016503">
<ele>594.0</ele>
<speed>2.3</speed>
<course>175.6</course>
<desc>Speed 2.3 km/h Distance 80.94 km</desc>
<time>2010-07-31T15:06:35.47</time>
<name>2574</name>
</trkpt>
<trkpt lat="48.851985" lon="11.016503">
<ele>594.5</ele>
<speed>4.4</speed>
<course>176.1</course>
<desc>Speed 4.4 km/h Distance 80.94 km</desc>
<time>2010-07-31T15:06:36.47</time>
<name>2575</name>
</trkpt>
<trkpt lat="48.851972" lon="11.016503">
<ele>594.5</ele>
<speed>4.8</speed>
<course>182.7</course>
<desc>Speed 4.8 km/h Distance 80.95 km</desc>
<time>2010-07-31T15:06:37.97</time>
<name>2576</name>
</trkpt>
<trkpt lat="48.851952" lon="11.016502">
<ele>594.5</ele>
<speed>3.7</speed>
<course>185.0</course>
<desc>Speed 3.7 km/h Distance 80.95 km</desc>
<time>2010-07-31T15:06:39.48</time>
<name>2577</name>
</trkpt>
<trkpt lat="48.851943" lon="11.016500">
<ele>594.5</ele>
<speed>2.9</speed>
<course>155.1</course>
<desc>Speed 2.9 km/h Distance 80.95 km</desc>
<time>2010-07-31T15:06:40.49</time>
<name>2578</name>
</trkpt>
<trkpt lat="48.851932" lon="11.016508">
<ele>595.0</ele>
<speed>4.6</speed>
<course>165.1</course>
<desc>Speed 4.6 km/h Distance 80.95 km</desc>
<time>2010-07-31T15:06:41.48</time>
<name>2579</name>
</trkpt>
<trkpt lat="48.851920" lon="11.016513">
<ele>595.5</ele>
<speed>4.6</speed>
<course>170.3</course>
<desc>Speed 4.6 km/h Distance 80.95 km</desc>
<time>2010-07-31T15:06:42.49</time>
<name>2580</name>
</trkpt>
<trkpt lat="48.851907" lon="11.016517">
<ele>595.5</ele>
<speed>5.6</speed>
<course>161.9</course>
<desc>Speed 5.6 km/h Distance 80.95 km</desc>
<time>2010-07-31T15:06:43.49</time>
<name>2581</name>
</trkpt>
<trkpt lat="48.851893" lon="11.016523">
<ele>595.5</ele>
<speed>5.3</speed>
<course>156.2</course>
<desc>Speed 5.3 km/h Distance 80.96 km</desc>
<time>2010-07-31T15:06:44.49</time>
<name>2582</name>
</trkpt>
<trkpt lat="48.851883" lon="11.016530">
<ele>595.5</ele>
<speed>5.1</speed>
<course>142.5</course>
<desc>Speed 5.1 km/h Distance 80.96 km</desc>
<time>2010-07-31T15:06:45.48</time>
<name>2583</name>
</trkpt>
<trkpt lat="48.851873" lon="11.016542">
<ele>596.0</ele>
<speed>6.9</speed>
<course>135.5</course>
<desc>Speed 6.9 km/h Distance 80.96 km</desc>
<time>2010-07-31T15:06:46.48</time>
<name>2584</name>
</trkpt>
<trkpt lat="48.851867" lon="11.016552">
<ele>596.0</ele>
<speed>5.3</speed>
<course>161.9</course>
<desc>Speed 5.3 km/h Distance 80.96 km</desc>
<time>2010-07-31T15:06:47.48</time>
<name>2585</name>
</trkpt>
<trkpt lat="48.851853" lon="11.016558">
<ele>596.5</ele>
<speed>6.0</speed>
<course>170.3</course>
<desc>Speed 6.0 km/h Distance 80.96 km</desc>
<time>2010-07-31T15:06:48.48</time>
<name>2586</name>
</trkpt>
<trkpt lat="48.851840" lon="11.016562">
<ele>597.0</ele>
<speed>5.1</speed>
<course>170.3</course>
<desc>Speed 5.1 km/h Distance 80.96 km</desc>
<time>2010-07-31T15:06:49.48</time>
<name>2587</name>
</trkpt>
<trkpt lat="48.851827" lon="11.016565">
<ele>597.0</ele>
<speed>5.4</speed>
<course>175.3</course>
<desc>Speed 5.4 km/h Distance 80.96 km</desc>
<time>2010-07-31T15:06:50.48</time>
<name>2588</name>
</trkpt>
<trkpt lat="48.851815" lon="11.016567">
<ele>597.5</ele>
<speed>5.3</speed>
<course>159.8</course>
<desc>Speed 5.3 km/h Distance 80.96 km</desc>
<time>2010-07-31T15:06:51.48</time>
<name>2589</name>
</trkpt>
<trkpt lat="48.851803" lon="11.016573">
<ele>597.0</ele>
<speed>5.6</speed>
<course>157.0</course>
<desc>Speed 5.6 km/h Distance 80.97 km</desc>
<time>2010-07-31T15:06:52.48</time>
<name>2590</name>
</trkpt>
<trkpt lat="48.851800" lon="11.016575">
<ele>597.5</ele>
<speed>1.7</speed>
<course>231.9</course>
<desc>Speed 1.7 km/h Distance 80.97 km</desc>
<time>2010-07-31T15:06:53.47</time>
<name>2591</name>
</trkpt>
<trkpt lat="48.851798" lon="11.016572">
<ele>597.0</ele>
<speed>0.2</speed>
<course>231.9</course>
<desc>Speed 0.2 km/h Distance 80.97 km</desc>
<time>2010-07-31T15:06:54.48</time>
<name>2592</name>
</trkpt>
<trkpt lat="48.851797" lon="11.016568">
<ele>597.0</ele>
<speed>0.7</speed>
<course>231.9</course>
<desc>Speed 0.7 km/h Distance 80.97 km</desc>
<time>2010-07-31T15:06:55.48</time>
<name>2593</name>
</trkpt>
<trkpt lat="48.851797" lon="11.016567">
<ele>597.0</ele>
<speed>0.4</speed>
<course>192.6</course>
<desc>Speed 0.4 km/h Distance 80.97 km</desc>
<time>2010-07-31T15:06:56.48</time>
<name>2594</name>
</trkpt>
<trkpt lat="48.851795" lon="11.016565">
<ele>597.0</ele>
<speed>0.3</speed>
<course>192.6</course>
<desc>Speed 0.3 km/h Distance 80.97 km</desc>
<time>2010-07-31T15:06:57.48</time>
<name>2595</name>
</trkpt>
<trkpt lat="48.851795" lon="11.016565">
<ele>597.0</ele>
<speed>0.1</speed>
<course>192.6</course>
<desc>Speed 0.1 km/h Distance 80.97 km</desc>
<time>2010-07-31T15:06:58.47</time>
<name>2596</name>
</trkpt>
<trkpt lat="48.851795" lon="11.016565">
<ele>597.0</ele>
<speed>0.3</speed>
<course>192.6</course>
<desc>Speed 0.3 km/h Distance 80.97 km</desc>
<time>2010-07-31T15:06:59.47</time>
<name>2597</name>
</trkpt>
<trkpt lat="48.851792" lon="11.016563">
<ele>597.0</ele>
<speed>1.2</speed>
<course>330.8</course>
<desc>Speed 1.2 km/h Distance 80.97 km</desc>
<time>2010-07-31T15:07:00.47</time>
<name>2598</name>
</trkpt>
<trkpt lat="48.851793" lon="11.016562">
<ele>597.0</ele>
<speed>1.0</speed>
<course>90.0</course>
<desc>Speed 1.0 km/h Distance 80.97 km</desc>
<time>2010-07-31T15:07:01.47</time>
<name>2599</name>
</trkpt>
<trkpt lat="48.851793" lon="11.016563">
<ele>597.5</ele>
<speed>1.0</speed>
<course>128.1</course>
<desc>Speed 1.0 km/h Distance 80.97 km</desc>
<time>2010-07-31T15:07:02.47</time>
<name>2600</name>
</trkpt>
<trkpt lat="48.851792" lon="11.016567">
<ele>597.5</ele>
<speed>1.0</speed>
<course>164.5</course>
<desc>Speed 1.0 km/h Distance 80.97 km</desc>
<time>2010-07-31T15:07:03.47</time>
<name>2601</name>
</trkpt>
<trkpt lat="48.851780" lon="11.016572">
<ele>596.5</ele>
<speed>1.0</speed>
<course>90.0</course>
<desc>Speed 1.0 km/h Distance 80.97 km</desc>
<time>2010-07-31T15:07:04.47</time>
<name>2602</name>
</trkpt>
<trkpt lat="48.851780" lon="11.016580">
<ele>596.5</ele>
<speed>0.3</speed>
<course>128.1</course>
<desc>Speed 0.3 km/h Distance 80.97 km</desc>
<time>2010-07-31T15:07:05.47</time>
<name>2603</name>
</trkpt>
<trkpt lat="48.851778" lon="11.016583">
<ele>597.0</ele>
<speed>0.3</speed>
<course>202.2</course>
<desc>Speed 0.3 km/h Distance 80.97 km</desc>
<time>2010-07-31T15:07:06.47</time>
<name>2604</name>
</trkpt>
<trkpt lat="48.851773" lon="11.016580">
<ele>597.0</ele>
<speed>2.2</speed>
<course>211.6</course>
<desc>Speed 2.2 km/h Distance 80.97 km</desc>
<time>2010-07-31T15:07:07.47</time>
<name>2605</name>
</trkpt>
<trkpt lat="48.851770" lon="11.016577">
<ele>597.0</ele>
<speed>2.2</speed>
<course>242.6</course>
<desc>Speed 2.2 km/h Distance 80.97 km</desc>
<time>2010-07-31T15:07:08.48</time>
<name>2606</name>
</trkpt>
<trkpt lat="48.851768" lon="11.016572">
<ele>596.5</ele>
<speed>0.5</speed>
<course>126.1</course>
<desc>Speed 0.5 km/h Distance 80.97 km</desc>
<time>2010-07-31T15:07:09.47</time>
<name>2607</name>
</trkpt>
<trkpt lat="48.851767" lon="11.016575">
<ele>596.5</ele>
<speed>0.5</speed>
<course>69.5</course>
<desc>Speed 0.5 km/h Distance 80.97 km</desc>
<time>2010-07-31T15:07:10.47</time>
<name>2608</name>
</trkpt>
<trkpt lat="48.851768" lon="11.016582">
<ele>596.0</ele>
<speed>1.7</speed>
<course>191.2</course>
<desc>Speed 1.7 km/h Distance 80.97 km</desc>
<time>2010-07-31T15:07:11.46</time>
<name>2609</name>
</trkpt>
<trkpt lat="48.851752" lon="11.016577">
<ele>594.0</ele>
<speed>4.8</speed>
<course>203.8</course>
<desc>Speed 4.8 km/h Distance 80.98 km</desc>
<time>2010-07-31T15:07:12.46</time>
<name>2610</name>
</trkpt>
<trkpt lat="48.851747" lon="11.016573">
<ele>593.5</ele>
<speed>0.5</speed>
<course>90.0</course>
<desc>Speed 0.5 km/h Distance 80.98 km</desc>
<time>2010-07-31T15:07:13.46</time>
<name>2611</name>
</trkpt>
<trkpt lat="48.851747" lon="11.016575">
<ele>593.5</ele>
<speed>0.5</speed>
<course>63.4</course>
<desc>Speed 0.5 km/h Distance 80.98 km</desc>
<time>2010-07-31T15:07:14.46</time>
<name>2612</name>
</trkpt>
<trkpt lat="48.851748" lon="11.016580">
<ele>593.5</ele>
<speed>0.4</speed>
<course>63.4</course>
<desc>Speed 0.4 km/h Distance 80.98 km</desc>
<time>2010-07-31T15:07:15.46</time>
<name>2613</name>
</trkpt>
<trkpt lat="48.851748" lon="11.016580">
<ele>593.0</ele>
<speed>0.5</speed>
<course>41.4</course>
<desc>Speed 0.5 km/h Distance 80.98 km</desc>
<time>2010-07-31T15:07:16.46</time>
<name>2614</name>
</trkpt>
<trkpt lat="48.851753" lon="11.016587">
<ele>593.0</ele>
<speed>1.1</speed>
<course>22.2</course>
<desc>Speed 1.1 km/h Distance 80.98 km</desc>
<time>2010-07-31T15:07:17.46</time>
<name>2615</name>
</trkpt>
<trkpt lat="48.851758" lon="11.016590">
<ele>592.5</ele>
<speed>1.3</speed>
<course>217.2</course>
<desc>Speed 1.3 km/h Distance 80.98 km</desc>
<time>2010-07-31T15:07:18.46</time>
<name>2616</name>
</trkpt>
<trkpt lat="48.851757" lon="11.016588">
<ele>592.5</ele>
<speed>0.2</speed>
<course>12.6</course>
<desc>Speed 0.2 km/h Distance 80.98 km</desc>
<time>2010-07-31T15:07:19.46</time>
<name>2617</name>
</trkpt>
<trkpt lat="48.851758" lon="11.016588">
<ele>592.0</ele>
<speed>0.3</speed>
<course>0.0</course>
<desc>Speed 0.3 km/h Distance 80.98 km</desc>
<time>2010-07-31T15:07:20.46</time>
<name>2618</name>
</trkpt>
<trkpt lat="48.851762" lon="11.016588">
<ele>592.5</ele>
<speed>1.0</speed>
<course>0.0</course>
<desc>Speed 1.0 km/h Distance 80.98 km</desc>
<time>2010-07-31T15:07:21.46</time>
<name>2619</name>
</trkpt>
<trkpt lat="48.851762" lon="11.016588">
<ele>592.0</ele>
<speed>1.0</speed>
<course>12.6</course>
<desc>Speed 1.0 km/h Distance 80.98 km</desc>
<time>2010-07-31T15:07:22.46</time>
<name>2620</name>
</trkpt>
<trkpt lat="48.851763" lon="11.016588">
<ele>592.0</ele>
<speed>0.1</speed>
<course>29.2</course>
<desc>Speed 0.1 km/h Distance 80.98 km</desc>
<time>2010-07-31T15:07:23.46</time>
<name>2621</name>
</trkpt>
<trkpt lat="48.851765" lon="11.016590">
<ele>592.5</ele>
<speed>0.5</speed>
<course>270.0</course>
<desc>Speed 0.5 km/h Distance 80.98 km</desc>
<time>2010-07-31T15:07:24.45</time>
<name>2622</name>
</trkpt>
<trkpt lat="48.851765" lon="11.016588">
<ele>592.5</ele>
<speed>0.5</speed>
<course>242.6</course>
<desc>Speed 0.5 km/h Distance 80.98 km</desc>
<time>2010-07-31T15:07:25.44</time>
<name>2623</name>
</trkpt>
<trkpt lat="48.851763" lon="11.016583">
<ele>593.0</ele>
<speed>0.7</speed>
<course>252.9</course>
<desc>Speed 0.7 km/h Distance 80.98 km</desc>
<time>2010-07-31T15:07:26.44</time>
<name>2624</name>
</trkpt>
<trkpt lat="48.851762" lon="11.016575">
<ele>592.5</ele>
<speed>1.4</speed>
<course>0.0</course>
<desc>Speed 1.4 km/h Distance 80.98 km</desc>
<time>2010-07-31T15:07:27.46</time>
<name>2625</name>
</trkpt>
<trkpt lat="48.851770" lon="11.016575">
<ele>593.0</ele>
<speed>2.9</speed>
<course>0.0</course>
<desc>Speed 2.9 km/h Distance 80.98 km</desc>
<time>2010-07-31T15:07:28.44</time>
<name>2626</name>
</trkpt>
<trkpt lat="48.851773" lon="11.016575">
<ele>593.0</ele>
<speed>1.7</speed>
<course>347.4</course>
<desc>Speed 1.7 km/h Distance 80.98 km</desc>
<time>2010-07-31T15:07:29.44</time>
<name>2627</name>
</trkpt>
<trkpt lat="48.851775" lon="11.016573">
<ele>593.0</ele>
<speed>1.7</speed>
<course>252.9</course>
<desc>Speed 1.7 km/h Distance 80.98 km</desc>
<time>2010-07-31T15:07:30.45</time>
<name>2628</name>
</trkpt>
<trkpt lat="48.851773" lon="11.016565">
<ele>593.0</ele>
<speed>1.8</speed>
<course>180.0</course>
<desc>Speed 1.8 km/h Distance 80.98 km</desc>
<time>2010-07-31T15:07:31.45</time>
<name>2629</name>
</trkpt>
<trkpt lat="48.851770" lon="11.016565">
<ele>593.0</ele>
<speed>1.3</speed>
<course>146.3</course>
<desc>Speed 1.3 km/h Distance 80.98 km</desc>
<time>2010-07-31T15:07:32.45</time>
<name>2630</name>
</trkpt>
<trkpt lat="48.851767" lon="11.016568">
<ele>593.0</ele>
<speed>0.1</speed>
<course>37.2</course>
<desc>Speed 0.1 km/h Distance 80.98 km</desc>
<time>2010-07-31T15:07:33.45</time>
<name>2631</name>
</trkpt>
<trkpt lat="48.851768" lon="11.016570">
<ele>593.0</ele>
<speed>0.1</speed>
<course>142.8</course>
<desc>Speed 0.1 km/h Distance 80.98 km</desc>
<time>2010-07-31T15:07:34.44</time>
<name>2632</name>
</trkpt>
<trkpt lat="48.851767" lon="11.016572">
<ele>593.0</ele>
<speed>0.6</speed>
<course>233.9</course>
<desc>Speed 0.6 km/h Distance 80.98 km</desc>
<time>2010-07-31T15:07:35.45</time>
<name>2633</name>
</trkpt>
<trkpt lat="48.851765" lon="11.016568">
<ele>593.0</ele>
<speed>1.0</speed>
<course>90.0</course>
<desc>Speed 1.0 km/h Distance 80.98 km</desc>
<time>2010-07-31T15:07:36.44</time>
<name>2634</name>
</trkpt>
<trkpt lat="48.851765" lon="11.016570">
<ele>593.5</ele>
<speed>0.1</speed>
<course>90.0</course>
<desc>Speed 0.1 km/h Distance 80.98 km</desc>
<time>2010-07-31T15:07:37.44</time>
<name>2635</name>
</trkpt>
<trkpt lat="48.851765" lon="11.016572">
<ele>593.5</ele>
<speed>0.2</speed>
<course>60.3</course>
<desc>Speed 0.2 km/h Distance 80.98 km</desc>
<time>2010-07-31T15:07:38.44</time>
<name>2636</name>
</trkpt>
<trkpt lat="48.851770" lon="11.016585">
<ele>593.5</ele>
<speed>4.5</speed>
<course>270.0</course>
<desc>Speed 4.5 km/h Distance 80.99 km</desc>
<time>2010-07-31T15:07:39.44</time>
<name>2637</name>
</trkpt>
<trkpt lat="48.851770" lon="11.016583">
<ele>593.5</ele>
<speed>0.3</speed>
<course>146.3</course>
<desc>Speed 0.3 km/h Distance 80.99 km</desc>
<time>2010-07-31T15:07:40.44</time>
<name>2638</name>
</trkpt>
<trkpt lat="48.851767" lon="11.016587">
<ele>593.5</ele>
<speed>1.2</speed>
<course>90.0</course>
<desc>Speed 1.2 km/h Distance 80.99 km</desc>
<time>2010-07-31T15:07:41.45</time>
<name>2639</name>
</trkpt>
<trkpt lat="48.851767" lon="11.016590">
<ele>593.5</ele>
<speed>0.9</speed>
<course>326.3</course>
<desc>Speed 0.9 km/h Distance 80.99 km</desc>
<time>2010-07-31T15:07:42.44</time>
<name>2640</name>
</trkpt>
<trkpt lat="48.851770" lon="11.016587">
<ele>593.0</ele>
<speed>1.0</speed>
<course>270.0</course>
<desc>Speed 1.0 km/h Distance 80.99 km</desc>
<time>2010-07-31T15:07:43.44</time>
<name>2641</name>
</trkpt>
<trkpt lat="48.851770" lon="11.016585">
<ele>593.0</ele>
<speed>0.6</speed>
<course>270.0</course>
<desc>Speed 0.6 km/h Distance 80.99 km</desc>
<time>2010-07-31T15:07:44.44</time>
<name>2642</name>
</trkpt>
<trkpt lat="48.851770" lon="11.016583">
<ele>593.0</ele>
<speed>0.4</speed>
<course>167.4</course>
<desc>Speed 0.4 km/h Distance 80.99 km</desc>
<time>2010-07-31T15:07:45.44</time>
<name>2643</name>
</trkpt>
<trkpt lat="48.851768" lon="11.016583">
<ele>593.0</ele>
<speed>0.2</speed>
<course>167.4</course>
<desc>Speed 0.2 km/h Distance 80.99 km</desc>
<time>2010-07-31T15:07:46.43</time>
<name>2644</name>
</trkpt>
<trkpt lat="48.851768" lon="11.016583">
<ele>593.0</ele>
<speed>0.1</speed>
<course>167.4</course>
<desc>Speed 0.1 km/h Distance 80.99 km</desc>
<time>2010-07-31T15:07:47.43</time>
<name>2645</name>
</trkpt>
<trkpt lat="48.851767" lon="11.016583">
<ele>593.0</ele>
<speed>0.1</speed>
<course>167.4</course>
<desc>Speed 0.1 km/h Distance 80.99 km</desc>
<time>2010-07-31T15:07:48.43</time>
<name>2646</name>
</trkpt>
<trkpt lat="48.851767" lon="11.016583">
<ele>593.0</ele>
<speed>0.1</speed>
<course>213.7</course>
<desc>Speed 0.1 km/h Distance 80.99 km</desc>
<time>2010-07-31T15:07:49.44</time>
<name>2647</name>
</trkpt>
<trkpt lat="48.851763" lon="11.016580">
<ele>592.5</ele>
<speed>0.8</speed>
<course>270.0</course>
<desc>Speed 0.8 km/h Distance 80.99 km</desc>
<time>2010-07-31T15:07:50.44</time>
<name>2648</name>
</trkpt>
<trkpt lat="48.851763" lon="11.016577">
<ele>593.0</ele>
<speed>1.5</speed>
<course>270.0</course>
<desc>Speed 1.5 km/h Distance 80.99 km</desc>
<time>2010-07-31T15:07:51.44</time>
<name>2649</name>
</trkpt>
<trkpt lat="48.851763" lon="11.016577">
<ele>593.0</ele>
<speed>0.7</speed>
<course>270.0</course>
<desc>Speed 0.7 km/h Distance 80.99 km</desc>
<time>2010-07-31T15:07:52.43</time>
<name>2650</name>
</trkpt>
<trkpt lat="48.851763" lon="11.016577">
<ele>593.0</ele>
<speed>0.3</speed>
<course>270.0</course>
<desc>Speed 0.3 km/h Distance 80.99 km</desc>
<time>2010-07-31T15:07:53.43</time>
<name>2651</name>
</trkpt>
<trkpt lat="48.851763" lon="11.016577">
<ele>593.5</ele>
<speed>0.4</speed>
<course>270.0</course>
<desc>Speed 0.4 km/h Distance 80.99 km</desc>
<time>2010-07-31T15:07:54.43</time>
<name>2652</name>
</trkpt>
<trkpt lat="48.851763" lon="11.016575">
<ele>593.5</ele>
<speed>0.3</speed>
<course>157.8</course>
<desc>Speed 0.3 km/h Distance 80.99 km</desc>
<time>2010-07-31T15:07:55.43</time>
<name>2653</name>
</trkpt>
<trkpt lat="48.851758" lon="11.016578">
<ele>593.0</ele>
<speed>2.7</speed>
<course>157.8</course>
<desc>Speed 2.7 km/h Distance 80.99 km</desc>
<time>2010-07-31T15:07:56.43</time>
<name>2654</name>
</trkpt>
<trkpt lat="48.851758" lon="11.016578">
<ele>593.5</ele>
<speed>0.3</speed>
<course>157.8</course>
<desc>Speed 0.3 km/h Distance 80.99 km</desc>
<time>2010-07-31T15:07:57.42</time>
<name>2655</name>
</trkpt>
<trkpt lat="48.851758" lon="11.016578">
<ele>593.5</ele>
<speed>0.5</speed>
<course>157.8</course>
<desc>Speed 0.5 km/h Distance 80.99 km</desc>
<time>2010-07-31T15:07:58.43</time>
<name>2656</name>
</trkpt>
<trkpt lat="48.851758" lon="11.016580">
<ele>594.5</ele>
<speed>0.7</speed>
<course>157.8</course>
<desc>Speed 0.7 km/h Distance 80.99 km</desc>
<time>2010-07-31T15:07:59.43</time>
<name>2657</name>
</trkpt>
<trkpt lat="48.851753" lon="11.016583">
<ele>595.0</ele>
<speed>2.1</speed>
<course>191.6</course>
<desc>Speed 2.1 km/h Distance 80.99 km</desc>
<time>2010-07-31T15:08:00.43</time>
<name>2658</name>
</trkpt>
<trkpt lat="48.851743" lon="11.016580">
<ele>595.5</ele>
<speed>1.9</speed>
<course>188.1</course>
<desc>Speed 1.9 km/h Distance 80.99 km</desc>
<time>2010-07-31T15:08:01.43</time>
<name>2659</name>
</trkpt>
<trkpt lat="48.851738" lon="11.016578">
<ele>596.5</ele>
<speed>0.5</speed>
<course>270.0</course>
<desc>Speed 0.5 km/h Distance 80.99 km</desc>
<time>2010-07-31T15:08:02.43</time>
<name>2660</name>
</trkpt>
<trkpt lat="48.851738" lon="11.016575">
<ele>596.0</ele>
<speed>0.5</speed>
<course>222.1</course>
<desc>Speed 0.5 km/h Distance 80.99 km</desc>
<time>2010-07-31T15:08:03.43</time>
<name>2661</name>
</trkpt>
<trkpt lat="48.851725" lon="11.016557">
<ele>596.0</ele>
<speed>6.7</speed>
<course>351.9</course>
<desc>Speed 6.7 km/h Distance 80.99 km</desc>
<time>2010-07-31T15:08:04.43</time>
<name>2662</name>
</trkpt>
<trkpt lat="48.851730" lon="11.016555">
<ele>596.5</ele>
<speed>1.2</speed>
<course>90.0</course>
<desc>Speed 1.2 km/h Distance 80.99 km</desc>
<time>2010-07-31T15:08:05.43</time>
<name>2663</name>
</trkpt>
<trkpt lat="48.851730" lon="11.016558">
<ele>597.0</ele>
<speed>0.7</speed>
<course>184.4</course>
<desc>Speed 0.7 km/h Distance 80.99 km</desc>
<time>2010-07-31T15:08:06.42</time>
<name>2664</name>
</trkpt>
<trkpt lat="48.851720" lon="11.016557">
<ele>598.5</ele>
<speed>4.8</speed>
<course>167.4</course>
<desc>Speed 4.8 km/h Distance 81.00 km</desc>
<time>2010-07-31T15:08:07.42</time>
<name>2665</name>
</trkpt>
<trkpt lat="48.851715" lon="11.016558">
<ele>599.5</ele>
<speed>3.0</speed>
<course>33.7</course>
<desc>Speed 3.0 km/h Distance 81.00 km</desc>
<time>2010-07-31T15:08:08.42</time>
<name>2666</name>
</trkpt>
<trkpt lat="48.851718" lon="11.016562">
<ele>598.5</ele>
<speed>0.3</speed>
<course>0.0</course>
<desc>Speed 0.3 km/h Distance 81.00 km</desc>
<time>2010-07-31T15:08:09.42</time>
<name>2667</name>
</trkpt>
<trkpt lat="48.851720" lon="11.016562">
<ele>598.5</ele>
<speed>0.2</speed>
<course>12.6</course>
<desc>Speed 0.2 km/h Distance 81.00 km</desc>
<time>2010-07-31T15:08:10.41</time>
<name>2668</name>
</trkpt>
<trkpt lat="48.851723" lon="11.016563">
<ele>598.5</ele>
<speed>0.2</speed>
<course>12.6</course>
<desc>Speed 0.2 km/h Distance 81.00 km</desc>
<time>2010-07-31T15:08:11.41</time>
<name>2669</name>
</trkpt>
<trkpt lat="48.851727" lon="11.016565">
<ele>598.5</ele>
<speed>0.8</speed>
<course>53.9</course>
<desc>Speed 0.8 km/h Distance 81.00 km</desc>
<time>2010-07-31T15:08:12.42</time>
<name>2670</name>
</trkpt>
<trkpt lat="48.851728" lon="11.016568">
<ele>598.5</ele>
<speed>0.8</speed>
<course>308.1</course>
<desc>Speed 0.8 km/h Distance 81.00 km</desc>
<time>2010-07-31T15:08:13.42</time>
<name>2671</name>
</trkpt>
<trkpt lat="48.851730" lon="11.016565">
<ele>598.0</ele>
<speed>0.9</speed>
<course>308.1</course>
<desc>Speed 0.9 km/h Distance 81.00 km</desc>
<time>2010-07-31T15:08:14.41</time>
<name>2672</name>
</trkpt>
<trkpt lat="48.851730" lon="11.016567">
<ele>598.0</ele>
<speed>2.0</speed>
<course>270.0</course>
<desc>Speed 2.0 km/h Distance 81.00 km</desc>
<time>2010-07-31T15:08:15.42</time>
<name>2673</name>
</trkpt>
<trkpt lat="48.851730" lon="11.016562">
<ele>597.0</ele>
<speed>0.9</speed>
<course>33.7</course>
<desc>Speed 0.9 km/h Distance 81.00 km</desc>
<time>2010-07-31T15:08:16.43</time>
<name>2674</name>
</trkpt>
<trkpt lat="48.851733" lon="11.016565">
<ele>597.0</ele>
<speed>0.3</speed>
<course>53.0</course>
<desc>Speed 0.3 km/h Distance 81.00 km</desc>
<time>2010-07-31T15:08:17.42</time>
<name>2675</name>
</trkpt>
<trkpt lat="48.851737" lon="11.016572">
<ele>597.0</ele>
<speed>1.4</speed>
<course>296.8</course>
<desc>Speed 1.4 km/h Distance 81.00 km</desc>
<time>2010-07-31T15:08:18.42</time>
<name>2676</name>
</trkpt>
<trkpt lat="48.851740" lon="11.016562">
<ele>597.0</ele>
<speed>2.9</speed>
<course>7.4</course>
<desc>Speed 2.9 km/h Distance 81.00 km</desc>
<time>2010-07-31T15:08:19.41</time>
<name>2677</name>
</trkpt>
<trkpt lat="48.851747" lon="11.016563">
<ele>596.5</ele>
<speed>2.1</speed>
<course>26.4</course>
<desc>Speed 2.1 km/h Distance 81.00 km</desc>
<time>2010-07-31T15:08:20.41</time>
<name>2678</name>
</trkpt>
<trkpt lat="48.851753" lon="11.016568">
<ele>596.5</ele>
<speed>2.1</speed>
<course>60.3</course>
<desc>Speed 2.1 km/h Distance 81.00 km</desc>
<time>2010-07-31T15:08:21.42</time>
<name>2679</name>
</trkpt>
<trkpt lat="48.851758" lon="11.016582">
<ele>596.5</ele>
<speed>4.7</speed>
<course>194.0</course>
<desc>Speed 4.7 km/h Distance 81.00 km</desc>
<time>2010-07-31T15:08:22.41</time>
<name>2680</name>
</trkpt>
<trkpt lat="48.851737" lon="11.016573">
<ele>597.0</ele>
<speed>2.5</speed>
<course>167.4</course>
<desc>Speed 2.5 km/h Distance 81.01 km</desc>
<time>2010-07-31T15:08:23.41</time>
<name>2681</name>
</trkpt>
<trkpt lat="48.851727" lon="11.016577">
<ele>597.0</ele>
<speed>1.6</speed>
<course>270.0</course>
<desc>Speed 1.6 km/h Distance 81.01 km</desc>
<time>2010-07-31T15:08:24.41</time>
<name>2682</name>
</trkpt>
<trkpt lat="48.851727" lon="11.016572">
<ele>597.0</ele>
<speed>1.3</speed>
<course>233.0</course>
<desc>Speed 1.3 km/h Distance 81.01 km</desc>
<time>2010-07-31T15:08:25.41</time>
<name>2683</name>
</trkpt>
<trkpt lat="48.851723" lon="11.016565">
<ele>597.0</ele>
<speed>0.9</speed>
<course>270.0</course>
<desc>Speed 0.9 km/h Distance 81.01 km</desc>
<time>2010-07-31T15:08:26.40</time>
<name>2684</name>
</trkpt>
<trkpt lat="48.851723" lon="11.016558">
<ele>597.0</ele>
<speed>0.4</speed>
<course>221.9</course>
<desc>Speed 0.4 km/h Distance 81.01 km</desc>
<time>2010-07-31T15:08:27.42</time>
<name>2685</name>
</trkpt>
<trkpt lat="48.851718" lon="11.016552">
<ele>597.5</ele>
<speed>1.5</speed>
<course>242.6</course>
<desc>Speed 1.5 km/h Distance 81.01 km</desc>
<time>2010-07-31T15:08:28.41</time>
<name>2686</name>
</trkpt>
<trkpt lat="48.851717" lon="11.016547">
<ele>597.5</ele>
<speed>1.5</speed>
<course>208.6</course>
<desc>Speed 1.5 km/h Distance 81.01 km</desc>
<time>2010-07-31T15:08:29.41</time>
<name>2687</name>
</trkpt>
<trkpt lat="48.851707" lon="11.016538">
<ele>598.0</ele>
<speed>2.8</speed>
<course>180.0</course>
<desc>Speed 2.8 km/h Distance 81.01 km</desc>
<time>2010-07-31T15:08:30.40</time>
<name>2688</name>
</trkpt>
<trkpt lat="48.851703" lon="11.016538">
<ele>598.5</ele>
<speed>2.5</speed>
<course>167.4</course>
<desc>Speed 2.5 km/h Distance 81.01 km</desc>
<time>2010-07-31T15:08:31.41</time>
<name>2689</name>
</trkpt>
<trkpt lat="48.851702" lon="11.016538">
<ele>599.5</ele>
<speed>1.2</speed>
<course>167.4</course>
<desc>Speed 1.2 km/h Distance 81.01 km</desc>
<time>2010-07-31T15:08:32.40</time>
<name>2690</name>
</trkpt>
<trkpt lat="48.851700" lon="11.016538">
<ele>599.5</ele>
<speed>2.4</speed>
<course>12.6</course>
<desc>Speed 2.4 km/h Distance 81.01 km</desc>
<time>2010-07-31T15:08:33.40</time>
<name>2691</name>
</trkpt>
<trkpt lat="48.851702" lon="11.016538">
<ele>599.0</ele>
<speed>1.3</speed>
<course>40.9</course>
<desc>Speed 1.3 km/h Distance 81.01 km</desc>
<time>2010-07-31T15:08:34.40</time>
<name>2692</name>
</trkpt>
<trkpt lat="48.851707" lon="11.016545">
<ele>599.5</ele>
<speed>0.7</speed>
<course>351.9</course>
<desc>Speed 0.7 km/h Distance 81.01 km</desc>
<time>2010-07-31T15:08:35.40</time>
<name>2693</name>
</trkpt>
<trkpt lat="48.851712" lon="11.016543">
<ele>599.5</ele>
<speed>1.7</speed>
<course>167.4</course>
<desc>Speed 1.7 km/h Distance 81.01 km</desc>
<time>2010-07-31T15:08:36.39</time>
<name>2694</name>
</trkpt>
<trkpt lat="48.851710" lon="11.016545">
<ele>599.5</ele>
<speed>0.5</speed>
<course>12.6</course>
<desc>Speed 0.5 km/h Distance 81.01 km</desc>
<time>2010-07-31T15:08:37.39</time>
<name>2695</name>
</trkpt>
<trkpt lat="48.851713" lon="11.016547">
<ele>599.5</ele>
<speed>1.1</speed>
<course>192.6</course>
<desc>Speed 1.1 km/h Distance 81.01 km</desc>
<time>2010-07-31T15:08:38.40</time>
<name>2696</name>
</trkpt>
<trkpt lat="48.851708" lon="11.016545">
<ele>599.0</ele>
<speed>0.5</speed>
<course>107.1</course>
<desc>Speed 0.5 km/h Distance 81.01 km</desc>
<time>2010-07-31T15:08:39.40</time>
<name>2697</name>
</trkpt>
<trkpt lat="48.851707" lon="11.016553">
<ele>599.0</ele>
<speed>3.0</speed>
<course>167.4</course>
<desc>Speed 3.0 km/h Distance 81.01 km</desc>
<time>2010-07-31T15:08:40.40</time>
<name>2698</name>
</trkpt>
<trkpt lat="48.851702" lon="11.016555">
<ele>599.0</ele>
<speed>1.7</speed>
<course>167.4</course>
<desc>Speed 1.7 km/h Distance 81.01 km</desc>
<time>2010-07-31T15:08:41.39</time>
<name>2699</name>
</trkpt>
<trkpt lat="48.851697" lon="11.016557">
<ele>599.0</ele>
<speed>1.4</speed>
<course>231.9</course>
<desc>Speed 1.4 km/h Distance 81.02 km</desc>
<time>2010-07-31T15:08:42.40</time>
<name>2700</name>
</trkpt>
<trkpt lat="48.851695" lon="11.016553">
<ele>599.0</ele>
<speed>0.9</speed>
<course>270.0</course>
<desc>Speed 0.9 km/h Distance 81.02 km</desc>
<time>2010-07-31T15:08:43.40</time>
<name>2701</name>
</trkpt>
<trkpt lat="48.851695" lon="11.016552">
<ele>599.0</ele>
<speed>0.5</speed>
<course>330.8</course>
<desc>Speed 0.5 km/h Distance 81.02 km</desc>
<time>2010-07-31T15:08:44.40</time>
<name>2702</name>
</trkpt>
<trkpt lat="48.851697" lon="11.016550">
<ele>599.0</ele>
<speed>1.0</speed>
<course>0.0</course>
<desc>Speed 1.0 km/h Distance 81.02 km</desc>
<time>2010-07-31T15:08:45.39</time>
<name>2703</name>
</trkpt>
<trkpt lat="48.851700" lon="11.016550">
<ele>599.0</ele>
<speed>0.6</speed>
<course>12.6</course>
<desc>Speed 0.6 km/h Distance 81.02 km</desc>
<time>2010-07-31T15:08:46.39</time>
<name>2704</name>
</trkpt>
<trkpt lat="48.851703" lon="11.016552">
<ele>598.5</ele>
<speed>0.7</speed>
<course>0.0</course>
<desc>Speed 0.7 km/h Distance 81.02 km</desc>
<time>2010-07-31T15:08:47.39</time>
<name>2705</name>
</trkpt>
<trkpt lat="48.851707" lon="11.016552">
<ele>598.5</ele>
<speed>0.7</speed>
<course>70.6</course>
<desc>Speed 0.7 km/h Distance 81.02 km</desc>
<time>2010-07-31T15:08:48.39</time>
<name>2706</name>
</trkpt>
<trkpt lat="48.851712" lon="11.016573">
<ele>600.0</ele>
<speed>4.9</speed>
<course>0.0</course>
<desc>Speed 4.9 km/h Distance 81.02 km</desc>
<time>2010-07-31T15:08:49.39</time>
<name>2707</name>
</trkpt>
<trkpt lat="48.851718" lon="11.016573">
<ele>599.5</ele>
<speed>0.3</speed>
<course>12.6</course>
<desc>Speed 0.3 km/h Distance 81.02 km</desc>
<time>2010-07-31T15:08:50.39</time>
<name>2708</name>
</trkpt>
<trkpt lat="48.851723" lon="11.016575">
<ele>599.0</ele>
<speed>0.2</speed>
<course>12.6</course>
<desc>Speed 0.2 km/h Distance 81.02 km</desc>
<time>2010-07-31T15:08:51.39</time>
<name>2709</name>
</trkpt>
<trkpt lat="48.851727" lon="11.016577">
<ele>598.5</ele>
<speed>0.4</speed>
<course>135.5</course>
<desc>Speed 0.4 km/h Distance 81.02 km</desc>
<time>2010-07-31T15:08:52.39</time>
<name>2710</name>
</trkpt>
<trkpt lat="48.851723" lon="11.016582">
<ele>598.0</ele>
<speed>3.9</speed>
<course>156.5</course>
<desc>Speed 3.9 km/h Distance 81.02 km</desc>
<time>2010-07-31T15:08:53.39</time>
<name>2711</name>
</trkpt>
<trkpt lat="48.851527" lon="11.016712">
<ele>597.5</ele>
<speed>27.8</speed>
<course>161.3</course>
<desc>Speed 27.8 km/h Distance 81.04 km</desc>
<time>2010-07-31T15:08:57.39</time>
<name>2712</name>
</trkpt>
<trkpt lat="48.851462" lon="11.016745">
<ele>597.5</ele>
<speed>28.1</speed>
<course>159.7</course>
<desc>Speed 28.1 km/h Distance 81.05 km</desc>
<time>2010-07-31T15:08:58.38</time>
<name>2713</name>
</trkpt>
<trkpt lat="48.851393" lon="11.016783">
<ele>598.5</ele>
<speed>29.8</speed>
<course>162.2</course>
<desc>Speed 29.8 km/h Distance 81.06 km</desc>
<time>2010-07-31T15:08:59.38</time>
<name>2714</name>
</trkpt>
<trkpt lat="48.851318" lon="11.016820">
<ele>598.5</ele>
<speed>32.0</speed>
<course>163.3</course>
<desc>Speed 32.0 km/h Distance 81.07 km</desc>
<time>2010-07-31T15:09:00.38</time>
<name>2715</name>
</trkpt>
<trkpt lat="48.851242" lon="11.016855">
<ele>598.0</ele>
<speed>32.5</speed>
<course>159.9</course>
<desc>Speed 32.5 km/h Distance 81.08 km</desc>
<time>2010-07-31T15:09:01.38</time>
<name>2716</name>
</trkpt>
<trkpt lat="48.851167" lon="11.016897">
<ele>597.5</ele>
<speed>33.2</speed>
<course>164.4</course>
<desc>Speed 33.2 km/h Distance 81.09 km</desc>
<time>2010-07-31T15:09:02.38</time>
<name>2717</name>
</trkpt>
<trkpt lat="48.851088" lon="11.016930">
<ele>597.5</ele>
<speed>34.3</speed>
<course>165.0</course>
<desc>Speed 34.3 km/h Distance 81.10 km</desc>
<time>2010-07-31T15:09:03.38</time>
<name>2718</name>
</trkpt>
<trkpt lat="48.851007" lon="11.016963">
<ele>597.0</ele>
<speed>34.8</speed>
<course>165.5</course>
<desc>Speed 34.8 km/h Distance 81.11 km</desc>
<time>2010-07-31T15:09:04.39</time>
<name>2719</name>
</trkpt>
<trkpt lat="48.850922" lon="11.016997">
<ele>596.0</ele>
<speed>35.1</speed>
<course>162.1</course>
<desc>Speed 35.1 km/h Distance 81.12 km</desc>
<time>2010-07-31T15:09:05.38</time>
<name>2720</name>
</trkpt>
<trkpt lat="48.850840" lon="11.017037">
<ele>596.0</ele>
<speed>35.1</speed>
<course>160.8</course>
<desc>Speed 35.1 km/h Distance 81.13 km</desc>
<time>2010-07-31T15:09:06.39</time>
<name>2721</name>
</trkpt>
<trkpt lat="48.850755" lon="11.017082">
<ele>595.5</ele>
<speed>36.5</speed>
<course>161.5</course>
<desc>Speed 36.5 km/h Distance 81.14 km</desc>
<time>2010-07-31T15:09:07.37</time>
<name>2722</name>
</trkpt>
<trkpt lat="48.850663" lon="11.017128">
<ele>595.5</ele>
<speed>38.7</speed>
<course>164.4</course>
<desc>Speed 38.7 km/h Distance 81.15 km</desc>
<time>2010-07-31T15:09:08.38</time>
<name>2723</name>
</trkpt>
<trkpt lat="48.850565" lon="11.017170">
<ele>595.5</ele>
<speed>40.7</speed>
<course>163.5</course>
<desc>Speed 40.7 km/h Distance 81.16 km</desc>
<time>2010-07-31T15:09:09.37</time>
<name>2724</name>
</trkpt>
<trkpt lat="48.850465" lon="11.017215">
<ele>595.0</ele>
<speed>42.0</speed>
<course>162.9</course>
<desc>Speed 42.0 km/h Distance 81.17 km</desc>
<time>2010-07-31T15:09:10.38</time>
<name>2725</name>
</trkpt>
<trkpt lat="48.850362" lon="11.017263">
<ele>594.0</ele>
<speed>44.0</speed>
<course>162.9</course>
<desc>Speed 44.0 km/h Distance 81.18 km</desc>
<time>2010-07-31T15:09:11.37</time>
<name>2726</name>
</trkpt>
<trkpt lat="48.850255" lon="11.017313">
<ele>594.0</ele>
<speed>45.2</speed>
<course>163.4</course>
<desc>Speed 45.2 km/h Distance 81.19 km</desc>
<time>2010-07-31T15:09:12.37</time>
<name>2727</name>
</trkpt>
<trkpt lat="48.850145" lon="11.017363">
<ele>593.0</ele>
<speed>47.3</speed>
<course>161.5</course>
<desc>Speed 47.3 km/h Distance 81.21 km</desc>
<time>2010-07-31T15:09:13.38</time>
<name>2728</name>
</trkpt>
<trkpt lat="48.850033" lon="11.017420">
<ele>592.5</ele>
<speed>47.8</speed>
<course>164.1</course>
<desc>Speed 47.8 km/h Distance 81.22 km</desc>
<time>2010-07-31T15:09:14.38</time>
<name>2729</name>
</trkpt>
<trkpt lat="48.849922" lon="11.017468">
<ele>593.0</ele>
<speed>47.5</speed>
<course>164.3</course>
<desc>Speed 47.5 km/h Distance 81.23 km</desc>
<time>2010-07-31T15:09:15.37</time>
<name>2730</name>
</trkpt>
<trkpt lat="48.849808" lon="11.017517">
<ele>592.0</ele>
<speed>47.8</speed>
<course>164.5</course>
<desc>Speed 47.8 km/h Distance 81.25 km</desc>
<time>2010-07-31T15:09:16.37</time>
<name>2731</name>
</trkpt>
<trkpt lat="48.849693" lon="11.017565">
<ele>591.5</ele>
<speed>48.2</speed>
<course>165.8</course>
<desc>Speed 48.2 km/h Distance 81.26 km</desc>
<time>2010-07-31T15:09:17.38</time>
<name>2732</name>
</trkpt>
<trkpt lat="48.849572" lon="11.017612">
<ele>591.5</ele>
<speed>50.0</speed>
<course>169.2</course>
<desc>Speed 50.0 km/h Distance 81.27 km</desc>
<time>2010-07-31T15:09:18.37</time>
<name>2733</name>
</trkpt>
<trkpt lat="48.849433" lon="11.017652">
<ele>590.0</ele>
<speed>56.7</speed>
<course>177.0</course>
<desc>Speed 56.7 km/h Distance 81.29 km</desc>
<time>2010-07-31T15:09:19.37</time>
<name>2734</name>
</trkpt>
<trkpt lat="48.849100" lon="11.017678">
<ele>590.0</ele>
<speed>67.6</speed>
<course>191.1</course>
<desc>Speed 67.6 km/h Distance 81.33 km</desc>
<time>2010-07-31T15:09:21.37</time>
<name>2735</name>
</trkpt>
<trkpt lat="48.848938" lon="11.017630">
<ele>590.0</ele>
<speed>66.4</speed>
<course>195.9</course>
<desc>Speed 66.4 km/h Distance 81.34 km</desc>
<time>2010-07-31T15:09:22.36</time>
<name>2736</name>
</trkpt>
<trkpt lat="48.848777" lon="11.017560">
<ele>589.5</ele>
<speed>67.4</speed>
<course>205.4</course>
<desc>Speed 67.4 km/h Distance 81.36 km</desc>
<time>2010-07-31T15:09:23.37</time>
<name>2737</name>
</trkpt>
<trkpt lat="48.848622" lon="11.017448">
<ele>590.0</ele>
<speed>68.8</speed>
<course>214.9</course>
<desc>Speed 68.8 km/h Distance 81.38 km</desc>
<time>2010-07-31T15:09:24.36</time>
<name>2738</name>
</trkpt>
<trkpt lat="48.848478" lon="11.017297">
<ele>588.5</ele>
<speed>69.1</speed>
<course>215.9</course>
<desc>Speed 69.1 km/h Distance 81.40 km</desc>
<time>2010-07-31T15:09:25.37</time>
<name>2739</name>
</trkpt>
<trkpt lat="48.847962" lon="11.016728">
<ele>588.0</ele>
<speed>88.7</speed>
<course>242.5</course>
<desc>Speed 88.7 km/h Distance 81.47 km</desc>
<time>2010-07-31T15:09:28.37</time>
<name>2740</name>
</trkpt>
<trkpt lat="48.847773" lon="11.016178">
<ele>588.0</ele>
<speed>84.9</speed>
<course>242.9</course>
<desc>Speed 84.9 km/h Distance 81.52 km</desc>
<time>2010-07-31T15:09:30.36</time>
<name>2741</name>
</trkpt>
<trkpt lat="48.847672" lon="11.015877">
<ele>588.5</ele>
<speed>89.7</speed>
<course>243.1</course>
<desc>Speed 89.7 km/h Distance 81.54 km</desc>
<time>2010-07-31T15:09:31.36</time>
<name>2742</name>
</trkpt>
<trkpt lat="48.847568" lon="11.015567">
<ele>588.0</ele>
<speed>91.8</speed>
<course>244.5</course>
<desc>Speed 91.8 km/h Distance 81.57 km</desc>
<time>2010-07-31T15:09:32.36</time>
<name>2743</name>
</trkpt>
<trkpt lat="48.847468" lon="11.015248">
<ele>588.0</ele>
<speed>92.9</speed>
<course>245.1</course>
<desc>Speed 92.9 km/h Distance 81.59 km</desc>
<time>2010-07-31T15:09:33.36</time>
<name>2744</name>
</trkpt>
<trkpt lat="48.847370" lon="11.014927">
<ele>588.0</ele>
<speed>93.1</speed>
<course>247.3</course>
<desc>Speed 93.1 km/h Distance 81.62 km</desc>
<time>2010-07-31T15:09:34.36</time>
<name>2745</name>
</trkpt>
<trkpt lat="48.847280" lon="11.014600">
<ele>588.0</ele>
<speed>94.3</speed>
<course>244.5</course>
<desc>Speed 94.3 km/h Distance 81.65 km</desc>
<time>2010-07-31T15:09:35.36</time>
<name>2746</name>
</trkpt>
<trkpt lat="48.847180" lon="11.014282">
<ele>588.0</ele>
<speed>93.7</speed>
<course>245.0</course>
<desc>Speed 93.7 km/h Distance 81.67 km</desc>
<time>2010-07-31T15:09:36.37</time>
<name>2747</name>
</trkpt>
<trkpt lat="48.847083" lon="11.013967">
<ele>588.0</ele>
<speed>92.4</speed>
<course>244.4</course>
<desc>Speed 92.4 km/h Distance 81.70 km</desc>
<time>2010-07-31T15:09:37.36</time>
<name>2748</name>
</trkpt>
<trkpt lat="48.846983" lon="11.013650">
<ele>588.0</ele>
<speed>93.0</speed>
<course>242.9</course>
<desc>Speed 93.0 km/h Distance 81.72 km</desc>
<time>2010-07-31T15:09:38.36</time>
<name>2749</name>
</trkpt>
<trkpt lat="48.846878" lon="11.013338">
<ele>588.0</ele>
<speed>92.9</speed>
<course>244.0</course>
<desc>Speed 92.9 km/h Distance 81.75 km</desc>
<time>2010-07-31T15:09:39.36</time>
<name>2750</name>
</trkpt>
<trkpt lat="48.846780" lon="11.013032">
<ele>587.5</ele>
<speed>91.0</speed>
<course>239.9</course>
<desc>Speed 91.0 km/h Distance 81.77 km</desc>
<time>2010-07-31T15:09:40.35</time>
<name>2751</name>
</trkpt>
<trkpt lat="48.846667" lon="11.012735">
<ele>588.0</ele>
<speed>90.8</speed>
<course>239.3</course>
<desc>Speed 90.8 km/h Distance 81.80 km</desc>
<time>2010-07-31T15:09:41.35</time>
<name>2752</name>
</trkpt>
<trkpt lat="48.846557" lon="11.012453">
<ele>587.5</ele>
<speed>87.3</speed>
<course>239.4</course>
<desc>Speed 87.3 km/h Distance 81.82 km</desc>
<time>2010-07-31T15:09:42.36</time>
<name>2753</name>
</trkpt>
<trkpt lat="48.846448" lon="11.012175">
<ele>587.5</ele>
<speed>86.5</speed>
<course>230.9</course>
<desc>Speed 86.5 km/h Distance 81.85 km</desc>
<time>2010-07-31T15:09:43.35</time>
<name>2754</name>
</trkpt>
<trkpt lat="48.846318" lon="11.011932">
<ele>587.5</ele>
<speed>83.0</speed>
<course>220.4</course>
<desc>Speed 83.0 km/h Distance 81.87 km</desc>
<time>2010-07-31T15:09:44.35</time>
<name>2755</name>
</trkpt>
<trkpt lat="48.846160" lon="11.011727">
<ele>587.0</ele>
<speed>84.4</speed>
<course>217.3</course>
<desc>Speed 84.4 km/h Distance 81.89 km</desc>
<time>2010-07-31T15:09:45.36</time>
<name>2756</name>
</trkpt>
<trkpt lat="48.845992" lon="11.011532">
<ele>587.0</ele>
<speed>85.2</speed>
<course>214.1</course>
<desc>Speed 85.2 km/h Distance 81.92 km</desc>
<time>2010-07-31T15:09:46.36</time>
<name>2757</name>
</trkpt>
<trkpt lat="48.845817" lon="11.011352">
<ele>587.0</ele>
<speed>85.2</speed>
<course>212.9</course>
<desc>Speed 85.2 km/h Distance 81.94 km</desc>
<time>2010-07-31T15:09:47.36</time>
<name>2758</name>
</trkpt>
<trkpt lat="48.845637" lon="11.011175">
<ele>587.0</ele>
<speed>86.1</speed>
<course>217.0</course>
<desc>Speed 86.1 km/h Distance 81.96 km</desc>
<time>2010-07-31T15:09:48.35</time>
<name>2759</name>
</trkpt>
<trkpt lat="48.845477" lon="11.010992">
<ele>586.0</ele>
<speed>81.1</speed>
<course>213.9</course>
<desc>Speed 81.1 km/h Distance 81.99 km</desc>
<time>2010-07-31T15:09:49.35</time>
<name>2760</name>
</trkpt>
<trkpt lat="48.845315" lon="11.010827">
<ele>585.5</ele>
<speed>80.9</speed>
<course>211.7</course>
<desc>Speed 80.9 km/h Distance 82.01 km</desc>
<time>2010-07-31T15:09:50.35</time>
<name>2761</name>
</trkpt>
<trkpt lat="48.845148" lon="11.010670">
<ele>585.5</ele>
<speed>79.4</speed>
<course>208.4</course>
<desc>Speed 79.4 km/h Distance 82.03 km</desc>
<time>2010-07-31T15:09:51.35</time>
<name>2762</name>
</trkpt>
<trkpt lat="48.844982" lon="11.010533">
<ele>585.5</ele>
<speed>75.6</speed>
<course>191.2</course>
<desc>Speed 75.6 km/h Distance 82.05 km</desc>
<time>2010-07-31T15:09:52.35</time>
<name>2763</name>
</trkpt>
<trkpt lat="48.844037" lon="11.010248">
<ele>586.0</ele>
<speed>89.9</speed>
<course>149.9</course>
<desc>Speed 89.9 km/h Distance 82.16 km</desc>
<time>2010-07-31T15:09:59.34</time>
<name>2764</name>
</trkpt>
<trkpt lat="48.843580" lon="11.010650">
<ele>585.5</ele>
<speed>89.9</speed>
<course>110.1</course>
<desc>Speed 89.9 km/h Distance 82.22 km</desc>
<time>2010-07-31T15:10:02.34</time>
<name>2765</name>
</trkpt>
<trkpt lat="48.842888" lon="11.013520">
<ele>584.0</ele>
<speed>102</speed>
<course>120.8</course>
<desc>Speed 102 km/h Distance 82.44 km</desc>
<time>2010-07-31T15:10:10.34</time>
<name>2766</name>
</trkpt>
<trkpt lat="48.842617" lon="11.014213">
<ele>584.0</ele>
<speed>104</speed>
<course>128.4</course>
<desc>Speed 104 km/h Distance 82.50 km</desc>
<time>2010-07-31T15:10:12.34</time>
<name>2767</name>
</trkpt>
<trkpt lat="48.842258" lon="11.014900">
<ele>583.5</ele>
<speed>106</speed>
<course>132.3</course>
<desc>Speed 106 km/h Distance 82.56 km</desc>
<time>2010-07-31T15:10:14.34</time>
<name>2768</name>
</trkpt>
<trkpt lat="48.842077" lon="11.015203">
<ele>583.5</ele>
<speed>106</speed>
<course>133.5</course>
<desc>Speed 106 km/h Distance 82.59 km</desc>
<time>2010-07-31T15:10:15.33</time>
<name>2769</name>
</trkpt>
<trkpt lat="48.841893" lon="11.015497">
<ele>582.5</ele>
<speed>105</speed>
<course>133.7</course>
<desc>Speed 105 km/h Distance 82.62 km</desc>
<time>2010-07-31T15:10:16.34</time>
<name>2770</name>
</trkpt>
<trkpt lat="48.841715" lon="11.015780">
<ele>581.5</ele>
<speed>104</speed>
<course>133.0</course>
<desc>Speed 104 km/h Distance 82.65 km</desc>
<time>2010-07-31T15:10:17.33</time>
<name>2771</name>
</trkpt>
<trkpt lat="48.841530" lon="11.016082">
<ele>580.5</ele>
<speed>105</speed>
<course>134.3</course>
<desc>Speed 105 km/h Distance 82.68 km</desc>
<time>2010-07-31T15:10:18.33</time>
<name>2772</name>
</trkpt>
<trkpt lat="48.841348" lon="11.016365">
<ele>580.0</ele>
<speed>103</speed>
<course>136.5</course>
<desc>Speed 103 km/h Distance 82.71 km</desc>
<time>2010-07-31T15:10:19.33</time>
<name>2773</name>
</trkpt>
<trkpt lat="48.841163" lon="11.016632">
<ele>580.0</ele>
<speed>102</speed>
<course>138.8</course>
<desc>Speed 102 km/h Distance 82.74 km</desc>
<time>2010-07-31T15:10:20.33</time>
<name>2774</name>
</trkpt>
<trkpt lat="48.840967" lon="11.016893">
<ele>580.0</ele>
<speed>104</speed>
<course>140.9</course>
<desc>Speed 104 km/h Distance 82.77 km</desc>
<time>2010-07-31T15:10:21.33</time>
<name>2775</name>
</trkpt>
<trkpt lat="48.840760" lon="11.017148">
<ele>580.0</ele>
<speed>105</speed>
<course>142.2</course>
<desc>Speed 105 km/h Distance 82.80 km</desc>
<time>2010-07-31T15:10:22.33</time>
<name>2776</name>
</trkpt>
<trkpt lat="48.840555" lon="11.017390">
<ele>580.0</ele>
<speed>104</speed>
<course>143.0</course>
<desc>Speed 104 km/h Distance 82.83 km</desc>
<time>2010-07-31T15:10:23.33</time>
<name>2777</name>
</trkpt>
<trkpt lat="48.840348" lon="11.017627">
<ele>580.0</ele>
<speed>103</speed>
<course>142.6</course>
<desc>Speed 103 km/h Distance 82.86 km</desc>
<time>2010-07-31T15:10:24.33</time>
<name>2778</name>
</trkpt>
<trkpt lat="48.840150" lon="11.017857">
<ele>580.0</ele>
<speed>99.2</speed>
<course>143.1</course>
<desc>Speed 99.2 km/h Distance 82.88 km</desc>
<time>2010-07-31T15:10:25.33</time>
<name>2779</name>
</trkpt>
<trkpt lat="48.839962" lon="11.018072">
<ele>580.0</ele>
<speed>94.4</speed>
<course>143.8</course>
<desc>Speed 94.4 km/h Distance 82.91 km</desc>
<time>2010-07-31T15:10:26.33</time>
<name>2780</name>
</trkpt>
<trkpt lat="48.839782" lon="11.018272">
<ele>579.5</ele>
<speed>88.7</speed>
<course>144.4</course>
<desc>Speed 88.7 km/h Distance 82.93 km</desc>
<time>2010-07-31T15:10:27.34</time>
<name>2781</name>
</trkpt>
<trkpt lat="48.839613" lon="11.018455">
<ele>579.0</ele>
<speed>83.5</speed>
<course>144.3</course>
<desc>Speed 83.5 km/h Distance 82.96 km</desc>
<time>2010-07-31T15:10:28.33</time>
<name>2782</name>
</trkpt>
<trkpt lat="48.839450" lon="11.018633">
<ele>579.0</ele>
<speed>79.3</speed>
<course>140.1</course>
<desc>Speed 79.3 km/h Distance 82.98 km</desc>
<time>2010-07-31T15:10:29.32</time>
<name>2783</name>
</trkpt>
<trkpt lat="48.839302" lon="11.018822">
<ele>579.5</ele>
<speed>76.0</speed>
<course>145.1</course>
<desc>Speed 76.0 km/h Distance 83.00 km</desc>
<time>2010-07-31T15:10:30.32</time>
<name>2784</name>
</trkpt>
<trkpt lat="48.839027" lon="11.019113">
<ele>579.5</ele>
<speed>66.9</speed>
<course>139.4</course>
<desc>Speed 66.9 km/h Distance 83.04 km</desc>
<time>2010-07-31T15:10:32.33</time>
<name>2785</name>
</trkpt>
<trkpt lat="48.838910" lon="11.019265">
<ele>578.5</ele>
<speed>64.3</speed>
<course>138.7</course>
<desc>Speed 64.3 km/h Distance 83.06 km</desc>
<time>2010-07-31T15:10:33.33</time>
<name>2786</name>
</trkpt>
<trkpt lat="48.838710" lon="11.019532">
<ele>578.0</ele>
<speed>55.5</speed>
<course>134.0</course>
<desc>Speed 55.5 km/h Distance 83.09 km</desc>
<time>2010-07-31T15:10:35.33</time>
<name>2787</name>
</trkpt>
<trkpt lat="48.838620" lon="11.019673">
<ele>577.5</ele>
<speed>52.6</speed>
<course>133.9</course>
<desc>Speed 52.6 km/h Distance 83.10 km</desc>
<time>2010-07-31T15:10:36.32</time>
<name>2788</name>
</trkpt>
<trkpt lat="48.838533" lon="11.019810">
<ele>577.5</ele>
<speed>51.5</speed>
<course>156.5</course>
<desc>Speed 51.5 km/h Distance 83.11 km</desc>
<time>2010-07-31T15:10:37.32</time>
<name>2789</name>
</trkpt>
<trkpt lat="48.838415" lon="11.019888">
<ele>576.0</ele>
<speed>51.7</speed>
<course>135.4</course>
<desc>Speed 51.7 km/h Distance 83.13 km</desc>
<time>2010-07-31T15:10:38.32</time>
<name>2790</name>
</trkpt>
<trkpt lat="48.838328" lon="11.020018">
<ele>575.0</ele>
<speed>50.8</speed>
<course>128.4</course>
<desc>Speed 50.8 km/h Distance 83.14 km</desc>
<time>2010-07-31T15:10:39.32</time>
<name>2791</name>
</trkpt>
<trkpt lat="48.838245" lon="11.020178">
<ele>575.5</ele>
<speed>51.3</speed>
<course>126.9</course>
<desc>Speed 51.3 km/h Distance 83.16 km</desc>
<time>2010-07-31T15:10:40.32</time>
<name>2792</name>
</trkpt>
<trkpt lat="48.838165" lon="11.020340">
<ele>575.5</ele>
<speed>51.0</speed>
<course>129.0</course>
<desc>Speed 51.0 km/h Distance 83.17 km</desc>
<time>2010-07-31T15:10:41.32</time>
<name>2793</name>
</trkpt>
<trkpt lat="48.838083" lon="11.020493">
<ele>575.0</ele>
<speed>50.9</speed>
<course>126.1</course>
<desc>Speed 50.9 km/h Distance 83.19 km</desc>
<time>2010-07-31T15:10:42.32</time>
<name>2794</name>
</trkpt>
<trkpt lat="48.838007" lon="11.020653">
<ele>575.0</ele>
<speed>50.5</speed>
<course>125.9</course>
<desc>Speed 50.5 km/h Distance 83.20 km</desc>
<time>2010-07-31T15:10:43.32</time>
<name>2795</name>
</trkpt>
<trkpt lat="48.837942" lon="11.020790">
<ele>575.5</ele>
<speed>50.5</speed>
<course>134.1</course>
<desc>Speed 50.5 km/h Distance 83.21 km</desc>
<time>2010-07-31T15:10:44.32</time>
<name>2796</name>
</trkpt>
<trkpt lat="48.837750" lon="11.021090">
<ele>578.5</ele>
<speed>49.1</speed>
<course>134.5</course>
<desc>Speed 49.1 km/h Distance 83.24 km</desc>
<time>2010-07-31T15:10:46.31</time>
<name>2797</name>
</trkpt>
<trkpt lat="48.837577" lon="11.021358">
<ele>578.0</ele>
<speed>31.5</speed>
<course>54.3</course>
<desc>Speed 31.5 km/h Distance 83.27 km</desc>
<time>2010-07-31T15:10:49.31</time>
<name>2798</name>
</trkpt>
<trkpt lat="48.837607" lon="11.021422">
<ele>577.0</ele>
<speed>10.1</speed>
<course>71.3</course>
<desc>Speed 10.1 km/h Distance 83.28 km</desc>
<time>2010-07-31T15:10:53.32</time>
<name>2799</name>
</trkpt>
<trkpt lat="48.837610" lon="11.021437">
<ele>577.0</ele>
<speed>10.1</speed>
<course>69.2</course>
<desc>Speed 10.1 km/h Distance 83.28 km</desc>
<time>2010-07-31T15:10:54.31</time>
<name>2800</name>
</trkpt>
<trkpt lat="48.837615" lon="11.021457">
<ele>577.0</ele>
<speed>10.1</speed>
<course>84.2</course>
<desc>Speed 10.1 km/h Distance 83.28 km</desc>
<time>2010-07-31T15:10:56.31</time>
<name>2801</name>
</trkpt>
<trkpt lat="48.837617" lon="11.021482">
<ele>577.5</ele>
<speed>10.1</speed>
<course>134.5</course>
<desc>Speed 10.1 km/h Distance 83.28 km</desc>
<time>2010-07-31T15:10:57.31</time>
<name>2802</name>
</trkpt>
<trkpt lat="48.837473" lon="11.021703">
<ele>579.0</ele>
<speed>29.8</speed>
<course>154.6</course>
<desc>Speed 29.8 km/h Distance 83.30 km</desc>
<time>2010-07-31T15:11:00.31</time>
<name>2803</name>
</trkpt>
<trkpt lat="48.837323" lon="11.021812">
<ele>580.0</ele>
<speed>43.6</speed>
<course>175.5</course>
<desc>Speed 43.6 km/h Distance 83.32 km</desc>
<time>2010-07-31T15:11:02.31</time>
<name>2804</name>
</trkpt>
<trkpt lat="48.837070" lon="11.021842">
<ele>579.0</ele>
<speed>32.6</speed>
<course>170.1</course>
<desc>Speed 32.6 km/h Distance 83.35 km</desc>
<time>2010-07-31T15:11:04.30</time>
<name>2805</name>
</trkpt>
<trkpt lat="48.836982" lon="11.021865">
<ele>578.5</ele>
<speed>32.6</speed>
<course>161.2</course>
<desc>Speed 32.6 km/h Distance 83.36 km</desc>
<time>2010-07-31T15:11:05.30</time>
<name>2806</name>
</trkpt>
<trkpt lat="48.836892" lon="11.021912">
<ele>577.0</ele>
<speed>26.5</speed>
<course>150.9</course>
<desc>Speed 26.5 km/h Distance 83.37 km</desc>
<time>2010-07-31T15:11:06.30</time>
<name>2807</name>
</trkpt>
<trkpt lat="48.836750" lon="11.022032">
<ele>575.5</ele>
<speed>26.7</speed>
<course>139.7</course>
<desc>Speed 26.7 km/h Distance 83.39 km</desc>
<time>2010-07-31T15:11:08.30</time>
<name>2808</name>
</trkpt>
<trkpt lat="48.836687" lon="11.022113">
<ele>575.0</ele>
<speed>31.4</speed>
<course>153.4</course>
<desc>Speed 31.4 km/h Distance 83.40 km</desc>
<time>2010-07-31T15:11:09.29</time>
<name>2809</name>
</trkpt>
<trkpt lat="48.836340" lon="11.022377">
<ele>575.5</ele>
<speed>36.4</speed>
<course>138.4</course>
<desc>Speed 36.4 km/h Distance 83.44 km</desc>
<time>2010-07-31T15:11:12.29</time>
<name>2810</name>
</trkpt>
<trkpt lat="48.836268" lon="11.022473">
<ele>575.0</ele>
<speed>34.6</speed>
<course>145.5</course>
<desc>Speed 34.6 km/h Distance 83.45 km</desc>
<time>2010-07-31T15:11:13.29</time>
<name>2811</name>
</trkpt>
<trkpt lat="48.836085" lon="11.022665">
<ele>574.5</ele>
<speed>41.8</speed>
<course>154.6</course>
<desc>Speed 41.8 km/h Distance 83.48 km</desc>
<time>2010-07-31T15:11:15.29</time>
<name>2812</name>
</trkpt>
<trkpt lat="48.835905" lon="11.022795">
<ele>575.0</ele>
<speed>40.8</speed>
<course>154.7</course>
<desc>Speed 40.8 km/h Distance 83.50 km</desc>
<time>2010-07-31T15:11:17.29</time>
<name>2813</name>
</trkpt>
<trkpt lat="48.835710" lon="11.022935">
<ele>575.5</ele>
<speed>45.4</speed>
<course>162.4</course>
<desc>Speed 45.4 km/h Distance 83.52 km</desc>
<time>2010-07-31T15:11:19.29</time>
<name>2814</name>
</trkpt>
<trkpt lat="48.835613" lon="11.022982">
<ele>575.0</ele>
<speed>45.4</speed>
<course>157.2</course>
<desc>Speed 45.4 km/h Distance 83.53 km</desc>
<time>2010-07-31T15:11:20.29</time>
<name>2815</name>
</trkpt>
<trkpt lat="48.834463" lon="11.023715">
<ele>578.5</ele>
<speed>80.5</speed>
<course>159.8</course>
<desc>Speed 80.5 km/h Distance 83.67 km</desc>
<time>2010-07-31T15:11:26.27</time>
<name>2816</name>
</trkpt>
<trkpt lat="48.834255" lon="11.023832">
<ele>579.0</ele>
<speed>79.0</speed>
<course>163.8</course>
<desc>Speed 79.0 km/h Distance 83.70 km</desc>
<time>2010-07-31T15:11:27.30</time>
<name>2817</name>
</trkpt>
<trkpt lat="48.833840" lon="11.024015">
<ele>579.0</ele>
<speed>79.8</speed>
<course>164.3</course>
<desc>Speed 79.8 km/h Distance 83.75 km</desc>
<time>2010-07-31T15:11:29.28</time>
<name>2818</name>
</trkpt>
<trkpt lat="48.833645" lon="11.024098">
<ele>579.0</ele>
<speed>77.4</speed>
<course>173.2</course>
<desc>Speed 77.4 km/h Distance 83.77 km</desc>
<time>2010-07-31T15:11:30.28</time>
<name>2819</name>
</trkpt>
<trkpt lat="48.833230" lon="11.024173">
<ele>578.5</ele>
<speed>81.3</speed>
<course>182.6</course>
<desc>Speed 81.3 km/h Distance 83.82 km</desc>
<time>2010-07-31T15:11:32.28</time>
<name>2820</name>
</trkpt>
<trkpt lat="48.832777" lon="11.024142">
<ele>578.5</ele>
<speed>91.9</speed>
<course>185.6</course>
<desc>Speed 91.9 km/h Distance 83.87 km</desc>
<time>2010-07-31T15:11:34.28</time>
<name>2821</name>
</trkpt>
<trkpt lat="48.832553" lon="11.024108">
<ele>578.5</ele>
<speed>89.1</speed>
<course>186.6</course>
<desc>Speed 89.1 km/h Distance 83.89 km</desc>
<time>2010-07-31T15:11:35.28</time>
<name>2822</name>
</trkpt>
<trkpt lat="48.832337" lon="11.024070">
<ele>578.5</ele>
<speed>86.9</speed>
<course>187.2</course>
<desc>Speed 86.9 km/h Distance 83.92 km</desc>
<time>2010-07-31T15:11:36.28</time>
<name>2823</name>
</trkpt>
<trkpt lat="48.831965" lon="11.023998">
<ele>578.5</ele>
<speed>82.5</speed>
<course>185.6</course>
<desc>Speed 82.5 km/h Distance 83.96 km</desc>
<time>2010-07-31T15:11:38.28</time>
<name>2824</name>
</trkpt>
<trkpt lat="48.831598" lon="11.023943">
<ele>577.0</ele>
<speed>91.7</speed>
<course>173.8</course>
<desc>Speed 91.7 km/h Distance 84.00 km</desc>
<time>2010-07-31T15:11:40.27</time>
<name>2825</name>
</trkpt>
<trkpt lat="48.830843" lon="11.024068">
<ele>576.0</ele>
<speed>91.7</speed>
<course>176.1</course>
<desc>Speed 91.7 km/h Distance 84.08 km</desc>
<time>2010-07-31T15:11:45.27</time>
<name>2826</name>
</trkpt>
<trkpt lat="48.830208" lon="11.024133">
<ele>576.0</ele>
<speed>91.4</speed>
<course>172.3</course>
<desc>Speed 91.4 km/h Distance 84.15 km</desc>
<time>2010-07-31T15:11:48.27</time>
<name>2827</name>
</trkpt>
<trkpt lat="48.829690" lon="11.024240">
<ele>576.0</ele>
<speed>86.1</speed>
<course>177.5</course>
<desc>Speed 86.1 km/h Distance 84.21 km</desc>
<time>2010-07-31T15:11:50.27</time>
<name>2828</name>
</trkpt>
<trkpt lat="48.829193" lon="11.024273">
<ele>575.5</ele>
<speed>81.5</speed>
<course>182.6</course>
<desc>Speed 81.5 km/h Distance 84.27 km</desc>
<time>2010-07-31T15:11:52.27</time>
<name>2829</name>
</trkpt>
<trkpt lat="48.828445" lon="11.024222">
<ele>576.0</ele>
<speed>79.5</speed>
<course>177.3</course>
<desc>Speed 79.5 km/h Distance 84.35 km</desc>
<time>2010-07-31T15:11:55.26</time>
<name>2830</name>
</trkpt>
<trkpt lat="48.828010" lon="11.024253">
<ele>575.0</ele>
<speed>79.3</speed>
<course>174.4</course>
<desc>Speed 79.3 km/h Distance 84.40 km</desc>
<time>2010-07-31T15:11:57.26</time>
<name>2831</name>
</trkpt>
<trkpt lat="48.827593" lon="11.024315">
<ele>574.5</ele>
<speed>74.8</speed>
<course>171.1</course>
<desc>Speed 74.8 km/h Distance 84.45 km</desc>
<time>2010-07-31T15:11:59.26</time>
<name>2832</name>
</trkpt>
<trkpt lat="48.827418" lon="11.024357">
<ele>574.5</ele>
<speed>71.2</speed>
<course>171.4</course>
<desc>Speed 71.2 km/h Distance 84.46 km</desc>
<time>2010-07-31T15:12:00.26</time>
<name>2833</name>
</trkpt>
<trkpt lat="48.827237" lon="11.024398">
<ele>574.0</ele>
<speed>66.9</speed>
<course>165.2</course>
<desc>Speed 66.9 km/h Distance 84.49 km</desc>
<time>2010-07-31T15:12:01.26</time>
<name>2834</name>
</trkpt>
<trkpt lat="48.827078" lon="11.024462">
<ele>573.0</ele>
<speed>63.1</speed>
<course>140.3</course>
<desc>Speed 63.1 km/h Distance 84.50 km</desc>
<time>2010-07-31T15:12:02.26</time>
<name>2835</name>
</trkpt>
<trkpt lat="48.826652" lon="11.025000">
<ele>570.5</ele>
<speed>64.3</speed>
<course>125.4</course>
<desc>Speed 64.3 km/h Distance 84.57 km</desc>
<time>2010-07-31T15:12:05.25</time>
<name>2836</name>
</trkpt>
<trkpt lat="48.826567" lon="11.025182">
<ele>569.5</ele>
<speed>60.8</speed>
<course>124.8</course>
<desc>Speed 60.8 km/h Distance 84.58 km</desc>
<time>2010-07-31T15:12:06.25</time>
<name>2837</name>
</trkpt>
<trkpt lat="48.826485" lon="11.025360">
<ele>569.5</ele>
<speed>56.8</speed>
<course>132.0</course>
<desc>Speed 56.8 km/h Distance 84.60 km</desc>
<time>2010-07-31T15:12:07.26</time>
<name>2838</name>
</trkpt>
<trkpt lat="48.826282" lon="11.025703">
<ele>568.0</ele>
<speed>39.2</speed>
<course>72.4</course>
<desc>Speed 39.2 km/h Distance 84.63 km</desc>
<time>2010-07-31T15:12:11.25</time>
<name>2839</name>
</trkpt>
<trkpt lat="48.826328" lon="11.025927">
<ele>564.5</ele>
<speed>51.9</speed>
<course>60.0</course>
<desc>Speed 51.9 km/h Distance 84.65 km</desc>
<time>2010-07-31T15:12:14.25</time>
<name>2840</name>
</trkpt>
<trkpt lat="48.826482" lon="11.026330">
<ele>565.0</ele>
<speed>51.9</speed>
<course>66.2</course>
<desc>Speed 51.9 km/h Distance 84.68 km</desc>
<time>2010-07-31T15:12:17.24</time>
<name>2841</name>
</trkpt>
<trkpt lat="48.826612" lon="11.026777">
<ele>563.0</ele>
<speed>54.1</speed>
<course>65.2</course>
<desc>Speed 54.1 km/h Distance 84.72 km</desc>
<time>2010-07-31T15:12:19.25</time>
<name>2842</name>
</trkpt>
<trkpt lat="48.826747" lon="11.027220">
<ele>565.0</ele>
<speed>54.6</speed>
<course>93.9</course>
<desc>Speed 54.6 km/h Distance 84.75 km</desc>
<time>2010-07-31T15:12:21.25</time>
<name>2843</name>
</trkpt>
<trkpt lat="48.826710" lon="11.028030">
<ele>564.5</ele>
<speed>70.2</speed>
<course>103.9</course>
<desc>Speed 70.2 km/h Distance 84.81 km</desc>
<time>2010-07-31T15:12:24.25</time>
<name>2844</name>
</trkpt>
<trkpt lat="48.826615" lon="11.028615">
<ele>562.5</ele>
<speed>78.2</speed>
<course>111.0</course>
<desc>Speed 78.2 km/h Distance 84.86 km</desc>
<time>2010-07-31T15:12:26.25</time>
<name>2845</name>
</trkpt>
<trkpt lat="48.826545" lon="11.028892">
<ele>561.0</ele>
<speed>77.9</speed>
<course>121.8</course>
<desc>Speed 77.9 km/h Distance 84.88 km</desc>
<time>2010-07-31T15:12:27.26</time>
<name>2846</name>
</trkpt>
<trkpt lat="48.826438" lon="11.029153">
<ele>560.0</ele>
<speed>80.0</speed>
<course>122.7</course>
<desc>Speed 80.0 km/h Distance 84.90 km</desc>
<time>2010-07-31T15:12:28.24</time>
<name>2847</name>
</trkpt>
<trkpt lat="48.826325" lon="11.029422">
<ele>558.5</ele>
<speed>81.4</speed>
<course>124.0</course>
<desc>Speed 81.4 km/h Distance 84.93 km</desc>
<time>2010-07-31T15:12:29.24</time>
<name>2848</name>
</trkpt>
<trkpt lat="48.826205" lon="11.029692">
<ele>557.0</ele>
<speed>78.3</speed>
<course>126.0</course>
<desc>Speed 78.3 km/h Distance 84.95 km</desc>
<time>2010-07-31T15:12:30.25</time>
<name>2849</name>
</trkpt>
<trkpt lat="48.826092" lon="11.029928">
<ele>554.5</ele>
<speed>73.2</speed>
<course>137.6</course>
<desc>Speed 73.2 km/h Distance 84.97 km</desc>
<time>2010-07-31T15:12:31.24</time>
<name>2850</name>
</trkpt>
<trkpt lat="48.825772" lon="11.030372">
<ele>552.5</ele>
<speed>71.6</speed>
<course>140.5</course>
<desc>Speed 71.6 km/h Distance 85.02 km</desc>
<time>2010-07-31T15:12:34.23</time>
<name>2851</name>
</trkpt>
<trkpt lat="48.825485" lon="11.030730">
<ele>550.5</ele>
<speed>77.3</speed>
<course>137.6</course>
<desc>Speed 77.3 km/h Distance 85.06 km</desc>
<time>2010-07-31T15:12:36.23</time>
<name>2852</name>
</trkpt>
<trkpt lat="48.825347" lon="11.030922">
<ele>549.5</ele>
<speed>74.2</speed>
<course>146.1</course>
<desc>Speed 74.2 km/h Distance 85.08 km</desc>
<time>2010-07-31T15:12:37.23</time>
<name>2853</name>
</trkpt>
<trkpt lat="48.825095" lon="11.031178">
<ele>539.0</ele>
<speed>63.4</speed>
<course>160.0</course>
<desc>Speed 63.4 km/h Distance 85.12 km</desc>
<time>2010-07-31T15:12:39.24</time>
<name>2854</name>
</trkpt>
<trkpt lat="48.824675" lon="11.031410">
<ele>518.0</ele>
<speed>22.6</speed>
<course>223.4</course>
<desc>Speed 22.6 km/h Distance 85.16 km</desc>
<time>2010-07-31T15:12:45.23</time>
<name>2855</name>
</trkpt>
<trkpt lat="48.823903" lon="11.030302">
<ele>501.5</ele>
<speed>98.6</speed>
<course>223.2</course>
<desc>Speed 98.6 km/h Distance 85.28 km</desc>
<time>2010-07-31T15:12:51.22</time>
<name>2856</name>
</trkpt>
<trkpt lat="48.823537" lon="11.029778">
<ele>500.0</ele>
<speed>103</speed>
<course>221.0</course>
<desc>Speed 103 km/h Distance 85.34 km</desc>
<time>2010-07-31T15:12:53.22</time>
<name>2857</name>
</trkpt>
<trkpt lat="48.823333" lon="11.029510">
<ele>498.0</ele>
<speed>100</speed>
<course>223.2</course>
<desc>Speed 100 km/h Distance 85.37 km</desc>
<time>2010-07-31T15:12:54.21</time>
<name>2858</name>
</trkpt>
<trkpt lat="48.823150" lon="11.029248">
<ele>496.5</ele>
<speed>96.7</speed>
<course>224.5</course>
<desc>Speed 96.7 km/h Distance 85.40 km</desc>
<time>2010-07-31T15:12:55.21</time>
<name>2859</name>
</trkpt>
<trkpt lat="48.822978" lon="11.028992">
<ele>496.5</ele>
<speed>94.3</speed>
<course>228.5</course>
<desc>Speed 94.3 km/h Distance 85.42 km</desc>
<time>2010-07-31T15:12:56.21</time>
<name>2860</name>
</trkpt>
<trkpt lat="48.822825" lon="11.028728">
<ele>495.5</ele>
<speed>91.5</speed>
<course>231.5</course>
<desc>Speed 91.5 km/h Distance 85.45 km</desc>
<time>2010-07-31T15:12:57.22</time>
<name>2861</name>
</trkpt>
<trkpt lat="48.822680" lon="11.028452">
<ele>495.0</ele>
<speed>92.2</speed>
<course>238.6</course>
<desc>Speed 92.2 km/h Distance 85.48 km</desc>
<time>2010-07-31T15:12:58.21</time>
<name>2862</name>
</trkpt>
<trkpt lat="48.822558" lon="11.028148">
<ele>493.0</ele>
<speed>92.6</speed>
<course>244.7</course>
<desc>Speed 92.6 km/h Distance 85.50 km</desc>
<time>2010-07-31T15:12:59.22</time>
<name>2863</name>
</trkpt>
<trkpt lat="48.822463" lon="11.027843">
<ele>493.5</ele>
<speed>89.6</speed>
<course>251.3</course>
<desc>Speed 89.6 km/h Distance 85.53 km</desc>
<time>2010-07-31T15:13:00.22</time>
<name>2864</name>
</trkpt>
<trkpt lat="48.822388" lon="11.027507">
<ele>493.5</ele>
<speed>94.6</speed>
<course>259.6</course>
<desc>Speed 94.6 km/h Distance 85.55 km</desc>
<time>2010-07-31T15:13:01.22</time>
<name>2865</name>
</trkpt>
<trkpt lat="48.822347" lon="11.027162">
<ele>493.0</ele>
<speed>92.9</speed>
<course>263.5</course>
<desc>Speed 92.9 km/h Distance 85.58 km</desc>
<time>2010-07-31T15:13:02.22</time>
<name>2866</name>
</trkpt>
<trkpt lat="48.822263" lon="11.026047">
<ele>492.0</ele>
<speed>92.9</speed>
<course>288.1</course>
<desc>Speed 92.9 km/h Distance 85.66 km</desc>
<time>2010-07-31T15:13:08.20</time>
<name>2867</name>
</trkpt>
<trkpt lat="48.822427" lon="11.025288">
<ele>491.0</ele>
<speed>92.9</speed>
<course>286.8</course>
<desc>Speed 92.9 km/h Distance 85.72 km</desc>
<time>2010-07-31T15:13:10.21</time>
<name>2868</name>
</trkpt>
<trkpt lat="48.822927" lon="11.022765">
<ele>490.0</ele>
<speed>92.9</speed>
<course>304.1</course>
<desc>Speed 92.9 km/h Distance 85.91 km</desc>
<time>2010-07-31T15:13:18.20</time>
<name>2869</name>
</trkpt>
<trkpt lat="48.823708" lon="11.021010">
<ele>490.5</ele>
<speed>92.9</speed>
<course>304.9</course>
<desc>Speed 92.9 km/h Distance 86.07 km</desc>
<time>2010-07-31T15:13:23.20</time>
<name>2870</name>
</trkpt>
<trkpt lat="48.824205" lon="11.019928">
<ele>491.5</ele>
<speed>92.9</speed>
<course>289.5</course>
<desc>Speed 92.9 km/h Distance 86.16 km</desc>
<time>2010-07-31T15:13:26.20</time>
<name>2871</name>
</trkpt>
<trkpt lat="48.824468" lon="11.018798">
<ele>490.5</ele>
<speed>81.7</speed>
<course>298.2</course>
<desc>Speed 81.7 km/h Distance 86.25 km</desc>
<time>2010-07-31T15:13:29.19</time>
<name>2872</name>
</trkpt>
<trkpt lat="48.824685" lon="11.018185">
<ele>490.5</ele>
<speed>66.3</speed>
<course>296.4</course>
<desc>Speed 66.3 km/h Distance 86.30 km</desc>
<time>2010-07-31T15:13:32.19</time>
<name>2873</name>
</trkpt>
<trkpt lat="48.824845" lon="11.017695">
<ele>490.5</ele>
<speed>66.3</speed>
<course>260.5</course>
<desc>Speed 66.3 km/h Distance 86.34 km</desc>
<time>2010-07-31T15:13:35.18</time>
<name>2874</name>
</trkpt>
<trkpt lat="48.824778" lon="11.017088">
<ele>490.0</ele>
<speed>66.3</speed>
<course>284.3</course>
<desc>Speed 66.3 km/h Distance 86.39 km</desc>
<time>2010-07-31T15:13:40.18</time>
<name>2875</name>
</trkpt>
<trkpt lat="48.824975" lon="11.015920">
<ele>489.0</ele>
<speed>66.3</speed>
<course>254.4</course>
<desc>Speed 66.3 km/h Distance 86.48 km</desc>
<time>2010-07-31T15:13:43.18</time>
<name>2876</name>
</trkpt>
<trkpt lat="48.824315" lon="11.012337">
<ele>490.5</ele>
<speed>66.3</speed>
<course>260.7</course>
<desc>Speed 66.3 km/h Distance 86.75 km</desc>
<time>2010-07-31T15:13:47.18</time>
<name>2877</name>
</trkpt>
<trkpt lat="48.824260" lon="11.011825">
<ele>491.0</ele>
<speed>66.3</speed>
<course>257.9</course>
<desc>Speed 66.3 km/h Distance 86.79 km</desc>
<time>2010-07-31T15:13:49.17</time>
<name>2878</name>
</trkpt>
<trkpt lat="48.823898" lon="11.009257">
<ele>486.0</ele>
<speed>125</speed>
<course>265.6</course>
<desc>Speed 125 km/h Distance 86.98 km</desc>
<time>2010-07-31T15:13:55.17</time>
<name>2879</name>
</trkpt>
<trkpt lat="48.823848" lon="11.008260">
<ele>484.5</ele>
<speed>133</speed>
<course>263.0</course>
<desc>Speed 133 km/h Distance 87.05 km</desc>
<time>2010-07-31T15:13:57.16</time>
<name>2880</name>
</trkpt>
<trkpt lat="48.823735" lon="11.006848">
<ele>482.0</ele>
<speed>133</speed>
<course>239.5</course>
<desc>Speed 133 km/h Distance 87.16 km</desc>
<time>2010-07-31T15:14:02.20</time>
<name>2881</name>
</trkpt>
<trkpt lat="48.823133" lon="11.005297">
<ele>480.0</ele>
<speed>111</speed>
<course>235.9</course>
<desc>Speed 111 km/h Distance 87.29 km</desc>
<time>2010-07-31T15:14:06.16</time>
<name>2882</name>
</trkpt>
<trkpt lat="48.821833" lon="11.002378">
<ele>483.5</ele>
<speed>119</speed>
<course>225.6</course>
<desc>Speed 119 km/h Distance 87.55 km</desc>
<time>2010-07-31T15:14:12.16</time>
<name>2883</name>
</trkpt>
<trkpt lat="48.820833" lon="11.000830">
<ele>482.5</ele>
<speed>146</speed>
<course>222.6</course>
<desc>Speed 146 km/h Distance 87.71 km</desc>
<time>2010-07-31T15:14:16.16</time>
<name>2884</name>
</trkpt>
<trkpt lat="48.819972" lon="10.999625">
<ele>483.0</ele>
<speed>135</speed>
<course>226.9</course>
<desc>Speed 135 km/h Distance 87.84 km</desc>
<time>2010-07-31T15:14:19.16</time>
<name>2885</name>
</trkpt>
<trkpt lat="48.819510" lon="10.998875">
<ele>483.0</ele>
<speed>127</speed>
<course>225.7</course>
<desc>Speed 127 km/h Distance 87.91 km</desc>
<time>2010-07-31T15:14:21.16</time>
<name>2886</name>
</trkpt>
<trkpt lat="48.819295" lon="10.998540">
<ele>484.0</ele>
<speed>120</speed>
<course>227.6</course>
<desc>Speed 120 km/h Distance 87.95 km</desc>
<time>2010-07-31T15:14:22.16</time>
<name>2887</name>
</trkpt>
<trkpt lat="48.819088" lon="10.998197">
<ele>484.0</ele>
<speed>116</speed>
<course>227.8</course>
<desc>Speed 116 km/h Distance 87.98 km</desc>
<time>2010-07-31T15:14:23.16</time>
<name>2888</name>
</trkpt>
<trkpt lat="48.818885" lon="10.997857">
<ele>484.5</ele>
<speed>115</speed>
<course>228.5</course>
<desc>Speed 115 km/h Distance 88.01 km</desc>
<time>2010-07-31T15:14:24.16</time>
<name>2889</name>
</trkpt>
<trkpt lat="48.818692" lon="10.997525">
<ele>484.5</ele>
<speed>113</speed>
<course>232.2</course>
<desc>Speed 113 km/h Distance 88.05 km</desc>
<time>2010-07-31T15:14:25.15</time>
<name>2890</name>
</trkpt>
<trkpt lat="48.818377" lon="10.996908">
<ele>484.0</ele>
<speed>105</speed>
<course>242.0</course>
<desc>Speed 105 km/h Distance 88.10 km</desc>
<time>2010-07-31T15:14:27.17</time>
<name>2891</name>
</trkpt>
<trkpt lat="48.817952" lon="10.995697">
<ele>489.0</ele>
<speed>120</speed>
<course>250.6</course>
<desc>Speed 120 km/h Distance 88.20 km</desc>
<time>2010-07-31T15:14:30.15</time>
<name>2892</name>
</trkpt>
<trkpt lat="48.817640" lon="10.994350">
<ele>490.5</ele>
<speed>127</speed>
<course>252.4</course>
<desc>Speed 127 km/h Distance 88.31 km</desc>
<time>2010-07-31T15:14:33.15</time>
<name>2893</name>
</trkpt>
<trkpt lat="48.817542" lon="10.993878">
<ele>491.5</ele>
<speed>128</speed>
<course>253.0</course>
<desc>Speed 128 km/h Distance 88.35 km</desc>
<time>2010-07-31T15:14:34.15</time>
<name>2894</name>
</trkpt>
<trkpt lat="48.817372" lon="10.993033">
<ele>492.5</ele>
<speed>114</speed>
<course>256.7</course>
<desc>Speed 114 km/h Distance 88.41 km</desc>
<time>2010-07-31T15:14:36.15</time>
<name>2895</name>
</trkpt>
<trkpt lat="48.817118" lon="10.991412">
<ele>479.5</ele>
<speed>114</speed>
<course>271.6</course>
<desc>Speed 114 km/h Distance 88.53 km</desc>
<time>2010-07-31T15:14:42.14</time>
<name>2896</name>
</trkpt>
<trkpt lat="48.817188" lon="10.987617">
<ele>474.0</ele>
<speed>143</speed>
<course>278.1</course>
<desc>Speed 143 km/h Distance 88.81 km</desc>
<time>2010-07-31T15:14:48.14</time>
<name>2897</name>
</trkpt>
<trkpt lat="48.817292" lon="10.986508">
<ele>474.0</ele>
<speed>134</speed>
<course>269.9</course>
<desc>Speed 134 km/h Distance 88.89 km</desc>
<time>2010-07-31T15:14:50.13</time>
<name>2898</name>
</trkpt>
<trkpt lat="48.817290" lon="10.984803">
<ele>475.0</ele>
<speed>136</speed>
<course>275.7</course>
<desc>Speed 136 km/h Distance 89.02 km</desc>
<time>2010-07-31T15:14:53.13</time>
<name>2899</name>
</trkpt>
<trkpt lat="48.817325" lon="10.984267">
<ele>474.5</ele>
<speed>137</speed>
<course>275.7</course>
<desc>Speed 137 km/h Distance 89.06 km</desc>
<time>2010-07-31T15:14:54.13</time>
<name>2900</name>
</trkpt>
<trkpt lat="48.817360" lon="10.983733">
<ele>474.5</ele>
<speed>140</speed>
<course>269.9</course>
<desc>Speed 140 km/h Distance 89.10 km</desc>
<time>2010-07-31T15:14:55.13</time>
<name>2901</name>
</trkpt>
<trkpt lat="48.817358" lon="10.982677">
<ele>473.5</ele>
<speed>146</speed>
<course>266.4</course>
<desc>Speed 146 km/h Distance 89.17 km</desc>
<time>2010-07-31T15:14:57.12</time>
<name>2902</name>
</trkpt>
<trkpt lat="48.817312" lon="10.981553">
<ele>473.0</ele>
<speed>145</speed>
<course>274.3</course>
<desc>Speed 145 km/h Distance 89.26 km</desc>
<time>2010-07-31T15:14:59.13</time>
<name>2903</name>
</trkpt>
<trkpt lat="48.817417" lon="10.979417">
<ele>473.0</ele>
<speed>125</speed>
<course>275.6</course>
<desc>Speed 125 km/h Distance 89.41 km</desc>
<time>2010-07-31T15:15:04.12</time>
<name>2904</name>
</trkpt>
<trkpt lat="48.817495" lon="10.978200">
<ele>474.0</ele>
<speed>116</speed>
<course>264.3</course>
<desc>Speed 116 km/h Distance 89.50 km</desc>
<time>2010-07-31T15:15:07.12</time>
<name>2905</name>
</trkpt>
<trkpt lat="48.817465" lon="10.977742">
<ele>474.5</ele>
<speed>115</speed>
<course>267.5</course>
<desc>Speed 115 km/h Distance 89.54 km</desc>
<time>2010-07-31T15:15:08.11</time>
<name>2906</name>
</trkpt>
<trkpt lat="48.817440" lon="10.976883">
<ele>474.5</ele>
<speed>114</speed>
<course>267.4</course>
<desc>Speed 114 km/h Distance 89.60 km</desc>
<time>2010-07-31T15:15:10.11</time>
<name>2907</name>
</trkpt>
<trkpt lat="48.817402" lon="10.975577">
<ele>473.0</ele>
<speed>114</speed>
<course>275.3</course>
<desc>Speed 114 km/h Distance 89.70 km</desc>
<time>2010-07-31T15:15:14.11</time>
<name>2908</name>
</trkpt>
<trkpt lat="48.817627" lon="10.971913">
<ele>489.5</ele>
<speed>129</speed>
<course>279.6</course>
<desc>Speed 129 km/h Distance 89.97 km</desc>
<time>2010-07-31T15:15:20.11</time>
<name>2909</name>
</trkpt>
<trkpt lat="48.817680" lon="10.971437">
<ele>490.0</ele>
<speed>124</speed>
<course>288.8</course>
<desc>Speed 124 km/h Distance 90.00 km</desc>
<time>2010-07-31T15:15:21.11</time>
<name>2910</name>
</trkpt>
<trkpt lat="48.818100" lon="10.969567">
<ele>492.5</ele>
<speed>58.8</speed>
<course>281.2</course>
<desc>Speed 58.8 km/h Distance 90.15 km</desc>
<time>2010-07-31T15:15:27.11</time>
<name>2911</name>
</trkpt>
<trkpt lat="48.818177" lon="10.968980">
<ele>495.5</ele>
<speed>30.9</speed>
<course>241.9</course>
<desc>Speed 30.9 km/h Distance 90.19 km</desc>
<time>2010-07-31T15:15:32.09</time>
<name>2912</name>
</trkpt>
<trkpt lat="48.818135" lon="10.968862">
<ele>495.5</ele>
<speed>33.7</speed>
<course>241.9</course>
<desc>Speed 33.7 km/h Distance 90.20 km</desc>
<time>2010-07-31T15:15:33.10</time>
<name>2913</name>
</trkpt>
<trkpt lat="48.818028" lon="10.968558">
<ele>496.5</ele>
<speed>43.2</speed>
<course>222.0</course>
<desc>Speed 43.2 km/h Distance 90.22 km</desc>
<time>2010-07-31T15:15:35.10</time>
<name>2914</name>
</trkpt>
<trkpt lat="48.816870" lon="10.966973">
<ele>511.5</ele>
<speed>98.0</speed>
<course>226.1</course>
<desc>Speed 98.0 km/h Distance 90.40 km</desc>
<time>2010-07-31T15:15:41.10</time>
<name>2915</name>
</trkpt>
<trkpt lat="48.816703" lon="10.966710">
<ele>512.0</ele>
<speed>95.4</speed>
<course>211.6</course>
<desc>Speed 95.4 km/h Distance 90.42 km</desc>
<time>2010-07-31T15:15:42.09</time>
<name>2916</name>
</trkpt>
<trkpt lat="48.816053" lon="10.966102">
<ele>516.5</ele>
<speed>100</speed>
<course>205.5</course>
<desc>Speed 100 km/h Distance 90.51 km</desc>
<time>2010-07-31T15:15:45.10</time>
<name>2917</name>
</trkpt>
<trkpt lat="48.815570" lon="10.965752">
<ele>522.0</ele>
<speed>99.0</speed>
<course>217.4</course>
<desc>Speed 99.0 km/h Distance 90.57 km</desc>
<time>2010-07-31T15:15:47.10</time>
<name>2918</name>
</trkpt>
<trkpt lat="48.815383" lon="10.965535">
<ele>522.5</ele>
<speed>93.7</speed>
<course>222.2</course>
<desc>Speed 93.7 km/h Distance 90.60 km</desc>
<time>2010-07-31T15:15:48.09</time>
<name>2919</name>
</trkpt>
<trkpt lat="48.815202" lon="10.965285">
<ele>523.5</ele>
<speed>96.9</speed>
<course>227.1</course>
<desc>Speed 96.9 km/h Distance 90.62 km</desc>
<time>2010-07-31T15:15:49.09</time>
<name>2920</name>
</trkpt>
<trkpt lat="48.815028" lon="10.965002">
<ele>525.5</ele>
<speed>99.2</speed>
<course>232.9</course>
<desc>Speed 99.2 km/h Distance 90.65 km</desc>
<time>2010-07-31T15:15:50.09</time>
<name>2921</name>
</trkpt>
<trkpt lat="48.814700" lon="10.964343">
<ele>527.5</ele>
<speed>111</speed>
<course>236.1</course>
<desc>Speed 111 km/h Distance 90.71 km</desc>
<time>2010-07-31T15:15:52.10</time>
<name>2922</name>
</trkpt>
<trkpt lat="48.814538" lon="10.963978">
<ele>529.5</ele>
<speed>112</speed>
<course>238.9</course>
<desc>Speed 112 km/h Distance 90.74 km</desc>
<time>2010-07-31T15:15:53.09</time>
<name>2923</name>
</trkpt>
<trkpt lat="48.814387" lon="10.963597">
<ele>530.0</ele>
<speed>117</speed>
<course>240.3</course>
<desc>Speed 117 km/h Distance 90.78 km</desc>
<time>2010-07-31T15:15:54.09</time>
<name>2924</name>
</trkpt>
<trkpt lat="48.814235" lon="10.963193">
<ele>530.5</ele>
<speed>122</speed>
<course>244.7</course>
<desc>Speed 122 km/h Distance 90.81 km</desc>
<time>2010-07-31T15:15:55.09</time>
<name>2925</name>
</trkpt>
<trkpt lat="48.813890" lon="10.962087">
<ele>530.0</ele>
<speed>105</speed>
<course>237.1</course>
<desc>Speed 105 km/h Distance 90.90 km</desc>
<time>2010-07-31T15:15:58.08</time>
<name>2926</name>
</trkpt>
<trkpt lat="48.813605" lon="10.961418">
<ele>530.5</ele>
<speed>95.2</speed>
<course>232.9</course>
<desc>Speed 95.2 km/h Distance 90.96 km</desc>
<time>2010-07-31T15:16:00.09</time>
<name>2927</name>
</trkpt>
<trkpt lat="48.813062" lon="10.960328">
<ele>527.0</ele>
<speed>95.2</speed>
<course>205.9</course>
<desc>Speed 95.2 km/h Distance 91.06 km</desc>
<time>2010-07-31T15:16:06.08</time>
<name>2928</name>
</trkpt>
<trkpt lat="48.812605" lon="10.959992">
<ele>529.5</ele>
<speed>84.7</speed>
<course>207.1</course>
<desc>Speed 84.7 km/h Distance 91.12 km</desc>
<time>2010-07-31T15:16:08.08</time>
<name>2929</name>
</trkpt>
<trkpt lat="48.811632" lon="10.959237">
<ele>551.5</ele>
<speed>83.4</speed>
<course>211.9</course>
<desc>Speed 83.4 km/h Distance 91.24 km</desc>
<time>2010-07-31T15:16:12.08</time>
<name>2930</name>
</trkpt>
<trkpt lat="48.811295" lon="10.958918">
<ele>555.0</ele>
<speed>73.3</speed>
<course>213.1</course>
<desc>Speed 73.3 km/h Distance 91.28 km</desc>
<time>2010-07-31T15:16:14.07</time>
<name>2931</name>
</trkpt>
<trkpt lat="48.810933" lon="10.958560">
<ele>561.0</ele>
<speed>59.0</speed>
<course>205.6</course>
<desc>Speed 59.0 km/h Distance 91.33 km</desc>
<time>2010-07-31T15:16:16.07</time>
<name>2932</name>
</trkpt>
<trkpt lat="48.810432" lon="10.958195">
<ele>572.5</ele>
<speed>39.0</speed>
<course>195.8</course>
<desc>Speed 39.0 km/h Distance 91.39 km</desc>
<time>2010-07-31T15:16:20.08</time>
<name>2933</name>
</trkpt>
<trkpt lat="48.810063" lon="10.958037">
<ele>576.0</ele>
<speed>51.8</speed>
<course>170.9</course>
<desc>Speed 51.8 km/h Distance 91.43 km</desc>
<time>2010-07-31T15:16:23.08</time>
<name>2934</name>
</trkpt>
<trkpt lat="48.808587" lon="10.958397">
<ele>572.0</ele>
<speed>108</speed>
<course>166.8</course>
<desc>Speed 108 km/h Distance 91.60 km</desc>
<time>2010-07-31T15:16:29.07</time>
<name>2935</name>
</trkpt>
<trkpt lat="48.808070" lon="10.958580">
<ele>572.5</ele>
<speed>108</speed>
<course>142.6</course>
<desc>Speed 108 km/h Distance 91.66 km</desc>
<time>2010-07-31T15:16:35.06</time>
<name>2936</name>
</trkpt>
<trkpt lat="48.806037" lon="10.960937">
<ele>572.0</ele>
<speed>108</speed>
<course>164.6</course>
<desc>Speed 108 km/h Distance 91.94 km</desc>
<time>2010-07-31T15:16:42.06</time>
<name>2937</name>
</trkpt>
<trkpt lat="48.804772" lon="10.961467">
<ele>570.0</ele>
<speed>65.4</speed>
<course>143.9</course>
<desc>Speed 65.4 km/h Distance 92.09 km</desc>
<time>2010-07-31T15:16:47.07</time>
<name>2938</name>
</trkpt>
<trkpt lat="48.804320" lon="10.961967">
<ele>570.0</ele>
<speed>59.3</speed>
<course>131.8</course>
<desc>Speed 59.3 km/h Distance 92.15 km</desc>
<time>2010-07-31T15:16:50.06</time>
<name>2939</name>
</trkpt>
<trkpt lat="48.804120" lon="10.962307">
<ele>570.5</ele>
<speed>62.8</speed>
<course>127.4</course>
<desc>Speed 62.8 km/h Distance 92.19 km</desc>
<time>2010-07-31T15:16:52.06</time>
<name>2940</name>
</trkpt>
<trkpt lat="48.803968" lon="10.962608">
<ele>570.5</ele>
<speed>62.8</speed>
<course>109.2</course>
<desc>Speed 62.8 km/h Distance 92.21 km</desc>
<time>2010-07-31T15:16:54.05</time>
<name>2941</name>
</trkpt>
<trkpt lat="48.803853" lon="10.963108">
<ele>572.5</ele>
<speed>62.8</speed>
<course>82.3</course>
<desc>Speed 62.8 km/h Distance 92.25 km</desc>
<time>2010-07-31T15:16:58.05</time>
<name>2942</name>
</trkpt>
<trkpt lat="48.804077" lon="10.965618">
<ele>567.5</ele>
<speed>112</speed>
<course>103.5</course>
<desc>Speed 112 km/h Distance 92.44 km</desc>
<time>2010-07-31T15:17:03.05</time>
<name>2943</name>
</trkpt>
<trkpt lat="48.803860" lon="10.966993">
<ele>558.5</ele>
<speed>110</speed>
<course>106.3</course>
<desc>Speed 110 km/h Distance 92.54 km</desc>
<time>2010-07-31T15:17:06.05</time>
<name>2944</name>
</trkpt>
<trkpt lat="48.803588" lon="10.968402">
<ele>550.5</ele>
<speed>122</speed>
<course>108.3</course>
<desc>Speed 122 km/h Distance 92.65 km</desc>
<time>2010-07-31T15:17:09.05</time>
<name>2945</name>
</trkpt>
<trkpt lat="48.803398" lon="10.969275">
<ele>549.5</ele>
<speed>114</speed>
<course>113.0</course>
<desc>Speed 114 km/h Distance 92.72 km</desc>
<time>2010-07-31T15:17:11.05</time>
<name>2946</name>
</trkpt>
<trkpt lat="48.803098" lon="10.970348">
<ele>546.5</ele>
<speed>97.3</speed>
<course>127.6</course>
<desc>Speed 97.3 km/h Distance 92.80 km</desc>
<time>2010-07-31T15:17:14.04</time>
<name>2947</name>
</trkpt>
<trkpt lat="48.802767" lon="10.971003">
<ele>547.0</ele>
<speed>105</speed>
<course>124.2</course>
<desc>Speed 105 km/h Distance 92.86 km</desc>
<time>2010-07-31T15:17:16.04</time>
<name>2948</name>
</trkpt>
<trkpt lat="48.802440" lon="10.971733">
<ele>548.0</ele>
<speed>113</speed>
<course>131.4</course>
<desc>Speed 113 km/h Distance 92.93 km</desc>
<time>2010-07-31T15:17:18.04</time>
<name>2949</name>
</trkpt>
<trkpt lat="48.802032" lon="10.972437">
<ele>546.0</ele>
<speed>118</speed>
<course>129.7</course>
<desc>Speed 118 km/h Distance 93.00 km</desc>
<time>2010-07-31T15:17:20.04</time>
<name>2950</name>
</trkpt>
<trkpt lat="48.801627" lon="10.973178">
<ele>550.5</ele>
<speed>118</speed>
<course>129.8</course>
<desc>Speed 118 km/h Distance 93.07 km</desc>
<time>2010-07-31T15:17:22.03</time>
<name>2951</name>
</trkpt>
<trkpt lat="48.801237" lon="10.973888">
<ele>554.0</ele>
<speed>117</speed>
<course>129.8</course>
<desc>Speed 117 km/h Distance 93.13 km</desc>
<time>2010-07-31T15:17:24.04</time>
<name>2952</name>
</trkpt>
<trkpt lat="48.800847" lon="10.974598">
<ele>554.0</ele>
<speed>122</speed>
<course>128.1</course>
<desc>Speed 122 km/h Distance 93.20 km</desc>
<time>2010-07-31T15:17:26.04</time>
<name>2953</name>
</trkpt>
<trkpt lat="48.800463" lon="10.975342">
<ele>553.5</ele>
<speed>123</speed>
<course>124.6</course>
<desc>Speed 123 km/h Distance 93.27 km</desc>
<time>2010-07-31T15:17:28.03</time>
<name>2954</name>
</trkpt>
<trkpt lat="48.799880" lon="10.976625">
<ele>554.5</ele>
<speed>133</speed>
<course>121.2</course>
<desc>Speed 133 km/h Distance 93.39 km</desc>
<time>2010-07-31T15:17:31.03</time>
<name>2955</name>
</trkpt>
<trkpt lat="48.799540" lon="10.977477">
<ele>557.5</ele>
<speed>125</speed>
<course>123.2</course>
<desc>Speed 125 km/h Distance 93.46 km</desc>
<time>2010-07-31T15:17:33.03</time>
<name>2956</name>
</trkpt>
<trkpt lat="48.799185" lon="10.978300">
<ele>559.0</ele>
<speed>130</speed>
<course>113.5</course>
<desc>Speed 130 km/h Distance 93.53 km</desc>
<time>2010-07-31T15:17:35.02</time>
<name>2957</name>
</trkpt>
<trkpt lat="48.798920" lon="10.979223">
<ele>560.5</ele>
<speed>132</speed>
<course>116.2</course>
<desc>Speed 132 km/h Distance 93.61 km</desc>
<time>2010-07-31T15:17:37.04</time>
<name>2958</name>
</trkpt>
<trkpt lat="48.798620" lon="10.980148">
<ele>560.5</ele>
<speed>134</speed>
<course>115.4</course>
<desc>Speed 134 km/h Distance 93.68 km</desc>
<time>2010-07-31T15:17:39.03</time>
<name>2959</name>
</trkpt>
<trkpt lat="48.798325" lon="10.981092">
<ele>565.5</ele>
<speed>128</speed>
<course>118.4</course>
<desc>Speed 128 km/h Distance 93.76 km</desc>
<time>2010-07-31T15:17:41.03</time>
<name>2960</name>
</trkpt>
<trkpt lat="48.798018" lon="10.981953">
<ele>567.5</ele>
<speed>127</speed>
<course>120.3</course>
<desc>Speed 127 km/h Distance 93.83 km</desc>
<time>2010-07-31T15:17:43.02</time>
<name>2961</name>
</trkpt>
<trkpt lat="48.797688" lon="10.982810">
<ele>570.0</ele>
<speed>133</speed>
<course>122.2</course>
<desc>Speed 133 km/h Distance 93.90 km</desc>
<time>2010-07-31T15:17:45.02</time>
<name>2962</name>
</trkpt>
<trkpt lat="48.797340" lon="10.983648">
<ele>570.0</ele>
<speed>129</speed>
<course>124.2</course>
<desc>Speed 129 km/h Distance 93.97 km</desc>
<time>2010-07-31T15:17:47.03</time>
<name>2963</name>
</trkpt>
<trkpt lat="48.796988" lon="10.984435">
<ele>569.0</ele>
<speed>125</speed>
<course>126.0</course>
<desc>Speed 125 km/h Distance 94.04 km</desc>
<time>2010-07-31T15:17:49.03</time>
<name>2964</name>
</trkpt>
<trkpt lat="48.796658" lon="10.985123">
<ele>568.5</ele>
<speed>125</speed>
<course>130.8</course>
<desc>Speed 125 km/h Distance 94.11 km</desc>
<time>2010-07-31T15:17:51.02</time>
<name>2965</name>
</trkpt>
<trkpt lat="48.795990" lon="10.986298">
<ele>571.5</ele>
<speed>103</speed>
<course>148.9</course>
<desc>Speed 103 km/h Distance 94.22 km</desc>
<time>2010-07-31T15:17:55.01</time>
<name>2966</name>
</trkpt>
<trkpt lat="48.795532" lon="10.986718">
<ele>572.5</ele>
<speed>107</speed>
<course>155.3</course>
<desc>Speed 107 km/h Distance 94.28 km</desc>
<time>2010-07-31T15:17:57.01</time>
<name>2967</name>
</trkpt>
<trkpt lat="48.795018" lon="10.987077">
<ele>574.5</ele>
<speed>105</speed>
<course>141.5</course>
<desc>Speed 105 km/h Distance 94.34 km</desc>
<time>2010-07-31T15:17:59.01</time>
<name>2968</name>
</trkpt>
<trkpt lat="48.794355" lon="10.987877">
<ele>574.0</ele>
<speed>100</speed>
<course>122.1</course>
<desc>Speed 100 km/h Distance 94.44 km</desc>
<time>2010-07-31T15:18:03.02</time>
<name>2969</name>
</trkpt>
<trkpt lat="48.794102" lon="10.988490">
<ele>573.5</ele>
<speed>100</speed>
<course>111.1</course>
<desc>Speed 100 km/h Distance 94.49 km</desc>
<time>2010-07-31T15:18:05.02</time>
<name>2970</name>
</trkpt>
<trkpt lat="48.793777" lon="10.989770">
<ele>573.5</ele>
<speed>114</speed>
<course>105.2</course>
<desc>Speed 114 km/h Distance 94.59 km</desc>
<time>2010-07-31T15:18:08.01</time>
<name>2971</name>
</trkpt>
<trkpt lat="48.793640" lon="10.990533">
<ele>571.5</ele>
<speed>101</speed>
<course>105.5</course>
<desc>Speed 101 km/h Distance 94.65 km</desc>
<time>2010-07-31T15:18:10.01</time>
<name>2972</name>
</trkpt>
<trkpt lat="48.793507" lon="10.991265">
<ele>571.5</ele>
<speed>99.1</speed>
<course>114.3</course>
<desc>Speed 99.1 km/h Distance 94.70 km</desc>
<time>2010-07-31T15:18:12.00</time>
<name>2973</name>
</trkpt>
<trkpt lat="48.793238" lon="10.992168">
<ele>571.5</ele>
<speed>86.5</speed>
<course>118.8</course>
<desc>Speed 86.5 km/h Distance 94.78 km</desc>
<time>2010-07-31T15:18:15.00</time>
<name>2974</name>
</trkpt>
<trkpt lat="48.793047" lon="10.992697">
<ele>571.5</ele>
<speed>78.6</speed>
<course>128.8</course>
<desc>Speed 78.6 km/h Distance 94.82 km</desc>
<time>2010-07-31T15:18:17.01</time>
<name>2975</name>
</trkpt>
<trkpt lat="48.792802" lon="10.993160">
<ele>574.0</ele>
<speed>75.5</speed>
<course>137.5</course>
<desc>Speed 75.5 km/h Distance 94.87 km</desc>
<time>2010-07-31T15:18:19.01</time>
<name>2976</name>
</trkpt>
<trkpt lat="48.792532" lon="10.993535">
<ele>574.0</ele>
<speed>73.5</speed>
<course>140.9</course>
<desc>Speed 73.5 km/h Distance 94.91 km</desc>
<time>2010-07-31T15:18:21.00</time>
<name>2977</name>
</trkpt>
<trkpt lat="48.792227" lon="10.993912">
<ele>574.5</ele>
<speed>82.2</speed>
<course>144.9</course>
<desc>Speed 82.2 km/h Distance 94.95 km</desc>
<time>2010-07-31T15:18:23.00</time>
<name>2978</name>
</trkpt>
<trkpt lat="48.791908" lon="10.994252">
<ele>575.0</ele>
<speed>78.3</speed>
<course>140.5</course>
<desc>Speed 78.3 km/h Distance 94.99 km</desc>
<time>2010-07-31T15:18:25.00</time>
<name>2979</name>
</trkpt>
<trkpt lat="48.791603" lon="10.994633">
<ele>574.5</ele>
<speed>78.3</speed>
<course>111.8</course>
<desc>Speed 78.3 km/h Distance 95.04 km</desc>
<time>2010-07-31T15:18:27.01</time>
<name>2980</name>
</trkpt>
<trkpt lat="48.791243" lon="10.995997">
<ele>574.0</ele>
<speed>105</speed>
<course>111.6</course>
<desc>Speed 105 km/h Distance 95.14 km</desc>
<time>2010-07-31T15:18:31.00</time>
<name>2981</name>
</trkpt>
<trkpt lat="48.791030" lon="10.996813">
<ele>573.5</ele>
<speed>119</speed>
<course>120.9</course>
<desc>Speed 119 km/h Distance 95.21 km</desc>
<time>2010-07-31T15:18:33.00</time>
<name>2982</name>
</trkpt>
<trkpt lat="48.790693" lon="10.997668">
<ele>574.5</ele>
<speed>129</speed>
<course>122.2</course>
<desc>Speed 129 km/h Distance 95.28 km</desc>
<time>2010-07-31T15:18:35.00</time>
<name>2983</name>
</trkpt>
<trkpt lat="48.790347" lon="10.998503">
<ele>574.0</ele>
<speed>133</speed>
<course>120.6</course>
<desc>Speed 133 km/h Distance 95.35 km</desc>
<time>2010-07-31T15:18:36.99</time>
<name>2984</name>
</trkpt>
<trkpt lat="48.790027" lon="10.999323">
<ele>574.5</ele>
<speed>127</speed>
<course>122.0</course>
<desc>Speed 127 km/h Distance 95.42 km</desc>
<time>2010-07-31T15:18:38.99</time>
<name>2985</name>
</trkpt>
<trkpt lat="48.789717" lon="11.000075">
<ele>574.0</ele>
<speed>117</speed>
<course>129.1</course>
<desc>Speed 117 km/h Distance 95.49 km</desc>
<time>2010-07-31T15:18:40.99</time>
<name>2986</name>
</trkpt>
<trkpt lat="48.789362" lon="11.000738">
<ele>572.0</ele>
<speed>112</speed>
<course>128.9</course>
<desc>Speed 112 km/h Distance 95.55 km</desc>
<time>2010-07-31T15:18:42.99</time>
<name>2987</name>
</trkpt>
<trkpt lat="48.788988" lon="11.001440">
<ele>571.5</ele>
<speed>121</speed>
<course>127.9</course>
<desc>Speed 121 km/h Distance 95.62 km</desc>
<time>2010-07-31T15:18:44.98</time>
<name>2988</name>
</trkpt>
<trkpt lat="48.788612" lon="11.002173">
<ele>571.0</ele>
<speed>124</speed>
<course>127.3</course>
<desc>Speed 124 km/h Distance 95.69 km</desc>
<time>2010-07-31T15:18:46.99</time>
<name>2989</name>
</trkpt>
<trkpt lat="48.788230" lon="11.002935">
<ele>570.0</ele>
<speed>127</speed>
<course>126.7</course>
<desc>Speed 127 km/h Distance 95.76 km</desc>
<time>2010-07-31T15:18:48.99</time>
<name>2990</name>
</trkpt>
<trkpt lat="48.787853" lon="11.003703">
<ele>570.0</ele>
<speed>125</speed>
<course>126.5</course>
<desc>Speed 125 km/h Distance 95.83 km</desc>
<time>2010-07-31T15:18:50.99</time>
<name>2991</name>
</trkpt>
<trkpt lat="48.787480" lon="11.004470">
<ele>570.5</ele>
<speed>125</speed>
<course>126.1</course>
<desc>Speed 125 km/h Distance 95.90 km</desc>
<time>2010-07-31T15:18:52.98</time>
<name>2992</name>
</trkpt>
<trkpt lat="48.787115" lon="11.005230">
<ele>570.0</ele>
<speed>125</speed>
<course>126.4</course>
<desc>Speed 125 km/h Distance 95.97 km</desc>
<time>2010-07-31T15:18:54.99</time>
<name>2993</name>
</trkpt>
<trkpt lat="48.786745" lon="11.005992">
<ele>570.0</ele>
<speed>125</speed>
<course>125.4</course>
<desc>Speed 125 km/h Distance 96.04 km</desc>
<time>2010-07-31T15:18:56.98</time>
<name>2994</name>
</trkpt>
<trkpt lat="48.786382" lon="11.006767">
<ele>569.0</ele>
<speed>127</speed>
<course>125.5</course>
<desc>Speed 127 km/h Distance 96.11 km</desc>
<time>2010-07-31T15:18:58.99</time>
<name>2995</name>
</trkpt>
<trkpt lat="48.786012" lon="11.007553">
<ele>569.0</ele>
<speed>128</speed>
<course>125.8</course>
<desc>Speed 128 km/h Distance 96.18 km</desc>
<time>2010-07-31T15:19:00.98</time>
<name>2996</name>
</trkpt>
<trkpt lat="48.785638" lon="11.008338">
<ele>567.5</ele>
<speed>130</speed>
<course>126.1</course>
<desc>Speed 130 km/h Distance 96.25 km</desc>
<time>2010-07-31T15:19:02.98</time>
<name>2997</name>
</trkpt>
<trkpt lat="48.785253" lon="11.009138">
<ele>567.0</ele>
<speed>131</speed>
<course>127.7</course>
<desc>Speed 131 km/h Distance 96.32 km</desc>
<time>2010-07-31T15:19:04.98</time>
<name>2998</name>
</trkpt>
<trkpt lat="48.784858" lon="11.009913">
<ele>566.5</ele>
<speed>131</speed>
<course>128.9</course>
<desc>Speed 131 km/h Distance 96.39 km</desc>
<time>2010-07-31T15:19:06.98</time>
<name>2999</name>
</trkpt>
<trkpt lat="48.784478" lon="11.010628">
<ele>566.5</ele>
<speed>117</speed>
<course>119.0</course>
<desc>Speed 117 km/h Distance 96.46 km</desc>
<time>2010-07-31T15:19:08.98</time>
<name>3000</name>
</trkpt>
<trkpt lat="48.784215" lon="11.011348">
<ele>567.5</ele>
<speed>117</speed>
<course>122.9</course>
<desc>Speed 117 km/h Distance 96.52 km</desc>
<time>2010-07-31T15:19:10.98</time>
<name>3001</name>
</trkpt>
<trkpt lat="48.783642" lon="11.012692">
<ele>571.5</ele>
<speed>96.1</speed>
<course>139.5</course>
<desc>Speed 96.1 km/h Distance 96.64 km</desc>
<time>2010-07-31T15:19:16.97</time>
<name>3002</name>
</trkpt>
<trkpt lat="48.783295" lon="11.013142">
<ele>571.0</ele>
<speed>96.1</speed>
<course>132.2</course>
<desc>Speed 96.1 km/h Distance 96.69 km</desc>
<time>2010-07-31T15:19:18.98</time>
<name>3003</name>
</trkpt>
<trkpt lat="48.782960" lon="11.013702">
<ele>570.5</ele>
<speed>96.1</speed>
<course>162.5</course>
<desc>Speed 96.1 km/h Distance 96.74 km</desc>
<time>2010-07-31T15:19:20.99</time>
<name>3004</name>
</trkpt>
<trkpt lat="48.781838" lon="11.014238">
<ele>572.5</ele>
<speed>103</speed>
<course>140.6</course>
<desc>Speed 103 km/h Distance 96.87 km</desc>
<time>2010-07-31T15:19:24.98</time>
<name>3005</name>
</trkpt>
<trkpt lat="48.780543" lon="11.015852">
<ele>573.5</ele>
<speed>131</speed>
<course>136.0</course>
<desc>Speed 131 km/h Distance 97.06 km</desc>
<time>2010-07-31T15:19:29.96</time>
<name>3006</name>
</trkpt>
<trkpt lat="48.779732" lon="11.017040">
<ele>572.5</ele>
<speed>111</speed>
<course>134.2</course>
<desc>Speed 111 km/h Distance 97.19 km</desc>
<time>2010-07-31T15:19:33.96</time>
<name>3007</name>
</trkpt>
<trkpt lat="48.779012" lon="11.018162">
<ele>568.5</ele>
<speed>111</speed>
<course>120.6</course>
<desc>Speed 111 km/h Distance 97.30 km</desc>
<time>2010-07-31T15:19:39.96</time>
<name>3008</name>
</trkpt>
<trkpt lat="48.777777" lon="11.021325">
<ele>561.5</ele>
<speed>115</speed>
<course>126.6</course>
<desc>Speed 115 km/h Distance 97.57 km</desc>
<time>2010-07-31T15:19:45.96</time>
<name>3009</name>
</trkpt>
<trkpt lat="48.776945" lon="11.023022">
<ele>555.0</ele>
<speed>126</speed>
<course>127.0</course>
<desc>Speed 126 km/h Distance 97.73 km</desc>
<time>2010-07-31T15:19:49.96</time>
<name>3010</name>
</trkpt>
<trkpt lat="48.776588" lon="11.023740">
<ele>554.0</ele>
<speed>117</speed>
<course>131.2</course>
<desc>Speed 117 km/h Distance 97.79 km</desc>
<time>2010-07-31T15:19:51.95</time>
<name>3011</name>
</trkpt>
<trkpt lat="48.776228" lon="11.024365">
<ele>553.5</ele>
<speed>110</speed>
<course>141.0</course>
<desc>Speed 110 km/h Distance 97.85 km</desc>
<time>2010-07-31T15:19:53.95</time>
<name>3012</name>
</trkpt>
<trkpt lat="48.775793" lon="11.024900">
<ele>551.0</ele>
<speed>111</speed>
<course>142.8</course>
<desc>Speed 111 km/h Distance 97.91 km</desc>
<time>2010-07-31T15:19:55.95</time>
<name>3013</name>
</trkpt>
<trkpt lat="48.775382" lon="11.025375">
<ele>551.0</ele>
<speed>101</speed>
<course>149.0</course>
<desc>Speed 101 km/h Distance 97.97 km</desc>
<time>2010-07-31T15:19:57.94</time>
<name>3014</name>
</trkpt>
<trkpt lat="48.774927" lon="11.025790">
<ele>549.5</ele>
<speed>98.9</speed>
<course>155.7</course>
<desc>Speed 98.9 km/h Distance 98.03 km</desc>
<time>2010-07-31T15:19:59.94</time>
<name>3015</name>
</trkpt>
<trkpt lat="48.774462" lon="11.026108">
<ele>547.5</ele>
<speed>103</speed>
<course>154.3</course>
<desc>Speed 103 km/h Distance 98.09 km</desc>
<time>2010-07-31T15:20:01.94</time>
<name>3016</name>
</trkpt>
<trkpt lat="48.774023" lon="11.026428">
<ele>545.5</ele>
<speed>97.7</speed>
<course>143.9</course>
<desc>Speed 97.7 km/h Distance 98.14 km</desc>
<time>2010-07-31T15:20:03.94</time>
<name>3017</name>
</trkpt>
<trkpt lat="48.773582" lon="11.026917">
<ele>545.0</ele>
<speed>110</speed>
<course>143.4</course>
<desc>Speed 110 km/h Distance 98.20 km</desc>
<time>2010-07-31T15:20:05.95</time>
<name>3018</name>
</trkpt>
<trkpt lat="48.773145" lon="11.027408">
<ele>543.5</ele>
<speed>106</speed>
<course>144.4</course>
<desc>Speed 106 km/h Distance 98.26 km</desc>
<time>2010-07-31T15:20:07.94</time>
<name>3019</name>
</trkpt>
<trkpt lat="48.772735" lon="11.027853">
<ele>538.0</ele>
<speed>98.6</speed>
<course>150.4</course>
<desc>Speed 98.6 km/h Distance 98.32 km</desc>
<time>2010-07-31T15:20:09.94</time>
<name>3020</name>
</trkpt>
<trkpt lat="48.772302" lon="11.028227">
<ele>535.0</ele>
<speed>101</speed>
<course>161.3</course>
<desc>Speed 101 km/h Distance 98.38 km</desc>
<time>2010-07-31T15:20:11.94</time>
<name>3021</name>
</trkpt>
<trkpt lat="48.771815" lon="11.028477">
<ele>534.0</ele>
<speed>103</speed>
<course>160.5</course>
<desc>Speed 103 km/h Distance 98.43 km</desc>
<time>2010-07-31T15:20:13.94</time>
<name>3022</name>
</trkpt>
<trkpt lat="48.771363" lon="11.028720">
<ele>533.5</ele>
<speed>94.7</speed>
<course>146.8</course>
<desc>Speed 94.7 km/h Distance 98.49 km</desc>
<time>2010-07-31T15:20:15.93</time>
<name>3023</name>
</trkpt>
<trkpt lat="48.770977" lon="11.029103">
<ele>533.0</ele>
<speed>89.1</speed>
<course>142.6</course>
<desc>Speed 89.1 km/h Distance 98.54 km</desc>
<time>2010-07-31T15:20:17.94</time>
<name>3024</name>
</trkpt>
<trkpt lat="48.770637" lon="11.029498">
<ele>530.5</ele>
<speed>83.4</speed>
<course>152.5</course>
<desc>Speed 83.4 km/h Distance 98.58 km</desc>
<time>2010-07-31T15:20:19.93</time>
<name>3025</name>
</trkpt>
<trkpt lat="48.770280" lon="11.029780">
<ele>529.5</ele>
<speed>79.6</speed>
<course>170.1</course>
<desc>Speed 79.6 km/h Distance 98.63 km</desc>
<time>2010-07-31T15:20:21.94</time>
<name>3026</name>
</trkpt>
<trkpt lat="48.769838" lon="11.029897">
<ele>527.5</ele>
<speed>93.0</speed>
<course>177.6</course>
<desc>Speed 93.0 km/h Distance 98.68 km</desc>
<time>2010-07-31T15:20:23.93</time>
<name>3027</name>
</trkpt>
<trkpt lat="48.769365" lon="11.029927">
<ele>525.0</ele>
<speed>85.1</speed>
<course>171.4</course>
<desc>Speed 85.1 km/h Distance 98.73 km</desc>
<time>2010-07-31T15:20:25.93</time>
<name>3028</name>
</trkpt>
<trkpt lat="48.768963" lon="11.030018">
<ele>524.0</ele>
<speed>79.7</speed>
<course>147.4</course>
<desc>Speed 79.7 km/h Distance 98.78 km</desc>
<time>2010-07-31T15:20:27.93</time>
<name>3029</name>
</trkpt>
<trkpt lat="48.768643" lon="11.030328">
<ele>523.0</ele>
<speed>87.2</speed>
<course>130.2</course>
<desc>Speed 87.2 km/h Distance 98.82 km</desc>
<time>2010-07-31T15:20:29.93</time>
<name>3030</name>
</trkpt>
<trkpt lat="48.768367" lon="11.030825">
<ele>523.0</ele>
<speed>88.4</speed>
<course>117.9</course>
<desc>Speed 88.4 km/h Distance 98.87 km</desc>
<time>2010-07-31T15:20:31.93</time>
<name>3031</name>
</trkpt>
<trkpt lat="48.768138" lon="11.031478">
<ele>522.5</ele>
<speed>102</speed>
<course>112.8</course>
<desc>Speed 102 km/h Distance 98.92 km</desc>
<time>2010-07-31T15:20:33.93</time>
<name>3032</name>
</trkpt>
<trkpt lat="48.767815" lon="11.032643">
<ele>519.5</ele>
<speed>117</speed>
<course>111.4</course>
<desc>Speed 117 km/h Distance 99.01 km</desc>
<time>2010-07-31T15:20:36.93</time>
<name>3033</name>
</trkpt>
<trkpt lat="48.767607" lon="11.033448">
<ele>517.0</ele>
<speed>112</speed>
<course>108.4</course>
<desc>Speed 112 km/h Distance 99.08 km</desc>
<time>2010-07-31T15:20:38.93</time>
<name>3034</name>
</trkpt>
<trkpt lat="48.767445" lon="11.034187">
<ele>513.5</ele>
<speed>100</speed>
<course>109.3</course>
<desc>Speed 100 km/h Distance 99.14 km</desc>
<time>2010-07-31T15:20:40.92</time>
<name>3035</name>
</trkpt>
<trkpt lat="48.767295" lon="11.034837">
<ele>513.0</ele>
<speed>88.1</speed>
<course>121.4</course>
<desc>Speed 88.1 km/h Distance 99.19 km</desc>
<time>2010-07-31T15:20:42.92</time>
<name>3036</name>
</trkpt>
<trkpt lat="48.767097" lon="11.035330">
<ele>511.0</ele>
<speed>76.4</speed>
<course>135.7</course>
<desc>Speed 76.4 km/h Distance 99.23 km</desc>
<time>2010-07-31T15:20:44.92</time>
<name>3037</name>
</trkpt>
<trkpt lat="48.766808" lon="11.035757">
<ele>509.5</ele>
<speed>85.0</speed>
<course>153.2</course>
<desc>Speed 85.0 km/h Distance 99.27 km</desc>
<time>2010-07-31T15:20:46.92</time>
<name>3038</name>
</trkpt>
<trkpt lat="48.766392" lon="11.036077">
<ele>508.0</ele>
<speed>97.1</speed>
<course>143.3</course>
<desc>Speed 97.1 km/h Distance 99.32 km</desc>
<time>2010-07-31T15:20:48.92</time>
<name>3039</name>
</trkpt>
<trkpt lat="48.765480" lon="11.037107">
<ele>505.5</ele>
<speed>116</speed>
<course>141.9</course>
<desc>Speed 116 km/h Distance 99.45 km</desc>
<time>2010-07-31T15:20:52.92</time>
<name>3040</name>
</trkpt>
<trkpt lat="48.764877" lon="11.037823">
<ele>503.5</ele>
<speed>98.2</speed>
<course>141.3</course>
<desc>Speed 98.2 km/h Distance 99.54 km</desc>
<time>2010-07-31T15:20:55.91</time>
<name>3041</name>
</trkpt>
<trkpt lat="48.764517" lon="11.038262">
<ele>500.5</ele>
<speed>93.1</speed>
<course>133.3</course>
<desc>Speed 93.1 km/h Distance 99.59 km</desc>
<time>2010-07-31T15:20:57.91</time>
<name>3042</name>
</trkpt>
<trkpt lat="48.763982" lon="11.039123">
<ele>499.5</ele>
<speed>113</speed>
<course>133.0</course>
<desc>Speed 113 km/h Distance 99.67 km</desc>
<time>2010-07-31T15:21:00.92</time>
<name>3043</name>
</trkpt>
<trkpt lat="48.763618" lon="11.039715">
<ele>497.0</ele>
<speed>109</speed>
<course>133.4</course>
<desc>Speed 109 km/h Distance 99.73 km</desc>
<time>2010-07-31T15:21:02.92</time>
<name>3044</name>
</trkpt>
<trkpt lat="48.763250" lon="11.040307">
<ele>495.0</ele>
<speed>109</speed>
<course>133.6</course>
<desc>Speed 109 km/h Distance 99.79 km</desc>
<time>2010-07-31T15:21:04.91</time>
<name>3045</name>
</trkpt>
<trkpt lat="48.762872" lon="11.040908">
<ele>495.0</ele>
<speed>110</speed>
<course>136.4</course>
<desc>Speed 110 km/h Distance 99.86 km</desc>
<time>2010-07-31T15:21:06.91</time>
<name>3046</name>
</trkpt>
<trkpt lat="48.762483" lon="11.041470">
<ele>491.5</ele>
<speed>109</speed>
<course>137.3</course>
<desc>Speed 109 km/h Distance 99.91 km</desc>
<time>2010-07-31T15:21:08.92</time>
<name>3047</name>
</trkpt>
<trkpt lat="48.762115" lon="11.041985">
<ele>488.0</ele>
<speed>103</speed>
<course>135.1</course>
<desc>Speed 103 km/h Distance 99.97 km</desc>
<time>2010-07-31T15:21:10.91</time>
<name>3048</name>
</trkpt>
<trkpt lat="48.761657" lon="11.042677">
<ele>484.0</ele>
<speed>89.6</speed>
<course>130.8</course>
<desc>Speed 89.6 km/h Distance 100 km</desc>
<time>2010-07-31T15:21:13.91</time>
<name>3049</name>
</trkpt>
<trkpt lat="48.761395" lon="11.043137">
<ele>481.5</ele>
<speed>80.7</speed>
<course>137.9</course>
<desc>Speed 80.7 km/h Distance 100 km</desc>
<time>2010-07-31T15:21:15.91</time>
<name>3050</name>
</trkpt>
<trkpt lat="48.761140" lon="11.043487">
<ele>472.5</ele>
<speed>73.9</speed>
<course>133.3</course>
<desc>Speed 73.9 km/h Distance 100 km</desc>
<time>2010-07-31T15:21:17.91</time>
<name>3051</name>
</trkpt>
<trkpt lat="48.760902" lon="11.043870">
<ele>471.5</ele>
<speed>70.5</speed>
<course>135.0</course>
<desc>Speed 70.5 km/h Distance 100 km</desc>
<time>2010-07-31T15:21:19.91</time>
<name>3052</name>
</trkpt>
<trkpt lat="48.760667" lon="11.044227">
<ele>470.5</ele>
<speed>66.4</speed>
<course>139.6</course>
<desc>Speed 66.4 km/h Distance 100 km</desc>
<time>2010-07-31T15:21:21.90</time>
<name>3053</name>
</trkpt>
<trkpt lat="48.760422" lon="11.044543">
<ele>469.5</ele>
<speed>63.2</speed>
<course>144.7</course>
<desc>Speed 63.2 km/h Distance 100 km</desc>
<time>2010-07-31T15:21:23.91</time>
<name>3054</name>
</trkpt>
<trkpt lat="48.760170" lon="11.044813">
<ele>467.0</ele>
<speed>62.5</speed>
<course>158.0</course>
<desc>Speed 62.5 km/h Distance 100 km</desc>
<time>2010-07-31T15:21:25.90</time>
<name>3055</name>
</trkpt>
<trkpt lat="48.759898" lon="11.044980">
<ele>466.5</ele>
<speed>55.4</speed>
<course>175.0</course>
<desc>Speed 55.4 km/h Distance 100 km</desc>
<time>2010-07-31T15:21:27.91</time>
<name>3056</name>
</trkpt>
<trkpt lat="48.759597" lon="11.045020">
<ele>465.5</ele>
<speed>64.8</speed>
<course>173.7</course>
<desc>Speed 64.8 km/h Distance 100 km</desc>
<time>2010-07-31T15:21:29.90</time>
<name>3057</name>
</trkpt>
<trkpt lat="48.759310" lon="11.045068">
<ele>466.5</ele>
<speed>57.7</speed>
<course>177.5</course>
<desc>Speed 57.7 km/h Distance 100 km</desc>
<time>2010-07-31T15:21:31.90</time>
<name>3058</name>
</trkpt>
<trkpt lat="48.759030" lon="11.045087">
<ele>465.5</ele>
<speed>55.3</speed>
<course>179.3</course>
<desc>Speed 55.3 km/h Distance 100 km</desc>
<time>2010-07-31T15:21:33.90</time>
<name>3059</name>
</trkpt>
<trkpt lat="48.758767" lon="11.045092">
<ele>462.0</ele>
<speed>51.6</speed>
<course>171.4</course>
<desc>Speed 51.6 km/h Distance 100 km</desc>
<time>2010-07-31T15:21:35.89</time>
<name>3060</name>
</trkpt>
<trkpt lat="48.758518" lon="11.045148">
<ele>461.5</ele>
<speed>49.9</speed>
<course>166.8</course>
<desc>Speed 49.9 km/h Distance 100 km</desc>
<time>2010-07-31T15:21:38.91</time>
<name>3061</name>
</trkpt>
<trkpt lat="48.758260" lon="11.045240">
<ele>461.5</ele>
<speed>54.4</speed>
<course>164.2</course>
<desc>Speed 54.4 km/h Distance 100 km</desc>
<time>2010-07-31T15:21:40.91</time>
<name>3062</name>
</trkpt>
<trkpt lat="48.758003" lon="11.045350">
<ele>461.0</ele>
<speed>52.6</speed>
<course>185.7</course>
<desc>Speed 52.6 km/h Distance 100 km</desc>
<time>2010-07-31T15:21:42.90</time>
<name>3063</name>
</trkpt>
<trkpt lat="48.757663" lon="11.045298">
<ele>458.5</ele>
<speed>18.6</speed>
<course>284.4</course>
<desc>Speed 18.6 km/h Distance 100 km</desc>
<time>2010-07-31T15:21:48.90</time>
<name>3064</name>
</trkpt>
<trkpt lat="48.757840" lon="11.044258">
<ele>459.5</ele>
<speed>63.4</speed>
<course>265.3</course>
<desc>Speed 63.4 km/h Distance 100 km</desc>
<time>2010-07-31T15:21:54.88</time>
<name>3065</name>
</trkpt>
<trkpt lat="48.757813" lon="11.043768">
<ele>458.5</ele>
<speed>64.9</speed>
<course>252.7</course>
<desc>Speed 64.9 km/h Distance 100 km</desc>
<time>2010-07-31T15:21:56.89</time>
<name>3066</name>
</trkpt>
<trkpt lat="48.757717" lon="11.043298">
<ele>458.0</ele>
<speed>68.5</speed>
<course>244.3</course>
<desc>Speed 68.5 km/h Distance 100 km</desc>
<time>2010-07-31T15:21:58.89</time>
<name>3067</name>
</trkpt>
<trkpt lat="48.757557" lon="11.042793">
<ele>456.5</ele>
<speed>77.4</speed>
<course>238.1</course>
<desc>Speed 77.4 km/h Distance 100 km</desc>
<time>2010-07-31T15:22:00.89</time>
<name>3068</name>
</trkpt>
<trkpt lat="48.757355" lon="11.042302">
<ele>456.5</ele>
<speed>75.2</speed>
<course>228.3</course>
<desc>Speed 75.2 km/h Distance 100 km</desc>
<time>2010-07-31T15:22:02.88</time>
<name>3069</name>
</trkpt>
<trkpt lat="48.757092" lon="11.041853">
<ele>455.0</ele>
<speed>77.7</speed>
<course>222.8</course>
<desc>Speed 77.7 km/h Distance 100 km</desc>
<time>2010-07-31T15:22:04.88</time>
<name>3070</name>
</trkpt>
<trkpt lat="48.756802" lon="11.041447">
<ele>454.0</ele>
<speed>80.0</speed>
<course>216.2</course>
<desc>Speed 80.0 km/h Distance 100 km</desc>
<time>2010-07-31T15:22:06.88</time>
<name>3071</name>
</trkpt>
<trkpt lat="48.756463" lon="11.041072">
<ele>454.0</ele>
<speed>85.0</speed>
<course>211.4</course>
<desc>Speed 85.0 km/h Distance 100 km</desc>
<time>2010-07-31T15:22:08.87</time>
<name>3072</name>
</trkpt>
<trkpt lat="48.756090" lon="11.040727">
<ele>453.5</ele>
<speed>89.5</speed>
<course>202.3</course>
<desc>Speed 89.5 km/h Distance 100 km</desc>
<time>2010-07-31T15:22:10.88</time>
<name>3073</name>
</trkpt>
<trkpt lat="48.755398" lon="11.040297">
<ele>452.0</ele>
<speed>102</speed>
<course>186.4</course>
<desc>Speed 102 km/h Distance 101 km</desc>
<time>2010-07-31T15:22:13.88</time>
<name>3074</name>
</trkpt>
<trkpt lat="48.754862" lon="11.040205">
<ele>452.0</ele>
<speed>106</speed>
<course>186.0</course>
<desc>Speed 106 km/h Distance 101 km</desc>
<time>2010-07-31T15:22:15.89</time>
<name>3075</name>
</trkpt>
<trkpt lat="48.754300" lon="11.040115">
<ele>453.5</ele>
<speed>117</speed>
<course>185.6</course>
<desc>Speed 117 km/h Distance 101 km</desc>
<time>2010-07-31T15:22:17.88</time>
<name>3076</name>
</trkpt>
<trkpt lat="48.753728" lon="11.040030">
<ele>453.0</ele>
<speed>116</speed>
<course>191.4</course>
<desc>Speed 116 km/h Distance 101 km</desc>
<time>2010-07-31T15:22:19.87</time>
<name>3077</name>
</trkpt>
<trkpt lat="48.753173" lon="11.039860">
<ele>452.0</ele>
<speed>113</speed>
<course>198.0</course>
<desc>Speed 113 km/h Distance 101 km</desc>
<time>2010-07-31T15:22:21.88</time>
<name>3078</name>
</trkpt>
<trkpt lat="48.752615" lon="11.039585">
<ele>454.5</ele>
<speed>119</speed>
<course>203.9</course>
<desc>Speed 119 km/h Distance 101 km</desc>
<time>2010-07-31T15:22:23.87</time>
<name>3079</name>
</trkpt>
<trkpt lat="48.752072" lon="11.039220">
<ele>454.0</ele>
<speed>118</speed>
<course>209.5</course>
<desc>Speed 118 km/h Distance 101 km</desc>
<time>2010-07-31T15:22:25.87</time>
<name>3080</name>
</trkpt>
<trkpt lat="48.751547" lon="11.038770">
<ele>454.0</ele>
<speed>120</speed>
<course>214.7</course>
<desc>Speed 120 km/h Distance 101 km</desc>
<time>2010-07-31T15:22:27.89</time>
<name>3081</name>
</trkpt>
<trkpt lat="48.751058" lon="11.038257">
<ele>454.5</ele>
<speed>121</speed>
<course>220.7</course>
<desc>Speed 121 km/h Distance 101 km</desc>
<time>2010-07-31T15:22:29.87</time>
<name>3082</name>
</trkpt>
<trkpt lat="48.750613" lon="11.037677">
<ele>454.5</ele>
<speed>119</speed>
<course>224.4</course>
<desc>Speed 119 km/h Distance 101 km</desc>
<time>2010-07-31T15:22:31.87</time>
<name>3083</name>
</trkpt>
<trkpt lat="48.750185" lon="11.037040">
<ele>455.0</ele>
<speed>123</speed>
<course>229.0</course>
<desc>Speed 123 km/h Distance 101 km</desc>
<time>2010-07-31T15:22:33.87</time>
<name>3084</name>
</trkpt>
<trkpt lat="48.749793" lon="11.036357">
<ele>455.5</ele>
<speed>120</speed>
<course>232.5</course>
<desc>Speed 120 km/h Distance 101 km</desc>
<time>2010-07-31T15:22:35.87</time>
<name>3085</name>
</trkpt>
<trkpt lat="48.749427" lon="11.035632">
<ele>455.5</ele>
<speed>122</speed>
<course>236.7</course>
<desc>Speed 122 km/h Distance 101 km</desc>
<time>2010-07-31T15:22:37.86</time>
<name>3086</name>
</trkpt>
<trkpt lat="48.749093" lon="11.034862">
<ele>455.5</ele>
<speed>122</speed>
<course>236.6</course>
<desc>Speed 122 km/h Distance 101 km</desc>
<time>2010-07-31T15:22:39.86</time>
<name>3087</name>
</trkpt>
<trkpt lat="48.748758" lon="11.034092">
<ele>455.0</ele>
<speed>123</speed>
<course>233.9</course>
<desc>Speed 123 km/h Distance 101 km</desc>
<time>2010-07-31T15:22:41.86</time>
<name>3088</name>
</trkpt>
<trkpt lat="48.748398" lon="11.033343">
<ele>454.5</ele>
<speed>123</speed>
<course>227.1</course>
<desc>Speed 123 km/h Distance 102 km</desc>
<time>2010-07-31T15:22:43.87</time>
<name>3089</name>
</trkpt>
<trkpt lat="48.747988" lon="11.032675">
<ele>453.5</ele>
<speed>122</speed>
<course>219.9</course>
<desc>Speed 122 km/h Distance 102 km</desc>
<time>2010-07-31T15:22:45.86</time>
<name>3090</name>
</trkpt>
<trkpt lat="48.747533" lon="11.032098">
<ele>454.5</ele>
<speed>116</speed>
<course>221.7</course>
<desc>Speed 116 km/h Distance 102 km</desc>
<time>2010-07-31T15:22:47.86</time>
<name>3091</name>
</trkpt>
<trkpt lat="48.747148" lon="11.031578">
<ele>454.0</ele>
<speed>112</speed>
<course>220.9</course>
<desc>Speed 112 km/h Distance 102 km</desc>
<time>2010-07-31T15:22:49.86</time>
<name>3092</name>
</trkpt>
<trkpt lat="48.746747" lon="11.031050">
<ele>450.0</ele>
<speed>107</speed>
<course>228.3</course>
<desc>Speed 107 km/h Distance 102 km</desc>
<time>2010-07-31T15:22:51.86</time>
<name>3093</name>
</trkpt>
<trkpt lat="48.746382" lon="11.030428">
<ele>449.5</ele>
<speed>109</speed>
<course>236.4</course>
<desc>Speed 109 km/h Distance 102 km</desc>
<time>2010-07-31T15:22:53.87</time>
<name>3094</name>
</trkpt>
<trkpt lat="48.746073" lon="11.029725">
<ele>450.0</ele>
<speed>114</speed>
<course>245.0</course>
<desc>Speed 114 km/h Distance 102 km</desc>
<time>2010-07-31T15:22:55.87</time>
<name>3095</name>
</trkpt>
<trkpt lat="48.745838" lon="11.028962">
<ele>447.0</ele>
<speed>113</speed>
<course>253.6</course>
<desc>Speed 113 km/h Distance 102 km</desc>
<time>2010-07-31T15:22:57.86</time>
<name>3096</name>
</trkpt>
<trkpt lat="48.745678" lon="11.028137">
<ele>445.0</ele>
<speed>112</speed>
<course>255.8</course>
<desc>Speed 112 km/h Distance 102 km</desc>
<time>2010-07-31T15:22:59.86</time>
<name>3097</name>
</trkpt>
<trkpt lat="48.745547" lon="11.027348">
<ele>445.0</ele>
<speed>106</speed>
<course>250.9</course>
<desc>Speed 106 km/h Distance 102 km</desc>
<time>2010-07-31T15:23:01.86</time>
<name>3098</name>
</trkpt>
<trkpt lat="48.745372" lon="11.026582">
<ele>443.5</ele>
<speed>107</speed>
<course>246.1</course>
<desc>Speed 107 km/h Distance 102 km</desc>
<time>2010-07-31T15:23:03.87</time>
<name>3099</name>
</trkpt>
<trkpt lat="48.745163" lon="11.025870">
<ele>442.5</ele>
<speed>106</speed>
<course>237.4</course>
<desc>Speed 106 km/h Distance 102 km</desc>
<time>2010-07-31T15:23:05.86</time>
<name>3100</name>
</trkpt>
<trkpt lat="48.744795" lon="11.024997">
<ele>442.5</ele>
<speed>96.3</speed>
<course>217.6</course>
<desc>Speed 96.3 km/h Distance 102 km</desc>
<time>2010-07-31T15:23:08.85</time>
<name>3101</name>
</trkpt>
<trkpt lat="48.744395" lon="11.024530">
<ele>442.5</ele>
<speed>95.3</speed>
<course>212.4</course>
<desc>Speed 95.3 km/h Distance 102 km</desc>
<time>2010-07-31T15:23:10.86</time>
<name>3102</name>
</trkpt>
<trkpt lat="48.743718" lon="11.023878">
<ele>440.5</ele>
<speed>79.4</speed>
<course>195.1</course>
<desc>Speed 79.4 km/h Distance 102 km</desc>
<time>2010-07-31T15:23:14.85</time>
<name>3103</name>
</trkpt>
<trkpt lat="48.743327" lon="11.023718">
<ele>440.5</ele>
<speed>70.9</speed>
<course>196.2</course>
<desc>Speed 70.9 km/h Distance 102 km</desc>
<time>2010-07-31T15:23:16.85</time>
<name>3104</name>
</trkpt>
<trkpt lat="48.742987" lon="11.023568">
<ele>440.0</ele>
<speed>70.5</speed>
<course>192.1</course>
<desc>Speed 70.5 km/h Distance 103 km</desc>
<time>2010-07-31T15:23:18.85</time>
<name>3105</name>
</trkpt>
<trkpt lat="48.742623" lon="11.023450">
<ele>439.5</ele>
<speed>74.0</speed>
<course>192.2</course>
<desc>Speed 74.0 km/h Distance 103 km</desc>
<time>2010-07-31T15:23:20.84</time>
<name>3106</name>
</trkpt>
<trkpt lat="48.742253" lon="11.023328">
<ele>440.0</ele>
<speed>75.1</speed>
<course>192.7</course>
<desc>Speed 75.1 km/h Distance 103 km</desc>
<time>2010-07-31T15:23:22.85</time>
<name>3107</name>
</trkpt>
<trkpt lat="48.741868" lon="11.023197">
<ele>438.5</ele>
<speed>77.7</speed>
<course>192.5</course>
<desc>Speed 77.7 km/h Distance 103 km</desc>
<time>2010-07-31T15:23:24.84</time>
<name>3108</name>
</trkpt>
<trkpt lat="48.741485" lon="11.023068">
<ele>438.5</ele>
<speed>78.8</speed>
<course>193.2</course>
<desc>Speed 78.8 km/h Distance 103 km</desc>
<time>2010-07-31T15:23:26.83</time>
<name>3109</name>
</trkpt>
<trkpt lat="48.741095" lon="11.022930">
<ele>438.5</ele>
<speed>80.2</speed>
<course>195.2</course>
<desc>Speed 80.2 km/h Distance 103 km</desc>
<time>2010-07-31T15:23:28.83</time>
<name>3110</name>
</trkpt>
<trkpt lat="48.740897" lon="11.022848">
<ele>438.5</ele>
<speed>81.1</speed>
<course>200.6</course>
<desc>Speed 81.1 km/h Distance 103 km</desc>
<time>2010-07-31T15:23:29.84</time>
<name>3111</name>
</trkpt>
<trkpt lat="48.740703" lon="11.022738">
<ele>438.5</ele>
<speed>82.8</speed>
<course>199.1</course>
<desc>Speed 82.8 km/h Distance 103 km</desc>
<time>2010-07-31T15:23:30.83</time>
<name>3112</name>
</trkpt>
<trkpt lat="48.740507" lon="11.022635">
<ele>438.0</ele>
<speed>81.6</speed>
<course>201.7</course>
<desc>Speed 81.6 km/h Distance 103 km</desc>
<time>2010-07-31T15:23:31.84</time>
<name>3113</name>
</trkpt>
<trkpt lat="48.740120" lon="11.022402">
<ele>436.5</ele>
<speed>82.2</speed>
<course>206.5</course>
<desc>Speed 82.2 km/h Distance 103 km</desc>
<time>2010-07-31T15:23:33.83</time>
<name>3114</name>
</trkpt>
<trkpt lat="48.739937" lon="11.022263">
<ele>436.0</ele>
<speed>82.2</speed>
<course>212.4</course>
<desc>Speed 82.2 km/h Distance 103 km</desc>
<time>2010-07-31T15:23:34.84</time>
<name>3115</name>
</trkpt>
<trkpt lat="48.739585" lon="11.021925">
<ele>436.5</ele>
<speed>83.9</speed>
<course>221.6</course>
<desc>Speed 83.9 km/h Distance 103 km</desc>
<time>2010-07-31T15:23:36.84</time>
<name>3116</name>
</trkpt>
<trkpt lat="48.739280" lon="11.021515">
<ele>435.5</ele>
<speed>82.1</speed>
<course>229.8</course>
<desc>Speed 82.1 km/h Distance 103 km</desc>
<time>2010-07-31T15:23:38.83</time>
<name>3117</name>
</trkpt>
<trkpt lat="48.739158" lon="11.021297">
<ele>434.5</ele>
<speed>75.6</speed>
<course>232.8</course>
<desc>Speed 75.6 km/h Distance 103 km</desc>
<time>2010-07-31T15:23:39.83</time>
<name>3118</name>
</trkpt>
<trkpt lat="48.739053" lon="11.021087">
<ele>434.0</ele>
<speed>69.6</speed>
<course>233.5</course>
<desc>Speed 69.6 km/h Distance 103 km</desc>
<time>2010-07-31T15:23:40.83</time>
<name>3119</name>
</trkpt>
<trkpt lat="48.738948" lon="11.020872">
<ele>433.0</ele>
<speed>70.9</speed>
<course>237.3</course>
<desc>Speed 70.9 km/h Distance 103 km</desc>
<time>2010-07-31T15:23:41.83</time>
<name>3120</name>
</trkpt>
<trkpt lat="48.738862" lon="11.020667">
<ele>432.5</ele>
<speed>64.4</speed>
<course>239.8</course>
<desc>Speed 64.4 km/h Distance 103 km</desc>
<time>2010-07-31T15:23:42.83</time>
<name>3121</name>
</trkpt>
<trkpt lat="48.738785" lon="11.020467">
<ele>433.0</ele>
<speed>61.5</speed>
<course>240.1</course>
<desc>Speed 61.5 km/h Distance 103 km</desc>
<time>2010-07-31T15:23:43.83</time>
<name>3122</name>
</trkpt>
<trkpt lat="48.738565" lon="11.019887">
<ele>434.5</ele>
<speed>31.8</speed>
<course>207.6</course>
<desc>Speed 31.8 km/h Distance 103 km</desc>
<time>2010-07-31T15:23:48.83</time>
<name>3123</name>
</trkpt>
<trkpt lat="48.738468" lon="11.019810">
<ele>434.5</ele>
<speed>28.8</speed>
<course>163.7</course>
<desc>Speed 28.8 km/h Distance 103 km</desc>
<time>2010-07-31T15:23:50.83</time>
<name>3124</name>
</trkpt>
<trkpt lat="48.737487" lon="11.020247">
<ele>434.5</ele>
<speed>75.1</speed>
<course>163.2</course>
<desc>Speed 75.1 km/h Distance 103 km</desc>
<time>2010-07-31T15:23:56.82</time>
<name>3125</name>
</trkpt>
<trkpt lat="48.737118" lon="11.020415">
<ele>437.0</ele>
<speed>73.7</speed>
<course>172.9</course>
<desc>Speed 73.7 km/h Distance 103 km</desc>
<time>2010-07-31T15:23:58.82</time>
<name>3126</name>
</trkpt>
<trkpt lat="48.736932" lon="11.020450">
<ele>438.0</ele>
<speed>74.3</speed>
<course>173.7</course>
<desc>Speed 74.3 km/h Distance 103 km</desc>
<time>2010-07-31T15:23:59.82</time>
<name>3127</name>
</trkpt>
<trkpt lat="48.736753" lon="11.020480">
<ele>440.5</ele>
<speed>71.0</speed>
<course>177.1</course>
<desc>Speed 71.0 km/h Distance 103 km</desc>
<time>2010-07-31T15:24:00.83</time>
<name>3128</name>
</trkpt>
<trkpt lat="48.736580" lon="11.020493">
<ele>441.0</ele>
<speed>70.9</speed>
<course>182.3</course>
<desc>Speed 70.9 km/h Distance 103 km</desc>
<time>2010-07-31T15:24:01.82</time>
<name>3129</name>
</trkpt>
<trkpt lat="48.736285" lon="11.020475">
<ele>442.0</ele>
<speed>59.3</speed>
<course>183.8</course>
<desc>Speed 59.3 km/h Distance 103 km</desc>
<time>2010-07-31T15:24:03.81</time>
<name>3130</name>
</trkpt>
<trkpt lat="48.736152" lon="11.020462">
<ele>443.0</ele>
<speed>52.8</speed>
<course>187.1</course>
<desc>Speed 52.8 km/h Distance 103 km</desc>
<time>2010-07-31T15:24:04.83</time>
<name>3131</name>
</trkpt>
<trkpt lat="48.736037" lon="11.020440">
<ele>443.0</ele>
<speed>47.1</speed>
<course>184.2</course>
<desc>Speed 47.1 km/h Distance 103 km</desc>
<time>2010-07-31T15:24:05.81</time>
<name>3132</name>
</trkpt>
<trkpt lat="48.735933" lon="11.020428">
<ele>442.5</ele>
<speed>41.7</speed>
<course>184.6</course>
<desc>Speed 41.7 km/h Distance 103 km</desc>
<time>2010-07-31T15:24:06.82</time>
<name>3133</name>
</trkpt>
<trkpt lat="48.735838" lon="11.020417">
<ele>441.5</ele>
<speed>38.6</speed>
<course>184.8</course>
<desc>Speed 38.6 km/h Distance 103 km</desc>
<time>2010-07-31T15:24:07.81</time>
<name>3134</name>
</trkpt>
<trkpt lat="48.735760" lon="11.020407">
<ele>441.5</ele>
<speed>31.8</speed>
<course>183.7</course>
<desc>Speed 31.8 km/h Distance 103 km</desc>
<time>2010-07-31T15:24:08.81</time>
<name>3135</name>
</trkpt>
<trkpt lat="48.735692" lon="11.020400">
<ele>442.0</ele>
<speed>27.6</speed>
<course>183.0</course>
<desc>Speed 27.6 km/h Distance 103 km</desc>
<time>2010-07-31T15:24:09.82</time>
<name>3136</name>
</trkpt>
<trkpt lat="48.735627" lon="11.020395">
<ele>441.5</ele>
<speed>25.8</speed>
<course>183.8</course>
<desc>Speed 25.8 km/h Distance 103 km</desc>
<time>2010-07-31T15:24:10.82</time>
<name>3137</name>
</trkpt>
<trkpt lat="48.735560" lon="11.020388">
<ele>441.0</ele>
<speed>26.6</speed>
<course>183.0</course>
<desc>Speed 26.6 km/h Distance 103 km</desc>
<time>2010-07-31T15:24:11.82</time>
<name>3138</name>
</trkpt>
<trkpt lat="48.735495" lon="11.020383">
<ele>441.0</ele>
<speed>26.1</speed>
<course>182.1</course>
<desc>Speed 26.1 km/h Distance 103 km</desc>
<time>2010-07-31T15:24:12.81</time>
<name>3139</name>
</trkpt>
<trkpt lat="48.735433" lon="11.020380">
<ele>441.0</ele>
<speed>25.9</speed>
<course>184.7</course>
<desc>Speed 25.9 km/h Distance 103 km</desc>
<time>2010-07-31T15:24:13.81</time>
<name>3140</name>
</trkpt>
<trkpt lat="48.735367" lon="11.020372">
<ele>441.0</ele>
<speed>26.9</speed>
<course>185.3</course>
<desc>Speed 26.9 km/h Distance 103 km</desc>
<time>2010-07-31T15:24:14.82</time>
<name>3141</name>
</trkpt>
<trkpt lat="48.735295" lon="11.020362">
<ele>441.5</ele>
<speed>28.8</speed>
<course>183.5</course>
<desc>Speed 28.8 km/h Distance 103 km</desc>
<time>2010-07-31T15:24:15.82</time>
<name>3142</name>
</trkpt>
<trkpt lat="48.735225" lon="11.020355">
<ele>441.5</ele>
<speed>28.5</speed>
<course>183.9</course>
<desc>Speed 28.5 km/h Distance 103 km</desc>
<time>2010-07-31T15:24:16.81</time>
<name>3143</name>
</trkpt>
<trkpt lat="48.735095" lon="11.020342">
<ele>442.5</ele>
<speed>27.1</speed>
<course>182.1</course>
<desc>Speed 27.1 km/h Distance 104 km</desc>
<time>2010-07-31T15:24:18.81</time>
<name>3144</name>
</trkpt>
<trkpt lat="48.735032" lon="11.020338">
<ele>442.5</ele>
<speed>26.2</speed>
<course>185.1</course>
<desc>Speed 26.2 km/h Distance 104 km</desc>
<time>2010-07-31T15:24:19.81</time>
<name>3145</name>
</trkpt>
<trkpt lat="48.734970" lon="11.020330">
<ele>442.5</ele>
<speed>26.1</speed>
<course>185.0</course>
<desc>Speed 26.1 km/h Distance 104 km</desc>
<time>2010-07-31T15:24:20.81</time>
<name>3146</name>
</trkpt>
<trkpt lat="48.734907" lon="11.020322">
<ele>442.5</ele>
<speed>26.4</speed>
<course>184.9</course>
<desc>Speed 26.4 km/h Distance 104 km</desc>
<time>2010-07-31T15:24:21.81</time>
<name>3147</name>
</trkpt>
<trkpt lat="48.734843" lon="11.020313">
<ele>442.5</ele>
<speed>25.8</speed>
<course>184.5</course>
<desc>Speed 25.8 km/h Distance 104 km</desc>
<time>2010-07-31T15:24:22.81</time>
<name>3148</name>
</trkpt>
<trkpt lat="48.734788" lon="11.020307">
<ele>442.5</ele>
<speed>21.8</speed>
<course>182.7</course>
<desc>Speed 21.8 km/h Distance 104 km</desc>
<time>2010-07-31T15:24:23.81</time>
<name>3149</name>
</trkpt>
<trkpt lat="48.734745" lon="11.020303">
<ele>442.5</ele>
<speed>17.6</speed>
<course>185.3</course>
<desc>Speed 17.6 km/h Distance 104 km</desc>
<time>2010-07-31T15:24:24.81</time>
<name>3150</name>
</trkpt>
<trkpt lat="48.734708" lon="11.020298">
<ele>442.5</ele>
<speed>14.8</speed>
<course>187.7</course>
<desc>Speed 14.8 km/h Distance 104 km</desc>
<time>2010-07-31T15:24:25.81</time>
<name>3151</name>
</trkpt>
<trkpt lat="48.734677" lon="11.020292">
<ele>442.5</ele>
<speed>13.9</speed>
<course>183.3</course>
<desc>Speed 13.9 km/h Distance 104 km</desc>
<time>2010-07-31T15:24:26.81</time>
<name>3152</name>
</trkpt>
<trkpt lat="48.734642" lon="11.020288">
<ele>442.5</ele>
<speed>14.4</speed>
<course>185.1</course>
<desc>Speed 14.4 km/h Distance 104 km</desc>
<time>2010-07-31T15:24:27.82</time>
<name>3153</name>
</trkpt>
<trkpt lat="48.734603" lon="11.020283">
<ele>442.5</ele>
<speed>16.5</speed>
<course>182.7</course>
<desc>Speed 16.5 km/h Distance 104 km</desc>
<time>2010-07-31T15:24:28.81</time>
<name>3154</name>
</trkpt>
<trkpt lat="48.734562" lon="11.020280">
<ele>442.5</ele>
<speed>17.0</speed>
<course>180.0</course>
<desc>Speed 17.0 km/h Distance 104 km</desc>
<time>2010-07-31T15:24:29.81</time>
<name>3155</name>
</trkpt>
<trkpt lat="48.734522" lon="11.020282">
<ele>442.5</ele>
<speed>16.2</speed>
<course>191.9</course>
<desc>Speed 16.2 km/h Distance 104 km</desc>
<time>2010-07-31T15:24:30.82</time>
<name>3156</name>
</trkpt>
<trkpt lat="48.734480" lon="11.020268">
<ele>442.0</ele>
<speed>17.9</speed>
<course>188.1</course>
<desc>Speed 17.9 km/h Distance 104 km</desc>
<time>2010-07-31T15:24:31.81</time>
<name>3157</name>
</trkpt>
<trkpt lat="48.734442" lon="11.020260">
<ele>442.0</ele>
<speed>16.6</speed>
<course>194.1</course>
<desc>Speed 16.6 km/h Distance 104 km</desc>
<time>2010-07-31T15:24:32.81</time>
<name>3158</name>
</trkpt>
<trkpt lat="48.734407" lon="11.020247">
<ele>442.0</ele>
<speed>14.0</speed>
<course>193.7</course>
<desc>Speed 14.0 km/h Distance 104 km</desc>
<time>2010-07-31T15:24:33.81</time>
<name>3159</name>
</trkpt>
<trkpt lat="48.734375" lon="11.020235">
<ele>442.0</ele>
<speed>13.1</speed>
<course>198.2</course>
<desc>Speed 13.1 km/h Distance 104 km</desc>
<time>2010-07-31T15:24:34.81</time>
<name>3160</name>
</trkpt>
<trkpt lat="48.734342" lon="11.020218">
<ele>442.0</ele>
<speed>13.4</speed>
<course>228.7</course>
<desc>Speed 13.4 km/h Distance 104 km</desc>
<time>2010-07-31T15:24:35.81</time>
<name>3161</name>
</trkpt>
<trkpt lat="48.734323" lon="11.020187">
<ele>441.5</ele>
<speed>10.6</speed>
<course>255.5</course>
<desc>Speed 10.6 km/h Distance 104 km</desc>
<time>2010-07-31T15:24:36.81</time>
<name>3162</name>
</trkpt>
<trkpt lat="48.734310" lon="11.020108">
<ele>440.5</ele>
<speed>10.1</speed>
<course>257.8</course>
<desc>Speed 10.1 km/h Distance 104 km</desc>
<time>2010-07-31T15:24:38.80</time>
<name>3163</name>
</trkpt>
<trkpt lat="48.734305" lon="11.020073">
<ele>440.5</ele>
<speed>9.4</speed>
<course>302.3</course>
<desc>Speed 9.4 km/h Distance 104 km</desc>
<time>2010-07-31T15:24:39.80</time>
<name>3164</name>
</trkpt>
<trkpt lat="48.734313" lon="11.020053">
<ele>440.5</ele>
<speed>6.3</speed>
<course>326.6</course>
<desc>Speed 6.3 km/h Distance 104 km</desc>
<time>2010-07-31T15:24:40.81</time>
<name>3165</name>
</trkpt>
<trkpt lat="48.734323" lon="11.020043">
<ele>440.5</ele>
<speed>4.6</speed>
<course>329.9</course>
<desc>Speed 4.6 km/h Distance 104 km</desc>
<time>2010-07-31T15:24:41.81</time>
<name>3166</name>
</trkpt>
<trkpt lat="48.734337" lon="11.020032">
<ele>440.5</ele>
<speed>5.8</speed>
<course>343.4</course>
<desc>Speed 5.8 km/h Distance 104 km</desc>
<time>2010-07-31T15:24:42.81</time>
<name>3167</name>
</trkpt>
<trkpt lat="48.734355" lon="11.020023">
<ele>440.0</ele>
<speed>7.1</speed>
<course>342.5</course>
<desc>Speed 7.1 km/h Distance 104 km</desc>
<time>2010-07-31T15:24:43.81</time>
<name>3168</name>
</trkpt>
<trkpt lat="48.734362" lon="11.020020">
<ele>441.0</ele>
<speed>3.0</speed>
<course>342.5</course>
<desc>Speed 3.0 km/h Distance 104 km</desc>
<time>2010-07-31T15:24:44.80</time>
<name>3169</name>
</trkpt>
<trkpt lat="48.734362" lon="11.020020">
<ele>441.0</ele>
<speed>0.6</speed>
<course>184.4</course>
<desc>Speed 0.6 km/h Distance 104 km</desc>
<time>2010-07-31T15:24:45.80</time>
<name>3170</name>
</trkpt>
<trkpt lat="48.734352" lon="11.020018">
<ele>442.5</ele>
<speed>3.9</speed>
<course>187.4</course>
<desc>Speed 3.9 km/h Distance 104 km</desc>
<time>2010-07-31T15:24:46.80</time>
<name>3171</name>
</trkpt>
<trkpt lat="48.734345" lon="11.020017">
<ele>443.5</ele>
<speed>1.9</speed>
<course>270.0</course>
<desc>Speed 1.9 km/h Distance 104 km</desc>
<time>2010-07-31T15:24:47.81</time>
<name>3172</name>
</trkpt>
<trkpt lat="48.734345" lon="11.020015">
<ele>443.5</ele>
<speed>0.3</speed>
<course>203.0</course>
<desc>Speed 0.3 km/h Distance 104 km</desc>
<time>2010-07-31T15:24:48.80</time>
<name>3173</name>
</trkpt>
<trkpt lat="48.734342" lon="11.020013">
<ele>443.0</ele>
<speed>1.8</speed>
<course>270.0</course>
<desc>Speed 1.8 km/h Distance 104 km</desc>
<time>2010-07-31T15:24:49.80</time>
<name>3174</name>
</trkpt>
<trkpt lat="48.734342" lon="11.020012">
<ele>443.0</ele>
<speed>0.3</speed>
<course>322.8</course>
<desc>Speed 0.3 km/h Distance 104 km</desc>
<time>2010-07-31T15:24:50.80</time>
<name>3175</name>
</trkpt>
<trkpt lat="48.734343" lon="11.020010">
<ele>443.0</ele>
<speed>0.2</speed>
<course>330.8</course>
<desc>Speed 0.2 km/h Distance 104 km</desc>
<time>2010-07-31T15:24:51.80</time>
<name>3176</name>
</trkpt>
<trkpt lat="48.734345" lon="11.020008">
<ele>442.0</ele>
<speed>0.3</speed>
<course>12.6</course>
<desc>Speed 0.3 km/h Distance 104 km</desc>
<time>2010-07-31T15:24:52.80</time>
<name>3177</name>
</trkpt>
<trkpt lat="48.734347" lon="11.020008">
<ele>442.0</ele>
<speed>0.6</speed>
<course>270.0</course>
<desc>Speed 0.6 km/h Distance 104 km</desc>
<time>2010-07-31T15:24:53.80</time>
<name>3178</name>
</trkpt>
<trkpt lat="48.734347" lon="11.020007">
<ele>441.5</ele>
<speed>0.6</speed>
<course>270.0</course>
<desc>Speed 0.6 km/h Distance 104 km</desc>
<time>2010-07-31T15:24:54.80</time>
<name>3179</name>
</trkpt>
<trkpt lat="48.734347" lon="11.020003">
<ele>441.0</ele>
<speed>0.9</speed>
<course>306.1</course>
<desc>Speed 0.9 km/h Distance 104 km</desc>
<time>2010-07-31T15:24:55.80</time>
<name>3180</name>
</trkpt>
<trkpt lat="48.734348" lon="11.020000">
<ele>440.5</ele>
<speed>0.7</speed>
<course>270.0</course>
<desc>Speed 0.7 km/h Distance 104 km</desc>
<time>2010-07-31T15:24:56.80</time>
<name>3181</name>
</trkpt>
<trkpt lat="48.734348" lon="11.019998">
<ele>440.5</ele>
<speed>0.7</speed>
<course>270.0</course>
<desc>Speed 0.7 km/h Distance 104 km</desc>
<time>2010-07-31T15:24:57.80</time>
<name>3182</name>
</trkpt>
<trkpt lat="48.734348" lon="11.019998">
<ele>440.5</ele>
<speed>0.7</speed>
<course>142.8</course>
<desc>Speed 0.7 km/h Distance 104 km</desc>
<time>2010-07-31T15:24:58.80</time>
<name>3183</name>
</trkpt>
<trkpt lat="48.734347" lon="11.020000">
<ele>440.0</ele>
<speed>0.5</speed>
<course>221.4</course>
<desc>Speed 0.5 km/h Distance 104 km</desc>
<time>2010-07-31T15:24:59.80</time>
<name>3184</name>
</trkpt>
<trkpt lat="48.734342" lon="11.019993">
<ele>440.0</ele>
<speed>1.9</speed>
<course>296.6</course>
<desc>Speed 1.9 km/h Distance 104 km</desc>
<time>2010-07-31T15:25:00.80</time>
<name>3185</name>
</trkpt>
<trkpt lat="48.734343" lon="11.019988">
<ele>440.0</ele>
<speed>2.1</speed>
<course>226.4</course>
<desc>Speed 2.1 km/h Distance 104 km</desc>
<time>2010-07-31T15:25:01.80</time>
<name>3186</name>
</trkpt>
<trkpt lat="48.734340" lon="11.019983">
<ele>439.5</ele>
<speed>2.0</speed>
<course>7.4</course>
<desc>Speed 2.0 km/h Distance 104 km</desc>
<time>2010-07-31T15:25:02.79</time>
<name>3187</name>
</trkpt>
<trkpt lat="48.734347" lon="11.019983">
<ele>439.5</ele>
<speed>1.2</speed>
<course>352.6</course>
<desc>Speed 1.2 km/h Distance 104 km</desc>
<time>2010-07-31T15:25:03.80</time>
<name>3188</name>
</trkpt>
<trkpt lat="48.734353" lon="11.019982">
<ele>439.0</ele>
<speed>0.1</speed>
<course>347.4</course>
<desc>Speed 0.1 km/h Distance 104 km</desc>
<time>2010-07-31T15:25:04.80</time>
<name>3189</name>
</trkpt>
<trkpt lat="48.734358" lon="11.019980">
<ele>438.5</ele>
<speed>1.8</speed>
<course>326.3</course>
<desc>Speed 1.8 km/h Distance 104 km</desc>
<time>2010-07-31T15:25:05.80</time>
<name>3190</name>
</trkpt>
<trkpt lat="48.734362" lon="11.019977">
<ele>438.5</ele>
<speed>1.1</speed>
<course>12.6</course>
<desc>Speed 1.1 km/h Distance 104 km</desc>
<time>2010-07-31T15:25:06.80</time>
<name>3191</name>
</trkpt>
<trkpt lat="48.734363" lon="11.019977">
<ele>439.0</ele>
<speed>0.7</speed>
<course>90.0</course>
<desc>Speed 0.7 km/h Distance 104 km</desc>
<time>2010-07-31T15:25:07.80</time>
<name>3192</name>
</trkpt>
<trkpt lat="48.734363" lon="11.019982">
<ele>439.5</ele>
<speed>0.4</speed>
<course>53.0</course>
<desc>Speed 0.4 km/h Distance 104 km</desc>
<time>2010-07-31T15:25:08.80</time>
<name>3193</name>
</trkpt>
<trkpt lat="48.734367" lon="11.019988">
<ele>441.5</ele>
<speed>1.4</speed>
<course>44.5</course>
<desc>Speed 1.4 km/h Distance 104 km</desc>
<time>2010-07-31T15:25:09.80</time>
<name>3194</name>
</trkpt>
<trkpt lat="48.734373" lon="11.019998">
<ele>442.0</ele>
<speed>2.0</speed>
<course>25.4</course>
<desc>Speed 2.0 km/h Distance 104 km</desc>
<time>2010-07-31T15:25:10.80</time>
<name>3195</name>
</trkpt>
<trkpt lat="48.734378" lon="11.020002">
<ele>442.5</ele>
<speed>0.3</speed>
<course>270.0</course>
<desc>Speed 0.3 km/h Distance 104 km</desc>
<time>2010-07-31T15:25:11.80</time>
<name>3196</name>
</trkpt>
<trkpt lat="48.734378" lon="11.020000">
<ele>442.5</ele>
<speed>0.1</speed>
<course>5.3</course>
<desc>Speed 0.1 km/h Distance 104 km</desc>
<time>2010-07-31T15:25:12.79</time>
<name>3197</name>
</trkpt>
<trkpt lat="48.734392" lon="11.020002">
<ele>440.5</ele>
<speed>4.7</speed>
<course>5.3</course>
<desc>Speed 4.7 km/h Distance 104 km</desc>
<time>2010-07-31T15:25:13.79</time>
<name>3198</name>
</trkpt>
<trkpt lat="48.734392" lon="11.020002">
<ele>440.5</ele>
<speed>1.4</speed>
<course>29.2</course>
<desc>Speed 1.4 km/h Distance 104 km</desc>
<time>2010-07-31T15:25:14.79</time>
<name>3199</name>
</trkpt>
<trkpt lat="48.734393" lon="11.020003">
<ele>440.0</ele>
<speed>0.6</speed>
<course>345.1</course>
<desc>Speed 0.6 km/h Distance 104 km</desc>
<time>2010-07-31T15:25:15.79</time>
<name>3200</name>
</trkpt>
<trkpt lat="48.734402" lon="11.020000">
<ele>439.0</ele>
<speed>2.8</speed>
<course>90.0</course>
<desc>Speed 2.8 km/h Distance 104 km</desc>
<time>2010-07-31T15:25:16.79</time>
<name>3201</name>
</trkpt>
<trkpt lat="48.734402" lon="11.020002">
<ele>438.5</ele>
<speed>0.2</speed>
<course>192.6</course>
<desc>Speed 0.2 km/h Distance 104 km</desc>
<time>2010-07-31T15:25:17.79</time>
<name>3202</name>
</trkpt>
<trkpt lat="48.734397" lon="11.020000">
<ele>437.0</ele>
<speed>2.7</speed>
<course>90.0</course>
<desc>Speed 2.7 km/h Distance 104 km</desc>
<time>2010-07-31T15:25:18.79</time>
<name>3203</name>
</trkpt>
<trkpt lat="48.734397" lon="11.020012">
<ele>437.5</ele>
<speed>3.2</speed>
<course>0.0</course>
<desc>Speed 3.2 km/h Distance 104 km</desc>
<time>2010-07-31T15:25:19.79</time>
<name>3204</name>
</trkpt>
<trkpt lat="48.734400" lon="11.020012">
<ele>437.0</ele>
<speed>0.5</speed>
<course>192.6</course>
<desc>Speed 0.5 km/h Distance 104 km</desc>
<time>2010-07-31T15:25:20.80</time>
<name>3205</name>
</trkpt>
<trkpt lat="48.734397" lon="11.020010">
<ele>437.0</ele>
<speed>0.8</speed>
<course>270.0</course>
<desc>Speed 0.8 km/h Distance 104 km</desc>
<time>2010-07-31T15:25:21.79</time>
<name>3206</name>
</trkpt>
<trkpt lat="48.734397" lon="11.020008">
<ele>436.5</ele>
<speed>0.1</speed>
<course>270.0</course>
<desc>Speed 0.1 km/h Distance 104 km</desc>
<time>2010-07-31T15:25:22.79</time>
<name>3207</name>
</trkpt>
<trkpt lat="48.734397" lon="11.020007">
<ele>436.0</ele>
<speed>0.5</speed>
<course>170.4</course>
<desc>Speed 0.5 km/h Distance 104 km</desc>
<time>2010-07-31T15:25:23.79</time>
<name>3208</name>
</trkpt>
<trkpt lat="48.734388" lon="11.020008">
<ele>436.5</ele>
<speed>3.0</speed>
<course>192.6</course>
<desc>Speed 3.0 km/h Distance 104 km</desc>
<time>2010-07-31T15:25:24.79</time>
<name>3209</name>
</trkpt>
<trkpt lat="48.734378" lon="11.020005">
<ele>436.5</ele>
<speed>4.5</speed>
<course>213.6</course>
<desc>Speed 4.5 km/h Distance 104 km</desc>
<time>2010-07-31T15:25:25.79</time>
<name>3210</name>
</trkpt>
<trkpt lat="48.734367" lon="11.019993">
<ele>435.0</ele>
<speed>3.9</speed>
<course>236.1</course>
<desc>Speed 3.9 km/h Distance 104 km</desc>
<time>2010-07-31T15:25:26.79</time>
<name>3211</name>
</trkpt>
<trkpt lat="48.734360" lon="11.019978">
<ele>435.5</ele>
<speed>3.7</speed>
<course>260.4</course>
<desc>Speed 3.7 km/h Distance 104 km</desc>
<time>2010-07-31T15:25:27.81</time>
<name>3212</name>
</trkpt>
<trkpt lat="48.734358" lon="11.019963">
<ele>435.0</ele>
<speed>3.9</speed>
<course>286.7</course>
<desc>Speed 3.9 km/h Distance 104 km</desc>
<time>2010-07-31T15:25:28.79</time>
<name>3213</name>
</trkpt>
<trkpt lat="48.734360" lon="11.019955">
<ele>434.0</ele>
<speed>3.0</speed>
<course>240.3</course>
<desc>Speed 3.0 km/h Distance 104 km</desc>
<time>2010-07-31T15:25:29.79</time>
<name>3214</name>
</trkpt>
<trkpt lat="48.734355" lon="11.019942">
<ele>435.0</ele>
<speed>3.3</speed>
<course>270.0</course>
<desc>Speed 3.3 km/h Distance 104 km</desc>
<time>2010-07-31T15:25:30.79</time>
<name>3215</name>
</trkpt>
<trkpt lat="48.734355" lon="11.019930">
<ele>435.0</ele>
<speed>3.6</speed>
<course>259.3</course>
<desc>Speed 3.6 km/h Distance 104 km</desc>
<time>2010-07-31T15:25:31.79</time>
<name>3216</name>
</trkpt>
<trkpt lat="48.734353" lon="11.019917">
<ele>435.0</ele>
<speed>4.0</speed>
<course>270.0</course>
<desc>Speed 4.0 km/h Distance 104 km</desc>
<time>2010-07-31T15:25:32.79</time>
<name>3217</name>
</trkpt>
<trkpt lat="48.734353" lon="11.019900">
<ele>435.5</ele>
<speed>4.4</speed>
<course>270.0</course>
<desc>Speed 4.4 km/h Distance 104 km</desc>
<time>2010-07-31T15:25:33.81</time>
<name>3218</name>
</trkpt>
<trkpt lat="48.734353" lon="11.019885">
<ele>436.0</ele>
<speed>5.1</speed>
<course>251.4</course>
<desc>Speed 5.1 km/h Distance 104 km</desc>
<time>2010-07-31T15:25:34.79</time>
<name>3219</name>
</trkpt>
<trkpt lat="48.734350" lon="11.019870">
<ele>437.0</ele>
<speed>5.0</speed>
<course>243.1</course>
<desc>Speed 5.0 km/h Distance 104 km</desc>
<time>2010-07-31T15:25:35.79</time>
<name>3220</name>
</trkpt>
<trkpt lat="48.734345" lon="11.019855">
<ele>438.0</ele>
<speed>4.9</speed>
<course>307.2</course>
<desc>Speed 4.9 km/h Distance 104 km</desc>
<time>2010-07-31T15:25:36.79</time>
<name>3221</name>
</trkpt>
<trkpt lat="48.734353" lon="11.019838">
<ele>438.0</ele>
<speed>4.9</speed>
<course>330.8</course>
<desc>Speed 4.9 km/h Distance 104 km</desc>
<time>2010-07-31T15:25:37.78</time>
<name>3222</name>
</trkpt>
<trkpt lat="48.734363" lon="11.019830">
<ele>437.0</ele>
<speed>4.9</speed>
<course>326.3</course>
<desc>Speed 4.9 km/h Distance 104 km</desc>
<time>2010-07-31T15:25:38.79</time>
<name>3223</name>
</trkpt>
<trkpt lat="48.734370" lon="11.019823">
<ele>436.5</ele>
<speed>4.6</speed>
<course>293.4</course>
<desc>Speed 4.6 km/h Distance 104 km</desc>
<time>2010-07-31T15:25:39.79</time>
<name>3224</name>
</trkpt>
<trkpt lat="48.734373" lon="11.019812">
<ele>437.0</ele>
<speed>4.0</speed>
<course>0.0</course>
<desc>Speed 4.0 km/h Distance 104 km</desc>
<time>2010-07-31T15:25:40.79</time>
<name>3225</name>
</trkpt>
<trkpt lat="48.734382" lon="11.019812">
<ele>436.5</ele>
<speed>3.6</speed>
<course>270.0</course>
<desc>Speed 3.6 km/h Distance 104 km</desc>
<time>2010-07-31T15:25:41.79</time>
<name>3226</name>
</trkpt>
<trkpt lat="48.734382" lon="11.019800">
<ele>436.5</ele>
<speed>3.0</speed>
<course>312.2</course>
<desc>Speed 3.0 km/h Distance 104 km</desc>
<time>2010-07-31T15:25:42.79</time>
<name>3227</name>
</trkpt>
<trkpt lat="48.734387" lon="11.019792">
<ele>437.5</ele>
<speed>4.3</speed>
<course>307.2</course>
<desc>Speed 4.3 km/h Distance 104 km</desc>
<time>2010-07-31T15:25:43.78</time>
<name>3228</name>
</trkpt>
<trkpt lat="48.734392" lon="11.019782">
<ele>438.0</ele>
<speed>4.9</speed>
<course>312.2</course>
<desc>Speed 4.9 km/h Distance 104 km</desc>
<time>2010-07-31T15:25:44.78</time>
<name>3229</name>
</trkpt>
<trkpt lat="48.734397" lon="11.019773">
<ele>438.5</ele>
<speed>4.3</speed>
<course>338.5</course>
<desc>Speed 4.3 km/h Distance 104 km</desc>
<time>2010-07-31T15:25:45.78</time>
<name>3230</name>
</trkpt>
<trkpt lat="48.734405" lon="11.019768">
<ele>438.0</ele>
<speed>3.8</speed>
<course>333.6</course>
<desc>Speed 3.8 km/h Distance 104 km</desc>
<time>2010-07-31T15:25:46.78</time>
<name>3231</name>
</trkpt>
<trkpt lat="48.734412" lon="11.019763">
<ele>438.5</ele>
<speed>3.7</speed>
<course>347.4</course>
<desc>Speed 3.7 km/h Distance 104 km</desc>
<time>2010-07-31T15:25:47.78</time>
<name>3232</name>
</trkpt>
<trkpt lat="48.734422" lon="11.019760">
<ele>438.5</ele>
<speed>4.6</speed>
<course>355.6</course>
<desc>Speed 4.6 km/h Distance 104 km</desc>
<time>2010-07-31T15:25:48.78</time>
<name>3233</name>
</trkpt>
<trkpt lat="48.734432" lon="11.019758">
<ele>438.5</ele>
<speed>4.0</speed>
<course>336.6</course>
<desc>Speed 4.0 km/h Distance 104 km</desc>
<time>2010-07-31T15:25:49.78</time>
<name>3234</name>
</trkpt>
<trkpt lat="48.734442" lon="11.019752">
<ele>438.5</ele>
<speed>3.2</speed>
<course>330.6</course>
<desc>Speed 3.2 km/h Distance 104 km</desc>
<time>2010-07-31T15:25:50.78</time>
<name>3235</name>
</trkpt>
<trkpt lat="48.734453" lon="11.019742">
<ele>439.0</ele>
<speed>3.7</speed>
<course>317.2</course>
<desc>Speed 3.7 km/h Distance 104 km</desc>
<time>2010-07-31T15:25:51.78</time>
<name>3236</name>
</trkpt>
<trkpt lat="48.734462" lon="11.019730">
<ele>439.0</ele>
<speed>2.9</speed>
<course>320.6</course>
<desc>Speed 2.9 km/h Distance 104 km</desc>
<time>2010-07-31T15:25:52.78</time>
<name>3237</name>
</trkpt>
<trkpt lat="48.734468" lon="11.019722">
<ele>438.5</ele>
<speed>2.2</speed>
<course>313.4</course>
<desc>Speed 2.2 km/h Distance 104 km</desc>
<time>2010-07-31T15:25:53.77</time>
<name>3238</name>
</trkpt>
<trkpt lat="48.734477" lon="11.019708">
<ele>438.5</ele>
<speed>3.5</speed>
<course>324.0</course>
<desc>Speed 3.5 km/h Distance 104 km</desc>
<time>2010-07-31T15:25:54.77</time>
<name>3239</name>
</trkpt>
<trkpt lat="48.734493" lon="11.019690">
<ele>438.5</ele>
<speed>4.8</speed>
<course>296.8</course>
<desc>Speed 4.8 km/h Distance 104 km</desc>
<time>2010-07-31T15:25:55.77</time>
<name>3240</name>
</trkpt>
<trkpt lat="48.734500" lon="11.019670">
<ele>438.5</ele>
<speed>4.9</speed>
<course>316.7</course>
<desc>Speed 4.9 km/h Distance 104 km</desc>
<time>2010-07-31T15:25:56.77</time>
<name>3241</name>
</trkpt>
<trkpt lat="48.734512" lon="11.019653">
<ele>438.5</ele>
<speed>4.3</speed>
<course>299.7</course>
<desc>Speed 4.3 km/h Distance 104 km</desc>
<time>2010-07-31T15:25:57.77</time>
<name>3242</name>
</trkpt>
<trkpt lat="48.734522" lon="11.019627">
<ele>439.0</ele>
<speed>5.9</speed>
<course>307.2</course>
<desc>Speed 5.9 km/h Distance 104 km</desc>
<time>2010-07-31T15:25:58.77</time>
<name>3243</name>
</trkpt>
<trkpt lat="48.734530" lon="11.019610">
<ele>439.0</ele>
<speed>3.7</speed>
<course>277.9</course>
<desc>Speed 3.7 km/h Distance 104 km</desc>
<time>2010-07-31T15:25:59.77</time>
<name>3244</name>
</trkpt>
<trkpt lat="48.734532" lon="11.019592">
<ele>439.5</ele>
<speed>3.6</speed>
<course>312.2</course>
<desc>Speed 3.6 km/h Distance 104 km</desc>
<time>2010-07-31T15:26:00.78</time>
<name>3245</name>
</trkpt>
<trkpt lat="48.734537" lon="11.019583">
<ele>439.5</ele>
<speed>1.5</speed>
<course>319.1</course>
<desc>Speed 1.5 km/h Distance 104 km</desc>
<time>2010-07-31T15:26:01.77</time>
<name>3246</name>
</trkpt>
<trkpt lat="48.734542" lon="11.019577">
<ele>439.5</ele>
<speed>1.8</speed>
<course>12.6</course>
<desc>Speed 1.8 km/h Distance 104 km</desc>
<time>2010-07-31T15:26:02.77</time>
<name>3247</name>
</trkpt>
<trkpt lat="48.734543" lon="11.019577">
<ele>439.5</ele>
<speed>0.5</speed>
<course>12.6</course>
<desc>Speed 0.5 km/h Distance 104 km</desc>
<time>2010-07-31T15:26:03.77</time>
<name>3248</name>
</trkpt>
<trkpt lat="48.734543" lon="11.019577">
<ele>439.5</ele>
<speed>0.0</speed>
<course>33.4</course>
<desc>Speed 0.0 km/h Distance 104 km</desc>
<time>2010-07-31T15:26:04.78</time>
<name>3249</name>
</trkpt>
<trkpt lat="48.734557" lon="11.019590">
<ele>439.0</ele>
<speed>1.3</speed>
<course>244.7</course>
<desc>Speed 1.3 km/h Distance 104 km</desc>
<time>2010-07-31T15:26:05.78</time>
<name>3250</name>
</trkpt>
<trkpt lat="48.734548" lon="11.019563">
<ele>440.0</ele>
<speed>0.1</speed>
<course>249.2</course>
<desc>Speed 0.1 km/h Distance 104 km</desc>
<time>2010-07-31T15:26:06.78</time>
<name>3251</name>
</trkpt>
<trkpt lat="48.734543" lon="11.019543">
<ele>440.5</ele>
<speed>0.1</speed>
<course>270.0</course>
<desc>Speed 0.1 km/h Distance 104 km</desc>
<time>2010-07-31T15:26:07.78</time>
<name>3252</name>
</trkpt>
<trkpt lat="48.734543" lon="11.019538">
<ele>440.5</ele>
<speed>0.1</speed>
<course>53.0</course>
<desc>Speed 0.1 km/h Distance 104 km</desc>
<time>2010-07-31T15:26:08.77</time>
<name>3253</name>
</trkpt>
<trkpt lat="48.734547" lon="11.019545">
<ele>440.5</ele>
<speed>0.4</speed>
<course>22.2</course>
<desc>Speed 0.4 km/h Distance 104 km</desc>
<time>2010-07-31T15:26:09.78</time>
<name>3254</name>
</trkpt>
<trkpt lat="48.734552" lon="11.019548">
<ele>440.0</ele>
<speed>0.5</speed>
<course>12.6</course>
<desc>Speed 0.5 km/h Distance 104 km</desc>
<time>2010-07-31T15:26:10.78</time>
<name>3255</name>
</trkpt>
<trkpt lat="48.734553" lon="11.019548">
<ele>440.0</ele>
<speed>0.3</speed>
<course>12.6</course>
<desc>Speed 0.3 km/h Distance 104 km</desc>
<time>2010-07-31T15:26:11.77</time>
<name>3256</name>
</trkpt>
<trkpt lat="48.734555" lon="11.019548">
<ele>439.5</ele>
<speed>0.3</speed>
<course>12.6</course>
<desc>Speed 0.3 km/h Distance 104 km</desc>
<time>2010-07-31T15:26:12.77</time>
<name>3257</name>
</trkpt>
<trkpt lat="48.734557" lon="11.019548">
<ele>439.5</ele>
<speed>0.3</speed>
<course>90.0</course>
<desc>Speed 0.3 km/h Distance 104 km</desc>
<time>2010-07-31T15:26:13.77</time>
<name>3258</name>
</trkpt>
<trkpt lat="48.734557" lon="11.019550">
<ele>439.5</ele>
<speed>0.4</speed>
<course>90.0</course>
<desc>Speed 0.4 km/h Distance 104 km</desc>
<time>2010-07-31T15:26:14.77</time>
<name>3259</name>
</trkpt>
<trkpt lat="48.734557" lon="11.019550">
<ele>439.0</ele>
<speed>0.0</speed>
<course>90.0</course>
<desc>Speed 0.0 km/h Distance 104 km</desc>
<time>2010-07-31T15:26:15.77</time>
<name>3260</name>
</trkpt>
<trkpt lat="48.734557" lon="11.019550">
<ele>439.5</ele>
<speed>0.1</speed>
<course>167.4</course>
<desc>Speed 0.1 km/h Distance 104 km</desc>
<time>2010-07-31T15:26:16.77</time>
<name>3261</name>
</trkpt>
<trkpt lat="48.734555" lon="11.019550">
<ele>439.5</ele>
<speed>0.1</speed>
<course>90.0</course>
<desc>Speed 0.1 km/h Distance 104 km</desc>
<time>2010-07-31T15:26:17.77</time>
<name>3262</name>
</trkpt>
<trkpt lat="48.734555" lon="11.019552">
<ele>439.5</ele>
<speed>0.6</speed>
<course>90.0</course>
<desc>Speed 0.6 km/h Distance 104 km</desc>
<time>2010-07-31T15:26:18.77</time>
<name>3263</name>
</trkpt>
<trkpt lat="48.734555" lon="11.019552">
<ele>439.5</ele>
<speed>0.2</speed>
<course>90.0</course>
<desc>Speed 0.2 km/h Distance 104 km</desc>
<time>2010-07-31T15:26:19.77</time>
<name>3264</name>
</trkpt>
<trkpt lat="48.734555" lon="11.019552">
<ele>439.0</ele>
<speed>0.2</speed>
<course>90.0</course>
<desc>Speed 0.2 km/h Distance 104 km</desc>
<time>2010-07-31T15:26:20.77</time>
<name>3265</name>
</trkpt>
<trkpt lat="48.734555" lon="11.019552">
<ele>439.0</ele>
<speed>0.4</speed>
<course>90.0</course>
<desc>Speed 0.4 km/h Distance 104 km</desc>
<time>2010-07-31T15:26:21.77</time>
<name>3266</name>
</trkpt>
<trkpt lat="48.734555" lon="11.019552">
<ele>439.0</ele>
<speed>0.3</speed>
<course>29.2</course>
<desc>Speed 0.3 km/h Distance 104 km</desc>
<time>2010-07-31T15:26:22.76</time>
<name>3267</name>
</trkpt>
<trkpt lat="48.734557" lon="11.019553">
<ele>439.0</ele>
<speed>0.6</speed>
<course>29.2</course>
<desc>Speed 0.6 km/h Distance 104 km</desc>
<time>2010-07-31T15:26:23.77</time>
<name>3268</name>
</trkpt>
<trkpt lat="48.734557" lon="11.019553">
<ele>439.0</ele>
<speed>0.2</speed>
<course>212.3</course>
<desc>Speed 0.2 km/h Distance 104 km</desc>
<time>2010-07-31T15:26:24.77</time>
<name>3269</name>
</trkpt>
<trkpt lat="48.734552" lon="11.019548">
<ele>438.5</ele>
<speed>1.4</speed>
<course>209.2</course>
<desc>Speed 1.4 km/h Distance 104 km</desc>
<time>2010-07-31T15:26:25.77</time>
<name>3270</name>
</trkpt>
<trkpt lat="48.734550" lon="11.019547">
<ele>438.0</ele>
<speed>1.5</speed>
<course>167.4</course>
<desc>Speed 1.5 km/h Distance 104 km</desc>
<time>2010-07-31T15:26:26.76</time>
<name>3271</name>
</trkpt>
<trkpt lat="48.734548" lon="11.019547">
<ele>438.0</ele>
<speed>1.2</speed>
<course>167.4</course>
<desc>Speed 1.2 km/h Distance 104 km</desc>
<time>2010-07-31T15:26:27.78</time>
<name>3272</name>
</trkpt>
<trkpt lat="48.734547" lon="11.019547">
<ele>438.0</ele>
<speed>0.4</speed>
<course>167.4</course>
<desc>Speed 0.4 km/h Distance 104 km</desc>
<time>2010-07-31T15:26:28.76</time>
<name>3273</name>
</trkpt>
<trkpt lat="48.734547" lon="11.019547">
<ele>438.0</ele>
<speed>0.7</speed>
<course>231.9</course>
<desc>Speed 0.7 km/h Distance 104 km</desc>
<time>2010-07-31T15:26:29.77</time>
<name>3274</name>
</trkpt>
<trkpt lat="48.734545" lon="11.019543">
<ele>438.0</ele>
<speed>1.0</speed>
<course>36.9</course>
<desc>Speed 1.0 km/h Distance 104 km</desc>
<time>2010-07-31T15:26:30.76</time>
<name>3275</name>
</trkpt>
<trkpt lat="48.734557" lon="11.019557">
<ele>440.0</ele>
<speed>5.1</speed>
<course>36.9</course>
<desc>Speed 5.1 km/h Distance 104 km</desc>
<time>2010-07-31T15:26:31.77</time>
<name>3276</name>
</trkpt>
<trkpt lat="48.734557" lon="11.019557">
<ele>440.0</ele>
<speed>0.2</speed>
<course>90.0</course>
<desc>Speed 0.2 km/h Distance 104 km</desc>
<time>2010-07-31T15:26:32.77</time>
<name>3277</name>
</trkpt>
<trkpt lat="48.734557" lon="11.019558">
<ele>440.0</ele>
<speed>0.1</speed>
<course>27.2</course>
<desc>Speed 0.1 km/h Distance 104 km</desc>
<time>2010-07-31T15:26:33.76</time>
<name>3278</name>
</trkpt>
<trkpt lat="48.734572" lon="11.019570">
<ele>440.0</ele>
<speed>6.0</speed>
<course>44.5</course>
<desc>Speed 6.0 km/h Distance 104 km</desc>
<time>2010-07-31T15:26:34.76</time>
<name>3279</name>
</trkpt>
<trkpt lat="48.734578" lon="11.019580">
<ele>442.0</ele>
<speed>2.7</speed>
<course>28.6</course>
<desc>Speed 2.7 km/h Distance 104 km</desc>
<time>2010-07-31T15:26:35.76</time>
<name>3280</name>
</trkpt>
<trkpt lat="48.734588" lon="11.019588">
<ele>443.0</ele>
<speed>3.1</speed>
<course>49.1</course>
<desc>Speed 3.1 km/h Distance 104 km</desc>
<time>2010-07-31T15:26:36.76</time>
<name>3281</name>
</trkpt>
<trkpt lat="48.734595" lon="11.019600">
<ele>444.0</ele>
<speed>3.7</speed>
<course>61.2</course>
<desc>Speed 3.7 km/h Distance 104 km</desc>
<time>2010-07-31T15:26:37.77</time>
<name>3282</name>
</trkpt>
<trkpt lat="48.734602" lon="11.019618">
<ele>444.0</ele>
<speed>2.7</speed>
<course>57.1</course>
<desc>Speed 2.7 km/h Distance 104 km</desc>
<time>2010-07-31T15:26:39.76</time>
<name>3283</name>
</trkpt>
<trkpt lat="48.734607" lon="11.019630">
<ele>444.5</ele>
<speed>3.1</speed>
<course>90.0</course>
<desc>Speed 3.1 km/h Distance 104 km</desc>
<time>2010-07-31T15:26:40.76</time>
<name>3284</name>
</trkpt>
<trkpt lat="48.734607" lon="11.019642">
<ele>444.5</ele>
<speed>3.0</speed>
<course>90.0</course>
<desc>Speed 3.0 km/h Distance 104 km</desc>
<time>2010-07-31T15:26:41.76</time>
<name>3285</name>
</trkpt>
<trkpt lat="48.734607" lon="11.019653">
<ele>444.5</ele>
<speed>3.3</speed>
<course>90.0</course>
<desc>Speed 3.3 km/h Distance 104 km</desc>
<time>2010-07-31T15:26:42.75</time>
<name>3286</name>
</trkpt>
<trkpt lat="48.734607" lon="11.019662">
<ele>444.0</ele>
<speed>2.4</speed>
<course>73.3</course>
<desc>Speed 2.4 km/h Distance 104 km</desc>
<time>2010-07-31T15:26:43.76</time>
<name>3287</name>
</trkpt>
<trkpt lat="48.734608" lon="11.019670">
<ele>444.5</ele>
<speed>2.4</speed>
<course>57.1</course>
<desc>Speed 2.4 km/h Distance 104 km</desc>
<time>2010-07-31T15:26:44.76</time>
<name>3288</name>
</trkpt>
<trkpt lat="48.734613" lon="11.019682">
<ele>444.5</ele>
<speed>2.5</speed>
<course>66.5</course>
<desc>Speed 2.5 km/h Distance 104 km</desc>
<time>2010-07-31T15:26:45.76</time>
<name>3289</name>
</trkpt>
<trkpt lat="48.734617" lon="11.019693">
<ele>445.5</ele>
<speed>2.7</speed>
<course>141.0</course>
<desc>Speed 2.7 km/h Distance 104 km</desc>
<time>2010-07-31T15:26:46.76</time>
<name>3290</name>
</trkpt>
<trkpt lat="48.734610" lon="11.019702">
<ele>445.0</ele>
<speed>2.9</speed>
<course>152.1</course>
<desc>Speed 2.9 km/h Distance 104 km</desc>
<time>2010-07-31T15:26:47.76</time>
<name>3291</name>
</trkpt>
<trkpt lat="48.734602" lon="11.019708">
<ele>445.0</ele>
<speed>3.6</speed>
<course>164.0</course>
<desc>Speed 3.6 km/h Distance 104 km</desc>
<time>2010-07-31T15:26:48.76</time>
<name>3292</name>
</trkpt>
<trkpt lat="48.734590" lon="11.019713">
<ele>444.5</ele>
<speed>3.9</speed>
<course>177.8</course>
<desc>Speed 3.9 km/h Distance 104 km</desc>
<time>2010-07-31T15:26:49.76</time>
<name>3293</name>
</trkpt>
<trkpt lat="48.734578" lon="11.019715">
<ele>444.0</ele>
<speed>4.0</speed>
<course>175.3</course>
<desc>Speed 4.0 km/h Distance 104 km</desc>
<time>2010-07-31T15:26:50.76</time>
<name>3294</name>
</trkpt>
<trkpt lat="48.734567" lon="11.019717">
<ele>444.5</ele>
<speed>4.8</speed>
<course>169.6</course>
<desc>Speed 4.8 km/h Distance 104 km</desc>
<time>2010-07-31T15:26:51.76</time>
<name>3295</name>
</trkpt>
<trkpt lat="48.734555" lon="11.019720">
<ele>444.5</ele>
<speed>4.2</speed>
<course>185.0</course>
<desc>Speed 4.2 km/h Distance 104 km</desc>
<time>2010-07-31T15:26:52.76</time>
<name>3296</name>
</trkpt>
<trkpt lat="48.734547" lon="11.019718">
<ele>444.5</ele>
<speed>3.2</speed>
<course>117.0</course>
<desc>Speed 3.2 km/h Distance 104 km</desc>
<time>2010-07-31T15:26:53.76</time>
<name>3297</name>
</trkpt>
<trkpt lat="48.734543" lon="11.019728">
<ele>444.5</ele>
<speed>0.5</speed>
<course>90.0</course>
<desc>Speed 0.5 km/h Distance 104 km</desc>
<time>2010-07-31T15:26:54.76</time>
<name>3298</name>
</trkpt>
<trkpt lat="48.734543" lon="11.019730">
<ele>444.5</ele>
<speed>0.2</speed>
<course>128.1</course>
<desc>Speed 0.2 km/h Distance 104 km</desc>
<time>2010-07-31T15:26:55.75</time>
<name>3299</name>
</trkpt>
<trkpt lat="48.734542" lon="11.019733">
<ele>445.0</ele>
<speed>0.6</speed>
<course>90.0</course>
<desc>Speed 0.6 km/h Distance 104 km</desc>
<time>2010-07-31T15:26:56.75</time>
<name>3300</name>
</trkpt>
<trkpt lat="48.734542" lon="11.019737">
<ele>445.0</ele>
<speed>0.1</speed>
<course>37.2</course>
<desc>Speed 0.1 km/h Distance 104 km</desc>
<time>2010-07-31T15:26:57.75</time>
<name>3301</name>
</trkpt>
<trkpt lat="48.734543" lon="11.019738">
<ele>445.0</ele>
<speed>0.3</speed>
<course>40.9</course>
<desc>Speed 0.3 km/h Distance 104 km</desc>
<time>2010-07-31T15:26:58.75</time>
<name>3302</name>
</trkpt>
<trkpt lat="48.734548" lon="11.019745">
<ele>445.0</ele>
<speed>1.4</speed>
<course>53.9</course>
<desc>Speed 1.4 km/h Distance 104 km</desc>
<time>2010-07-31T15:26:59.75</time>
<name>3303</name>
</trkpt>
<trkpt lat="48.734550" lon="11.019748">
<ele>445.0</ele>
<speed>0.1</speed>
<course>33.7</course>
<desc>Speed 0.1 km/h Distance 104 km</desc>
<time>2010-07-31T15:27:00.75</time>
<name>3304</name>
</trkpt>
<trkpt lat="48.734553" lon="11.019752">
<ele>444.5</ele>
<speed>0.6</speed>
<course>62.6</course>
<desc>Speed 0.6 km/h Distance 104 km</desc>
<time>2010-07-31T15:27:01.75</time>
<name>3305</name>
</trkpt>
<trkpt lat="48.734555" lon="11.019757">
<ele>444.5</ele>
<speed>0.6</speed>
<course>58.8</course>
<desc>Speed 0.6 km/h Distance 104 km</desc>
<time>2010-07-31T15:27:02.75</time>
<name>3306</name>
</trkpt>
<trkpt lat="48.734565" lon="11.019782">
<ele>444.5</ele>
<speed>3.7</speed>
<course>160.3</course>
<desc>Speed 3.7 km/h Distance 104 km</desc>
<time>2010-07-31T15:27:04.75</time>
<name>3307</name>
</trkpt>
<trkpt lat="48.734547" lon="11.019792">
<ele>446.0</ele>
<speed>5.7</speed>
<course>175.0</course>
<desc>Speed 5.7 km/h Distance 104 km</desc>
<time>2010-07-31T15:27:05.75</time>
<name>3308</name>
</trkpt>
<trkpt lat="48.734530" lon="11.019793">
<ele>446.0</ele>
<speed>3.9</speed>
<course>173.0</course>
<desc>Speed 3.9 km/h Distance 104 km</desc>
<time>2010-07-31T15:27:06.75</time>
<name>3309</name>
</trkpt>
<trkpt lat="48.734512" lon="11.019797">
<ele>445.5</ele>
<speed>5.2</speed>
<course>187.4</course>
<desc>Speed 5.2 km/h Distance 104 km</desc>
<time>2010-07-31T15:27:07.75</time>
<name>3310</name>
</trkpt>
<trkpt lat="48.734487" lon="11.019792">
<ele>446.0</ele>
<speed>4.8</speed>
<course>172.5</course>
<desc>Speed 4.8 km/h Distance 104 km</desc>
<time>2010-07-31T15:27:08.75</time>
<name>3311</name>
</trkpt>
<trkpt lat="48.734472" lon="11.019795">
<ele>446.0</ele>
<speed>4.5</speed>
<course>167.4</course>
<desc>Speed 4.5 km/h Distance 104 km</desc>
<time>2010-07-31T15:27:09.75</time>
<name>3312</name>
</trkpt>
<trkpt lat="48.734457" lon="11.019800">
<ele>445.5</ele>
<speed>3.9</speed>
<course>171.0</course>
<desc>Speed 3.9 km/h Distance 104 km</desc>
<time>2010-07-31T15:27:10.74</time>
<name>3313</name>
</trkpt>
<trkpt lat="48.734443" lon="11.019803">
<ele>445.0</ele>
<speed>3.4</speed>
<course>189.7</course>
<desc>Speed 3.4 km/h Distance 104 km</desc>
<time>2010-07-31T15:27:11.75</time>
<name>3314</name>
</trkpt>
<trkpt lat="48.734430" lon="11.019800">
<ele>444.5</ele>
<speed>3.2</speed>
<course>134.0</course>
<desc>Speed 3.2 km/h Distance 104 km</desc>
<time>2010-07-31T15:27:12.75</time>
<name>3315</name>
</trkpt>
<trkpt lat="48.734418" lon="11.019818">
<ele>444.5</ele>
<speed>6.0</speed>
<course>146.2</course>
<desc>Speed 6.0 km/h Distance 104 km</desc>
<time>2010-07-31T15:27:13.75</time>
<name>3316</name>
</trkpt>
<trkpt lat="48.734410" lon="11.019827">
<ele>444.0</ele>
<speed>4.0</speed>
<course>113.4</course>
<desc>Speed 4.0 km/h Distance 104 km</desc>
<time>2010-07-31T15:27:14.75</time>
<name>3317</name>
</trkpt>
<trkpt lat="48.734400" lon="11.019862">
<ele>445.5</ele>
<speed>9.5</speed>
<course>125.0</course>
<desc>Speed 9.5 km/h Distance 104 km</desc>
<time>2010-07-31T15:27:15.74</time>
<name>3318</name>
</trkpt>
<trkpt lat="48.734390" lon="11.019883">
<ele>446.0</ele>
<speed>6.0</speed>
<course>119.7</course>
<desc>Speed 6.0 km/h Distance 104 km</desc>
<time>2010-07-31T15:27:16.74</time>
<name>3319</name>
</trkpt>
<trkpt lat="48.734385" lon="11.019897">
<ele>446.5</ele>
<speed>3.9</speed>
<course>116.9</course>
<desc>Speed 3.9 km/h Distance 104 km</desc>
<time>2010-07-31T15:27:17.74</time>
<name>3320</name>
</trkpt>
<trkpt lat="48.734380" lon="11.019912">
<ele>447.0</ele>
<speed>3.9</speed>
<course>127.4</course>
<desc>Speed 3.9 km/h Distance 104 km</desc>
<time>2010-07-31T15:27:18.74</time>
<name>3321</name>
</trkpt>
<trkpt lat="48.734375" lon="11.019922">
<ele>446.5</ele>
<speed>2.2</speed>
<course>140.6</course>
<desc>Speed 2.2 km/h Distance 104 km</desc>
<time>2010-07-31T15:27:19.74</time>
<name>3322</name>
</trkpt>
<trkpt lat="48.734368" lon="11.019930">
<ele>446.5</ele>
<speed>3.0</speed>
<course>135.5</course>
<desc>Speed 3.0 km/h Distance 104 km</desc>
<time>2010-07-31T15:27:20.74</time>
<name>3323</name>
</trkpt>
<trkpt lat="48.734362" lon="11.019940">
<ele>446.0</ele>
<speed>3.2</speed>
<course>102.2</course>
<desc>Speed 3.2 km/h Distance 104 km</desc>
<time>2010-07-31T15:27:21.74</time>
<name>3324</name>
</trkpt>
<trkpt lat="48.734360" lon="11.019952">
<ele>446.0</ele>
<speed>3.2</speed>
<course>110.7</course>
<desc>Speed 3.2 km/h Distance 104 km</desc>
<time>2010-07-31T15:27:22.74</time>
<name>3325</name>
</trkpt>
<trkpt lat="48.734357" lon="11.019965">
<ele>445.0</ele>
<speed>3.7</speed>
<course>90.0</course>
<desc>Speed 3.7 km/h Distance 104 km</desc>
<time>2010-07-31T15:27:23.74</time>
<name>3326</name>
</trkpt>
<trkpt lat="48.734357" lon="11.019980">
<ele>446.0</ele>
<speed>4.2</speed>
<course>44.8</course>
<desc>Speed 4.2 km/h Distance 104 km</desc>
<time>2010-07-31T15:27:24.74</time>
<name>3327</name>
</trkpt>
<trkpt lat="48.734363" lon="11.019990">
<ele>446.0</ele>
<speed>4.1</speed>
<course>69.5</course>
<desc>Speed 4.1 km/h Distance 104 km</desc>
<time>2010-07-31T15:27:25.74</time>
<name>3328</name>
</trkpt>
<trkpt lat="48.734365" lon="11.019997">
<ele>447.0</ele>
<speed>2.4</speed>
<course>157.0</course>
<desc>Speed 2.4 km/h Distance 104 km</desc>
<time>2010-07-31T15:27:26.74</time>
<name>3329</name>
</trkpt>
<trkpt lat="48.734362" lon="11.019998">
<ele>447.5</ele>
<speed>0.3</speed>
<course>128.1</course>
<desc>Speed 0.3 km/h Distance 104 km</desc>
<time>2010-07-31T15:27:27.75</time>
<name>3330</name>
</trkpt>
<trkpt lat="48.734360" lon="11.020002">
<ele>447.5</ele>
<speed>0.3</speed>
<course>90.0</course>
<desc>Speed 0.3 km/h Distance 104 km</desc>
<time>2010-07-31T15:27:28.74</time>
<name>3331</name>
</trkpt>
<trkpt lat="48.734360" lon="11.020005">
<ele>448.0</ele>
<speed>0.4</speed>
<course>142.8</course>
<desc>Speed 0.4 km/h Distance 104 km</desc>
<time>2010-07-31T15:27:29.74</time>
<name>3332</name>
</trkpt>
<trkpt lat="48.734358" lon="11.020007">
<ele>448.0</ele>
<speed>0.1</speed>
<course>167.4</course>
<desc>Speed 0.1 km/h Distance 104 km</desc>
<time>2010-07-31T15:27:30.74</time>
<name>3333</name>
</trkpt>
<trkpt lat="48.734357" lon="11.020007">
<ele>448.5</ele>
<speed>0.5</speed>
<course>167.4</course>
<desc>Speed 0.5 km/h Distance 104 km</desc>
<time>2010-07-31T15:27:31.74</time>
<name>3334</name>
</trkpt>
<trkpt lat="48.734357" lon="11.020007">
<ele>448.5</ele>
<speed>0.6</speed>
<course>172.3</course>
<desc>Speed 0.6 km/h Distance 104 km</desc>
<time>2010-07-31T15:27:32.74</time>
<name>3335</name>
</trkpt>
<trkpt lat="48.734348" lon="11.020008">
<ele>448.5</ele>
<speed>2.9</speed>
<course>169.7</course>
<desc>Speed 2.9 km/h Distance 104 km</desc>
<time>2010-07-31T15:27:33.74</time>
<name>3336</name>
</trkpt>
<trkpt lat="48.734342" lon="11.020010">
<ele>449.5</ele>
<speed>1.6</speed>
<course>154.6</course>
<desc>Speed 1.6 km/h Distance 104 km</desc>
<time>2010-07-31T15:27:34.73</time>
<name>3337</name>
</trkpt>
<trkpt lat="48.734337" lon="11.020013">
<ele>449.5</ele>
<speed>1.8</speed>
<course>180.0</course>
<desc>Speed 1.8 km/h Distance 104 km</desc>
<time>2010-07-31T15:27:35.74</time>
<name>3338</name>
</trkpt>
<trkpt lat="48.734335" lon="11.020013">
<ele>449.0</ele>
<speed>0.5</speed>
<course>164.0</course>
<desc>Speed 0.5 km/h Distance 104 km</desc>
<time>2010-07-31T15:27:36.75</time>
<name>3339</name>
</trkpt>
<trkpt lat="48.734328" lon="11.020017">
<ele>449.0</ele>
<speed>1.2</speed>
<course>293.4</course>
<desc>Speed 1.2 km/h Distance 104 km</desc>
<time>2010-07-31T15:27:39.30</time>
<name>3340</name>
</trkpt>
<trkpt lat="48.734332" lon="11.020005">
<ele>448.0</ele>
<speed>1.2</speed>
<course>244.3</course>
<desc>Speed 1.2 km/h Distance 104 km</desc>
<time>2010-07-31T15:27:41.07</time>
<name>3341</name>
</trkpt>
<trkpt lat="48.734288" lon="11.019868">
<ele>448.5</ele>
<speed>1.2</speed>
<course>191.3</course>
<desc>Speed 1.2 km/h Distance 104 km</desc>
<time>2010-07-31T15:27:44.13</time>
<name>3342</name>
</trkpt>
<trkpt lat="48.734200" lon="11.019842">
<ele>448.5</ele>
<speed>1.2</speed>
<course>227.2</course>
<desc>Speed 1.2 km/h Distance 104 km</desc>
<time>2010-07-31T15:27:46.52</time>
<name>3343</name>
</trkpt>
<trkpt lat="48.734182" lon="11.019812">
<ele>450.0</ele>
<speed>1.2</speed>
<course>180.0</course>
<desc>Speed 1.2 km/h Distance 104 km</desc>
<time>2010-07-31T15:27:49.61</time>
<name>3344</name>
</trkpt>
<trkpt lat="48.734175" lon="11.019812">
<ele>451.0</ele>
<speed>1.2</speed>
<course>59.8</course>
<desc>Speed 1.2 km/h Distance 104 km</desc>
<time>2010-07-31T15:27:54.43</time>
<name>3345</name>
</trkpt>
<trkpt lat="48.734192" lon="11.019855">
<ele>453.5</ele>
<speed>3.3</speed>
<course>13.2</course>
<desc>Speed 3.3 km/h Distance 104 km</desc>
<time>2010-07-31T15:28:04.39</time>
<name>3346</name>
</trkpt>
<trkpt lat="48.734272" lon="11.019883">
<ele>453.0</ele>
<speed>3.3</speed>
<course>39.1</course>
<desc>Speed 3.3 km/h Distance 104 km</desc>
<time>2010-07-31T15:28:11.79</time>
<name>3347</name>
</trkpt>
<trkpt lat="48.734315" lon="11.019937">
<ele>451.5</ele>
<speed>3.3</speed>
<course>106.9</course>
<desc>Speed 3.3 km/h Distance 104 km</desc>
<time>2010-07-31T15:28:15.79</time>
<name>3348</name>
</trkpt>
<trkpt lat="48.734310" lon="11.019962">
<ele>452.0</ele>
<speed>0.1</speed>
<course>90.0</course>
<desc>Speed 0.1 km/h Distance 104 km</desc>
<time>2010-07-31T15:28:17.73</time>
<name>3349</name>
</trkpt>
<trkpt lat="48.734310" lon="11.019983">
<ele>452.0</ele>
<speed>0.1</speed>
<course>41.3</course>
<desc>Speed 0.1 km/h Distance 104 km</desc>
<time>2010-07-31T15:28:22.72</time>
<name>3350</name>
</trkpt>
<trkpt lat="48.734330" lon="11.020010">
<ele>452.0</ele>
<speed>0.4</speed>
<course>21.5</course>
<desc>Speed 0.4 km/h Distance 104 km</desc>
<time>2010-07-31T15:28:24.79</time>
<name>3351</name>
</trkpt>
<trkpt lat="48.734338" lon="11.020015">
<ele>451.5</ele>
<speed>1.9</speed>
<course>41.4</course>
<desc>Speed 1.9 km/h Distance 104 km</desc>
<time>2010-07-31T15:28:27.15</time>
<name>3352</name>
</trkpt>
<trkpt lat="48.734343" lon="11.020022">
<ele>451.5</ele>
<speed>1.9</speed>
<course>62.6</course>
<desc>Speed 1.9 km/h Distance 104 km</desc>
<time>2010-07-31T15:28:27.76</time>
<name>3353</name>
</trkpt>
<trkpt lat="48.734345" lon="11.020027">
<ele>451.0</ele>
<speed>1.9</speed>
<course>22.3</course>
<desc>Speed 1.9 km/h Distance 104 km</desc>
<time>2010-07-31T15:28:28.72</time>
<name>3354</name>
</trkpt>
<trkpt lat="48.734358" lon="11.020035">
<ele>450.5</ele>
<speed>1.0</speed>
<course>270.0</course>
<desc>Speed 1.0 km/h Distance 104 km</desc>
<time>2010-07-31T15:28:29.72</time>
<name>3355</name>
</trkpt>
<trkpt lat="48.734358" lon="11.020033">
<ele>450.0</ele>
<speed>0.2</speed>
<course>26.4</course>
<desc>Speed 0.2 km/h Distance 104 km</desc>
<time>2010-07-31T15:28:30.71</time>
<name>3356</name>
</trkpt>
<trkpt lat="48.734365" lon="11.020038">
<ele>449.0</ele>
<speed>1.4</speed>
<course>37.2</course>
<desc>Speed 1.4 km/h Distance 104 km</desc>
<time>2010-07-31T15:28:31.70</time>
<name>3357</name>
</trkpt>
<trkpt lat="48.734367" lon="11.020040">
<ele>448.5</ele>
<speed>0.6</speed>
<course>347.4</course>
<desc>Speed 0.6 km/h Distance 104 km</desc>
<time>2010-07-31T15:28:32.70</time>
<name>3358</name>
</trkpt>
<trkpt lat="48.734372" lon="11.020038">
<ele>447.5</ele>
<speed>0.0</speed>
<course>29.2</course>
<desc>Speed 0.0 km/h Distance 104 km</desc>
<time>2010-07-31T15:28:33.70</time>
<name>3359</name>
</trkpt>
<trkpt lat="48.734373" lon="11.020040">
<ele>448.0</ele>
<speed>0.2</speed>
<course>29.2</course>
<desc>Speed 0.2 km/h Distance 104 km</desc>
<time>2010-07-31T15:28:34.70</time>
<name>3360</name>
</trkpt>
<trkpt lat="48.734373" lon="11.020040">
<ele>448.0</ele>
<speed>0.5</speed>
<course>29.2</course>
<desc>Speed 0.5 km/h Distance 104 km</desc>
<time>2010-07-31T15:28:35.70</time>
<name>3361</name>
</trkpt>
<trkpt lat="48.734373" lon="11.020040">
<ele>448.0</ele>
<speed>0.4</speed>
<course>12.6</course>
<desc>Speed 0.4 km/h Distance 104 km</desc>
<time>2010-07-31T15:28:36.74</time>
<name>3362</name>
</trkpt>
<trkpt lat="48.734375" lon="11.020040">
<ele>448.0</ele>
<speed>0.4</speed>
<course>1.2</course>
<desc>Speed 0.4 km/h Distance 104 km</desc>
<time>2010-07-31T15:28:41.58</time>
<name>3363</name>
</trkpt>
<trkpt lat="48.734382" lon="11.020040">
<ele>449.0</ele>
<speed>0.4</speed>
<course>49.9</course>
<desc>Speed 0.4 km/h Distance 104 km</desc>
<time>2010-07-31T15:28:45.61</time>
<name>3364</name>
</trkpt>
<trkpt lat="48.734390" lon="11.020055">
<ele>449.0</ele>
<speed>0.4</speed>
<course>58.9</course>
<desc>Speed 0.4 km/h Distance 104 km</desc>
<time>2010-07-31T15:28:46.69</time>
<name>3365</name>
</trkpt>
<trkpt lat="48.734393" lon="11.020063">
<ele>448.5</ele>
<speed>1.1</speed>
<course>49.1</course>
<desc>Speed 1.1 km/h Distance 104 km</desc>
<time>2010-07-31T15:28:47.70</time>
<name>3366</name>
</trkpt>
<trkpt lat="48.734400" lon="11.020075">
<ele>448.0</ele>
<speed>0.6</speed>
<course>98.6</course>
<desc>Speed 0.6 km/h Distance 104 km</desc>
<time>2010-07-31T15:28:48.71</time>
<name>3367</name>
</trkpt>
<trkpt lat="48.734398" lon="11.020092">
<ele>447.5</ele>
<speed>4.0</speed>
<course>77.8</course>
<desc>Speed 4.0 km/h Distance 104 km</desc>
<time>2010-07-31T15:28:49.70</time>
<name>3368</name>
</trkpt>
<trkpt lat="48.734400" lon="11.020103">
<ele>449.5</ele>
<speed>2.3</speed>
<course>44.8</course>
<desc>Speed 2.3 km/h Distance 104 km</desc>
<time>2010-07-31T15:28:51.32</time>
<name>3369</name>
</trkpt>
<trkpt lat="48.734407" lon="11.020113">
<ele>449.0</ele>
<speed>0.4</speed>
<course>34.1</course>
<desc>Speed 0.4 km/h Distance 104 km</desc>
<time>2010-07-31T15:28:52.68</time>
<name>3370</name>
</trkpt>
<trkpt lat="48.734412" lon="11.020118">
<ele>450.5</ele>
<speed>0.3</speed>
<course>23.0</course>
<desc>Speed 0.3 km/h Distance 104 km</desc>
<time>2010-07-31T15:28:53.73</time>
<name>3371</name>
</trkpt>
<trkpt lat="48.734415" lon="11.020120">
<ele>450.5</ele>
<speed>0.5</speed>
<course>0.0</course>
<desc>Speed 0.5 km/h Distance 104 km</desc>
<time>2010-07-31T15:28:54.69</time>
<name>3372</name>
</trkpt>
<trkpt lat="48.734420" lon="11.020120">
<ele>450.5</ele>
<speed>0.5</speed>
<course>90.0</course>
<desc>Speed 0.5 km/h Distance 104 km</desc>
<time>2010-07-31T15:28:55.68</time>
<name>3373</name>
</trkpt>
<trkpt lat="48.734420" lon="11.020123">
<ele>451.5</ele>
<speed>0.4</speed>
<course>322.8</course>
<desc>Speed 0.4 km/h Distance 104 km</desc>
<time>2010-07-31T15:28:58.68</time>
<name>3374</name>
</trkpt>
<trkpt lat="48.734422" lon="11.020122">
<ele>451.5</ele>
<speed>0.5</speed>
<course>135.5</course>
<desc>Speed 0.5 km/h Distance 104 km</desc>
<time>2010-07-31T15:28:59.68</time>
<name>3375</name>
</trkpt>
<trkpt lat="48.734418" lon="11.020127">
<ele>451.0</ele>
<speed>7.8</speed>
<course>316.1</course>
<desc>Speed 7.8 km/h Distance 104 km</desc>
<time>2010-07-31T15:29:02.05</time>
<name>3376</name>
</trkpt>
<trkpt lat="48.734440" lon="11.020095">
<ele>450.5</ele>
<speed>1.9</speed>
<course>182.7</course>
<desc>Speed 1.9 km/h Distance 104 km</desc>
<time>2010-07-31T15:29:04.87</time>
<name>3377</name>
</trkpt>
<trkpt lat="48.734420" lon="11.020093">
<ele>448.5</ele>
<speed>1.0</speed>
<course>163.3</course>
<desc>Speed 1.0 km/h Distance 104 km</desc>
<time>2010-07-31T15:29:06.68</time>
<name>3378</name>
</trkpt>
<trkpt lat="48.734365" lon="11.020118">
<ele>443.5</ele>
<speed>0.2</speed>
<course>173.4</course>
<desc>Speed 0.2 km/h Distance 104 km</desc>
<time>2010-07-31T15:29:08.67</time>
<name>3379</name>
</trkpt>
<trkpt lat="48.734355" lon="11.020120">
<ele>443.5</ele>
<speed>0.4</speed>
<course>152.1</course>
<desc>Speed 0.4 km/h Distance 104 km</desc>
<time>2010-07-31T15:29:10.67</time>
<name>3380</name>
</trkpt>
<trkpt lat="48.734347" lon="11.020127">
<ele>444.0</ele>
<speed>0.4</speed>
<course>270.0</course>
<desc>Speed 0.4 km/h Distance 104 km</desc>
<time>2010-07-31T15:29:12.66</time>
<name>3381</name>
</trkpt>
<trkpt lat="48.734347" lon="11.020120">
<ele>444.0</ele>
<speed>0.4</speed>
<course>7.6</course>
<desc>Speed 0.4 km/h Distance 104 km</desc>
<time>2010-07-31T15:29:15.13</time>
<name>3382</name>
</trkpt>
<trkpt lat="48.734388" lon="11.020128">
<ele>443.5</ele>
<speed>6.0</speed>
<course>270.0</course>
<desc>Speed 6.0 km/h Distance 104 km</desc>
<time>2010-07-31T15:29:17.19</time>
<name>3383</name>
</trkpt>
<trkpt lat="48.734388" lon="11.020122">
<ele>442.5</ele>
<speed>0.5</speed>
<course>326.6</course>
<desc>Speed 0.5 km/h Distance 104 km</desc>
<time>2010-07-31T15:29:18.66</time>
<name>3384</name>
</trkpt>
<trkpt lat="48.734398" lon="11.020112">
<ele>442.0</ele>
<speed>1.4</speed>
<course>310.1</course>
<desc>Speed 1.4 km/h Distance 104 km</desc>
<time>2010-07-31T15:29:19.65</time>
<name>3385</name>
</trkpt>
<trkpt lat="48.734407" lon="11.020097">
<ele>440.0</ele>
<speed>0.6</speed>
<course>299.7</course>
<desc>Speed 0.6 km/h Distance 104 km</desc>
<time>2010-07-31T15:29:20.66</time>
<name>3386</name>
</trkpt>
<trkpt lat="48.734412" lon="11.020083">
<ele>438.0</ele>
<speed>0.5</speed>
<course>289.3</course>
<desc>Speed 0.5 km/h Distance 104 km</desc>
<time>2010-07-31T15:29:21.65</time>
<name>3387</name>
</trkpt>
<trkpt lat="48.734417" lon="11.020062">
<ele>434.5</ele>
<speed>1.2</speed>
<course>295.9</course>
<desc>Speed 1.2 km/h Distance 104 km</desc>
<time>2010-07-31T15:29:22.65</time>
<name>3388</name>
</trkpt>
<trkpt lat="48.734418" lon="11.020057">
<ele>434.0</ele>
<speed>0.3</speed>
<course>146.3</course>
<desc>Speed 0.3 km/h Distance 104 km</desc>
<time>2010-07-31T15:29:23.65</time>
<name>3389</name>
</trkpt>
<trkpt lat="48.734415" lon="11.020060">
<ele>435.0</ele>
<speed>1.5</speed>
<course>90.0</course>
<desc>Speed 1.5 km/h Distance 104 km</desc>
<time>2010-07-31T15:29:24.65</time>
<name>3390</name>
</trkpt>
<trkpt lat="48.734415" lon="11.020062">
<ele>435.5</ele>
<speed>0.5</speed>
<course>217.2</course>
<desc>Speed 0.5 km/h Distance 104 km</desc>
<time>2010-07-31T15:29:25.65</time>
<name>3391</name>
</trkpt>
<trkpt lat="48.734413" lon="11.020060">
<ele>435.5</ele>
<speed>0.6</speed>
<course>213.7</course>
<desc>Speed 0.6 km/h Distance 104 km</desc>
<time>2010-07-31T15:29:26.65</time>
<name>3392</name>
</trkpt>
<trkpt lat="48.734410" lon="11.020057">
<ele>435.5</ele>
<speed>0.6</speed>
<course>209.2</course>
<desc>Speed 0.6 km/h Distance 104 km</desc>
<time>2010-07-31T15:29:27.66</time>
<name>3393</name>
</trkpt>
<trkpt lat="48.734408" lon="11.020055">
<ele>435.5</ele>
<speed>0.1</speed>
<course>220.9</course>
<desc>Speed 0.1 km/h Distance 104 km</desc>
<time>2010-07-31T15:29:28.64</time>
<name>3394</name>
</trkpt>
<trkpt lat="48.734403" lon="11.020048">
<ele>434.5</ele>
<speed>1.1</speed>
<course>213.7</course>
<desc>Speed 1.1 km/h Distance 104 km</desc>
<time>2010-07-31T15:29:29.64</time>
<name>3395</name>
</trkpt>
<trkpt lat="48.734400" lon="11.020045">
<ele>434.5</ele>
<speed>0.3</speed>
<course>202.2</course>
<desc>Speed 0.3 km/h Distance 104 km</desc>
<time>2010-07-31T15:29:30.63</time>
<name>3396</name>
</trkpt>
<trkpt lat="48.734395" lon="11.020042">
<ele>434.0</ele>
<speed>0.9</speed>
<course>40.9</course>
<desc>Speed 0.9 km/h Distance 104 km</desc>
<time>2010-07-31T15:29:31.63</time>
<name>3397</name>
</trkpt>
<trkpt lat="48.734400" lon="11.020048">
<ele>436.5</ele>
<speed>0.4</speed>
<course>39.7</course>
<desc>Speed 0.4 km/h Distance 104 km</desc>
<time>2010-07-31T15:29:32.63</time>
<name>3398</name>
</trkpt>
<trkpt lat="48.734407" lon="11.020057">
<ele>439.5</ele>
<speed>0.1</speed>
<course>270.0</course>
<desc>Speed 0.1 km/h Distance 104 km</desc>
<time>2010-07-31T15:29:33.63</time>
<name>3399</name>
</trkpt>
<trkpt lat="48.734407" lon="11.020055">
<ele>439.5</ele>
<speed>0.4</speed>
<course>217.2</course>
<desc>Speed 0.4 km/h Distance 104 km</desc>
<time>2010-07-31T15:29:34.62</time>
<name>3400</name>
</trkpt>
<trkpt lat="48.734405" lon="11.020053">
<ele>439.5</ele>
<speed>0.4</speed>
<course>224.5</course>
<desc>Speed 0.4 km/h Distance 104 km</desc>
<time>2010-07-31T15:29:35.62</time>
<name>3401</name>
</trkpt>
<trkpt lat="48.734402" lon="11.020048">
<ele>438.5</ele>
<speed>0.3</speed>
<course>231.9</course>
<desc>Speed 0.3 km/h Distance 104 km</desc>
<time>2010-07-31T15:29:36.62</time>
<name>3402</name>
</trkpt>
<trkpt lat="48.734400" lon="11.020045">
<ele>438.0</ele>
<speed>0.1</speed>
<course>270.0</course>
<desc>Speed 0.1 km/h Distance 104 km</desc>
<time>2010-07-31T15:29:37.62</time>
<name>3403</name>
</trkpt>
<trkpt lat="48.734400" lon="11.020042">
<ele>437.5</ele>
<speed>0.1</speed>
<course>242.6</course>
<desc>Speed 0.1 km/h Distance 104 km</desc>
<time>2010-07-31T15:29:38.61</time>
<name>3404</name>
</trkpt>
<trkpt lat="48.734398" lon="11.020037">
<ele>437.0</ele>
<speed>0.0</speed>
<course>270.0</course>
<desc>Speed 0.0 km/h Distance 104 km</desc>
<time>2010-07-31T15:29:39.61</time>
<name>3405</name>
</trkpt>
<trkpt lat="48.734398" lon="11.020033">
<ele>437.0</ele>
<speed>0.8</speed>
<course>297.4</course>
<desc>Speed 0.8 km/h Distance 104 km</desc>
<time>2010-07-31T15:29:40.61</time>
<name>3406</name>
</trkpt>
<trkpt lat="48.734400" lon="11.020028">
<ele>436.0</ele>
<speed>0.5</speed>
<course>209.2</course>
<desc>Speed 0.5 km/h Distance 104 km</desc>
<time>2010-07-31T15:29:41.60</time>
<name>3407</name>
</trkpt>
<trkpt lat="48.734398" lon="11.020027">
<ele>435.5</ele>
<speed>0.3</speed>
<course>167.4</course>
<desc>Speed 0.3 km/h Distance 104 km</desc>
<time>2010-07-31T15:29:42.60</time>
<name>3408</name>
</trkpt>
<trkpt lat="48.734397" lon="11.020027">
<ele>435.5</ele>
<speed>0.6</speed>
<course>167.4</course>
<desc>Speed 0.6 km/h Distance 104 km</desc>
<time>2010-07-31T15:29:43.60</time>
<name>3409</name>
</trkpt>
<trkpt lat="48.734395" lon="11.020027">
<ele>435.5</ele>
<speed>0.4</speed>
<course>180.0</course>
<desc>Speed 0.4 km/h Distance 104 km</desc>
<time>2010-07-31T15:29:44.60</time>
<name>3410</name>
</trkpt>
<trkpt lat="48.734392" lon="11.020027">
<ele>436.0</ele>
<speed>0.3</speed>
<course>270.0</course>
<desc>Speed 0.3 km/h Distance 104 km</desc>
<time>2010-07-31T15:29:45.60</time>
<name>3411</name>
</trkpt>
<trkpt lat="48.734392" lon="11.020025">
<ele>435.5</ele>
<speed>0.3</speed>
<course>290.9</course>
<desc>Speed 0.3 km/h Distance 104 km</desc>
<time>2010-07-31T15:29:46.60</time>
<name>3412</name>
</trkpt>
<trkpt lat="48.734393" lon="11.020018">
<ele>436.0</ele>
<speed>1.6</speed>
<course>319.1</course>
<desc>Speed 1.6 km/h Distance 104 km</desc>
<time>2010-07-31T15:29:47.60</time>
<name>3413</name>
</trkpt>
<trkpt lat="48.734398" lon="11.020012">
<ele>436.0</ele>
<speed>2.6</speed>
<course>158.5</course>
<desc>Speed 2.6 km/h Distance 104 km</desc>
<time>2010-07-31T15:29:48.60</time>
<name>3414</name>
</trkpt>
<trkpt lat="48.734390" lon="11.020017">
<ele>436.0</ele>
<speed>2.8</speed>
<course>146.3</course>
<desc>Speed 2.8 km/h Distance 104 km</desc>
<time>2010-07-31T15:29:49.59</time>
<name>3415</name>
</trkpt>
<trkpt lat="48.734387" lon="11.020020">
<ele>436.0</ele>
<speed>1.4</speed>
<course>146.2</course>
<desc>Speed 1.4 km/h Distance 104 km</desc>
<time>2010-07-31T15:29:50.59</time>
<name>3416</name>
</trkpt>
<trkpt lat="48.734378" lon="11.020028">
<ele>436.0</ele>
<speed>4.0</speed>
<course>334.6</course>
<desc>Speed 4.0 km/h Distance 104 km</desc>
<time>2010-07-31T15:29:51.58</time>
<name>3417</name>
</trkpt>
<trkpt lat="48.734383" lon="11.020025">
<ele>436.0</ele>
<speed>2.2</speed>
<course>12.6</course>
<desc>Speed 2.2 km/h Distance 104 km</desc>
<time>2010-07-31T15:29:52.59</time>
<name>3418</name>
</trkpt>
<trkpt lat="48.734385" lon="11.020025">
<ele>436.0</ele>
<speed>2.2</speed>
<course>90.0</course>
<desc>Speed 2.2 km/h Distance 104 km</desc>
<time>2010-07-31T15:29:53.58</time>
<name>3419</name>
</trkpt>
<trkpt lat="48.734385" lon="11.020028">
<ele>436.0</ele>
<speed>2.2</speed>
<course>90.0</course>
<desc>Speed 2.2 km/h Distance 104 km</desc>
<time>2010-07-31T15:29:54.58</time>
<name>3420</name>
</trkpt>
<trkpt lat="48.734385" lon="11.020038">
<ele>435.5</ele>
<speed>2.1</speed>
<course>42.2</course>
<desc>Speed 2.1 km/h Distance 104 km</desc>
<time>2010-07-31T15:29:55.58</time>
<name>3421</name>
</trkpt>
<trkpt lat="48.734398" lon="11.020057">
<ele>435.5</ele>
<speed>5.4</speed>
<course>153.6</course>
<desc>Speed 5.4 km/h Distance 104 km</desc>
<time>2010-07-31T15:29:56.58</time>
<name>3422</name>
</trkpt>
<trkpt lat="48.734392" lon="11.020062">
<ele>434.5</ele>
<speed>0.3</speed>
<course>142.8</course>
<desc>Speed 0.3 km/h Distance 104 km</desc>
<time>2010-07-31T15:29:57.57</time>
<name>3423</name>
</trkpt>
<trkpt lat="48.734390" lon="11.020063">
<ele>434.5</ele>
<speed>1.8</speed>
<course>224.5</course>
<desc>Speed 1.8 km/h Distance 104 km</desc>
<time>2010-07-31T15:29:58.57</time>
<name>3424</name>
</trkpt>
<trkpt lat="48.734387" lon="11.020058">
<ele>434.0</ele>
<speed>0.3</speed>
<course>217.2</course>
<desc>Speed 0.3 km/h Distance 104 km</desc>
<time>2010-07-31T15:29:59.56</time>
<name>3425</name>
</trkpt>
<trkpt lat="48.734385" lon="11.020057">
<ele>433.0</ele>
<speed>0.4</speed>
<course>190.2</course>
<desc>Speed 0.4 km/h Distance 104 km</desc>
<time>2010-07-31T15:30:00.56</time>
<name>3426</name>
</trkpt>
<trkpt lat="48.734367" lon="11.020052">
<ele>432.5</ele>
<speed>1.4</speed>
<course>142.8</course>
<desc>Speed 1.4 km/h Distance 104 km</desc>
<time>2010-07-31T15:30:01.56</time>
<name>3427</name>
</trkpt>
<trkpt lat="48.734365" lon="11.020053">
<ele>432.0</ele>
<speed>1.4</speed>
<course>187.4</course>
<desc>Speed 1.4 km/h Distance 104 km</desc>
<time>2010-07-31T15:30:02.55</time>
<name>3428</name>
</trkpt>
<trkpt lat="48.734358" lon="11.020052">
<ele>432.0</ele>
<speed>2.3</speed>
<course>332.1</course>
<desc>Speed 2.3 km/h Distance 104 km</desc>
<time>2010-07-31T15:30:03.55</time>
<name>3429</name>
</trkpt>
<trkpt lat="48.734367" lon="11.020045">
<ele>431.5</ele>
<speed>0.8</speed>
<course>6.3</course>
<desc>Speed 0.8 km/h Distance 104 km</desc>
<time>2010-07-31T15:30:04.55</time>
<name>3430</name>
</trkpt>
<trkpt lat="48.734378" lon="11.020047">
<ele>431.0</ele>
<speed>7.3</speed>
<course>16.2</course>
<desc>Speed 7.3 km/h Distance 104 km</desc>
<time>2010-07-31T15:30:06.64</time>
<name>3431</name>
</trkpt>
<trkpt lat="48.734405" lon="11.020058">
<ele>431.5</ele>
<speed>7.3</speed>
<course>37.2</course>
<desc>Speed 7.3 km/h Distance 104 km</desc>
<time>2010-07-31T15:30:07.53</time>
<name>3432</name>
</trkpt>
<trkpt lat="48.734407" lon="11.020060">
<ele>431.5</ele>
<speed>7.3</speed>
<course>213.4</course>
<desc>Speed 7.3 km/h Distance 104 km</desc>
<time>2010-07-31T15:30:08.53</time>
<name>3433</name>
</trkpt>
<trkpt lat="48.734388" lon="11.020042">
<ele>429.5</ele>
<speed>7.3</speed>
<course>175.3</course>
<desc>Speed 7.3 km/h Distance 104 km</desc>
<time>2010-07-31T15:30:09.52</time>
<name>3434</name>
</trkpt>
<trkpt lat="48.734377" lon="11.020042">
<ele>429.0</ele>
<speed>1.6</speed>
<course>203.0</course>
<desc>Speed 1.6 km/h Distance 104 km</desc>
<time>2010-07-31T15:30:10.52</time>
<name>3435</name>
</trkpt>
<trkpt lat="48.734373" lon="11.020040">
<ele>428.5</ele>
<speed>1.6</speed>
<course>150.8</course>
<desc>Speed 1.6 km/h Distance 104 km</desc>
<time>2010-07-31T15:30:11.52</time>
<name>3436</name>
</trkpt>
<trkpt lat="48.734372" lon="11.020042">
<ele>428.5</ele>
<speed>1.6</speed>
<course>270.0</course>
<desc>Speed 1.6 km/h Distance 104 km</desc>
<time>2010-07-31T15:30:12.51</time>
<name>3437</name>
</trkpt>
<trkpt lat="48.734372" lon="11.020040">
<ele>428.5</ele>
<speed>1.6</speed>
<course>290.9</course>
<desc>Speed 1.6 km/h Distance 104 km</desc>
<time>2010-07-31T15:30:13.51</time>
<name>3438</name>
</trkpt>
<trkpt lat="48.734373" lon="11.020033">
<ele>428.5</ele>
<speed>0.3</speed>
<course>73.1</course>
<desc>Speed 0.3 km/h Distance 104 km</desc>
<time>2010-07-31T15:30:14.50</time>
<name>3439</name>
</trkpt>
<trkpt lat="48.734375" lon="11.020042">
<ele>428.5</ele>
<speed>1.4</speed>
<course>51.9</course>
<desc>Speed 1.4 km/h Distance 104 km</desc>
<time>2010-07-31T15:30:15.50</time>
<name>3440</name>
</trkpt>
<trkpt lat="48.734377" lon="11.020045">
<ele>429.5</ele>
<speed>0.9</speed>
<course>270.0</course>
<desc>Speed 0.9 km/h Distance 104 km</desc>
<time>2010-07-31T15:30:16.50</time>
<name>3441</name>
</trkpt>
<trkpt lat="48.734377" lon="11.020043">
<ele>430.5</ele>
<speed>0.1</speed>
<course>217.2</course>
<desc>Speed 0.1 km/h Distance 104 km</desc>
<time>2010-07-31T15:30:17.49</time>
<name>3442</name>
</trkpt>
<trkpt lat="48.734375" lon="11.020042">
<ele>431.0</ele>
<speed>0.3</speed>
<course>167.4</course>
<desc>Speed 0.3 km/h Distance 104 km</desc>
<time>2010-07-31T15:30:18.49</time>
<name>3443</name>
</trkpt>
<trkpt lat="48.734373" lon="11.020042">
<ele>432.0</ele>
<speed>0.4</speed>
<course>167.4</course>
<desc>Speed 0.4 km/h Distance 104 km</desc>
<time>2010-07-31T15:30:19.49</time>
<name>3444</name>
</trkpt>
<trkpt lat="48.734370" lon="11.020042">
<ele>432.5</ele>
<speed>2.0</speed>
<course>168.8</course>
<desc>Speed 2.0 km/h Distance 104 km</desc>
<time>2010-07-31T15:30:20.48</time>
<name>3445</name>
</trkpt>
<trkpt lat="48.734353" lon="11.020047">
<ele>432.0</ele>
<speed>6.0</speed>
<course>206.4</course>
<desc>Speed 6.0 km/h Distance 104 km</desc>
<time>2010-07-31T15:30:21.48</time>
<name>3446</name>
</trkpt>
<trkpt lat="48.734347" lon="11.020042">
<ele>433.0</ele>
<speed>2.8</speed>
<course>213.7</course>
<desc>Speed 2.8 km/h Distance 104 km</desc>
<time>2010-07-31T15:30:22.47</time>
<name>3447</name>
</trkpt>
<trkpt lat="48.734340" lon="11.020035">
<ele>434.0</ele>
<speed>3.5</speed>
<course>290.7</course>
<desc>Speed 3.5 km/h Distance 104 km</desc>
<time>2010-07-31T15:30:23.47</time>
<name>3448</name>
</trkpt>
<trkpt lat="48.734343" lon="11.020022">
<ele>433.0</ele>
<speed>2.5</speed>
<course>142.8</course>
<desc>Speed 2.5 km/h Distance 104 km</desc>
<time>2010-07-31T15:30:24.47</time>
<name>3449</name>
</trkpt>
<trkpt lat="48.734342" lon="11.020023">
<ele>433.5</ele>
<speed>0.4</speed>
<course>296.6</course>
<desc>Speed 0.4 km/h Distance 104 km</desc>
<time>2010-07-31T15:30:25.46</time>
<name>3450</name>
</trkpt>
<trkpt lat="48.734343" lon="11.020018">
<ele>433.5</ele>
<speed>1.0</speed>
<course>284.2</course>
<desc>Speed 1.0 km/h Distance 104 km</desc>
<time>2010-07-31T15:30:26.46</time>
<name>3451</name>
</trkpt>
<trkpt lat="48.734345" lon="11.020008">
<ele>433.5</ele>
<speed>0.9</speed>
<course>51.9</course>
<desc>Speed 0.9 km/h Distance 104 km</desc>
<time>2010-07-31T15:30:27.47</time>
<name>3452</name>
</trkpt>
<trkpt lat="48.734347" lon="11.020012">
<ele>434.0</ele>
<speed>0.8</speed>
<course>37.2</course>
<desc>Speed 0.8 km/h Distance 104 km</desc>
<time>2010-07-31T15:30:28.45</time>
<name>3453</name>
</trkpt>
<trkpt lat="48.734348" lon="11.020013">
<ele>434.5</ele>
<speed>1.2</speed>
<course>270.0</course>
<desc>Speed 1.2 km/h Distance 104 km</desc>
<time>2010-07-31T15:30:29.44</time>
<name>3454</name>
</trkpt>
<trkpt lat="48.734348" lon="11.020002">
<ele>435.0</ele>
<speed>0.3</speed>
<course>44.5</course>
<desc>Speed 0.3 km/h Distance 104 km</desc>
<time>2010-07-31T15:30:31.44</time>
<name>3455</name>
</trkpt>
<trkpt lat="48.734355" lon="11.020012">
<ele>437.5</ele>
<speed>2.1</speed>
<course>330.8</course>
<desc>Speed 2.1 km/h Distance 104 km</desc>
<time>2010-07-31T15:30:33.43</time>
<name>3456</name>
</trkpt>
<trkpt lat="48.734357" lon="11.020010">
<ele>438.0</ele>
<speed>0.8</speed>
<course>308.1</course>
<desc>Speed 0.8 km/h Distance 104 km</desc>
<time>2010-07-31T15:30:34.42</time>
<name>3457</name>
</trkpt>
<trkpt lat="48.734358" lon="11.020007">
<ele>438.0</ele>
<speed>0.6</speed>
<course>12.6</course>
<desc>Speed 0.6 km/h Distance 104 km</desc>
<time>2010-07-31T15:30:35.42</time>
<name>3458</name>
</trkpt>
<trkpt lat="48.734360" lon="11.020007">
<ele>438.5</ele>
<speed>0.5</speed>
<course>217.2</course>
<desc>Speed 0.5 km/h Distance 104 km</desc>
<time>2010-07-31T15:30:36.42</time>
<name>3459</name>
</trkpt>
<trkpt lat="48.734358" lon="11.020005">
<ele>439.0</ele>
<speed>1.1</speed>
<course>232.4</course>
<desc>Speed 1.1 km/h Distance 104 km</desc>
<time>2010-07-31T15:30:37.41</time>
<name>3460</name>
</trkpt>
<trkpt lat="48.734355" lon="11.019998">
<ele>437.5</ele>
<speed>2.3</speed>
<course>308.1</course>
<desc>Speed 2.3 km/h Distance 104 km</desc>
<time>2010-07-31T15:30:38.41</time>
<name>3461</name>
</trkpt>
<trkpt lat="48.734357" lon="11.019995">
<ele>438.5</ele>
<speed>0.9</speed>
<course>341.2</course>
<desc>Speed 0.9 km/h Distance 104 km</desc>
<time>2010-07-31T15:30:39.40</time>
<name>3462</name>
</trkpt>
<trkpt lat="48.734360" lon="11.019993">
<ele>438.5</ele>
<speed>1.2</speed>
<course>12.6</course>
<desc>Speed 1.2 km/h Distance 104 km</desc>
<time>2010-07-31T15:30:40.39</time>
<name>3463</name>
</trkpt>
<trkpt lat="48.734365" lon="11.019995">
<ele>439.0</ele>
<speed>1.7</speed>
<course>53.9</course>
<desc>Speed 1.7 km/h Distance 104 km</desc>
<time>2010-07-31T15:30:41.40</time>
<name>3464</name>
</trkpt>
<trkpt lat="48.734367" lon="11.019998">
<ele>439.0</ele>
<speed>1.7</speed>
<course>187.7</course>
<desc>Speed 1.7 km/h Distance 104 km</desc>
<time>2010-07-31T15:30:42.39</time>
<name>3465</name>
</trkpt>
<trkpt lat="48.734358" lon="11.019997">
<ele>438.0</ele>
<speed>1.5</speed>
<course>333.6</course>
<desc>Speed 1.5 km/h Distance 104 km</desc>
<time>2010-07-31T15:30:43.39</time>
<name>3466</name>
</trkpt>
<trkpt lat="48.734365" lon="11.019992">
<ele>437.5</ele>
<speed>3.7</speed>
<course>334.3</course>
<desc>Speed 3.7 km/h Distance 104 km</desc>
<time>2010-07-31T15:30:44.39</time>
<name>3467</name>
</trkpt>
<trkpt lat="48.734383" lon="11.019978">
<ele>437.5</ele>
<speed>8.4</speed>
<course>339.4</course>
<desc>Speed 8.4 km/h Distance 104 km</desc>
<time>2010-07-31T15:30:45.38</time>
<name>3468</name>
</trkpt>
<trkpt lat="48.734395" lon="11.019972">
<ele>437.5</ele>
<speed>6.0</speed>
<course>153.1</course>
<desc>Speed 6.0 km/h Distance 104 km</desc>
<time>2010-07-31T15:30:46.39</time>
<name>3469</name>
</trkpt>
<trkpt lat="48.734373" lon="11.019988">
<ele>438.5</ele>
<speed>0.1</speed>
<course>150.0</course>
<desc>Speed 0.1 km/h Distance 104 km</desc>
<time>2010-07-31T15:30:47.37</time>
<name>3470</name>
</trkpt>
<trkpt lat="48.734360" lon="11.020000">
<ele>437.0</ele>
<speed>1.7</speed>
<course>156.2</course>
<desc>Speed 1.7 km/h Distance 104 km</desc>
<time>2010-07-31T15:30:48.37</time>
<name>3471</name>
</trkpt>
<trkpt lat="48.734355" lon="11.020003">
<ele>437.0</ele>
<speed>0.3</speed>
<course>180.0</course>
<desc>Speed 0.3 km/h Distance 104 km</desc>
<time>2010-07-31T15:30:49.37</time>
<name>3472</name>
</trkpt>
<trkpt lat="48.734352" lon="11.020003">
<ele>437.0</ele>
<speed>0.2</speed>
<course>203.0</course>
<desc>Speed 0.2 km/h Distance 104 km</desc>
<time>2010-07-31T15:30:50.37</time>
<name>3473</name>
</trkpt>
<trkpt lat="48.734348" lon="11.020002">
<ele>436.5</ele>
<speed>0.2</speed>
<course>203.0</course>
<desc>Speed 0.2 km/h Distance 104 km</desc>
<time>2010-07-31T15:30:51.37</time>
<name>3474</name>
</trkpt>
<trkpt lat="48.734345" lon="11.020000">
<ele>436.5</ele>
<speed>0.1</speed>
<course>153.6</course>
<desc>Speed 0.1 km/h Distance 104 km</desc>
<time>2010-07-31T15:30:52.36</time>
<name>3475</name>
</trkpt>
<trkpt lat="48.734338" lon="11.020005">
<ele>434.5</ele>
<speed>1.4</speed>
<course>150.8</course>
<desc>Speed 1.4 km/h Distance 104 km</desc>
<time>2010-07-31T15:30:53.37</time>
<name>3476</name>
</trkpt>
<trkpt lat="48.734337" lon="11.020007">
<ele>434.5</ele>
<speed>0.1</speed>
<course>128.1</course>
<desc>Speed 0.1 km/h Distance 104 km</desc>
<time>2010-07-31T15:30:54.36</time>
<name>3477</name>
</trkpt>
<trkpt lat="48.734335" lon="11.020010">
<ele>435.0</ele>
<speed>0.1</speed>
<course>167.4</course>
<desc>Speed 0.1 km/h Distance 104 km</desc>
<time>2010-07-31T15:30:55.36</time>
<name>3478</name>
</trkpt>
<trkpt lat="48.734333" lon="11.020012">
<ele>435.0</ele>
<speed>0.2</speed>
<course>167.4</course>
<desc>Speed 0.2 km/h Distance 104 km</desc>
<time>2010-07-31T15:30:56.35</time>
<name>3479</name>
</trkpt>
<trkpt lat="48.734330" lon="11.020013">
<ele>435.0</ele>
<speed>0.1</speed>
<course>142.8</course>
<desc>Speed 0.1 km/h Distance 104 km</desc>
<time>2010-07-31T15:30:57.35</time>
<name>3480</name>
</trkpt>
<trkpt lat="48.734328" lon="11.020015">
<ele>435.0</ele>
<speed>0.1</speed>
<course>167.4</course>
<desc>Speed 0.1 km/h Distance 104 km</desc>
<time>2010-07-31T15:30:58.34</time>
<name>3481</name>
</trkpt>
<trkpt lat="48.734327" lon="11.020015">
<ele>435.5</ele>
<speed>0.3</speed>
<course>167.4</course>
<desc>Speed 0.3 km/h Distance 104 km</desc>
<time>2010-07-31T15:30:59.34</time>
<name>3482</name>
</trkpt>
<trkpt lat="48.734325" lon="11.020015">
<ele>435.5</ele>
<speed>0.6</speed>
<course>167.4</course>
<desc>Speed 0.6 km/h Distance 104 km</desc>
<time>2010-07-31T15:31:00.34</time>
<name>3483</name>
</trkpt>
<trkpt lat="48.734325" lon="11.020015">
<ele>436.0</ele>
<speed>0.4</speed>
<course>167.4</course>
<desc>Speed 0.4 km/h Distance 104 km</desc>
<time>2010-07-31T15:31:01.34</time>
<name>3484</name>
</trkpt>
<trkpt lat="48.734323" lon="11.020015">
<ele>435.5</ele>
<speed>0.3</speed>
<course>167.4</course>
<desc>Speed 0.3 km/h Distance 104 km</desc>
<time>2010-07-31T15:31:02.33</time>
<name>3485</name>
</trkpt>
<trkpt lat="48.734323" lon="11.020015">
<ele>435.5</ele>
<speed>0.1</speed>
<course>167.4</course>
<desc>Speed 0.1 km/h Distance 104 km</desc>
<time>2010-07-31T15:31:03.33</time>
<name>3486</name>
</trkpt>
<trkpt lat="48.734323" lon="11.020015">
<ele>435.5</ele>
<speed>0.2</speed>
<course>167.4</course>
<desc>Speed 0.2 km/h Distance 104 km</desc>
<time>2010-07-31T15:31:04.32</time>
<name>3487</name>
</trkpt>
<trkpt lat="48.734323" lon="11.020015">
<ele>435.0</ele>
<speed>0.3</speed>
<course>167.4</course>
<desc>Speed 0.3 km/h Distance 104 km</desc>
<time>2010-07-31T15:31:05.32</time>
<name>3488</name>
</trkpt>
<trkpt lat="48.734323" lon="11.020015">
<ele>435.5</ele>
<speed>0.3</speed>
<course>270.0</course>
<desc>Speed 0.3 km/h Distance 104 km</desc>
<time>2010-07-31T15:31:06.32</time>
<name>3489</name>
</trkpt>
<trkpt lat="48.734323" lon="11.020013">
<ele>435.5</ele>
<speed>0.4</speed>
<course>12.6</course>
<desc>Speed 0.4 km/h Distance 104 km</desc>
<time>2010-07-31T15:31:07.32</time>
<name>3490</name>
</trkpt>
<trkpt lat="48.734325" lon="11.020013">
<ele>436.0</ele>
<speed>0.1</speed>
<course>307.6</course>
<desc>Speed 0.1 km/h Distance 104 km</desc>
<time>2010-07-31T15:31:08.31</time>
<name>3491</name>
</trkpt>
<trkpt lat="48.734328" lon="11.020007">
<ele>439.0</ele>
<speed>0.9</speed>
<course>307.6</course>
<desc>Speed 0.9 km/h Distance 104 km</desc>
<time>2010-07-31T15:31:09.31</time>
<name>3492</name>
</trkpt>
<trkpt lat="48.734328" lon="11.020007">
<ele>439.0</ele>
<speed>0.2</speed>
<course>307.6</course>
<desc>Speed 0.2 km/h Distance 104 km</desc>
<time>2010-07-31T15:31:10.31</time>
<name>3493</name>
</trkpt>
<trkpt lat="48.734328" lon="11.020007">
<ele>439.0</ele>
<speed>0.3</speed>
<course>337.8</course>
<desc>Speed 0.3 km/h Distance 104 km</desc>
<time>2010-07-31T15:31:11.30</time>
<name>3494</name>
</trkpt>
<trkpt lat="48.734333" lon="11.020003">
<ele>438.5</ele>
<speed>1.9</speed>
<course>167.4</course>
<desc>Speed 1.9 km/h Distance 104 km</desc>
<time>2010-07-31T15:31:12.30</time>
<name>3495</name>
</trkpt>
<trkpt lat="48.734330" lon="11.020005">
<ele>438.5</ele>
<speed>0.6</speed>
<course>128.1</course>
<desc>Speed 0.6 km/h Distance 104 km</desc>
<time>2010-07-31T15:31:13.29</time>
<name>3496</name>
</trkpt>
<trkpt lat="48.734328" lon="11.020008">
<ele>438.0</ele>
<speed>1.7</speed>
<course>341.2</course>
<desc>Speed 1.7 km/h Distance 104 km</desc>
<time>2010-07-31T15:31:14.29</time>
<name>3497</name>
</trkpt>
<trkpt lat="48.734332" lon="11.020007">
<ele>437.5</ele>
<speed>0.4</speed>
<course>341.2</course>
<desc>Speed 0.4 km/h Distance 104 km</desc>
<time>2010-07-31T15:31:15.28</time>
<name>3498</name>
</trkpt>
<trkpt lat="48.734335" lon="11.020005">
<ele>436.5</ele>
<speed>0.1</speed>
<course>90.0</course>
<desc>Speed 0.1 km/h Distance 104 km</desc>
<time>2010-07-31T15:31:16.28</time>
<name>3499</name>
</trkpt>
<trkpt lat="48.734335" lon="11.020008">
<ele>435.5</ele>
<speed>0.7</speed>
<course>347.4</course>
<desc>Speed 0.7 km/h Distance 104 km</desc>
<time>2010-07-31T15:31:17.28</time>
<name>3500</name>
</trkpt>
<trkpt lat="48.734340" lon="11.020007">
<ele>435.0</ele>
<speed>1.9</speed>
<course>90.0</course>
<desc>Speed 1.9 km/h Distance 104 km</desc>
<time>2010-07-31T15:31:18.28</time>
<name>3501</name>
</trkpt>
<trkpt lat="48.734340" lon="11.020020">
<ele>435.0</ele>
<speed>3.4</speed>
<course>134.5</course>
<desc>Speed 3.4 km/h Distance 104 km</desc>
<time>2010-07-31T15:31:19.27</time>
<name>3502</name>
</trkpt>
<trkpt lat="48.734337" lon="11.020025">
<ele>435.0</ele>
<speed>1.0</speed>
<course>330.8</course>
<desc>Speed 1.0 km/h Distance 104 km</desc>
<time>2010-07-31T15:31:20.27</time>
<name>3503</name>
</trkpt>
<trkpt lat="48.734338" lon="11.020023">
<ele>434.5</ele>
<speed>0.2</speed>
<course>270.0</course>
<desc>Speed 0.2 km/h Distance 104 km</desc>
<time>2010-07-31T15:31:21.27</time>
<name>3504</name>
</trkpt>
<trkpt lat="48.734338" lon="11.020018">
<ele>434.5</ele>
<speed>0.6</speed>
<course>238.6</course>
<desc>Speed 0.6 km/h Distance 104 km</desc>
<time>2010-07-31T15:31:22.27</time>
<name>3505</name>
</trkpt>
<trkpt lat="48.734335" lon="11.020010">
<ele>434.5</ele>
<speed>1.3</speed>
<course>135.5</course>
<desc>Speed 1.3 km/h Distance 104 km</desc>
<time>2010-07-31T15:31:23.26</time>
<name>3506</name>
</trkpt>
<trkpt lat="48.734332" lon="11.020015">
<ele>434.5</ele>
<speed>2.2</speed>
<course>260.4</course>
<desc>Speed 2.2 km/h Distance 104 km</desc>
<time>2010-07-31T15:31:24.26</time>
<name>3507</name>
</trkpt>
<trkpt lat="48.734330" lon="11.020000">
<ele>433.0</ele>
<speed>4.0</speed>
<course>157.8</course>
<desc>Speed 4.0 km/h Distance 104 km</desc>
<time>2010-07-31T15:31:25.26</time>
<name>3508</name>
</trkpt>
<trkpt lat="48.734325" lon="11.020003">
<ele>432.5</ele>
<speed>3.5</speed>
<course>249.1</course>
<desc>Speed 3.5 km/h Distance 104 km</desc>
<time>2010-07-31T15:31:26.25</time>
<name>3509</name>
</trkpt>
<trkpt lat="48.734323" lon="11.019997">
<ele>433.5</ele>
<speed>1.0</speed>
<course>270.0</course>
<desc>Speed 1.0 km/h Distance 104 km</desc>
<time>2010-07-31T15:31:27.26</time>
<name>3510</name>
</trkpt>
<trkpt lat="48.734323" lon="11.019990">
<ele>434.5</ele>
<speed>0.5</speed>
<course>213.4</course>
<desc>Speed 0.5 km/h Distance 104 km</desc>
<time>2010-07-31T15:31:28.24</time>
<name>3511</name>
</trkpt>
<trkpt lat="48.734293" lon="11.019960">
<ele>433.5</ele>
<speed>3.5</speed>
<course>270.0</course>
<desc>Speed 3.5 km/h Distance 104 km</desc>
<time>2010-07-31T15:31:30.24</time>
<name>3512</name>
</trkpt>
<trkpt lat="48.734293" lon="11.019957">
<ele>434.0</ele>
<speed>0.3</speed>
<course>17.5</course>
<desc>Speed 0.3 km/h Distance 104 km</desc>
<time>2010-07-31T15:31:31.23</time>
<name>3513</name>
</trkpt>
<trkpt lat="48.734300" lon="11.019960">
<ele>434.0</ele>
<speed>0.2</speed>
<course>0.0</course>
<desc>Speed 0.2 km/h Distance 104 km</desc>
<time>2010-07-31T15:31:32.23</time>
<name>3514</name>
</trkpt>
<trkpt lat="48.734305" lon="11.019960">
<ele>434.5</ele>
<speed>0.1</speed>
<course>10.4</course>
<desc>Speed 0.1 km/h Distance 104 km</desc>
<time>2010-07-31T15:31:33.23</time>
<name>3515</name>
</trkpt>
<trkpt lat="48.734317" lon="11.019963">
<ele>435.0</ele>
<speed>0.9</speed>
<course>16.0</course>
<desc>Speed 0.9 km/h Distance 104 km</desc>
<time>2010-07-31T15:31:34.22</time>
<name>3516</name>
</trkpt>
<trkpt lat="48.734328" lon="11.019968">
<ele>435.5</ele>
<speed>2.1</speed>
<course>5.0</course>
<desc>Speed 2.1 km/h Distance 104 km</desc>
<time>2010-07-31T15:31:35.22</time>
<name>3517</name>
</trkpt>
<trkpt lat="48.734337" lon="11.019968">
<ele>436.0</ele>
<speed>0.7</speed>
<course>7.4</course>
<desc>Speed 0.7 km/h Distance 104 km</desc>
<time>2010-07-31T15:31:36.22</time>
<name>3518</name>
</trkpt>
<trkpt lat="48.734343" lon="11.019970">
<ele>437.5</ele>
<speed>0.8</speed>
<course>157.0</course>
<desc>Speed 0.8 km/h Distance 104 km</desc>
<time>2010-07-31T15:31:37.21</time>
<name>3519</name>
</trkpt>
<trkpt lat="48.734340" lon="11.019972">
<ele>439.0</ele>
<speed>1.0</speed>
<course>167.4</course>
<desc>Speed 1.0 km/h Distance 104 km</desc>
<time>2010-07-31T15:31:38.27</time>
<name>3520</name>
</trkpt>
<trkpt lat="48.734338" lon="11.019972">
<ele>440.0</ele>
<speed>1.2</speed>
<course>66.6</course>
<desc>Speed 1.2 km/h Distance 104 km</desc>
<time>2010-07-31T15:31:39.20</time>
<name>3521</name>
</trkpt>
<trkpt lat="48.734342" lon="11.019983">
<ele>441.0</ele>
<speed>1.4</speed>
<course>70.4</course>
<desc>Speed 1.4 km/h Distance 104 km</desc>
<time>2010-07-31T15:31:40.19</time>
<name>3522</name>
</trkpt>
<trkpt lat="48.734348" lon="11.020012">
<ele>441.0</ele>
<speed>7.0</speed>
<course>84.8</course>
<desc>Speed 7.0 km/h Distance 104 km</desc>
<time>2010-07-31T15:31:41.19</time>
<name>3523</name>
</trkpt>
<trkpt lat="48.734353" lon="11.020095">
<ele>441.0</ele>
<speed>8.9</speed>
<course>90.0</course>
<desc>Speed 8.9 km/h Distance 104 km</desc>
<time>2010-07-31T15:31:43.18</time>
<name>3524</name>
</trkpt>
<trkpt lat="48.734353" lon="11.020138">
<ele>441.0</ele>
<speed>10.8</speed>
<course>94.3</course>
<desc>Speed 10.8 km/h Distance 104 km</desc>
<time>2010-07-31T15:31:44.17</time>
<name>3525</name>
</trkpt>
<trkpt lat="48.734352" lon="11.020172">
<ele>441.0</ele>
<speed>10.8</speed>
<course>57.5</course>
<desc>Speed 10.8 km/h Distance 104 km</desc>
<time>2010-07-31T15:31:45.17</time>
<name>3526</name>
</trkpt>
<trkpt lat="48.734365" lon="11.020203">
<ele>441.0</ele>
<speed>9.3</speed>
<course>43.3</course>
<desc>Speed 9.3 km/h Distance 104 km</desc>
<time>2010-07-31T15:31:46.16</time>
<name>3527</name>
</trkpt>
<trkpt lat="48.734388" lon="11.020237">
<ele>440.5</ele>
<speed>12.1</speed>
<course>13.0</course>
<desc>Speed 12.1 km/h Distance 104 km</desc>
<time>2010-07-31T15:31:47.17</time>
<name>3528</name>
</trkpt>
<trkpt lat="48.734422" lon="11.020248">
<ele>440.5</ele>
<speed>13.5</speed>
<course>8.4</course>
<desc>Speed 13.5 km/h Distance 104 km</desc>
<time>2010-07-31T15:31:48.16</time>
<name>3529</name>
</trkpt>
<trkpt lat="48.734518" lon="11.020270">
<ele>440.0</ele>
<speed>21.9</speed>
<course>5.2</course>
<desc>Speed 21.9 km/h Distance 104 km</desc>
<time>2010-07-31T15:31:50.15</time>
<name>3530</name>
</trkpt>
<trkpt lat="48.734795" lon="11.020308">
<ele>440.0</ele>
<speed>38.4</speed>
<course>3.0</course>
<desc>Speed 38.4 km/h Distance 104 km</desc>
<time>2010-07-31T15:31:53.15</time>
<name>3531</name>
</trkpt>
<trkpt lat="48.734900" lon="11.020317">
<ele>439.5</ele>
<speed>40.4</speed>
<course>5.6</course>
<desc>Speed 40.4 km/h Distance 104 km</desc>
<time>2010-07-31T15:31:54.13</time>
<name>3532</name>
</trkpt>
<trkpt lat="48.735133" lon="11.020352">
<ele>440.0</ele>
<speed>43.8</speed>
<course>5.2</course>
<desc>Speed 43.8 km/h Distance 104 km</desc>
<time>2010-07-31T15:31:56.13</time>
<name>3533</name>
</trkpt>
<trkpt lat="48.735242" lon="11.020367">
<ele>440.0</ele>
<speed>43.3</speed>
<course>6.1</course>
<desc>Speed 43.3 km/h Distance 104 km</desc>
<time>2010-07-31T15:31:57.13</time>
<name>3534</name>
</trkpt>
<trkpt lat="48.735355" lon="11.020385">
<ele>440.0</ele>
<speed>45.2</speed>
<course>5.6</course>
<desc>Speed 45.2 km/h Distance 104 km</desc>
<time>2010-07-31T15:31:58.12</time>
<name>3535</name>
</trkpt>
<trkpt lat="48.735467" lon="11.020402">
<ele>440.5</ele>
<speed>45.3</speed>
<course>6.4</course>
<desc>Speed 45.3 km/h Distance 104 km</desc>
<time>2010-07-31T15:31:59.11</time>
<name>3536</name>
</trkpt>
<trkpt lat="48.735585" lon="11.020422">
<ele>440.5</ele>
<speed>47.8</speed>
<course>7.2</course>
<desc>Speed 47.8 km/h Distance 104 km</desc>
<time>2010-07-31T15:32:00.11</time>
<name>3537</name>
</trkpt>
<trkpt lat="48.735707" lon="11.020445">
<ele>440.5</ele>
<speed>48.6</speed>
<course>359.5</course>
<desc>Speed 48.6 km/h Distance 104 km</desc>
<time>2010-07-31T15:32:01.11</time>
<name>3538</name>
</trkpt>
<trkpt lat="48.735812" lon="11.020443">
<ele>441.0</ele>
<speed>43.1</speed>
<course>3.6</course>
<desc>Speed 43.1 km/h Distance 104 km</desc>
<time>2010-07-31T15:32:02.11</time>
<name>3539</name>
</trkpt>
<trkpt lat="48.735935" lon="11.020455">
<ele>441.5</ele>
<speed>47.5</speed>
<course>6.0</course>
<desc>Speed 47.5 km/h Distance 104 km</desc>
<time>2010-07-31T15:32:03.11</time>
<name>3540</name>
</trkpt>
<trkpt lat="48.736153" lon="11.020490">
<ele>441.5</ele>
<speed>49.9</speed>
<course>9.3</course>
<desc>Speed 49.9 km/h Distance 104 km</desc>
<time>2010-07-31T15:32:05.10</time>
<name>3541</name>
</trkpt>
<trkpt lat="48.736428" lon="11.020558">
<ele>441.5</ele>
<speed>49.4</speed>
<course>4.9</course>
<desc>Speed 49.4 km/h Distance 104 km</desc>
<time>2010-07-31T15:32:07.10</time>
<name>3542</name>
</trkpt>
<trkpt lat="48.736713" lon="11.020595">
<ele>441.0</ele>
<speed>55.3</speed>
<course>359.1</course>
<desc>Speed 55.3 km/h Distance 104 km</desc>
<time>2010-07-31T15:32:09.08</time>
<name>3543</name>
</trkpt>
<trkpt lat="48.736850" lon="11.020592">
<ele>439.5</ele>
<speed>55.0</speed>
<course>356.7</course>
<desc>Speed 55.0 km/h Distance 104 km</desc>
<time>2010-07-31T15:32:10.08</time>
<name>3544</name>
</trkpt>
<trkpt lat="48.737003" lon="11.020578">
<ele>438.0</ele>
<speed>59.6</speed>
<course>352.4</course>
<desc>Speed 59.6 km/h Distance 104 km</desc>
<time>2010-07-31T15:32:11.08</time>
<name>3545</name>
</trkpt>
<trkpt lat="48.737350" lon="11.020508">
<ele>438.5</ele>
<speed>67.3</speed>
<course>348.6</course>
<desc>Speed 67.3 km/h Distance 104 km</desc>
<time>2010-07-31T15:32:13.07</time>
<name>3546</name>
</trkpt>
<trkpt lat="48.737513" lon="11.020458">
<ele>438.5</ele>
<speed>68.1</speed>
<course>344.9</course>
<desc>Speed 68.1 km/h Distance 104 km</desc>
<time>2010-07-31T15:32:14.08</time>
<name>3547</name>
</trkpt>
<trkpt lat="48.737672" lon="11.020393">
<ele>438.5</ele>
<speed>64.6</speed>
<course>340.2</course>
<desc>Speed 64.6 km/h Distance 104 km</desc>
<time>2010-07-31T15:32:15.07</time>
<name>3548</name>
</trkpt>
<trkpt lat="48.737943" lon="11.020245">
<ele>438.0</ele>
<speed>58.5</speed>
<course>343.5</course>
<desc>Speed 58.5 km/h Distance 104 km</desc>
<time>2010-07-31T15:32:17.06</time>
<name>3549</name>
</trkpt>
<trkpt lat="48.738073" lon="11.020187">
<ele>438.0</ele>
<speed>53.6</speed>
<course>346.8</course>
<desc>Speed 53.6 km/h Distance 104 km</desc>
<time>2010-07-31T15:32:18.06</time>
<name>3550</name>
</trkpt>
<trkpt lat="48.738195" lon="11.020143">
<ele>438.0</ele>
<speed>49.1</speed>
<course>346.8</course>
<desc>Speed 49.1 km/h Distance 104 km</desc>
<time>2010-07-31T15:32:19.05</time>
<name>3551</name>
</trkpt>
<trkpt lat="48.738368" lon="11.020082">
<ele>438.0</ele>
<speed>49.1</speed>
<course>341.8</course>
<desc>Speed 49.1 km/h Distance 104 km</desc>
<time>2010-07-31T15:32:21.04</time>
<name>3552</name>
</trkpt>
<trkpt lat="48.738495" lon="11.020018">
<ele>438.0</ele>
<speed>0.4</speed>
<course>259.9</course>
<desc>Speed 0.4 km/h Distance 104 km</desc>
<time>2010-07-31T15:32:27.03</time>
<name>3553</name>
</trkpt>
<trkpt lat="48.738492" lon="11.019990">
<ele>437.5</ele>
<speed>7.5</speed>
<course>249.3</course>
<desc>Speed 7.5 km/h Distance 104 km</desc>
<time>2010-07-31T15:32:29.01</time>
<name>3554</name>
</trkpt>
<trkpt lat="48.738487" lon="11.019970">
<ele>437.0</ele>
<speed>7.5</speed>
<course>276.7</course>
<desc>Speed 7.5 km/h Distance 104 km</desc>
<time>2010-07-31T15:32:30.01</time>
<name>3555</name>
</trkpt>
<trkpt lat="48.738488" lon="11.019948">
<ele>437.0</ele>
<speed>7.5</speed>
<course>320.0</course>
<desc>Speed 7.5 km/h Distance 104 km</desc>
<time>2010-07-31T15:32:31.00</time>
<name>3556</name>
</trkpt>
<trkpt lat="48.738507" lon="11.019925">
<ele>437.0</ele>
<speed>7.5</speed>
<course>298.4</course>
<desc>Speed 7.5 km/h Distance 104 km</desc>
<time>2010-07-31T15:32:32.00</time>
<name>3557</name>
</trkpt>
<trkpt lat="48.738540" lon="11.019832">
<ele>437.0</ele>
<speed>7.5</speed>
<course>307.3</course>
<desc>Speed 7.5 km/h Distance 104 km</desc>
<time>2010-07-31T15:32:34.00</time>
<name>3558</name>
</trkpt>
<trkpt lat="48.738547" lon="11.019818">
<ele>437.0</ele>
<speed>7.5</speed>
<course>287.7</course>
<desc>Speed 7.5 km/h Distance 104 km</desc>
<time>2010-07-31T15:32:35.00</time>
<name>3559</name>
</trkpt>
<trkpt lat="48.738553" lon="11.019787">
<ele>436.0</ele>
<speed>7.5</speed>
<course>278.4</course>
<desc>Speed 7.5 km/h Distance 104 km</desc>
<time>2010-07-31T15:32:35.99</time>
<name>3560</name>
</trkpt>
<trkpt lat="48.738753" lon="11.017740">
<ele>431.0</ele>
<speed>85.6</speed>
<course>290.3</course>
<desc>Speed 85.6 km/h Distance 105 km</desc>
<time>2010-07-31T15:32:41.97</time>
<name>3561</name>
</trkpt>
<trkpt lat="48.738833" lon="11.017412">
<ele>431.0</ele>
<speed>92.2</speed>
<course>294.6</course>
<desc>Speed 92.2 km/h Distance 105 km</desc>
<time>2010-07-31T15:32:42.97</time>
<name>3562</name>
</trkpt>
<trkpt lat="48.739153" lon="11.016350">
<ele>433.5</ele>
<speed>92.2</speed>
<course>315.6</course>
<desc>Speed 92.2 km/h Distance 105 km</desc>
<time>2010-07-31T15:32:46.95</time>
<name>3563</name>
</trkpt>
<trkpt lat="48.739687" lon="11.015558">
<ele>438.5</ele>
<speed>92.8</speed>
<course>318.5</course>
<desc>Speed 92.8 km/h Distance 105 km</desc>
<time>2010-07-31T15:32:49.94</time>
<name>3564</name>
</trkpt>
<trkpt lat="48.740003" lon="11.015133">
<ele>446.5</ele>
<speed>92.8</speed>
<course>326.2</course>
<desc>Speed 92.8 km/h Distance 105 km</desc>
<time>2010-07-31T15:32:51.94</time>
<name>3565</name>
</trkpt>
<trkpt lat="48.741282" lon="11.013833">
<ele>456.5</ele>
<speed>121</speed>
<course>325.5</course>
<desc>Speed 121 km/h Distance 105 km</desc>
<time>2010-07-31T15:32:56.92</time>
<name>3566</name>
</trkpt>
<trkpt lat="48.741742" lon="11.013353">
<ele>460.0</ele>
<speed>121</speed>
<course>325.4</course>
<desc>Speed 121 km/h Distance 105 km</desc>
<time>2010-07-31T15:32:58.92</time>
<name>3567</name>
</trkpt>
<trkpt lat="48.742682" lon="11.012368">
<ele>459.5</ele>
<speed>115</speed>
<course>328.8</course>
<desc>Speed 115 km/h Distance 105 km</desc>
<time>2010-07-31T15:33:03.91</time>
<name>3568</name>
</trkpt>
<trkpt lat="48.743582" lon="11.011543">
<ele>455.0</ele>
<speed>115</speed>
<course>327.4</course>
<desc>Speed 115 km/h Distance 105 km</desc>
<time>2010-07-31T15:33:09.89</time>
<name>3569</name>
</trkpt>
<trkpt lat="48.745490" lon="11.009690">
<ele>449.5</ele>
<speed>71.5</speed>
<course>327.1</course>
<desc>Speed 71.5 km/h Distance 106 km</desc>
<time>2010-07-31T15:33:15.87</time>
<name>3570</name>
</trkpt>
<trkpt lat="48.746055" lon="11.009135">
<ele>439.0</ele>
<speed>12.4</speed>
<course>27.9</course>
<desc>Speed 12.4 km/h Distance 106 km</desc>
<time>2010-07-31T15:33:21.84</time>
<name>3571</name>
</trkpt>
<trkpt lat="48.746063" lon="11.009142">
<ele>438.0</ele>
<speed>0.1</speed>
<course>37.2</course>
<desc>Speed 0.1 km/h Distance 106 km</desc>
<time>2010-07-31T15:33:23.85</time>
<name>3572</name>
</trkpt>
<trkpt lat="48.746065" lon="11.009143">
<ele>438.0</ele>
<speed>0.9</speed>
<course>62.6</course>
<desc>Speed 0.9 km/h Distance 106 km</desc>
<time>2010-07-31T15:33:24.84</time>
<name>3573</name>
</trkpt>
<trkpt lat="48.746067" lon="11.009148">
<ele>438.5</ele>
<speed>1.6</speed>
<course>347.4</course>
<desc>Speed 1.6 km/h Distance 106 km</desc>
<time>2010-07-31T15:33:25.83</time>
<name>3574</name>
</trkpt>
<trkpt lat="48.746070" lon="11.009147">
<ele>439.0</ele>
<speed>1.6</speed>
<course>296.6</course>
<desc>Speed 1.6 km/h Distance 106 km</desc>
<time>2010-07-31T15:33:26.85</time>
<name>3575</name>
</trkpt>
<trkpt lat="48.746072" lon="11.009142">
<ele>440.0</ele>
<speed>1.6</speed>
<course>349.7</course>
<desc>Speed 1.6 km/h Distance 106 km</desc>
<time>2010-07-31T15:33:27.83</time>
<name>3576</name>
</trkpt>
<trkpt lat="48.746078" lon="11.009140">
<ele>440.0</ele>
<speed>1.1</speed>
<course>253.1</course>
<desc>Speed 1.1 km/h Distance 106 km</desc>
<time>2010-07-31T15:33:28.83</time>
<name>3577</name>
</trkpt>
<trkpt lat="48.746077" lon="11.009132">
<ele>440.5</ele>
<speed>0.4</speed>
<course>270.0</course>
<desc>Speed 0.4 km/h Distance 106 km</desc>
<time>2010-07-31T15:33:29.82</time>
<name>3578</name>
</trkpt>
<trkpt lat="48.746077" lon="11.009127">
<ele>440.5</ele>
<speed>0.2</speed>
<course>294.2</course>
<desc>Speed 0.2 km/h Distance 106 km</desc>
<time>2010-07-31T15:33:30.82</time>
<name>3579</name>
</trkpt>
<trkpt lat="48.746317" lon="11.008317">
<ele>440.5</ele>
<speed>65.4</speed>
<course>290.8</course>
<desc>Speed 65.4 km/h Distance 106 km</desc>
<time>2010-07-31T15:33:36.79</time>
<name>3580</name>
</trkpt>
<trkpt lat="48.746443" lon="11.007812">
<ele>439.5</ele>
<speed>73.0</speed>
<course>269.6</course>
<desc>Speed 73.0 km/h Distance 106 km</desc>
<time>2010-07-31T15:33:38.80</time>
<name>3581</name>
</trkpt>
<trkpt lat="48.746430" lon="11.004958">
<ele>440.0</ele>
<speed>122</speed>
<course>268.8</course>
<desc>Speed 122 km/h Distance 106 km</desc>
<time>2010-07-31T15:33:44.78</time>
<name>3582</name>
</trkpt>
<trkpt lat="48.746423" lon="11.004492">
<ele>439.5</ele>
<speed>121</speed>
<course>268.5</course>
<desc>Speed 121 km/h Distance 106 km</desc>
<time>2010-07-31T15:33:45.77</time>
<name>3583</name>
</trkpt>
<trkpt lat="48.746415" lon="11.004022">
<ele>440.0</ele>
<speed>122</speed>
<course>265.1</course>
<desc>Speed 122 km/h Distance 106 km</desc>
<time>2010-07-31T15:33:46.77</time>
<name>3584</name>
</trkpt>
<trkpt lat="48.746360" lon="11.003040">
<ele>442.0</ele>
<speed>123</speed>
<course>264.2</course>
<desc>Speed 123 km/h Distance 106 km</desc>
<time>2010-07-31T15:33:48.76</time>
<name>3585</name>
</trkpt>
<trkpt lat="48.746298" lon="11.002117">
<ele>442.5</ele>
<speed>132</speed>
<course>261.5</course>
<desc>Speed 132 km/h Distance 106 km</desc>
<time>2010-07-31T15:33:50.76</time>
<name>3586</name>
</trkpt>
<trkpt lat="48.746248" lon="11.001608">
<ele>442.5</ele>
<speed>134</speed>
<course>258.0</course>
<desc>Speed 134 km/h Distance 106 km</desc>
<time>2010-07-31T15:33:51.75</time>
<name>3587</name>
</trkpt>
<trkpt lat="48.746115" lon="11.000655">
<ele>445.0</ele>
<speed>135</speed>
<course>258.0</course>
<desc>Speed 135 km/h Distance 106 km</desc>
<time>2010-07-31T15:33:53.74</time>
<name>3588</name>
</trkpt>
<trkpt lat="48.746042" lon="11.000132">
<ele>444.5</ele>
<speed>136</speed>
<course>258.4</course>
<desc>Speed 136 km/h Distance 106 km</desc>
<time>2010-07-31T15:33:54.73</time>
<name>3589</name>
</trkpt>
<trkpt lat="48.745973" lon="10.999625">
<ele>443.0</ele>
<speed>136</speed>
<course>257.5</course>
<desc>Speed 136 km/h Distance 106 km</desc>
<time>2010-07-31T15:33:55.73</time>
<name>3590</name>
</trkpt>
<trkpt lat="48.745898" lon="10.999113">
<ele>443.0</ele>
<speed>136</speed>
<course>255.3</course>
<desc>Speed 136 km/h Distance 106 km</desc>
<time>2010-07-31T15:33:56.73</time>
<name>3591</name>
</trkpt>
<trkpt lat="48.745810" lon="10.998603">
<ele>443.0</ele>
<speed>137</speed>
<course>254.7</course>
<desc>Speed 137 km/h Distance 106 km</desc>
<time>2010-07-31T15:33:57.72</time>
<name>3592</name>
</trkpt>
<trkpt lat="48.745718" lon="10.998097">
<ele>444.0</ele>
<speed>139</speed>
<course>256.7</course>
<desc>Speed 139 km/h Distance 106 km</desc>
<time>2010-07-31T15:33:58.73</time>
<name>3593</name>
</trkpt>
<trkpt lat="48.745638" lon="10.997585">
<ele>444.0</ele>
<speed>138</speed>
<course>254.9</course>
<desc>Speed 138 km/h Distance 106 km</desc>
<time>2010-07-31T15:33:59.72</time>
<name>3594</name>
</trkpt>
<trkpt lat="48.745548" lon="10.997080">
<ele>444.0</ele>
<speed>138</speed>
<course>256.0</course>
<desc>Speed 138 km/h Distance 107 km</desc>
<time>2010-07-31T15:34:00.72</time>
<name>3595</name>
</trkpt>
<trkpt lat="48.745465" lon="10.996573">
<ele>444.0</ele>
<speed>138</speed>
<course>256.7</course>
<desc>Speed 138 km/h Distance 107 km</desc>
<time>2010-07-31T15:34:01.72</time>
<name>3596</name>
</trkpt>
<trkpt lat="48.745385" lon="10.996062">
<ele>444.0</ele>
<speed>139</speed>
<course>256.1</course>
<desc>Speed 139 km/h Distance 107 km</desc>
<time>2010-07-31T15:34:02.71</time>
<name>3597</name>
</trkpt>
<trkpt lat="48.745302" lon="10.995550">
<ele>444.5</ele>
<speed>139</speed>
<course>256.8</course>
<desc>Speed 139 km/h Distance 107 km</desc>
<time>2010-07-31T15:34:03.71</time>
<name>3598</name>
</trkpt>
<trkpt lat="48.745055" lon="10.993953">
<ele>451.0</ele>
<speed>139</speed>
<course>262.1</course>
<desc>Speed 139 km/h Distance 107 km</desc>
<time>2010-07-31T15:34:09.69</time>
<name>3599</name>
</trkpt>
<trkpt lat="48.744902" lon="10.992280">
<ele>444.5</ele>
<speed>126</speed>
<course>276.6</course>
<desc>Speed 126 km/h Distance 107 km</desc>
<time>2010-07-31T15:34:13.68</time>
<name>3600</name>
</trkpt>
<trkpt lat="48.745078" lon="10.989978">
<ele>440.5</ele>
<speed>135</speed>
<course>253.6</course>
<desc>Speed 135 km/h Distance 107 km</desc>
<time>2010-07-31T15:34:17.66</time>
<name>3601</name>
</trkpt>
<trkpt lat="48.744350" lon="10.986222">
<ele>456.0</ele>
<speed>127</speed>
<course>257.0</course>
<desc>Speed 127 km/h Distance 107 km</desc>
<time>2010-07-31T15:34:23.63</time>
<name>3602</name>
</trkpt>
<trkpt lat="48.744195" lon="10.985202">
<ele>456.0</ele>
<speed>114</speed>
<course>264.7</course>
<desc>Speed 114 km/h Distance 107 km</desc>
<time>2010-07-31T15:34:25.63</time>
<name>3603</name>
</trkpt>
<trkpt lat="48.744138" lon="10.984275">
<ele>456.0</ele>
<speed>105</speed>
<course>270.9</course>
<desc>Speed 105 km/h Distance 107 km</desc>
<time>2010-07-31T15:34:27.63</time>
<name>3604</name>
</trkpt>
<trkpt lat="48.744147" lon="10.983460">
<ele>455.5</ele>
<speed>103</speed>
<course>279.4</course>
<desc>Speed 103 km/h Distance 108 km</desc>
<time>2010-07-31T15:34:29.62</time>
<name>3605</name>
</trkpt>
<trkpt lat="48.744293" lon="10.982122">
<ele>451.5</ele>
<speed>103</speed>
<course>282.5</course>
<desc>Speed 103 km/h Distance 108 km</desc>
<time>2010-07-31T15:34:32.61</time>
<name>3606</name>
</trkpt>
<trkpt lat="48.744473" lon="10.980892">
<ele>439.0</ele>
<speed>82.2</speed>
<course>294.4</course>
<desc>Speed 82.2 km/h Distance 108 km</desc>
<time>2010-07-31T15:34:36.59</time>
<name>3607</name>
</trkpt>
<trkpt lat="48.744555" lon="10.980618">
<ele>438.5</ele>
<speed>78.5</speed>
<course>302.3</course>
<desc>Speed 78.5 km/h Distance 108 km</desc>
<time>2010-07-31T15:34:37.59</time>
<name>3608</name>
</trkpt>
<trkpt lat="48.744828" lon="10.979963">
<ele>433.5</ele>
<speed>78.5</speed>
<course>307.8</course>
<desc>Speed 78.5 km/h Distance 108 km</desc>
<time>2010-07-31T15:34:41.58</time>
<name>3609</name>
</trkpt>
<trkpt lat="48.745693" lon="10.978272">
<ele>423.5</ele>
<speed>113</speed>
<course>295.5</course>
<desc>Speed 113 km/h Distance 108 km</desc>
<time>2010-07-31T15:34:46.56</time>
<name>3610</name>
</trkpt>
<trkpt lat="48.746477" lon="10.975785">
<ele>426.5</ele>
<speed>126</speed>
<course>305.8</course>
<desc>Speed 126 km/h Distance 108 km</desc>
<time>2010-07-31T15:34:51.54</time>
<name>3611</name>
</trkpt>
<trkpt lat="48.746868" lon="10.974962">
<ele>428.0</ele>
<speed>120</speed>
<course>306.8</course>
<desc>Speed 120 km/h Distance 108 km</desc>
<time>2010-07-31T15:34:53.54</time>
<name>3612</name>
</trkpt>
<trkpt lat="48.747647" lon="10.973382">
<ele>427.0</ele>
<speed>81.0</speed>
<course>290.3</course>
<desc>Speed 81.0 km/h Distance 108 km</desc>
<time>2010-07-31T15:34:59.51</time>
<name>3613</name>
</trkpt>
<trkpt lat="48.747717" lon="10.973095">
<ele>428.0</ele>
<speed>81.0</speed>
<course>285.5</course>
<desc>Speed 81.0 km/h Distance 108 km</desc>
<time>2010-07-31T15:35:00.50</time>
<name>3614</name>
</trkpt>
<trkpt lat="48.747837" lon="10.972437">
<ele>434.0</ele>
<speed>81.0</speed>
<course>271.7</course>
<desc>Speed 81.0 km/h Distance 108 km</desc>
<time>2010-07-31T15:35:03.50</time>
<name>3615</name>
</trkpt>
<trkpt lat="48.747853" lon="10.971582">
<ele>426.0</ele>
<speed>81.0</speed>
<course>272.9</course>
<desc>Speed 81.0 km/h Distance 109 km</desc>
<time>2010-07-31T15:35:07.49</time>
<name>3616</name>
</trkpt>
<trkpt lat="48.747973" lon="10.968005">
<ele>416.0</ele>
<speed>126</speed>
<course>278.4</course>
<desc>Speed 126 km/h Distance 109 km</desc>
<time>2010-07-31T15:35:13.47</time>
<name>3617</name>
</trkpt>
<trkpt lat="48.748058" lon="10.967135">
<ele>422.0</ele>
<speed>126</speed>
<course>272.1</course>
<desc>Speed 126 km/h Distance 109 km</desc>
<time>2010-07-31T15:35:15.46</time>
<name>3618</name>
</trkpt>
<trkpt lat="48.748095" lon="10.965637">
<ele>425.0</ele>
<speed>126</speed>
<course>248.3</course>
<desc>Speed 126 km/h Distance 109 km</desc>
<time>2010-07-31T15:35:18.45</time>
<name>3619</name>
</trkpt>
<trkpt lat="48.747798" lon="10.964503">
<ele>421.0</ele>
<speed>126</speed>
<course>266.8</course>
<desc>Speed 126 km/h Distance 109 km</desc>
<time>2010-07-31T15:35:21.44</time>
<name>3620</name>
</trkpt>
<trkpt lat="48.747753" lon="10.963265">
<ele>432.0</ele>
<speed>126</speed>
<course>262.0</course>
<desc>Speed 126 km/h Distance 109 km</desc>
<time>2010-07-31T15:35:26.44</time>
<name>3621</name>
</trkpt>
<trkpt lat="48.747705" lon="10.962747">
<ele>442.0</ele>
<speed>126</speed>
<course>258.6</course>
<desc>Speed 126 km/h Distance 109 km</desc>
<time>2010-07-31T15:35:32.41</time>
<name>3622</name>
</trkpt>
<trkpt lat="48.747538" lon="10.961497">
<ele>438.5</ele>
<speed>104</speed>
<course>222.2</course>
<desc>Speed 104 km/h Distance 109 km</desc>
<time>2010-07-31T15:35:38.39</time>
<name>3623</name>
</trkpt>
<trkpt lat="48.746862" lon="10.960565">
<ele>442.5</ele>
<speed>89.1</speed>
<course>217.0</course>
<desc>Speed 89.1 km/h Distance 109 km</desc>
<time>2010-07-31T15:35:41.38</time>
<name>3624</name>
</trkpt>
<trkpt lat="48.746472" lon="10.960120">
<ele>446.5</ele>
<speed>89.1</speed>
<course>206.1</course>
<desc>Speed 89.1 km/h Distance 109 km</desc>
<time>2010-07-31T15:35:43.37</time>
<name>3625</name>
</trkpt>
<trkpt lat="48.743610" lon="10.957995">
<ele>468.5</ele>
<speed>105</speed>
<course>206.9</course>
<desc>Speed 105 km/h Distance 110 km</desc>
<time>2010-07-31T15:35:49.36</time>
<name>3626</name>
</trkpt>
<trkpt lat="48.742130" lon="10.956855">
<ele>451.0</ele>
<speed>72.8</speed>
<course>213.7</course>
<desc>Speed 72.8 km/h Distance 110 km</desc>
<time>2010-07-31T15:35:54.34</time>
<name>3627</name>
</trkpt>
<trkpt lat="48.741978" lon="10.956702">
<ele>451.0</ele>
<speed>68.8</speed>
<course>223.3</course>
<desc>Speed 68.8 km/h Distance 110 km</desc>
<time>2010-07-31T15:35:55.34</time>
<name>3628</name>
</trkpt>
<trkpt lat="48.741853" lon="10.956523">
<ele>452.0</ele>
<speed>66.7</speed>
<course>227.6</course>
<desc>Speed 66.7 km/h Distance 110 km</desc>
<time>2010-07-31T15:35:56.34</time>
<name>3629</name>
</trkpt>
<trkpt lat="48.741497" lon="10.955932">
<ele>449.0</ele>
<speed>43.5</speed>
<course>243.5</course>
<desc>Speed 43.5 km/h Distance 110 km</desc>
<time>2010-07-31T15:36:00.33</time>
<name>3630</name>
</trkpt>
<trkpt lat="48.741403" lon="10.955648">
<ele>446.5</ele>
<speed>43.5</speed>
<course>256.2</course>
<desc>Speed 43.5 km/h Distance 110 km</desc>
<time>2010-07-31T15:36:02.31</time>
<name>3631</name>
</trkpt>
<trkpt lat="48.741352" lon="10.955328">
<ele>443.5</ele>
<speed>43.5</speed>
<course>275.1</course>
<desc>Speed 43.5 km/h Distance 110 km</desc>
<time>2010-07-31T15:36:04.31</time>
<name>3632</name>
</trkpt>
<trkpt lat="48.741495" lon="10.952882">
<ele>434.5</ele>
<speed>72.3</speed>
<course>278.1</course>
<desc>Speed 72.3 km/h Distance 110 km</desc>
<time>2010-07-31T15:36:10.29</time>
<name>3633</name>
</trkpt>
<trkpt lat="48.741552" lon="10.952275">
<ele>432.5</ele>
<speed>65.2</speed>
<course>275.1</course>
<desc>Speed 65.2 km/h Distance 110 km</desc>
<time>2010-07-31T15:36:12.28</time>
<name>3634</name>
</trkpt>
<trkpt lat="48.741567" lon="10.952020">
<ele>432.0</ele>
<speed>64.5</speed>
<course>285.6</course>
<desc>Speed 64.5 km/h Distance 110 km</desc>
<time>2010-07-31T15:36:13.28</time>
<name>3635</name>
</trkpt>
<trkpt lat="48.741612" lon="10.951775">
<ele>431.5</ele>
<speed>61.9</speed>
<course>287.6</course>
<desc>Speed 61.9 km/h Distance 110 km</desc>
<time>2010-07-31T15:36:14.28</time>
<name>3636</name>
</trkpt>
<trkpt lat="48.741662" lon="10.951537">
<ele>431.5</ele>
<speed>62.5</speed>
<course>289.3</course>
<desc>Speed 62.5 km/h Distance 110 km</desc>
<time>2010-07-31T15:36:15.27</time>
<name>3637</name>
</trkpt>
<trkpt lat="48.741755" lon="10.951133">
<ele>430.0</ele>
<speed>61.0</speed>
<course>275.7</course>
<desc>Speed 61.0 km/h Distance 110 km</desc>
<time>2010-07-31T15:36:17.26</time>
<name>3638</name>
</trkpt>
<trkpt lat="48.741815" lon="10.950227">
<ele>428.0</ele>
<speed>61.8</speed>
<course>272.3</course>
<desc>Speed 61.8 km/h Distance 111 km</desc>
<time>2010-07-31T15:36:20.26</time>
<name>3639</name>
</trkpt>
<trkpt lat="48.741822" lon="10.949970">
<ele>428.0</ele>
<speed>64.8</speed>
<course>262.6</course>
<desc>Speed 64.8 km/h Distance 111 km</desc>
<time>2010-07-31T15:36:21.25</time>
<name>3640</name>
</trkpt>
<trkpt lat="48.741745" lon="10.949073">
<ele>429.0</ele>
<speed>64.3</speed>
<course>277.4</course>
<desc>Speed 64.3 km/h Distance 111 km</desc>
<time>2010-07-31T15:36:24.25</time>
<name>3641</name>
</trkpt>
<trkpt lat="48.741765" lon="10.948838">
<ele>428.5</ele>
<speed>59.0</speed>
<course>273.6</course>
<desc>Speed 59.0 km/h Distance 111 km</desc>
<time>2010-07-31T15:36:25.24</time>
<name>3642</name>
</trkpt>
<trkpt lat="48.741775" lon="10.948595">
<ele>428.5</ele>
<speed>62.0</speed>
<course>275.8</course>
<desc>Speed 62.0 km/h Distance 111 km</desc>
<time>2010-07-31T15:36:26.26</time>
<name>3643</name>
</trkpt>
<trkpt lat="48.741800" lon="10.948222">
<ele>429.0</ele>
<speed>62.0</speed>
<course>287.5</course>
<desc>Speed 62.0 km/h Distance 111 km</desc>
<time>2010-07-31T15:36:28.24</time>
<name>3644</name>
</trkpt>
<trkpt lat="48.741842" lon="10.948022">
<ele>429.5</ele>
<speed>62.0</speed>
<course>278.1</course>
<desc>Speed 62.0 km/h Distance 111 km</desc>
<time>2010-07-31T15:36:29.24</time>
<name>3645</name>
</trkpt>
<trkpt lat="48.741903" lon="10.947363">
<ele>429.5</ele>
<speed>47.1</speed>
<course>260.4</course>
<desc>Speed 47.1 km/h Distance 111 km</desc>
<time>2010-07-31T15:36:32.23</time>
<name>3646</name>
</trkpt>
<trkpt lat="48.741858" lon="10.946962">
<ele>429.0</ele>
<speed>48.5</speed>
<course>276.2</course>
<desc>Speed 48.5 km/h Distance 111 km</desc>
<time>2010-07-31T15:36:34.23</time>
<name>3647</name>
</trkpt>
<trkpt lat="48.741890" lon="10.946517">
<ele>429.0</ele>
<speed>31.6</speed>
<course>280.5</course>
<desc>Speed 31.6 km/h Distance 111 km</desc>
<time>2010-07-31T15:36:37.22</time>
<name>3648</name>
</trkpt>
<trkpt lat="48.741907" lon="10.946380">
<ele>430.0</ele>
<speed>30.4</speed>
<course>282.3</course>
<desc>Speed 30.4 km/h Distance 111 km</desc>
<time>2010-07-31T15:36:39.98</time>
<name>3649</name>
</trkpt>
<trkpt lat="48.741932" lon="10.946207">
<ele>430.0</ele>
<speed>30.4</speed>
<course>3.6</course>
<desc>Speed 30.4 km/h Distance 111 km</desc>
<time>2010-07-31T15:36:41.21</time>
<name>3650</name>
</trkpt>
<trkpt lat="48.742018" lon="10.946215">
<ele>429.5</ele>
<speed>31.1</speed>
<course>2.1</course>
<desc>Speed 31.1 km/h Distance 111 km</desc>
<time>2010-07-31T15:36:42.22</time>
<name>3651</name>
</trkpt>
<trkpt lat="48.742082" lon="10.946218">
<ele>430.0</ele>
<speed>31.1</speed>
<course>340.2</course>
<desc>Speed 31.1 km/h Distance 111 km</desc>
<time>2010-07-31T15:36:43.21</time>
<name>3652</name>
</trkpt>
<trkpt lat="48.742170" lon="10.946170">
<ele>429.5</ele>
<speed>21.5</speed>
<course>308.9</course>
<desc>Speed 21.5 km/h Distance 111 km</desc>
<time>2010-07-31T15:36:45.21</time>
<name>3653</name>
</trkpt>
<trkpt lat="48.742212" lon="10.946092">
<ele>430.0</ele>
<speed>24.8</speed>
<course>337.1</course>
<desc>Speed 24.8 km/h Distance 111 km</desc>
<time>2010-07-31T15:36:46.20</time>
<name>3654</name>
</trkpt>
<trkpt lat="48.742323" lon="10.946020">
<ele>430.5</ele>
<speed>15.9</speed>
<course>298.9</course>
<desc>Speed 15.9 km/h Distance 111 km</desc>
<time>2010-07-31T15:36:48.20</time>
<name>3655</name>
</trkpt>
<trkpt lat="48.742337" lon="10.945983">
<ele>430.5</ele>
<speed>12.3</speed>
<course>318.7</course>
<desc>Speed 12.3 km/h Distance 111 km</desc>
<time>2010-07-31T15:36:49.20</time>
<name>3656</name>
</trkpt>
<trkpt lat="48.742362" lon="10.945950">
<ele>431.0</ele>
<speed>12.8</speed>
<course>322.5</course>
<desc>Speed 12.8 km/h Distance 111 km</desc>
<time>2010-07-31T15:36:50.19</time>
<name>3657</name>
</trkpt>
<trkpt lat="48.742382" lon="10.945927">
<ele>431.5</ele>
<speed>12.8</speed>
<course>40.9</course>
<desc>Speed 12.8 km/h Distance 111 km</desc>
<time>2010-07-31T15:36:51.19</time>
<name>3658</name>
</trkpt>
<trkpt lat="48.742408" lon="10.945962">
<ele>430.5</ele>
<speed>10.6</speed>
<course>47.1</course>
<desc>Speed 10.6 km/h Distance 111 km</desc>
<time>2010-07-31T15:36:52.18</time>
<name>3659</name>
</trkpt>
<trkpt lat="48.742485" lon="10.946087">
<ele>431.0</ele>
<speed>23.7</speed>
<course>30.0</course>
<desc>Speed 23.7 km/h Distance 111 km</desc>
<time>2010-07-31T15:36:54.18</time>
<name>3660</name>
</trkpt>
<trkpt lat="48.742632" lon="10.946215">
<ele>431.0</ele>
<speed>24.3</speed>
<course>23.2</course>
<desc>Speed 24.3 km/h Distance 111 km</desc>
<time>2010-07-31T15:36:56.17</time>
<name>3661</name>
</trkpt>
<trkpt lat="48.742693" lon="10.946255">
<ele>431.5</ele>
<speed>12.2</speed>
<course>344.4</course>
<desc>Speed 12.2 km/h Distance 111 km</desc>
<time>2010-07-31T15:36:58.17</time>
<name>3662</name>
</trkpt>
<trkpt lat="48.742898" lon="10.946168">
<ele>432.0</ele>
<speed>32.9</speed>
<course>329.3</course>
<desc>Speed 32.9 km/h Distance 111 km</desc>
<time>2010-07-31T15:37:01.15</time>
<name>3663</name>
</trkpt>
<trkpt lat="48.742982" lon="10.946093">
<ele>432.5</ele>
<speed>39.3</speed>
<course>321.2</course>
<desc>Speed 39.3 km/h Distance 111 km</desc>
<time>2010-07-31T15:37:02.15</time>
<name>3664</name>
</trkpt>
<trkpt lat="48.743148" lon="10.945890">
<ele>435.0</ele>
<speed>40.8</speed>
<course>308.6</course>
<desc>Speed 40.8 km/h Distance 111 km</desc>
<time>2010-07-31T15:37:04.15</time>
<name>3665</name>
</trkpt>
<trkpt lat="48.743215" lon="10.945763">
<ele>435.5</ele>
<speed>43.3</speed>
<course>309.3</course>
<desc>Speed 43.3 km/h Distance 111 km</desc>
<time>2010-07-31T15:37:05.14</time>
<name>3666</name>
</trkpt>
<trkpt lat="48.743383" lon="10.945452">
<ele>437.5</ele>
<speed>54.9</speed>
<course>309.1</course>
<desc>Speed 54.9 km/h Distance 111 km</desc>
<time>2010-07-31T15:37:07.14</time>
<name>3667</name>
</trkpt>
<trkpt lat="48.743472" lon="10.945287">
<ele>437.5</ele>
<speed>54.9</speed>
<course>305.6</course>
<desc>Speed 54.9 km/h Distance 111 km</desc>
<time>2010-07-31T15:37:08.13</time>
<name>3668</name>
</trkpt>
<trkpt lat="48.743557" lon="10.945107">
<ele>439.0</ele>
<speed>57.8</speed>
<course>306.9</course>
<desc>Speed 57.8 km/h Distance 111 km</desc>
<time>2010-07-31T15:37:09.13</time>
<name>3669</name>
</trkpt>
<trkpt lat="48.743647" lon="10.944925">
<ele>440.5</ele>
<speed>58.9</speed>
<course>306.7</course>
<desc>Speed 58.9 km/h Distance 111 km</desc>
<time>2010-07-31T15:37:10.13</time>
<name>3670</name>
</trkpt>
<trkpt lat="48.743735" lon="10.944745">
<ele>442.0</ele>
<speed>60.9</speed>
<course>306.9</course>
<desc>Speed 60.9 km/h Distance 111 km</desc>
<time>2010-07-31T15:37:11.12</time>
<name>3671</name>
</trkpt>
<trkpt lat="48.743828" lon="10.944557">
<ele>443.0</ele>
<speed>62.3</speed>
<course>305.5</course>
<desc>Speed 62.3 km/h Distance 111 km</desc>
<time>2010-07-31T15:37:12.12</time>
<name>3672</name>
</trkpt>
<trkpt lat="48.743922" lon="10.944358">
<ele>445.0</ele>
<speed>63.7</speed>
<course>304.9</course>
<desc>Speed 63.7 km/h Distance 111 km</desc>
<time>2010-07-31T15:37:13.12</time>
<name>3673</name>
</trkpt>
<trkpt lat="48.744008" lon="10.944170">
<ele>445.0</ele>
<speed>60.0</speed>
<course>301.7</course>
<desc>Speed 60.0 km/h Distance 111 km</desc>
<time>2010-07-31T15:37:14.12</time>
<name>3674</name>
</trkpt>
<trkpt lat="48.744085" lon="10.943982">
<ele>447.0</ele>
<speed>56.4</speed>
<course>306.3</course>
<desc>Speed 56.4 km/h Distance 111 km</desc>
<time>2010-07-31T15:37:15.10</time>
<name>3675</name>
</trkpt>
<trkpt lat="48.744162" lon="10.943823">
<ele>447.0</ele>
<speed>50.5</speed>
<course>338.8</course>
<desc>Speed 50.5 km/h Distance 111 km</desc>
<time>2010-07-31T15:37:16.11</time>
<name>3676</name>
</trkpt>
<trkpt lat="48.744397" lon="10.943685">
<ele>448.0</ele>
<speed>31.9</speed>
<course>324.5</course>
<desc>Speed 31.9 km/h Distance 111 km</desc>
<time>2010-07-31T15:37:20.09</time>
<name>3677</name>
</trkpt>
<trkpt lat="48.744478" lon="10.943597">
<ele>449.0</ele>
<speed>31.9</speed>
<course>15.4</course>
<desc>Speed 31.9 km/h Distance 111 km</desc>
<time>2010-07-31T15:37:23.08</time>
<name>3678</name>
</trkpt>
<trkpt lat="48.745823" lon="10.944160">
<ele>452.5</ele>
<speed>69.1</speed>
<course>43.1</course>
<desc>Speed 69.1 km/h Distance 111 km</desc>
<time>2010-07-31T15:37:32.05</time>
<name>3679</name>
</trkpt>
<trkpt lat="48.746998" lon="10.945825">
<ele>460.0</ele>
<speed>86.8</speed>
<course>48.7</course>
<desc>Speed 86.8 km/h Distance 112 km</desc>
<time>2010-07-31T15:37:38.04</time>
<name>3680</name>
</trkpt>
<trkpt lat="48.747327" lon="10.946392">
<ele>461.0</ele>
<speed>96.4</speed>
<course>38.7</course>
<desc>Speed 96.4 km/h Distance 112 km</desc>
<time>2010-07-31T15:37:40.02</time>
<name>3681</name>
</trkpt>
<trkpt lat="48.747722" lon="10.946872">
<ele>466.0</ele>
<speed>108</speed>
<course>31.7</course>
<desc>Speed 108 km/h Distance 112 km</desc>
<time>2010-07-31T15:37:42.02</time>
<name>3682</name>
</trkpt>
<trkpt lat="48.747957" lon="10.947092">
<ele>467.0</ele>
<speed>111</speed>
<course>35.0</course>
<desc>Speed 111 km/h Distance 112 km</desc>
<time>2010-07-31T15:37:43.03</time>
<name>3683</name>
</trkpt>
<trkpt lat="48.748177" lon="10.947325">
<ele>468.5</ele>
<speed>110</speed>
<course>35.5</course>
<desc>Speed 110 km/h Distance 112 km</desc>
<time>2010-07-31T15:37:44.02</time>
<name>3684</name>
</trkpt>
<trkpt lat="48.748603" lon="10.947787">
<ele>470.0</ele>
<speed>114</speed>
<course>32.3</course>
<desc>Speed 114 km/h Distance 112 km</desc>
<time>2010-07-31T15:37:46.02</time>
<name>3685</name>
</trkpt>
<trkpt lat="48.749533" lon="10.948677">
<ele>473.5</ele>
<speed>62.0</speed>
<course>10.5</course>
<desc>Speed 62.0 km/h Distance 112 km</desc>
<time>2010-07-31T15:37:51.99</time>
<name>3686</name>
</trkpt>
<trkpt lat="48.749835" lon="10.948762">
<ele>474.0</ele>
<speed>52.9</speed>
<course>351.6</course>
<desc>Speed 52.9 km/h Distance 112 km</desc>
<time>2010-07-31T15:37:54.98</time>
<name>3687</name>
</trkpt>
<trkpt lat="48.749977" lon="10.948730">
<ele>474.5</ele>
<speed>56.5</speed>
<course>349.1</course>
<desc>Speed 56.5 km/h Distance 112 km</desc>
<time>2010-07-31T15:37:55.98</time>
<name>3688</name>
</trkpt>
<trkpt lat="48.750262" lon="10.948647">
<ele>475.5</ele>
<speed>56.4</speed>
<course>19.9</course>
<desc>Speed 56.4 km/h Distance 112 km</desc>
<time>2010-07-31T15:37:57.97</time>
<name>3689</name>
</trkpt>
<trkpt lat="48.750613" lon="10.948840">
<ele>478.0</ele>
<speed>60.2</speed>
<course>6.5</course>
<desc>Speed 60.2 km/h Distance 112 km</desc>
<time>2010-07-31T15:38:01.95</time>
<name>3690</name>
</trkpt>
<trkpt lat="48.751420" lon="10.948978">
<ele>478.5</ele>
<speed>55.6</speed>
<course>3.2</course>
<desc>Speed 55.6 km/h Distance 112 km</desc>
<time>2010-07-31T15:38:05.95</time>
<name>3691</name>
</trkpt>
<trkpt lat="48.751795" lon="10.949010">
<ele>480.0</ele>
<speed>31.3</speed>
<course>31.5</course>
<desc>Speed 31.3 km/h Distance 112 km</desc>
<time>2010-07-31T15:38:09.93</time>
<name>3692</name>
</trkpt>
<trkpt lat="48.752078" lon="10.949273">
<ele>479.5</ele>
<speed>34.7</speed>
<course>30.2</course>
<desc>Speed 34.7 km/h Distance 112 km</desc>
<time>2010-07-31T15:38:12.92</time>
<name>3693</name>
</trkpt>
<trkpt lat="48.752178" lon="10.949362">
<ele>480.0</ele>
<speed>34.7</speed>
<course>3.5</course>
<desc>Speed 34.7 km/h Distance 112 km</desc>
<time>2010-07-31T15:38:14.92</time>
<name>3694</name>
</trkpt>
<trkpt lat="48.752790" lon="10.949418">
<ele>480.5</ele>
<speed>53.4</speed>
<course>356.4</course>
<desc>Speed 53.4 km/h Distance 112 km</desc>
<time>2010-07-31T15:38:18.91</time>
<name>3695</name>
</trkpt>
<trkpt lat="48.753020" lon="10.949397">
<ele>480.5</ele>
<speed>40.0</speed>
<course>350.1</course>
<desc>Speed 40.0 km/h Distance 112 km</desc>
<time>2010-07-31T15:38:20.91</time>
<name>3696</name>
</trkpt>
<trkpt lat="48.753127" lon="10.949368">
<ele>481.0</ele>
<speed>36.8</speed>
<course>353.6</course>
<desc>Speed 36.8 km/h Distance 112 km</desc>
<time>2010-07-31T15:38:21.90</time>
<name>3697</name>
</trkpt>
<trkpt lat="48.753333" lon="10.949333">
<ele>481.5</ele>
<speed>35.1</speed>
<course>5.1</course>
<desc>Speed 35.1 km/h Distance 112 km</desc>
<time>2010-07-31T15:38:23.90</time>
<name>3698</name>
</trkpt>
<trkpt lat="48.753898" lon="10.949410">
<ele>483.0</ele>
<speed>46.0</speed>
<course>39.7</course>
<desc>Speed 46.0 km/h Distance 112 km</desc>
<time>2010-07-31T15:38:27.88</time>
<name>3699</name>
</trkpt>
<trkpt lat="48.754067" lon="10.949622">
<ele>484.5</ele>
<speed>39.2</speed>
<course>32.0</course>
<desc>Speed 39.2 km/h Distance 112 km</desc>
<time>2010-07-31T15:38:29.88</time>
<name>3700</name>
</trkpt>
<trkpt lat="48.754378" lon="10.949917">
<ele>485.5</ele>
<speed>38.4</speed>
<course>41.2</course>
<desc>Speed 38.4 km/h Distance 112 km</desc>
<time>2010-07-31T15:38:32.88</time>
<name>3701</name>
</trkpt>
<trkpt lat="48.754460" lon="10.950025">
<ele>486.0</ele>
<speed>41.7</speed>
<course>38.3</course>
<desc>Speed 41.7 km/h Distance 112 km</desc>
<time>2010-07-31T15:38:33.87</time>
<name>3702</name>
</trkpt>
<trkpt lat="48.754660" lon="10.950265">
<ele>491.0</ele>
<speed>41.5</speed>
<course>35.8</course>
<desc>Speed 41.5 km/h Distance 112 km</desc>
<time>2010-07-31T15:38:35.86</time>
<name>3703</name>
</trkpt>
<trkpt lat="48.754822" lon="10.950442">
<ele>493.0</ele>
<speed>44.0</speed>
<course>20.1</course>
<desc>Speed 44.0 km/h Distance 113 km</desc>
<time>2010-07-31T15:38:37.85</time>
<name>3704</name>
</trkpt>
<trkpt lat="48.755062" lon="10.950575">
<ele>496.0</ele>
<speed>54.9</speed>
<course>9.9</course>
<desc>Speed 54.9 km/h Distance 113 km</desc>
<time>2010-07-31T15:38:39.88</time>
<name>3705</name>
</trkpt>
<trkpt lat="48.755377" lon="10.950658">
<ele>500.0</ele>
<speed>58.4</speed>
<course>12.7</course>
<desc>Speed 58.4 km/h Distance 113 km</desc>
<time>2010-07-31T15:38:41.84</time>
<name>3706</name>
</trkpt>
<trkpt lat="48.755528" lon="10.950710">
<ele>503.0</ele>
<speed>59.8</speed>
<course>4.6</course>
<desc>Speed 59.8 km/h Distance 113 km</desc>
<time>2010-07-31T15:38:42.84</time>
<name>3707</name>
</trkpt>
<trkpt lat="48.755678" lon="10.950728">
<ele>507.0</ele>
<speed>53.1</speed>
<course>352.4</course>
<desc>Speed 53.1 km/h Distance 113 km</desc>
<time>2010-07-31T15:38:43.83</time>
<name>3708</name>
</trkpt>
<trkpt lat="48.756000" lon="10.950663">
<ele>513.0</ele>
<speed>60.6</speed>
<course>348.3</course>
<desc>Speed 60.6 km/h Distance 113 km</desc>
<time>2010-07-31T15:38:45.83</time>
<name>3709</name>
</trkpt>
<trkpt lat="48.756143" lon="10.950618">
<ele>515.0</ele>
<speed>59.0</speed>
<course>338.3</course>
<desc>Speed 59.0 km/h Distance 113 km</desc>
<time>2010-07-31T15:38:46.82</time>
<name>3710</name>
</trkpt>
<trkpt lat="48.756273" lon="10.950540">
<ele>518.5</ele>
<speed>59.9</speed>
<course>342.8</course>
<desc>Speed 59.9 km/h Distance 113 km</desc>
<time>2010-07-31T15:38:47.82</time>
<name>3711</name>
</trkpt>
<trkpt lat="48.756405" lon="10.950478">
<ele>520.0</ele>
<speed>58.9</speed>
<course>343.8</course>
<desc>Speed 58.9 km/h Distance 113 km</desc>
<time>2010-07-31T15:38:48.81</time>
<name>3712</name>
</trkpt>
<trkpt lat="48.756545" lon="10.950417">
<ele>519.5</ele>
<speed>57.1</speed>
<course>332.1</course>
<desc>Speed 57.1 km/h Distance 113 km</desc>
<time>2010-07-31T15:38:49.81</time>
<name>3713</name>
</trkpt>
<trkpt lat="48.756765" lon="10.950240">
<ele>519.0</ele>
<speed>55.7</speed>
<course>354.5</course>
<desc>Speed 55.7 km/h Distance 113 km</desc>
<time>2010-07-31T15:38:51.81</time>
<name>3714</name>
</trkpt>
<trkpt lat="48.756993" lon="10.950207">
<ele>520.0</ele>
<speed>48.5</speed>
<course>31.4</course>
<desc>Speed 48.5 km/h Distance 113 km</desc>
<time>2010-07-31T15:38:53.80</time>
<name>3715</name>
</trkpt>
<trkpt lat="48.757247" lon="10.950442">
<ele>520.0</ele>
<speed>55.1</speed>
<course>26.5</course>
<desc>Speed 55.1 km/h Distance 113 km</desc>
<time>2010-07-31T15:38:55.79</time>
<name>3716</name>
</trkpt>
<trkpt lat="48.757357" lon="10.950525">
<ele>519.0</ele>
<speed>51.2</speed>
<course>32.5</course>
<desc>Speed 51.2 km/h Distance 113 km</desc>
<time>2010-07-31T15:38:56.78</time>
<name>3717</name>
</trkpt>
<trkpt lat="48.757453" lon="10.950618">
<ele>519.0</ele>
<speed>46.4</speed>
<course>52.0</course>
<desc>Speed 46.4 km/h Distance 113 km</desc>
<time>2010-07-31T15:38:57.78</time>
<name>3718</name>
</trkpt>
<trkpt lat="48.757748" lon="10.951192">
<ele>520.0</ele>
<speed>51.9</speed>
<course>62.4</course>
<desc>Speed 51.9 km/h Distance 113 km</desc>
<time>2010-07-31T15:39:00.77</time>
<name>3719</name>
</trkpt>
<trkpt lat="48.757835" lon="10.951443">
<ele>519.5</ele>
<speed>51.9</speed>
<course>69.1</course>
<desc>Speed 51.9 km/h Distance 113 km</desc>
<time>2010-07-31T15:39:02.77</time>
<name>3720</name>
</trkpt>
<trkpt lat="48.757920" lon="10.951782">
<ele>518.5</ele>
<speed>51.9</speed>
<course>71.5</course>
<desc>Speed 51.9 km/h Distance 113 km</desc>
<time>2010-07-31T15:39:06.75</time>
<name>3721</name>
</trkpt>
<trkpt lat="48.757988" lon="10.952092">
<ele>518.5</ele>
<speed>51.9</speed>
<course>44.6</course>
<desc>Speed 51.9 km/h Distance 113 km</desc>
<time>2010-07-31T15:39:08.75</time>
<name>3722</name>
</trkpt>
<trkpt lat="48.758298" lon="10.952555">
<ele>518.5</ele>
<speed>62.6</speed>
<course>53.7</course>
<desc>Speed 62.6 km/h Distance 113 km</desc>
<time>2010-07-31T15:39:11.74</time>
<name>3723</name>
</trkpt>
<trkpt lat="48.758477" lon="10.952923">
<ele>513.5</ele>
<speed>62.6</speed>
<course>25.9</course>
<desc>Speed 62.6 km/h Distance 113 km</desc>
<time>2010-07-31T15:39:13.74</time>
<name>3724</name>
</trkpt>
<trkpt lat="48.758775" lon="10.953143">
<ele>514.5</ele>
<speed>69.1</speed>
<course>38.5</course>
<desc>Speed 69.1 km/h Distance 113 km</desc>
<time>2010-07-31T15:39:15.73</time>
<name>3725</name>
</trkpt>
<trkpt lat="48.759117" lon="10.953555">
<ele>517.5</ele>
<speed>47.2</speed>
<course>56.3</course>
<desc>Speed 47.2 km/h Distance 113 km</desc>
<time>2010-07-31T15:39:19.72</time>
<name>3726</name>
</trkpt>
<trkpt lat="48.759888" lon="10.955313">
<ele>522.0</ele>
<speed>67.9</speed>
<course>48.1</course>
<desc>Speed 67.9 km/h Distance 113 km</desc>
<time>2010-07-31T15:39:25.70</time>
<name>3727</name>
</trkpt>
<trkpt lat="48.760300" lon="10.956010">
<ele>524.5</ele>
<speed>67.0</speed>
<course>42.4</course>
<desc>Speed 67.0 km/h Distance 113 km</desc>
<time>2010-07-31T15:39:28.68</time>
<name>3728</name>
</trkpt>
<trkpt lat="48.760507" lon="10.956297">
<ele>529.5</ele>
<speed>53.7</speed>
<course>27.3</course>
<desc>Speed 53.7 km/h Distance 113 km</desc>
<time>2010-07-31T15:39:30.68</time>
<name>3729</name>
</trkpt>
<trkpt lat="48.760613" lon="10.956380">
<ele>530.5</ele>
<speed>47.2</speed>
<course>17.3</course>
<desc>Speed 47.2 km/h Distance 113 km</desc>
<time>2010-07-31T15:39:31.68</time>
<name>3730</name>
</trkpt>
<trkpt lat="48.760737" lon="10.956438">
<ele>532.5</ele>
<speed>49.3</speed>
<course>2.7</course>
<desc>Speed 49.3 km/h Distance 113 km</desc>
<time>2010-07-31T15:39:32.67</time>
<name>3731</name>
</trkpt>
<trkpt lat="48.760853" lon="10.956447">
<ele>534.0</ele>
<speed>44.9</speed>
<course>3.1</course>
<desc>Speed 44.9 km/h Distance 113 km</desc>
<time>2010-07-31T15:39:33.67</time>
<name>3732</name>
</trkpt>
<trkpt lat="48.761417" lon="10.956493">
<ele>537.0</ele>
<speed>39.1</speed>
<course>9.9</course>
<desc>Speed 39.1 km/h Distance 113 km</desc>
<time>2010-07-31T15:39:37.66</time>
<name>3733</name>
</trkpt>
<trkpt lat="48.761505" lon="10.956517">
<ele>536.5</ele>
<speed>39.1</speed>
<course>18.9</course>
<desc>Speed 39.1 km/h Distance 113 km</desc>
<time>2010-07-31T15:39:38.65</time>
<name>3734</name>
</trkpt>
<trkpt lat="48.761588" lon="10.956560">
<ele>536.5</ele>
<speed>39.1</speed>
<course>27.6</course>
<desc>Speed 39.1 km/h Distance 113 km</desc>
<time>2010-07-31T15:39:39.66</time>
<name>3735</name>
</trkpt>
<trkpt lat="48.761813" lon="10.956738">
<ele>538.5</ele>
<speed>39.1</speed>
<course>16.0</course>
<desc>Speed 39.1 km/h Distance 114 km</desc>
<time>2010-07-31T15:39:41.65</time>
<name>3736</name>
</trkpt>
<trkpt lat="48.761952" lon="10.956798">
<ele>540.5</ele>
<speed>39.1</speed>
<course>37.0</course>
<desc>Speed 39.1 km/h Distance 114 km</desc>
<time>2010-07-31T15:39:44.63</time>
<name>3737</name>
</trkpt>
<trkpt lat="48.762067" lon="10.956930">
<ele>543.5</ele>
<speed>39.1</speed>
<course>63.7</course>
<desc>Speed 39.1 km/h Distance 114 km</desc>
<time>2010-07-31T15:39:47.62</time>
<name>3738</name>
</trkpt>
<trkpt lat="48.762113" lon="10.957073">
<ele>547.0</ele>
<speed>39.1</speed>
<course>60.1</course>
<desc>Speed 39.1 km/h Distance 114 km</desc>
<time>2010-07-31T15:39:48.62</time>
<name>3739</name>
</trkpt>
<trkpt lat="48.762178" lon="10.957245">
<ele>549.0</ele>
<speed>39.1</speed>
<course>0.0</course>
<desc>Speed 39.1 km/h Distance 114 km</desc>
<time>2010-07-31T15:39:52.61</time>
<name>3740</name>
</trkpt>
<trkpt lat="48.762220" lon="10.957245">
<ele>549.5</ele>
<speed>39.1</speed>
<course>332.0</course>
<desc>Speed 39.1 km/h Distance 114 km</desc>
<time>2010-07-31T15:39:57.59</time>
<name>3741</name>
</trkpt>
<trkpt lat="48.764057" lon="10.955762">
<ele>545.0</ele>
<speed>39.1</speed>
<course>323.2</course>
<desc>Speed 39.1 km/h Distance 114 km</desc>
<time>2010-07-31T15:40:00.58</time>
<name>3742</name>
</trkpt>
<trkpt lat="48.765797" lon="10.953785">
<ele>544.0</ele>
<speed>96.9</speed>
<course>312.8</course>
<desc>Speed 96.9 km/h Distance 114 km</desc>
<time>2010-07-31T15:40:06.56</time>
<name>3743</name>
</trkpt>
<trkpt lat="48.765953" lon="10.953528">
<ele>543.5</ele>
<speed>97.3</speed>
<course>326.3</course>
<desc>Speed 97.3 km/h Distance 114 km</desc>
<time>2010-07-31T15:40:07.56</time>
<name>3744</name>
</trkpt>
<trkpt lat="48.766570" lon="10.952903">
<ele>539.0</ele>
<speed>55.8</speed>
<course>23.1</course>
<desc>Speed 55.8 km/h Distance 114 km</desc>
<time>2010-07-31T15:40:13.55</time>
<name>3745</name>
</trkpt>
<trkpt lat="48.766802" lon="10.953053">
<ele>535.0</ele>
<speed>55.8</speed>
<course>14.9</course>
<desc>Speed 55.8 km/h Distance 114 km</desc>
<time>2010-07-31T15:40:18.54</time>
<name>3746</name>
</trkpt>
<trkpt lat="48.768342" lon="10.953675">
<ele>509.0</ele>
<speed>108</speed>
<course>16.7</course>
<desc>Speed 108 km/h Distance 114 km</desc>
<time>2010-07-31T15:40:24.51</time>
<name>3747</name>
</trkpt>
<trkpt lat="48.769632" lon="10.954263">
<ele>487.0</ele>
<speed>98.7</speed>
<course>33.6</course>
<desc>Speed 98.7 km/h Distance 115 km</desc>
<time>2010-07-31T15:40:28.49</time>
<name>3748</name>
</trkpt>
<trkpt lat="48.770028" lon="10.954663">
<ele>487.0</ele>
<speed>98.7</speed>
<course>37.1</course>
<desc>Speed 98.7 km/h Distance 115 km</desc>
<time>2010-07-31T15:40:30.49</time>
<name>3749</name>
</trkpt>
<trkpt lat="48.770388" lon="10.955077">
<ele>487.5</ele>
<speed>111</speed>
<course>38.1</course>
<desc>Speed 111 km/h Distance 115 km</desc>
<time>2010-07-31T15:40:32.48</time>
<name>3750</name>
</trkpt>
<trkpt lat="48.771425" lon="10.956312">
<ele>488.0</ele>
<speed>96.9</speed>
<course>31.3</course>
<desc>Speed 96.9 km/h Distance 115 km</desc>
<time>2010-07-31T15:40:36.46</time>
<name>3751</name>
</trkpt>
<trkpt lat="48.771865" lon="10.956718">
<ele>488.0</ele>
<speed>103</speed>
<course>29.4</course>
<desc>Speed 103 km/h Distance 115 km</desc>
<time>2010-07-31T15:40:38.45</time>
<name>3752</name>
</trkpt>
<trkpt lat="48.773645" lon="10.958243">
<ele>490.5</ele>
<speed>112</speed>
<course>35.1</course>
<desc>Speed 112 km/h Distance 115 km</desc>
<time>2010-07-31T15:40:44.43</time>
<name>3753</name>
</trkpt>
<trkpt lat="48.774463" lon="10.959117">
<ele>492.0</ele>
<speed>89.0</speed>
<course>24.1</course>
<desc>Speed 89.0 km/h Distance 115 km</desc>
<time>2010-07-31T15:40:48.41</time>
<name>3754</name>
</trkpt>
<trkpt lat="48.775115" lon="10.959558">
<ele>490.0</ele>
<speed>57.2</speed>
<course>0.7</course>
<desc>Speed 57.2 km/h Distance 115 km</desc>
<time>2010-07-31T15:40:53.39</time>
<name>3755</name>
</trkpt>
<trkpt lat="48.775390" lon="10.959563">
<ele>489.5</ele>
<speed>57.2</speed>
<course>15.2</course>
<desc>Speed 57.2 km/h Distance 115 km</desc>
<time>2010-07-31T15:40:56.39</time>
<name>3756</name>
</trkpt>
<trkpt lat="48.775543" lon="10.959627">
<ele>493.5</ele>
<speed>57.2</speed>
<course>359.1</course>
<desc>Speed 57.2 km/h Distance 115 km</desc>
<time>2010-07-31T15:40:57.38</time>
<name>3757</name>
</trkpt>
<trkpt lat="48.775875" lon="10.959618">
<ele>503.5</ele>
<speed>57.2</speed>
<course>341.4</course>
<desc>Speed 57.2 km/h Distance 115 km</desc>
<time>2010-07-31T15:40:59.37</time>
<name>3758</name>
</trkpt>
<trkpt lat="48.777122" lon="10.958983">
<ele>502.5</ele>
<speed>57.2</speed>
<course>303.6</course>
<desc>Speed 57.2 km/h Distance 115 km</desc>
<time>2010-07-31T15:41:01.36</time>
<name>3759</name>
</trkpt>
<trkpt lat="48.778238" lon="10.956430">
<ele>502.0</ele>
<speed>57.2</speed>
<course>320.8</course>
<desc>Speed 57.2 km/h Distance 116 km</desc>
<time>2010-07-31T15:41:08.34</time>
<name>3760</name>
</trkpt>
<trkpt lat="48.778350" lon="10.956292">
<ele>501.0</ele>
<speed>57.2</speed>
<course>297.8</course>
<desc>Speed 57.2 km/h Distance 116 km</desc>
<time>2010-07-31T15:41:09.34</time>
<name>3761</name>
</trkpt>
<trkpt lat="48.778703" lon="10.955277">
<ele>495.5</ele>
<speed>51.1</speed>
<course>298.1</course>
<desc>Speed 51.1 km/h Distance 116 km</desc>
<time>2010-07-31T15:41:13.32</time>
<name>3762</name>
</trkpt>
<trkpt lat="48.778757" lon="10.955125">
<ele>495.0</ele>
<speed>51.1</speed>
<course>292.5</course>
<desc>Speed 51.1 km/h Distance 116 km</desc>
<time>2010-07-31T15:41:14.32</time>
<name>3763</name>
</trkpt>
<trkpt lat="48.778847" lon="10.954795">
<ele>494.0</ele>
<speed>57.6</speed>
<course>303.9</course>
<desc>Speed 57.6 km/h Distance 116 km</desc>
<time>2010-07-31T15:41:16.31</time>
<name>3764</name>
</trkpt>
<trkpt lat="48.779083" lon="10.954260">
<ele>486.5</ele>
<speed>28.1</speed>
<course>317.2</course>
<desc>Speed 28.1 km/h Distance 116 km</desc>
<time>2010-07-31T15:41:21.27</time>
<name>3765</name>
</trkpt>
<trkpt lat="48.779153" lon="10.954162">
<ele>487.0</ele>
<speed>28.1</speed>
<course>344.5</course>
<desc>Speed 28.1 km/h Distance 116 km</desc>
<time>2010-07-31T15:41:23.26</time>
<name>3766</name>
</trkpt>
<trkpt lat="48.779260" lon="10.954117">
<ele>489.0</ele>
<speed>28.1</speed>
<course>346.4</course>
<desc>Speed 28.1 km/h Distance 116 km</desc>
<time>2010-07-31T15:41:25.25</time>
<name>3767</name>
</trkpt>
<trkpt lat="48.779392" lon="10.954068">
<ele>494.5</ele>
<speed>28.1</speed>
<course>345.8</course>
<desc>Speed 28.1 km/h Distance 116 km</desc>
<time>2010-07-31T15:41:27.23</time>
<name>3768</name>
</trkpt>
<trkpt lat="48.779513" lon="10.954022">
<ele>498.0</ele>
<speed>28.1</speed>
<course>341.8</course>
<desc>Speed 28.1 km/h Distance 116 km</desc>
<time>2010-07-31T15:41:29.22</time>
<name>3769</name>
</trkpt>
<trkpt lat="48.779580" lon="10.953988">
<ele>494.0</ele>
<speed>28.1</speed>
<course>347.9</course>
<desc>Speed 28.1 km/h Distance 116 km</desc>
<time>2010-07-31T15:41:31.21</time>
<name>3770</name>
</trkpt>
<trkpt lat="48.779642" lon="10.953968">
<ele>487.0</ele>
<speed>28.1</speed>
<course>325.0</course>
<desc>Speed 28.1 km/h Distance 116 km</desc>
<time>2010-07-31T15:41:32.20</time>
<name>3771</name>
</trkpt>
<trkpt lat="48.780653" lon="10.952893">
<ele>482.0</ele>
<speed>52.1</speed>
<course>324.1</course>
<desc>Speed 52.1 km/h Distance 116 km</desc>
<time>2010-07-31T15:41:38.16</time>
<name>3772</name>
</trkpt>
<trkpt lat="48.780903" lon="10.952618">
<ele>482.0</ele>
<speed>52.1</speed>
<course>314.8</course>
<desc>Speed 52.1 km/h Distance 116 km</desc>
<time>2010-07-31T15:41:41.24</time>
<name>3773</name>
</trkpt>
<trkpt lat="48.781087" lon="10.952338">
<ele>482.0</ele>
<speed>52.1</speed>
<course>346.9</course>
<desc>Speed 52.1 km/h Distance 116 km</desc>
<time>2010-07-31T15:41:44.13</time>
<name>3774</name>
</trkpt>
<trkpt lat="48.781342" lon="10.952248">
<ele>482.0</ele>
<speed>46.3</speed>
<course>17.7</course>
<desc>Speed 46.3 km/h Distance 116 km</desc>
<time>2010-07-31T15:41:49.11</time>
<name>3775</name>
</trkpt>
<trkpt lat="48.782028" lon="10.952580">
<ele>475.5</ele>
<speed>60.6</speed>
<course>355.2</course>
<desc>Speed 60.6 km/h Distance 116 km</desc>
<time>2010-07-31T15:41:53.10</time>
<name>3776</name>
</trkpt>
<trkpt lat="48.782857" lon="10.952473">
<ele>482.0</ele>
<speed>69.9</speed>
<course>2.4</course>
<desc>Speed 69.9 km/h Distance 116 km</desc>
<time>2010-07-31T15:41:57.09</time>
<name>3777</name>
</trkpt>
<trkpt lat="48.783038" lon="10.952485">
<ele>482.5</ele>
<speed>70.0</speed>
<course>24.0</course>
<desc>Speed 70.0 km/h Distance 116 km</desc>
<time>2010-07-31T15:41:58.08</time>
<name>3778</name>
</trkpt>
<trkpt lat="48.783522" lon="10.952812">
<ele>479.0</ele>
<speed>58.6</speed>
<course>27.2</course>
<desc>Speed 58.6 km/h Distance 116 km</desc>
<time>2010-07-31T15:42:01.06</time>
<name>3779</name>
</trkpt>
<trkpt lat="48.783847" lon="10.953065">
<ele>480.5</ele>
<speed>15.8</speed>
<course>357.9</course>
<desc>Speed 15.8 km/h Distance 116 km</desc>
<time>2010-07-31T15:42:07.04</time>
<name>3780</name>
</trkpt>
<trkpt lat="48.783965" lon="10.953058">
<ele>482.0</ele>
<speed>15.8</speed>
<course>348.9</course>
<desc>Speed 15.8 km/h Distance 116 km</desc>
<time>2010-07-31T15:42:09.03</time>
<name>3781</name>
</trkpt>
<trkpt lat="48.784010" lon="10.953045">
<ele>481.5</ele>
<speed>15.8</speed>
<course>321.4</course>
<desc>Speed 15.8 km/h Distance 116 km</desc>
<time>2010-07-31T15:42:10.02</time>
<name>3782</name>
</trkpt>
<trkpt lat="48.784177" lon="10.952843">
<ele>479.5</ele>
<speed>15.8</speed>
<course>340.6</course>
<desc>Speed 15.8 km/h Distance 117 km</desc>
<time>2010-07-31T15:42:13.00</time>
<name>3783</name>
</trkpt>
<trkpt lat="48.785220" lon="10.952285">
<ele>479.0</ele>
<speed>15.8</speed>
<course>289.1</course>
<desc>Speed 15.8 km/h Distance 117 km</desc>
<time>2010-07-31T15:42:16.97</time>
<name>3784</name>
</trkpt>
<trkpt lat="48.785507" lon="10.951028">
<ele>475.0</ele>
<speed>120</speed>
<course>293.8</course>
<desc>Speed 120 km/h Distance 117 km</desc>
<time>2010-07-31T15:42:18.95</time>
<name>3785</name>
</trkpt>
<trkpt lat="48.786583" lon="10.947322">
<ele>480.0</ele>
<speed>121</speed>
<course>298.2</course>
<desc>Speed 121 km/h Distance 117 km</desc>
<time>2010-07-31T15:42:25.08</time>
<name>3786</name>
</trkpt>
<trkpt lat="48.787050" lon="10.946003">
<ele>479.5</ele>
<speed>129</speed>
<course>322.4</course>
<desc>Speed 129 km/h Distance 117 km</desc>
<time>2010-07-31T15:42:27.91</time>
<name>3787</name>
</trkpt>
<trkpt lat="48.788163" lon="10.944703">
<ele>477.5</ele>
<speed>77.3</speed>
<course>324.9</course>
<desc>Speed 77.3 km/h Distance 117 km</desc>
<time>2010-07-31T15:42:33.87</time>
<name>3788</name>
</trkpt>
<trkpt lat="48.788313" lon="10.944543">
<ele>477.5</ele>
<speed>71.7</speed>
<course>323.2</course>
<desc>Speed 71.7 km/h Distance 117 km</desc>
<time>2010-07-31T15:42:34.86</time>
<name>3789</name>
</trkpt>
<trkpt lat="48.788450" lon="10.944388">
<ele>478.0</ele>
<speed>67.0</speed>
<course>322.3</course>
<desc>Speed 67.0 km/h Distance 117 km</desc>
<time>2010-07-31T15:42:35.85</time>
<name>3790</name>
</trkpt>
<trkpt lat="48.788577" lon="10.944240">
<ele>478.0</ele>
<speed>63.5</speed>
<course>323.3</course>
<desc>Speed 63.5 km/h Distance 117 km</desc>
<time>2010-07-31T15:42:36.85</time>
<name>3791</name>
</trkpt>
<trkpt lat="48.788702" lon="10.944098">
<ele>478.0</ele>
<speed>61.5</speed>
<course>327.3</course>
<desc>Speed 61.5 km/h Distance 117 km</desc>
<time>2010-07-31T15:42:37.85</time>
<name>3792</name>
</trkpt>
<trkpt lat="48.788832" lon="10.943972">
<ele>477.5</ele>
<speed>61.6</speed>
<course>333.4</course>
<desc>Speed 61.6 km/h Distance 117 km</desc>
<time>2010-07-31T15:42:38.84</time>
<name>3793</name>
</trkpt>
<trkpt lat="48.789557" lon="10.943422">
<ele>477.0</ele>
<speed>83.9</speed>
<course>334.2</course>
<desc>Speed 83.9 km/h Distance 117 km</desc>
<time>2010-07-31T15:42:42.84</time>
<name>3794</name>
</trkpt>
<trkpt lat="48.790110" lon="10.943015">
<ele>479.0</ele>
<speed>83.9</speed>
<course>329.3</course>
<desc>Speed 83.9 km/h Distance 118 km</desc>
<time>2010-07-31T15:42:47.81</time>
<name>3795</name>
</trkpt>
<trkpt lat="48.790658" lon="10.942522">
<ele>476.5</ele>
<speed>83.9</speed>
<course>329.5</course>
<desc>Speed 83.9 km/h Distance 118 km</desc>
<time>2010-07-31T15:42:51.78</time>
<name>3796</name>
</trkpt>
<trkpt lat="48.791022" lon="10.942197">
<ele>466.5</ele>
<speed>83.9</speed>
<course>343.1</course>
<desc>Speed 83.9 km/h Distance 118 km</desc>
<time>2010-07-31T15:42:53.77</time>
<name>3797</name>
</trkpt>
<trkpt lat="48.791217" lon="10.942107">
<ele>463.0</ele>
<speed>83.9</speed>
<course>313.8</course>
<desc>Speed 83.9 km/h Distance 118 km</desc>
<time>2010-07-31T15:42:54.76</time>
<name>3798</name>
</trkpt>
<trkpt lat="48.792462" lon="10.940138">
<ele>465.0</ele>
<speed>83.9</speed>
<course>277.3</course>
<desc>Speed 83.9 km/h Distance 118 km</desc>
<time>2010-07-31T15:43:00.72</time>
<name>3799</name>
</trkpt>
<trkpt lat="48.792598" lon="10.938522">
<ele>464.0</ele>
<speed>83.9</speed>
<course>279.5</course>
<desc>Speed 83.9 km/h Distance 118 km</desc>
<time>2010-07-31T15:43:04.69</time>
<name>3800</name>
</trkpt>
<trkpt lat="48.792683" lon="10.937750">
<ele>463.0</ele>
<speed>83.9</speed>
<course>278.3</course>
<desc>Speed 83.9 km/h Distance 118 km</desc>
<time>2010-07-31T15:43:07.68</time>
<name>3801</name>
</trkpt>
<trkpt lat="48.792735" lon="10.937210">
<ele>462.5</ele>
<speed>83.9</speed>
<course>287.2</course>
<desc>Speed 83.9 km/h Distance 118 km</desc>
<time>2010-07-31T15:43:09.67</time>
<name>3802</name>
</trkpt>
<trkpt lat="48.793275" lon="10.934557">
<ele>463.0</ele>
<speed>83.9</speed>
<course>250.6</course>
<desc>Speed 83.9 km/h Distance 118 km</desc>
<time>2010-07-31T15:43:13.66</time>
<name>3803</name>
</trkpt>
<trkpt lat="48.792912" lon="10.932988">
<ele>463.0</ele>
<speed>90.3</speed>
<course>273.3</course>
<desc>Speed 90.3 km/h Distance 118 km</desc>
<time>2010-07-31T15:43:17.63</time>
<name>3804</name>
</trkpt>
<trkpt lat="48.792955" lon="10.931855">
<ele>461.5</ele>
<speed>101</speed>
<course>286.5</course>
<desc>Speed 101 km/h Distance 119 km</desc>
<time>2010-07-31T15:43:21.60</time>
<name>3805</name>
</trkpt>
<trkpt lat="48.793027" lon="10.931488">
<ele>461.5</ele>
<speed>96.1</speed>
<course>279.3</course>
<desc>Speed 96.1 km/h Distance 119 km</desc>
<time>2010-07-31T15:43:22.60</time>
<name>3806</name>
</trkpt>
<trkpt lat="48.793105" lon="10.930758">
<ele>461.5</ele>
<speed>93.6</speed>
<course>263.1</course>
<desc>Speed 93.6 km/h Distance 119 km</desc>
<time>2010-07-31T15:43:24.59</time>
<name>3807</name>
</trkpt>
<trkpt lat="48.793020" lon="10.929690">
<ele>461.5</ele>
<speed>93.6</speed>
<course>248.8</course>
<desc>Speed 93.6 km/h Distance 119 km</desc>
<time>2010-07-31T15:43:28.55</time>
<name>3808</name>
</trkpt>
<trkpt lat="48.792273" lon="10.926762">
<ele>477.5</ele>
<speed>85.1</speed>
<course>245.8</course>
<desc>Speed 85.1 km/h Distance 119 km</desc>
<time>2010-07-31T15:43:34.52</time>
<name>3809</name>
</trkpt>
<trkpt lat="48.792117" lon="10.926233">
<ele>485.5</ele>
<speed>85.1</speed>
<course>235.1</course>
<desc>Speed 85.1 km/h Distance 119 km</desc>
<time>2010-07-31T15:43:36.51</time>
<name>3810</name>
</trkpt>
<trkpt lat="48.791503" lon="10.924898">
<ele>498.0</ele>
<speed>95.0</speed>
<course>238.9</course>
<desc>Speed 95.0 km/h Distance 119 km</desc>
<time>2010-07-31T15:43:40.49</time>
<name>3811</name>
</trkpt>
<trkpt lat="48.791238" lon="10.924232">
<ele>499.5</ele>
<speed>93.5</speed>
<course>246.3</course>
<desc>Speed 93.5 km/h Distance 119 km</desc>
<time>2010-07-31T15:43:42.48</time>
<name>3812</name>
</trkpt>
<trkpt lat="48.790902" lon="10.923065">
<ele>496.0</ele>
<speed>108</speed>
<course>259.8</course>
<desc>Speed 108 km/h Distance 119 km</desc>
<time>2010-07-31T15:43:45.47</time>
<name>3813</name>
</trkpt>
<trkpt lat="48.790852" lon="10.922645">
<ele>495.0</ele>
<speed>105</speed>
<course>255.7</course>
<desc>Speed 105 km/h Distance 119 km</desc>
<time>2010-07-31T15:43:46.47</time>
<name>3814</name>
</trkpt>
<trkpt lat="48.790788" lon="10.922268">
<ele>494.5</ele>
<speed>100</speed>
<course>255.7</course>
<desc>Speed 100 km/h Distance 119 km</desc>
<time>2010-07-31T15:43:47.47</time>
<name>3815</name>
</trkpt>
<trkpt lat="48.790728" lon="10.921912">
<ele>494.5</ele>
<speed>94.5</speed>
<course>256.6</course>
<desc>Speed 94.5 km/h Distance 119 km</desc>
<time>2010-07-31T15:43:48.46</time>
<name>3816</name>
</trkpt>
<trkpt lat="48.790673" lon="10.921560">
<ele>494.5</ele>
<speed>92.1</speed>
<course>255.4</course>
<desc>Speed 92.1 km/h Distance 119 km</desc>
<time>2010-07-31T15:43:49.46</time>
<name>3817</name>
</trkpt>
<trkpt lat="48.790612" lon="10.921200">
<ele>495.0</ele>
<speed>94.6</speed>
<course>259.9</course>
<desc>Speed 94.6 km/h Distance 119 km</desc>
<time>2010-07-31T15:43:50.45</time>
<name>3818</name>
</trkpt>
<trkpt lat="48.790532" lon="10.920517">
<ele>492.5</ele>
<speed>102</speed>
<course>255.9</course>
<desc>Speed 102 km/h Distance 119 km</desc>
<time>2010-07-31T15:43:52.45</time>
<name>3819</name>
</trkpt>
<trkpt lat="48.790312" lon="10.919187">
<ele>489.5</ele>
<speed>102</speed>
<course>288.5</course>
<desc>Speed 102 km/h Distance 120 km</desc>
<time>2010-07-31T15:43:58.40</time>
<name>3820</name>
</trkpt>
<trkpt lat="48.790543" lon="10.918133">
<ele>461.0</ele>
<speed>102</speed>
<course>276.7</course>
<desc>Speed 102 km/h Distance 120 km</desc>
<time>2010-07-31T15:44:04.37</time>
<name>3821</name>
</trkpt>
<trkpt lat="48.790597" lon="10.917442">
<ele>466.0</ele>
<speed>102</speed>
<course>288.4</course>
<desc>Speed 102 km/h Distance 120 km</desc>
<time>2010-07-31T15:44:06.36</time>
<name>3822</name>
</trkpt>
<trkpt lat="48.790693" lon="10.917002">
<ele>453.0</ele>
<speed>102</speed>
<course>279.6</course>
<desc>Speed 102 km/h Distance 120 km</desc>
<time>2010-07-31T15:44:12.31</time>
<name>3823</name>
</trkpt>
<trkpt lat="48.790838" lon="10.915695">
<ele>456.0</ele>
<speed>102</speed>
<course>300.3</course>
<desc>Speed 102 km/h Distance 120 km</desc>
<time>2010-07-31T15:44:18.29</time>
<name>3824</name>
</trkpt>
<trkpt lat="48.791118" lon="10.914967">
<ele>459.5</ele>
<speed>102</speed>
<course>276.9</course>
<desc>Speed 102 km/h Distance 120 km</desc>
<time>2010-07-31T15:44:24.27</time>
<name>3825</name>
</trkpt>
<trkpt lat="48.791255" lon="10.913247">
<ele>458.0</ele>
<speed>70.3</speed>
<course>295.6</course>
<desc>Speed 70.3 km/h Distance 120 km</desc>
<time>2010-07-31T15:44:29.25</time>
<name>3826</name>
</trkpt>
<trkpt lat="48.791787" lon="10.911565">
<ele>447.5</ele>
<speed>52.1</speed>
<course>260.2</course>
<desc>Speed 52.1 km/h Distance 120 km</desc>
<time>2010-07-31T15:44:34.23</time>
<name>3827</name>
</trkpt>
<trkpt lat="48.791508" lon="10.909115">
<ele>459.5</ele>
<speed>52.4</speed>
<course>267.9</course>
<desc>Speed 52.4 km/h Distance 120 km</desc>
<time>2010-07-31T15:44:40.21</time>
<name>3828</name>
</trkpt>
<trkpt lat="48.791498" lon="10.908698">
<ele>462.0</ele>
<speed>52.4</speed>
<course>267.7</course>
<desc>Speed 52.4 km/h Distance 120 km</desc>
<time>2010-07-31T15:44:43.21</time>
<name>3829</name>
</trkpt>
<trkpt lat="48.791487" lon="10.908260">
<ele>462.0</ele>
<speed>56.3</speed>
<course>273.8</course>
<desc>Speed 56.3 km/h Distance 120 km</desc>
<time>2010-07-31T15:44:46.20</time>
<name>3830</name>
</trkpt>
<trkpt lat="48.791543" lon="10.906958">
<ele>463.0</ele>
<speed>51.5</speed>
<course>273.1</course>
<desc>Speed 51.5 km/h Distance 120 km</desc>
<time>2010-07-31T15:44:48.20</time>
<name>3831</name>
</trkpt>
<trkpt lat="48.791590" lon="10.905652">
<ele>463.0</ele>
<speed>59.0</speed>
<course>283.2</course>
<desc>Speed 59.0 km/h Distance 121 km</desc>
<time>2010-07-31T15:44:51.17</time>
<name>3832</name>
</trkpt>
<trkpt lat="48.791855" lon="10.903932">
<ele>463.0</ele>
<speed>61.1</speed>
<course>291.0</course>
<desc>Speed 61.1 km/h Distance 121 km</desc>
<time>2010-07-31T15:44:56.14</time>
<name>3833</name>
</trkpt>
<trkpt lat="48.791980" lon="10.903437">
<ele>463.0</ele>
<speed>65.8</speed>
<course>291.3</course>
<desc>Speed 65.8 km/h Distance 121 km</desc>
<time>2010-07-31T15:44:58.12</time>
<name>3834</name>
</trkpt>
<trkpt lat="48.792042" lon="10.903197">
<ele>463.0</ele>
<speed>63.1</speed>
<course>292.7</course>
<desc>Speed 63.1 km/h Distance 121 km</desc>
<time>2010-07-31T15:44:59.11</time>
<name>3835</name>
</trkpt>
<trkpt lat="48.792178" lon="10.902702">
<ele>463.5</ele>
<speed>65.1</speed>
<course>290.1</course>
<desc>Speed 65.1 km/h Distance 121 km</desc>
<time>2010-07-31T15:45:01.11</time>
<name>3836</name>
</trkpt>
<trkpt lat="48.792305" lon="10.902177">
<ele>464.0</ele>
<speed>69.4</speed>
<course>286.9</course>
<desc>Speed 69.4 km/h Distance 121 km</desc>
<time>2010-07-31T15:45:03.10</time>
<name>3837</name>
</trkpt>
<trkpt lat="48.792483" lon="10.901287">
<ele>464.0</ele>
<speed>69.6</speed>
<course>280.4</course>
<desc>Speed 69.6 km/h Distance 121 km</desc>
<time>2010-07-31T15:45:06.07</time>
<name>3838</name>
</trkpt>
<trkpt lat="48.792517" lon="10.901012">
<ele>464.0</ele>
<speed>69.6</speed>
<course>309.0</course>
<desc>Speed 69.6 km/h Distance 121 km</desc>
<time>2010-07-31T15:45:07.07</time>
<name>3839</name>
</trkpt>
<trkpt lat="48.793078" lon="10.899958">
<ele>464.5</ele>
<speed>83.6</speed>
<course>323.6</course>
<desc>Speed 83.6 km/h Distance 121 km</desc>
<time>2010-07-31T15:45:11.05</time>
<name>3840</name>
</trkpt>
<trkpt lat="48.793690" lon="10.899273">
<ele>467.0</ele>
<speed>82.1</speed>
<course>325.2</course>
<desc>Speed 82.1 km/h Distance 121 km</desc>
<time>2010-07-31T15:45:14.03</time>
<name>3841</name>
</trkpt>
<trkpt lat="48.793872" lon="10.899082">
<ele>466.5</ele>
<speed>82.9</speed>
<course>309.8</course>
<desc>Speed 82.9 km/h Distance 121 km</desc>
<time>2010-07-31T15:45:15.03</time>
<name>3842</name>
</trkpt>
<trkpt lat="48.794292" lon="10.898317">
<ele>468.5</ele>
<speed>97.4</speed>
<course>301.7</course>
<desc>Speed 97.4 km/h Distance 121 km</desc>
<time>2010-07-31T15:45:18.00</time>
<name>3843</name>
</trkpt>
<trkpt lat="48.794425" lon="10.897988">
<ele>469.0</ele>
<speed>101</speed>
<course>301.9</course>
<desc>Speed 101 km/h Distance 121 km</desc>
<time>2010-07-31T15:45:19.00</time>
<name>3844</name>
</trkpt>
<trkpt lat="48.794557" lon="10.897667">
<ele>471.0</ele>
<speed>95.3</speed>
<course>296.4</course>
<desc>Speed 95.3 km/h Distance 121 km</desc>
<time>2010-07-31T15:45:19.98</time>
<name>3845</name>
</trkpt>
<trkpt lat="48.794768" lon="10.897020">
<ele>472.0</ele>
<speed>84.3</speed>
<course>295.5</course>
<desc>Speed 84.3 km/h Distance 121 km</desc>
<time>2010-07-31T15:45:21.97</time>
<name>3846</name>
</trkpt>
<trkpt lat="48.794932" lon="10.896500">
<ele>475.0</ele>
<speed>70.2</speed>
<course>268.2</course>
<desc>Speed 70.2 km/h Distance 121 km</desc>
<time>2010-07-31T15:45:23.96</time>
<name>3847</name>
</trkpt>
<trkpt lat="48.794875" lon="10.893728">
<ele>484.0</ele>
<speed>116</speed>
<course>270.2</course>
<desc>Speed 116 km/h Distance 122 km</desc>
<time>2010-07-31T15:45:29.92</time>
<name>3848</name>
</trkpt>
<trkpt lat="48.794877" lon="10.892900">
<ele>491.0</ele>
<speed>115</speed>
<course>263.6</course>
<desc>Speed 115 km/h Distance 122 km</desc>
<time>2010-07-31T15:45:31.90</time>
<name>3849</name>
</trkpt>
<trkpt lat="48.794780" lon="10.891602">
<ele>498.0</ele>
<speed>94.8</speed>
<course>269.2</course>
<desc>Speed 94.8 km/h Distance 122 km</desc>
<time>2010-07-31T15:45:34.88</time>
<name>3850</name>
</trkpt>
<trkpt lat="48.794777" lon="10.891253">
<ele>498.0</ele>
<speed>91.3</speed>
<course>274.5</course>
<desc>Speed 91.3 km/h Distance 122 km</desc>
<time>2010-07-31T15:45:35.87</time>
<name>3851</name>
</trkpt>
<trkpt lat="48.794815" lon="10.890513">
<ele>496.5</ele>
<speed>97.8</speed>
<course>276.9</course>
<desc>Speed 97.8 km/h Distance 122 km</desc>
<time>2010-07-31T15:45:37.86</time>
<name>3852</name>
</trkpt>
<trkpt lat="48.794915" lon="10.889250">
<ele>502.0</ele>
<speed>95.9</speed>
<course>267.8</course>
<desc>Speed 95.9 km/h Distance 122 km</desc>
<time>2010-07-31T15:45:41.83</time>
<name>3853</name>
</trkpt>
<trkpt lat="48.794868" lon="10.887437">
<ele>505.5</ele>
<speed>111</speed>
<course>265.2</course>
<desc>Speed 111 km/h Distance 122 km</desc>
<time>2010-07-31T15:45:45.80</time>
<name>3854</name>
</trkpt>
<trkpt lat="48.794845" lon="10.887013">
<ele>504.0</ele>
<speed>112</speed>
<course>265.9</course>
<desc>Speed 112 km/h Distance 122 km</desc>
<time>2010-07-31T15:45:46.80</time>
<name>3855</name>
</trkpt>
<trkpt lat="48.794803" lon="10.886128">
<ele>497.0</ele>
<speed>103</speed>
<course>268.9</course>
<desc>Speed 103 km/h Distance 122 km</desc>
<time>2010-07-31T15:45:48.79</time>
<name>3856</name>
</trkpt>
<trkpt lat="48.794798" lon="10.885733">
<ele>497.0</ele>
<speed>103</speed>
<course>270.7</course>
<desc>Speed 103 km/h Distance 122 km</desc>
<time>2010-07-31T15:45:49.78</time>
<name>3857</name>
</trkpt>
<trkpt lat="48.794802" lon="10.885327">
<ele>495.5</ele>
<speed>109</speed>
<course>275.4</course>
<desc>Speed 109 km/h Distance 122 km</desc>
<time>2010-07-31T15:45:50.78</time>
<name>3858</name>
</trkpt>
<trkpt lat="48.794827" lon="10.884925">
<ele>495.0</ele>
<speed>103</speed>
<course>277.3</course>
<desc>Speed 103 km/h Distance 122 km</desc>
<time>2010-07-31T15:45:51.78</time>
<name>3859</name>
</trkpt>
<trkpt lat="48.794892" lon="10.884157">
<ele>492.5</ele>
<speed>91.7</speed>
<course>281.5</course>
<desc>Speed 91.7 km/h Distance 122 km</desc>
<time>2010-07-31T15:45:53.77</time>
<name>3860</name>
</trkpt>
<trkpt lat="48.794937" lon="10.883820">
<ele>491.5</ele>
<speed>90.8</speed>
<course>288.2</course>
<desc>Speed 90.8 km/h Distance 122 km</desc>
<time>2010-07-31T15:45:54.77</time>
<name>3861</name>
</trkpt>
<trkpt lat="48.795112" lon="10.883013">
<ele>488.5</ele>
<speed>74.6</speed>
<course>304.2</course>
<desc>Speed 74.6 km/h Distance 122 km</desc>
<time>2010-07-31T15:45:57.73</time>
<name>3862</name>
</trkpt>
<trkpt lat="48.795405" lon="10.882358">
<ele>479.0</ele>
<speed>74.6</speed>
<course>317.8</course>
<desc>Speed 74.6 km/h Distance 122 km</desc>
<time>2010-07-31T15:46:03.70</time>
<name>3863</name>
</trkpt>
<trkpt lat="48.796352" lon="10.881057">
<ele>470.0</ele>
<speed>110</speed>
<course>307.5</course>
<desc>Speed 110 km/h Distance 123 km</desc>
<time>2010-07-31T15:46:09.66</time>
<name>3864</name>
</trkpt>
<trkpt lat="48.796827" lon="10.880117">
<ele>471.0</ele>
<speed>94.1</speed>
<course>305.4</course>
<desc>Speed 94.1 km/h Distance 123 km</desc>
<time>2010-07-31T15:46:12.65</time>
<name>3865</name>
</trkpt>
<trkpt lat="48.796962" lon="10.879828">
<ele>473.0</ele>
<speed>94.1</speed>
<course>309.2</course>
<desc>Speed 94.1 km/h Distance 123 km</desc>
<time>2010-07-31T15:46:13.63</time>
<name>3866</name>
</trkpt>
<trkpt lat="48.797103" lon="10.879565">
<ele>475.5</ele>
<speed>94.1</speed>
<course>326.7</course>
<desc>Speed 94.1 km/h Distance 123 km</desc>
<time>2010-07-31T15:46:14.64</time>
<name>3867</name>
</trkpt>
<trkpt lat="48.799135" lon="10.877540">
<ele>479.0</ele>
<speed>108</speed>
<course>323.1</course>
<desc>Speed 108 km/h Distance 123 km</desc>
<time>2010-07-31T15:46:20.59</time>
<name>3868</name>
</trkpt>
<trkpt lat="48.799363" lon="10.877280">
<ele>475.0</ele>
<speed>106</speed>
<course>326.4</course>
<desc>Speed 106 km/h Distance 123 km</desc>
<time>2010-07-31T15:46:21.59</time>
<name>3869</name>
</trkpt>
<trkpt lat="48.800007" lon="10.876632">
<ele>473.5</ele>
<speed>85.7</speed>
<course>331.2</course>
<desc>Speed 85.7 km/h Distance 123 km</desc>
<time>2010-07-31T15:46:24.57</time>
<name>3870</name>
</trkpt>
<trkpt lat="48.800383" lon="10.876317">
<ele>471.5</ele>
<speed>85.7</speed>
<course>331.6</course>
<desc>Speed 85.7 km/h Distance 123 km</desc>
<time>2010-07-31T15:46:26.56</time>
<name>3871</name>
</trkpt>
<trkpt lat="48.800728" lon="10.876033">
<ele>470.0</ele>
<speed>71.7</speed>
<course>325.6</course>
<desc>Speed 71.7 km/h Distance 123 km</desc>
<time>2010-07-31T15:46:28.55</time>
<name>3872</name>
</trkpt>
<trkpt lat="48.801067" lon="10.875682">
<ele>468.5</ele>
<speed>62.1</speed>
<course>324.5</course>
<desc>Speed 62.1 km/h Distance 123 km</desc>
<time>2010-07-31T15:46:31.53</time>
<name>3873</name>
</trkpt>
<trkpt lat="48.801312" lon="10.875417">
<ele>469.0</ele>
<speed>52.1</speed>
<course>322.9</course>
<desc>Speed 52.1 km/h Distance 123 km</desc>
<time>2010-07-31T15:46:33.51</time>
<name>3874</name>
</trkpt>
<trkpt lat="48.801523" lon="10.875173">
<ele>468.5</ele>
<speed>46.3</speed>
<course>310.4</course>
<desc>Speed 46.3 km/h Distance 123 km</desc>
<time>2010-07-31T15:46:35.50</time>
<name>3875</name>
</trkpt>
<trkpt lat="48.801593" lon="10.875048">
<ele>468.5</ele>
<speed>41.0</speed>
<course>312.7</course>
<desc>Speed 41.0 km/h Distance 123 km</desc>
<time>2010-07-31T15:46:36.49</time>
<name>3876</name>
</trkpt>
<trkpt lat="48.801767" lon="10.874763">
<ele>468.0</ele>
<speed>54.1</speed>
<course>344.2</course>
<desc>Speed 54.1 km/h Distance 123 km</desc>
<time>2010-07-31T15:46:38.48</time>
<name>3877</name>
</trkpt>
<trkpt lat="48.802103" lon="10.874618">
<ele>470.0</ele>
<speed>47.9</speed>
<course>337.1</course>
<desc>Speed 47.9 km/h Distance 123 km</desc>
<time>2010-07-31T15:46:42.96</time>
<name>3878</name>
</trkpt>
<trkpt lat="48.802252" lon="10.874523">
<ele>470.5</ele>
<speed>47.9</speed>
<course>347.3</course>
<desc>Speed 47.9 km/h Distance 123 km</desc>
<time>2010-07-31T15:46:44.46</time>
<name>3879</name>
</trkpt>
<trkpt lat="48.802373" lon="10.874482">
<ele>469.5</ele>
<speed>47.9</speed>
<course>316.7</course>
<desc>Speed 47.9 km/h Distance 123 km</desc>
<time>2010-07-31T15:46:45.45</time>
<name>3880</name>
</trkpt>
<trkpt lat="48.802467" lon="10.874348">
<ele>468.5</ele>
<speed>49.7</speed>
<course>314.6</course>
<desc>Speed 49.7 km/h Distance 123 km</desc>
<time>2010-07-31T15:46:46.44</time>
<name>3881</name>
</trkpt>
<trkpt lat="48.802553" lon="10.874215">
<ele>468.0</ele>
<speed>48.3</speed>
<course>316.6</course>
<desc>Speed 48.3 km/h Distance 123 km</desc>
<time>2010-07-31T15:46:47.43</time>
<name>3882</name>
</trkpt>
<trkpt lat="48.802760" lon="10.873918">
<ele>467.5</ele>
<speed>53.1</speed>
<course>329.6</course>
<desc>Speed 53.1 km/h Distance 123 km</desc>
<time>2010-07-31T15:46:49.42</time>
<name>3883</name>
</trkpt>
<trkpt lat="48.802882" lon="10.873810">
<ele>467.5</ele>
<speed>49.8</speed>
<course>327.1</course>
<desc>Speed 49.8 km/h Distance 123 km</desc>
<time>2010-07-31T15:46:50.43</time>
<name>3884</name>
</trkpt>
<trkpt lat="48.802972" lon="10.873722">
<ele>468.0</ele>
<speed>49.8</speed>
<course>334.9</course>
<desc>Speed 49.8 km/h Distance 123 km</desc>
<time>2010-07-31T15:46:51.43</time>
<name>3885</name>
</trkpt>
<trkpt lat="48.803098" lon="10.873632">
<ele>468.0</ele>
<speed>46.4</speed>
<course>326.6</course>
<desc>Speed 46.4 km/h Distance 123 km</desc>
<time>2010-07-31T15:46:52.42</time>
<name>3886</name>
</trkpt>
<trkpt lat="48.803193" lon="10.873537">
<ele>468.0</ele>
<speed>41.1</speed>
<course>324.8</course>
<desc>Speed 41.1 km/h Distance 123 km</desc>
<time>2010-07-31T15:46:53.42</time>
<name>3887</name>
</trkpt>
<trkpt lat="48.803265" lon="10.873460">
<ele>468.0</ele>
<speed>41.1</speed>
<course>330.3</course>
<desc>Speed 41.1 km/h Distance 123 km</desc>
<time>2010-07-31T15:46:54.41</time>
<name>3888</name>
</trkpt>
<trkpt lat="48.803402" lon="10.873342">
<ele>468.0</ele>
<speed>41.1</speed>
<course>31.6</course>
<desc>Speed 41.1 km/h Distance 124 km</desc>
<time>2010-07-31T15:46:57.40</time>
<name>3889</name>
</trkpt>
<trkpt lat="48.803550" lon="10.873480">
<ele>471.0</ele>
<speed>35.2</speed>
<course>12.9</course>
<desc>Speed 35.2 km/h Distance 124 km</desc>
<time>2010-07-31T15:46:59.38</time>
<name>3890</name>
</trkpt>
<trkpt lat="48.803693" lon="10.873530">
<ele>474.0</ele>
<speed>28.0</speed>
<course>35.2</course>
<desc>Speed 28.0 km/h Distance 124 km</desc>
<time>2010-07-31T15:47:01.38</time>
<name>3891</name>
</trkpt>
<trkpt lat="48.803785" lon="10.873628">
<ele>475.0</ele>
<speed>28.0</speed>
<course>3.6</course>
<desc>Speed 28.0 km/h Distance 124 km</desc>
<time>2010-07-31T15:47:03.36</time>
<name>3892</name>
</trkpt>
<trkpt lat="48.804062" lon="10.873655">
<ele>480.5</ele>
<speed>28.0</speed>
<course>341.5</course>
<desc>Speed 28.0 km/h Distance 124 km</desc>
<time>2010-07-31T15:47:06.34</time>
<name>3893</name>
</trkpt>
<trkpt lat="48.804763" lon="10.873298">
<ele>474.0</ele>
<speed>28.0</speed>
<course>332.5</course>
<desc>Speed 28.0 km/h Distance 124 km</desc>
<time>2010-07-31T15:47:11.31</time>
<name>3894</name>
</trkpt>
<trkpt lat="48.804945" lon="10.873155">
<ele>473.0</ele>
<speed>28.0</speed>
<course>295.5</course>
<desc>Speed 28.0 km/h Distance 124 km</desc>
<time>2010-07-31T15:47:13.30</time>
<name>3895</name>
</trkpt>
<trkpt lat="48.805957" lon="10.869933">
<ele>479.5</ele>
<speed>101</speed>
<course>297.0</course>
<desc>Speed 101 km/h Distance 124 km</desc>
<time>2010-07-31T15:47:19.27</time>
<name>3896</name>
</trkpt>
<trkpt lat="48.806333" lon="10.868812">
<ele>485.0</ele>
<speed>83.3</speed>
<course>302.0</course>
<desc>Speed 83.3 km/h Distance 124 km</desc>
<time>2010-07-31T15:47:23.25</time>
<name>3897</name>
</trkpt>
<trkpt lat="48.807073" lon="10.867015">
<ele>487.5</ele>
<speed>117</speed>
<course>303.1</course>
<desc>Speed 117 km/h Distance 124 km</desc>
<time>2010-07-31T15:47:28.22</time>
<name>3898</name>
</trkpt>
<trkpt lat="48.807232" lon="10.866647">
<ele>487.5</ele>
<speed>113</speed>
<course>304.1</course>
<desc>Speed 113 km/h Distance 124 km</desc>
<time>2010-07-31T15:47:29.21</time>
<name>3899</name>
</trkpt>
<trkpt lat="48.807388" lon="10.866295">
<ele>488.0</ele>
<speed>112</speed>
<course>304.1</course>
<desc>Speed 112 km/h Distance 124 km</desc>
<time>2010-07-31T15:47:30.21</time>
<name>3900</name>
</trkpt>
<trkpt lat="48.807545" lon="10.865943">
<ele>488.0</ele>
<speed>111</speed>
<course>304.5</course>
<desc>Speed 111 km/h Distance 124 km</desc>
<time>2010-07-31T15:47:31.19</time>
<name>3901</name>
</trkpt>
<trkpt lat="48.807707" lon="10.865587">
<ele>488.0</ele>
<speed>114</speed>
<course>304.5</course>
<desc>Speed 114 km/h Distance 124 km</desc>
<time>2010-07-31T15:47:32.20</time>
<name>3902</name>
</trkpt>
<trkpt lat="48.807868" lon="10.865230">
<ele>487.5</ele>
<speed>111</speed>
<course>308.9</course>
<desc>Speed 111 km/h Distance 124 km</desc>
<time>2010-07-31T15:47:33.19</time>
<name>3903</name>
</trkpt>
<trkpt lat="48.808245" lon="10.864520">
<ele>488.0</ele>
<speed>121</speed>
<course>315.0</course>
<desc>Speed 121 km/h Distance 124 km</desc>
<time>2010-07-31T15:47:35.16</time>
<name>3904</name>
</trkpt>
<trkpt lat="48.808457" lon="10.864198">
<ele>487.5</ele>
<speed>121</speed>
<course>316.2</course>
<desc>Speed 121 km/h Distance 124 km</desc>
<time>2010-07-31T15:47:36.17</time>
<name>3905</name>
</trkpt>
<trkpt lat="48.808863" lon="10.863607">
<ele>487.0</ele>
<speed>126</speed>
<course>318.2</course>
<desc>Speed 126 km/h Distance 125 km</desc>
<time>2010-07-31T15:47:38.16</time>
<name>3906</name>
</trkpt>
<trkpt lat="48.809100" lon="10.863285">
<ele>488.0</ele>
<speed>124</speed>
<course>318.8</course>
<desc>Speed 124 km/h Distance 125 km</desc>
<time>2010-07-31T15:47:39.15</time>
<name>3907</name>
</trkpt>
<trkpt lat="48.809723" lon="10.862455">
<ele>489.0</ele>
<speed>114</speed>
<course>315.5</course>
<desc>Speed 114 km/h Distance 125 km</desc>
<time>2010-07-31T15:47:42.12</time>
<name>3908</name>
</trkpt>
<trkpt lat="48.809933" lon="10.862142">
<ele>487.5</ele>
<speed>118</speed>
<course>305.3</course>
<desc>Speed 118 km/h Distance 125 km</desc>
<time>2010-07-31T15:47:43.13</time>
<name>3909</name>
</trkpt>
<trkpt lat="48.810717" lon="10.860462">
<ele>490.0</ele>
<speed>131</speed>
<course>299.2</course>
<desc>Speed 131 km/h Distance 125 km</desc>
<time>2010-07-31T15:47:47.10</time>
<name>3910</name>
</trkpt>
<trkpt lat="48.810868" lon="10.860050">
<ele>490.5</ele>
<speed>124</speed>
<course>295.8</course>
<desc>Speed 124 km/h Distance 125 km</desc>
<time>2010-07-31T15:47:48.10</time>
<name>3911</name>
</trkpt>
<trkpt lat="48.810997" lon="10.859647">
<ele>490.0</ele>
<speed>118</speed>
<course>302.5</course>
<desc>Speed 118 km/h Distance 125 km</desc>
<time>2010-07-31T15:47:49.09</time>
<name>3912</name>
</trkpt>
<trkpt lat="48.811615" lon="10.858173">
<ele>492.5</ele>
<speed>90.9</speed>
<course>299.8</course>
<desc>Speed 90.9 km/h Distance 125 km</desc>
<time>2010-07-31T15:47:55.04</time>
<name>3913</name>
</trkpt>
<trkpt lat="48.811862" lon="10.857520">
<ele>492.0</ele>
<speed>91.7</speed>
<course>295.8</course>
<desc>Speed 91.7 km/h Distance 125 km</desc>
<time>2010-07-31T15:47:57.04</time>
<name>3914</name>
</trkpt>
<trkpt lat="48.812317" lon="10.856093">
<ele>492.5</ele>
<speed>101</speed>
<course>305.4</course>
<desc>Speed 101 km/h Distance 125 km</desc>
<time>2010-07-31T15:48:01.47</time>
<name>3915</name>
</trkpt>
<trkpt lat="48.813177" lon="10.854258">
<ele>491.0</ele>
<speed>112</speed>
<course>292.7</course>
<desc>Speed 112 km/h Distance 125 km</desc>
<time>2010-07-31T15:48:05.98</time>
<name>3916</name>
</trkpt>
<trkpt lat="48.813415" lon="10.853395">
<ele>490.5</ele>
<speed>117</speed>
<course>287.0</course>
<desc>Speed 117 km/h Distance 125 km</desc>
<time>2010-07-31T15:48:07.99</time>
<name>3917</name>
</trkpt>
<trkpt lat="48.813503" lon="10.852955">
<ele>492.0</ele>
<speed>116</speed>
<course>277.3</course>
<desc>Speed 116 km/h Distance 125 km</desc>
<time>2010-07-31T15:48:08.98</time>
<name>3918</name>
</trkpt>
<trkpt lat="48.813583" lon="10.852010">
<ele>496.5</ele>
<speed>121</speed>
<course>271.9</course>
<desc>Speed 121 km/h Distance 126 km</desc>
<time>2010-07-31T15:48:10.97</time>
<name>3919</name>
</trkpt>
<trkpt lat="48.813610" lon="10.850783">
<ele>499.5</ele>
<speed>99.7</speed>
<course>268.0</course>
<desc>Speed 99.7 km/h Distance 126 km</desc>
<time>2010-07-31T15:48:13.96</time>
<name>3920</name>
</trkpt>
<trkpt lat="48.813602" lon="10.850422">
<ele>499.5</ele>
<speed>95.9</speed>
<course>270.0</course>
<desc>Speed 95.9 km/h Distance 126 km</desc>
<time>2010-07-31T15:48:14.96</time>
<name>3921</name>
</trkpt>
<trkpt lat="48.813602" lon="10.850047">
<ele>500.5</ele>
<speed>91.2</speed>
<course>269.2</course>
<desc>Speed 91.2 km/h Distance 126 km</desc>
<time>2010-07-31T15:48:15.96</time>
<name>3922</name>
</trkpt>
<trkpt lat="48.813598" lon="10.849678">
<ele>501.5</ele>
<speed>89.1</speed>
<course>256.8</course>
<desc>Speed 89.1 km/h Distance 126 km</desc>
<time>2010-07-31T15:48:16.95</time>
<name>3923</name>
</trkpt>
<trkpt lat="48.813422" lon="10.848537">
<ele>501.5</ele>
<speed>107</speed>
<course>248.9</course>
<desc>Speed 107 km/h Distance 126 km</desc>
<time>2010-07-31T15:48:19.93</time>
<name>3924</name>
</trkpt>
<trkpt lat="48.813330" lon="10.848177">
<ele>501.5</ele>
<speed>104</speed>
<course>245.2</course>
<desc>Speed 104 km/h Distance 126 km</desc>
<time>2010-07-31T15:48:20.92</time>
<name>3925</name>
</trkpt>
<trkpt lat="48.812980" lon="10.847025">
<ele>499.5</ele>
<speed>118</speed>
<course>246.2</course>
<desc>Speed 118 km/h Distance 126 km</desc>
<time>2010-07-31T15:48:23.91</time>
<name>3926</name>
</trkpt>
<trkpt lat="48.812687" lon="10.846013">
<ele>498.0</ele>
<speed>102</speed>
<course>243.2</course>
<desc>Speed 102 km/h Distance 126 km</desc>
<time>2010-07-31T15:48:26.90</time>
<name>3927</name>
</trkpt>
<trkpt lat="48.812462" lon="10.845337">
<ele>498.0</ele>
<speed>107</speed>
<course>272.8</course>
<desc>Speed 107 km/h Distance 126 km</desc>
<time>2010-07-31T15:48:28.87</time>
<name>3928</name>
</trkpt>
<trkpt lat="48.812512" lon="10.843787">
<ele>495.5</ele>
<speed>107</speed>
<course>290.9</course>
<desc>Speed 107 km/h Distance 126 km</desc>
<time>2010-07-31T15:48:34.85</time>
<name>3929</name>
</trkpt>
<trkpt lat="48.812940" lon="10.842080">
<ele>470.5</ele>
<speed>101</speed>
<course>300.7</course>
<desc>Speed 101 km/h Distance 126 km</desc>
<time>2010-07-31T15:48:40.83</time>
<name>3930</name>
</trkpt>
<trkpt lat="48.813232" lon="10.841333">
<ele>469.5</ele>
<speed>112</speed>
<course>299.0</course>
<desc>Speed 112 km/h Distance 126 km</desc>
<time>2010-07-31T15:48:42.85</time>
<name>3931</name>
</trkpt>
<trkpt lat="48.813528" lon="10.840522">
<ele>468.5</ele>
<speed>122</speed>
<course>295.5</course>
<desc>Speed 122 km/h Distance 126 km</desc>
<time>2010-07-31T15:48:44.81</time>
<name>3932</name>
</trkpt>
<trkpt lat="48.813667" lon="10.840082">
<ele>467.5</ele>
<speed>124</speed>
<course>294.7</course>
<desc>Speed 124 km/h Distance 126 km</desc>
<time>2010-07-31T15:48:45.81</time>
<name>3933</name>
</trkpt>
<trkpt lat="48.813797" lon="10.839653">
<ele>467.0</ele>
<speed>119</speed>
<course>294.9</course>
<desc>Speed 119 km/h Distance 126 km</desc>
<time>2010-07-31T15:48:46.81</time>
<name>3934</name>
</trkpt>
<trkpt lat="48.813925" lon="10.839233">
<ele>467.5</ele>
<speed>118</speed>
<course>297.9</course>
<desc>Speed 118 km/h Distance 127 km</desc>
<time>2010-07-31T15:48:47.81</time>
<name>3935</name>
</trkpt>
<trkpt lat="48.814208" lon="10.838420">
<ele>469.5</ele>
<speed>118</speed>
<course>296.4</course>
<desc>Speed 118 km/h Distance 127 km</desc>
<time>2010-07-31T15:48:49.80</time>
<name>3936</name>
</trkpt>
<trkpt lat="48.814488" lon="10.837563">
<ele>470.0</ele>
<speed>123</speed>
<course>290.8</course>
<desc>Speed 123 km/h Distance 127 km</desc>
<time>2010-07-31T15:48:51.78</time>
<name>3937</name>
</trkpt>
<trkpt lat="48.814708" lon="10.836683">
<ele>469.0</ele>
<speed>109</speed>
<course>291.7</course>
<desc>Speed 109 km/h Distance 127 km</desc>
<time>2010-07-31T15:48:53.77</time>
<name>3938</name>
</trkpt>
<trkpt lat="48.814812" lon="10.836290">
<ele>469.0</ele>
<speed>109</speed>
<course>292.3</course>
<desc>Speed 109 km/h Distance 127 km</desc>
<time>2010-07-31T15:48:54.77</time>
<name>3939</name>
</trkpt>
<trkpt lat="48.814917" lon="10.835902">
<ele>468.5</ele>
<speed>104</speed>
<course>287.1</course>
<desc>Speed 104 km/h Distance 127 km</desc>
<time>2010-07-31T15:48:55.76</time>
<name>3940</name>
</trkpt>
<trkpt lat="48.815152" lon="10.834742">
<ele>469.0</ele>
<speed>76.9</speed>
<course>282.5</course>
<desc>Speed 76.9 km/h Distance 127 km</desc>
<time>2010-07-31T15:48:59.74</time>
<name>3941</name>
</trkpt>
<trkpt lat="48.815243" lon="10.834113">
<ele>468.5</ele>
<speed>68.2</speed>
<course>275.5</course>
<desc>Speed 68.2 km/h Distance 127 km</desc>
<time>2010-07-31T15:49:01.72</time>
<name>3942</name>
</trkpt>
<trkpt lat="48.815333" lon="10.832697">
<ele>476.5</ele>
<speed>57.6</speed>
<course>284.8</course>
<desc>Speed 57.6 km/h Distance 127 km</desc>
<time>2010-07-31T15:49:05.70</time>
<name>3943</name>
</trkpt>
<trkpt lat="48.815423" lon="10.832178">
<ele>476.0</ele>
<speed>60.4</speed>
<course>286.0</course>
<desc>Speed 60.4 km/h Distance 127 km</desc>
<time>2010-07-31T15:49:07.68</time>
<name>3944</name>
</trkpt>
<trkpt lat="48.815468" lon="10.831940">
<ele>476.5</ele>
<speed>59.0</speed>
<course>288.9</course>
<desc>Speed 59.0 km/h Distance 127 km</desc>
<time>2010-07-31T15:49:08.68</time>
<name>3945</name>
</trkpt>
<trkpt lat="48.815518" lon="10.831718">
<ele>476.0</ele>
<speed>58.5</speed>
<course>287.6</course>
<desc>Speed 58.5 km/h Distance 127 km</desc>
<time>2010-07-31T15:49:09.68</time>
<name>3946</name>
</trkpt>
<trkpt lat="48.815565" lon="10.831495">
<ele>475.5</ele>
<speed>60.6</speed>
<course>284.1</course>
<desc>Speed 60.6 km/h Distance 127 km</desc>
<time>2010-07-31T15:49:10.67</time>
<name>3947</name>
</trkpt>
<trkpt lat="48.815598" lon="10.831293">
<ele>476.0</ele>
<speed>60.6</speed>
<course>287.9</course>
<desc>Speed 60.6 km/h Distance 127 km</desc>
<time>2010-07-31T15:49:11.68</time>
<name>3948</name>
</trkpt>
<trkpt lat="48.815645" lon="10.831073">
<ele>476.0</ele>
<speed>57.3</speed>
<course>281.9</course>
<desc>Speed 57.3 km/h Distance 127 km</desc>
<time>2010-07-31T15:49:12.67</time>
<name>3949</name>
</trkpt>
<trkpt lat="48.815677" lon="10.830845">
<ele>475.5</ele>
<speed>54.6</speed>
<course>286.5</course>
<desc>Speed 54.6 km/h Distance 127 km</desc>
<time>2010-07-31T15:49:13.67</time>
<name>3950</name>
</trkpt>
<trkpt lat="48.815715" lon="10.830648">
<ele>475.5</ele>
<speed>49.2</speed>
<course>287.1</course>
<desc>Speed 49.2 km/h Distance 127 km</desc>
<time>2010-07-31T15:49:14.66</time>
<name>3951</name>
</trkpt>
<trkpt lat="48.815747" lon="10.830492">
<ele>475.5</ele>
<speed>49.2</speed>
<course>311.9</course>
<desc>Speed 49.2 km/h Distance 127 km</desc>
<time>2010-07-31T15:49:15.66</time>
<name>3952</name>
</trkpt>
<trkpt lat="48.815905" lon="10.830223">
<ele>477.5</ele>
<speed>35.6</speed>
<course>5.0</course>
<desc>Speed 35.6 km/h Distance 127 km</desc>
<time>2010-07-31T15:49:18.64</time>
<name>3953</name>
</trkpt>
<trkpt lat="48.816192" lon="10.830262">
<ele>481.5</ele>
<speed>52.6</speed>
<course>20.3</course>
<desc>Speed 52.6 km/h Distance 127 km</desc>
<time>2010-07-31T15:49:21.63</time>
<name>3954</name>
</trkpt>
<trkpt lat="48.816382" lon="10.830368">
<ele>481.5</ele>
<speed>52.6</speed>
<course>11.5</course>
<desc>Speed 52.6 km/h Distance 127 km</desc>
<time>2010-07-31T15:49:23.62</time>
<name>3955</name>
</trkpt>
<trkpt lat="48.816663" lon="10.830455">
<ele>474.5</ele>
<speed>52.6</speed>
<course>14.9</course>
<desc>Speed 52.6 km/h Distance 127 km</desc>
<time>2010-07-31T15:49:26.62</time>
<name>3956</name>
</trkpt>
<trkpt lat="48.816783" lon="10.830503">
<ele>468.5</ele>
<speed>52.6</speed>
<course>345.4</course>
<desc>Speed 52.6 km/h Distance 127 km</desc>
<time>2010-07-31T15:49:27.60</time>
<name>3957</name>
</trkpt>
<trkpt lat="48.816943" lon="10.830440">
<ele>465.5</ele>
<speed>52.6</speed>
<course>346.4</course>
<desc>Speed 52.6 km/h Distance 127 km</desc>
<time>2010-07-31T15:49:28.97</time>
<name>3958</name>
</trkpt>
<trkpt lat="48.818283" lon="10.829947">
<ele>468.5</ele>
<speed>147</speed>
<course>346.4</course>
<desc>Speed 147 km/h Distance 128 km</desc>
<time>2010-07-31T15:49:34.58</time>
<name>3959</name>
</trkpt>
<trkpt lat="48.819727" lon="10.829415">
<ele>476.5</ele>
<speed>122</speed>
<course>348.9</course>
<desc>Speed 122 km/h Distance 128 km</desc>
<time>2010-07-31T15:49:38.56</time>
<name>3960</name>
</trkpt>
<trkpt lat="48.820348" lon="10.829230">
<ele>478.0</ele>
<speed>121</speed>
<course>345.9</course>
<desc>Speed 121 km/h Distance 128 km</desc>
<time>2010-07-31T15:49:40.56</time>
<name>3961</name>
</trkpt>
<trkpt lat="48.821000" lon="10.828982">
<ele>482.0</ele>
<speed>118</speed>
<course>349.2</course>
<desc>Speed 118 km/h Distance 128 km</desc>
<time>2010-07-31T15:49:42.55</time>
<name>3962</name>
</trkpt>
<trkpt lat="48.822392" lon="10.828578">
<ele>492.0</ele>
<speed>118</speed>
<course>356.4</course>
<desc>Speed 118 km/h Distance 128 km</desc>
<time>2010-07-31T15:49:46.53</time>
<name>3963</name>
</trkpt>
<trkpt lat="48.825257" lon="10.828302">
<ele>506.0</ele>
<speed>115</speed>
<course>352.6</course>
<desc>Speed 115 km/h Distance 128 km</desc>
<time>2010-07-31T15:49:52.52</time>
<name>3964</name>
</trkpt>
<trkpt lat="48.826212" lon="10.828113">
<ele>509.0</ele>
<speed>121</speed>
<course>355.3</course>
<desc>Speed 121 km/h Distance 128 km</desc>
<time>2010-07-31T15:49:55.51</time>
<name>3965</name>
</trkpt>
<trkpt lat="48.827245" lon="10.827985">
<ele>511.0</ele>
<speed>136</speed>
<course>357.0</course>
<desc>Speed 136 km/h Distance 129 km</desc>
<time>2010-07-31T15:49:58.50</time>
<name>3966</name>
</trkpt>
<trkpt lat="48.827938" lon="10.827930">
<ele>511.0</ele>
<speed>135</speed>
<course>358.0</course>
<desc>Speed 135 km/h Distance 129 km</desc>
<time>2010-07-31T15:50:00.50</time>
<name>3967</name>
</trkpt>
<trkpt lat="48.828650" lon="10.827892">
<ele>511.0</ele>
<speed>137</speed>
<course>6.4</course>
<desc>Speed 137 km/h Distance 129 km</desc>
<time>2010-07-31T15:50:02.49</time>
<name>3968</name>
</trkpt>
<trkpt lat="48.829337" lon="10.828008">
<ele>511.5</ele>
<speed>137</speed>
<course>2.0</course>
<desc>Speed 137 km/h Distance 129 km</desc>
<time>2010-07-31T15:50:04.48</time>
<name>3969</name>
</trkpt>
<trkpt lat="48.830680" lon="10.828078">
<ele>516.5</ele>
<speed>137</speed>
<course>11.3</course>
<desc>Speed 137 km/h Distance 129 km</desc>
<time>2010-07-31T15:50:10.46</time>
<name>3970</name>
</trkpt>
<trkpt lat="48.833705" lon="10.828998">
<ele>518.5</ele>
<speed>158</speed>
<course>15.3</course>
<desc>Speed 158 km/h Distance 129 km</desc>
<time>2010-07-31T15:50:16.44</time>
<name>3971</name>
</trkpt>
<trkpt lat="48.836015" lon="10.829958">
<ele>523.5</ele>
<speed>179</speed>
<course>16.6</course>
<desc>Speed 179 km/h Distance 130 km</desc>
<time>2010-07-31T15:50:21.42</time>
<name>3972</name>
</trkpt>
<trkpt lat="48.836872" lon="10.830347">
<ele>525.0</ele>
<speed>165</speed>
<course>17.8</course>
<desc>Speed 165 km/h Distance 130 km</desc>
<time>2010-07-31T15:50:23.42</time>
<name>3973</name>
</trkpt>
<trkpt lat="48.837660" lon="10.830732">
<ele>525.0</ele>
<speed>154</speed>
<course>20.1</course>
<desc>Speed 154 km/h Distance 130 km</desc>
<time>2010-07-31T15:50:25.41</time>
<name>3974</name>
</trkpt>
<trkpt lat="48.838635" lon="10.831273">
<ele>530.0</ele>
<speed>138</speed>
<course>21.9</course>
<desc>Speed 138 km/h Distance 130 km</desc>
<time>2010-07-31T15:50:28.41</time>
<name>3975</name>
</trkpt>
<trkpt lat="48.839882" lon="10.832035">
<ele>530.0</ele>
<speed>98.9</speed>
<course>28.2</course>
<desc>Speed 98.9 km/h Distance 130 km</desc>
<time>2010-07-31T15:50:34.40</time>
<name>3976</name>
</trkpt>
<trkpt lat="48.840280" lon="10.832360">
<ele>531.0</ele>
<speed>94.9</speed>
<course>22.8</course>
<desc>Speed 94.9 km/h Distance 130 km</desc>
<time>2010-07-31T15:50:36.39</time>
<name>3977</name>
</trkpt>
<trkpt lat="48.841060" lon="10.832858">
<ele>536.0</ele>
<speed>92.1</speed>
<course>24.3</course>
<desc>Speed 92.1 km/h Distance 130 km</desc>
<time>2010-07-31T15:50:39.39</time>
<name>3978</name>
</trkpt>
<trkpt lat="48.841538" lon="10.833187">
<ele>538.5</ele>
<speed>93.1</speed>
<course>26.1</course>
<desc>Speed 93.1 km/h Distance 130 km</desc>
<time>2010-07-31T15:50:41.38</time>
<name>3979</name>
</trkpt>
<trkpt lat="48.841968" lon="10.833507">
<ele>540.5</ele>
<speed>92.4</speed>
<course>26.7</course>
<desc>Speed 92.4 km/h Distance 130 km</desc>
<time>2010-07-31T15:50:43.37</time>
<name>3980</name>
</trkpt>
<trkpt lat="48.842365" lon="10.833810">
<ele>542.5</ele>
<speed>84.7</speed>
<course>28.8</course>
<desc>Speed 84.7 km/h Distance 130 km</desc>
<time>2010-07-31T15:50:45.36</time>
<name>3981</name>
</trkpt>
<trkpt lat="48.842722" lon="10.834108">
<ele>543.5</ele>
<speed>75.9</speed>
<course>30.5</course>
<desc>Speed 75.9 km/h Distance 130 km</desc>
<time>2010-07-31T15:50:47.36</time>
<name>3982</name>
</trkpt>
<trkpt lat="48.843113" lon="10.834458">
<ele>544.0</ele>
<speed>65.8</speed>
<course>26.1</course>
<desc>Speed 65.8 km/h Distance 130 km</desc>
<time>2010-07-31T15:50:50.35</time>
<name>3983</name>
</trkpt>
<trkpt lat="48.843668" lon="10.834872">
<ele>546.0</ele>
<speed>77.5</speed>
<course>27.4</course>
<desc>Speed 77.5 km/h Distance 130 km</desc>
<time>2010-07-31T15:50:53.34</time>
<name>3984</name>
</trkpt>
<trkpt lat="48.844032" lon="10.835158">
<ele>546.5</ele>
<speed>78.0</speed>
<course>29.5</course>
<desc>Speed 78.0 km/h Distance 130 km</desc>
<time>2010-07-31T15:50:55.34</time>
<name>3985</name>
</trkpt>
<trkpt lat="48.844342" lon="10.835425">
<ele>547.0</ele>
<speed>71.5</speed>
<course>27.9</course>
<desc>Speed 71.5 km/h Distance 131 km</desc>
<time>2010-07-31T15:50:57.33</time>
<name>3986</name>
</trkpt>
<trkpt lat="48.844780" lon="10.835778">
<ele>549.0</ele>
<speed>6.5</speed>
<course>300.1</course>
<desc>Speed 6.5 km/h Distance 131 km</desc>
<time>2010-07-31T15:51:03.31</time>
<name>3987</name>
</trkpt>
<trkpt lat="48.844815" lon="10.835687">
<ele>546.5</ele>
<speed>16.4</speed>
<course>254.4</course>
<desc>Speed 16.4 km/h Distance 131 km</desc>
<time>2010-07-31T15:51:05.31</time>
<name>3988</name>
</trkpt>
<trkpt lat="48.844800" lon="10.835605">
<ele>546.5</ele>
<speed>16.4</speed>
<course>306.1</course>
<desc>Speed 16.4 km/h Distance 131 km</desc>
<time>2010-07-31T15:51:07.30</time>
<name>3989</name>
</trkpt>
<trkpt lat="48.845337" lon="10.834488">
<ele>550.5</ele>
<speed>65.9</speed>
<course>236.6</course>
<desc>Speed 65.9 km/h Distance 131 km</desc>
<time>2010-07-31T15:51:13.28</time>
<name>3990</name>
</trkpt>
<trkpt lat="48.845160" lon="10.834082">
<ele>552.0</ele>
<speed>53.9</speed>
<course>224.6</course>
<desc>Speed 53.9 km/h Distance 131 km</desc>
<time>2010-07-31T15:51:15.28</time>
<name>3991</name>
</trkpt>
<trkpt lat="48.845057" lon="10.833927">
<ele>553.0</ele>
<speed>51.1</speed>
<course>231.4</course>
<desc>Speed 51.1 km/h Distance 131 km</desc>
<time>2010-07-31T15:51:16.28</time>
<name>3992</name>
</trkpt>
<trkpt lat="48.844822" lon="10.833480">
<ele>555.5</ele>
<speed>25.5</speed>
<course>273.2</course>
<desc>Speed 25.5 km/h Distance 131 km</desc>
<time>2010-07-31T15:51:20.26</time>
<name>3993</name>
</trkpt>
<trkpt lat="48.844832" lon="10.833210">
<ele>555.5</ele>
<speed>33.9</speed>
<course>282.1</course>
<desc>Speed 33.9 km/h Distance 131 km</desc>
<time>2010-07-31T15:51:22.26</time>
<name>3994</name>
</trkpt>
<trkpt lat="48.844848" lon="10.833092">
<ele>557.0</ele>
<speed>31.1</speed>
<course>289.4</course>
<desc>Speed 31.1 km/h Distance 131 km</desc>
<time>2010-07-31T15:51:23.26</time>
<name>3995</name>
</trkpt>
<trkpt lat="48.844870" lon="10.832998">
<ele>559.5</ele>
<speed>31.1</speed>
<course>306.3</course>
<desc>Speed 31.1 km/h Distance 131 km</desc>
<time>2010-07-31T15:51:24.26</time>
<name>3996</name>
</trkpt>
<trkpt lat="48.844945" lon="10.832843">
<ele>570.0</ele>
<speed>31.1</speed>
<course>316.6</course>
<desc>Speed 31.1 km/h Distance 131 km</desc>
<time>2010-07-31T15:51:26.26</time>
<name>3997</name>
</trkpt>
<trkpt lat="48.845010" lon="10.832750">
<ele>568.5</ele>
<speed>31.1</speed>
<course>306.9</course>
<desc>Speed 31.1 km/h Distance 131 km</desc>
<time>2010-07-31T15:51:27.25</time>
<name>3998</name>
</trkpt>
<trkpt lat="48.845077" lon="10.832615">
<ele>552.5</ele>
<speed>31.1</speed>
<course>304.8</course>
<desc>Speed 31.1 km/h Distance 131 km</desc>
<time>2010-07-31T15:51:29.24</time>
<name>3999</name>
</trkpt>
<trkpt lat="48.846247" lon="10.830055">
<ele>606.5</ele>
<speed>124</speed>
<course>301.3</course>
<desc>Speed 124 km/h Distance 131 km</desc>
<time>2010-07-31T15:51:35.22</time>
<name>4000</name>
</trkpt>
<trkpt lat="48.846812" lon="10.828643">
<ele>591.5</ele>
<speed>124</speed>
<course>297.4</course>
<desc>Speed 124 km/h Distance 131 km</desc>
<time>2010-07-31T15:51:39.20</time>
<name>4001</name>
</trkpt>
<trkpt lat="48.847187" lon="10.827545">
<ele>581.5</ele>
<speed>124</speed>
<course>335.5</course>
<desc>Speed 124 km/h Distance 131 km</desc>
<time>2010-07-31T15:51:45.19</time>
<name>4002</name>
</trkpt>
<trkpt lat="48.848328" lon="10.826755">
<ele>577.5</ele>
<speed>124</speed>
<course>324.5</course>
<desc>Speed 124 km/h Distance 131 km</desc>
<time>2010-07-31T15:51:49.18</time>
<name>4003</name>
</trkpt>
<trkpt lat="48.849407" lon="10.825585">
<ele>580.5</ele>
<speed>124</speed>
<course>318.8</course>
<desc>Speed 124 km/h Distance 132 km</desc>
<time>2010-07-31T15:51:55.16</time>
<name>4004</name>
</trkpt>
<trkpt lat="48.849923" lon="10.824898">
<ele>581.0</ele>
<speed>124</speed>
<course>283.9</course>
<desc>Speed 124 km/h Distance 132 km</desc>
<time>2010-07-31T15:51:57.16</time>
<name>4005</name>
</trkpt>
<trkpt lat="48.850157" lon="10.823463">
<ele>579.5</ele>
<speed>29.0</speed>
<course>279.4</course>
<desc>Speed 29.0 km/h Distance 132 km</desc>
<time>2010-07-31T15:52:02.14</time>
<name>4006</name>
</trkpt>
<trkpt lat="48.850258" lon="10.822532">
<ele>578.0</ele>
<speed>29.0</speed>
<course>317.3</course>
<desc>Speed 29.0 km/h Distance 132 km</desc>
<time>2010-07-31T15:52:04.14</time>
<name>4007</name>
</trkpt>
<trkpt lat="48.851367" lon="10.820980">
<ele>575.0</ele>
<speed>105</speed>
<course>8.7</course>
<desc>Speed 105 km/h Distance 132 km</desc>
<time>2010-07-31T15:52:10.11</time>
<name>4008</name>
</trkpt>
<trkpt lat="48.851902" lon="10.821105">
<ele>575.0</ele>
<speed>102</speed>
<course>14.0</course>
<desc>Speed 102 km/h Distance 132 km</desc>
<time>2010-07-31T15:52:12.11</time>
<name>4009</name>
</trkpt>
<trkpt lat="48.852345" lon="10.821273">
<ele>574.5</ele>
<speed>89.5</speed>
<course>15.3</course>
<desc>Speed 89.5 km/h Distance 132 km</desc>
<time>2010-07-31T15:52:14.10</time>
<name>4010</name>
</trkpt>
<trkpt lat="48.852553" lon="10.821360">
<ele>574.0</ele>
<speed>85.0</speed>
<course>20.2</course>
<desc>Speed 85.0 km/h Distance 132 km</desc>
<time>2010-07-31T15:52:15.10</time>
<name>4011</name>
</trkpt>
<trkpt lat="48.852920" lon="10.821565">
<ele>573.5</ele>
<speed>77.3</speed>
<course>24.6</course>
<desc>Speed 77.3 km/h Distance 132 km</desc>
<time>2010-07-31T15:52:17.09</time>
<name>4012</name>
</trkpt>
<trkpt lat="48.853100" lon="10.821690">
<ele>573.5</ele>
<speed>76.7</speed>
<course>28.7</course>
<desc>Speed 76.7 km/h Distance 132 km</desc>
<time>2010-07-31T15:52:18.09</time>
<name>4013</name>
</trkpt>
<trkpt lat="48.853270" lon="10.821832">
<ele>573.5</ele>
<speed>75.0</speed>
<course>32.2</course>
<desc>Speed 75.0 km/h Distance 132 km</desc>
<time>2010-07-31T15:52:19.09</time>
<name>4014</name>
</trkpt>
<trkpt lat="48.853430" lon="10.821985">
<ele>573.5</ele>
<speed>72.8</speed>
<course>34.2</course>
<desc>Speed 72.8 km/h Distance 132 km</desc>
<time>2010-07-31T15:52:20.08</time>
<name>4015</name>
</trkpt>
<trkpt lat="48.853582" lon="10.822142">
<ele>573.5</ele>
<speed>72.0</speed>
<course>33.7</course>
<desc>Speed 72.0 km/h Distance 132 km</desc>
<time>2010-07-31T15:52:21.08</time>
<name>4016</name>
</trkpt>
<trkpt lat="48.853723" lon="10.822285">
<ele>573.5</ele>
<speed>67.2</speed>
<course>33.3</course>
<desc>Speed 67.2 km/h Distance 132 km</desc>
<time>2010-07-31T15:52:22.08</time>
<name>4017</name>
</trkpt>
<trkpt lat="48.853860" lon="10.822422">
<ele>573.5</ele>
<speed>64.6</speed>
<course>40.0</course>
<desc>Speed 64.6 km/h Distance 132 km</desc>
<time>2010-07-31T15:52:23.08</time>
<name>4018</name>
</trkpt>
<trkpt lat="48.854175" lon="10.822823">
<ele>574.0</ele>
<speed>60.0</speed>
<course>46.8</course>
<desc>Speed 60.0 km/h Distance 132 km</desc>
<time>2010-07-31T15:52:26.08</time>
<name>4019</name>
</trkpt>
<trkpt lat="48.854340" lon="10.823090">
<ele>573.5</ele>
<speed>60.0</speed>
<course>78.8</course>
<desc>Speed 60.0 km/h Distance 132 km</desc>
<time>2010-07-31T15:52:28.07</time>
<name>4020</name>
</trkpt>
<trkpt lat="48.854368" lon="10.823307">
<ele>573.5</ele>
<speed>58.9</speed>
<course>88.9</course>
<desc>Speed 58.9 km/h Distance 132 km</desc>
<time>2010-07-31T15:52:29.07</time>
<name>4021</name>
</trkpt>
<trkpt lat="48.854375" lon="10.823820">
<ele>573.5</ele>
<speed>65.8</speed>
<course>94.5</course>
<desc>Speed 65.8 km/h Distance 132 km</desc>
<time>2010-07-31T15:52:31.06</time>
<name>4022</name>
</trkpt>
<trkpt lat="48.854362" lon="10.824077">
<ele>572.5</ele>
<speed>65.7</speed>
<course>96.2</course>
<desc>Speed 65.7 km/h Distance 132 km</desc>
<time>2010-07-31T15:52:32.06</time>
<name>4023</name>
</trkpt>
<trkpt lat="48.854343" lon="10.824335">
<ele>572.5</ele>
<speed>66.6</speed>
<course>96.3</course>
<desc>Speed 66.6 km/h Distance 132 km</desc>
<time>2010-07-31T15:52:33.05</time>
<name>4024</name>
</trkpt>
<trkpt lat="48.854325" lon="10.824588">
<ele>571.0</ele>
<speed>65.2</speed>
<course>105.2</course>
<desc>Speed 65.2 km/h Distance 132 km</desc>
<time>2010-07-31T15:52:34.05</time>
<name>4025</name>
</trkpt>
<trkpt lat="48.854232" lon="10.825110">
<ele>573.0</ele>
<speed>62.8</speed>
<course>101.9</course>
<desc>Speed 62.8 km/h Distance 133 km</desc>
<time>2010-07-31T15:52:36.05</time>
<name>4026</name>
</trkpt>
<trkpt lat="48.854200" lon="10.825338">
<ele>574.5</ele>
<speed>55.8</speed>
<course>94.6</course>
<desc>Speed 55.8 km/h Distance 133 km</desc>
<time>2010-07-31T15:52:37.05</time>
<name>4027</name>
</trkpt>
<trkpt lat="48.854188" lon="10.825557">
<ele>575.5</ele>
<speed>56.6</speed>
<course>89.2</course>
<desc>Speed 56.6 km/h Distance 133 km</desc>
<time>2010-07-31T15:52:38.04</time>
<name>4028</name>
</trkpt>
<trkpt lat="48.854193" lon="10.826113">
<ele>570.5</ele>
<speed>60.3</speed>
<course>82.5</course>
<desc>Speed 60.3 km/h Distance 133 km</desc>
<time>2010-07-31T15:52:41.03</time>
<name>4029</name>
</trkpt>
<trkpt lat="48.854223" lon="10.826458">
<ele>565.0</ele>
<speed>60.3</speed>
<course>60.6</course>
<desc>Speed 60.3 km/h Distance 133 km</desc>
<time>2010-07-31T15:52:43.03</time>
<name>4030</name>
</trkpt>
<trkpt lat="48.854290" lon="10.826638">
<ele>564.0</ele>
<speed>53.6</speed>
<course>62.0</course>
<desc>Speed 53.6 km/h Distance 133 km</desc>
<time>2010-07-31T15:52:44.02</time>
<name>4031</name>
</trkpt>
<trkpt lat="48.854348" lon="10.826805">
<ele>562.0</ele>
<speed>47.9</speed>
<course>31.9</course>
<desc>Speed 47.9 km/h Distance 133 km</desc>
<time>2010-07-31T15:52:45.02</time>
<name>4032</name>
</trkpt>
<trkpt lat="48.854530" lon="10.826977">
<ele>557.5</ele>
<speed>37.4</speed>
<course>34.7</course>
<desc>Speed 37.4 km/h Distance 133 km</desc>
<time>2010-07-31T15:52:47.01</time>
<name>4033</name>
</trkpt>
<trkpt lat="48.854593" lon="10.827043">
<ele>557.0</ele>
<speed>37.4</speed>
<course>15.2</course>
<desc>Speed 37.4 km/h Distance 133 km</desc>
<time>2010-07-31T15:52:48.01</time>
<name>4034</name>
</trkpt>
<trkpt lat="48.854678" lon="10.827078">
<ele>556.0</ele>
<speed>33.4</speed>
<course>350.8</course>
<desc>Speed 33.4 km/h Distance 133 km</desc>
<time>2010-07-31T15:52:49.01</time>
<name>4035</name>
</trkpt>
<trkpt lat="48.854840" lon="10.827038">
<ele>554.5</ele>
<speed>25.5</speed>
<course>313.3</course>
<desc>Speed 25.5 km/h Distance 133 km</desc>
<time>2010-07-31T15:52:52.00</time>
<name>4036</name>
</trkpt>
<trkpt lat="48.854927" lon="10.826898">
<ele>552.5</ele>
<speed>33.5</speed>
<course>312.1</course>
<desc>Speed 33.5 km/h Distance 133 km</desc>
<time>2010-07-31T15:52:53.99</time>
<name>4037</name>
</trkpt>
<trkpt lat="48.855177" lon="10.826478">
<ele>556.0</ele>
<speed>42.2</speed>
<course>314.8</course>
<desc>Speed 42.2 km/h Distance 133 km</desc>
<time>2010-07-31T15:52:56.98</time>
<name>4038</name>
</trkpt>
<trkpt lat="48.855258" lon="10.826353">
<ele>557.0</ele>
<speed>41.9</speed>
<course>322.6</course>
<desc>Speed 41.9 km/h Distance 133 km</desc>
<time>2010-07-31T15:52:57.98</time>
<name>4039</name>
</trkpt>
<trkpt lat="48.855352" lon="10.826245">
<ele>557.5</ele>
<speed>45.1</speed>
<course>332.4</course>
<desc>Speed 45.1 km/h Distance 133 km</desc>
<time>2010-07-31T15:52:58.97</time>
<name>4040</name>
</trkpt>
<trkpt lat="48.855457" lon="10.826162">
<ele>558.0</ele>
<speed>46.7</speed>
<course>333.0</course>
<desc>Speed 46.7 km/h Distance 133 km</desc>
<time>2010-07-31T15:52:59.97</time>
<name>4041</name>
</trkpt>
<trkpt lat="48.855545" lon="10.826093">
<ele>558.0</ele>
<speed>46.7</speed>
<course>8.1</course>
<desc>Speed 46.7 km/h Distance 133 km</desc>
<time>2010-07-31T15:53:00.97</time>
<name>4042</name>
</trkpt>
<trkpt lat="48.856005" lon="10.826193">
<ele>557.5</ele>
<speed>63.7</speed>
<course>2.3</course>
<desc>Speed 63.7 km/h Distance 133 km</desc>
<time>2010-07-31T15:53:03.96</time>
<name>4043</name>
</trkpt>
<trkpt lat="48.856168" lon="10.826203">
<ele>557.0</ele>
<speed>63.9</speed>
<course>5.6</course>
<desc>Speed 63.9 km/h Distance 133 km</desc>
<time>2010-07-31T15:53:04.97</time>
<name>4044</name>
</trkpt>
<trkpt lat="48.856335" lon="10.826228">
<ele>556.5</ele>
<speed>65.2</speed>
<course>6.9</course>
<desc>Speed 65.2 km/h Distance 133 km</desc>
<time>2010-07-31T15:53:05.95</time>
<name>4045</name>
</trkpt>
<trkpt lat="48.856490" lon="10.826257">
<ele>556.5</ele>
<speed>62.7</speed>
<course>10.3</course>
<desc>Speed 62.7 km/h Distance 133 km</desc>
<time>2010-07-31T15:53:06.95</time>
<name>4046</name>
</trkpt>
<trkpt lat="48.856743" lon="10.826327">
<ele>556.5</ele>
<speed>52.3</speed>
<course>15.6</course>
<desc>Speed 52.3 km/h Distance 133 km</desc>
<time>2010-07-31T15:53:08.95</time>
<name>4047</name>
</trkpt>
<trkpt lat="48.857002" lon="10.826437">
<ele>556.5</ele>
<speed>65.5</speed>
<course>49.6</course>
<desc>Speed 65.5 km/h Distance 133 km</desc>
<time>2010-07-31T15:53:10.94</time>
<name>4048</name>
</trkpt>
<trkpt lat="48.857283" lon="10.826940">
<ele>561.0</ele>
<speed>34.1</speed>
<course>52.8</course>
<desc>Speed 34.1 km/h Distance 133 km</desc>
<time>2010-07-31T15:53:15.93</time>
<name>4049</name>
</trkpt>
<trkpt lat="48.857338" lon="10.827050">
<ele>561.5</ele>
<speed>8.1</speed>
<course>270.0</course>
<desc>Speed 8.1 km/h Distance 133 km</desc>
<time>2010-07-31T15:53:19.92</time>
<name>4050</name>
</trkpt>
<trkpt lat="48.857338" lon="10.827022">
<ele>561.5</ele>
<speed>7.3</speed>
<course>257.8</course>
<desc>Speed 7.3 km/h Distance 133 km</desc>
<time>2010-07-31T15:53:20.91</time>
<name>4051</name>
</trkpt>
<trkpt lat="48.857335" lon="10.826998">
<ele>561.5</ele>
<speed>7.3</speed>
<course>270.0</course>
<desc>Speed 7.3 km/h Distance 133 km</desc>
<time>2010-07-31T15:53:21.91</time>
<name>4052</name>
</trkpt>
<trkpt lat="48.857335" lon="10.826978">
<ele>561.5</ele>
<speed>7.3</speed>
<course>220.1</course>
<desc>Speed 7.3 km/h Distance 133 km</desc>
<time>2010-07-31T15:53:22.91</time>
<name>4053</name>
</trkpt>
<trkpt lat="48.856852" lon="10.826360">
<ele>560.5</ele>
<speed>52.7</speed>
<course>192.7</course>
<desc>Speed 52.7 km/h Distance 133 km</desc>
<time>2010-07-31T15:53:28.89</time>
<name>4054</name>
</trkpt>
<trkpt lat="48.856463" lon="10.826227">
<ele>558.0</ele>
<speed>68.5</speed>
<course>180.0</course>
<desc>Speed 68.5 km/h Distance 133 km</desc>
<time>2010-07-31T15:53:32.88</time>
<name>4055</name>
</trkpt>
<trkpt lat="48.856115" lon="10.826227">
<ele>557.0</ele>
<speed>58.0</speed>
<course>167.3</course>
<desc>Speed 58.0 km/h Distance 133 km</desc>
<time>2010-07-31T15:53:34.87</time>
<name>4056</name>
</trkpt>
<trkpt lat="48.855872" lon="10.826310">
<ele>556.5</ele>
<speed>44.9</speed>
<course>156.3</course>
<desc>Speed 44.9 km/h Distance 133 km</desc>
<time>2010-07-31T15:53:36.87</time>
<name>4057</name>
</trkpt>
<trkpt lat="48.855647" lon="10.826460">
<ele>556.0</ele>
<speed>46.9</speed>
<course>153.7</course>
<desc>Speed 46.9 km/h Distance 133 km</desc>
<time>2010-07-31T15:53:38.86</time>
<name>4058</name>
</trkpt>
<trkpt lat="48.855492" lon="10.826577">
<ele>556.0</ele>
<speed>46.9</speed>
<course>152.0</course>
<desc>Speed 46.9 km/h Distance 133 km</desc>
<time>2010-07-31T15:53:40.85</time>
<name>4059</name>
</trkpt>
<trkpt lat="48.855317" lon="10.826718">
<ele>556.5</ele>
<speed>42.8</speed>
<course>152.1</course>
<desc>Speed 42.8 km/h Distance 133 km</desc>
<time>2010-07-31T15:53:42.84</time>
<name>4060</name>
</trkpt>
<trkpt lat="48.855207" lon="10.826807">
<ele>556.5</ele>
<speed>43.0</speed>
<course>160.7</course>
<desc>Speed 43.0 km/h Distance 133 km</desc>
<time>2010-07-31T15:53:43.84</time>
<name>4061</name>
</trkpt>
<trkpt lat="48.855103" lon="10.826862">
<ele>557.5</ele>
<speed>37.3</speed>
<course>179.6</course>
<desc>Speed 37.3 km/h Distance 133 km</desc>
<time>2010-07-31T15:53:44.84</time>
<name>4062</name>
</trkpt>
<trkpt lat="48.855007" lon="10.826863">
<ele>557.0</ele>
<speed>37.9</speed>
<course>199.4</course>
<desc>Speed 37.9 km/h Distance 133 km</desc>
<time>2010-07-31T15:53:45.84</time>
<name>4063</name>
</trkpt>
<trkpt lat="48.854792" lon="10.826748">
<ele>556.5</ele>
<speed>42.8</speed>
<course>187.7</course>
<desc>Speed 42.8 km/h Distance 133 km</desc>
<time>2010-07-31T15:53:47.83</time>
<name>4064</name>
</trkpt>
<trkpt lat="48.854355" lon="10.826658">
<ele>557.0</ele>
<speed>57.9</speed>
<course>241.4</course>
<desc>Speed 57.9 km/h Distance 133 km</desc>
<time>2010-07-31T15:53:50.82</time>
<name>4065</name>
</trkpt>
<trkpt lat="48.854285" lon="10.826463">
<ele>558.0</ele>
<speed>54.8</speed>
<course>250.1</course>
<desc>Speed 54.8 km/h Distance 133 km</desc>
<time>2010-07-31T15:53:51.81</time>
<name>4066</name>
</trkpt>
<trkpt lat="48.854198" lon="10.826100">
<ele>559.0</ele>
<speed>49.3</speed>
<course>273.9</course>
<desc>Speed 49.3 km/h Distance 133 km</desc>
<time>2010-07-31T15:53:53.81</time>
<name>4067</name>
</trkpt>
<trkpt lat="48.854232" lon="10.825350">
<ele>559.0</ele>
<speed>65.6</speed>
<course>281.5</course>
<desc>Speed 65.6 km/h Distance 134 km</desc>
<time>2010-07-31T15:53:56.80</time>
<name>4068</name>
</trkpt>
<trkpt lat="48.854305" lon="10.824803">
<ele>561.5</ele>
<speed>71.5</speed>
<course>281.7</course>
<desc>Speed 71.5 km/h Distance 134 km</desc>
<time>2010-07-31T15:53:58.80</time>
<name>4069</name>
</trkpt>
<trkpt lat="48.854342" lon="10.824533">
<ele>562.0</ele>
<speed>69.7</speed>
<course>278.6</course>
<desc>Speed 69.7 km/h Distance 134 km</desc>
<time>2010-07-31T15:53:59.79</time>
<name>4070</name>
</trkpt>
<trkpt lat="48.854368" lon="10.824267">
<ele>562.5</ele>
<speed>67.6</speed>
<course>275.0</course>
<desc>Speed 67.6 km/h Distance 134 km</desc>
<time>2010-07-31T15:54:00.79</time>
<name>4071</name>
</trkpt>
<trkpt lat="48.854383" lon="10.824005">
<ele>562.5</ele>
<speed>66.0</speed>
<course>271.2</course>
<desc>Speed 66.0 km/h Distance 134 km</desc>
<time>2010-07-31T15:54:01.79</time>
<name>4072</name>
</trkpt>
<trkpt lat="48.854387" lon="10.823758">
<ele>563.0</ele>
<speed>63.3</speed>
<course>266.5</course>
<desc>Speed 63.3 km/h Distance 134 km</desc>
<time>2010-07-31T15:54:02.79</time>
<name>4073</name>
</trkpt>
<trkpt lat="48.854377" lon="10.823510">
<ele>563.0</ele>
<speed>63.3</speed>
<course>257.7</course>
<desc>Speed 63.3 km/h Distance 134 km</desc>
<time>2010-07-31T15:54:03.78</time>
<name>4074</name>
</trkpt>
<trkpt lat="48.854317" lon="10.823093">
<ele>564.5</ele>
<speed>54.9</speed>
<course>253.9</course>
<desc>Speed 54.9 km/h Distance 134 km</desc>
<time>2010-07-31T15:54:05.78</time>
<name>4075</name>
</trkpt>
<trkpt lat="48.854247" lon="10.822725">
<ele>565.0</ele>
<speed>55.5</speed>
<course>242.2</course>
<desc>Speed 55.5 km/h Distance 134 km</desc>
<time>2010-07-31T15:54:07.77</time>
<name>4076</name>
</trkpt>
<trkpt lat="48.854178" lon="10.822528">
<ele>564.5</ele>
<speed>57.9</speed>
<course>229.3</course>
<desc>Speed 57.9 km/h Distance 134 km</desc>
<time>2010-07-31T15:54:08.77</time>
<name>4077</name>
</trkpt>
<trkpt lat="48.854035" lon="10.822275">
<ele>563.0</ele>
<speed>57.9</speed>
<course>225.7</course>
<desc>Speed 57.9 km/h Distance 134 km</desc>
<time>2010-07-31T15:54:10.76</time>
<name>4078</name>
</trkpt>
<trkpt lat="48.853877" lon="10.822028">
<ele>562.5</ele>
<speed>57.9</speed>
<course>215.5</course>
<desc>Speed 57.9 km/h Distance 134 km</desc>
<time>2010-07-31T15:54:12.76</time>
<name>4079</name>
</trkpt>
<trkpt lat="48.853675" lon="10.821810">
<ele>563.0</ele>
<speed>57.9</speed>
<course>195.6</course>
<desc>Speed 57.9 km/h Distance 134 km</desc>
<time>2010-07-31T15:54:14.76</time>
<name>4080</name>
</trkpt>
<trkpt lat="48.851777" lon="10.821005">
<ele>567.0</ele>
<speed>98.1</speed>
<course>195.1</course>
<desc>Speed 98.1 km/h Distance 134 km</desc>
<time>2010-07-31T15:54:20.73</time>
<name>4081</name>
</trkpt>
<trkpt lat="48.851528" lon="10.820903">
<ele>567.5</ele>
<speed>94.4</speed>
<course>193.9</course>
<desc>Speed 94.4 km/h Distance 134 km</desc>
<time>2010-07-31T15:54:21.73</time>
<name>4082</name>
</trkpt>
<trkpt lat="48.850893" lon="10.820665">
<ele>572.5</ele>
<speed>73.9</speed>
<course>196.8</course>
<desc>Speed 73.9 km/h Distance 134 km</desc>
<time>2010-07-31T15:54:24.72</time>
<name>4083</name>
</trkpt>
<trkpt lat="48.850727" lon="10.820588">
<ele>572.0</ele>
<speed>68.3</speed>
<course>197.3</course>
<desc>Speed 68.3 km/h Distance 134 km</desc>
<time>2010-07-31T15:54:25.74</time>
<name>4084</name>
</trkpt>
<trkpt lat="48.850568" lon="10.820513">
<ele>571.5</ele>
<speed>64.5</speed>
<course>190.3</course>
<desc>Speed 64.5 km/h Distance 134 km</desc>
<time>2010-07-31T15:54:26.73</time>
<name>4085</name>
</trkpt>
<trkpt lat="48.850412" lon="10.820470">
<ele>572.0</ele>
<speed>60.7</speed>
<course>194.7</course>
<desc>Speed 60.7 km/h Distance 134 km</desc>
<time>2010-07-31T15:54:27.71</time>
<name>4086</name>
</trkpt>
<trkpt lat="48.850270" lon="10.820413">
<ele>574.5</ele>
<speed>54.1</speed>
<course>201.8</course>
<desc>Speed 54.1 km/h Distance 134 km</desc>
<time>2010-07-31T15:54:28.71</time>
<name>4087</name>
</trkpt>
<trkpt lat="48.849925" lon="10.820203">
<ele>572.5</ele>
<speed>9.6</speed>
<course>157.3</course>
<desc>Speed 9.6 km/h Distance 134 km</desc>
<time>2010-07-31T15:54:34.68</time>
<name>4088</name>
</trkpt>
<trkpt lat="48.849888" lon="10.820227">
<ele>573.0</ele>
<speed>10.0</speed>
<course>158.1</course>
<desc>Speed 10.0 km/h Distance 134 km</desc>
<time>2010-07-31T15:54:35.68</time>
<name>4089</name>
</trkpt>
<trkpt lat="48.849858" lon="10.820245">
<ele>574.5</ele>
<speed>9.5</speed>
<course>160.8</course>
<desc>Speed 9.5 km/h Distance 134 km</desc>
<time>2010-07-31T15:54:36.68</time>
<name>4090</name>
</trkpt>
<trkpt lat="48.849830" lon="10.820260">
<ele>575.0</ele>
<speed>9.8</speed>
<course>152.3</course>
<desc>Speed 9.8 km/h Distance 134 km</desc>
<time>2010-07-31T15:54:37.67</time>
<name>4091</name>
</trkpt>
<trkpt lat="48.849805" lon="10.820280">
<ele>575.0</ele>
<speed>9.6</speed>
<course>150.3</course>
<desc>Speed 9.6 km/h Distance 134 km</desc>
<time>2010-07-31T15:54:38.66</time>
<name>4092</name>
</trkpt>
<trkpt lat="48.849780" lon="10.820302">
<ele>575.5</ele>
<speed>9.3</speed>
<course>158.6</course>
<desc>Speed 9.3 km/h Distance 134 km</desc>
<time>2010-07-31T15:54:39.66</time>
<name>4093</name>
</trkpt>
<trkpt lat="48.849710" lon="10.820343">
<ele>582.5</ele>
<speed>6.8</speed>
<course>150.0</course>
<desc>Speed 6.8 km/h Distance 134 km</desc>
<time>2010-07-31T15:54:41.66</time>
<name>4094</name>
</trkpt>
<trkpt lat="48.849697" lon="10.820355">
<ele>584.5</ele>
<speed>3.2</speed>
<course>135.5</course>
<desc>Speed 3.2 km/h Distance 134 km</desc>
<time>2010-07-31T15:54:42.66</time>
<name>4095</name>
</trkpt>
<trkpt lat="48.849690" lon="10.820365">
<ele>585.0</ele>
<speed>3.2</speed>
<course>148.4</course>
<desc>Speed 3.2 km/h Distance 134 km</desc>
<time>2010-07-31T15:54:43.65</time>
<name>4096</name>
</trkpt>
<trkpt lat="48.849687" lon="10.820368">
<ele>585.0</ele>
<speed>0.9</speed>
<course>270.0</course>
<desc>Speed 0.9 km/h Distance 134 km</desc>
<time>2010-07-31T15:54:44.65</time>
<name>4097</name>
</trkpt>
<trkpt lat="48.849687" lon="10.820360">
<ele>585.5</ele>
<speed>2.0</speed>
<course>167.4</course>
<desc>Speed 2.0 km/h Distance 134 km</desc>
<time>2010-07-31T15:54:45.65</time>
<name>4098</name>
</trkpt>
<trkpt lat="48.849685" lon="10.820360">
<ele>586.0</ele>
<speed>0.4</speed>
<course>226.5</course>
<desc>Speed 0.4 km/h Distance 134 km</desc>
<time>2010-07-31T15:54:46.65</time>
<name>4099</name>
</trkpt>
<trkpt lat="48.849677" lon="10.820347">
<ele>586.0</ele>
<speed>0.3</speed>
<course>203.8</course>
<desc>Speed 0.3 km/h Distance 134 km</desc>
<time>2010-07-31T15:54:48.64</time>
<name>4100</name>
</trkpt>
<trkpt lat="48.849672" lon="10.820343">
<ele>586.0</ele>
<speed>0.2</speed>
<course>197.6</course>
<desc>Speed 0.2 km/h Distance 134 km</desc>
<time>2010-07-31T15:54:50.63</time>
<name>4101</name>
</trkpt>
<trkpt lat="48.849662" lon="10.820338">
<ele>586.0</ele>
<speed>0.8</speed>
<course>180.0</course>
<desc>Speed 0.8 km/h Distance 134 km</desc>
<time>2010-07-31T15:54:52.63</time>
<name>4102</name>
</trkpt>
<trkpt lat="48.849657" lon="10.820338">
<ele>588.0</ele>
<speed>1.3</speed>
<course>114.3</course>
<desc>Speed 1.3 km/h Distance 134 km</desc>
<time>2010-07-31T15:54:54.62</time>
<name>4103</name>
</trkpt>
<trkpt lat="48.849338" lon="10.821408">
<ele>587.5</ele>
<speed>98.1</speed>
<course>118.6</course>
<desc>Speed 98.1 km/h Distance 134 km</desc>
<time>2010-07-31T15:55:00.61</time>
<name>4104</name>
</trkpt>
<trkpt lat="48.849090" lon="10.822100">
<ele>586.5</ele>
<speed>106</speed>
<course>120.6</course>
<desc>Speed 106 km/h Distance 134 km</desc>
<time>2010-07-31T15:55:02.60</time>
<name>4105</name>
</trkpt>
<trkpt lat="48.846462" lon="10.828852">
<ele>585.0</ele>
<speed>139</speed>
<course>116.4</course>
<desc>Speed 139 km/h Distance 135 km</desc>
<time>2010-07-31T15:55:19.54</time>
<name>4106</name>
</trkpt>
<trkpt lat="48.845950" lon="10.830418">
<ele>579.0</ele>
<speed>139</speed>
<course>121.9</course>
<desc>Speed 139 km/h Distance 135 km</desc>
<time>2010-07-31T15:55:22.52</time>
<name>4107</name>
</trkpt>
<trkpt lat="48.845145" lon="10.832385">
<ele>563.5</ele>
<speed>73.5</speed>
<course>118.6</course>
<desc>Speed 73.5 km/h Distance 135 km</desc>
<time>2010-07-31T15:55:28.50</time>
<name>4108</name>
</trkpt>
<trkpt lat="48.844932" lon="10.832980">
<ele>564.0</ele>
<speed>53.5</speed>
<course>102.1</course>
<desc>Speed 53.5 km/h Distance 135 km</desc>
<time>2010-07-31T15:55:31.49</time>
<name>4109</name>
</trkpt>
<trkpt lat="48.844878" lon="10.833358">
<ele>563.5</ele>
<speed>32.5</speed>
<course>41.1</course>
<desc>Speed 32.5 km/h Distance 135 km</desc>
<time>2010-07-31T15:55:34.48</time>
<name>4110</name>
</trkpt>
<trkpt lat="48.845527" lon="10.834218">
<ele>564.5</ele>
<speed>68.6</speed>
<course>91.9</course>
<desc>Speed 68.6 km/h Distance 135 km</desc>
<time>2010-07-31T15:55:40.47</time>
<name>4111</name>
</trkpt>
<trkpt lat="48.845510" lon="10.834977">
<ele>559.0</ele>
<speed>65.8</speed>
<course>114.8</course>
<desc>Speed 65.8 km/h Distance 136 km</desc>
<time>2010-07-31T15:55:44.46</time>
<name>4112</name>
</trkpt>
<trkpt lat="48.845380" lon="10.835405">
<ele>560.5</ele>
<speed>63.6</speed>
<course>107.9</course>
<desc>Speed 63.6 km/h Distance 136 km</desc>
<time>2010-07-31T15:55:46.44</time>
<name>4113</name>
</trkpt>
<trkpt lat="48.845258" lon="10.835977">
<ele>562.5</ele>
<speed>32.1</speed>
<course>31.4</course>
<desc>Speed 32.1 km/h Distance 136 km</desc>
<time>2010-07-31T15:55:51.43</time>
<name>4114</name>
</trkpt>
<trkpt lat="48.846197" lon="10.836847">
<ele>562.0</ele>
<speed>103</speed>
<course>32.3</course>
<desc>Speed 103 km/h Distance 136 km</desc>
<time>2010-07-31T15:55:57.41</time>
<name>4115</name>
</trkpt>
<trkpt lat="48.846942" lon="10.837562">
<ele>560.5</ele>
<speed>117</speed>
<course>33.1</course>
<desc>Speed 117 km/h Distance 136 km</desc>
<time>2010-07-31T15:56:00.40</time>
<name>4116</name>
</trkpt>
<trkpt lat="48.847477" lon="10.838092">
<ele>560.0</ele>
<speed>123</speed>
<course>33.6</course>
<desc>Speed 123 km/h Distance 136 km</desc>
<time>2010-07-31T15:56:02.40</time>
<name>4117</name>
</trkpt>
<trkpt lat="48.848008" lon="10.838628">
<ele>560.0</ele>
<speed>126</speed>
<course>34.5</course>
<desc>Speed 126 km/h Distance 136 km</desc>
<time>2010-07-31T15:56:04.39</time>
<name>4118</name>
</trkpt>
<trkpt lat="48.848537" lon="10.839180">
<ele>560.0</ele>
<speed>128</speed>
<course>35.5</course>
<desc>Speed 128 km/h Distance 136 km</desc>
<time>2010-07-31T15:56:06.38</time>
<name>4119</name>
</trkpt>
<trkpt lat="48.849060" lon="10.839747">
<ele>560.0</ele>
<speed>129</speed>
<course>37.4</course>
<desc>Speed 129 km/h Distance 136 km</desc>
<time>2010-07-31T15:56:08.37</time>
<name>4120</name>
</trkpt>
<trkpt lat="48.849568" lon="10.840337">
<ele>560.5</ele>
<speed>129</speed>
<course>35.4</course>
<desc>Speed 129 km/h Distance 136 km</desc>
<time>2010-07-31T15:56:10.37</time>
<name>4121</name>
</trkpt>
<trkpt lat="48.850088" lon="10.840898">
<ele>560.0</ele>
<speed>126</speed>
<course>37.6</course>
<desc>Speed 126 km/h Distance 136 km</desc>
<time>2010-07-31T15:56:12.37</time>
<name>4122</name>
</trkpt>
<trkpt lat="48.850572" lon="10.841463">
<ele>560.0</ele>
<speed>122</speed>
<course>36.9</course>
<desc>Speed 122 km/h Distance 136 km</desc>
<time>2010-07-31T15:56:14.35</time>
<name>4123</name>
</trkpt>
<trkpt lat="48.850807" lon="10.841732">
<ele>560.5</ele>
<speed>118</speed>
<course>39.3</course>
<desc>Speed 118 km/h Distance 136 km</desc>
<time>2010-07-31T15:56:15.36</time>
<name>4124</name>
</trkpt>
<trkpt lat="48.851820" lon="10.842990">
<ele>562.5</ele>
<speed>77.6</speed>
<course>39.1</course>
<desc>Speed 77.6 km/h Distance 136 km</desc>
<time>2010-07-31T15:56:21.32</time>
<name>4125</name>
</trkpt>
<trkpt lat="48.852127" lon="10.843368">
<ele>561.5</ele>
<speed>81.1</speed>
<course>41.9</course>
<desc>Speed 81.1 km/h Distance 137 km</desc>
<time>2010-07-31T15:56:23.33</time>
<name>4126</name>
</trkpt>
<trkpt lat="48.853327" lon="10.845007">
<ele>560.5</ele>
<speed>104</speed>
<course>43.3</course>
<desc>Speed 104 km/h Distance 137 km</desc>
<time>2010-07-31T15:56:29.31</time>
<name>4127</name>
</trkpt>
<trkpt lat="48.853707" lon="10.845550">
<ele>560.5</ele>
<speed>101</speed>
<course>42.5</course>
<desc>Speed 101 km/h Distance 137 km</desc>
<time>2010-07-31T15:56:31.32</time>
<name>4128</name>
</trkpt>
<trkpt lat="48.853890" lon="10.845805">
<ele>560.5</ele>
<speed>98.7</speed>
<course>42.6</course>
<desc>Speed 98.7 km/h Distance 137 km</desc>
<time>2010-07-31T15:56:32.31</time>
<name>4129</name>
</trkpt>
<trkpt lat="48.854075" lon="10.846063">
<ele>561.0</ele>
<speed>100</speed>
<course>43.5</course>
<desc>Speed 100 km/h Distance 137 km</desc>
<time>2010-07-31T15:56:33.31</time>
<name>4130</name>
</trkpt>
<trkpt lat="48.854260" lon="10.846330">
<ele>562.0</ele>
<speed>102</speed>
<course>45.1</course>
<desc>Speed 102 km/h Distance 137 km</desc>
<time>2010-07-31T15:56:34.29</time>
<name>4131</name>
</trkpt>
<trkpt lat="48.854442" lon="10.846607">
<ele>562.5</ele>
<speed>103</speed>
<course>45.1</course>
<desc>Speed 103 km/h Distance 137 km</desc>
<time>2010-07-31T15:56:35.30</time>
<name>4132</name>
</trkpt>
<trkpt lat="48.854623" lon="10.846883">
<ele>563.5</ele>
<speed>103</speed>
<course>45.2</course>
<desc>Speed 103 km/h Distance 137 km</desc>
<time>2010-07-31T15:56:36.29</time>
<name>4133</name>
</trkpt>
<trkpt lat="48.854800" lon="10.847153">
<ele>564.5</ele>
<speed>100</speed>
<course>45.3</course>
<desc>Speed 100 km/h Distance 137 km</desc>
<time>2010-07-31T15:56:37.29</time>
<name>4134</name>
</trkpt>
<trkpt lat="48.855117" lon="10.847640">
<ele>566.5</ele>
<speed>90.5</speed>
<course>45.9</course>
<desc>Speed 90.5 km/h Distance 137 km</desc>
<time>2010-07-31T15:56:39.29</time>
<name>4135</name>
</trkpt>
<trkpt lat="48.855272" lon="10.847883">
<ele>566.5</ele>
<speed>89.4</speed>
<course>47.9</course>
<desc>Speed 89.4 km/h Distance 137 km</desc>
<time>2010-07-31T15:56:40.28</time>
<name>4136</name>
</trkpt>
<trkpt lat="48.855425" lon="10.848142">
<ele>566.5</ele>
<speed>91.4</speed>
<course>49.2</course>
<desc>Speed 91.4 km/h Distance 137 km</desc>
<time>2010-07-31T15:56:41.28</time>
<name>4137</name>
</trkpt>
<trkpt lat="48.855982" lon="10.849123">
<ele>567.0</ele>
<speed>105</speed>
<course>55.2</course>
<desc>Speed 105 km/h Distance 137 km</desc>
<time>2010-07-31T15:56:46.27</time>
<name>4138</name>
</trkpt>
<trkpt lat="48.856878" lon="10.851087">
<ele>570.5</ele>
<speed>139</speed>
<course>54.2</course>
<desc>Speed 139 km/h Distance 137 km</desc>
<time>2010-07-31T15:56:51.26</time>
<name>4139</name>
</trkpt>
<trkpt lat="48.857778" lon="10.852983">
<ele>570.0</ele>
<speed>149</speed>
<course>49.7</course>
<desc>Speed 149 km/h Distance 137 km</desc>
<time>2010-07-31T15:56:55.25</time>
<name>4140</name>
</trkpt>
<trkpt lat="48.858252" lon="10.853832">
<ele>571.0</ele>
<speed>157</speed>
<course>44.6</course>
<desc>Speed 157 km/h Distance 138 km</desc>
<time>2010-07-31T15:56:57.25</time>
<name>4141</name>
</trkpt>
<trkpt lat="48.859330" lon="10.855450">
<ele>572.5</ele>
<speed>123</speed>
<course>46.2</course>
<desc>Speed 123 km/h Distance 138 km</desc>
<time>2010-07-31T15:57:02.23</time>
<name>4142</name>
</trkpt>
<trkpt lat="48.860077" lon="10.856635">
<ele>574.5</ele>
<speed>123</speed>
<course>16.7</course>
<desc>Speed 123 km/h Distance 138 km</desc>
<time>2010-07-31T15:57:08.22</time>
<name>4143</name>
</trkpt>
<trkpt lat="48.861127" lon="10.857115">
<ele>580.5</ele>
<speed>110</speed>
<course>21.4</course>
<desc>Speed 110 km/h Distance 138 km</desc>
<time>2010-07-31T15:57:14.21</time>
<name>4144</name>
</trkpt>
<trkpt lat="48.862567" lon="10.857973">
<ele>582.5</ele>
<speed>110</speed>
<course>300.4</course>
<desc>Speed 110 km/h Distance 138 km</desc>
<time>2010-07-31T15:57:21.18</time>
<name>4145</name>
</trkpt>
<trkpt lat="48.862697" lon="10.857637">
<ele>582.5</ele>
<speed>110</speed>
<course>353.9</course>
<desc>Speed 110 km/h Distance 138 km</desc>
<time>2010-07-31T15:57:22.19</time>
<name>4146</name>
</trkpt>
<trkpt lat="48.867195" lon="10.856912">
<ele>582.0</ele>
<speed>110</speed>
<course>9.4</course>
<desc>Speed 110 km/h Distance 139 km</desc>
<time>2010-07-31T15:57:28.17</time>
<name>4147</name>
</trkpt>
<trkpt lat="48.869118" lon="10.857398">
<ele>582.5</ele>
<speed>137</speed>
<course>34.4</course>
<desc>Speed 137 km/h Distance 139 km</desc>
<time>2010-07-31T15:57:34.67</time>
<name>4148</name>
</trkpt>
<trkpt lat="48.872098" lon="10.860498">
<ele>581.5</ele>
<speed>137</speed>
<course>25.0</course>
<desc>Speed 137 km/h Distance 139 km</desc>
<time>2010-07-31T15:57:51.15</time>
<name>4149</name>
</trkpt>
<trkpt lat="48.873788" lon="10.861697">
<ele>587.0</ele>
<speed>137</speed>
<course>8.2</course>
<desc>Speed 137 km/h Distance 140 km</desc>
<time>2010-07-31T15:57:56.13</time>
<name>4150</name>
</trkpt>
<trkpt lat="48.875032" lon="10.861970">
<ele>587.5</ele>
<speed>137</speed>
<course>54.8</course>
<desc>Speed 137 km/h Distance 140 km</desc>
<time>2010-07-31T15:58:05.09</time>
<name>4151</name>
</trkpt>
<trkpt lat="48.875220" lon="10.862377">
<ele>587.5</ele>
<speed>137</speed>
<course>335.5</course>
<desc>Speed 137 km/h Distance 140 km</desc>
<time>2010-07-31T15:58:07.09</time>
<name>4152</name>
</trkpt>
<trkpt lat="48.875518" lon="10.862170">
<ele>587.5</ele>
<speed>137</speed>
<course>346.5</course>
<desc>Speed 137 km/h Distance 140 km</desc>
<time>2010-07-31T15:58:09.08</time>
<name>4153</name>
</trkpt>
<trkpt lat="48.878942" lon="10.860925">
<ele>588.0</ele>
<speed>137</speed>
<course>334.3</course>
<desc>Speed 137 km/h Distance 140 km</desc>
<time>2010-07-31T15:58:19.05</time>
<name>4154</name>
</trkpt>
<trkpt lat="48.879983" lon="10.860162">
<ele>588.0</ele>
<speed>137</speed>
<course>311.2</course>
<desc>Speed 137 km/h Distance 140 km</desc>
<time>2010-07-31T15:58:23.03</time>
<name>4155</name>
</trkpt>
<trkpt lat="48.880955" lon="10.858477">
<ele>588.0</ele>
<speed>104</speed>
<course>297.8</course>
<desc>Speed 104 km/h Distance 140 km</desc>
<time>2010-07-31T15:58:29.02</time>
<name>4156</name>
</trkpt>
<trkpt lat="48.881070" lon="10.858145">
<ele>587.5</ele>
<speed>104</speed>
<course>284.7</course>
<desc>Speed 104 km/h Distance 140 km</desc>
<time>2010-07-31T15:58:30.01</time>
<name>4157</name>
</trkpt>
<trkpt lat="48.881622" lon="10.854957">
<ele>588.0</ele>
<speed>105</speed>
<course>282.6</course>
<desc>Speed 105 km/h Distance 141 km</desc>
<time>2010-07-31T15:58:36.01</time>
<name>4158</name>
</trkpt>
<trkpt lat="48.881745" lon="10.854117">
<ele>587.0</ele>
<speed>98.6</speed>
<course>288.3</course>
<desc>Speed 98.6 km/h Distance 141 km</desc>
<time>2010-07-31T15:58:38.00</time>
<name>4159</name>
</trkpt>
<trkpt lat="48.881932" lon="10.853257">
<ele>587.0</ele>
<speed>87.4</speed>
<course>281.9</course>
<desc>Speed 87.4 km/h Distance 141 km</desc>
<time>2010-07-31T15:58:41.05</time>
<name>4160</name>
</trkpt>
<trkpt lat="48.882030" lon="10.852550">
<ele>587.0</ele>
<speed>85.2</speed>
<course>281.7</course>
<desc>Speed 85.2 km/h Distance 141 km</desc>
<time>2010-07-31T15:58:43.15</time>
<name>4161</name>
</trkpt>
<trkpt lat="48.882170" lon="10.851522">
<ele>587.5</ele>
<speed>75.8</speed>
<course>274.2</course>
<desc>Speed 75.8 km/h Distance 141 km</desc>
<time>2010-07-31T15:58:45.99</time>
<name>4162</name>
</trkpt>
<trkpt lat="48.882183" lon="10.851247">
<ele>587.5</ele>
<speed>75.8</speed>
<course>271.2</course>
<desc>Speed 75.8 km/h Distance 141 km</desc>
<time>2010-07-31T15:58:46.98</time>
<name>4163</name>
</trkpt>
<trkpt lat="48.882193" lon="10.850522">
<ele>587.5</ele>
<speed>57.3</speed>
<course>287.0</course>
<desc>Speed 57.3 km/h Distance 141 km</desc>
<time>2010-07-31T15:58:49.98</time>
<name>4164</name>
</trkpt>
<trkpt lat="48.882282" lon="10.850082">
<ele>587.5</ele>
<speed>53.9</speed>
<course>283.6</course>
<desc>Speed 53.9 km/h Distance 141 km</desc>
<time>2010-07-31T15:58:51.97</time>
<name>4165</name>
</trkpt>
<trkpt lat="48.882317" lon="10.849862">
<ele>583.0</ele>
<speed>53.9</speed>
<course>335.0</course>
<desc>Speed 53.9 km/h Distance 141 km</desc>
<time>2010-07-31T15:58:52.97</time>
<name>4166</name>
</trkpt>
<trkpt lat="48.882437" lon="10.849777">
<ele>582.0</ele>
<speed>52.0</speed>
<course>344.9</course>
<desc>Speed 52.0 km/h Distance 141 km</desc>
<time>2010-07-31T15:58:53.96</time>
<name>4167</name>
</trkpt>
<trkpt lat="48.882708" lon="10.849665">
<ele>580.5</ele>
<speed>62.0</speed>
<course>333.1</course>
<desc>Speed 62.0 km/h Distance 141 km</desc>
<time>2010-07-31T15:58:55.95</time>
<name>4168</name>
</trkpt>
<trkpt lat="48.882935" lon="10.849490">
<ele>578.5</ele>
<speed>47.8</speed>
<course>314.6</course>
<desc>Speed 47.8 km/h Distance 141 km</desc>
<time>2010-07-31T15:58:57.96</time>
<name>4169</name>
</trkpt>
<trkpt lat="48.883237" lon="10.849025">
<ele>578.5</ele>
<speed>64.6</speed>
<course>293.5</course>
<desc>Speed 64.6 km/h Distance 141 km</desc>
<time>2010-07-31T15:59:00.98</time>
<name>4170</name>
</trkpt>
<trkpt lat="48.883392" lon="10.848483">
<ele>577.0</ele>
<speed>64.6</speed>
<course>303.8</course>
<desc>Speed 64.6 km/h Distance 141 km</desc>
<time>2010-07-31T15:59:04.93</time>
<name>4171</name>
</trkpt>
<trkpt lat="48.883602" lon="10.848007">
<ele>570.0</ele>
<speed>64.6</speed>
<course>285.0</course>
<desc>Speed 64.6 km/h Distance 141 km</desc>
<time>2010-07-31T15:59:09.92</time>
<name>4172</name>
</trkpt>
<trkpt lat="48.883700" lon="10.847450">
<ele>565.5</ele>
<speed>64.6</speed>
<course>310.5</course>
<desc>Speed 64.6 km/h Distance 141 km</desc>
<time>2010-07-31T15:59:15.90</time>
<name>4173</name>
</trkpt>
<trkpt lat="48.884605" lon="10.845838">
<ele>559.5</ele>
<speed>64.6</speed>
<course>277.0</course>
<desc>Speed 64.6 km/h Distance 141 km</desc>
<time>2010-07-31T15:59:21.88</time>
<name>4174</name>
</trkpt>
<trkpt lat="48.884653" lon="10.845238">
<ele>559.5</ele>
<speed>64.6</speed>
<course>289.8</course>
<desc>Speed 64.6 km/h Distance 142 km</desc>
<time>2010-07-31T15:59:24.87</time>
<name>4175</name>
</trkpt>
<trkpt lat="48.885173" lon="10.843037">
<ele>567.5</ele>
<speed>100</speed>
<course>274.6</course>
<desc>Speed 100 km/h Distance 142 km</desc>
<time>2010-07-31T15:59:30.85</time>
<name>4176</name>
</trkpt>
<trkpt lat="48.885210" lon="10.842345">
<ele>567.5</ele>
<speed>100</speed>
<course>265.8</course>
<desc>Speed 100 km/h Distance 142 km</desc>
<time>2010-07-31T15:59:32.85</time>
<name>4177</name>
</trkpt>
<trkpt lat="48.885188" lon="10.841898">
<ele>567.0</ele>
<speed>100</speed>
<course>269.6</course>
<desc>Speed 100 km/h Distance 142 km</desc>
<time>2010-07-31T15:59:34.02</time>
<name>4178</name>
</trkpt>
<trkpt lat="48.885182" lon="10.840343">
<ele>565.0</ele>
<speed>100</speed>
<course>286.0</course>
<desc>Speed 100 km/h Distance 142 km</desc>
<time>2010-07-31T15:59:37.83</time>
<name>4179</name>
</trkpt>
<trkpt lat="48.885460" lon="10.838867">
<ele>563.5</ele>
<speed>93.8</speed>
<course>281.2</course>
<desc>Speed 93.8 km/h Distance 142 km</desc>
<time>2010-07-31T15:59:41.82</time>
<name>4180</name>
</trkpt>
<trkpt lat="48.885815" lon="10.836142">
<ele>562.5</ele>
<speed>92.5</speed>
<course>286.4</course>
<desc>Speed 92.5 km/h Distance 142 km</desc>
<time>2010-07-31T15:59:47.80</time>
<name>4181</name>
</trkpt>
<trkpt lat="48.885925" lon="10.835573">
<ele>563.0</ele>
<speed>92.5</speed>
<course>293.2</course>
<desc>Speed 92.5 km/h Distance 142 km</desc>
<time>2010-07-31T15:59:52.92</time>
<name>4182</name>
</trkpt>
<trkpt lat="48.886493" lon="10.833557">
<ele>564.0</ele>
<speed>69.9</speed>
<course>291.6</course>
<desc>Speed 69.9 km/h Distance 142 km</desc>
<time>2010-07-31T15:59:57.79</time>
<name>4183</name>
</trkpt>
<trkpt lat="48.886652" lon="10.832948">
<ele>564.0</ele>
<speed>69.9</speed>
<course>272.6</course>
<desc>Speed 69.9 km/h Distance 142 km</desc>
<time>2010-07-31T16:00:02.77</time>
<name>4184</name>
</trkpt>
<trkpt lat="48.886670" lon="10.832332">
<ele>563.5</ele>
<speed>69.9</speed>
<course>283.7</course>
<desc>Speed 69.9 km/h Distance 142 km</desc>
<time>2010-07-31T16:00:05.94</time>
<name>4185</name>
</trkpt>
<trkpt lat="48.886797" lon="10.831543">
<ele>564.0</ele>
<speed>69.9</speed>
<course>266.7</course>
<desc>Speed 69.9 km/h Distance 143 km</desc>
<time>2010-07-31T16:00:09.76</time>
<name>4186</name>
</trkpt>
<trkpt lat="48.886765" lon="10.830698">
<ele>564.0</ele>
<speed>61.0</speed>
<course>283.1</course>
<desc>Speed 61.0 km/h Distance 143 km</desc>
<time>2010-07-31T16:00:14.74</time>
<name>4187</name>
</trkpt>
<trkpt lat="48.887078" lon="10.828643">
<ele>564.0</ele>
<speed>51.2</speed>
<course>293.6</course>
<desc>Speed 51.2 km/h Distance 143 km</desc>
<time>2010-07-31T16:00:20.76</time>
<name>4188</name>
</trkpt>
<trkpt lat="48.887282" lon="10.827935">
<ele>561.0</ele>
<speed>58.9</speed>
<course>310.0</course>
<desc>Speed 58.9 km/h Distance 143 km</desc>
<time>2010-07-31T16:00:23.71</time>
<name>4189</name>
</trkpt>
<trkpt lat="48.887643" lon="10.827278">
<ele>553.5</ele>
<speed>63.4</speed>
<course>331.0</course>
<desc>Speed 63.4 km/h Distance 143 km</desc>
<time>2010-07-31T16:00:26.71</time>
<name>4190</name>
</trkpt>
<trkpt lat="48.887865" lon="10.827092">
<ele>550.5</ele>
<speed>63.4</speed>
<course>294.9</course>
<desc>Speed 63.4 km/h Distance 143 km</desc>
<time>2010-07-31T16:00:28.67</time>
<name>4191</name>
</trkpt>
<trkpt lat="48.888043" lon="10.826508">
<ele>541.0</ele>
<speed>45.6</speed>
<course>326.7</course>
<desc>Speed 45.6 km/h Distance 143 km</desc>
<time>2010-07-31T16:00:31.67</time>
<name>4192</name>
</trkpt>
<trkpt lat="48.888197" lon="10.826355">
<ele>539.0</ele>
<speed>45.6</speed>
<course>303.6</course>
<desc>Speed 45.6 km/h Distance 143 km</desc>
<time>2010-07-31T16:00:33.66</time>
<name>4193</name>
</trkpt>
<trkpt lat="48.888312" lon="10.826092">
<ele>530.0</ele>
<speed>45.6</speed>
<course>290.6</course>
<desc>Speed 45.6 km/h Distance 143 km</desc>
<time>2010-07-31T16:00:37.69</time>
<name>4194</name>
</trkpt>
<trkpt lat="48.888372" lon="10.825848">
<ele>529.0</ele>
<speed>32.3</speed>
<course>259.1</course>
<desc>Speed 32.3 km/h Distance 143 km</desc>
<time>2010-07-31T16:00:39.75</time>
<name>4195</name>
</trkpt>
<trkpt lat="48.888273" lon="10.825075">
<ele>529.5</ele>
<speed>25.1</speed>
<course>215.4</course>
<desc>Speed 25.1 km/h Distance 143 km</desc>
<time>2010-07-31T16:00:43.64</time>
<name>4196</name>
</trkpt>
<trkpt lat="48.887543" lon="10.824287">
<ele>529.5</ele>
<speed>68.4</speed>
<course>201.8</course>
<desc>Speed 68.4 km/h Distance 143 km</desc>
<time>2010-07-31T16:00:49.61</time>
<name>4197</name>
</trkpt>
<trkpt lat="48.887212" lon="10.824085">
<ele>530.0</ele>
<speed>68.4</speed>
<course>205.9</course>
<desc>Speed 68.4 km/h Distance 143 km</desc>
<time>2010-07-31T16:00:51.61</time>
<name>4198</name>
</trkpt>
<trkpt lat="48.886873" lon="10.823835">
<ele>531.5</ele>
<speed>80.3</speed>
<course>208.8</course>
<desc>Speed 80.3 km/h Distance 143 km</desc>
<time>2010-07-31T16:00:53.60</time>
<name>4199</name>
</trkpt>
<trkpt lat="48.886483" lon="10.823508">
<ele>531.5</ele>
<speed>80.3</speed>
<course>209.1</course>
<desc>Speed 80.3 km/h Distance 143 km</desc>
<time>2010-07-31T16:00:55.60</time>
<name>4200</name>
</trkpt>
<trkpt lat="48.885828" lon="10.822953">
<ele>533.5</ele>
<speed>98.3</speed>
<course>207.5</course>
<desc>Speed 98.3 km/h Distance 143 km</desc>
<time>2010-07-31T16:00:58.80</time>
<name>4201</name>
</trkpt>
<trkpt lat="48.885122" lon="10.822395">
<ele>524.5</ele>
<speed>87.3</speed>
<course>218.6</course>
<desc>Speed 87.3 km/h Distance 143 km</desc>
<time>2010-07-31T16:01:01.57</time>
<name>4202</name>
</trkpt>
<trkpt lat="48.884828" lon="10.822038">
<ele>526.0</ele>
<speed>75.2</speed>
<course>220.2</course>
<desc>Speed 75.2 km/h Distance 144 km</desc>
<time>2010-07-31T16:01:03.57</time>
<name>4203</name>
</trkpt>
<trkpt lat="48.884295" lon="10.821353">
<ele>526.5</ele>
<speed>87.1</speed>
<course>214.8</course>
<desc>Speed 87.1 km/h Distance 144 km</desc>
<time>2010-07-31T16:01:06.56</time>
<name>4204</name>
</trkpt>
<trkpt lat="48.883902" lon="10.820938">
<ele>535.0</ele>
<speed>75.0</speed>
<course>213.8</course>
<desc>Speed 75.0 km/h Distance 144 km</desc>
<time>2010-07-31T16:01:08.55</time>
<name>4205</name>
</trkpt>
<trkpt lat="48.883422" lon="10.820450">
<ele>524.0</ele>
<speed>75.0</speed>
<course>203.1</course>
<desc>Speed 75.0 km/h Distance 144 km</desc>
<time>2010-07-31T16:01:12.54</time>
<name>4206</name>
</trkpt>
<trkpt lat="48.883123" lon="10.820257">
<ele>518.0</ele>
<speed>75.0</speed>
<course>222.8</course>
<desc>Speed 75.0 km/h Distance 144 km</desc>
<time>2010-07-31T16:01:14.53</time>
<name>4207</name>
</trkpt>
<trkpt lat="48.881872" lon="10.818492">
<ele>511.5</ele>
<speed>75.0</speed>
<course>203.7</course>
<desc>Speed 75.0 km/h Distance 144 km</desc>
<time>2010-07-31T16:01:19.68</time>
<name>4208</name>
</trkpt>
<trkpt lat="48.881062" lon="10.817952">
<ele>506.0</ele>
<speed>75.0</speed>
<course>217.3</course>
<desc>Speed 75.0 km/h Distance 144 km</desc>
<time>2010-07-31T16:01:23.49</time>
<name>4209</name>
</trkpt>
<trkpt lat="48.879802" lon="10.816492">
<ele>517.5</ele>
<speed>121</speed>
<course>213.3</course>
<desc>Speed 121 km/h Distance 144 km</desc>
<time>2010-07-31T16:01:25.48</time>
<name>4210</name>
</trkpt>
<trkpt lat="48.878578" lon="10.815272">
<ele>526.5</ele>
<speed>98.0</speed>
<course>237.7</course>
<desc>Speed 98.0 km/h Distance 144 km</desc>
<time>2010-07-31T16:01:29.47</time>
<name>4211</name>
</trkpt>
<trkpt lat="48.878330" lon="10.814673">
<ele>529.0</ele>
<speed>107</speed>
<course>247.7</course>
<desc>Speed 107 km/h Distance 144 km</desc>
<time>2010-07-31T16:01:31.46</time>
<name>4212</name>
</trkpt>
<trkpt lat="48.878022" lon="10.813530">
<ele>534.0</ele>
<speed>106</speed>
<course>234.7</course>
<desc>Speed 106 km/h Distance 145 km</desc>
<time>2010-07-31T16:01:35.45</time>
<name>4213</name>
</trkpt>
<trkpt lat="48.877525" lon="10.812462">
<ele>534.5</ele>
<speed>97.7</speed>
<course>232.3</course>
<desc>Speed 97.7 km/h Distance 145 km</desc>
<time>2010-07-31T16:01:38.44</time>
<name>4214</name>
</trkpt>
<trkpt lat="48.877387" lon="10.812190">
<ele>533.5</ele>
<speed>97.7</speed>
<course>219.6</course>
<desc>Speed 97.7 km/h Distance 145 km</desc>
<time>2010-07-31T16:01:39.43</time>
<name>4215</name>
</trkpt>
<trkpt lat="48.875770" lon="10.810160">
<ele>527.5</ele>
<speed>109</speed>
<course>219.0</course>
<desc>Speed 109 km/h Distance 145 km</desc>
<time>2010-07-31T16:01:48.41</time>
<name>4216</name>
</trkpt>
<trkpt lat="48.875068" lon="10.809297">
<ele>529.0</ele>
<speed>101</speed>
<course>217.4</course>
<desc>Speed 101 km/h Distance 145 km</desc>
<time>2010-07-31T16:01:51.40</time>
<name>4217</name>
</trkpt>
<trkpt lat="48.874375" lon="10.808492">
<ele>533.0</ele>
<speed>102</speed>
<course>225.2</course>
<desc>Speed 102 km/h Distance 145 km</desc>
<time>2010-07-31T16:01:54.39</time>
<name>4218</name>
</trkpt>
<trkpt lat="48.874197" lon="10.808218">
<ele>532.0</ele>
<speed>95.3</speed>
<course>242.7</course>
<desc>Speed 95.3 km/h Distance 145 km</desc>
<time>2010-07-31T16:01:55.38</time>
<name>4219</name>
</trkpt>
<trkpt lat="48.873857" lon="10.807215">
<ele>531.5</ele>
<speed>64.5</speed>
<course>268.6</course>
<desc>Speed 64.5 km/h Distance 145 km</desc>
<time>2010-07-31T16:02:00.38</time>
<name>4220</name>
</trkpt>
<trkpt lat="48.873848" lon="10.806698">
<ele>529.5</ele>
<speed>68.1</speed>
<course>266.1</course>
<desc>Speed 68.1 km/h Distance 145 km</desc>
<time>2010-07-31T16:02:02.36</time>
<name>4221</name>
</trkpt>
<trkpt lat="48.873837" lon="10.806440">
<ele>529.5</ele>
<speed>66.6</speed>
<course>265.9</course>
<desc>Speed 66.6 km/h Distance 145 km</desc>
<time>2010-07-31T16:02:03.35</time>
<name>4222</name>
</trkpt>
<trkpt lat="48.873825" lon="10.806192">
<ele>530.0</ele>
<speed>65.2</speed>
<course>257.5</course>
<desc>Speed 65.2 km/h Distance 145 km</desc>
<time>2010-07-31T16:02:04.35</time>
<name>4223</name>
</trkpt>
<trkpt lat="48.873788" lon="10.805940">
<ele>529.5</ele>
<speed>68.7</speed>
<course>255.3</course>
<desc>Speed 68.7 km/h Distance 145 km</desc>
<time>2010-07-31T16:02:05.35</time>
<name>4224</name>
</trkpt>
<trkpt lat="48.873747" lon="10.805698">
<ele>529.0</ele>
<speed>65.7</speed>
<course>245.1</course>
<desc>Speed 65.7 km/h Distance 145 km</desc>
<time>2010-07-31T16:02:06.34</time>
<name>4225</name>
</trkpt>
<trkpt lat="48.873617" lon="10.805272">
<ele>529.0</ele>
<speed>71.2</speed>
<course>238.0</course>
<desc>Speed 71.2 km/h Distance 145 km</desc>
<time>2010-07-31T16:02:08.34</time>
<name>4226</name>
</trkpt>
<trkpt lat="48.873528" lon="10.805057">
<ele>528.5</ele>
<speed>66.6</speed>
<course>233.0</course>
<desc>Speed 66.6 km/h Distance 145 km</desc>
<time>2010-07-31T16:02:09.33</time>
<name>4227</name>
</trkpt>
<trkpt lat="48.873420" lon="10.804838">
<ele>528.5</ele>
<speed>71.1</speed>
<course>236.1</course>
<desc>Speed 71.1 km/h Distance 145 km</desc>
<time>2010-07-31T16:02:10.33</time>
<name>4228</name>
</trkpt>
<trkpt lat="48.873323" lon="10.804620">
<ele>528.0</ele>
<speed>66.0</speed>
<course>243.1</course>
<desc>Speed 66.0 km/h Distance 145 km</desc>
<time>2010-07-31T16:02:11.33</time>
<name>4229</name>
</trkpt>
<trkpt lat="48.873245" lon="10.804385">
<ele>528.0</ele>
<speed>66.7</speed>
<course>233.2</course>
<desc>Speed 66.7 km/h Distance 145 km</desc>
<time>2010-07-31T16:02:12.33</time>
<name>4230</name>
</trkpt>
<trkpt lat="48.873137" lon="10.804165">
<ele>528.5</ele>
<speed>67.0</speed>
<course>242.9</course>
<desc>Speed 67.0 km/h Distance 145 km</desc>
<time>2010-07-31T16:02:13.33</time>
<name>4231</name>
</trkpt>
<trkpt lat="48.872885" lon="10.803418">
<ele>528.0</ele>
<speed>71.8</speed>
<course>253.0</course>
<desc>Speed 71.8 km/h Distance 145 km</desc>
<time>2010-07-31T16:02:16.47</time>
<name>4232</name>
</trkpt>
<trkpt lat="48.872788" lon="10.802938">
<ele>528.5</ele>
<speed>70.8</speed>
<course>248.1</course>
<desc>Speed 70.8 km/h Distance 146 km</desc>
<time>2010-07-31T16:02:18.31</time>
<name>4233</name>
</trkpt>
<trkpt lat="48.872605" lon="10.802245">
<ele>533.0</ele>
<speed>70.8</speed>
<course>262.4</course>
<desc>Speed 70.8 km/h Distance 146 km</desc>
<time>2010-07-31T16:02:23.28</time>
<name>4234</name>
</trkpt>
<trkpt lat="48.872540" lon="10.801500">
<ele>529.0</ele>
<speed>70.8</speed>
<course>258.5</course>
<desc>Speed 70.8 km/h Distance 146 km</desc>
<time>2010-07-31T16:02:29.30</time>
<name>4235</name>
</trkpt>
<trkpt lat="48.872413" lon="10.800550">
<ele>526.5</ele>
<speed>87.3</speed>
<course>267.2</course>
<desc>Speed 87.3 km/h Distance 146 km</desc>
<time>2010-07-31T16:02:35.24</time>
<name>4236</name>
</trkpt>
<trkpt lat="48.872390" lon="10.799837">
<ele>527.5</ele>
<speed>87.3</speed>
<course>258.0</course>
<desc>Speed 87.3 km/h Distance 146 km</desc>
<time>2010-07-31T16:02:37.23</time>
<name>4237</name>
</trkpt>
<trkpt lat="48.872237" lon="10.798742">
<ele>527.0</ele>
<speed>87.3</speed>
<course>289.4</course>
<desc>Speed 87.3 km/h Distance 146 km</desc>
<time>2010-07-31T16:02:42.21</time>
<name>4238</name>
</trkpt>
<trkpt lat="48.872368" lon="10.798173">
<ele>532.0</ele>
<speed>87.3</speed>
<course>299.1</course>
<desc>Speed 87.3 km/h Distance 146 km</desc>
<time>2010-07-31T16:02:44.20</time>
<name>4239</name>
</trkpt>
<trkpt lat="48.872495" lon="10.797827">
<ele>534.5</ele>
<speed>87.3</speed>
<course>267.7</course>
<desc>Speed 87.3 km/h Distance 146 km</desc>
<time>2010-07-31T16:02:45.39</time>
<name>4240</name>
</trkpt>
<trkpt lat="48.872448" lon="10.796067">
<ele>534.5</ele>
<speed>119</speed>
<course>271.6</course>
<desc>Speed 119 km/h Distance 146 km</desc>
<time>2010-07-31T16:02:50.19</time>
<name>4241</name>
</trkpt>
<trkpt lat="48.872515" lon="10.792518">
<ele>535.0</ele>
<speed>92.3</speed>
<course>241.5</course>
<desc>Speed 92.3 km/h Distance 146 km</desc>
<time>2010-07-31T16:02:56.16</time>
<name>4242</name>
</trkpt>
<trkpt lat="48.871400" lon="10.789395">
<ele>533.0</ele>
<speed>71.5</speed>
<course>248.7</course>
<desc>Speed 71.5 km/h Distance 147 km</desc>
<time>2010-07-31T16:03:02.14</time>
<name>4243</name>
</trkpt>
<trkpt lat="48.871198" lon="10.788610">
<ele>534.5</ele>
<speed>56.6</speed>
<course>256.0</course>
<desc>Speed 56.6 km/h Distance 147 km</desc>
<time>2010-07-31T16:03:05.13</time>
<name>4244</name>
</trkpt>
<trkpt lat="48.871158" lon="10.788367">
<ele>534.0</ele>
<speed>55.2</speed>
<course>259.3</course>
<desc>Speed 55.2 km/h Distance 147 km</desc>
<time>2010-07-31T16:03:06.28</time>
<name>4245</name>
</trkpt>
<trkpt lat="48.871062" lon="10.787590">
<ele>532.0</ele>
<speed>67.0</speed>
<course>266.1</course>
<desc>Speed 67.0 km/h Distance 147 km</desc>
<time>2010-07-31T16:03:09.11</time>
<name>4246</name>
</trkpt>
<trkpt lat="48.871038" lon="10.787073">
<ele>532.5</ele>
<speed>67.0</speed>
<course>280.0</course>
<desc>Speed 67.0 km/h Distance 147 km</desc>
<time>2010-07-31T16:03:12.10</time>
<name>4247</name>
</trkpt>
<trkpt lat="48.871112" lon="10.786438">
<ele>533.0</ele>
<speed>67.0</speed>
<course>271.2</course>
<desc>Speed 67.0 km/h Distance 147 km</desc>
<time>2010-07-31T16:03:15.10</time>
<name>4248</name>
</trkpt>
<trkpt lat="48.871133" lon="10.784922">
<ele>508.5</ele>
<speed>124</speed>
<course>271.4</course>
<desc>Speed 124 km/h Distance 147 km</desc>
<time>2010-07-31T16:03:21.07</time>
<name>4249</name>
</trkpt>
<trkpt lat="48.871172" lon="10.782563">
<ele>502.5</ele>
<speed>141</speed>
<course>272.6</course>
<desc>Speed 141 km/h Distance 147 km</desc>
<time>2010-07-31T16:03:25.17</time>
<name>4250</name>
</trkpt>
<trkpt lat="48.871240" lon="10.780253">
<ele>495.5</ele>
<speed>150</speed>
<course>279.6</course>
<desc>Speed 150 km/h Distance 147 km</desc>
<time>2010-07-31T16:03:29.04</time>
<name>4251</name>
</trkpt>
<trkpt lat="48.871433" lon="10.778518">
<ele>492.0</ele>
<speed>138</speed>
<course>277.6</course>
<desc>Speed 138 km/h Distance 147 km</desc>
<time>2010-07-31T16:03:32.03</time>
<name>4252</name>
</trkpt>
<trkpt lat="48.871530" lon="10.777410">
<ele>489.5</ele>
<speed>134</speed>
<course>274.7</course>
<desc>Speed 134 km/h Distance 147 km</desc>
<time>2010-07-31T16:03:34.03</time>
<name>4253</name>
</trkpt>
<trkpt lat="48.871590" lon="10.776300">
<ele>488.5</ele>
<speed>124</speed>
<course>270.5</course>
<desc>Speed 124 km/h Distance 148 km</desc>
<time>2010-07-31T16:03:36.02</time>
<name>4254</name>
</trkpt>
<trkpt lat="48.871612" lon="10.772360">
<ele>522.0</ele>
<speed>137</speed>
<course>271.2</course>
<desc>Speed 137 km/h Distance 148 km</desc>
<time>2010-07-31T16:03:42.12</time>
<name>4255</name>
</trkpt>
<trkpt lat="48.871635" lon="10.770697">
<ele>531.5</ele>
<speed>127</speed>
<course>262.6</course>
<desc>Speed 127 km/h Distance 148 km</desc>
<time>2010-07-31T16:03:44.98</time>
<name>4256</name>
</trkpt>
<trkpt lat="48.871478" lon="10.768862">
<ele>536.5</ele>
<speed>107</speed>
<course>259.8</course>
<desc>Speed 107 km/h Distance 148 km</desc>
<time>2010-07-31T16:03:49.96</time>
<name>4257</name>
</trkpt>
<trkpt lat="48.871393" lon="10.768145">
<ele>537.0</ele>
<speed>107</speed>
<course>271.5</course>
<desc>Speed 107 km/h Distance 148 km</desc>
<time>2010-07-31T16:03:51.96</time>
<name>4258</name>
</trkpt>
<trkpt lat="48.871418" lon="10.766717">
<ele>534.5</ele>
<speed>107</speed>
<course>284.8</course>
<desc>Speed 107 km/h Distance 148 km</desc>
<time>2010-07-31T16:03:57.94</time>
<name>4259</name>
</trkpt>
<trkpt lat="48.871660" lon="10.765323">
<ele>563.0</ele>
<speed>98.1</speed>
<course>280.8</course>
<desc>Speed 98.1 km/h Distance 148 km</desc>
<time>2010-07-31T16:04:00.98</time>
<name>4260</name>
</trkpt>
<trkpt lat="48.871757" lon="10.764552">
<ele>578.0</ele>
<speed>98.1</speed>
<course>287.0</course>
<desc>Speed 98.1 km/h Distance 148 km</desc>
<time>2010-07-31T16:04:03.06</time>
<name>4261</name>
</trkpt>
<trkpt lat="48.871892" lon="10.763880">
<ele>578.0</ele>
<speed>94.0</speed>
<course>289.9</course>
<desc>Speed 94.0 km/h Distance 148 km</desc>
<time>2010-07-31T16:04:04.91</time>
<name>4262</name>
</trkpt>
<trkpt lat="48.872052" lon="10.763208">
<ele>580.0</ele>
<speed>87.3</speed>
<course>292.3</course>
<desc>Speed 87.3 km/h Distance 149 km</desc>
<time>2010-07-31T16:04:06.91</time>
<name>4263</name>
</trkpt>
<trkpt lat="48.872238" lon="10.762517">
<ele>576.0</ele>
<speed>87.3</speed>
<course>272.3</course>
<desc>Speed 87.3 km/h Distance 149 km</desc>
<time>2010-07-31T16:04:09.90</time>
<name>4264</name>
</trkpt>
<trkpt lat="48.872268" lon="10.761402">
<ele>559.0</ele>
<speed>30.3</speed>
<course>263.9</course>
<desc>Speed 30.3 km/h Distance 149 km</desc>
<time>2010-07-31T16:04:15.88</time>
<name>4265</name>
</trkpt>
<trkpt lat="48.872255" lon="10.761213">
<ele>557.5</ele>
<speed>30.3</speed>
<course>246.1</course>
<desc>Speed 30.3 km/h Distance 149 km</desc>
<time>2010-07-31T16:04:17.92</time>
<name>4266</name>
</trkpt>
<trkpt lat="48.872167" lon="10.760910">
<ele>565.0</ele>
<speed>30.3</speed>
<course>270.0</course>
<desc>Speed 30.3 km/h Distance 149 km</desc>
<time>2010-07-31T16:04:20.02</time>
<name>4267</name>
</trkpt>
<trkpt lat="48.872167" lon="10.760695">
<ele>569.0</ele>
<speed>30.3</speed>
<course>288.0</course>
<desc>Speed 30.3 km/h Distance 149 km</desc>
<time>2010-07-31T16:04:21.87</time>
<name>4268</name>
</trkpt>
<trkpt lat="48.872202" lon="10.760532">
<ele>571.0</ele>
<speed>30.3</speed>
<course>264.1</course>
<desc>Speed 30.3 km/h Distance 149 km</desc>
<time>2010-07-31T16:04:23.87</time>
<name>4269</name>
</trkpt>
<trkpt lat="48.872192" lon="10.760385">
<ele>572.0</ele>
<speed>30.3</speed>
<course>257.7</course>
<desc>Speed 30.3 km/h Distance 149 km</desc>
<time>2010-07-31T16:04:25.86</time>
<name>4270</name>
</trkpt>
<trkpt lat="48.872158" lon="10.760153">
<ele>573.5</ele>
<speed>30.3</speed>
<course>266.1</course>
<desc>Speed 30.3 km/h Distance 149 km</desc>
<time>2010-07-31T16:04:27.85</time>
<name>4271</name>
</trkpt>
<trkpt lat="48.872092" lon="10.758680">
<ele>571.0</ele>
<speed>30.3</speed>
<course>306.4</course>
<desc>Speed 30.3 km/h Distance 149 km</desc>
<time>2010-07-31T16:04:31.84</time>
<name>4272</name>
</trkpt>
<trkpt lat="48.872203" lon="10.758450">
<ele>569.0</ele>
<speed>30.3</speed>
<course>280.2</course>
<desc>Speed 30.3 km/h Distance 149 km</desc>
<time>2010-07-31T16:04:33.83</time>
<name>4273</name>
</trkpt>
<trkpt lat="48.872753" lon="10.753798">
<ele>566.0</ele>
<speed>30.3</speed>
<course>302.6</course>
<desc>Speed 30.3 km/h Distance 149 km</desc>
<time>2010-07-31T16:04:46.78</time>
<name>4274</name>
</trkpt>
<trkpt lat="48.873332" lon="10.752423">
<ele>567.5</ele>
<speed>30.3</speed>
<course>295.2</course>
<desc>Speed 30.3 km/h Distance 149 km</desc>
<time>2010-07-31T16:04:52.75</time>
<name>4275</name>
</trkpt>
<trkpt lat="48.873405" lon="10.752187">
<ele>566.5</ele>
<speed>30.3</speed>
<course>289.7</course>
<desc>Speed 30.3 km/h Distance 149 km</desc>
<time>2010-07-31T16:04:54.76</time>
<name>4276</name>
</trkpt>
<trkpt lat="48.874147" lon="10.749032">
<ele>563.5</ele>
<speed>136</speed>
<course>282.5</course>
<desc>Speed 136 km/h Distance 150 km</desc>
<time>2010-07-31T16:05:00.73</time>
<name>4277</name>
</trkpt>
<trkpt lat="48.874365" lon="10.747533">
<ele>563.5</ele>
<speed>115</speed>
<course>284.1</course>
<desc>Speed 115 km/h Distance 150 km</desc>
<time>2010-07-31T16:05:03.72</time>
<name>4278</name>
</trkpt>
<trkpt lat="48.874503" lon="10.746698">
<ele>563.5</ele>
<speed>111</speed>
<course>286.5</course>
<desc>Speed 111 km/h Distance 150 km</desc>
<time>2010-07-31T16:05:05.72</time>
<name>4279</name>
</trkpt>
<trkpt lat="48.874742" lon="10.745473">
<ele>563.5</ele>
<speed>88.4</speed>
<course>264.2</course>
<desc>Speed 88.4 km/h Distance 150 km</desc>
<time>2010-07-31T16:05:09.72</time>
<name>4280</name>
</trkpt>
<trkpt lat="48.874527" lon="10.742270">
<ele>564.5</ele>
<speed>88.6</speed>
<course>266.7</course>
<desc>Speed 88.6 km/h Distance 150 km</desc>
<time>2010-07-31T16:05:15.69</time>
<name>4281</name>
</trkpt>
<trkpt lat="48.874502" lon="10.741605">
<ele>564.5</ele>
<speed>88.6</speed>
<course>268.9</course>
<desc>Speed 88.6 km/h Distance 150 km</desc>
<time>2010-07-31T16:05:17.69</time>
<name>4282</name>
</trkpt>
<trkpt lat="48.874475" lon="10.739405">
<ele>565.0</ele>
<speed>92.1</speed>
<course>269.4</course>
<desc>Speed 92.1 km/h Distance 150 km</desc>
<time>2010-07-31T16:05:22.67</time>
<name>4283</name>
</trkpt>
<trkpt lat="48.874470" lon="10.738660">
<ele>565.0</ele>
<speed>90.9</speed>
<course>268.2</course>
<desc>Speed 90.9 km/h Distance 150 km</desc>
<time>2010-07-31T16:05:24.67</time>
<name>4284</name>
</trkpt>
<trkpt lat="48.874455" lon="10.737945">
<ele>565.0</ele>
<speed>90.0</speed>
<course>270.2</course>
<desc>Speed 90.0 km/h Distance 150 km</desc>
<time>2010-07-31T16:05:26.68</time>
<name>4285</name>
</trkpt>
<trkpt lat="48.874458" lon="10.736668">
<ele>562.5</ele>
<speed>89.6</speed>
<course>272.5</course>
<desc>Speed 89.6 km/h Distance 151 km</desc>
<time>2010-07-31T16:05:30.65</time>
<name>4286</name>
</trkpt>
<trkpt lat="48.874478" lon="10.735962">
<ele>560.0</ele>
<speed>89.3</speed>
<course>274.8</course>
<desc>Speed 89.3 km/h Distance 151 km</desc>
<time>2010-07-31T16:05:32.64</time>
<name>4287</name>
</trkpt>
<trkpt lat="48.874498" lon="10.735602">
<ele>557.5</ele>
<speed>90.6</speed>
<course>273.8</course>
<desc>Speed 90.6 km/h Distance 151 km</desc>
<time>2010-07-31T16:05:33.65</time>
<name>4288</name>
</trkpt>
<trkpt lat="48.874548" lon="10.734453">
<ele>555.5</ele>
<speed>80.6</speed>
<course>276.0</course>
<desc>Speed 80.6 km/h Distance 151 km</desc>
<time>2010-07-31T16:05:36.62</time>
<name>4289</name>
</trkpt>
<trkpt lat="48.874570" lon="10.734142">
<ele>553.0</ele>
<speed>75.3</speed>
<course>271.0</course>
<desc>Speed 75.3 km/h Distance 151 km</desc>
<time>2010-07-31T16:05:37.63</time>
<name>4290</name>
</trkpt>
<trkpt lat="48.874573" lon="10.733857">
<ele>552.5</ele>
<speed>72.9</speed>
<course>265.2</course>
<desc>Speed 72.9 km/h Distance 151 km</desc>
<time>2010-07-31T16:05:38.62</time>
<name>4291</name>
</trkpt>
<trkpt lat="48.874557" lon="10.733557">
<ele>552.0</ele>
<speed>73.9</speed>
<course>261.7</course>
<desc>Speed 73.9 km/h Distance 151 km</desc>
<time>2010-07-31T16:05:39.62</time>
<name>4292</name>
</trkpt>
<trkpt lat="48.874530" lon="10.733280">
<ele>552.5</ele>
<speed>71.9</speed>
<course>265.9</course>
<desc>Speed 71.9 km/h Distance 151 km</desc>
<time>2010-07-31T16:05:40.62</time>
<name>4293</name>
</trkpt>
<trkpt lat="48.874517" lon="10.732995">
<ele>549.5</ele>
<speed>73.4</speed>
<course>261.0</course>
<desc>Speed 73.4 km/h Distance 151 km</desc>
<time>2010-07-31T16:05:41.62</time>
<name>4294</name>
</trkpt>
<trkpt lat="48.874488" lon="10.732722">
<ele>549.0</ele>
<speed>71.4</speed>
<course>263.1</course>
<desc>Speed 71.4 km/h Distance 151 km</desc>
<time>2010-07-31T16:05:42.62</time>
<name>4295</name>
</trkpt>
<trkpt lat="48.874467" lon="10.732448">
<ele>549.0</ele>
<speed>69.7</speed>
<course>267.7</course>
<desc>Speed 69.7 km/h Distance 151 km</desc>
<time>2010-07-31T16:05:43.62</time>
<name>4296</name>
</trkpt>
<trkpt lat="48.874452" lon="10.731885">
<ele>548.0</ele>
<speed>67.5</speed>
<course>273.2</course>
<desc>Speed 67.5 km/h Distance 151 km</desc>
<time>2010-07-31T16:05:45.62</time>
<name>4297</name>
</trkpt>
<trkpt lat="48.874473" lon="10.731303">
<ele>547.0</ele>
<speed>72.4</speed>
<course>273.3</course>
<desc>Speed 72.4 km/h Distance 151 km</desc>
<time>2010-07-31T16:05:47.61</time>
<name>4298</name>
</trkpt>
<trkpt lat="48.874485" lon="10.730998">
<ele>546.5</ele>
<speed>79.5</speed>
<course>277.4</course>
<desc>Speed 79.5 km/h Distance 151 km</desc>
<time>2010-07-31T16:05:48.76</time>
<name>4299</name>
</trkpt>
<trkpt lat="48.874537" lon="10.730393">
<ele>546.0</ele>
<speed>82.8</speed>
<course>281.9</course>
<desc>Speed 82.8 km/h Distance 151 km</desc>
<time>2010-07-31T16:05:50.60</time>
<name>4300</name>
</trkpt>
<trkpt lat="48.874578" lon="10.730093">
<ele>546.0</ele>
<speed>80.9</speed>
<course>284.5</course>
<desc>Speed 80.9 km/h Distance 151 km</desc>
<time>2010-07-31T16:05:51.60</time>
<name>4301</name>
</trkpt>
<trkpt lat="48.874630" lon="10.729790">
<ele>545.5</ele>
<speed>82.9</speed>
<course>282.9</course>
<desc>Speed 82.9 km/h Distance 151 km</desc>
<time>2010-07-31T16:05:52.60</time>
<name>4302</name>
</trkpt>
<trkpt lat="48.874707" lon="10.729280">
<ele>545.5</ele>
<speed>72.0</speed>
<course>282.3</course>
<desc>Speed 72.0 km/h Distance 151 km</desc>
<time>2010-07-31T16:05:54.60</time>
<name>4303</name>
</trkpt>
<trkpt lat="48.874745" lon="10.729013">
<ele>545.5</ele>
<speed>72.7</speed>
<course>279.9</course>
<desc>Speed 72.7 km/h Distance 151 km</desc>
<time>2010-07-31T16:05:55.59</time>
<name>4304</name>
</trkpt>
<trkpt lat="48.874773" lon="10.728767">
<ele>545.0</ele>
<speed>69.9</speed>
<course>273.0</course>
<desc>Speed 69.9 km/h Distance 151 km</desc>
<time>2010-07-31T16:05:56.59</time>
<name>4305</name>
</trkpt>
<trkpt lat="48.874790" lon="10.728280">
<ele>544.5</ele>
<speed>65.5</speed>
<course>268.8</course>
<desc>Speed 65.5 km/h Distance 151 km</desc>
<time>2010-07-31T16:05:58.58</time>
<name>4306</name>
</trkpt>
<trkpt lat="48.874787" lon="10.728045">
<ele>544.0</ele>
<speed>63.7</speed>
<course>269.0</course>
<desc>Speed 63.7 km/h Distance 151 km</desc>
<time>2010-07-31T16:05:59.58</time>
<name>4307</name>
</trkpt>
<trkpt lat="48.874782" lon="10.727617">
<ele>543.5</ele>
<speed>57.1</speed>
<course>265.1</course>
<desc>Speed 57.1 km/h Distance 151 km</desc>
<time>2010-07-31T16:06:01.60</time>
<name>4308</name>
</trkpt>
<trkpt lat="48.874762" lon="10.727262">
<ele>542.5</ele>
<speed>46.4</speed>
<course>273.1</course>
<desc>Speed 46.4 km/h Distance 151 km</desc>
<time>2010-07-31T16:06:03.69</time>
<name>4309</name>
</trkpt>
<trkpt lat="48.874773" lon="10.726935">
<ele>541.0</ele>
<speed>29.4</speed>
<course>258.5</course>
<desc>Speed 29.4 km/h Distance 151 km</desc>
<time>2010-07-31T16:06:06.56</time>
<name>4310</name>
</trkpt>
<trkpt lat="48.874757" lon="10.726810">
<ele>540.5</ele>
<speed>32.0</speed>
<course>262.7</course>
<desc>Speed 32.0 km/h Distance 151 km</desc>
<time>2010-07-31T16:06:07.56</time>
<name>4311</name>
</trkpt>
<trkpt lat="48.874748" lon="10.726712">
<ele>540.0</ele>
<speed>32.0</speed>
<course>261.2</course>
<desc>Speed 32.0 km/h Distance 151 km</desc>
<time>2010-07-31T16:06:08.55</time>
<name>4312</name>
</trkpt>
<trkpt lat="48.874730" lon="10.726532">
<ele>539.5</ele>
<speed>32.0</speed>
<course>242.2</course>
<desc>Speed 32.0 km/h Distance 151 km</desc>
<time>2010-07-31T16:06:11.55</time>
<name>4313</name>
</trkpt>
<trkpt lat="48.874700" lon="10.726445">
<ele>539.5</ele>
<speed>32.0</speed>
<course>131.3</course>
<desc>Speed 32.0 km/h Distance 151 km</desc>
<time>2010-07-31T16:06:12.55</time>
<name>4314</name>
</trkpt>
<trkpt lat="48.874540" lon="10.726722">
<ele>539.0</ele>
<speed>32.0</speed>
<course>173.1</course>
<desc>Speed 32.0 km/h Distance 151 km</desc>
<time>2010-07-31T16:06:15.54</time>
<name>4315</name>
</trkpt>
<trkpt lat="48.873738" lon="10.726868">
<ele>537.0</ele>
<speed>44.9</speed>
<course>183.3</course>
<desc>Speed 44.9 km/h Distance 151 km</desc>
<time>2010-07-31T16:06:20.59</time>
<name>4316</name>
</trkpt>
<trkpt lat="48.873495" lon="10.726847">
<ele>538.0</ele>
<speed>42.4</speed>
<course>188.0</course>
<desc>Speed 42.4 km/h Distance 151 km</desc>
<time>2010-07-31T16:06:22.70</time>
<name>4317</name>
</trkpt>
<trkpt lat="48.873402" lon="10.726827">
<ele>538.0</ele>
<speed>42.4</speed>
<course>193.1</course>
<desc>Speed 42.4 km/h Distance 151 km</desc>
<time>2010-07-31T16:06:23.52</time>
<name>4318</name>
</trkpt>
<trkpt lat="48.873260" lon="10.726777">
<ele>538.0</ele>
<speed>42.4</speed>
<course>213.7</course>
<desc>Speed 42.4 km/h Distance 151 km</desc>
<time>2010-07-31T16:06:25.52</time>
<name>4319</name>
</trkpt>
<trkpt lat="48.873050" lon="10.726563">
<ele>536.5</ele>
<speed>47.3</speed>
<course>225.7</course>
<desc>Speed 47.3 km/h Distance 151 km</desc>
<time>2010-07-31T16:06:27.52</time>
<name>4320</name>
</trkpt>
<trkpt lat="48.872922" lon="10.726363">
<ele>536.0</ele>
<speed>47.3</speed>
<course>239.9</course>
<desc>Speed 47.3 km/h Distance 151 km</desc>
<time>2010-07-31T16:06:29.51</time>
<name>4321</name>
</trkpt>
<trkpt lat="48.872838" lon="10.726145">
<ele>533.0</ele>
<speed>47.3</speed>
<course>262.9</course>
<desc>Speed 47.3 km/h Distance 152 km</desc>
<time>2010-07-31T16:06:31.50</time>
<name>4322</name>
</trkpt>
<trkpt lat="48.872807" lon="10.725760">
<ele>532.0</ele>
<speed>41.3</speed>
<course>259.5</course>
<desc>Speed 41.3 km/h Distance 152 km</desc>
<time>2010-07-31T16:06:33.50</time>
<name>4323</name>
</trkpt>
<trkpt lat="48.872790" lon="10.725623">
<ele>530.5</ele>
<speed>41.3</speed>
<course>253.8</course>
<desc>Speed 41.3 km/h Distance 152 km</desc>
<time>2010-07-31T16:06:34.50</time>
<name>4324</name>
</trkpt>
<trkpt lat="48.872722" lon="10.725265">
<ele>523.0</ele>
<speed>42.8</speed>
<course>259.8</course>
<desc>Speed 42.8 km/h Distance 152 km</desc>
<time>2010-07-31T16:06:36.49</time>
<name>4325</name>
</trkpt>
<trkpt lat="48.872702" lon="10.725097">
<ele>523.5</ele>
<speed>43.8</speed>
<course>261.8</course>
<desc>Speed 43.8 km/h Distance 152 km</desc>
<time>2010-07-31T16:06:37.48</time>
<name>4326</name>
</trkpt>
<trkpt lat="48.872678" lon="10.724852">
<ele>522.5</ele>
<speed>43.8</speed>
<course>244.0</course>
<desc>Speed 43.8 km/h Distance 152 km</desc>
<time>2010-07-31T16:06:39.49</time>
<name>4327</name>
</trkpt>
<trkpt lat="48.872567" lon="10.724503">
<ele>522.5</ele>
<speed>44.5</speed>
<course>248.0</course>
<desc>Speed 44.5 km/h Distance 152 km</desc>
<time>2010-07-31T16:06:41.53</time>
<name>4328</name>
</trkpt>
<trkpt lat="48.872525" lon="10.724347">
<ele>522.5</ele>
<speed>43.0</speed>
<course>255.1</course>
<desc>Speed 43.0 km/h Distance 152 km</desc>
<time>2010-07-31T16:06:42.47</time>
<name>4329</name>
</trkpt>
<trkpt lat="48.872497" lon="10.724185">
<ele>522.0</ele>
<speed>42.6</speed>
<course>253.3</course>
<desc>Speed 42.6 km/h Distance 152 km</desc>
<time>2010-07-31T16:06:43.62</time>
<name>4330</name>
</trkpt>
<trkpt lat="48.872468" lon="10.724042">
<ele>521.5</ele>
<speed>38.1</speed>
<course>257.4</course>
<desc>Speed 38.1 km/h Distance 152 km</desc>
<time>2010-07-31T16:06:44.47</time>
<name>4331</name>
</trkpt>
<trkpt lat="48.872425" lon="10.723747">
<ele>521.0</ele>
<speed>42.6</speed>
<course>255.5</course>
<desc>Speed 42.6 km/h Distance 152 km</desc>
<time>2010-07-31T16:06:47.45</time>
<name>4332</name>
</trkpt>
<trkpt lat="48.872400" lon="10.723600">
<ele>521.5</ele>
<speed>39.5</speed>
<course>262.5</course>
<desc>Speed 39.5 km/h Distance 152 km</desc>
<time>2010-07-31T16:06:48.46</time>
<name>4333</name>
</trkpt>
<trkpt lat="48.872388" lon="10.723465">
<ele>522.0</ele>
<speed>39.5</speed>
<course>266.7</course>
<desc>Speed 39.5 km/h Distance 152 km</desc>
<time>2010-07-31T16:06:49.45</time>
<name>4334</name>
</trkpt>
<trkpt lat="48.872377" lon="10.723158">
<ele>521.0</ele>
<speed>45.6</speed>
<course>270.7</course>
<desc>Speed 45.6 km/h Distance 152 km</desc>
<time>2010-07-31T16:06:51.43</time>
<name>4335</name>
</trkpt>
<trkpt lat="48.872380" lon="10.722763">
<ele>519.5</ele>
<speed>42.8</speed>
<course>274.6</course>
<desc>Speed 42.8 km/h Distance 152 km</desc>
<time>2010-07-31T16:06:53.49</time>
<name>4336</name>
</trkpt>
<trkpt lat="48.872400" lon="10.722383">
<ele>518.0</ele>
<speed>39.6</speed>
<course>280.9</course>
<desc>Speed 39.6 km/h Distance 152 km</desc>
<time>2010-07-31T16:06:55.58</time>
<name>4337</name>
</trkpt>
<trkpt lat="48.872440" lon="10.722067">
<ele>515.5</ele>
<speed>36.1</speed>
<course>285.0</course>
<desc>Speed 36.1 km/h Distance 152 km</desc>
<time>2010-07-31T16:06:57.42</time>
<name>4338</name>
</trkpt>
<trkpt lat="48.872467" lon="10.721915">
<ele>514.5</ele>
<speed>36.6</speed>
<course>284.1</course>
<desc>Speed 36.6 km/h Distance 152 km</desc>
<time>2010-07-31T16:06:58.41</time>
<name>4339</name>
</trkpt>
<trkpt lat="48.872492" lon="10.721763">
<ele>514.0</ele>
<speed>34.2</speed>
<course>276.6</course>
<desc>Speed 34.2 km/h Distance 152 km</desc>
<time>2010-07-31T16:06:59.41</time>
<name>4340</name>
</trkpt>
<trkpt lat="48.872503" lon="10.721610">
<ele>513.5</ele>
<speed>31.2</speed>
<course>276.6</course>
<desc>Speed 31.2 km/h Distance 152 km</desc>
<time>2010-07-31T16:07:00.41</time>
<name>4341</name>
</trkpt>
<trkpt lat="48.872513" lon="10.721478">
<ele>513.0</ele>
<speed>31.2</speed>
<course>291.4</course>
<desc>Speed 31.2 km/h Distance 152 km</desc>
<time>2010-07-31T16:07:01.40</time>
<name>4342</name>
</trkpt>
<trkpt lat="48.872555" lon="10.721317">
<ele>512.0</ele>
<speed>14.4</speed>
<course>279.4</course>
<desc>Speed 14.4 km/h Distance 152 km</desc>
<time>2010-07-31T16:07:04.39</time>
<name>4343</name>
</trkpt>
<trkpt lat="48.872563" lon="10.721240">
<ele>512.0</ele>
<speed>19.2</speed>
<course>284.0</course>
<desc>Speed 19.2 km/h Distance 152 km</desc>
<time>2010-07-31T16:07:05.40</time>
<name>4344</name>
</trkpt>
<trkpt lat="48.872625" lon="10.720865">
<ele>511.5</ele>
<speed>36.5</speed>
<course>286.1</course>
<desc>Speed 36.5 km/h Distance 152 km</desc>
<time>2010-07-31T16:07:08.41</time>
<name>4345</name>
</trkpt>
<trkpt lat="48.872690" lon="10.720522">
<ele>511.5</ele>
<speed>46.8</speed>
<course>288.9</course>
<desc>Speed 46.8 km/h Distance 152 km</desc>
<time>2010-07-31T16:07:10.50</time>
<name>4346</name>
</trkpt>
<trkpt lat="48.872770" lon="10.720167">
<ele>511.0</ele>
<speed>46.8</speed>
<course>289.3</course>
<desc>Speed 46.8 km/h Distance 152 km</desc>
<time>2010-07-31T16:07:12.36</time>
<name>4347</name>
</trkpt>
<trkpt lat="48.872810" lon="10.719993">
<ele>511.0</ele>
<speed>48.0</speed>
<course>289.2</course>
<desc>Speed 48.0 km/h Distance 152 km</desc>
<time>2010-07-31T16:07:13.37</time>
<name>4348</name>
</trkpt>
<trkpt lat="48.872852" lon="10.719812">
<ele>510.5</ele>
<speed>50.5</speed>
<course>283.3</course>
<desc>Speed 50.5 km/h Distance 152 km</desc>
<time>2010-07-31T16:07:14.36</time>
<name>4349</name>
</trkpt>
<trkpt lat="48.872882" lon="10.719618">
<ele>510.5</ele>
<speed>51.3</speed>
<course>281.2</course>
<desc>Speed 51.3 km/h Distance 152 km</desc>
<time>2010-07-31T16:07:15.36</time>
<name>4350</name>
</trkpt>
<trkpt lat="48.872908" lon="10.719413">
<ele>510.0</ele>
<speed>53.1</speed>
<course>278.4</course>
<desc>Speed 53.1 km/h Distance 152 km</desc>
<time>2010-07-31T16:07:16.36</time>
<name>4351</name>
</trkpt>
<trkpt lat="48.872943" lon="10.719052">
<ele>509.5</ele>
<speed>52.7</speed>
<course>270.0</course>
<desc>Speed 52.7 km/h Distance 152 km</desc>
<time>2010-07-31T16:07:18.36</time>
<name>4352</name>
</trkpt>
<trkpt lat="48.872943" lon="10.718828">
<ele>509.5</ele>
<speed>54.6</speed>
<course>264.7</course>
<desc>Speed 54.6 km/h Distance 152 km</desc>
<time>2010-07-31T16:07:19.35</time>
<name>4353</name>
</trkpt>
<trkpt lat="48.872930" lon="10.718608">
<ele>509.0</ele>
<speed>54.5</speed>
<course>260.9</course>
<desc>Speed 54.5 km/h Distance 152 km</desc>
<time>2010-07-31T16:07:20.35</time>
<name>4354</name>
</trkpt>
<trkpt lat="48.872887" lon="10.718198">
<ele>509.0</ele>
<speed>48.5</speed>
<course>260.8</course>
<desc>Speed 48.5 km/h Distance 152 km</desc>
<time>2010-07-31T16:07:22.34</time>
<name>4355</name>
</trkpt>
<trkpt lat="48.872848" lon="10.717838">
<ele>508.0</ele>
<speed>45.3</speed>
<course>262.9</course>
<desc>Speed 45.3 km/h Distance 152 km</desc>
<time>2010-07-31T16:07:24.34</time>
<name>4356</name>
</trkpt>
<trkpt lat="48.872820" lon="10.717493">
<ele>508.0</ele>
<speed>47.6</speed>
<course>267.9</course>
<desc>Speed 47.6 km/h Distance 152 km</desc>
<time>2010-07-31T16:07:26.33</time>
<name>4357</name>
</trkpt>
<trkpt lat="48.872812" lon="10.717152">
<ele>508.0</ele>
<speed>44.5</speed>
<course>268.8</course>
<desc>Speed 44.5 km/h Distance 152 km</desc>
<time>2010-07-31T16:07:28.31</time>
<name>4358</name>
</trkpt>
<trkpt lat="48.872807" lon="10.716785">
<ele>507.0</ele>
<speed>46.4</speed>
<course>268.8</course>
<desc>Speed 46.4 km/h Distance 152 km</desc>
<time>2010-07-31T16:07:30.31</time>
<name>4359</name>
</trkpt>
<trkpt lat="48.872802" lon="10.716412">
<ele>507.0</ele>
<speed>50.7</speed>
<course>270.0</course>
<desc>Speed 50.7 km/h Distance 152 km</desc>
<time>2010-07-31T16:07:32.31</time>
<name>4360</name>
</trkpt>
<trkpt lat="48.872802" lon="10.716028">
<ele>507.0</ele>
<speed>50.5</speed>
<course>271.2</course>
<desc>Speed 50.5 km/h Distance 152 km</desc>
<time>2010-07-31T16:07:34.30</time>
<name>4361</name>
</trkpt>
<trkpt lat="48.872807" lon="10.715673">
<ele>506.5</ele>
<speed>50.1</speed>
<course>270.8</course>
<desc>Speed 50.1 km/h Distance 152 km</desc>
<time>2010-07-31T16:07:36.29</time>
<name>4362</name>
</trkpt>
<trkpt lat="48.872810" lon="10.715310">
<ele>506.5</ele>
<speed>48.3</speed>
<course>268.9</course>
<desc>Speed 48.3 km/h Distance 152 km</desc>
<time>2010-07-31T16:07:38.29</time>
<name>4363</name>
</trkpt>
<trkpt lat="48.872807" lon="10.715042">
<ele>506.5</ele>
<speed>48.3</speed>
<course>269.6</course>
<desc>Speed 48.3 km/h Distance 152 km</desc>
<time>2010-07-31T16:07:40.28</time>
<name>4364</name>
</trkpt>
<trkpt lat="48.872805" lon="10.714678">
<ele>506.0</ele>
<speed>43.8</speed>
<course>268.7</course>
<desc>Speed 43.8 km/h Distance 152 km</desc>
<time>2010-07-31T16:07:42.28</time>
<name>4365</name>
</trkpt>
<trkpt lat="48.872800" lon="10.714343">
<ele>506.0</ele>
<speed>45.0</speed>
<course>270.8</course>
<desc>Speed 45.0 km/h Distance 152 km</desc>
<time>2010-07-31T16:07:44.31</time>
<name>4366</name>
</trkpt>
<trkpt lat="48.872803" lon="10.713973">
<ele>505.5</ele>
<speed>47.1</speed>
<course>271.5</course>
<desc>Speed 47.1 km/h Distance 152 km</desc>
<time>2010-07-31T16:07:46.41</time>
<name>4367</name>
</trkpt>
<trkpt lat="48.872810" lon="10.713588">
<ele>505.5</ele>
<speed>49.0</speed>
<course>273.4</course>
<desc>Speed 49.0 km/h Distance 152 km</desc>
<time>2010-07-31T16:07:48.26</time>
<name>4368</name>
</trkpt>
<trkpt lat="48.872827" lon="10.713158">
<ele>505.5</ele>
<speed>52.4</speed>
<course>274.3</course>
<desc>Speed 52.4 km/h Distance 152 km</desc>
<time>2010-07-31T16:07:50.24</time>
<name>4369</name>
</trkpt>
<trkpt lat="48.872847" lon="10.712752">
<ele>504.0</ele>
<speed>50.9</speed>
<course>276.8</course>
<desc>Speed 50.9 km/h Distance 153 km</desc>
<time>2010-07-31T16:07:52.24</time>
<name>4370</name>
</trkpt>
<trkpt lat="48.872877" lon="10.712368">
<ele>503.5</ele>
<speed>47.0</speed>
<course>277.7</course>
<desc>Speed 47.0 km/h Distance 153 km</desc>
<time>2010-07-31T16:07:54.23</time>
<name>4371</name>
</trkpt>
<trkpt lat="48.872908" lon="10.712013">
<ele>503.0</ele>
<speed>46.7</speed>
<course>279.9</course>
<desc>Speed 46.7 km/h Distance 153 km</desc>
<time>2010-07-31T16:07:56.23</time>
<name>4372</name>
</trkpt>
<trkpt lat="48.872948" lon="10.711663">
<ele>502.5</ele>
<speed>44.7</speed>
<course>281.4</course>
<desc>Speed 44.7 km/h Distance 153 km</desc>
<time>2010-07-31T16:07:58.23</time>
<name>4373</name>
</trkpt>
<trkpt lat="48.872993" lon="10.711323">
<ele>502.5</ele>
<speed>45.9</speed>
<course>283.8</course>
<desc>Speed 45.9 km/h Distance 153 km</desc>
<time>2010-07-31T16:08:00.22</time>
<name>4374</name>
</trkpt>
<trkpt lat="48.873047" lon="10.710993">
<ele>501.5</ele>
<speed>44.5</speed>
<course>281.0</course>
<desc>Speed 44.5 km/h Distance 153 km</desc>
<time>2010-07-31T16:08:02.22</time>
<name>4375</name>
</trkpt>
<trkpt lat="48.873090" lon="10.710653">
<ele>501.0</ele>
<speed>44.5</speed>
<course>281.0</course>
<desc>Speed 44.5 km/h Distance 153 km</desc>
<time>2010-07-31T16:08:04.22</time>
<name>4376</name>
</trkpt>
<trkpt lat="48.873133" lon="10.710315">
<ele>500.5</ele>
<speed>44.9</speed>
<course>281.0</course>
<desc>Speed 44.9 km/h Distance 153 km</desc>
<time>2010-07-31T16:08:06.21</time>
<name>4377</name>
</trkpt>
<trkpt lat="48.873177" lon="10.709977">
<ele>500.0</ele>
<speed>42.2</speed>
<course>281.6</course>
<desc>Speed 42.2 km/h Distance 153 km</desc>
<time>2010-07-31T16:08:08.21</time>
<name>4378</name>
</trkpt>
<trkpt lat="48.873225" lon="10.709618">
<ele>499.0</ele>
<speed>49.9</speed>
<course>282.5</course>
<desc>Speed 49.9 km/h Distance 153 km</desc>
<time>2010-07-31T16:08:10.20</time>
<name>4379</name>
</trkpt>
<trkpt lat="48.873287" lon="10.709195">
<ele>497.0</ele>
<speed>55.6</speed>
<course>279.5</course>
<desc>Speed 55.6 km/h Distance 153 km</desc>
<time>2010-07-31T16:08:12.19</time>
<name>4380</name>
</trkpt>
<trkpt lat="48.873335" lon="10.708757">
<ele>497.0</ele>
<speed>60.4</speed>
<course>273.9</course>
<desc>Speed 60.4 km/h Distance 153 km</desc>
<time>2010-07-31T16:08:14.19</time>
<name>4381</name>
</trkpt>
<trkpt lat="48.873357" lon="10.708272">
<ele>497.0</ele>
<speed>64.9</speed>
<course>259.0</course>
<desc>Speed 64.9 km/h Distance 153 km</desc>
<time>2010-07-31T16:08:16.18</time>
<name>4382</name>
</trkpt>
<trkpt lat="48.873257" lon="10.707490">
<ele>496.5</ele>
<speed>63.6</speed>
<course>258.7</course>
<desc>Speed 63.6 km/h Distance 153 km</desc>
<time>2010-07-31T16:08:19.17</time>
<name>4383</name>
</trkpt>
<trkpt lat="48.873205" lon="10.707098">
<ele>496.5</ele>
<speed>63.6</speed>
<course>263.8</course>
<desc>Speed 63.6 km/h Distance 153 km</desc>
<time>2010-07-31T16:08:21.17</time>
<name>4384</name>
</trkpt>
<trkpt lat="48.873165" lon="10.706538">
<ele>492.5</ele>
<speed>35.4</speed>
<course>284.5</course>
<desc>Speed 35.4 km/h Distance 153 km</desc>
<time>2010-07-31T16:08:25.15</time>
<name>4385</name>
</trkpt>
<trkpt lat="48.873192" lon="10.706382">
<ele>490.5</ele>
<speed>35.4</speed>
<course>349.4</course>
<desc>Speed 35.4 km/h Distance 153 km</desc>
<time>2010-07-31T16:08:27.17</time>
<name>4386</name>
</trkpt>
<trkpt lat="48.873297" lon="10.706352">
<ele>485.5</ele>
<speed>35.4</speed>
<course>334.9</course>
<desc>Speed 35.4 km/h Distance 153 km</desc>
<time>2010-07-31T16:08:29.15</time>
<name>4387</name>
</trkpt>
<trkpt lat="48.875772" lon="10.704590">
<ele>475.5</ele>
<speed>35.4</speed>
<course>334.3</course>
<desc>Speed 35.4 km/h Distance 153 km</desc>
<time>2010-07-31T16:08:38.12</time>
<name>4388</name>
</trkpt>
<trkpt lat="48.877535" lon="10.703302">
<ele>468.5</ele>
<speed>129</speed>
<course>338.1</course>
<desc>Speed 129 km/h Distance 154 km</desc>
<time>2010-07-31T16:08:43.23</time>
<name>4389</name>
</trkpt>
<trkpt lat="48.878145" lon="10.702928">
<ele>466.0</ele>
<speed>130</speed>
<course>342.3</course>
<desc>Speed 130 km/h Distance 154 km</desc>
<time>2010-07-31T16:08:45.09</time>
<name>4390</name>
</trkpt>
<trkpt lat="48.878757" lon="10.702632">
<ele>468.0</ele>
<speed>142</speed>
<course>343.8</course>
<desc>Speed 142 km/h Distance 154 km</desc>
<time>2010-07-31T16:08:47.09</time>
<name>4391</name>
</trkpt>
<trkpt lat="48.879640" lon="10.702242">
<ele>464.0</ele>
<speed>149</speed>
<course>347.4</course>
<desc>Speed 149 km/h Distance 154 km</desc>
<time>2010-07-31T16:08:50.07</time>
<name>4392</name>
</trkpt>
<trkpt lat="48.880713" lon="10.701878">
<ele>468.0</ele>
<speed>133</speed>
<course>343.5</course>
<desc>Speed 133 km/h Distance 154 km</desc>
<time>2010-07-31T16:08:53.06</time>
<name>4393</name>
</trkpt>
<trkpt lat="48.881035" lon="10.701733">
<ele>468.5</ele>
<speed>131</speed>
<course>344.0</course>
<desc>Speed 131 km/h Distance 154 km</desc>
<time>2010-07-31T16:08:54.06</time>
<name>4394</name>
</trkpt>
<trkpt lat="48.881360" lon="10.701592">
<ele>472.5</ele>
<speed>129</speed>
<course>345.7</course>
<desc>Speed 129 km/h Distance 154 km</desc>
<time>2010-07-31T16:08:55.06</time>
<name>4395</name>
</trkpt>
<trkpt lat="48.881692" lon="10.701463">
<ele>474.0</ele>
<speed>133</speed>
<course>341.4</course>
<desc>Speed 133 km/h Distance 154 km</desc>
<time>2010-07-31T16:08:56.07</time>
<name>4396</name>
</trkpt>
<trkpt lat="48.882573" lon="10.701012">
<ele>478.0</ele>
<speed>130</speed>
<course>337.3</course>
<desc>Speed 130 km/h Distance 154 km</desc>
<time>2010-07-31T16:08:59.05</time>
<name>4397</name>
</trkpt>
<trkpt lat="48.883228" lon="10.700595">
<ele>482.5</ele>
<speed>131</speed>
<course>332.0</course>
<desc>Speed 131 km/h Distance 154 km</desc>
<time>2010-07-31T16:09:01.04</time>
<name>4398</name>
</trkpt>
<trkpt lat="48.883527" lon="10.700353">
<ele>483.0</ele>
<speed>132</speed>
<course>332.1</course>
<desc>Speed 132 km/h Distance 154 km</desc>
<time>2010-07-31T16:09:02.04</time>
<name>4399</name>
</trkpt>
<trkpt lat="48.884078" lon="10.699908">
<ele>485.0</ele>
<speed>121</speed>
<course>332.6</course>
<desc>Speed 121 km/h Distance 154 km</desc>
<time>2010-07-31T16:09:04.03</time>
<name>4400</name>
</trkpt>
<trkpt lat="48.884562" lon="10.699527">
<ele>480.5</ele>
<speed>114</speed>
<course>327.9</course>
<desc>Speed 114 km/h Distance 154 km</desc>
<time>2010-07-31T16:09:06.03</time>
<name>4401</name>
</trkpt>
<trkpt lat="48.884808" lon="10.699292">
<ele>482.0</ele>
<speed>107</speed>
<course>323.3</course>
<desc>Speed 107 km/h Distance 154 km</desc>
<time>2010-07-31T16:09:07.03</time>
<name>4402</name>
</trkpt>
<trkpt lat="48.885208" lon="10.698838">
<ele>486.5</ele>
<speed>93.2</speed>
<course>327.1</course>
<desc>Speed 93.2 km/h Distance 154 km</desc>
<time>2010-07-31T16:09:09.02</time>
<name>4403</name>
</trkpt>
<trkpt lat="48.885407" lon="10.698643">
<ele>488.0</ele>
<speed>89.2</speed>
<course>328.5</course>
<desc>Speed 89.2 km/h Distance 154 km</desc>
<time>2010-07-31T16:09:10.02</time>
<name>4404</name>
</trkpt>
<trkpt lat="48.885752" lon="10.698322">
<ele>488.5</ele>
<speed>81.4</speed>
<course>329.7</course>
<desc>Speed 81.4 km/h Distance 155 km</desc>
<time>2010-07-31T16:09:12.03</time>
<name>4405</name>
</trkpt>
<trkpt lat="48.886220" lon="10.697905">
<ele>490.5</ele>
<speed>81.4</speed>
<course>334.6</course>
<desc>Speed 81.4 km/h Distance 155 km</desc>
<time>2010-07-31T16:09:16.00</time>
<name>4406</name>
</trkpt>
<trkpt lat="48.886680" lon="10.697573">
<ele>490.0</ele>
<speed>70.6</speed>
<course>338.1</course>
<desc>Speed 70.6 km/h Distance 155 km</desc>
<time>2010-07-31T16:09:18.99</time>
<name>4407</name>
</trkpt>
<trkpt lat="48.886843" lon="10.697473">
<ele>489.5</ele>
<speed>67.1</speed>
<course>342.2</course>
<desc>Speed 67.1 km/h Distance 155 km</desc>
<time>2010-07-31T16:09:19.99</time>
<name>4408</name>
</trkpt>
<trkpt lat="48.887245" lon="10.697277">
<ele>490.0</ele>
<speed>61.9</speed>
<course>8.6</course>
<desc>Speed 61.9 km/h Distance 155 km</desc>
<time>2010-07-31T16:09:22.98</time>
<name>4409</name>
</trkpt>
<trkpt lat="48.887542" lon="10.697345">
<ele>493.0</ele>
<speed>61.8</speed>
<course>26.3</course>
<desc>Speed 61.8 km/h Distance 155 km</desc>
<time>2010-07-31T16:09:24.98</time>
<name>4410</name>
</trkpt>
<trkpt lat="48.887797" lon="10.697537">
<ele>488.0</ele>
<speed>51.5</speed>
<course>47.8</course>
<desc>Speed 51.5 km/h Distance 155 km</desc>
<time>2010-07-31T16:09:26.98</time>
<name>4411</name>
</trkpt>
<trkpt lat="48.888005" lon="10.697887">
<ele>484.5</ele>
<speed>53.4</speed>
<course>35.1</course>
<desc>Speed 53.4 km/h Distance 155 km</desc>
<time>2010-07-31T16:09:28.96</time>
<name>4412</name>
</trkpt>
<trkpt lat="48.888123" lon="10.698013">
<ele>484.0</ele>
<speed>53.6</speed>
<course>34.7</course>
<desc>Speed 53.6 km/h Distance 155 km</desc>
<time>2010-07-31T16:09:29.97</time>
<name>4413</name>
</trkpt>
<trkpt lat="48.888218" lon="10.698113">
<ele>483.0</ele>
<speed>53.6</speed>
<course>11.0</course>
<desc>Speed 53.6 km/h Distance 155 km</desc>
<time>2010-07-31T16:09:30.94</time>
<name>4414</name>
</trkpt>
<trkpt lat="48.888547" lon="10.698210">
<ele>480.5</ele>
<speed>70.0</speed>
<course>355.0</course>
<desc>Speed 70.0 km/h Distance 155 km</desc>
<time>2010-07-31T16:09:34.14</time>
<name>4415</name>
</trkpt>
<trkpt lat="48.888697" lon="10.698190">
<ele>481.0</ele>
<speed>70.0</speed>
<course>354.1</course>
<desc>Speed 70.0 km/h Distance 155 km</desc>
<time>2010-07-31T16:09:34.94</time>
<name>4416</name>
</trkpt>
<trkpt lat="48.889078" lon="10.698130">
<ele>485.0</ele>
<speed>63.9</speed>
<course>344.5</course>
<desc>Speed 63.9 km/h Distance 155 km</desc>
<time>2010-07-31T16:09:36.93</time>
<name>4417</name>
</trkpt>
<trkpt lat="48.889403" lon="10.697993">
<ele>481.5</ele>
<speed>60.7</speed>
<course>347.1</course>
<desc>Speed 60.7 km/h Distance 155 km</desc>
<time>2010-07-31T16:09:38.93</time>
<name>4418</name>
</trkpt>
<trkpt lat="48.889947" lon="10.697803">
<ele>491.0</ele>
<speed>59.8</speed>
<course>347.6</course>
<desc>Speed 59.8 km/h Distance 155 km</desc>
<time>2010-07-31T16:09:41.92</time>
<name>4419</name>
</trkpt>
<trkpt lat="48.890230" lon="10.697708">
<ele>492.5</ele>
<speed>61.3</speed>
<course>344.9</course>
<desc>Speed 61.3 km/h Distance 155 km</desc>
<time>2010-07-31T16:09:43.92</time>
<name>4420</name>
</trkpt>
<trkpt lat="48.890465" lon="10.697612">
<ele>491.5</ele>
<speed>61.3</speed>
<course>319.0</course>
<desc>Speed 61.3 km/h Distance 155 km</desc>
<time>2010-07-31T16:09:45.91</time>
<name>4421</name>
</trkpt>
<trkpt lat="48.890845" lon="10.697110">
<ele>468.5</ele>
<speed>71.0</speed>
<course>315.3</course>
<desc>Speed 71.0 km/h Distance 155 km</desc>
<time>2010-07-31T16:09:49.90</time>
<name>4422</name>
</trkpt>
<trkpt lat="48.891348" lon="10.696352">
<ele>476.5</ele>
<speed>83.7</speed>
<course>325.1</course>
<desc>Speed 83.7 km/h Distance 155 km</desc>
<time>2010-07-31T16:09:52.97</time>
<name>4423</name>
</trkpt>
<trkpt lat="48.891730" lon="10.695947">
<ele>483.5</ele>
<speed>81.0</speed>
<course>324.3</course>
<desc>Speed 81.0 km/h Distance 155 km</desc>
<time>2010-07-31T16:09:55.06</time>
<name>4424</name>
</trkpt>
<trkpt lat="48.892003" lon="10.695648">
<ele>489.5</ele>
<speed>81.0</speed>
<course>329.6</course>
<desc>Speed 81.0 km/h Distance 155 km</desc>
<time>2010-07-31T16:09:56.87</time>
<name>4425</name>
</trkpt>
<trkpt lat="48.892502" lon="10.695203">
<ele>490.0</ele>
<speed>102</speed>
<course>335.6</course>
<desc>Speed 102 km/h Distance 155 km</desc>
<time>2010-07-31T16:09:59.86</time>
<name>4426</name>
</trkpt>
<trkpt lat="48.892992" lon="10.694865">
<ele>490.0</ele>
<speed>106</speed>
<course>332.2</course>
<desc>Speed 106 km/h Distance 155 km</desc>
<time>2010-07-31T16:10:01.85</time>
<name>4427</name>
</trkpt>
<trkpt lat="48.893812" lon="10.694207">
<ele>491.0</ele>
<speed>114</speed>
<course>327.5</course>
<desc>Speed 114 km/h Distance 156 km</desc>
<time>2010-07-31T16:10:04.84</time>
<name>4428</name>
</trkpt>
<trkpt lat="48.894615" lon="10.693428">
<ele>485.0</ele>
<speed>121</speed>
<course>323.8</course>
<desc>Speed 121 km/h Distance 156 km</desc>
<time>2010-07-31T16:10:07.85</time>
<name>4429</name>
</trkpt>
<trkpt lat="48.894867" lon="10.693148">
<ele>483.5</ele>
<speed>124</speed>
<course>323.4</course>
<desc>Speed 124 km/h Distance 156 km</desc>
<time>2010-07-31T16:10:08.83</time>
<name>4430</name>
</trkpt>
<trkpt lat="48.895127" lon="10.692855">
<ele>482.5</ele>
<speed>128</speed>
<course>316.2</course>
<desc>Speed 128 km/h Distance 156 km</desc>
<time>2010-07-31T16:10:09.94</time>
<name>4431</name>
</trkpt>
<trkpt lat="48.895600" lon="10.692165">
<ele>482.0</ele>
<speed>126</speed>
<course>319.7</course>
<desc>Speed 126 km/h Distance 156 km</desc>
<time>2010-07-31T16:10:12.04</time>
<name>4432</name>
</trkpt>
<trkpt lat="48.896370" lon="10.691170">
<ele>486.5</ele>
<speed>129</speed>
<course>326.2</course>
<desc>Speed 129 km/h Distance 156 km</desc>
<time>2010-07-31T16:10:14.82</time>
<name>4433</name>
</trkpt>
<trkpt lat="48.896650" lon="10.690885">
<ele>486.5</ele>
<speed>131</speed>
<course>331.3</course>
<desc>Speed 131 km/h Distance 156 km</desc>
<time>2010-07-31T16:10:15.81</time>
<name>4434</name>
</trkpt>
<trkpt lat="48.896948" lon="10.690637">
<ele>487.0</ele>
<speed>133</speed>
<course>327.0</course>
<desc>Speed 133 km/h Distance 156 km</desc>
<time>2010-07-31T16:10:16.81</time>
<name>4435</name>
</trkpt>
<trkpt lat="48.897227" lon="10.690362">
<ele>487.5</ele>
<speed>131</speed>
<course>332.4</course>
<desc>Speed 131 km/h Distance 156 km</desc>
<time>2010-07-31T16:10:17.82</time>
<name>4436</name>
</trkpt>
<trkpt lat="48.897792" lon="10.689912">
<ele>487.5</ele>
<speed>130</speed>
<course>337.6</course>
<desc>Speed 130 km/h Distance 156 km</desc>
<time>2010-07-31T16:10:19.82</time>
<name>4437</name>
</trkpt>
<trkpt lat="48.898368" lon="10.689550">
<ele>487.0</ele>
<speed>128</speed>
<course>338.6</course>
<desc>Speed 128 km/h Distance 156 km</desc>
<time>2010-07-31T16:10:21.81</time>
<name>4438</name>
</trkpt>
<trkpt lat="48.898670" lon="10.689370">
<ele>487.0</ele>
<speed>129</speed>
<course>339.0</course>
<desc>Speed 129 km/h Distance 156 km</desc>
<time>2010-07-31T16:10:22.80</time>
<name>4439</name>
</trkpt>
<trkpt lat="48.898982" lon="10.689188">
<ele>487.0</ele>
<speed>133</speed>
<course>338.8</course>
<desc>Speed 133 km/h Distance 156 km</desc>
<time>2010-07-31T16:10:23.80</time>
<name>4440</name>
</trkpt>
<trkpt lat="48.899658" lon="10.688788">
<ele>486.5</ele>
<speed>146</speed>
<course>337.0</course>
<desc>Speed 146 km/h Distance 156 km</desc>
<time>2010-07-31T16:10:25.80</time>
<name>4441</name>
</trkpt>
<trkpt lat="48.900355" lon="10.688338">
<ele>486.5</ele>
<speed>143</speed>
<course>334.7</course>
<desc>Speed 143 km/h Distance 156 km</desc>
<time>2010-07-31T16:10:27.78</time>
<name>4442</name>
</trkpt>
<trkpt lat="48.900975" lon="10.687893">
<ele>485.5</ele>
<speed>139</speed>
<course>331.3</course>
<desc>Speed 139 km/h Distance 156 km</desc>
<time>2010-07-31T16:10:29.78</time>
<name>4443</name>
</trkpt>
<trkpt lat="48.901567" lon="10.687400">
<ele>486.0</ele>
<speed>134</speed>
<course>330.3</course>
<desc>Speed 134 km/h Distance 157 km</desc>
<time>2010-07-31T16:10:31.78</time>
<name>4444</name>
</trkpt>
<trkpt lat="48.902143" lon="10.686900">
<ele>486.5</ele>
<speed>131</speed>
<course>337.2</course>
<desc>Speed 131 km/h Distance 157 km</desc>
<time>2010-07-31T16:10:33.78</time>
<name>4445</name>
</trkpt>
<trkpt lat="48.903198" lon="10.686227">
<ele>485.0</ele>
<speed>128</speed>
<course>339.9</course>
<desc>Speed 128 km/h Distance 157 km</desc>
<time>2010-07-31T16:10:37.76</time>
<name>4446</name>
</trkpt>
<trkpt lat="48.903812" lon="10.685885">
<ele>483.0</ele>
<speed>120</speed>
<course>339.0</course>
<desc>Speed 120 km/h Distance 157 km</desc>
<time>2010-07-31T16:10:39.75</time>
<name>4447</name>
</trkpt>
<trkpt lat="48.904103" lon="10.685715">
<ele>482.5</ele>
<speed>118</speed>
<course>341.6</course>
<desc>Speed 118 km/h Distance 157 km</desc>
<time>2010-07-31T16:10:40.75</time>
<name>4448</name>
</trkpt>
<trkpt lat="48.904383" lon="10.685573">
<ele>482.5</ele>
<speed>118</speed>
<course>339.9</course>
<desc>Speed 118 km/h Distance 157 km</desc>
<time>2010-07-31T16:10:41.75</time>
<name>4449</name>
</trkpt>
<trkpt lat="48.904653" lon="10.685423">
<ele>482.0</ele>
<speed>114</speed>
<course>339.7</course>
<desc>Speed 114 km/h Distance 157 km</desc>
<time>2010-07-31T16:10:42.75</time>
<name>4450</name>
</trkpt>
<trkpt lat="48.905388" lon="10.685010">
<ele>483.5</ele>
<speed>114</speed>
<course>345.8</course>
<desc>Speed 114 km/h Distance 157 km</desc>
<time>2010-07-31T16:10:47.76</time>
<name>4451</name>
</trkpt>
<trkpt lat="48.906165" lon="10.684710">
<ele>490.0</ele>
<speed>114</speed>
<course>342.2</course>
<desc>Speed 114 km/h Distance 157 km</desc>
<time>2010-07-31T16:10:56.69</time>
<name>4452</name>
</trkpt>
<trkpt lat="48.908013" lon="10.683807">
<ele>488.5</ele>
<speed>114</speed>
<course>18.9</course>
<desc>Speed 114 km/h Distance 157 km</desc>
<time>2010-07-31T16:10:58.69</time>
<name>4453</name>
</trkpt>
<trkpt lat="48.908978" lon="10.684310">
<ele>488.0</ele>
<speed>114</speed>
<course>343.2</course>
<desc>Speed 114 km/h Distance 157 km</desc>
<time>2010-07-31T16:11:05.67</time>
<name>4454</name>
</trkpt>
<trkpt lat="48.911682" lon="10.683068">
<ele>488.0</ele>
<speed>92.1</speed>
<course>343.6</course>
<desc>Speed 92.1 km/h Distance 158 km</desc>
<time>2010-07-31T16:11:11.84</time>
<name>4455</name>
</trkpt>
<trkpt lat="48.912818" lon="10.682560">
<ele>488.0</ele>
<speed>38.4</speed>
<course>354.5</course>
<desc>Speed 38.4 km/h Distance 158 km</desc>
<time>2010-07-31T16:11:17.62</time>
<name>4456</name>
</trkpt>
<trkpt lat="48.913070" lon="10.682523">
<ele>487.5</ele>
<speed>37.4</speed>
<course>328.8</course>
<desc>Speed 37.4 km/h Distance 158 km</desc>
<time>2010-07-31T16:11:19.61</time>
<name>4457</name>
</trkpt>
<trkpt lat="48.913283" lon="10.682327">
<ele>487.0</ele>
<speed>51.6</speed>
<course>331.1</course>
<desc>Speed 51.6 km/h Distance 158 km</desc>
<time>2010-07-31T16:11:21.60</time>
<name>4458</name>
</trkpt>
<trkpt lat="48.913553" lon="10.682100">
<ele>485.0</ele>
<speed>65.8</speed>
<course>333.1</course>
<desc>Speed 65.8 km/h Distance 158 km</desc>
<time>2010-07-31T16:11:23.60</time>
<name>4459</name>
</trkpt>
<trkpt lat="48.913853" lon="10.681868">
<ele>489.5</ele>
<speed>65.8</speed>
<course>330.2</course>
<desc>Speed 65.8 km/h Distance 158 km</desc>
<time>2010-07-31T16:11:26.60</time>
<name>4460</name>
</trkpt>
<trkpt lat="48.914177" lon="10.681587">
<ele>474.5</ele>
<speed>65.8</speed>
<course>321.2</course>
<desc>Speed 65.8 km/h Distance 158 km</desc>
<time>2010-07-31T16:11:30.55</time>
<name>4461</name>
</trkpt>
<trkpt lat="48.915745" lon="10.679667">
<ele>467.5</ele>
<speed>74.7</speed>
<course>319.6</course>
<desc>Speed 74.7 km/h Distance 158 km</desc>
<time>2010-07-31T16:11:36.53</time>
<name>4462</name>
</trkpt>
<trkpt lat="48.916267" lon="10.678990">
<ele>471.0</ele>
<speed>65.8</speed>
<course>306.5</course>
<desc>Speed 65.8 km/h Distance 158 km</desc>
<time>2010-07-31T16:11:39.65</time>
<name>4463</name>
</trkpt>
<trkpt lat="48.916793" lon="10.677907">
<ele>470.5</ele>
<speed>85.2</speed>
<course>305.1</course>
<desc>Speed 85.2 km/h Distance 158 km</desc>
<time>2010-07-31T16:11:43.50</time>
<name>4464</name>
</trkpt>
<trkpt lat="48.917065" lon="10.677318">
<ele>470.5</ele>
<speed>89.0</speed>
<course>302.1</course>
<desc>Speed 89.0 km/h Distance 158 km</desc>
<time>2010-07-31T16:11:45.51</time>
<name>4465</name>
</trkpt>
<trkpt lat="48.917483" lon="10.676303">
<ele>467.0</ele>
<speed>115</speed>
<course>304.7</course>
<desc>Speed 115 km/h Distance 159 km</desc>
<time>2010-07-31T16:11:49.52</time>
<name>4466</name>
</trkpt>
<trkpt lat="48.917848" lon="10.675500">
<ele>466.5</ele>
<speed>126</speed>
<course>308.2</course>
<desc>Speed 126 km/h Distance 159 km</desc>
<time>2010-07-31T16:11:51.51</time>
<name>4467</name>
</trkpt>
<trkpt lat="48.918262" lon="10.674700">
<ele>466.5</ele>
<speed>133</speed>
<course>312.3</course>
<desc>Speed 133 km/h Distance 159 km</desc>
<time>2010-07-31T16:11:53.50</time>
<name>4468</name>
</trkpt>
<trkpt lat="48.919200" lon="10.673130">
<ele>469.5</ele>
<speed>133</speed>
<course>329.0</course>
<desc>Speed 133 km/h Distance 159 km</desc>
<time>2010-07-31T16:11:59.50</time>
<name>4469</name>
</trkpt>
<trkpt lat="48.920310" lon="10.672115">
<ele>474.5</ele>
<speed>101</speed>
<course>340.4</course>
<desc>Speed 101 km/h Distance 159 km</desc>
<time>2010-07-31T16:12:05.53</time>
<name>4470</name>
</trkpt>
<trkpt lat="48.920763" lon="10.671870">
<ele>475.5</ele>
<speed>101</speed>
<course>348.9</course>
<desc>Speed 101 km/h Distance 159 km</desc>
<time>2010-07-31T16:12:07.62</time>
<name>4471</name>
</trkpt>
<trkpt lat="48.922302" lon="10.671412">
<ele>473.5</ele>
<speed>139</speed>
<course>359.5</course>
<desc>Speed 139 km/h Distance 159 km</desc>
<time>2010-07-31T16:12:13.45</time>
<name>4472</name>
</trkpt>
<trkpt lat="48.923480" lon="10.671395">
<ele>472.5</ele>
<speed>145</speed>
<course>0.2</course>
<desc>Speed 145 km/h Distance 159 km</desc>
<time>2010-07-31T16:12:16.45</time>
<name>4473</name>
</trkpt>
<trkpt lat="48.924263" lon="10.671398">
<ele>472.5</ele>
<speed>143</speed>
<course>4.0</course>
<desc>Speed 143 km/h Distance 159 km</desc>
<time>2010-07-31T16:12:18.45</time>
<name>4474</name>
</trkpt>
<trkpt lat="48.925590" lon="10.671538">
<ele>478.5</ele>
<speed>143</speed>
<course>351.3</course>
<desc>Speed 143 km/h Distance 160 km</desc>
<time>2010-07-31T16:12:24.60</time>
<name>4475</name>
</trkpt>
<trkpt lat="48.926215" lon="10.671393">
<ele>456.5</ele>
<speed>143</speed>
<course>339.9</course>
<desc>Speed 143 km/h Distance 160 km</desc>
<time>2010-07-31T16:12:30.41</time>
<name>4476</name>
</trkpt>
<trkpt lat="48.929235" lon="10.669710">
<ele>435.0</ele>
<speed>128</speed>
<course>312.0</course>
<desc>Speed 128 km/h Distance 160 km</desc>
<time>2010-07-31T16:12:36.40</time>
<name>4477</name>
</trkpt>
<trkpt lat="48.930195" lon="10.668087">
<ele>444.5</ele>
<speed>116</speed>
<course>314.9</course>
<desc>Speed 116 km/h Distance 160 km</desc>
<time>2010-07-31T16:12:40.39</time>
<name>4478</name>
</trkpt>
<trkpt lat="48.930410" lon="10.667758">
<ele>450.5</ele>
<speed>116</speed>
<course>316.0</course>
<desc>Speed 116 km/h Distance 160 km</desc>
<time>2010-07-31T16:12:41.38</time>
<name>4479</name>
</trkpt>
<trkpt lat="48.930623" lon="10.667445">
<ele>451.5</ele>
<speed>116</speed>
<course>305.8</course>
<desc>Speed 116 km/h Distance 160 km</desc>
<time>2010-07-31T16:12:42.38</time>
<name>4480</name>
</trkpt>
<trkpt lat="48.931055" lon="10.666535">
<ele>454.5</ele>
<speed>116</speed>
<course>311.8</course>
<desc>Speed 116 km/h Distance 160 km</desc>
<time>2010-07-31T16:12:45.37</time>
<name>4481</name>
</trkpt>
<trkpt lat="48.932193" lon="10.664598">
<ele>444.0</ele>
<speed>128</speed>
<course>305.1</course>
<desc>Speed 128 km/h Distance 161 km</desc>
<time>2010-07-31T16:12:50.34</time>
<name>4482</name>
</trkpt>
<trkpt lat="48.933577" lon="10.661603">
<ele>446.0</ele>
<speed>107</speed>
<course>289.2</course>
<desc>Speed 107 km/h Distance 161 km</desc>
<time>2010-07-31T16:12:56.33</time>
<name>4483</name>
</trkpt>
<trkpt lat="48.934300" lon="10.658433">
<ele>458.5</ele>
<speed>118</speed>
<course>294.7</course>
<desc>Speed 118 km/h Distance 161 km</desc>
<time>2010-07-31T16:13:02.31</time>
<name>4484</name>
</trkpt>
<trkpt lat="48.934535" lon="10.657655">
<ele>458.5</ele>
<speed>112</speed>
<course>299.0</course>
<desc>Speed 112 km/h Distance 161 km</desc>
<time>2010-07-31T16:13:04.30</time>
<name>4485</name>
</trkpt>
<trkpt lat="48.934820" lon="10.656872">
<ele>458.0</ele>
<speed>107</speed>
<course>299.3</course>
<desc>Speed 107 km/h Distance 161 km</desc>
<time>2010-07-31T16:13:06.30</time>
<name>4486</name>
</trkpt>
<trkpt lat="48.935200" lon="10.655840">
<ele>457.5</ele>
<speed>89.5</speed>
<course>302.5</course>
<desc>Speed 89.5 km/h Distance 161 km</desc>
<time>2010-07-31T16:13:09.29</time>
<name>4487</name>
</trkpt>
<trkpt lat="48.935317" lon="10.655562">
<ele>457.5</ele>
<speed>86.3</speed>
<course>301.4</course>
<desc>Speed 86.3 km/h Distance 161 km</desc>
<time>2010-07-31T16:13:10.29</time>
<name>4488</name>
</trkpt>
<trkpt lat="48.935432" lon="10.655275">
<ele>458.0</ele>
<speed>82.3</speed>
<course>306.2</course>
<desc>Speed 82.3 km/h Distance 161 km</desc>
<time>2010-07-31T16:13:11.28</time>
<name>4489</name>
</trkpt>
<trkpt lat="48.935558" lon="10.655012">
<ele>458.0</ele>
<speed>83.6</speed>
<course>307.8</course>
<desc>Speed 83.6 km/h Distance 161 km</desc>
<time>2010-07-31T16:13:12.29</time>
<name>4490</name>
</trkpt>
<trkpt lat="48.935773" lon="10.654590">
<ele>458.5</ele>
<speed>73.3</speed>
<course>304.9</course>
<desc>Speed 73.3 km/h Distance 161 km</desc>
<time>2010-07-31T16:13:14.28</time>
<name>4491</name>
</trkpt>
<trkpt lat="48.935875" lon="10.654368">
<ele>458.5</ele>
<speed>70.5</speed>
<course>305.1</course>
<desc>Speed 70.5 km/h Distance 161 km</desc>
<time>2010-07-31T16:13:15.28</time>
<name>4492</name>
</trkpt>
<trkpt lat="48.935975" lon="10.654152">
<ele>458.5</ele>
<speed>67.2</speed>
<course>309.2</course>
<desc>Speed 67.2 km/h Distance 161 km</desc>
<time>2010-07-31T16:13:16.27</time>
<name>4493</name>
</trkpt>
<trkpt lat="48.936075" lon="10.653965">
<ele>458.5</ele>
<speed>64.0</speed>
<course>304.9</course>
<desc>Speed 64.0 km/h Distance 161 km</desc>
<time>2010-07-31T16:13:17.27</time>
<name>4494</name>
</trkpt>
<trkpt lat="48.936167" lon="10.653765">
<ele>458.0</ele>
<speed>62.8</speed>
<course>305.6</course>
<desc>Speed 62.8 km/h Distance 161 km</desc>
<time>2010-07-31T16:13:18.26</time>
<name>4495</name>
</trkpt>
<trkpt lat="48.936258" lon="10.653570">
<ele>458.5</ele>
<speed>62.5</speed>
<course>302.8</course>
<desc>Speed 62.5 km/h Distance 161 km</desc>
<time>2010-07-31T16:13:19.26</time>
<name>4496</name>
</trkpt>
<trkpt lat="48.936347" lon="10.653362">
<ele>458.0</ele>
<speed>68.7</speed>
<course>308.2</course>
<desc>Speed 68.7 km/h Distance 161 km</desc>
<time>2010-07-31T16:13:20.27</time>
<name>4497</name>
</trkpt>
<trkpt lat="48.936525" lon="10.653017">
<ele>458.0</ele>
<speed>58.3</speed>
<course>317.8</course>
<desc>Speed 58.3 km/h Distance 162 km</desc>
<time>2010-07-31T16:13:22.38</time>
<name>4498</name>
</trkpt>
<trkpt lat="48.936630" lon="10.652872">
<ele>458.0</ele>
<speed>56.6</speed>
<course>320.4</course>
<desc>Speed 56.6 km/h Distance 162 km</desc>
<time>2010-07-31T16:13:23.26</time>
<name>4499</name>
</trkpt>
<trkpt lat="48.936740" lon="10.652733">
<ele>458.0</ele>
<speed>57.8</speed>
<course>330.2</course>
<desc>Speed 57.8 km/h Distance 162 km</desc>
<time>2010-07-31T16:13:24.25</time>
<name>4500</name>
</trkpt>
<trkpt lat="48.936858" lon="10.652630">
<ele>458.5</ele>
<speed>56.1</speed>
<course>322.0</course>
<desc>Speed 56.1 km/h Distance 162 km</desc>
<time>2010-07-31T16:13:25.25</time>
<name>4501</name>
</trkpt>
<trkpt lat="48.936972" lon="10.652495">
<ele>458.5</ele>
<speed>56.9</speed>
<course>329.0</course>
<desc>Speed 56.9 km/h Distance 162 km</desc>
<time>2010-07-31T16:13:26.24</time>
<name>4502</name>
</trkpt>
<trkpt lat="48.937090" lon="10.652387">
<ele>458.0</ele>
<speed>56.9</speed>
<course>328.2</course>
<desc>Speed 56.9 km/h Distance 162 km</desc>
<time>2010-07-31T16:13:27.26</time>
<name>4503</name>
</trkpt>
<trkpt lat="48.937212" lon="10.652272">
<ele>458.5</ele>
<speed>58.0</speed>
<course>326.3</course>
<desc>Speed 58.0 km/h Distance 162 km</desc>
<time>2010-07-31T16:13:28.24</time>
<name>4504</name>
</trkpt>
<trkpt lat="48.937330" lon="10.652152">
<ele>459.0</ele>
<speed>56.8</speed>
<course>324.5</course>
<desc>Speed 56.8 km/h Distance 162 km</desc>
<time>2010-07-31T16:13:29.24</time>
<name>4505</name>
</trkpt>
<trkpt lat="48.937445" lon="10.652027">
<ele>459.0</ele>
<speed>56.7</speed>
<course>318.1</course>
<desc>Speed 56.7 km/h Distance 162 km</desc>
<time>2010-07-31T16:13:30.24</time>
<name>4506</name>
</trkpt>
<trkpt lat="48.937645" lon="10.651753">
<ele>459.5</ele>
<speed>60.4</speed>
<course>314.6</course>
<desc>Speed 60.4 km/h Distance 162 km</desc>
<time>2010-07-31T16:13:32.24</time>
<name>4507</name>
</trkpt>
<trkpt lat="48.937755" lon="10.651583">
<ele>459.0</ele>
<speed>63.0</speed>
<course>314.7</course>
<desc>Speed 63.0 km/h Distance 162 km</desc>
<time>2010-07-31T16:13:33.23</time>
<name>4508</name>
</trkpt>
<trkpt lat="48.937867" lon="10.651412">
<ele>459.0</ele>
<speed>63.8</speed>
<course>316.0</course>
<desc>Speed 63.8 km/h Distance 162 km</desc>
<time>2010-07-31T16:13:34.22</time>
<name>4509</name>
</trkpt>
<trkpt lat="48.938153" lon="10.650990">
<ele>459.0</ele>
<speed>60.6</speed>
<course>323.2</course>
<desc>Speed 60.6 km/h Distance 162 km</desc>
<time>2010-07-31T16:13:37.32</time>
<name>4510</name>
</trkpt>
<trkpt lat="48.938438" lon="10.650665">
<ele>458.5</ele>
<speed>64.2</speed>
<course>310.5</course>
<desc>Speed 64.2 km/h Distance 162 km</desc>
<time>2010-07-31T16:13:39.43</time>
<name>4511</name>
</trkpt>
<trkpt lat="48.938643" lon="10.650300">
<ele>457.5</ele>
<speed>55.5</speed>
<course>311.6</course>
<desc>Speed 55.5 km/h Distance 162 km</desc>
<time>2010-07-31T16:13:41.21</time>
<name>4512</name>
</trkpt>
<trkpt lat="48.938742" lon="10.650132">
<ele>457.5</ele>
<speed>59.9</speed>
<course>309.9</course>
<desc>Speed 59.9 km/h Distance 162 km</desc>
<time>2010-07-31T16:13:42.20</time>
<name>4513</name>
</trkpt>
<trkpt lat="48.938917" lon="10.649813">
<ele>457.5</ele>
<speed>60.0</speed>
<course>310.1</course>
<desc>Speed 60.0 km/h Distance 162 km</desc>
<time>2010-07-31T16:13:44.20</time>
<name>4514</name>
</trkpt>
<trkpt lat="48.939125" lon="10.649437">
<ele>457.5</ele>
<speed>61.8</speed>
<course>319.0</course>
<desc>Speed 61.8 km/h Distance 162 km</desc>
<time>2010-07-31T16:13:46.21</time>
<name>4515</name>
</trkpt>
<trkpt lat="48.939383" lon="10.649095">
<ele>458.0</ele>
<speed>67.2</speed>
<course>320.8</course>
<desc>Speed 67.2 km/h Distance 162 km</desc>
<time>2010-07-31T16:13:48.18</time>
<name>4516</name>
</trkpt>
<trkpt lat="48.939520" lon="10.648925">
<ele>458.0</ele>
<speed>69.1</speed>
<course>318.2</course>
<desc>Speed 69.1 km/h Distance 162 km</desc>
<time>2010-07-31T16:13:49.18</time>
<name>4517</name>
</trkpt>
<trkpt lat="48.939645" lon="10.648755">
<ele>458.5</ele>
<speed>66.7</speed>
<course>313.6</course>
<desc>Speed 66.7 km/h Distance 162 km</desc>
<time>2010-07-31T16:13:50.18</time>
<name>4518</name>
</trkpt>
<trkpt lat="48.939762" lon="10.648568">
<ele>458.5</ele>
<speed>66.6</speed>
<course>318.6</course>
<desc>Speed 66.6 km/h Distance 162 km</desc>
<time>2010-07-31T16:13:51.20</time>
<name>4519</name>
</trkpt>
<trkpt lat="48.939883" lon="10.648405">
<ele>458.5</ele>
<speed>63.2</speed>
<course>319.2</course>
<desc>Speed 63.2 km/h Distance 162 km</desc>
<time>2010-07-31T16:13:52.20</time>
<name>4520</name>
</trkpt>
<trkpt lat="48.940010" lon="10.648238">
<ele>459.5</ele>
<speed>66.6</speed>
<course>327.1</course>
<desc>Speed 66.6 km/h Distance 162 km</desc>
<time>2010-07-31T16:13:53.17</time>
<name>4521</name>
</trkpt>
<trkpt lat="48.940255" lon="10.647997">
<ele>457.0</ele>
<speed>63.9</speed>
<course>324.0</course>
<desc>Speed 63.9 km/h Distance 162 km</desc>
<time>2010-07-31T16:13:55.17</time>
<name>4522</name>
</trkpt>
<trkpt lat="48.940398" lon="10.647838">
<ele>455.5</ele>
<speed>70.0</speed>
<course>318.3</course>
<desc>Speed 70.0 km/h Distance 162 km</desc>
<time>2010-07-31T16:13:56.37</time>
<name>4523</name>
</trkpt>
<trkpt lat="48.940820" lon="10.647267">
<ele>453.5</ele>
<speed>77.3</speed>
<course>316.3</course>
<desc>Speed 77.3 km/h Distance 162 km</desc>
<time>2010-07-31T16:13:59.16</time>
<name>4524</name>
</trkpt>
<trkpt lat="48.940967" lon="10.647053">
<ele>453.5</ele>
<speed>78.9</speed>
<course>320.9</course>
<desc>Speed 78.9 km/h Distance 162 km</desc>
<time>2010-07-31T16:14:00.15</time>
<name>4525</name>
</trkpt>
<trkpt lat="48.941128" lon="10.646853">
<ele>452.5</ele>
<speed>81.4</speed>
<course>317.2</course>
<desc>Speed 81.4 km/h Distance 162 km</desc>
<time>2010-07-31T16:14:01.15</time>
<name>4526</name>
</trkpt>
<trkpt lat="48.942388" lon="10.645077">
<ele>452.5</ele>
<speed>129</speed>
<course>316.8</course>
<desc>Speed 129 km/h Distance 162 km</desc>
<time>2010-07-31T16:14:07.14</time>
<name>4527</name>
</trkpt>
<trkpt lat="48.942628" lon="10.644733">
<ele>452.5</ele>
<speed>131</speed>
<course>318.1</course>
<desc>Speed 131 km/h Distance 162 km</desc>
<time>2010-07-31T16:14:08.14</time>
<name>4528</name>
</trkpt>
<trkpt lat="48.942875" lon="10.644397">
<ele>452.5</ele>
<speed>132</speed>
<course>312.7</course>
<desc>Speed 132 km/h Distance 162 km</desc>
<time>2010-07-31T16:14:09.13</time>
<name>4529</name>
</trkpt>
<trkpt lat="48.943435" lon="10.643473">
<ele>450.0</ele>
<speed>124</speed>
<course>305.7</course>
<desc>Speed 124 km/h Distance 163 km</desc>
<time>2010-07-31T16:14:12.12</time>
<name>4530</name>
</trkpt>
<trkpt lat="48.944140" lon="10.641980">
<ele>468.5</ele>
<speed>124</speed>
<course>326.5</course>
<desc>Speed 124 km/h Distance 163 km</desc>
<time>2010-07-31T16:14:18.10</time>
<name>4531</name>
</trkpt>
<trkpt lat="48.944568" lon="10.641548">
<ele>471.5</ele>
<speed>124</speed>
<course>299.3</course>
<desc>Speed 124 km/h Distance 163 km</desc>
<time>2010-07-31T16:14:24.08</time>
<name>4532</name>
</trkpt>
<trkpt lat="48.945477" lon="10.639088">
<ele>476.5</ele>
<speed>124</speed>
<course>285.7</course>
<desc>Speed 124 km/h Distance 163 km</desc>
<time>2010-07-31T16:14:30.06</time>
<name>4533</name>
</trkpt>
<trkpt lat="48.946043" lon="10.636015">
<ele>479.0</ele>
<speed>124</speed>
<course>270.5</course>
<desc>Speed 124 km/h Distance 163 km</desc>
<time>2010-07-31T16:14:32.06</time>
<name>4534</name>
</trkpt>
<trkpt lat="48.946048" lon="10.635143">
<ele>480.5</ele>
<speed>124</speed>
<course>285.6</course>
<desc>Speed 124 km/h Distance 163 km</desc>
<time>2010-07-31T16:14:34.15</time>
<name>4535</name>
</trkpt>
<trkpt lat="48.946310" lon="10.633718">
<ele>477.5</ele>
<speed>129</speed>
<course>307.7</course>
<desc>Speed 129 km/h Distance 163 km</desc>
<time>2010-07-31T16:14:37.03</time>
<name>4536</name>
</trkpt>
<trkpt lat="48.946513" lon="10.633318">
<ele>476.5</ele>
<speed>129</speed>
<course>316.1</course>
<desc>Speed 129 km/h Distance 163 km</desc>
<time>2010-07-31T16:14:38.03</time>
<name>4537</name>
</trkpt>
<trkpt lat="48.946937" lon="10.632698">
<ele>475.5</ele>
<speed>129</speed>
<course>294.9</course>
<desc>Speed 129 km/h Distance 163 km</desc>
<time>2010-07-31T16:14:40.03</time>
<name>4538</name>
</trkpt>
<trkpt lat="48.947205" lon="10.631820">
<ele>473.0</ele>
<speed>129</speed>
<course>305.1</course>
<desc>Speed 129 km/h Distance 164 km</desc>
<time>2010-07-31T16:14:42.01</time>
<name>4539</name>
</trkpt>
<trkpt lat="48.947567" lon="10.631037">
<ele>474.5</ele>
<speed>135</speed>
<course>305.1</course>
<desc>Speed 135 km/h Distance 164 km</desc>
<time>2010-07-31T16:14:44.01</time>
<name>4540</name>
</trkpt>
<trkpt lat="48.948968" lon="10.628000">
<ele>463.0</ele>
<speed>144</speed>
<course>311.6</course>
<desc>Speed 144 km/h Distance 164 km</desc>
<time>2010-07-31T16:14:49.03</time>
<name>4541</name>
</trkpt>
<trkpt lat="48.949688" lon="10.626763">
<ele>461.5</ele>
<speed>123</speed>
<course>315.7</course>
<desc>Speed 123 km/h Distance 164 km</desc>
<time>2010-07-31T16:14:51.98</time>
<name>4542</name>
</trkpt>
<trkpt lat="48.950320" lon="10.625825">
<ele>460.5</ele>
<speed>108</speed>
<course>313.9</course>
<desc>Speed 108 km/h Distance 164 km</desc>
<time>2010-07-31T16:14:54.96</time>
<name>4543</name>
</trkpt>
<trkpt lat="48.950508" lon="10.625527">
<ele>461.5</ele>
<speed>107</speed>
<course>312.2</course>
<desc>Speed 107 km/h Distance 164 km</desc>
<time>2010-07-31T16:14:55.96</time>
<name>4544</name>
</trkpt>
<trkpt lat="48.950685" lon="10.625230">
<ele>458.5</ele>
<speed>105</speed>
<course>311.4</course>
<desc>Speed 105 km/h Distance 164 km</desc>
<time>2010-07-31T16:14:56.96</time>
<name>4545</name>
</trkpt>
<trkpt lat="48.950857" lon="10.624933">
<ele>457.0</ele>
<speed>104</speed>
<course>309.5</course>
<desc>Speed 104 km/h Distance 164 km</desc>
<time>2010-07-31T16:14:57.96</time>
<name>4546</name>
</trkpt>
<trkpt lat="48.951022" lon="10.624628">
<ele>454.5</ele>
<speed>104</speed>
<course>306.7</course>
<desc>Speed 104 km/h Distance 164 km</desc>
<time>2010-07-31T16:14:58.95</time>
<name>4547</name>
</trkpt>
<trkpt lat="48.951183" lon="10.624298">
<ele>452.0</ele>
<speed>106</speed>
<course>306.0</course>
<desc>Speed 106 km/h Distance 164 km</desc>
<time>2010-07-31T16:14:59.96</time>
<name>4548</name>
</trkpt>
<trkpt lat="48.951342" lon="10.623967">
<ele>449.0</ele>
<speed>107</speed>
<course>306.6</course>
<desc>Speed 107 km/h Distance 164 km</desc>
<time>2010-07-31T16:15:00.95</time>
<name>4549</name>
</trkpt>
<trkpt lat="48.951503" lon="10.623635">
<ele>448.5</ele>
<speed>108</speed>
<course>309.7</course>
<desc>Speed 108 km/h Distance 164 km</desc>
<time>2010-07-31T16:15:01.95</time>
<name>4550</name>
</trkpt>
<trkpt lat="48.951820" lon="10.623055">
<ele>447.5</ele>
<speed>109</speed>
<course>309.6</course>
<desc>Speed 109 km/h Distance 164 km</desc>
<time>2010-07-31T16:15:03.93</time>
<name>4551</name>
</trkpt>
<trkpt lat="48.951998" lon="10.622727">
<ele>447.0</ele>
<speed>110</speed>
<course>301.6</course>
<desc>Speed 110 km/h Distance 164 km</desc>
<time>2010-07-31T16:15:04.94</time>
<name>4552</name>
</trkpt>
<trkpt lat="48.952315" lon="10.621942">
<ele>450.0</ele>
<speed>117</speed>
<course>297.8</course>
<desc>Speed 117 km/h Distance 164 km</desc>
<time>2010-07-31T16:15:06.93</time>
<name>4553</name>
</trkpt>
<trkpt lat="48.952458" lon="10.621528">
<ele>449.0</ele>
<speed>121</speed>
<course>298.0</course>
<desc>Speed 121 km/h Distance 164 km</desc>
<time>2010-07-31T16:15:08.03</time>
<name>4554</name>
</trkpt>
<trkpt lat="48.952758" lon="10.620668">
<ele>449.0</ele>
<speed>128</speed>
<course>298.6</course>
<desc>Speed 128 km/h Distance 165 km</desc>
<time>2010-07-31T16:15:10.12</time>
<name>4555</name>
</trkpt>
<trkpt lat="48.953247" lon="10.619303">
<ele>447.5</ele>
<speed>140</speed>
<course>297.6</course>
<desc>Speed 140 km/h Distance 165 km</desc>
<time>2010-07-31T16:15:12.91</time>
<name>4556</name>
</trkpt>
<trkpt lat="48.953577" lon="10.618343">
<ele>445.5</ele>
<speed>136</speed>
<course>296.7</course>
<desc>Speed 136 km/h Distance 165 km</desc>
<time>2010-07-31T16:15:14.90</time>
<name>4557</name>
</trkpt>
<trkpt lat="48.953872" lon="10.617448">
<ele>446.5</ele>
<speed>125</speed>
<course>296.9</course>
<desc>Speed 125 km/h Distance 165 km</desc>
<time>2010-07-31T16:15:16.90</time>
<name>4558</name>
</trkpt>
<trkpt lat="48.954228" lon="10.616380">
<ele>445.5</ele>
<speed>110</speed>
<course>287.7</course>
<desc>Speed 110 km/h Distance 165 km</desc>
<time>2010-07-31T16:15:19.89</time>
<name>4559</name>
</trkpt>
<trkpt lat="48.954435" lon="10.615397">
<ele>453.5</ele>
<speed>96.5</speed>
<course>287.0</course>
<desc>Speed 96.5 km/h Distance 165 km</desc>
<time>2010-07-31T16:15:22.88</time>
<name>4560</name>
</trkpt>
<trkpt lat="48.954668" lon="10.614232">
<ele>452.5</ele>
<speed>60.9</speed>
<course>286.5</course>
<desc>Speed 60.9 km/h Distance 165 km</desc>
<time>2010-07-31T16:15:27.85</time>
<name>4561</name>
</trkpt>
<trkpt lat="48.954795" lon="10.613580">
<ele>453.5</ele>
<speed>44.0</speed>
<course>283.4</course>
<desc>Speed 44.0 km/h Distance 165 km</desc>
<time>2010-07-31T16:15:31.85</time>
<name>4562</name>
</trkpt>
<trkpt lat="48.954855" lon="10.613195">
<ele>454.5</ele>
<speed>52.1</speed>
<course>282.8</course>
<desc>Speed 52.1 km/h Distance 165 km</desc>
<time>2010-07-31T16:15:33.84</time>
<name>4563</name>
</trkpt>
<trkpt lat="48.954920" lon="10.612758">
<ele>456.0</ele>
<speed>57.1</speed>
<course>280.1</course>
<desc>Speed 57.1 km/h Distance 165 km</desc>
<time>2010-07-31T16:15:35.83</time>
<name>4564</name>
</trkpt>
<trkpt lat="48.954970" lon="10.612330">
<ele>457.0</ele>
<speed>57.1</speed>
<course>284.8</course>
<desc>Speed 57.1 km/h Distance 165 km</desc>
<time>2010-07-31T16:15:37.83</time>
<name>4565</name>
</trkpt>
<trkpt lat="48.955038" lon="10.611937">
<ele>455.5</ele>
<speed>51.0</speed>
<course>285.3</course>
<desc>Speed 51.0 km/h Distance 165 km</desc>
<time>2010-07-31T16:15:39.91</time>
<name>4566</name>
</trkpt>
<trkpt lat="48.955088" lon="10.611658">
<ele>455.5</ele>
<speed>51.0</speed>
<course>328.3</course>
<desc>Speed 51.0 km/h Distance 165 km</desc>
<time>2010-07-31T16:15:42.02</time>
<name>4567</name>
</trkpt>
<trkpt lat="48.955318" lon="10.611442">
<ele>450.5</ele>
<speed>37.8</speed>
<course>2.7</course>
<desc>Speed 37.8 km/h Distance 165 km</desc>
<time>2010-07-31T16:15:44.80</time>
<name>4568</name>
</trkpt>
<trkpt lat="48.955457" lon="10.611452">
<ele>450.5</ele>
<speed>37.8</speed>
<course>27.0</course>
<desc>Speed 37.8 km/h Distance 165 km</desc>
<time>2010-07-31T16:15:46.80</time>
<name>4569</name>
</trkpt>
<trkpt lat="48.955852" lon="10.611758">
<ele>448.0</ele>
<speed>64.9</speed>
<course>27.8</course>
<desc>Speed 64.9 km/h Distance 165 km</desc>
<time>2010-07-31T16:15:50.78</time>
<name>4570</name>
</trkpt>
<trkpt lat="48.956380" lon="10.612183">
<ele>449.5</ele>
<speed>69.3</speed>
<course>18.7</course>
<desc>Speed 69.3 km/h Distance 165 km</desc>
<time>2010-07-31T16:15:53.78</time>
<name>4571</name>
</trkpt>
<trkpt lat="48.956968" lon="10.612487">
<ele>442.0</ele>
<speed>88.2</speed>
<course>20.6</course>
<desc>Speed 88.2 km/h Distance 165 km</desc>
<time>2010-07-31T16:15:56.77</time>
<name>4572</name>
</trkpt>
<trkpt lat="48.957350" lon="10.612705">
<ele>439.5</ele>
<speed>88.6</speed>
<course>17.8</course>
<desc>Speed 88.6 km/h Distance 166 km</desc>
<time>2010-07-31T16:15:58.76</time>
<name>4573</name>
</trkpt>
<trkpt lat="48.957820" lon="10.612935">
<ele>437.5</ele>
<speed>88.6</speed>
<course>14.7</course>
<desc>Speed 88.6 km/h Distance 166 km</desc>
<time>2010-07-31T16:16:00.85</time>
<name>4574</name>
</trkpt>
<trkpt lat="48.959582" lon="10.613638">
<ele>433.5</ele>
<speed>108</speed>
<course>15.4</course>
<desc>Speed 108 km/h Distance 166 km</desc>
<time>2010-07-31T16:16:06.74</time>
<name>4575</name>
</trkpt>
<trkpt lat="48.960117" lon="10.613863">
<ele>433.0</ele>
<speed>108</speed>
<course>13.8</course>
<desc>Speed 108 km/h Distance 166 km</desc>
<time>2010-07-31T16:16:08.73</time>
<name>4576</name>
</trkpt>
<trkpt lat="48.960818" lon="10.614125">
<ele>432.0</ele>
<speed>115</speed>
<course>9.6</course>
<desc>Speed 115 km/h Distance 166 km</desc>
<time>2010-07-31T16:16:11.80</time>
<name>4577</name>
</trkpt>
<trkpt lat="48.961765" lon="10.614368">
<ele>436.5</ele>
<speed>115</speed>
<course>11.5</course>
<desc>Speed 115 km/h Distance 166 km</desc>
<time>2010-07-31T16:16:17.70</time>
<name>4578</name>
</trkpt>
<trkpt lat="48.962385" lon="10.614560">
<ele>428.0</ele>
<speed>115</speed>
<course>32.7</course>
<desc>Speed 115 km/h Distance 166 km</desc>
<time>2010-07-31T16:16:23.68</time>
<name>4579</name>
</trkpt>
<trkpt lat="48.963465" lon="10.615617">
<ele>418.0</ele>
<speed>71.4</speed>
<course>23.7</course>
<desc>Speed 71.4 km/h Distance 166 km</desc>
<time>2010-07-31T16:16:29.65</time>
<name>4580</name>
</trkpt>
<trkpt lat="48.963813" lon="10.615850">
<ele>416.5</ele>
<speed>70.2</speed>
<course>20.2</course>
<desc>Speed 70.2 km/h Distance 166 km</desc>
<time>2010-07-31T16:16:31.65</time>
<name>4581</name>
</trkpt>
<trkpt lat="48.964960" lon="10.616493">
<ele>431.0</ele>
<speed>75.5</speed>
<course>39.8</course>
<desc>Speed 75.5 km/h Distance 166 km</desc>
<time>2010-07-31T16:16:36.63</time>
<name>4582</name>
</trkpt>
<trkpt lat="48.965255" lon="10.616868">
<ele>431.0</ele>
<speed>75.1</speed>
<course>34.1</course>
<desc>Speed 75.1 km/h Distance 166 km</desc>
<time>2010-07-31T16:16:38.62</time>
<name>4583</name>
</trkpt>
<trkpt lat="48.966352" lon="10.618000">
<ele>445.0</ele>
<speed>90.4</speed>
<course>44.1</course>
<desc>Speed 90.4 km/h Distance 167 km</desc>
<time>2010-07-31T16:16:43.60</time>
<name>4584</name>
</trkpt>
<trkpt lat="48.966520" lon="10.618248">
<ele>445.0</ele>
<speed>92.2</speed>
<course>42.0</course>
<desc>Speed 92.2 km/h Distance 167 km</desc>
<time>2010-07-31T16:16:44.60</time>
<name>4585</name>
</trkpt>
<trkpt lat="48.966700" lon="10.618495">
<ele>445.0</ele>
<speed>93.4</speed>
<course>40.7</course>
<desc>Speed 93.4 km/h Distance 167 km</desc>
<time>2010-07-31T16:16:45.60</time>
<name>4586</name>
</trkpt>
<trkpt lat="48.966887" lon="10.618740">
<ele>445.0</ele>
<speed>97.1</speed>
<course>38.6</course>
<desc>Speed 97.1 km/h Distance 167 km</desc>
<time>2010-07-31T16:16:46.63</time>
<name>4587</name>
</trkpt>
<trkpt lat="48.967535" lon="10.619528">
<ele>443.0</ele>
<speed>117</speed>
<course>40.3</course>
<desc>Speed 117 km/h Distance 167 km</desc>
<time>2010-07-31T16:16:50.60</time>
<name>4588</name>
</trkpt>
<trkpt lat="48.967792" lon="10.619860">
<ele>444.5</ele>
<speed>118</speed>
<course>41.2</course>
<desc>Speed 118 km/h Distance 167 km</desc>
<time>2010-07-31T16:16:51.80</time>
<name>4589</name>
</trkpt>
<trkpt lat="48.968485" lon="10.620785">
<ele>451.5</ele>
<speed>120</speed>
<course>40.4</course>
<desc>Speed 120 km/h Distance 167 km</desc>
<time>2010-07-31T16:16:54.58</time>
<name>4590</name>
</trkpt>
<trkpt lat="48.968715" lon="10.621083">
<ele>451.5</ele>
<speed>120</speed>
<course>40.8</course>
<desc>Speed 120 km/h Distance 167 km</desc>
<time>2010-07-31T16:16:55.57</time>
<name>4591</name>
</trkpt>
<trkpt lat="48.968943" lon="10.621383">
<ele>452.5</ele>
<speed>119</speed>
<course>42.0</course>
<desc>Speed 119 km/h Distance 167 km</desc>
<time>2010-07-31T16:16:56.58</time>
<name>4592</name>
</trkpt>
<trkpt lat="48.969163" lon="10.621685">
<ele>451.0</ele>
<speed>118</speed>
<course>42.0</course>
<desc>Speed 118 km/h Distance 167 km</desc>
<time>2010-07-31T16:16:57.58</time>
<name>4593</name>
</trkpt>
<trkpt lat="48.969392" lon="10.621998">
<ele>453.0</ele>
<speed>119</speed>
<course>45.5</course>
<desc>Speed 119 km/h Distance 167 km</desc>
<time>2010-07-31T16:16:58.58</time>
<name>4594</name>
</trkpt>
<trkpt lat="48.969598" lon="10.622318">
<ele>452.0</ele>
<speed>117</speed>
<course>48.7</course>
<desc>Speed 117 km/h Distance 167 km</desc>
<time>2010-07-31T16:16:59.58</time>
<name>4595</name>
</trkpt>
<trkpt lat="48.970005" lon="10.623023">
<ele>456.0</ele>
<speed>118</speed>
<course>52.4</course>
<desc>Speed 118 km/h Distance 167 km</desc>
<time>2010-07-31T16:17:01.56</time>
<name>4596</name>
</trkpt>
<trkpt lat="48.970185" lon="10.623380">
<ele>456.0</ele>
<speed>118</speed>
<course>52.4</course>
<desc>Speed 118 km/h Distance 167 km</desc>
<time>2010-07-31T16:17:02.57</time>
<name>4597</name>
</trkpt>
<trkpt lat="48.970363" lon="10.623733">
<ele>456.0</ele>
<speed>117</speed>
<course>51.9</course>
<desc>Speed 117 km/h Distance 167 km</desc>
<time>2010-07-31T16:17:03.57</time>
<name>4598</name>
</trkpt>
<trkpt lat="48.970542" lon="10.624080">
<ele>456.0</ele>
<speed>115</speed>
<course>50.4</course>
<desc>Speed 115 km/h Distance 167 km</desc>
<time>2010-07-31T16:17:04.57</time>
<name>4599</name>
</trkpt>
<trkpt lat="48.970730" lon="10.624427">
<ele>456.0</ele>
<speed>117</speed>
<course>49.1</course>
<desc>Speed 117 km/h Distance 167 km</desc>
<time>2010-07-31T16:17:05.56</time>
<name>4600</name>
</trkpt>
<trkpt lat="48.970928" lon="10.624775">
<ele>456.0</ele>
<speed>121</speed>
<course>48.8</course>
<desc>Speed 121 km/h Distance 167 km</desc>
<time>2010-07-31T16:17:06.57</time>
<name>4601</name>
</trkpt>
<trkpt lat="48.971128" lon="10.625123">
<ele>455.5</ele>
<speed>121</speed>
<course>48.3</course>
<desc>Speed 121 km/h Distance 167 km</desc>
<time>2010-07-31T16:17:07.56</time>
<name>4602</name>
</trkpt>
<trkpt lat="48.971528" lon="10.625807">
<ele>456.0</ele>
<speed>119</speed>
<course>46.8</course>
<desc>Speed 119 km/h Distance 167 km</desc>
<time>2010-07-31T16:17:09.55</time>
<name>4603</name>
</trkpt>
<trkpt lat="48.971937" lon="10.626468">
<ele>456.0</ele>
<speed>123</speed>
<course>44.1</course>
<desc>Speed 123 km/h Distance 168 km</desc>
<time>2010-07-31T16:17:11.55</time>
<name>4604</name>
</trkpt>
<trkpt lat="48.972343" lon="10.627068">
<ele>456.0</ele>
<speed>113</speed>
<course>45.0</course>
<desc>Speed 113 km/h Distance 168 km</desc>
<time>2010-07-31T16:17:13.54</time>
<name>4605</name>
</trkpt>
<trkpt lat="48.972542" lon="10.627370">
<ele>457.0</ele>
<speed>110</speed>
<course>47.8</course>
<desc>Speed 110 km/h Distance 168 km</desc>
<time>2010-07-31T16:17:14.54</time>
<name>4606</name>
</trkpt>
<trkpt lat="48.972725" lon="10.627678">
<ele>457.5</ele>
<speed>109</speed>
<course>46.1</course>
<desc>Speed 109 km/h Distance 168 km</desc>
<time>2010-07-31T16:17:15.53</time>
<name>4607</name>
</trkpt>
<trkpt lat="48.972920" lon="10.627987">
<ele>458.0</ele>
<speed>111</speed>
<course>46.4</course>
<desc>Speed 111 km/h Distance 168 km</desc>
<time>2010-07-31T16:17:16.52</time>
<name>4608</name>
</trkpt>
<trkpt lat="48.973115" lon="10.628298">
<ele>458.5</ele>
<speed>111</speed>
<course>47.8</course>
<desc>Speed 111 km/h Distance 168 km</desc>
<time>2010-07-31T16:17:17.52</time>
<name>4609</name>
</trkpt>
<trkpt lat="48.973302" lon="10.628612">
<ele>458.5</ele>
<speed>110</speed>
<course>46.3</course>
<desc>Speed 110 km/h Distance 168 km</desc>
<time>2010-07-31T16:17:18.52</time>
<name>4610</name>
</trkpt>
<trkpt lat="48.973502" lon="10.628930">
<ele>458.5</ele>
<speed>115</speed>
<course>51.3</course>
<desc>Speed 115 km/h Distance 168 km</desc>
<time>2010-07-31T16:17:19.52</time>
<name>4611</name>
</trkpt>
<trkpt lat="48.973673" lon="10.629257">
<ele>459.0</ele>
<speed>109</speed>
<course>48.6</course>
<desc>Speed 109 km/h Distance 168 km</desc>
<time>2010-07-31T16:17:20.52</time>
<name>4612</name>
</trkpt>
<trkpt lat="48.973863" lon="10.629585">
<ele>458.5</ele>
<speed>115</speed>
<course>46.8</course>
<desc>Speed 115 km/h Distance 168 km</desc>
<time>2010-07-31T16:17:21.52</time>
<name>4613</name>
</trkpt>
<trkpt lat="48.974272" lon="10.630247">
<ele>462.0</ele>
<speed>115</speed>
<course>48.5</course>
<desc>Speed 115 km/h Distance 168 km</desc>
<time>2010-07-31T16:17:23.54</time>
<name>4614</name>
</trkpt>
<trkpt lat="48.974462" lon="10.630573">
<ele>462.0</ele>
<speed>113</speed>
<course>52.4</course>
<desc>Speed 113 km/h Distance 168 km</desc>
<time>2010-07-31T16:17:24.51</time>
<name>4615</name>
</trkpt>
<trkpt lat="48.974633" lon="10.630913">
<ele>462.0</ele>
<speed>113</speed>
<course>52.7</course>
<desc>Speed 113 km/h Distance 168 km</desc>
<time>2010-07-31T16:17:25.51</time>
<name>4616</name>
</trkpt>
<trkpt lat="48.974802" lon="10.631250">
<ele>462.0</ele>
<speed>111</speed>
<course>57.5</course>
<desc>Speed 111 km/h Distance 168 km</desc>
<time>2010-07-31T16:17:26.51</time>
<name>4617</name>
</trkpt>
<trkpt lat="48.974952" lon="10.631608">
<ele>462.5</ele>
<speed>111</speed>
<course>61.8</course>
<desc>Speed 111 km/h Distance 168 km</desc>
<time>2010-07-31T16:17:27.57</time>
<name>4618</name>
</trkpt>
<trkpt lat="48.975082" lon="10.631978">
<ele>462.5</ele>
<speed>111</speed>
<course>61.3</course>
<desc>Speed 111 km/h Distance 168 km</desc>
<time>2010-07-31T16:17:28.51</time>
<name>4619</name>
</trkpt>
<trkpt lat="48.975340" lon="10.632698">
<ele>462.0</ele>
<speed>109</speed>
<course>61.0</course>
<desc>Speed 109 km/h Distance 168 km</desc>
<time>2010-07-31T16:17:30.50</time>
<name>4620</name>
</trkpt>
<trkpt lat="48.975472" lon="10.633060">
<ele>462.0</ele>
<speed>109</speed>
<course>60.7</course>
<desc>Speed 109 km/h Distance 168 km</desc>
<time>2010-07-31T16:17:31.49</time>
<name>4621</name>
</trkpt>
<trkpt lat="48.975605" lon="10.633422">
<ele>462.5</ele>
<speed>109</speed>
<course>60.5</course>
<desc>Speed 109 km/h Distance 168 km</desc>
<time>2010-07-31T16:17:32.50</time>
<name>4622</name>
</trkpt>
<trkpt lat="48.975737" lon="10.633777">
<ele>462.5</ele>
<speed>107</speed>
<course>62.2</course>
<desc>Speed 107 km/h Distance 168 km</desc>
<time>2010-07-31T16:17:33.49</time>
<name>4623</name>
</trkpt>
<trkpt lat="48.976058" lon="10.634705">
<ele>463.0</ele>
<speed>95.1</speed>
<course>60.9</course>
<desc>Speed 95.1 km/h Distance 168 km</desc>
<time>2010-07-31T16:17:36.49</time>
<name>4624</name>
</trkpt>
<trkpt lat="48.976172" lon="10.635015">
<ele>463.5</ele>
<speed>92.3</speed>
<course>60.7</course>
<desc>Speed 92.3 km/h Distance 168 km</desc>
<time>2010-07-31T16:17:37.48</time>
<name>4625</name>
</trkpt>
<trkpt lat="48.976283" lon="10.635318">
<ele>463.5</ele>
<speed>90.7</speed>
<course>58.4</course>
<desc>Speed 90.7 km/h Distance 168 km</desc>
<time>2010-07-31T16:17:38.48</time>
<name>4626</name>
</trkpt>
<trkpt lat="48.976403" lon="10.635615">
<ele>463.5</ele>
<speed>90.9</speed>
<course>57.9</course>
<desc>Speed 90.9 km/h Distance 168 km</desc>
<time>2010-07-31T16:17:39.49</time>
<name>4627</name>
</trkpt>
<trkpt lat="48.976525" lon="10.635910">
<ele>463.5</ele>
<speed>90.0</speed>
<course>55.3</course>
<desc>Speed 90.0 km/h Distance 168 km</desc>
<time>2010-07-31T16:17:40.47</time>
<name>4628</name>
</trkpt>
<trkpt lat="48.976657" lon="10.636200">
<ele>463.5</ele>
<speed>91.0</speed>
<course>53.7</course>
<desc>Speed 91.0 km/h Distance 168 km</desc>
<time>2010-07-31T16:17:41.47</time>
<name>4629</name>
</trkpt>
<trkpt lat="48.976797" lon="10.636490">
<ele>463.5</ele>
<speed>93.2</speed>
<course>52.2</course>
<desc>Speed 93.2 km/h Distance 168 km</desc>
<time>2010-07-31T16:17:42.49</time>
<name>4630</name>
</trkpt>
<trkpt lat="48.976945" lon="10.636782">
<ele>463.5</ele>
<speed>95.9</speed>
<course>49.8</course>
<desc>Speed 95.9 km/h Distance 168 km</desc>
<time>2010-07-31T16:17:43.47</time>
<name>4631</name>
</trkpt>
<trkpt lat="48.977107" lon="10.637073">
<ele>463.5</ele>
<speed>99.6</speed>
<course>44.6</course>
<desc>Speed 99.6 km/h Distance 168 km</desc>
<time>2010-07-31T16:17:44.58</time>
<name>4632</name>
</trkpt>
<trkpt lat="48.977492" lon="10.637652">
<ele>465.0</ele>
<speed>110</speed>
<course>39.0</course>
<desc>Speed 110 km/h Distance 169 km</desc>
<time>2010-07-31T16:17:46.68</time>
<name>4633</name>
</trkpt>
<trkpt lat="48.978147" lon="10.638460">
<ele>465.5</ele>
<speed>110</speed>
<course>35.1</course>
<desc>Speed 110 km/h Distance 169 km</desc>
<time>2010-07-31T16:17:49.44</time>
<name>4634</name>
</trkpt>
<trkpt lat="48.978557" lon="10.638898">
<ele>465.5</ele>
<speed>107</speed>
<course>29.0</course>
<desc>Speed 107 km/h Distance 169 km</desc>
<time>2010-07-31T16:17:51.45</time>
<name>4635</name>
</trkpt>
<trkpt lat="48.979043" lon="10.639310">
<ele>468.0</ele>
<speed>106</speed>
<course>26.4</course>
<desc>Speed 106 km/h Distance 169 km</desc>
<time>2010-07-31T16:17:53.44</time>
<name>4636</name>
</trkpt>
<trkpt lat="48.979490" lon="10.639648">
<ele>468.5</ele>
<speed>103</speed>
<course>20.6</course>
<desc>Speed 103 km/h Distance 169 km</desc>
<time>2010-07-31T16:17:55.43</time>
<name>4637</name>
</trkpt>
<trkpt lat="48.979740" lon="10.639792">
<ele>468.5</ele>
<speed>106</speed>
<course>14.0</course>
<desc>Speed 106 km/h Distance 169 km</desc>
<time>2010-07-31T16:17:56.44</time>
<name>4638</name>
</trkpt>
<trkpt lat="48.980628" lon="10.640130">
<ele>468.5</ele>
<speed>106</speed>
<course>4.5</course>
<desc>Speed 106 km/h Distance 169 km</desc>
<time>2010-07-31T16:18:02.42</time>
<name>4639</name>
</trkpt>
<trkpt lat="48.981395" lon="10.640222">
<ele>467.5</ele>
<speed>56.2</speed>
<course>8.3</course>
<desc>Speed 56.2 km/h Distance 169 km</desc>
<time>2010-07-31T16:18:07.60</time>
<name>4640</name>
</trkpt>
<trkpt lat="48.981672" lon="10.640283">
<ele>464.0</ele>
<speed>39.2</speed>
<course>8.3</course>
<desc>Speed 39.2 km/h Distance 169 km</desc>
<time>2010-07-31T16:18:10.41</time>
<name>4641</name>
</trkpt>
</trkseg>
</trk>
</gpx>
